//0
//<Encoding>UTF-8</Encoding>
//File updated on 11/18/2025 11:56
//WMO ID: 4902642
//MBARI ID: ODV4902642
//Data source: 4902642_Sprof.nc
//DAC: meds
//Float type: ARVOR_D
//
//PLEASE READ:
//Data for this file has been extracted from the Synthetic profiles (*SProf.nc)
//Only RAW data parameters were used
//Missing Float profile(s) for station(s): 1 17 29 33 34 43 45 
//
//Missing data value = -1e10
//Argo to ODV QF conversion: Argo 0|99 => ODV 1, Argo 1|2|8 => ODV 0, Argo 3|5 => ODV 4, Argo 4 => ODV 8
//Data quality flags: 0=Good, 4=Questionable, 8=Bad, 1=Missing or not inspected 
Cruise	Station	Type	mon/day/yr	hh:mm	Lon [°E]	Lat [°N]	QF	Pressure[dbar]	QF	Temperature[°C]	QF	Salinity[pss]	QF	Sigma_theta[kg/m^3]	QF	Depth[m]	QF	Oxygen[µmol/kg]	QF	OxygenSat[%]	QF	Nitrate[µmol/kg]	QF	Chl_a[mg/m^3]	QF	b_bp700[1/m]	QF	CDOM[ppb]	QF	pHinsitu[Total]	QF	CP660[1/m]	QF
4902642	2	C	07/10/2024	12:10	-131.543	44.919	0	3.50	0	16.1120	0	32.3630	0	23.696	0	3.472	0	-1e10	1	-1e10	1	-1E+10	1	-1E+10	1	-1E+10	1	-1E+10	1	-1E+10	1	-1E+10	1
4902642	2	C	07/10/2024	12:10	-131.543	44.919	0	3.60	0	16.1140	0	32.3620	0	23.695	0	3.571	0	231.6	4	93.8	4	-1E+10	1	-1E+10	1	-1E+10	1	-1E+10	1	-1E+10	1	-1E+10	1
4902642	2	C	07/10/2024	12:10	-131.543	44.919	0	4.50	0	16.1140	0	32.3680	0	23.699	0	4.463	0	231.6	4	93.8	4	-1E+10	1	-1E+10	1	-1E+10	1	-1E+10	1	-1E+10	1	-1E+10	1
4902642	2	C	07/10/2024	12:10	-131.543	44.919	0	5.60	0	16.1140	0	32.3690	0	23.700	0	5.555	0	232.0	4	94.0	4	-1E+10	1	-1E+10	1	-1E+10	1	-1E+10	1	-1E+10	1	-1E+10	1
4902642	2	C	07/10/2024	12:10	-131.543	44.919	0	6.70	0	16.1140	0	32.3680	0	23.699	0	6.646	0	232.2	4	94.1	4	-1E+10	1	-1E+10	1	-1E+10	1	-1E+10	1	-1E+10	1	-1E+10	1
4902642	2	C	07/10/2024	12:10	-131.543	44.919	0	7.50	0	16.1120	0	32.3670	0	23.699	0	7.439	0	232.6	4	94.2	4	-1E+10	1	-1E+10	1	-1E+10	1	-1E+10	1	-1E+10	1	-1E+10	1
4902642	2	C	07/10/2024	12:10	-131.543	44.919	0	8.60	0	16.1120	0	32.3660	0	23.698	0	8.530	0	233.2	4	94.4	4	-1E+10	1	-1E+10	1	-1E+10	1	-1E+10	1	-1E+10	1	-1E+10	1
4902642	2	C	07/10/2024	12:10	-131.543	44.919	0	9.50	0	16.0970	0	32.3620	0	23.699	0	9.423	0	233.7	4	94.6	4	-1E+10	1	-1E+10	1	-1E+10	1	-1E+10	1	-1E+10	1	-1E+10	1
4902642	2	C	07/10/2024	12:10	-131.543	44.919	0	14.50	0	15.3600	0	32.3660	0	23.865	0	14.382	0	239.3	4	95.5	4	-1E+10	1	-1E+10	1	-1E+10	1	-1E+10	1	-1E+10	1	-1E+10	1
4902642	2	C	07/10/2024	12:10	-131.543	44.919	0	24.30	0	14.0960	0	32.3610	0	24.130	0	24.102	0	248.5	4	96.7	4	-1E+10	1	-1E+10	1	-1E+10	1	-1E+10	1	-1E+10	1	-1E+10	1
4902642	2	C	07/10/2024	12:10	-131.543	44.919	0	34.90	0	13.0300	0	32.3290	0	24.320	0	34.614	0	251.6	4	95.8	4	-1E+10	1	-1E+10	1	-1E+10	1	-1E+10	1	-1E+10	1	-1E+10	1
4902642	2	C	07/10/2024	12:10	-131.543	44.919	0	45.00	0	12.1070	0	32.3260	0	24.495	0	44.630	0	251.3	4	93.9	4	-1E+10	1	-1E+10	1	-1E+10	1	-1E+10	1	-1E+10	1	-1E+10	1
4902642	2	C	07/10/2024	12:10	-131.543	44.919	0	55.00	0	11.1520	0	32.3290	0	24.671	0	54.547	0	251.1	4	91.9	4	-1E+10	1	-1E+10	1	-1E+10	1	-1E+10	1	-1E+10	1	-1E+10	1
4902642	2	C	07/10/2024	12:10	-131.543	44.919	0	64.20	0	10.6920	0	32.3420	0	24.762	0	63.669	0	246.6	4	89.4	4	-1E+10	1	-1E+10	1	-1E+10	1	-1E+10	1	-1E+10	1	-1E+10	1
4902642	2	C	07/10/2024	12:10	-131.543	44.919	0	74.80	0	10.1050	0	32.4020	0	24.908	0	74.180	0	235.3	4	84.3	4	-1E+10	1	-1E+10	1	-1E+10	1	-1E+10	1	-1E+10	1	-1E+10	1
4902642	2	C	07/10/2024	12:10	-131.543	44.919	0	84.30	0	9.6580	0	32.4950	0	25.054	0	83.599	0	219.9	4	78.1	4	-1E+10	1	-1E+10	1	-1E+10	1	-1E+10	1	-1E+10	1	-1E+10	1
4902642	2	C	07/10/2024	12:10	-131.543	44.919	0	94.90	0	9.1250	0	32.6850	0	25.288	0	94.109	0	198.6	4	69.8	4	-1E+10	1	-1E+10	1	-1E+10	1	-1E+10	1	-1E+10	1	-1E+10	1
4902642	2	C	07/10/2024	12:10	-131.543	44.919	0	105.00	0	8.6030	0	32.8920	0	25.531	0	104.122	0	186.6	4	64.9	4	-1E+10	1	-1E+10	1	-1E+10	1	-1E+10	1	-1E+10	1	-1E+10	1
4902642	2	C	07/10/2024	12:10	-131.543	44.919	0	114.60	0	8.1720	0	33.0720	0	25.737	0	113.639	0	176.9	4	61.0	4	-1E+10	1	-1E+10	1	-1E+10	1	-1E+10	1	-1E+10	1	-1E+10	1
4902642	2	C	07/10/2024	12:10	-131.543	44.919	0	124.80	0	8.0180	0	33.2310	0	25.884	0	123.750	0	165.9	4	57.1	4	-1E+10	1	-1E+10	1	-1E+10	1	-1E+10	1	-1E+10	1	-1E+10	1
4902642	2	C	07/10/2024	12:10	-131.543	44.919	0	134.30	0	7.8470	0	33.4070	0	26.047	0	133.168	0	155.2	4	53.3	4	-1E+10	1	-1E+10	1	-1E+10	1	-1E+10	1	-1E+10	1	-1E+10	1
4902642	2	C	07/10/2024	12:10	-131.543	44.919	0	144.80	0	7.6600	0	33.5520	0	26.188	0	143.575	0	155.1	4	53.1	4	-1E+10	1	-1E+10	1	-1E+10	1	-1E+10	1	-1E+10	1	-1E+10	1
4902642	2	C	07/10/2024	12:10	-131.543	44.919	0	154.80	0	7.4470	0	33.6310	0	26.281	0	153.487	0	161.6	4	55.1	4	-1E+10	1	-1E+10	1	-1E+10	1	-1E+10	1	-1E+10	1	-1E+10	1
4902642	2	C	07/10/2024	12:10	-131.543	44.919	0	164.30	0	7.1350	0	33.6900	0	26.371	0	162.903	0	164.4	4	55.7	4	-1E+10	1	-1E+10	1	-1E+10	1	-1E+10	1	-1E+10	1	-1E+10	1
4902642	2	C	07/10/2024	12:10	-131.543	44.919	0	174.80	0	7.0040	0	33.7380	0	26.427	0	173.309	0	147.4	4	49.8	4	-1E+10	1	-1E+10	1	-1E+10	1	-1E+10	1	-1E+10	1	-1E+10	1
4902642	2	C	07/10/2024	12:10	-131.543	44.919	0	184.60	0	6.9540	0	33.8020	0	26.484	0	183.021	0	134.1	4	45.2	4	-1E+10	1	-1E+10	1	-1E+10	1	-1E+10	1	-1E+10	1	-1E+10	1
4902642	2	C	07/10/2024	12:10	-131.543	44.919	0	194.50	0	6.7950	0	33.8180	0	26.518	0	192.832	0	129.0	4	43.4	4	-1E+10	1	-1E+10	1	-1E+10	1	-1E+10	1	-1E+10	1	-1E+10	1
4902642	2	C	07/10/2024	12:10	-131.543	44.919	0	209.50	0	6.6290	0	33.8380	0	26.556	0	207.696	0	114.8	4	38.5	4	-1E+10	1	-1E+10	1	-1E+10	1	-1E+10	1	-1E+10	1	-1E+10	1
4902642	2	C	07/10/2024	12:10	-131.543	44.919	0	229.60	0	6.5640	0	33.8810	0	26.599	0	227.611	0	101.6	4	34.0	4	-1E+10	1	-1E+10	1	-1E+10	1	-1E+10	1	-1E+10	1	-1E+10	1
4902642	2	C	07/10/2024	12:10	-131.543	44.919	0	249.30	0	6.2880	0	33.8810	0	26.635	0	247.129	0	95.4	4	31.7	4	-1E+10	1	-1E+10	1	-1E+10	1	-1E+10	1	-1E+10	1	-1E+10	1
4902642	2	C	07/10/2024	12:10	-131.543	44.919	0	269.40	0	6.1010	0	33.9030	0	26.676	0	267.041	0	85.4	4	28.3	4	-1E+10	1	-1E+10	1	-1E+10	1	-1E+10	1	-1E+10	1	-1E+10	1
4902642	2	C	07/10/2024	12:10	-131.543	44.919	0	289.70	0	5.8880	0	33.9090	0	26.708	0	287.149	0	79.2	4	26.1	4	-1E+10	1	-1E+10	1	-1E+10	1	-1E+10	1	-1E+10	1	-1E+10	1
4902642	2	C	07/10/2024	12:10	-131.543	44.919	0	309.90	0	5.8560	0	33.9450	0	26.740	0	307.156	0	65.3	4	21.5	4	-1E+10	1	-1E+10	1	-1E+10	1	-1E+10	1	-1E+10	1	-1E+10	1
4902642	2	C	07/10/2024	12:10	-131.543	44.919	0	329.90	0	5.8200	0	33.9660	0	26.762	0	326.964	0	59.8	4	19.7	4	-1E+10	1	-1E+10	1	-1E+10	1	-1E+10	1	-1E+10	1	-1E+10	1
4902642	2	C	07/10/2024	12:10	-131.543	44.919	0	350.00	0	5.6820	0	33.9780	0	26.788	0	346.868	0	54.6	4	17.9	4	-1E+10	1	-1E+10	1	-1E+10	1	-1E+10	1	-1E+10	1	-1E+10	1
4902642	2	C	07/10/2024	12:10	-131.543	44.919	0	369.20	0	5.5740	0	33.9920	0	26.812	0	365.879	0	50.1	4	16.4	4	-1E+10	1	-1E+10	1	-1E+10	1	-1E+10	1	-1E+10	1	-1E+10	1
4902642	2	C	07/10/2024	12:10	-131.543	44.919	0	389.90	0	5.4070	0	34.0000	0	26.839	0	386.374	0	46.4	4	15.1	4	-1E+10	1	-1E+10	1	-1E+10	1	-1E+10	1	-1E+10	1	-1E+10	1
4902642	2	C	07/10/2024	12:10	-131.543	44.919	0	410.00	0	5.2600	0	34.0130	0	26.867	0	406.272	0	42.6	4	13.8	4	-1E+10	1	-1E+10	1	-1E+10	1	-1E+10	1	-1E+10	1	-1E+10	1
4902642	2	C	07/10/2024	12:10	-131.543	44.919	0	429.60	0	5.1330	0	34.0270	0	26.893	0	425.674	0	38.6	4	12.5	4	-1E+10	1	-1E+10	1	-1E+10	1	-1E+10	1	-1E+10	1	-1E+10	1
4902642	2	C	07/10/2024	12:10	-131.543	44.919	0	449.40	0	5.0920	0	34.0440	0	26.911	0	445.272	0	34.9	4	11.3	4	-1E+10	1	-1E+10	1	-1E+10	1	-1E+10	1	-1E+10	1	-1E+10	1
4902642	2	C	07/10/2024	12:10	-131.543	44.919	0	469.60	0	5.0110	0	34.0580	0	26.932	0	465.263	0	31.8	4	10.3	4	-1E+10	1	-1E+10	1	-1E+10	1	-1E+10	1	-1E+10	1	-1E+10	1
4902642	2	C	07/10/2024	12:10	-131.543	44.919	0	489.60	0	4.9000	0	34.0660	0	26.951	0	485.055	0	29.9	4	9.6	4	-1E+10	1	-1E+10	1	-1E+10	1	-1E+10	1	-1E+10	1	-1E+10	1
4902642	2	C	07/10/2024	12:10	-131.543	44.919	0	509.70	0	4.8320	0	34.0780	0	26.968	0	504.944	0	26.4	4	8.5	4	-1E+10	1	-1E+10	1	-1E+10	1	-1E+10	1	-1E+10	1	-1E+10	1
4902642	2	C	07/10/2024	12:10	-131.543	44.919	0	530.60	0	4.7620	0	34.0980	0	26.992	0	525.623	0	23.1	4	7.4	4	-1E+10	1	-1E+10	1	-1E+10	1	-1E+10	1	-1E+10	1	-1E+10	1
4902642	2	C	07/10/2024	12:10	-131.543	44.919	0	549.70	0	4.6720	0	34.1120	0	27.013	0	544.519	0	20.4	4	6.5	4	-1E+10	1	-1E+10	1	-1E+10	1	-1E+10	1	-1E+10	1	-1E+10	1
4902642	2	C	07/10/2024	12:10	-131.543	44.919	0	569.70	0	4.6040	0	34.1270	0	27.032	0	564.303	0	17.8	4	5.7	4	-1E+10	1	-1E+10	1	-1E+10	1	-1E+10	1	-1E+10	1	-1E+10	1
4902642	2	C	07/10/2024	12:10	-131.543	44.919	0	589.80	0	4.5580	0	34.1490	0	27.055	0	584.185	0	15.1	4	4.8	4	-1E+10	1	-1E+10	1	-1E+10	1	-1E+10	1	-1E+10	1	-1E+10	1
4902642	2	C	07/10/2024	12:10	-131.543	44.919	0	609.80	0	4.5030	0	34.1670	0	27.075	0	603.965	0	13.0	4	4.2	4	-1E+10	1	-1E+10	1	-1E+10	1	-1E+10	1	-1E+10	1	-1E+10	1
4902642	2	C	07/10/2024	12:10	-131.543	44.919	0	629.60	0	4.4240	0	34.1810	0	27.095	0	623.546	0	11.6	4	3.7	4	-1E+10	1	-1E+10	1	-1E+10	1	-1E+10	1	-1E+10	1	-1E+10	1
4902642	2	C	07/10/2024	12:10	-131.543	44.919	0	649.60	0	4.3830	0	34.1990	0	27.114	0	643.323	0	10.2	4	3.3	4	-1E+10	1	-1E+10	1	-1E+10	1	-1E+10	1	-1E+10	1	-1E+10	1
4902642	2	C	07/10/2024	12:10	-131.543	44.919	0	669.40	0	4.3540	0	34.2150	0	27.130	0	662.900	0	9.1	4	2.9	4	-1E+10	1	-1E+10	1	-1E+10	1	-1E+10	1	-1E+10	1	-1E+10	1
4902642	2	C	07/10/2024	12:10	-131.543	44.919	0	689.60	0	4.3010	0	34.2310	0	27.149	0	682.871	0	8.2	4	2.6	4	-1E+10	1	-1E+10	1	-1E+10	1	-1E+10	1	-1E+10	1	-1E+10	1
4902642	2	C	07/10/2024	12:10	-131.543	44.919	0	709.60	0	4.2200	0	34.2440	0	27.168	0	702.642	0	7.6	4	2.4	4	-1E+10	1	-1E+10	1	-1E+10	1	-1E+10	1	-1E+10	1	-1E+10	1
4902642	2	C	07/10/2024	12:10	-131.543	44.919	0	729.80	0	4.1300	0	34.2560	0	27.187	0	722.609	0	7.1	4	2.2	4	-1E+10	1	-1E+10	1	-1E+10	1	-1E+10	1	-1E+10	1	-1E+10	1
4902642	2	C	07/10/2024	12:10	-131.543	44.919	0	749.70	0	4.0640	0	34.2680	0	27.203	0	742.278	0	6.6	4	2.1	4	-1E+10	1	-1E+10	1	-1E+10	1	-1E+10	1	-1E+10	1	-1E+10	1
4902642	2	C	07/10/2024	12:10	-131.543	44.919	0	769.80	0	4.0060	0	34.2820	0	27.220	0	762.142	0	6.3	4	2.0	4	-1E+10	1	-1E+10	1	-1E+10	1	-1E+10	1	-1E+10	1	-1E+10	1
4902642	2	C	07/10/2024	12:10	-131.543	44.919	0	789.80	0	3.9240	0	34.2900	0	27.235	0	781.905	0	6.1	4	1.9	4	-1E+10	1	-1E+10	1	-1E+10	1	-1E+10	1	-1E+10	1	-1E+10	1
4902642	2	C	07/10/2024	12:10	-131.543	44.919	0	810.30	0	3.8750	0	34.2980	0	27.247	0	802.161	0	5.9	4	1.8	4	-1E+10	1	-1E+10	1	-1E+10	1	-1E+10	1	-1E+10	1	-1E+10	1
4902642	2	C	07/10/2024	12:10	-131.543	44.919	0	829.70	0	3.8190	0	34.3120	0	27.263	0	821.328	0	5.7	4	1.8	4	-1E+10	1	-1E+10	1	-1E+10	1	-1E+10	1	-1E+10	1	-1E+10	1
4902642	2	C	07/10/2024	12:10	-131.543	44.919	0	849.80	0	3.7850	0	34.3230	0	27.276	0	841.185	0	5.6	4	1.7	4	-1E+10	1	-1E+10	1	-1E+10	1	-1E+10	1	-1E+10	1	-1E+10	1
4902642	2	C	07/10/2024	12:10	-131.543	44.919	0	869.80	0	3.7560	0	34.3330	0	27.287	0	860.941	0	5.5	4	1.7	4	-1E+10	1	-1E+10	1	-1E+10	1	-1E+10	1	-1E+10	1	-1E+10	1
4902642	2	C	07/10/2024	12:10	-131.543	44.919	0	890.30	0	3.7120	0	34.3430	0	27.299	0	881.189	0	5.6	4	1.7	4	-1E+10	1	-1E+10	1	-1E+10	1	-1E+10	1	-1E+10	1	-1E+10	1
4902642	2	C	07/10/2024	12:10	-131.543	44.919	0	909.50	0	3.6610	0	34.3520	0	27.312	0	900.151	0	5.6	4	1.8	4	-1E+10	1	-1E+10	1	-1E+10	1	-1E+10	1	-1E+10	1	-1E+10	1
4902642	2	C	07/10/2024	12:10	-131.543	44.919	0	929.40	0	3.6250	0	34.3610	0	27.322	0	919.803	0	5.8	4	1.8	4	-1E+10	1	-1E+10	1	-1E+10	1	-1E+10	1	-1E+10	1	-1E+10	1
4902642	2	C	07/10/2024	12:10	-131.543	44.919	0	949.60	0	3.6050	0	34.3730	0	27.334	0	939.749	0	6.1	4	1.9	4	-1E+10	1	-1E+10	1	-1E+10	1	-1E+10	1	-1E+10	1	-1E+10	1
4902642	2	C	07/10/2024	12:10	-131.543	44.919	0	969.80	0	3.5500	0	34.3830	0	27.347	0	959.693	0	6.2	4	1.9	4	-1E+10	1	-1E+10	1	-1E+10	1	-1E+10	1	-1E+10	1	-1E+10	1
4902642	2	C	07/10/2024	12:10	-131.543	44.919	0	989.80	0	3.4850	0	34.3880	0	27.358	0	979.438	0	6.4	4	2.0	4	-1E+10	1	-1E+10	1	-1E+10	1	-1E+10	1	-1E+10	1	-1E+10	1
4902642	2	C	07/10/2024	12:10	-131.543	44.919	0	1009.70	0	3.4560	0	34.3970	0	27.368	0	999.082	0	7.0	4	2.2	4	-1E+10	1	-1E+10	1	-1E+10	1	-1E+10	1	-1E+10	1	-1E+10	1
4902642	2	C	07/10/2024	12:10	-131.543	44.919	0	1029.80	0	3.4310	0	34.4060	0	27.378	0	1018.922	0	7.3	4	2.3	4	-1E+10	1	-1E+10	1	-1E+10	1	-1E+10	1	-1E+10	1	-1E+10	1
4902642	2	C	07/10/2024	12:10	-131.543	44.919	0	1049.70	0	3.3930	0	34.4110	0	27.385	0	1038.563	0	7.7	4	2.4	4	-1E+10	1	-1E+10	1	-1E+10	1	-1E+10	1	-1E+10	1	-1E+10	1
4902642	2	C	07/10/2024	12:10	-131.543	44.919	0	1069.90	0	3.3610	0	34.4190	0	27.395	0	1058.498	0	8.3	4	2.6	4	-1E+10	1	-1E+10	1	-1E+10	1	-1E+10	1	-1E+10	1	-1E+10	1
4902642	2	C	07/10/2024	12:10	-131.543	44.919	0	1090.00	0	3.3250	0	34.4260	0	27.404	0	1078.332	0	8.9	4	2.8	4	-1E+10	1	-1E+10	1	-1E+10	1	-1E+10	1	-1E+10	1	-1E+10	1
4902642	2	C	07/10/2024	12:10	-131.543	44.919	0	1109.80	0	3.2880	0	34.4350	0	27.415	0	1097.868	0	9.8	4	3.0	4	-1E+10	1	-1E+10	1	-1E+10	1	-1E+10	1	-1E+10	1	-1E+10	1
4902642	2	C	07/10/2024	12:10	-131.543	44.919	0	1129.70	0	3.2450	0	34.4420	0	27.424	0	1117.501	0	10.5	4	3.2	4	-1E+10	1	-1E+10	1	-1E+10	1	-1E+10	1	-1E+10	1	-1E+10	1
4902642	2	C	07/10/2024	12:10	-131.543	44.919	0	1150.00	0	3.2070	0	34.4480	0	27.433	0	1137.527	0	11.1	4	3.4	4	-1E+10	1	-1E+10	1	-1E+10	1	-1E+10	1	-1E+10	1	-1E+10	1
4902642	2	C	07/10/2024	12:10	-131.543	44.919	0	1169.60	0	3.1600	0	34.4540	0	27.442	0	1156.860	0	11.6	4	3.6	4	-1E+10	1	-1E+10	1	-1E+10	1	-1E+10	1	-1E+10	1	-1E+10	1
4902642	2	C	07/10/2024	12:10	-131.543	44.919	0	1190.20	0	3.1030	0	34.4580	0	27.451	0	1177.178	0	11.9	4	3.7	4	-1E+10	1	-1E+10	1	-1E+10	1	-1E+10	1	-1E+10	1	-1E+10	1
4902642	2	C	07/10/2024	12:10	-131.543	44.919	0	1210.10	0	3.0490	0	34.4610	0	27.458	0	1196.804	0	12.2	4	3.8	4	-1E+10	1	-1E+10	1	-1E+10	1	-1E+10	1	-1E+10	1	-1E+10	1
4902642	2	C	07/10/2024	12:10	-131.543	44.919	0	1230.10	0	3.0120	0	34.4650	0	27.465	0	1216.526	0	12.7	4	3.9	4	-1E+10	1	-1E+10	1	-1E+10	1	-1E+10	1	-1E+10	1	-1E+10	1
4902642	2	C	07/10/2024	12:10	-131.543	44.919	0	1249.90	0	2.9750	0	34.4680	0	27.471	0	1236.050	0	13.2	4	4.1	4	-1E+10	1	-1E+10	1	-1E+10	1	-1E+10	1	-1E+10	1	-1E+10	1
4902642	2	C	07/10/2024	12:10	-131.543	44.919	0	1269.90	0	2.9350	0	34.4720	0	27.477	0	1255.769	0	13.9	4	4.3	4	-1E+10	1	-1E+10	1	-1E+10	1	-1E+10	1	-1E+10	1	-1E+10	1
4902642	2	C	07/10/2024	12:10	-131.543	44.919	0	1289.80	0	2.9010	0	34.4760	0	27.484	0	1275.387	0	14.6	4	4.5	4	-1E+10	1	-1E+10	1	-1E+10	1	-1E+10	1	-1E+10	1	-1E+10	1
4902642	2	C	07/10/2024	12:10	-131.543	44.919	0	1309.80	0	2.8740	0	34.4810	0	27.490	0	1295.102	0	15.5	4	4.8	4	-1E+10	1	-1E+10	1	-1E+10	1	-1E+10	1	-1E+10	1	-1E+10	1
4902642	2	C	07/10/2024	12:10	-131.543	44.919	0	1330.00	0	2.8230	0	34.4870	0	27.500	0	1315.012	0	16.5	4	5.1	4	-1E+10	1	-1E+10	1	-1E+10	1	-1E+10	1	-1E+10	1	-1E+10	1
4902642	2	C	07/10/2024	12:10	-131.543	44.919	0	1350.30	0	2.7820	0	34.4910	0	27.507	0	1335.019	0	17.3	4	5.3	4	-1E+10	1	-1E+10	1	-1E+10	1	-1E+10	1	-1E+10	1	-1E+10	1
4902642	2	C	07/10/2024	12:10	-131.543	44.919	0	1369.80	0	2.7550	0	34.4960	0	27.513	0	1354.236	0	18.2	4	5.6	4	-1E+10	1	-1E+10	1	-1E+10	1	-1E+10	1	-1E+10	1	-1E+10	1
4902642	2	C	07/10/2024	12:10	-131.543	44.919	0	1390.00	0	2.7180	0	34.4980	0	27.518	0	1374.141	0	18.6	4	5.7	4	-1E+10	1	-1E+10	1	-1E+10	1	-1E+10	1	-1E+10	1	-1E+10	1
4902642	2	C	07/10/2024	12:10	-131.543	44.919	0	1410.20	0	2.6710	0	34.4990	0	27.523	0	1394.044	0	19.2	4	5.9	4	-1E+10	1	-1E+10	1	-1E+10	1	-1E+10	1	-1E+10	1	-1E+10	1
4902642	2	C	07/10/2024	12:10	-131.543	44.919	0	1429.90	0	2.6510	0	34.5030	0	27.528	0	1413.452	0	19.9	4	6.1	4	-1E+10	1	-1E+10	1	-1E+10	1	-1E+10	1	-1E+10	1	-1E+10	1
4902642	2	C	07/10/2024	12:10	-131.543	44.919	0	1449.80	0	2.6420	0	34.5060	0	27.531	0	1433.056	0	20.5	4	6.3	4	-1E+10	1	-1E+10	1	-1E+10	1	-1E+10	1	-1E+10	1	-1E+10	1
4902642	2	C	07/10/2024	12:10	-131.543	44.919	0	1469.70	0	2.6040	0	34.5090	0	27.537	0	1452.657	0	21.5	4	6.6	4	-1E+10	1	-1E+10	1	-1E+10	1	-1E+10	1	-1E+10	1	-1E+10	1
4902642	2	C	07/10/2024	12:10	-131.543	44.919	0	1490.30	0	2.5590	0	34.5130	0	27.544	0	1472.947	0	22.3	4	6.8	4	-1E+10	1	-1E+10	1	-1E+10	1	-1E+10	1	-1E+10	1	-1E+10	1
4902642	2	C	07/10/2024	12:10	-131.543	44.919	0	1509.90	0	2.5210	0	34.5150	0	27.549	0	1492.249	0	23.1	4	7.0	4	-1E+10	1	-1E+10	1	-1E+10	1	-1E+10	1	-1E+10	1	-1E+10	1
4902642	2	C	07/10/2024	12:10	-131.543	44.919	0	1529.80	0	2.4740	0	34.5190	0	27.556	0	1511.846	0	24.5	4	7.5	4	-1E+10	1	-1E+10	1	-1E+10	1	-1E+10	1	-1E+10	1	-1E+10	1
4902642	2	C	07/10/2024	12:10	-131.543	44.919	0	1549.90	0	2.4460	0	34.5230	0	27.562	0	1531.637	0	25.4	4	7.7	4	-1E+10	1	-1E+10	1	-1E+10	1	-1E+10	1	-1E+10	1	-1E+10	1
4902642	2	C	07/10/2024	12:10	-131.543	44.919	0	1569.60	0	2.4180	0	34.5250	0	27.566	0	1551.033	0	26.2	4	8.0	4	-1E+10	1	-1E+10	1	-1E+10	1	-1E+10	1	-1E+10	1	-1E+10	1
4902642	2	C	07/10/2024	12:10	-131.543	44.919	0	1589.80	0	2.3930	0	34.5280	0	27.571	0	1570.919	0	27.2	4	8.3	4	-1E+10	1	-1E+10	1	-1E+10	1	-1E+10	1	-1E+10	1	-1E+10	1
4902642	2	C	07/10/2024	12:10	-131.543	44.919	0	1609.90	0	2.3670	0	34.5320	0	27.576	0	1590.705	0	28.4	4	8.7	4	-1E+10	1	-1E+10	1	-1E+10	1	-1E+10	1	-1E+10	1	-1E+10	1
4902642	2	C	07/10/2024	12:10	-131.543	44.919	0	1629.80	0	2.3400	0	34.5360	0	27.582	0	1610.292	0	29.8	4	9.1	4	-1E+10	1	-1E+10	1	-1E+10	1	-1E+10	1	-1E+10	1	-1E+10	1
4902642	2	C	07/10/2024	12:10	-131.543	44.919	0	1649.90	0	2.3110	0	34.5410	0	27.588	0	1630.074	0	31.3	4	9.5	4	-1E+10	1	-1E+10	1	-1E+10	1	-1E+10	1	-1E+10	1	-1E+10	1
4902642	2	C	07/10/2024	12:10	-131.543	44.919	0	1669.60	0	2.2820	0	34.5450	0	27.594	0	1649.460	0	32.6	4	9.9	4	-1E+10	1	-1E+10	1	-1E+10	1	-1E+10	1	-1E+10	1	-1E+10	1
4902642	2	C	07/10/2024	12:10	-131.543	44.919	0	1689.90	0	2.2600	0	34.5490	0	27.599	0	1669.436	0	34.0	4	10.3	4	-1E+10	1	-1E+10	1	-1E+10	1	-1E+10	1	-1E+10	1	-1E+10	1
4902642	2	C	07/10/2024	12:10	-131.543	44.919	0	1710.90	0	2.2350	0	34.5530	0	27.604	0	1690.098	0	35.1	4	10.6	4	-1E+10	1	-1E+10	1	-1E+10	1	-1E+10	1	-1E+10	1	-1E+10	1
4902642	2	C	07/10/2024	12:10	-131.543	44.919	0	1729.80	0	2.2180	0	34.5550	0	27.607	0	1708.692	0	36.1	4	10.9	4	-1E+10	1	-1E+10	1	-1E+10	1	-1E+10	1	-1E+10	1	-1E+10	1
4902642	2	C	07/10/2024	12:10	-131.543	44.919	0	1749.90	0	2.1870	0	34.5590	0	27.613	0	1728.465	0	37.5	4	11.4	4	-1E+10	1	-1E+10	1	-1E+10	1	-1E+10	1	-1E+10	1	-1E+10	1
4902642	2	C	07/10/2024	12:10	-131.543	44.919	0	1770.00	0	2.1600	0	34.5620	0	27.618	0	1748.236	0	38.8	4	11.7	4	-1E+10	1	-1E+10	1	-1E+10	1	-1E+10	1	-1E+10	1	-1E+10	1
4902642	2	C	07/10/2024	12:10	-131.543	44.919	0	1789.70	0	2.1390	0	34.5650	0	27.622	0	1767.612	0	39.9	4	12.1	4	-1E+10	1	-1E+10	1	-1E+10	1	-1E+10	1	-1E+10	1	-1E+10	1
4902642	2	C	07/10/2024	12:10	-131.543	44.919	0	1810.00	0	2.1180	0	34.5680	0	27.626	0	1787.576	0	41.1	4	12.4	4	-1E+10	1	-1E+10	1	-1E+10	1	-1E+10	1	-1E+10	1	-1E+10	1
4902642	2	C	07/10/2024	12:10	-131.543	44.919	0	1830.40	0	2.0990	0	34.5710	0	27.630	0	1807.636	0	42.4	4	12.8	4	-1E+10	1	-1E+10	1	-1E+10	1	-1E+10	1	-1E+10	1	-1E+10	1
4902642	2	C	07/10/2024	12:10	-131.543	44.919	0	1850.20	0	2.0830	0	34.5740	0	27.634	0	1827.105	0	43.3	4	13.1	4	-1E+10	1	-1E+10	1	-1E+10	1	-1E+10	1	-1E+10	1	-1E+10	1
4902642	2	C	07/10/2024	12:10	-131.543	44.919	0	1869.80	0	2.0670	0	34.5750	0	27.636	0	1846.375	0	44.2	4	13.4	4	-1E+10	1	-1E+10	1	-1E+10	1	-1E+10	1	-1E+10	1	-1E+10	1
4902642	2	C	07/10/2024	12:10	-131.543	44.919	0	1890.30	0	2.0460	0	34.5780	0	27.640	0	1866.529	0	45.5	4	13.7	4	-1E+10	1	-1E+10	1	-1E+10	1	-1E+10	1	-1E+10	1	-1E+10	1
4902642	2	C	07/10/2024	12:10	-131.543	44.919	0	1909.90	0	2.0240	0	34.5820	0	27.645	0	1885.795	0	46.9	4	14.1	4	-1E+10	1	-1E+10	1	-1E+10	1	-1E+10	1	-1E+10	1	-1E+10	1
4902642	2	C	07/10/2024	12:10	-131.543	44.919	0	1929.60	0	2.0060	0	34.5840	0	27.648	0	1905.158	0	48.1	4	14.5	4	-1E+10	1	-1E+10	1	-1E+10	1	-1E+10	1	-1E+10	1	-1E+10	1
4902642	2	C	07/10/2024	12:10	-131.543	44.919	0	1949.70	0	1.9840	0	34.5870	0	27.652	0	1924.913	0	49.6	4	14.9	4	-1E+10	1	-1E+10	1	-1E+10	1	-1E+10	1	-1E+10	1	-1E+10	1
4902642	2	C	07/10/2024	12:10	-131.543	44.919	0	1970.00	0	1.9680	0	34.5900	0	27.656	0	1944.862	0	50.5	4	15.2	4	-1E+10	1	-1E+10	1	-1E+10	1	-1E+10	1	-1E+10	1	-1E+10	1
4902642	2	C	07/10/2024	12:10	-131.543	44.919	0	1989.90	0	1.9560	0	34.5920	0	27.659	0	1964.417	0	51.5	4	15.5	4	-1E+10	1	-1E+10	1	-1E+10	1	-1E+10	1	-1E+10	1	-1E+10	1
4902642	2	C	07/10/2024	12:10	-131.543	44.919	0	2010.30	0	1.9420	0	34.5940	0	27.662	0	1984.461	0	52.4	4	15.8	4	-1E+10	1	-1E+10	1	-1E+10	1	-1E+10	1	-1E+10	1	-1E+10	1
4902642	2	C	07/10/2024	12:10	-131.543	44.919	0	2030.30	0	1.9330	0	34.5960	0	27.664	0	2004.110	0	53.1	4	16.0	4	-1E+10	1	-1E+10	1	-1E+10	1	-1E+10	1	-1E+10	1	-1E+10	1
4902642	2	C	07/10/2024	12:10	-131.543	44.919	0	2050.00	0	1.9260	0	34.5970	0	27.665	0	2023.462	0	53.8	4	16.2	4	-1E+10	1	-1E+10	1	-1E+10	1	-1E+10	1	-1E+10	1	-1E+10	1
4902642	2	C	07/10/2024	12:10	-131.543	44.919	0	2069.80	0	1.9180	0	34.5990	0	27.668	0	2042.911	0	54.5	4	16.4	4	-1E+10	1	-1E+10	1	-1E+10	1	-1E+10	1	-1E+10	1	-1E+10	1
4902642	2	C	07/10/2024	12:10	-131.543	44.919	0	2090.10	0	1.9090	0	34.6000	0	27.669	0	2062.849	0	55.2	4	16.6	4	-1E+10	1	-1E+10	1	-1E+10	1	-1E+10	1	-1E+10	1	-1E+10	1
4902642	2	C	07/10/2024	12:10	-131.543	44.919	0	2110.20	0	1.9000	0	34.6020	0	27.672	0	2082.589	0	56.1	4	16.9	4	-1E+10	1	-1E+10	1	-1E+10	1	-1E+10	1	-1E+10	1	-1E+10	1
4902642	2	C	07/10/2024	12:10	-131.543	44.919	0	2130.20	0	1.8900	0	34.6040	0	27.674	0	2102.229	0	57.1	4	17.2	4	-1E+10	1	-1E+10	1	-1E+10	1	-1E+10	1	-1E+10	1	-1E+10	1
4902642	2	C	07/10/2024	12:10	-131.543	44.919	0	2149.80	0	1.8830	0	34.6050	0	27.676	0	2121.475	0	57.7	4	17.3	4	-1E+10	1	-1E+10	1	-1E+10	1	-1E+10	1	-1E+10	1	-1E+10	1
4902642	2	C	07/10/2024	12:10	-131.543	44.919	0	2169.90	0	1.8760	0	34.6070	0	27.678	0	2141.209	0	58.4	4	17.6	4	-1E+10	1	-1E+10	1	-1E+10	1	-1E+10	1	-1E+10	1	-1E+10	1
4902642	2	C	07/10/2024	12:10	-131.543	44.919	0	2189.80	0	1.8660	0	34.6090	0	27.680	0	2160.745	0	59.2	4	17.8	4	-1E+10	1	-1E+10	1	-1E+10	1	-1E+10	1	-1E+10	1	-1E+10	1
4902642	2	C	07/10/2024	12:10	-131.543	44.919	0	2210.00	0	1.8590	0	34.6100	0	27.682	0	2180.574	0	59.9	4	18.0	4	-1E+10	1	-1E+10	1	-1E+10	1	-1E+10	1	-1E+10	1	-1E+10	1
4902642	2	C	07/10/2024	12:10	-131.543	44.919	0	2230.00	0	1.8520	0	34.6110	0	27.683	0	2200.205	0	60.6	4	18.2	4	-1E+10	1	-1E+10	1	-1E+10	1	-1E+10	1	-1E+10	1	-1E+10	1
4902642	2	C	07/10/2024	12:10	-131.543	44.919	0	2249.70	0	1.8460	0	34.6130	0	27.686	0	2219.540	0	61.2	4	18.4	4	-1E+10	1	-1E+10	1	-1E+10	1	-1E+10	1	-1E+10	1	-1E+10	1
4902642	2	C	07/10/2024	12:10	-131.543	44.919	0	2269.80	0	1.8430	0	34.6130	0	27.686	0	2239.266	0	61.6	4	18.5	4	-1E+10	1	-1E+10	1	-1E+10	1	-1E+10	1	-1E+10	1	-1E+10	1
4902642	2	C	07/10/2024	12:10	-131.543	44.919	0	2290.30	0	1.8390	0	34.6140	0	27.687	0	2259.382	0	62.1	4	18.6	4	-1E+10	1	-1E+10	1	-1E+10	1	-1E+10	1	-1E+10	1	-1E+10	1
4902642	2	C	07/10/2024	12:10	-131.543	44.919	0	2309.80	0	1.8340	0	34.6150	0	27.688	0	2278.515	0	62.7	4	18.8	4	-1E+10	1	-1E+10	1	-1E+10	1	-1E+10	1	-1E+10	1	-1E+10	1
4902642	2	C	07/10/2024	12:10	-131.543	44.919	0	2329.80	0	1.8280	0	34.6160	0	27.690	0	2298.137	0	63.3	4	19.0	4	-1E+10	1	-1E+10	1	-1E+10	1	-1E+10	1	-1E+10	1	-1E+10	1
4902642	2	C	07/10/2024	12:10	-131.543	44.919	0	2350.00	0	1.8240	0	34.6170	0	27.691	0	2317.953	0	63.8	4	19.1	4	-1E+10	1	-1E+10	1	-1E+10	1	-1E+10	1	-1E+10	1	-1E+10	1
4902642	2	C	07/10/2024	12:10	-131.543	44.919	0	2370.00	0	1.8200	0	34.6180	0	27.692	0	2337.571	0	64.3	4	19.3	4	-1E+10	1	-1E+10	1	-1E+10	1	-1E+10	1	-1E+10	1	-1E+10	1
4902642	2	C	07/10/2024	12:10	-131.543	44.919	0	2390.00	0	1.8160	0	34.6190	0	27.693	0	2357.188	0	64.7	4	19.4	4	-1E+10	1	-1E+10	1	-1E+10	1	-1E+10	1	-1E+10	1	-1E+10	1
4902642	2	C	07/10/2024	12:10	-131.543	44.919	0	2410.10	0	1.8130	0	34.6190	0	27.694	0	2376.901	0	65.3	4	19.6	4	-1E+10	1	-1E+10	1	-1E+10	1	-1E+10	1	-1E+10	1	-1E+10	1
4902642	2	C	07/10/2024	12:10	-131.543	44.919	0	2430.00	0	1.8070	0	34.6210	0	27.696	0	2396.416	0	65.9	4	19.8	4	-1E+10	1	-1E+10	1	-1E+10	1	-1E+10	1	-1E+10	1	-1E+10	1
4902642	2	C	07/10/2024	12:10	-131.543	44.919	0	2450.20	0	1.8020	0	34.6210	0	27.696	0	2416.223	0	66.6	4	20.0	4	-1E+10	1	-1E+10	1	-1E+10	1	-1E+10	1	-1E+10	1	-1E+10	1
4902642	2	C	07/10/2024	12:10	-131.543	44.919	0	2470.00	0	1.7960	0	34.6220	0	27.698	0	2435.636	0	67.2	4	20.2	4	-1E+10	1	-1E+10	1	-1E+10	1	-1E+10	1	-1E+10	1	-1E+10	1
4902642	2	C	07/10/2024	12:10	-131.543	44.919	0	2490.20	0	1.7920	0	34.6230	0	27.699	0	2455.440	0	67.7	4	20.3	4	-1E+10	1	-1E+10	1	-1E+10	1	-1E+10	1	-1E+10	1	-1E+10	1
4902642	2	C	07/10/2024	12:10	-131.543	44.919	0	2510.10	0	1.7870	0	34.6240	0	27.700	0	2474.948	0	68.4	4	20.5	4	-1E+10	1	-1E+10	1	-1E+10	1	-1E+10	1	-1E+10	1	-1E+10	1
4902642	2	C	07/10/2024	12:10	-131.543	44.919	0	2529.90	0	1.7820	0	34.6250	0	27.702	0	2494.355	0	69.1	4	20.7	4	-1E+10	1	-1E+10	1	-1E+10	1	-1E+10	1	-1E+10	1	-1E+10	1
4902642	2	C	07/10/2024	12:10	-131.543	44.919	0	2549.60	0	1.7740	0	34.6260	0	27.703	0	2513.664	0	69.9	4	21.0	4	-1E+10	1	-1E+10	1	-1E+10	1	-1E+10	1	-1E+10	1	-1E+10	1
4902642	2	C	07/10/2024	12:10	-131.543	44.919	0	2569.80	0	1.7650	0	34.6270	0	27.705	0	2533.460	0	70.8	4	21.2	4	-1E+10	1	-1E+10	1	-1E+10	1	-1E+10	1	-1E+10	1	-1E+10	1
4902642	2	C	07/10/2024	12:10	-131.543	44.919	0	2589.90	0	1.7570	0	34.6290	0	27.707	0	2553.157	0	71.7	4	21.5	4	-1E+10	1	-1E+10	1	-1E+10	1	-1E+10	1	-1E+10	1	-1E+10	1
4902642	2	C	07/10/2024	12:10	-131.543	44.919	0	2609.50	0	1.7480	0	34.6300	0	27.709	0	2572.362	0	72.6	4	21.8	4	-1E+10	1	-1E+10	1	-1E+10	1	-1E+10	1	-1E+10	1	-1E+10	1
4902642	2	C	07/10/2024	12:10	-131.543	44.919	0	2630.10	0	1.7370	0	34.6310	0	27.710	0	2592.545	0	73.8	4	22.1	4	-1E+10	1	-1E+10	1	-1E+10	1	-1E+10	1	-1E+10	1	-1E+10	1
4902642	2	C	07/10/2024	12:10	-131.543	44.919	0	2649.70	0	1.7280	0	34.6330	0	27.713	0	2611.746	0	74.7	4	22.4	4	-1E+10	1	-1E+10	1	-1E+10	1	-1E+10	1	-1E+10	1	-1E+10	1
4902642	2	C	07/10/2024	12:10	-131.543	44.919	0	2670.00	0	1.7210	0	34.6340	0	27.714	0	2631.631	0	75.6	4	22.7	4	-1E+10	1	-1E+10	1	-1E+10	1	-1E+10	1	-1E+10	1	-1E+10	1
4902642	2	C	07/10/2024	12:10	-131.543	44.919	0	2690.20	0	1.7130	0	34.6350	0	27.716	0	2651.417	0	76.5	4	22.9	4	-1E+10	1	-1E+10	1	-1E+10	1	-1E+10	1	-1E+10	1	-1E+10	1
4902642	2	C	07/10/2024	12:10	-131.543	44.919	0	2709.90	0	1.7080	0	34.6360	0	27.717	0	2670.711	0	77.2	4	23.1	4	-1E+10	1	-1E+10	1	-1E+10	1	-1E+10	1	-1E+10	1	-1E+10	1
4902642	2	C	07/10/2024	12:10	-131.543	44.919	0	2730.00	0	1.7000	0	34.6370	0	27.719	0	2690.395	0	78.1	4	23.4	4	-1E+10	1	-1E+10	1	-1E+10	1	-1E+10	1	-1E+10	1	-1E+10	1
4902642	2	C	07/10/2024	12:10	-131.543	44.919	0	2750.40	0	1.6950	0	34.6380	0	27.720	0	2710.371	0	78.8	4	23.6	4	-1E+10	1	-1E+10	1	-1E+10	1	-1E+10	1	-1E+10	1	-1E+10	1
4902642	2	C	07/10/2024	12:10	-131.543	44.919	0	2770.70	0	1.6900	0	34.6390	0	27.721	0	2730.247	0	79.5	4	23.8	4	-1E+10	1	-1E+10	1	-1E+10	1	-1E+10	1	-1E+10	1	-1E+10	1
4902642	2	C	07/10/2024	12:10	-131.543	44.919	0	2789.80	0	1.6840	0	34.6400	0	27.723	0	2748.947	0	80.3	4	24.0	4	-1E+10	1	-1E+10	1	-1E+10	1	-1E+10	1	-1E+10	1	-1E+10	1
4902642	2	C	07/10/2024	12:10	-131.543	44.919	0	2809.70	0	1.6780	0	34.6410	0	27.724	0	2768.428	0	81.0	4	24.2	4	-1E+10	1	-1E+10	1	-1E+10	1	-1E+10	1	-1E+10	1	-1E+10	1
4902642	2	C	07/10/2024	12:10	-131.543	44.919	0	2829.90	0	1.6710	0	34.6420	0	27.725	0	2788.201	0	81.9	4	24.5	4	-1E+10	1	-1E+10	1	-1E+10	1	-1E+10	1	-1E+10	1	-1E+10	1
4902642	2	C	07/10/2024	12:10	-131.543	44.919	0	2850.20	0	1.6620	0	34.6420	0	27.726	0	2808.070	0	82.7	4	24.7	4	-1E+10	1	-1E+10	1	-1E+10	1	-1E+10	1	-1E+10	1	-1E+10	1
4902642	2	C	07/10/2024	12:10	-131.543	44.919	0	2870.00	0	1.6550	0	34.6430	0	27.728	0	2827.448	0	83.5	4	25.0	4	-1E+10	1	-1E+10	1	-1E+10	1	-1E+10	1	-1E+10	1	-1E+10	1
4902642	2	C	07/10/2024	12:10	-131.543	44.919	0	2890.40	0	1.6450	0	34.6430	0	27.728	0	2847.412	0	84.2	4	25.2	4	-1E+10	1	-1E+10	1	-1E+10	1	-1E+10	1	-1E+10	1	-1E+10	1
4902642	2	C	07/10/2024	12:10	-131.543	44.919	0	2910.00	0	1.6400	0	34.6440	0	27.730	0	2866.590	0	84.9	4	25.4	4	-1E+10	1	-1E+10	1	-1E+10	1	-1E+10	1	-1E+10	1	-1E+10	1
4902642	2	C	07/10/2024	12:10	-131.543	44.919	0	2930.10	0	1.6380	0	34.6450	0	27.731	0	2886.257	0	85.4	4	25.5	4	-1E+10	1	-1E+10	1	-1E+10	1	-1E+10	1	-1E+10	1	-1E+10	1
4902642	2	C	07/10/2024	12:10	-131.543	44.919	0	2950.20	0	1.6340	0	34.6450	0	27.731	0	2905.921	0	86.1	4	25.7	4	-1E+10	1	-1E+10	1	-1E+10	1	-1E+10	1	-1E+10	1	-1E+10	1
4902642	2	C	07/10/2024	12:10	-131.543	44.919	0	2970.10	0	1.6300	0	34.6470	0	27.733	0	2925.388	0	86.8	4	25.9	4	-1E+10	1	-1E+10	1	-1E+10	1	-1E+10	1	-1E+10	1	-1E+10	1
4902642	2	C	07/10/2024	12:10	-131.543	44.919	0	2990.10	0	1.6250	0	34.6480	0	27.734	0	2944.951	0	87.6	4	26.2	4	-1E+10	1	-1E+10	1	-1E+10	1	-1E+10	1	-1E+10	1	-1E+10	1
4902642	2	C	07/10/2024	12:10	-131.543	44.919	0	3010.10	0	1.6200	0	34.6480	0	27.735	0	2964.513	0	88.3	4	26.4	4	-1E+10	1	-1E+10	1	-1E+10	1	-1E+10	1	-1E+10	1	-1E+10	1
4902642	2	C	07/10/2024	12:10	-131.543	44.919	0	3030.00	0	1.6150	0	34.6490	0	27.736	0	2983.974	0	89.0	4	26.6	4	-1E+10	1	-1E+10	1	-1E+10	1	-1E+10	1	-1E+10	1	-1E+10	1
4902642	2	C	07/10/2024	12:10	-131.543	44.919	0	3049.70	0	1.6120	0	34.6500	0	27.737	0	3003.239	0	89.5	4	26.8	4	-1E+10	1	-1E+10	1	-1E+10	1	-1E+10	1	-1E+10	1	-1E+10	1
4902642	2	C	07/10/2024	12:10	-131.543	44.919	0	3069.90	0	1.6080	0	34.6510	0	27.739	0	3022.990	0	90.2	4	26.9	4	-1E+10	1	-1E+10	1	-1E+10	1	-1E+10	1	-1E+10	1	-1E+10	1
4902642	2	C	07/10/2024	12:10	-131.543	44.919	0	3090.00	0	1.6040	0	34.6520	0	27.740	0	3042.643	0	91.0	4	27.2	4	-1E+10	1	-1E+10	1	-1E+10	1	-1E+10	1	-1E+10	1	-1E+10	1
4902642	2	C	07/10/2024	12:10	-131.543	44.919	0	3110.20	0	1.5980	0	34.6530	0	27.741	0	3062.391	0	91.9	4	27.4	4	-1E+10	1	-1E+10	1	-1E+10	1	-1E+10	1	-1E+10	1	-1E+10	1
4902642	2	C	07/10/2024	12:10	-131.543	44.919	0	3130.00	0	1.5920	0	34.6540	0	27.743	0	3081.746	0	92.7	4	27.7	4	-1E+10	1	-1E+10	1	-1E+10	1	-1E+10	1	-1E+10	1	-1E+10	1
4902642	2	C	07/10/2024	12:10	-131.543	44.919	0	3149.70	0	1.5870	0	34.6550	0	27.744	0	3101.002	0	93.6	4	27.9	4	-1E+10	1	-1E+10	1	-1E+10	1	-1E+10	1	-1E+10	1	-1E+10	1
4902642	2	C	07/10/2024	12:10	-131.543	44.919	0	3169.70	0	1.5820	0	34.6560	0	27.745	0	3120.549	0	94.3	4	28.2	4	-1E+10	1	-1E+10	1	-1E+10	1	-1E+10	1	-1E+10	1	-1E+10	1
4902642	2	C	07/10/2024	12:10	-131.543	44.919	0	3189.90	0	1.5750	0	34.6570	0	27.747	0	3140.290	0	95.3	4	28.5	4	-1E+10	1	-1E+10	1	-1E+10	1	-1E+10	1	-1E+10	1	-1E+10	1
4902642	2	C	07/10/2024	12:10	-131.543	44.919	0	3209.70	0	1.5700	0	34.6580	0	27.748	0	3159.638	0	96.1	4	28.7	4	-1E+10	1	-1E+10	1	-1E+10	1	-1E+10	1	-1E+10	1	-1E+10	1
4902642	2	C	07/10/2024	12:10	-131.543	44.919	0	3230.30	0	1.5660	0	34.6580	0	27.748	0	3179.767	0	96.8	4	28.9	4	-1E+10	1	-1E+10	1	-1E+10	1	-1E+10	1	-1E+10	1	-1E+10	1
4902642	2	C	07/10/2024	12:10	-131.543	44.919	0	3250.10	0	1.5610	0	34.6590	0	27.750	0	3199.112	0	97.5	4	29.1	4	-1E+10	1	-1E+10	1	-1E+10	1	-1E+10	1	-1E+10	1	-1E+10	1
4902642	2	C	07/10/2024	12:10	-131.543	44.919	0	3269.90	0	1.5570	0	34.6600	0	27.751	0	3218.455	0	98.4	4	29.3	4	-1E+10	1	-1E+10	1	-1E+10	1	-1E+10	1	-1E+10	1	-1E+10	1
4902642	2	C	07/10/2024	12:10	-131.543	44.919	0	3289.70	0	1.5520	0	34.6610	0	27.752	0	3237.796	0	99.3	4	29.6	4	-1E+10	1	-1E+10	1	-1E+10	1	-1E+10	1	-1E+10	1	-1E+10	1
4902642	2	C	07/10/2024	12:10	-131.543	44.919	0	3309.90	0	1.5470	0	34.6620	0	27.753	0	3257.526	0	100.1	4	29.9	4	-1E+10	1	-1E+10	1	-1E+10	1	-1E+10	1	-1E+10	1	-1E+10	1
4902642	2	C	07/10/2024	12:10	-131.543	44.919	0	3330.00	0	1.5450	0	34.6630	0	27.754	0	3277.157	0	100.5	4	30.0	4	-1E+10	1	-1E+10	1	-1E+10	1	-1E+10	1	-1E+10	1	-1E+10	1
4902642	2	C	07/10/2024	12:10	-131.543	44.919	0	3350.30	0	1.5450	0	34.6630	0	27.755	0	3296.982	0	100.7	4	30.0	4	-1E+10	1	-1E+10	1	-1E+10	1	-1E+10	1	-1E+10	1	-1E+10	1
4902642	2	C	07/10/2024	12:10	-131.543	44.919	0	3369.80	0	1.5430	0	34.6640	0	27.756	0	3316.023	0	101.1	4	30.1	4	-1E+10	1	-1E+10	1	-1E+10	1	-1E+10	1	-1E+10	1	-1E+10	1
4902642	2	C	07/10/2024	12:10	-131.543	44.919	0	3388.80	0	1.5440	0	34.6640	0	27.756	0	3334.575	0	101.1	4	30.1	4	-1E+10	1	-1E+10	1	-1E+10	1	-1E+10	1	-1E+10	1	-1E+10	1
4902642	2	C	07/10/2024	12:10	-131.543	44.919	0																										
4902642	3	C	07/20/2024	10:04	-131.480	44.826	0	2.00	0	17.0370	0	32.3880	0	23.503	0	1.984	0	225.2	4	92.9	4	-1E+10	1	-1E+10	1	-1E+10	1	-1E+10	1	-1E+10	1	-1E+10	1
4902642	3	C	07/20/2024	10:04	-131.480	44.826	0	2.10	0	17.0380	0	32.3880	0	23.503	0	2.083	0	225.3	4	92.9	4	-1E+10	1	-1E+10	1	-1E+10	1	-1E+10	1	-1E+10	1	-1E+10	1
4902642	3	C	07/20/2024	10:04	-131.480	44.826	0	2.50	0	17.0400	0	32.3860	0	23.501	0	2.480	0	225.3	4	92.9	4	-1E+10	1	-1E+10	1	-1E+10	1	-1E+10	1	-1E+10	1	-1E+10	1
4902642	3	C	07/20/2024	10:04	-131.480	44.826	0	2.60	0	17.0390	0	32.3870	0	23.502	0	2.579	0	-1e10	1	-1e10	1	-1E+10	1	-1E+10	1	-1E+10	1	-1E+10	1	-1E+10	1	-1E+10	1
4902642	3	C	07/20/2024	10:04	-131.480	44.826	0	2.70	0	17.0410	0	32.3860	0	23.500	0	2.678	0	226.3	4	93.3	4	-1E+10	1	-1E+10	1	-1E+10	1	-1E+10	1	-1E+10	1	-1E+10	1
4902642	3	C	07/20/2024	10:04	-131.480	44.826	0	3.60	0	17.0500	0	32.3840	0	23.497	0	3.571	0	225.4	4	93.0	4	-1E+10	1	-1E+10	1	-1E+10	1	-1E+10	1	-1E+10	1	-1E+10	1
4902642	3	C	07/20/2024	10:04	-131.480	44.826	0	4.90	0	17.0530	0	32.3880	0	23.499	0	4.860	0	225.4	4	93.0	4	-1E+10	1	-1E+10	1	-1E+10	1	-1E+10	1	-1E+10	1	-1E+10	1
4902642	3	C	07/20/2024	10:04	-131.480	44.826	0	5.60	0	17.0540	0	32.3880	0	23.499	0	5.555	0	225.6	4	93.1	4	-1E+10	1	-1E+10	1	-1E+10	1	-1E+10	1	-1E+10	1	-1E+10	1
4902642	3	C	07/20/2024	10:04	-131.480	44.826	0	6.80	0	17.0510	0	32.3880	0	23.500	0	6.745	0	225.7	4	93.1	4	-1E+10	1	-1E+10	1	-1E+10	1	-1E+10	1	-1E+10	1	-1E+10	1
4902642	3	C	07/20/2024	10:04	-131.480	44.826	0	7.60	0	17.0420	0	32.3840	0	23.499	0	7.538	0	226.0	4	93.2	4	-1E+10	1	-1E+10	1	-1E+10	1	-1E+10	1	-1E+10	1	-1E+10	1
4902642	3	C	07/20/2024	10:04	-131.480	44.826	0	8.60	0	16.9950	0	32.3860	0	23.511	0	8.530	0	226.5	4	93.3	4	-1E+10	1	-1E+10	1	-1E+10	1	-1E+10	1	-1E+10	1	-1E+10	1
4902642	3	C	07/20/2024	10:04	-131.480	44.826	0	9.50	0	16.9620	0	32.3850	0	23.518	0	9.423	0	226.8	4	93.4	4	-1E+10	1	-1E+10	1	-1E+10	1	-1E+10	1	-1E+10	1	-1E+10	1
4902642	3	C	07/20/2024	10:04	-131.480	44.826	0	14.60	0	16.2960	0	32.3860	0	23.672	0	14.481	0	232.5	4	94.5	4	-1E+10	1	-1E+10	1	-1E+10	1	-1E+10	1	-1E+10	1	-1E+10	1
4902642	3	C	07/20/2024	10:04	-131.480	44.826	0	25.00	0	14.7750	0	32.4170	0	24.031	0	24.796	0	247.2	4	97.6	4	-1E+10	1	-1E+10	1	-1E+10	1	-1E+10	1	-1E+10	1	-1E+10	1
4902642	3	C	07/20/2024	10:04	-131.480	44.826	0	35.40	0	13.0570	0	32.4550	0	24.412	0	35.110	0	256.6	4	97.8	4	-1E+10	1	-1E+10	1	-1E+10	1	-1E+10	1	-1E+10	1	-1E+10	1
4902642	3	C	07/20/2024	10:04	-131.480	44.826	0	44.90	0	11.4150	0	32.4450	0	24.714	0	44.531	0	255.7	4	94.2	4	-1E+10	1	-1E+10	1	-1E+10	1	-1E+10	1	-1E+10	1	-1E+10	1
4902642	3	C	07/20/2024	10:04	-131.480	44.826	0	54.90	0	10.0880	0	32.4050	0	24.913	0	54.448	0	254.0	4	91.0	4	-1E+10	1	-1E+10	1	-1E+10	1	-1E+10	1	-1E+10	1	-1E+10	1
4902642	3	C	07/20/2024	10:04	-131.480	44.826	0	64.50	0	9.7110	0	32.4370	0	25.000	0	63.967	0	250.9	4	89.1	4	-1E+10	1	-1E+10	1	-1E+10	1	-1E+10	1	-1E+10	1	-1E+10	1
4902642	3	C	07/20/2024	10:04	-131.480	44.826	0	74.70	0	9.4090	0	32.4750	0	25.079	0	74.081	0	244.6	4	86.4	4	-1E+10	1	-1E+10	1	-1E+10	1	-1E+10	1	-1E+10	1	-1E+10	1
4902642	3	C	07/20/2024	10:04	-131.480	44.826	0	85.00	0	9.1930	0	32.5110	0	25.141	0	84.294	0	236.3	4	83.0	4	-1E+10	1	-1E+10	1	-1E+10	1	-1E+10	1	-1E+10	1	-1E+10	1
4902642	3	C	07/20/2024	10:04	-131.480	44.826	0	95.00	0	8.9320	0	32.5870	0	25.241	0	94.209	0	219.5	4	76.8	4	-1E+10	1	-1E+10	1	-1E+10	1	-1E+10	1	-1E+10	1	-1E+10	1
4902642	3	C	07/20/2024	10:04	-131.480	44.826	0	105.40	0	8.4680	0	32.8040	0	25.482	0	104.519	0	196.3	4	68.0	4	-1E+10	1	-1E+10	1	-1E+10	1	-1E+10	1	-1E+10	1	-1E+10	1
4902642	3	C	07/20/2024	10:04	-131.480	44.826	0	114.70	0	8.2500	0	33.0340	0	25.695	0	113.739	0	171.7	4	59.3	4	-1E+10	1	-1E+10	1	-1E+10	1	-1E+10	1	-1E+10	1	-1E+10	1
4902642	3	C	07/20/2024	10:04	-131.480	44.826	0	124.30	0	8.0460	0	33.2880	0	25.925	0	123.256	0	152.3	4	52.5	4	-1E+10	1	-1E+10	1	-1E+10	1	-1E+10	1	-1E+10	1	-1E+10	1
4902642	3	C	07/20/2024	10:04	-131.480	44.826	0	135.00	0	7.8480	0	33.4450	0	26.077	0	133.863	0	143.1	4	49.2	4	-1E+10	1	-1E+10	1	-1E+10	1	-1E+10	1	-1E+10	1	-1E+10	1
4902642	3	C	07/20/2024	10:04	-131.480	44.826	0	144.60	0	7.7480	0	33.5890	0	26.205	0	143.378	0	133.3	4	45.7	4	-1E+10	1	-1E+10	1	-1E+10	1	-1E+10	1	-1E+10	1	-1E+10	1
4902642	3	C	07/20/2024	10:04	-131.480	44.826	0	154.80	0	7.6410	0	33.6780	0	26.290	0	153.488	0	128.9	4	44.1	4	-1E+10	1	-1E+10	1	-1E+10	1	-1E+10	1	-1E+10	1	-1E+10	1
4902642	3	C	07/20/2024	10:04	-131.480	44.826	0	165.00	0	7.5130	0	33.7400	0	26.357	0	163.598	0	126.4	4	43.2	4	-1E+10	1	-1E+10	1	-1E+10	1	-1E+10	1	-1E+10	1	-1E+10	1
4902642	3	C	07/20/2024	10:04	-131.480	44.826	0	174.80	0	7.3880	0	33.7830	0	26.409	0	173.310	0	123.1	4	41.9	4	-1E+10	1	-1E+10	1	-1E+10	1	-1E+10	1	-1E+10	1	-1E+10	1
4902642	3	C	07/20/2024	10:04	-131.480	44.826	0	184.60	0	7.2880	0	33.8120	0	26.446	0	183.023	0	119.1	4	40.5	4	-1E+10	1	-1E+10	1	-1E+10	1	-1E+10	1	-1E+10	1	-1E+10	1
4902642	3	C	07/20/2024	10:04	-131.480	44.826	0	194.40	0	7.1540	0	33.8370	0	26.484	0	192.734	0	114.1	4	38.7	4	-1E+10	1	-1E+10	1	-1E+10	1	-1E+10	1	-1E+10	1	-1E+10	1
4902642	3	C	07/20/2024	10:04	-131.480	44.826	0	209.70	0	6.9150	0	33.8640	0	26.538	0	207.896	0	105.5	4	35.6	4	-1E+10	1	-1E+10	1	-1E+10	1	-1E+10	1	-1E+10	1	-1E+10	1
4902642	3	C	07/20/2024	10:04	-131.480	44.826	0	230.30	0	6.6270	0	33.8880	0	26.596	0	228.307	0	96.4	4	32.3	4	-1E+10	1	-1E+10	1	-1E+10	1	-1E+10	1	-1E+10	1	-1E+10	1
4902642	3	C	07/20/2024	10:04	-131.480	44.826	0	249.80	0	6.4290	0	33.9020	0	26.633	0	247.627	0	90.0	4	30.0	4	-1E+10	1	-1E+10	1	-1E+10	1	-1E+10	1	-1E+10	1	-1E+10	1
4902642	3	C	07/20/2024	10:04	-131.480	44.826	0	269.80	0	6.1050	0	33.9050	0	26.677	0	267.440	0	85.7	4	28.4	4	-1E+10	1	-1E+10	1	-1E+10	1	-1E+10	1	-1E+10	1	-1E+10	1
4902642	3	C	07/20/2024	10:04	-131.480	44.826	0	289.70	0	5.8970	0	33.9090	0	26.707	0	287.152	0	82.6	4	27.2	4	-1E+10	1	-1E+10	1	-1E+10	1	-1E+10	1	-1E+10	1	-1E+10	1
4902642	3	C	07/20/2024	10:04	-131.480	44.826	0	309.90	0	5.6370	0	33.9060	0	26.736	0	307.159	0	77.1	4	25.3	4	-1E+10	1	-1E+10	1	-1E+10	1	-1E+10	1	-1E+10	1	-1E+10	1
4902642	3	C	07/20/2024	10:04	-131.480	44.826	0	329.90	0	5.4950	0	33.9230	0	26.767	0	326.966	0	69.4	4	22.7	4	-1E+10	1	-1E+10	1	-1E+10	1	-1E+10	1	-1E+10	1	-1E+10	1
4902642	3	C	07/20/2024	10:04	-131.480	44.826	0	349.90	0	5.4110	0	33.9440	0	26.794	0	346.772	0	62.4	4	20.3	4	-1E+10	1	-1E+10	1	-1E+10	1	-1E+10	1	-1E+10	1	-1E+10	1
4902642	3	C	07/20/2024	10:04	-131.480	44.826	0	369.70	0	5.2600	0	33.9610	0	26.825	0	366.377	0	56.2	4	18.3	4	-1E+10	1	-1E+10	1	-1E+10	1	-1E+10	1	-1E+10	1	-1E+10	1
4902642	3	C	07/20/2024	10:04	-131.480	44.826	0	389.60	0	5.1970	0	33.9780	0	26.846	0	386.080	0	50.5	4	16.4	4	-1E+10	1	-1E+10	1	-1E+10	1	-1E+10	1	-1E+10	1	-1E+10	1
4902642	3	C	07/20/2024	10:04	-131.480	44.826	0	410.60	0	5.1230	0	33.9990	0	26.871	0	406.870	0	45.4	4	14.7	4	-1E+10	1	-1E+10	1	-1E+10	1	-1E+10	1	-1E+10	1	-1E+10	1
4902642	3	C	07/20/2024	10:04	-131.480	44.826	0	429.70	0	5.0380	0	34.0170	0	26.896	0	425.776	0	40.3	4	13.0	4	-1E+10	1	-1E+10	1	-1E+10	1	-1E+10	1	-1E+10	1	-1E+10	1
4902642	3	C	07/20/2024	10:04	-131.480	44.826	0	449.60	0	4.9430	0	34.0380	0	26.923	0	445.473	0	34.9	4	11.3	4	-1E+10	1	-1E+10	1	-1E+10	1	-1E+10	1	-1E+10	1	-1E+10	1
4902642	3	C	07/20/2024	10:04	-131.480	44.826	0	470.40	0	4.8860	0	34.0630	0	26.950	0	466.059	0	29.9	4	9.6	4	-1E+10	1	-1E+10	1	-1E+10	1	-1E+10	1	-1E+10	1	-1E+10	1
4902642	3	C	07/20/2024	10:04	-131.480	44.826	0	489.60	0	4.8340	0	34.0790	0	26.968	0	485.060	0	26.9	4	8.7	4	-1E+10	1	-1E+10	1	-1E+10	1	-1E+10	1	-1E+10	1	-1E+10	1
4902642	3	C	07/20/2024	10:04	-131.480	44.826	0	509.60	0	4.7360	0	34.0890	0	26.987	0	504.850	0	24.4	4	7.8	4	-1E+10	1	-1E+10	1	-1E+10	1	-1E+10	1	-1E+10	1	-1E+10	1
4902642	3	C	07/20/2024	10:04	-131.480	44.826	0	529.70	0	4.6640	0	34.1050	0	27.008	0	524.737	0	21.8	4	7.0	4	-1E+10	1	-1E+10	1	-1E+10	1	-1E+10	1	-1E+10	1	-1E+10	1
4902642	3	C	07/20/2024	10:04	-131.480	44.826	0	550.00	0	4.6200	0	34.1150	0	27.021	0	544.820	0	19.9	4	6.4	4	-1E+10	1	-1E+10	1	-1E+10	1	-1E+10	1	-1E+10	1	-1E+10	1
4902642	3	C	07/20/2024	10:04	-131.480	44.826	0	569.80	0	4.5750	0	34.1310	0	27.039	0	564.407	0	16.9	4	5.4	4	-1E+10	1	-1E+10	1	-1E+10	1	-1E+10	1	-1E+10	1	-1E+10	1
4902642	3	C	07/20/2024	10:04	-131.480	44.826	0	589.40	0	4.5230	0	34.1590	0	27.067	0	583.794	0	13.9	4	4.4	4	-1E+10	1	-1E+10	1	-1E+10	1	-1E+10	1	-1E+10	1	-1E+10	1
4902642	3	C	07/20/2024	10:04	-131.480	44.826	0	609.50	0	4.4660	0	34.1750	0	27.086	0	603.674	0	12.3	4	3.9	4	-1E+10	1	-1E+10	1	-1E+10	1	-1E+10	1	-1E+10	1	-1E+10	1
4902642	3	C	07/20/2024	10:04	-131.480	44.826	0	629.60	0	4.4370	0	34.1880	0	27.099	0	623.551	0	10.9	4	3.5	4	-1E+10	1	-1E+10	1	-1E+10	1	-1E+10	1	-1E+10	1	-1E+10	1
4902642	3	C	07/20/2024	10:04	-131.480	44.826	0	649.50	0	4.4020	0	34.2050	0	27.117	0	643.230	0	9.7	4	3.1	4	-1E+10	1	-1E+10	1	-1E+10	1	-1E+10	1	-1E+10	1	-1E+10	1
4902642	3	C	07/20/2024	10:04	-131.480	44.826	0	669.70	0	4.3450	0	34.2170	0	27.133	0	663.202	0	8.9	4	2.8	4	-1E+10	1	-1E+10	1	-1E+10	1	-1E+10	1	-1E+10	1	-1E+10	1
4902642	3	C	07/20/2024	10:04	-131.480	44.826	0	689.60	0	4.3070	0	34.2300	0	27.147	0	682.877	0	8.1	4	2.6	4	-1E+10	1	-1E+10	1	-1E+10	1	-1E+10	1	-1E+10	1	-1E+10	1
4902642	3	C	07/20/2024	10:04	-131.480	44.826	0	709.50	0	4.2500	0	34.2430	0	27.164	0	702.549	0	7.5	4	2.4	4	-1E+10	1	-1E+10	1	-1E+10	1	-1E+10	1	-1E+10	1	-1E+10	1
4902642	3	C	07/20/2024	10:04	-131.480	44.826	0	730.30	0	4.1650	0	34.2530	0	27.181	0	723.109	0	7.1	4	2.3	4	-1E+10	1	-1E+10	1	-1E+10	1	-1E+10	1	-1E+10	1	-1E+10	1
4902642	3	C	07/20/2024	10:04	-131.480	44.826	0	749.80	0	4.0920	0	34.2670	0	27.199	0	742.383	0	6.7	4	2.1	4	-1E+10	1	-1E+10	1	-1E+10	1	-1E+10	1	-1E+10	1	-1E+10	1
4902642	3	C	07/20/2024	10:04	-131.480	44.826	0	769.90	0	4.0170	0	34.2770	0	27.215	0	762.247	0	6.3	4	2.0	4	-1E+10	1	-1E+10	1	-1E+10	1	-1E+10	1	-1E+10	1	-1E+10	1
4902642	3	C	07/20/2024	10:04	-131.480	44.826	0	789.20	0	3.9610	0	34.2910	0	27.232	0	781.319	0	6.0	4	1.9	4	-1E+10	1	-1E+10	1	-1E+10	1	-1E+10	1	-1E+10	1	-1E+10	1
4902642	3	C	07/20/2024	10:04	-131.480	44.826	0	809.50	0	3.9070	0	34.3020	0	27.247	0	801.378	0	5.8	4	1.8	4	-1E+10	1	-1E+10	1	-1E+10	1	-1E+10	1	-1E+10	1	-1E+10	1
4902642	3	C	07/20/2024	10:04	-131.480	44.826	0	829.80	0	3.8630	0	34.3160	0	27.262	0	821.434	0	5.6	4	1.8	4	-1E+10	1	-1E+10	1	-1E+10	1	-1E+10	1	-1E+10	1	-1E+10	1
4902642	3	C	07/20/2024	10:04	-131.480	44.826	0	849.80	0	3.8290	0	34.3320	0	27.279	0	841.192	0	5.5	4	1.7	4	-1E+10	1	-1E+10	1	-1E+10	1	-1E+10	1	-1E+10	1	-1E+10	1
4902642	3	C	07/20/2024	10:04	-131.480	44.826	0	870.30	0	3.7540	0	34.3400	0	27.293	0	861.442	0	5.5	4	1.7	4	-1E+10	1	-1E+10	1	-1E+10	1	-1E+10	1	-1E+10	1	-1E+10	1
4902642	3	C	07/20/2024	10:04	-131.480	44.826	0	889.60	0	3.7150	0	34.3510	0	27.305	0	880.505	0	5.5	4	1.7	4	-1E+10	1	-1E+10	1	-1E+10	1	-1E+10	1	-1E+10	1	-1E+10	1
4902642	3	C	07/20/2024	10:04	-131.480	44.826	0	909.80	0	3.6760	0	34.3610	0	27.317	0	900.455	0	5.7	4	1.8	4	-1E+10	1	-1E+10	1	-1E+10	1	-1E+10	1	-1E+10	1	-1E+10	1
4902642	3	C	07/20/2024	10:04	-131.480	44.826	0	930.00	0	3.6290	0	34.3700	0	27.329	0	920.403	0	5.9	4	1.8	4	-1E+10	1	-1E+10	1	-1E+10	1	-1E+10	1	-1E+10	1	-1E+10	1
4902642	3	C	07/20/2024	10:04	-131.480	44.826	0	949.90	0	3.5860	0	34.3790	0	27.341	0	940.053	0	6.0	4	1.9	4	-1E+10	1	-1E+10	1	-1E+10	1	-1E+10	1	-1E+10	1	-1E+10	1
4902642	3	C	07/20/2024	10:04	-131.480	44.826	0	969.80	0	3.5200	0	34.3850	0	27.352	0	959.702	0	6.2	4	1.9	4	-1E+10	1	-1E+10	1	-1E+10	1	-1E+10	1	-1E+10	1	-1E+10	1
4902642	3	C	07/20/2024	10:04	-131.480	44.826	0	989.60	0	3.4750	0	34.3920	0	27.362	0	979.249	0	6.4	4	2.0	4	-1E+10	1	-1E+10	1	-1E+10	1	-1E+10	1	-1E+10	1	-1E+10	1
4902642	3	C	07/20/2024	10:04	-131.480	44.826	0	1009.70	0	3.4430	0	34.4000	0	27.372	0	999.091	0	6.8	4	2.1	4	-1E+10	1	-1E+10	1	-1E+10	1	-1E+10	1	-1E+10	1	-1E+10	1
4902642	3	C	07/20/2024	10:04	-131.480	44.826	0	1029.80	0	3.3960	0	34.4070	0	27.382	0	1018.931	0	7.2	4	2.3	4	-1E+10	1	-1E+10	1	-1E+10	1	-1E+10	1	-1E+10	1	-1E+10	1
4902642	3	C	07/20/2024	10:04	-131.480	44.826	0	1050.00	0	3.3540	0	34.4160	0	27.393	0	1038.868	0	7.9	4	2.5	4	-1E+10	1	-1E+10	1	-1E+10	1	-1E+10	1	-1E+10	1	-1E+10	1
4902642	3	C	07/20/2024	10:04	-131.480	44.826	0	1069.70	0	3.3310	0	34.4250	0	27.402	0	1058.309	0	8.5	4	2.7	4	-1E+10	1	-1E+10	1	-1E+10	1	-1E+10	1	-1E+10	1	-1E+10	1
4902642	3	C	07/20/2024	10:04	-131.480	44.826	0	1089.60	0	3.2770	0	34.4300	0	27.412	0	1077.946	0	9.0	4	2.8	4	-1E+10	1	-1E+10	1	-1E+10	1	-1E+10	1	-1E+10	1	-1E+10	1
4902642	3	C	07/20/2024	10:04	-131.480	44.826	0	1109.90	0	3.2390	0	34.4390	0	27.422	0	1097.976	0	9.8	4	3.1	4	-1E+10	1	-1E+10	1	-1E+10	1	-1E+10	1	-1E+10	1	-1E+10	1
4902642	3	C	07/20/2024	10:04	-131.480	44.826	0	1130.60	0	3.2070	0	34.4440	0	27.430	0	1118.399	0	10.3	4	3.2	4	-1E+10	1	-1E+10	1	-1E+10	1	-1E+10	1	-1E+10	1	-1E+10	1
4902642	3	C	07/20/2024	10:04	-131.480	44.826	0	1149.70	0	3.1690	0	34.4480	0	27.436	0	1137.241	0	10.6	4	3.3	4	-1E+10	1	-1E+10	1	-1E+10	1	-1E+10	1	-1E+10	1	-1E+10	1
4902642	3	C	07/20/2024	10:04	-131.480	44.826	0	1169.60	0	3.1200	0	34.4510	0	27.443	0	1156.870	0	11.0	4	3.4	4	-1E+10	1	-1E+10	1	-1E+10	1	-1E+10	1	-1E+10	1	-1E+10	1
4902642	3	C	07/20/2024	10:04	-131.480	44.826	0	1189.90	0	3.0860	0	34.4550	0	27.450	0	1176.893	0	11.5	4	3.5	4	-1E+10	1	-1E+10	1	-1E+10	1	-1E+10	1	-1E+10	1	-1E+10	1
4902642	3	C	07/20/2024	10:04	-131.480	44.826	0	1209.80	0	3.0540	0	34.4610	0	27.458	0	1196.519	0	12.2	4	3.8	4	-1E+10	1	-1E+10	1	-1E+10	1	-1E+10	1	-1E+10	1	-1E+10	1
4902642	3	C	07/20/2024	10:04	-131.480	44.826	0	1229.70	0	3.0050	0	34.4650	0	27.465	0	1216.142	0	12.7	4	3.9	4	-1E+10	1	-1E+10	1	-1E+10	1	-1E+10	1	-1E+10	1	-1E+10	1
4902642	3	C	07/20/2024	10:04	-131.480	44.826	0	1249.80	0	2.9630	0	34.4710	0	27.474	0	1235.962	0	13.6	4	4.2	4	-1E+10	1	-1E+10	1	-1E+10	1	-1E+10	1	-1E+10	1	-1E+10	1
4902642	3	C	07/20/2024	10:04	-131.480	44.826	0	1269.60	0	2.9080	0	34.4750	0	27.482	0	1255.484	0	14.3	4	4.4	4	-1E+10	1	-1E+10	1	-1E+10	1	-1E+10	1	-1E+10	1	-1E+10	1
4902642	3	C	07/20/2024	10:04	-131.480	44.826	0	1290.50	0	2.8850	0	34.4810	0	27.489	0	1276.088	0	15.2	4	4.7	4	-1E+10	1	-1E+10	1	-1E+10	1	-1E+10	1	-1E+10	1	-1E+10	1
4902642	3	C	07/20/2024	10:04	-131.480	44.826	0	1309.90	0	2.8360	0	34.4860	0	27.498	0	1295.212	0	16.1	4	4.9	4	-1E+10	1	-1E+10	1	-1E+10	1	-1E+10	1	-1E+10	1	-1E+10	1
4902642	3	C	07/20/2024	10:04	-131.480	44.826	0	1330.10	0	2.7930	0	34.4900	0	27.505	0	1315.122	0	16.9	4	5.2	4	-1E+10	1	-1E+10	1	-1E+10	1	-1E+10	1	-1E+10	1	-1E+10	1
4902642	3	C	07/20/2024	10:04	-131.480	44.826	0	1349.60	0	2.7640	0	34.4930	0	27.510	0	1334.341	0	17.4	4	5.4	4	-1E+10	1	-1E+10	1	-1E+10	1	-1E+10	1	-1E+10	1	-1E+10	1
4902642	3	C	07/20/2024	10:04	-131.480	44.826	0	1369.90	0	2.7230	0	34.4970	0	27.517	0	1354.346	0	18.3	4	5.6	4	-1E+10	1	-1E+10	1	-1E+10	1	-1E+10	1	-1E+10	1	-1E+10	1
4902642	3	C	07/20/2024	10:04	-131.480	44.826	0	1389.90	0	2.6910	0	34.5000	0	27.522	0	1374.054	0	19.0	4	5.8	4	-1E+10	1	-1E+10	1	-1E+10	1	-1E+10	1	-1E+10	1	-1E+10	1
4902642	3	C	07/20/2024	10:04	-131.480	44.826	0	1409.60	0	2.6570	0	34.5030	0	27.527	0	1393.464	0	19.7	4	6.0	4	-1E+10	1	-1E+10	1	-1E+10	1	-1E+10	1	-1E+10	1	-1E+10	1
4902642	3	C	07/20/2024	10:04	-131.480	44.826	0	1429.70	0	2.6100	0	34.5060	0	27.534	0	1413.267	0	20.4	4	6.2	4	-1E+10	1	-1E+10	1	-1E+10	1	-1E+10	1	-1E+10	1	-1E+10	1
4902642	3	C	07/20/2024	10:04	-131.480	44.826	0	1449.90	0	2.5770	0	34.5090	0	27.539	0	1433.166	0	21.1	4	6.5	4	-1E+10	1	-1E+10	1	-1E+10	1	-1E+10	1	-1E+10	1	-1E+10	1
4902642	3	C	07/20/2024	10:04	-131.480	44.826	0	1470.60	0	2.5460	0	34.5110	0	27.544	0	1453.556	0	22.0	4	6.7	4	-1E+10	1	-1E+10	1	-1E+10	1	-1E+10	1	-1E+10	1	-1E+10	1
4902642	3	C	07/20/2024	10:04	-131.480	44.826	0	1489.80	0	2.5120	0	34.5150	0	27.550	0	1472.467	0	23.0	4	7.0	4	-1E+10	1	-1E+10	1	-1E+10	1	-1E+10	1	-1E+10	1	-1E+10	1
4902642	3	C	07/20/2024	10:04	-131.480	44.826	0	1509.60	0	2.4770	0	34.5190	0	27.556	0	1491.967	0	23.9	4	7.3	4	-1E+10	1	-1E+10	1	-1E+10	1	-1E+10	1	-1E+10	1	-1E+10	1
4902642	3	C	07/20/2024	10:04	-131.480	44.826	0	1529.80	0	2.4520	0	34.5220	0	27.561	0	1511.859	0	24.7	4	7.5	4	-1E+10	1	-1E+10	1	-1E+10	1	-1E+10	1	-1E+10	1	-1E+10	1
4902642	3	C	07/20/2024	10:04	-131.480	44.826	0	1549.80	0	2.4270	0	34.5240	0	27.564	0	1531.552	0	25.6	4	7.8	4	-1E+10	1	-1E+10	1	-1E+10	1	-1E+10	1	-1E+10	1	-1E+10	1
4902642	3	C	07/20/2024	10:04	-131.480	44.826	0	1569.90	0	2.3970	0	34.5270	0	27.569	0	1551.341	0	26.6	4	8.1	4	-1E+10	1	-1E+10	1	-1E+10	1	-1E+10	1	-1E+10	1	-1E+10	1
4902642	3	C	07/20/2024	10:04	-131.480	44.826	0	1590.10	0	2.3670	0	34.5310	0	27.575	0	1571.227	0	27.8	4	8.5	4	-1E+10	1	-1E+10	1	-1E+10	1	-1E+10	1	-1E+10	1	-1E+10	1
4902642	3	C	07/20/2024	10:04	-131.480	44.826	0	1609.80	0	2.3430	0	34.5350	0	27.580	0	1590.620	0	29.1	4	8.9	4	-1E+10	1	-1E+10	1	-1E+10	1	-1E+10	1	-1E+10	1	-1E+10	1
4902642	3	C	07/20/2024	10:04	-131.480	44.826	0	1629.80	0	2.3140	0	34.5390	0	27.586	0	1610.305	0	30.5	4	9.3	4	-1E+10	1	-1E+10	1	-1E+10	1	-1E+10	1	-1E+10	1	-1E+10	1
4902642	3	C	07/20/2024	10:04	-131.480	44.826	0	1649.30	0	2.2830	0	34.5430	0	27.592	0	1629.497	0	32.0	4	9.7	4	-1E+10	1	-1E+10	1	-1E+10	1	-1E+10	1	-1E+10	1	-1E+10	1
4902642	3	C	07/20/2024	10:04	-131.480	44.826	0	1669.80	0	2.2590	0	34.5470	0	27.597	0	1649.671	0	33.4	4	10.1	4	-1E+10	1	-1E+10	1	-1E+10	1	-1E+10	1	-1E+10	1	-1E+10	1
4902642	3	C	07/20/2024	10:04	-131.480	44.826	0	1689.70	0	2.2310	0	34.5520	0	27.603	0	1669.253	0	34.8	4	10.6	4	-1E+10	1	-1E+10	1	-1E+10	1	-1E+10	1	-1E+10	1	-1E+10	1
4902642	3	C	07/20/2024	10:04	-131.480	44.826	0	1709.60	0	2.2100	0	34.5550	0	27.608	0	1688.833	0	35.9	4	10.9	4	-1E+10	1	-1E+10	1	-1E+10	1	-1E+10	1	-1E+10	1	-1E+10	1
4902642	3	C	07/20/2024	10:04	-131.480	44.826	0	1729.70	0	2.1930	0	34.5580	0	27.612	0	1708.608	0	37.0	4	11.2	4	-1E+10	1	-1E+10	1	-1E+10	1	-1E+10	1	-1E+10	1	-1E+10	1
4902642	3	C	07/20/2024	10:04	-131.480	44.826	0	1749.90	0	2.1650	0	34.5620	0	27.617	0	1728.480	0	38.4	4	11.6	4	-1E+10	1	-1E+10	1	-1E+10	1	-1E+10	1	-1E+10	1	-1E+10	1
4902642	3	C	07/20/2024	10:04	-131.480	44.826	0	1770.00	0	2.1390	0	34.5650	0	27.622	0	1748.251	0	39.6	4	12.0	4	-1E+10	1	-1E+10	1	-1E+10	1	-1E+10	1	-1E+10	1	-1E+10	1
4902642	3	C	07/20/2024	10:04	-131.480	44.826	0	1790.60	0	2.1180	0	34.5680	0	27.626	0	1768.512	0	40.7	4	12.3	4	-1E+10	1	-1E+10	1	-1E+10	1	-1E+10	1	-1E+10	1	-1E+10	1
4902642	3	C	07/20/2024	10:04	-131.480	44.826	0	1810.10	0	2.1020	0	34.5700	0	27.629	0	1787.689	0	41.6	4	12.6	4	-1E+10	1	-1E+10	1	-1E+10	1	-1E+10	1	-1E+10	1	-1E+10	1
4902642	3	C	07/20/2024	10:04	-131.480	44.826	0	1829.90	0	2.0860	0	34.5720	0	27.632	0	1807.160	0	42.6	4	12.9	4	-1E+10	1	-1E+10	1	-1E+10	1	-1E+10	1	-1E+10	1	-1E+10	1
4902642	3	C	07/20/2024	10:04	-131.480	44.826	0	1849.70	0	2.0680	0	34.5750	0	27.636	0	1826.629	0	43.6	4	13.2	4	-1E+10	1	-1E+10	1	-1E+10	1	-1E+10	1	-1E+10	1	-1E+10	1
4902642	3	C	07/20/2024	10:04	-131.480	44.826	0	1869.70	0	2.0520	0	34.5770	0	27.639	0	1846.293	0	44.7	4	13.5	4	-1E+10	1	-1E+10	1	-1E+10	1	-1E+10	1	-1E+10	1	-1E+10	1
4902642	3	C	07/20/2024	10:04	-131.480	44.826	0	1889.40	0	2.0370	0	34.5800	0	27.642	0	1865.660	0	45.9	4	13.8	4	-1E+10	1	-1E+10	1	-1E+10	1	-1E+10	1	-1E+10	1	-1E+10	1
4902642	3	C	07/20/2024	10:04	-131.480	44.826	0	1909.70	0	2.0180	0	34.5830	0	27.646	0	1885.615	0	47.3	4	14.3	4	-1E+10	1	-1E+10	1	-1E+10	1	-1E+10	1	-1E+10	1	-1E+10	1
4902642	3	C	07/20/2024	10:04	-131.480	44.826	0	1929.80	0	1.9920	0	34.5860	0	27.651	0	1905.371	0	48.8	4	14.7	4	-1E+10	1	-1E+10	1	-1E+10	1	-1E+10	1	-1E+10	1	-1E+10	1
4902642	3	C	07/20/2024	10:04	-131.480	44.826	0	1949.80	0	1.9760	0	34.5890	0	27.655	0	1925.028	0	49.8	4	15.0	4	-1E+10	1	-1E+10	1	-1E+10	1	-1E+10	1	-1E+10	1	-1E+10	1
4902642	3	C	07/20/2024	10:04	-131.480	44.826	0	1970.00	0	1.9680	0	34.5910	0	27.657	0	1944.879	0	50.6	4	15.3	4	-1E+10	1	-1E+10	1	-1E+10	1	-1E+10	1	-1E+10	1	-1E+10	1
4902642	3	C	07/20/2024	10:04	-131.480	44.826	0	1990.40	0	1.9600	0	34.5930	0	27.659	0	1964.925	0	51.7	4	15.6	4	-1E+10	1	-1E+10	1	-1E+10	1	-1E+10	1	-1E+10	1	-1E+10	1
4902642	3	C	07/20/2024	10:04	-131.480	44.826	0	2009.70	0	1.9440	0	34.5950	4	27.662	0	1983.888	0	52.3	4	15.7	4	-1E+10	1	-1E+10	1	-1E+10	1	-1E+10	1	-1E+10	1	-1E+10	1
4902642	3	C	07/20/2024	10:04	-131.480	44.826	0	2029.90	0	1.9330	0	34.5960	4	27.664	0	2003.734	0	53.0	4	16.0	4	-1E+10	1	-1E+10	1	-1E+10	1	-1E+10	1	-1E+10	1	-1E+10	1
4902642	3	C	07/20/2024	10:04	-131.480	44.826	0	2049.90	0	1.9240	0	34.5980	4	27.666	0	2023.381	0	54.0	4	16.2	4	-1E+10	1	-1E+10	1	-1E+10	1	-1E+10	1	-1E+10	1	-1E+10	1
4902642	3	C	07/20/2024	10:04	-131.480	44.826	0	2069.90	0	1.9170	0	34.6000	4	27.669	0	2043.027	0	54.8	4	16.5	4	-1E+10	1	-1E+10	1	-1E+10	1	-1E+10	1	-1E+10	1	-1E+10	1
4902642	3	C	07/20/2024	10:04	-131.480	44.826	0	2089.90	0	1.9100	0	34.6020	4	27.671	0	2062.670	0	55.6	4	16.7	4	-1E+10	1	-1E+10	1	-1E+10	1	-1E+10	1	-1E+10	1	-1E+10	1
4902642	3	C	07/20/2024	10:04	-131.480	44.826	0	2109.90	0	1.9030	0	34.6040	4	27.673	0	2082.312	0	56.6	4	17.0	4	-1E+10	1	-1E+10	1	-1E+10	1	-1E+10	1	-1E+10	1	-1E+10	1
4902642	3	C	07/20/2024	10:04	-131.480	44.826	0	2130.00	0	1.8920	0	34.6060	4	27.676	0	2102.051	0	57.5	4	17.3	4	-1E+10	1	-1E+10	1	-1E+10	1	-1E+10	1	-1E+10	1	-1E+10	1
4902642	3	C	07/20/2024	10:04	-131.480	44.826	0	2149.70	0	1.8860	0	34.6070	4	27.677	0	2121.394	0	58.1	4	17.5	4	-1E+10	1	-1E+10	1	-1E+10	1	-1E+10	1	-1E+10	1	-1E+10	1
4902642	3	C	07/20/2024	10:04	-131.480	44.826	0	2169.60	0	1.8760	0	34.6090	4	27.680	0	2140.933	0	58.9	4	17.7	4	-1E+10	1	-1E+10	1	-1E+10	1	-1E+10	1	-1E+10	1	-1E+10	1
4902642	3	C	07/20/2024	10:04	-131.480	44.826	0	2189.60	0	1.8680	0	34.6100	4	27.681	0	2160.568	0	59.6	4	17.9	4	-1E+10	1	-1E+10	1	-1E+10	1	-1E+10	1	-1E+10	1	-1E+10	1
4902642	3	C	07/20/2024	10:04	-131.480	44.826	0	2210.50	0	1.8600	0	34.6120	4	27.683	0	2181.084	0	60.3	4	18.1	4	-1E+10	1	-1E+10	1	-1E+10	1	-1E+10	1	-1E+10	1	-1E+10	1
4902642	3	C	07/20/2024	10:04	-131.480	44.826	0	2229.90	0	1.8540	0	34.6130	4	27.685	0	2200.126	0	60.8	4	18.3	4	-1E+10	1	-1E+10	1	-1E+10	1	-1E+10	1	-1E+10	1	-1E+10	1
4902642	3	C	07/20/2024	10:04	-131.480	44.826	0	2249.60	0	1.8500	0	34.6140	4	27.686	0	2219.461	0	61.2	4	18.4	4	-1E+10	1	-1E+10	1	-1E+10	1	-1E+10	1	-1E+10	1	-1E+10	1
4902642	3	C	07/20/2024	10:04	-131.480	44.826	0	2269.60	0	1.8450	0	34.6140	4	27.687	0	2239.089	0	61.7	4	18.5	4	-1E+10	1	-1E+10	1	-1E+10	1	-1E+10	1	-1E+10	1	-1E+10	1
4902642	3	C	07/20/2024	10:04	-131.480	44.826	0	2289.90	0	1.8410	0	34.6150	4	27.688	0	2259.009	0	62.1	4	18.7	4	-1E+10	1	-1E+10	1	-1E+10	1	-1E+10	1	-1E+10	1	-1E+10	1
4902642	3	C	07/20/2024	10:04	-131.480	44.826	0	2310.00	0	1.8370	0	34.6160	4	27.689	0	2278.731	0	62.6	4	18.8	4	-1E+10	1	-1E+10	1	-1E+10	1	-1E+10	1	-1E+10	1	-1E+10	1
4902642	3	C	07/20/2024	10:04	-131.480	44.826	0	2329.90	0	1.8320	0	34.6170	4	27.690	0	2298.255	0	63.0	4	18.9	4	-1E+10	1	-1E+10	1	-1E+10	1	-1E+10	1	-1E+10	1	-1E+10	1
4902642	3	C	07/20/2024	10:04	-131.480	44.826	0	2349.90	0	1.8280	0	34.6170	4	27.691	0	2317.875	0	63.5	4	19.1	4	-1E+10	1	-1E+10	1	-1E+10	1	-1E+10	1	-1E+10	1	-1E+10	1
4902642	3	C	07/20/2024	10:04	-131.480	44.826	0	2369.70	0	1.8240	0	34.6180	4	27.692	0	2337.297	0	64.1	4	19.2	4	-1E+10	1	-1E+10	1	-1E+10	1	-1E+10	1	-1E+10	1	-1E+10	1
4902642	3	C	07/20/2024	10:04	-131.480	44.826	0	2389.50	0	1.8200	0	34.6190	4	27.693	0	2356.718	0	64.6	4	19.4	4	-1E+10	1	-1E+10	1	-1E+10	1	-1E+10	1	-1E+10	1	-1E+10	1
4902642	3	C	07/20/2024	10:04	-131.480	44.826	0	2409.60	0	1.8150	0	34.6200	4	27.694	0	2376.431	0	65.2	4	19.6	4	-1E+10	1	-1E+10	1	-1E+10	1	-1E+10	1	-1E+10	1	-1E+10	1
4902642	3	C	07/20/2024	10:04	-131.480	44.826	0	2429.40	0	1.8060	0	34.6210	4	27.696	0	2395.848	0	66.0	4	19.8	4	-1E+10	1	-1E+10	1	-1E+10	1	-1E+10	1	-1E+10	1	-1E+10	1
4902642	3	C	07/20/2024	10:04	-131.480	44.826	0	2450.30	0	1.7980	0	34.6230	4	27.698	0	2416.342	0	66.6	4	20.0	4	-1E+10	1	-1E+10	1	-1E+10	1	-1E+10	1	-1E+10	1	-1E+10	1
4902642	3	C	07/20/2024	10:04	-131.480	44.826	0	2469.90	0	1.7940	0	34.6230	4	27.699	0	2435.559	0	67.3	4	20.2	4	-1E+10	1	-1E+10	1	-1E+10	1	-1E+10	1	-1E+10	1	-1E+10	1
4902642	3	C	07/20/2024	10:04	-131.480	44.826	0	2490.00	0	1.7850	0	34.6250	4	27.701	0	2455.265	0	68.2	4	20.5	4	-1E+10	1	-1E+10	1	-1E+10	1	-1E+10	1	-1E+10	1	-1E+10	1
4902642	3	C	07/20/2024	10:04	-131.480	44.826	0	2509.70	0	1.7780	0	34.6260	4	27.703	0	2474.577	0	69.0	4	20.7	4	-1E+10	1	-1E+10	1	-1E+10	1	-1E+10	1	-1E+10	1	-1E+10	1
4902642	3	C	07/20/2024	10:04	-131.480	44.826	0	2530.00	0	1.7710	0	34.6270	4	27.704	0	2494.475	0	69.7	4	20.9	4	-1E+10	1	-1E+10	1	-1E+10	1	-1E+10	1	-1E+10	1	-1E+10	1
4902642	3	C	07/20/2024	10:04	-131.480	44.826	0	2549.60	0	1.7630	0	34.6280	4	27.706	0	2513.685	0	70.6	4	21.2	4	-1E+10	1	-1E+10	1	-1E+10	1	-1E+10	1	-1E+10	1	-1E+10	1
4902642	3	C	07/20/2024	10:04	-131.480	44.826	0	2569.60	0	1.7540	0	34.6290	4	27.707	0	2533.286	0	71.6	4	21.5	4	-1E+10	1	-1E+10	1	-1E+10	1	-1E+10	1	-1E+10	1	-1E+10	1
4902642	3	C	07/20/2024	10:04	-131.480	44.826	0	2589.50	0	1.7460	0	34.6310	4	27.709	0	2552.787	0	72.6	4	21.8	4	-1E+10	1	-1E+10	1	-1E+10	1	-1E+10	1	-1E+10	1	-1E+10	1
4902642	3	C	07/20/2024	10:04	-131.480	44.826	0	2610.50	0	1.7360	0	34.6320	4	27.711	0	2573.363	0	73.7	4	22.1	4	-1E+10	1	-1E+10	1	-1E+10	1	-1E+10	1	-1E+10	1	-1E+10	1
4902642	3	C	07/20/2024	10:04	-131.480	44.826	0	2629.70	0	1.7270	0	34.6330	4	27.713	0	2592.175	0	74.6	4	22.4	4	-1E+10	1	-1E+10	1	-1E+10	1	-1E+10	1	-1E+10	1	-1E+10	1
4902642	3	C	07/20/2024	10:04	-131.480	44.826	0	2649.70	0	1.7180	0	34.6340	4	27.714	0	2611.768	0	75.4	4	22.6	4	-1E+10	1	-1E+10	1	-1E+10	1	-1E+10	1	-1E+10	1	-1E+10	1
4902642	3	C	07/20/2024	10:04	-131.480	44.826	0	2669.90	0	1.7060	0	34.6350	4	27.716	0	2631.556	0	76.3	4	22.8	4	-1E+10	1	-1E+10	1	-1E+10	1	-1E+10	1	-1E+10	1	-1E+10	1
4902642	3	C	07/20/2024	10:04	-131.480	44.826	0	2690.10	0	1.6970	0	34.6360	4	27.718	0	2651.342	0	77.2	4	23.1	4	-1E+10	1	-1E+10	1	-1E+10	1	-1E+10	1	-1E+10	1	-1E+10	1
4902642	3	C	07/20/2024	10:04	-131.480	44.826	0	2709.80	0	1.6920	0	34.6370	4	27.719	0	2670.636	0	77.9	4	23.3	4	-1E+10	1	-1E+10	1	-1E+10	1	-1E+10	1	-1E+10	1	-1E+10	1
4902642	3	C	07/20/2024	10:04	-131.480	44.826	0	2729.50	0	1.6860	0	34.6380	4	27.720	0	2689.928	0	78.6	4	23.5	4	-1E+10	1	-1E+10	1	-1E+10	1	-1E+10	1	-1E+10	1	-1E+10	1
4902642	3	C	07/20/2024	10:04	-131.480	44.826	0	2749.70	0	1.6790	0	34.6390	4	27.722	0	2709.709	0	79.5	4	23.8	4	-1E+10	1	-1E+10	1	-1E+10	1	-1E+10	1	-1E+10	1	-1E+10	1
4902642	3	C	07/20/2024	10:04	-131.480	44.826	0	2769.70	0	1.6720	0	34.6400	4	27.723	0	2729.292	0	80.5	4	24.1	4	-1E+10	1	-1E+10	1	-1E+10	1	-1E+10	1	-1E+10	1	-1E+10	1
4902642	3	C	07/20/2024	10:04	-131.480	44.826	0	2789.70	0	1.6630	0	34.6410	4	27.725	0	2748.873	0	81.3	4	24.3	4	-1E+10	1	-1E+10	1	-1E+10	1	-1E+10	1	-1E+10	1	-1E+10	1
4902642	3	C	07/20/2024	10:04	-131.480	44.826	0	2809.50	0	1.6600	0	34.6420	4	27.726	0	2768.256	0	82.0	4	24.5	4	-1E+10	1	-1E+10	1	-1E+10	1	-1E+10	1	-1E+10	1	-1E+10	1
4902642	3	C	07/20/2024	10:04	-131.480	44.826	0	2829.50	0	1.6550	0	34.6430	4	27.727	0	2787.834	0	82.7	4	24.7	4	-1E+10	1	-1E+10	1	-1E+10	1	-1E+10	1	-1E+10	1	-1E+10	1
4902642	3	C	07/20/2024	10:04	-131.480	44.826	0	2849.40	0	1.6510	0	34.6430	4	27.728	0	2807.311	0	83.2	4	24.9	4	-1E+10	1	-1E+10	1	-1E+10	1	-1E+10	1	-1E+10	1	-1E+10	1
4902642	3	C	07/20/2024	10:04	-131.480	44.826	0	2869.60	0	1.6470	0	34.6440	4	27.729	0	2827.081	0	83.8	4	25.1	4	-1E+10	1	-1E+10	1	-1E+10	1	-1E+10	1	-1E+10	1	-1E+10	1
4902642	3	C	07/20/2024	10:04	-131.480	44.826	0	2889.60	0	1.6430	0	34.6450	4	27.730	0	2846.653	0	84.4	4	25.2	4	-1E+10	1	-1E+10	1	-1E+10	1	-1E+10	1	-1E+10	1	-1E+10	1
4902642	3	C	07/20/2024	10:04	-131.480	44.826	0	2909.80	0	1.6390	0	34.6450	4	27.731	0	2866.419	0	85.0	4	25.4	4	-1E+10	1	-1E+10	1	-1E+10	1	-1E+10	1	-1E+10	1	-1E+10	1
4902642	3	C	07/20/2024	10:04	-131.480	44.826	0	2930.80	0	1.6340	0	34.6460	4	27.732	0	2886.966	0	85.6	4	25.6	4	-1E+10	1	-1E+10	1	-1E+10	1	-1E+10	1	-1E+10	1	-1E+10	1
4902642	3	C	07/20/2024	10:04	-131.480	44.826	0	2949.60	0	1.6310	0	34.6470	4	27.733	0	2905.359	0	86.3	4	25.8	4	-1E+10	1	-1E+10	1	-1E+10	1	-1E+10	1	-1E+10	1	-1E+10	1
4902642	3	C	07/20/2024	10:04	-131.480	44.826	0	2969.70	0	1.6260	0	34.6480	4	27.734	0	2925.022	0	87.2	4	26.0	4	-1E+10	1	-1E+10	1	-1E+10	1	-1E+10	1	-1E+10	1	-1E+10	1
4902642	3	C	07/20/2024	10:04	-131.480	44.826	0	2989.90	0	1.6200	0	34.6490	4	27.736	0	2944.781	0	87.8	4	26.2	4	-1E+10	1	-1E+10	1	-1E+10	1	-1E+10	1	-1E+10	1	-1E+10	1
4902642	3	C	07/20/2024	10:04	-131.480	44.826	0	3010.20	0	1.6170	0	34.6500	4	27.737	0	2964.636	0	88.5	4	26.4	4	-1E+10	1	-1E+10	1	-1E+10	1	-1E+10	1	-1E+10	1	-1E+10	1
4902642	3	C	07/20/2024	10:04	-131.480	44.826	0	3030.20	0	1.6110	0	34.6510	4	27.738	0	2984.196	0	89.5	4	26.7	4	-1E+10	1	-1E+10	1	-1E+10	1	-1E+10	1	-1E+10	1	-1E+10	1
4902642	3	C	07/20/2024	10:04	-131.480	44.826	0	3049.80	0	1.6040	0	34.6520	4	27.740	0	3003.363	0	90.3	4	27.0	4	-1E+10	1	-1E+10	1	-1E+10	1	-1E+10	1	-1E+10	1	-1E+10	1
4902642	3	C	07/20/2024	10:04	-131.480	44.826	0	3070.00	0	1.6020	0	34.6530	4	27.741	0	3023.114	0	91.0	4	27.2	4	-1E+10	1	-1E+10	1	-1E+10	1	-1E+10	1	-1E+10	1	-1E+10	1
4902642	3	C	07/20/2024	10:04	-131.480	44.826	0	3090.10	0	1.5960	0	34.6540	4	27.742	0	3042.767	0	91.7	4	27.4	4	-1E+10	1	-1E+10	1	-1E+10	1	-1E+10	1	-1E+10	1	-1E+10	1
4902642	3	C	07/20/2024	10:04	-131.480	44.826	0	3110.20	0	1.5920	0	34.6540	4	27.742	0	3062.417	0	92.4	4	27.6	4	-1E+10	1	-1E+10	1	-1E+10	1	-1E+10	1	-1E+10	1	-1E+10	1
4902642	3	C	07/20/2024	10:04	-131.480	44.826	0	3130.20	0	1.5880	0	34.6550	4	27.744	0	3081.968	0	93.0	4	27.8	4	-1E+10	1	-1E+10	1	-1E+10	1	-1E+10	1	-1E+10	1	-1E+10	1
4902642	3	C	07/20/2024	10:04	-131.480	44.826	0	3150.20	0	1.5850	0	34.6560	4	27.745	0	3101.517	0	93.5	4	27.9	4	-1E+10	1	-1E+10	1	-1E+10	1	-1E+10	1	-1E+10	1	-1E+10	1
4902642	3	C	07/20/2024	10:04	-131.480	44.826	0	3170.30	0	1.5820	0	34.6560	4	27.745	0	3121.162	0	94.0	4	28.1	4	-1E+10	1	-1E+10	1	-1E+10	1	-1E+10	1	-1E+10	1	-1E+10	1
4902642	3	C	07/20/2024	10:04	-131.480	44.826	0	3190.90	0	1.5800	0	34.6570	4	27.746	0	3141.294	0	94.5	4	28.2	4	-1E+10	1	-1E+10	1	-1E+10	1	-1E+10	1	-1E+10	1	-1E+10	1
4902642	3	C	07/20/2024	10:04	-131.480	44.826	0	3210.30	0	1.5770	0	34.6580	4	27.747	0	3160.252	0	95.1	4	28.4	4	-1E+10	1	-1E+10	1	-1E+10	1	-1E+10	1	-1E+10	1	-1E+10	1
4902642	3	C	07/20/2024	10:04	-131.480	44.826	0	3230.20	0	1.5720	0	34.6590	4	27.749	0	3179.696	0	95.9	4	28.6	4	-1E+10	1	-1E+10	1	-1E+10	1	-1E+10	1	-1E+10	1	-1E+10	1
4902642	3	C	07/20/2024	10:04	-131.480	44.826	0	3249.80	0	1.5700	0	34.6590	4	27.749	0	3198.846	0	96.4	4	28.8	4	-1E+10	1	-1E+10	1	-1E+10	1	-1E+10	1	-1E+10	1	-1E+10	1
4902642	3	C	07/20/2024	10:04	-131.480	44.826	0	3270.00	0	1.5640	0	34.6600	4	27.750	0	3218.580	0	97.2	4	29.0	4	-1E+10	1	-1E+10	1	-1E+10	1	-1E+10	1	-1E+10	1	-1E+10	1
4902642	3	C	07/20/2024	10:04	-131.480	44.826	0	3290.20	0	1.5620	0	34.6610	4	27.751	0	3238.312	0	97.7	4	29.2	4	-1E+10	1	-1E+10	1	-1E+10	1	-1E+10	1	-1E+10	1	-1E+10	1
4902642	3	C	07/20/2024	10:04	-131.480	44.826	0	3310.00	0	1.5550	0	34.6620	4	27.753	0	3257.652	0	99.3	4	29.6	4	-1E+10	1	-1E+10	1	-1E+10	1	-1E+10	1	-1E+10	1	-1E+10	1
4902642	3	C	07/20/2024	10:04	-131.480	44.826	0	3330.30	0	1.5430	0	34.6640	4	27.755	0	3277.479	0	100.4	4	29.9	4	-1E+10	1	-1E+10	1	-1E+10	1	-1E+10	1	-1E+10	1	-1E+10	1
4902642	3	C	07/20/2024	10:04	-131.480	44.826	0	3350.10	0	1.5420	0	34.6640	4	27.756	0	3296.815	0	100.5	4	30.0	4	-1E+10	1	-1E+10	1	-1E+10	1	-1E+10	1	-1E+10	1	-1E+10	1
4902642	3	C	07/20/2024	10:04	-131.480	44.826	0	3370.20	0	1.5440	0	34.6650	4	27.756	0	3316.442	0	100.3	4	29.9	4	-1E+10	1	-1E+10	1	-1E+10	1	-1E+10	1	-1E+10	1	-1E+10	1
4902642	3	C	07/20/2024	10:04	-131.480	44.826	0																										
4902642	4	C	07/30/2024	09:55	-131.369	44.752	0	1.80	0	17.5070	0	32.4070	0	23.407	0	1.785	0	222.3	4	92.5	4	-1E+10	1	-1E+10	1	-1E+10	1	-1E+10	1	-1E+10	1	-1E+10	1
4902642	4	C	07/30/2024	09:55	-131.369	44.752	0	2.00	0	17.5060	0	32.4090	0	23.408	0	1.984	0	222.2	4	92.5	4	-1E+10	1	-1E+10	1	-1E+10	1	-1E+10	1	-1E+10	1	-1E+10	1
4902642	4	C	07/30/2024	09:55	-131.369	44.752	0	2.10	0	17.5050	0	32.4080	0	23.408	0	2.083	0	222.3	4	92.5	4	-1E+10	1	-1E+10	1	-1E+10	1	-1E+10	1	-1E+10	1	-1E+10	1
4902642	4	C	07/30/2024	09:55	-131.369	44.752	0	2.30	0	17.5050	0	32.4090	0	23.409	0	2.281	0	-1e10	1	-1e10	1	-1E+10	1	-1E+10	1	-1E+10	1	-1E+10	1	-1E+10	1	-1E+10	1
4902642	4	C	07/30/2024	09:55	-131.369	44.752	0	2.80	0	17.5120	0	32.4070	0	23.405	0	2.777	0	221.8	4	92.3	4	-1E+10	1	-1E+10	1	-1E+10	1	-1E+10	1	-1E+10	1	-1E+10	1
4902642	4	C	07/30/2024	09:55	-131.369	44.752	0	3.60	0	17.5100	0	32.4090	0	23.408	0	3.571	0	222.4	4	92.6	4	-1E+10	1	-1E+10	1	-1E+10	1	-1E+10	1	-1E+10	1	-1E+10	1
4902642	4	C	07/30/2024	09:55	-131.369	44.752	0	4.50	0	17.5100	0	32.4100	0	23.408	0	4.464	0	222.4	4	92.6	4	-1E+10	1	-1E+10	1	-1E+10	1	-1E+10	1	-1E+10	1	-1E+10	1
4902642	4	C	07/30/2024	09:55	-131.369	44.752	0	5.70	0	17.5110	0	32.4100	0	23.408	0	5.654	0	222.5	4	92.6	4	-1E+10	1	-1E+10	1	-1E+10	1	-1E+10	1	-1E+10	1	-1E+10	1
4902642	4	C	07/30/2024	09:55	-131.369	44.752	0	6.60	0	17.5130	0	32.4100	0	23.408	0	6.546	0	222.6	4	92.6	4	-1E+10	1	-1E+10	1	-1E+10	1	-1E+10	1	-1E+10	1	-1E+10	1
4902642	4	C	07/30/2024	09:55	-131.369	44.752	0	7.50	0	17.5130	0	32.4100	0	23.408	0	7.439	0	222.6	4	92.6	4	-1E+10	1	-1E+10	1	-1E+10	1	-1E+10	1	-1E+10	1	-1E+10	1
4902642	4	C	07/30/2024	09:55	-131.369	44.752	0	9.00	0	17.5130	0	32.4100	0	23.408	0	8.927	0	222.7	4	92.7	4	-1E+10	1	-1E+10	1	-1E+10	1	-1E+10	1	-1E+10	1	-1E+10	1
4902642	4	C	07/30/2024	09:55	-131.369	44.752	0	9.90	0	17.5140	0	32.4090	0	23.407	0	9.820	0	222.9	4	92.8	4	-1E+10	1	-1E+10	1	-1E+10	1	-1E+10	1	-1E+10	1	-1E+10	1
4902642	4	C	07/30/2024	09:55	-131.369	44.752	0	14.80	0	17.5070	0	32.4080	0	23.408	0	14.680	0	224.3	4	93.3	4	-1E+10	1	-1E+10	1	-1E+10	1	-1E+10	1	-1E+10	1	-1E+10	1
4902642	4	C	07/30/2024	09:55	-131.369	44.752	0	24.50	0	16.6050	0	32.4070	0	23.618	0	24.300	0	239.7	4	98.1	4	-1E+10	1	-1E+10	1	-1E+10	1	-1E+10	1	-1E+10	1	-1E+10	1
4902642	4	C	07/30/2024	09:55	-131.369	44.752	0	35.20	0	13.7690	0	32.3920	0	24.221	0	34.912	0	258.8	4	100.1	4	-1E+10	1	-1E+10	1	-1E+10	1	-1E+10	1	-1E+10	1	-1E+10	1
4902642	4	C	07/30/2024	09:55	-131.369	44.752	0	44.80	0	12.5490	0	32.4100	0	24.476	0	44.433	0	260.6	4	98.3	4	-1E+10	1	-1E+10	1	-1E+10	1	-1E+10	1	-1E+10	1	-1E+10	1
4902642	4	C	07/30/2024	09:55	-131.369	44.752	0	54.70	0	11.3250	0	32.4840	0	24.761	0	54.250	0	256.8	4	94.5	4	-1E+10	1	-1E+10	1	-1E+10	1	-1E+10	1	-1E+10	1	-1E+10	1
4902642	4	C	07/30/2024	09:55	-131.369	44.752	0	65.20	0	9.9260	0	32.4870	0	25.004	0	64.662	0	253.1	4	90.4	4	-1E+10	1	-1E+10	1	-1E+10	1	-1E+10	1	-1E+10	1	-1E+10	1
4902642	4	C	07/30/2024	09:55	-131.369	44.752	0	74.90	0	9.4780	0	32.4650	0	25.060	0	74.280	0	250.9	4	88.7	4	-1E+10	1	-1E+10	1	-1E+10	1	-1E+10	1	-1E+10	1	-1E+10	1
4902642	4	C	07/30/2024	09:55	-131.369	44.752	0	84.90	0	9.4240	0	32.5070	0	25.101	0	84.195	0	247.5	4	87.4	4	-1E+10	1	-1E+10	1	-1E+10	1	-1E+10	1	-1E+10	1	-1E+10	1
4902642	4	C	07/30/2024	09:55	-131.369	44.752	0	95.10	0	9.2840	0	32.5310	0	25.143	0	94.308	0	243.3	4	85.7	4	-1E+10	1	-1E+10	1	-1E+10	1	-1E+10	1	-1E+10	1	-1E+10	1
4902642	4	C	07/30/2024	09:55	-131.369	44.752	0	105.20	0	9.1460	0	32.5930	0	25.213	0	104.322	0	232.6	4	81.7	4	-1E+10	1	-1E+10	1	-1E+10	1	-1E+10	1	-1E+10	1	-1E+10	1
4902642	4	C	07/30/2024	09:55	-131.369	44.752	0	115.30	0	8.7340	0	32.7500	0	25.400	0	114.335	0	217.1	4	75.7	4	-1E+10	1	-1E+10	1	-1E+10	1	-1E+10	1	-1E+10	1	-1E+10	1
4902642	4	C	07/30/2024	09:55	-131.369	44.752	0	124.70	0	8.1990	0	33.0530	0	25.718	0	123.653	0	206.6	4	71.3	4	-1E+10	1	-1E+10	1	-1E+10	1	-1E+10	1	-1E+10	1	-1E+10	1
4902642	4	C	07/30/2024	09:55	-131.369	44.752	0	134.80	0	7.8670	0	33.2910	0	25.953	0	133.665	0	200.8	4	68.9	4	-1E+10	1	-1E+10	1	-1E+10	1	-1E+10	1	-1E+10	1	-1E+10	1
4902642	4	C	07/30/2024	09:55	-131.369	44.752	0	144.80	0	7.5980	0	33.4580	0	26.123	0	143.578	0	198.2	4	67.7	4	-1E+10	1	-1E+10	1	-1E+10	1	-1E+10	1	-1E+10	1	-1E+10	1
4902642	4	C	07/30/2024	09:55	-131.369	44.752	0	155.10	0	7.3440	0	33.5350	0	26.220	0	153.787	0	195.4	4	66.4	4	-1E+10	1	-1E+10	1	-1E+10	1	-1E+10	1	-1E+10	1	-1E+10	1
4902642	4	C	07/30/2024	09:55	-131.369	44.752	0	164.80	0	7.1630	0	33.5860	0	26.285	0	163.401	0	187.6	4	63.5	4	-1E+10	1	-1E+10	1	-1E+10	1	-1E+10	1	-1E+10	1	-1E+10	1
4902642	4	C	07/30/2024	09:55	-131.369	44.752	0	174.70	0	7.0850	0	33.6600	0	26.354	0	173.213	0	178.3	4	60.3	4	-1E+10	1	-1E+10	1	-1E+10	1	-1E+10	1	-1E+10	1	-1E+10	1
4902642	4	C	07/30/2024	09:55	-131.369	44.752	0	184.80	0	6.9830	0	33.7070	0	26.405	0	183.222	0	168.5	4	56.9	4	-1E+10	1	-1E+10	1	-1E+10	1	-1E+10	1	-1E+10	1	-1E+10	1
4902642	4	C	07/30/2024	09:55	-131.369	44.752	0	194.60	0	6.8520	0	33.7500	0	26.457	0	192.934	0	157.0	4	52.9	4	-1E+10	1	-1E+10	1	-1E+10	1	-1E+10	1	-1E+10	1	-1E+10	1
4902642	4	C	07/30/2024	09:55	-131.369	44.752	0	209.40	0	6.7270	0	33.7970	0	26.511	0	207.600	0	133.0	4	44.6	4	-1E+10	1	-1E+10	1	-1E+10	1	-1E+10	1	-1E+10	1	-1E+10	1
4902642	4	C	07/30/2024	09:55	-131.369	44.752	0	230.00	0	6.5530	0	33.8510	0	26.577	0	228.011	0	111.8	4	37.4	4	-1E+10	1	-1E+10	1	-1E+10	1	-1E+10	1	-1E+10	1	-1E+10	1
4902642	4	C	07/30/2024	09:55	-131.369	44.752	0	249.30	0	6.2440	0	33.8630	0	26.626	0	247.133	0	98.9	4	32.9	4	-1E+10	1	-1E+10	1	-1E+10	1	-1E+10	1	-1E+10	1	-1E+10	1
4902642	4	C	07/30/2024	09:55	-131.369	44.752	0	269.20	0	6.1100	0	33.8970	0	26.670	0	266.847	0	88.7	4	29.4	4	-1E+10	1	-1E+10	1	-1E+10	1	-1E+10	1	-1E+10	1	-1E+10	1
4902642	4	C	07/30/2024	09:55	-131.369	44.752	0	289.30	0	5.8170	0	33.8880	0	26.700	0	286.757	0	86.9	4	28.6	4	-1E+10	1	-1E+10	1	-1E+10	1	-1E+10	1	-1E+10	1	-1E+10	1
4902642	4	C	07/30/2024	09:55	-131.369	44.752	0	309.60	0	5.6590	0	33.8970	0	26.726	0	306.864	0	80.4	4	26.3	4	-1E+10	1	-1E+10	1	-1E+10	1	-1E+10	1	-1E+10	1	-1E+10	1
4902642	4	C	07/30/2024	09:55	-131.369	44.752	0	330.20	0	5.5560	0	33.9110	0	26.750	0	327.266	0	73.2	4	23.9	4	-1E+10	1	-1E+10	1	-1E+10	1	-1E+10	1	-1E+10	1	-1E+10	1
4902642	4	C	07/30/2024	09:55	-131.369	44.752	0	349.50	0	5.4100	0	33.9290	0	26.782	0	346.378	0	65.6	4	21.4	4	-1E+10	1	-1E+10	1	-1E+10	1	-1E+10	1	-1E+10	1	-1E+10	1
4902642	4	C	07/30/2024	09:55	-131.369	44.752	0	369.60	0	5.3000	0	33.9510	0	26.812	0	366.281	0	58.3	4	19.0	4	-1E+10	1	-1E+10	1	-1E+10	1	-1E+10	1	-1E+10	1	-1E+10	1
4902642	4	C	07/30/2024	09:55	-131.369	44.752	0	389.20	0	5.2210	0	33.9710	0	26.838	0	385.686	0	52.4	4	17.0	4	-1E+10	1	-1E+10	1	-1E+10	1	-1E+10	1	-1E+10	1	-1E+10	1
4902642	4	C	07/30/2024	09:55	-131.369	44.752	0	409.70	0	5.1550	0	33.9900	0	26.861	0	405.981	0	47.5	4	15.4	4	-1E+10	1	-1E+10	1	-1E+10	1	-1E+10	1	-1E+10	1	-1E+10	1
4902642	4	C	07/30/2024	09:55	-131.369	44.752	0	429.40	0	5.0820	0	34.0080	0	26.883	0	425.482	0	42.8	4	13.8	4	-1E+10	1	-1E+10	1	-1E+10	1	-1E+10	1	-1E+10	1	-1E+10	1
4902642	4	C	07/30/2024	09:55	-131.369	44.752	0	449.40	0	5.0130	0	34.0210	0	26.902	0	445.278	0	39.5	4	12.8	4	-1E+10	1	-1E+10	1	-1E+10	1	-1E+10	1	-1E+10	1	-1E+10	1
4902642	4	C	07/30/2024	09:55	-131.369	44.752	0	469.70	0	4.9430	0	34.0360	0	26.922	0	465.370	0	35.6	4	11.5	4	-1E+10	1	-1E+10	1	-1E+10	1	-1E+10	1	-1E+10	1	-1E+10	1
4902642	4	C	07/30/2024	09:55	-131.369	44.752	0	489.90	0	4.8670	0	34.0530	0	26.944	0	485.360	0	31.5	4	10.1	4	-1E+10	1	-1E+10	1	-1E+10	1	-1E+10	1	-1E+10	1	-1E+10	1
4902642	4	C	07/30/2024	09:55	-131.369	44.752	0	509.60	0	4.8220	0	34.0700	0	26.963	0	504.853	0	28.1	4	9.0	4	-1E+10	1	-1E+10	1	-1E+10	1	-1E+10	1	-1E+10	1	-1E+10	1
4902642	4	C	07/30/2024	09:55	-131.369	44.752	0	529.60	0	4.7470	0	34.0830	0	26.981	0	524.642	0	25.2	4	8.1	4	-1E+10	1	-1E+10	1	-1E+10	1	-1E+10	1	-1E+10	1	-1E+10	1
4902642	4	C	07/30/2024	09:55	-131.369	44.752	0	549.60	0	4.6810	0	34.1010	0	27.003	0	544.428	0	21.9	4	7.0	4	-1E+10	1	-1E+10	1	-1E+10	1	-1E+10	1	-1E+10	1	-1E+10	1
4902642	4	C	07/30/2024	09:55	-131.369	44.752	0	569.60	0	4.5820	0	34.1170	0	27.027	0	564.213	0	19.2	4	6.1	4	-1E+10	1	-1E+10	1	-1E+10	1	-1E+10	1	-1E+10	1	-1E+10	1
4902642	4	C	07/30/2024	09:55	-131.369	44.752	0	589.90	0	4.4540	0	34.1340	0	27.054	0	584.292	0	16.5	4	5.3	4	-1E+10	1	-1E+10	1	-1E+10	1	-1E+10	1	-1E+10	1	-1E+10	1
4902642	4	C	07/30/2024	09:55	-131.369	44.752	0	610.00	0	4.3850	0	34.1520	0	27.076	0	604.172	0	14.2	4	4.5	4	-1E+10	1	-1E+10	1	-1E+10	1	-1E+10	1	-1E+10	1	-1E+10	1
4902642	4	C	07/30/2024	09:55	-131.369	44.752	0	629.90	0	4.3290	0	34.1720	0	27.098	0	623.852	0	11.9	4	3.8	4	-1E+10	1	-1E+10	1	-1E+10	1	-1E+10	1	-1E+10	1	-1E+10	1
4902642	4	C	07/30/2024	09:55	-131.369	44.752	0	650.40	0	4.3490	0	34.2010	0	27.119	0	644.124	0	9.6	4	3.1	4	-1E+10	1	-1E+10	1	-1E+10	1	-1E+10	1	-1E+10	1	-1E+10	1
4902642	4	C	07/30/2024	09:55	-131.369	44.752	0	670.10	0	4.3470	0	34.2210	0	27.136	0	663.602	0	8.5	4	2.7	4	-1E+10	1	-1E+10	1	-1E+10	1	-1E+10	1	-1E+10	1	-1E+10	1
4902642	4	C	07/30/2024	09:55	-131.369	44.752	0	689.70	0	4.3040	0	34.2330	0	27.150	0	682.980	0	7.9	4	2.5	4	-1E+10	1	-1E+10	1	-1E+10	1	-1E+10	1	-1E+10	1	-1E+10	1
4902642	4	C	07/30/2024	09:55	-131.369	44.752	0	709.70	0	4.2440	0	34.2430	0	27.164	0	702.752	0	7.4	4	2.4	4	-1E+10	1	-1E+10	1	-1E+10	1	-1E+10	1	-1E+10	1	-1E+10	1
4902642	4	C	07/30/2024	09:55	-131.369	44.752	0	729.70	0	4.1830	0	34.2540	0	27.179	0	722.521	0	6.9	4	2.2	4	-1E+10	1	-1E+10	1	-1E+10	1	-1E+10	1	-1E+10	1	-1E+10	1
4902642	4	C	07/30/2024	09:55	-131.369	44.752	0	749.80	0	4.1180	0	34.2670	0	27.197	0	742.388	0	6.5	4	2.1	4	-1E+10	1	-1E+10	1	-1E+10	1	-1E+10	1	-1E+10	1	-1E+10	1
4902642	4	C	07/30/2024	09:55	-131.369	44.752	0	769.80	0	4.0520	0	34.2760	0	27.211	0	762.154	0	6.3	4	2.0	4	-1E+10	1	-1E+10	1	-1E+10	1	-1E+10	1	-1E+10	1	-1E+10	1
4902642	4	C	07/30/2024	09:55	-131.369	44.752	0	789.60	0	3.9960	0	34.2840	0	27.223	0	781.720	0	6.0	4	1.9	4	-1E+10	1	-1E+10	1	-1E+10	1	-1E+10	1	-1E+10	1	-1E+10	1
4902642	4	C	07/30/2024	09:55	-131.369	44.752	0	809.70	0	3.9550	0	34.2960	0	27.237	0	801.581	0	5.8	4	1.8	4	-1E+10	1	-1E+10	1	-1E+10	1	-1E+10	1	-1E+10	1	-1E+10	1
4902642	4	C	07/30/2024	09:55	-131.369	44.752	0	829.90	0	3.8970	0	34.3050	0	27.250	0	821.538	0	5.7	4	1.8	4	-1E+10	1	-1E+10	1	-1E+10	1	-1E+10	1	-1E+10	1	-1E+10	1
4902642	4	C	07/30/2024	09:55	-131.369	44.752	0	849.50	0	3.8570	0	34.3150	0	27.262	0	840.901	0	5.5	4	1.7	4	-1E+10	1	-1E+10	1	-1E+10	1	-1E+10	1	-1E+10	1	-1E+10	1
4902642	4	C	07/30/2024	09:55	-131.369	44.752	0	869.60	0	3.8050	0	34.3260	0	27.276	0	860.757	0	5.4	4	1.7	4	-1E+10	1	-1E+10	1	-1E+10	1	-1E+10	1	-1E+10	1	-1E+10	1
4902642	4	C	07/30/2024	09:55	-131.369	44.752	0	889.60	0	3.7730	0	34.3360	0	27.288	0	880.511	0	5.4	4	1.7	4	-1E+10	1	-1E+10	1	-1E+10	1	-1E+10	1	-1E+10	1	-1E+10	1
4902642	4	C	07/30/2024	09:55	-131.369	44.752	0	909.40	0	3.7490	0	34.3430	0	27.296	0	900.066	0	5.4	4	1.7	4	-1E+10	1	-1E+10	1	-1E+10	1	-1E+10	1	-1E+10	1	-1E+10	1
4902642	4	C	07/30/2024	09:55	-131.369	44.752	0	930.20	0	3.6960	0	34.3540	0	27.310	0	920.607	0	5.6	4	1.8	4	-1E+10	1	-1E+10	1	-1E+10	1	-1E+10	1	-1E+10	1	-1E+10	1
4902642	4	C	07/30/2024	09:55	-131.369	44.752	0	949.70	0	3.6590	0	34.3640	0	27.322	0	939.862	0	5.7	4	1.8	4	-1E+10	1	-1E+10	1	-1E+10	1	-1E+10	1	-1E+10	1	-1E+10	1
4902642	4	C	07/30/2024	09:55	-131.369	44.752	0	969.70	0	3.6120	0	34.3730	0	27.333	0	959.609	0	5.9	4	1.9	4	-1E+10	1	-1E+10	1	-1E+10	1	-1E+10	1	-1E+10	1	-1E+10	1
4902642	4	C	07/30/2024	09:55	-131.369	44.752	0	989.60	0	3.5640	0	34.3820	0	27.345	0	979.256	0	6.2	4	2.0	4	-1E+10	1	-1E+10	1	-1E+10	1	-1E+10	1	-1E+10	1	-1E+10	1
4902642	4	C	07/30/2024	09:55	-131.369	44.752	0	1009.90	0	3.5210	0	34.3930	0	27.359	0	999.295	0	6.6	4	2.1	4	-1E+10	1	-1E+10	1	-1E+10	1	-1E+10	1	-1E+10	1	-1E+10	1
4902642	4	C	07/30/2024	09:55	-131.369	44.752	0	1030.10	0	3.4670	0	34.4000	0	27.369	0	1019.234	0	7.0	4	2.2	4	-1E+10	1	-1E+10	1	-1E+10	1	-1E+10	1	-1E+10	1	-1E+10	1
4902642	4	C	07/30/2024	09:55	-131.369	44.752	0	1049.30	0	3.4160	0	34.4080	0	27.381	0	1038.184	0	7.5	4	2.4	4	-1E+10	1	-1E+10	1	-1E+10	1	-1E+10	1	-1E+10	1	-1E+10	1
4902642	4	C	07/30/2024	09:55	-131.369	44.752	0	1069.90	0	3.3790	0	34.4180	0	27.392	0	1058.514	0	8.0	4	2.5	4	-1E+10	1	-1E+10	1	-1E+10	1	-1E+10	1	-1E+10	1	-1E+10	1
4902642	4	C	07/30/2024	09:55	-131.369	44.752	0	1090.00	0	3.3260	0	34.4230	0	27.402	0	1078.348	0	8.4	4	2.6	4	-1E+10	1	-1E+10	1	-1E+10	1	-1E+10	1	-1E+10	1	-1E+10	1
4902642	4	C	07/30/2024	09:55	-131.369	44.752	0	1109.90	0	3.2650	0	34.4310	0	27.414	0	1097.984	0	9.1	4	2.8	4	-1E+10	1	-1E+10	1	-1E+10	1	-1E+10	1	-1E+10	1	-1E+10	1
4902642	4	C	07/30/2024	09:55	-131.369	44.752	0	1130.10	0	3.2160	0	34.4380	0	27.424	0	1117.913	0	9.6	4	3.0	4	-1E+10	1	-1E+10	1	-1E+10	1	-1E+10	1	-1E+10	1	-1E+10	1
4902642	4	C	07/30/2024	09:55	-131.369	44.752	0	1149.60	0	3.1930	0	34.4420	0	27.429	0	1137.150	0	10.1	4	3.1	4	-1E+10	1	-1E+10	1	-1E+10	1	-1E+10	1	-1E+10	1	-1E+10	1
4902642	4	C	07/30/2024	09:55	-131.369	44.752	0	1169.30	0	3.1540	0	34.4480	0	27.438	0	1156.582	0	10.5	4	3.3	4	-1E+10	1	-1E+10	1	-1E+10	1	-1E+10	1	-1E+10	1	-1E+10	1
4902642	4	C	07/30/2024	09:55	-131.369	44.752	0	1189.70	0	3.1230	0	34.4500	0	27.442	0	1176.703	0	10.8	4	3.3	4	-1E+10	1	-1E+10	1	-1E+10	1	-1E+10	1	-1E+10	1	-1E+10	1
4902642	4	C	07/30/2024	09:55	-131.369	44.752	0	1209.80	0	3.0840	0	34.4530	0	27.449	0	1196.527	0	11.2	4	3.5	4	-1E+10	1	-1E+10	1	-1E+10	1	-1E+10	1	-1E+10	1	-1E+10	1
4902642	4	C	07/30/2024	09:55	-131.369	44.752	0	1229.30	0	3.0470	0	34.4570	0	27.455	0	1215.756	0	11.7	4	3.6	4	-1E+10	1	-1E+10	1	-1E+10	1	-1E+10	1	-1E+10	1	-1E+10	1
4902642	4	C	07/30/2024	09:55	-131.369	44.752	0	1249.50	0	3.0060	0	34.4620	0	27.463	0	1235.674	0	12.3	4	3.8	4	-1E+10	1	-1E+10	1	-1E+10	1	-1E+10	1	-1E+10	1	-1E+10	1
4902642	4	C	07/30/2024	09:55	-131.369	44.752	0	1269.60	0	2.9620	0	34.4660	0	27.470	0	1255.492	0	12.9	4	4.0	4	-1E+10	1	-1E+10	1	-1E+10	1	-1E+10	1	-1E+10	1	-1E+10	1
4902642	4	C	07/30/2024	09:55	-131.369	44.752	0	1289.50	0	2.9270	0	34.4700	0	27.477	0	1275.111	0	13.6	4	4.2	4	-1E+10	1	-1E+10	1	-1E+10	1	-1E+10	1	-1E+10	1	-1E+10	1
4902642	4	C	07/30/2024	09:55	-131.369	44.752	0	1309.60	0	2.8860	0	34.4750	0	27.484	0	1294.925	0	14.4	4	4.4	4	-1E+10	1	-1E+10	1	-1E+10	1	-1E+10	1	-1E+10	1	-1E+10	1
4902642	4	C	07/30/2024	09:55	-131.369	44.752	0	1329.80	0	2.8390	0	34.4810	0	27.494	0	1314.835	0	15.2	4	4.7	4	-1E+10	1	-1E+10	1	-1E+10	1	-1E+10	1	-1E+10	1	-1E+10	1
4902642	4	C	07/30/2024	09:55	-131.369	44.752	0	1350.00	0	2.8070	0	34.4840	0	27.499	0	1334.744	0	15.9	4	4.9	4	-1E+10	1	-1E+10	1	-1E+10	1	-1E+10	1	-1E+10	1	-1E+10	1
4902642	4	C	07/30/2024	09:55	-131.369	44.752	0	1369.90	0	2.7650	0	34.4870	0	27.505	0	1354.355	0	16.5	4	5.1	4	-1E+10	1	-1E+10	1	-1E+10	1	-1E+10	1	-1E+10	1	-1E+10	1
4902642	4	C	07/30/2024	09:55	-131.369	44.752	0	1390.30	0	2.7290	0	34.4920	0	27.512	0	1374.458	0	17.4	4	5.3	4	-1E+10	1	-1E+10	1	-1E+10	1	-1E+10	1	-1E+10	1	-1E+10	1
4902642	4	C	07/30/2024	09:55	-131.369	44.752	0	1409.70	0	2.7000	0	34.4950	0	27.517	0	1393.572	0	18.1	4	5.5	4	-1E+10	1	-1E+10	1	-1E+10	1	-1E+10	1	-1E+10	1	-1E+10	1
4902642	4	C	07/30/2024	09:55	-131.369	44.752	0	1429.90	0	2.6650	0	34.4990	0	27.524	0	1413.474	0	19.0	4	5.8	4	-1E+10	1	-1E+10	1	-1E+10	1	-1E+10	1	-1E+10	1	-1E+10	1
4902642	4	C	07/30/2024	09:55	-131.369	44.752	0	1449.70	0	2.6200	0	34.5030	0	27.531	0	1432.979	0	20.1	4	6.1	4	-1E+10	1	-1E+10	1	-1E+10	1	-1E+10	1	-1E+10	1	-1E+10	1
4902642	4	C	07/30/2024	09:55	-131.369	44.752	0	1469.50	0	2.5820	0	34.5080	0	27.538	0	1452.483	0	21.1	4	6.4	4	-1E+10	1	-1E+10	1	-1E+10	1	-1E+10	1	-1E+10	1	-1E+10	1
4902642	4	C	07/30/2024	09:55	-131.369	44.752	0	1489.60	0	2.5360	0	34.5120	0	27.545	0	1472.280	0	22.4	4	6.8	4	-1E+10	1	-1E+10	1	-1E+10	1	-1E+10	1	-1E+10	1	-1E+10	1
4902642	4	C	07/30/2024	09:55	-131.369	44.752	0	1509.70	0	2.4940	0	34.5170	0	27.553	0	1492.075	0	23.6	4	7.2	4	-1E+10	1	-1E+10	1	-1E+10	1	-1E+10	1	-1E+10	1	-1E+10	1
4902642	4	C	07/30/2024	09:55	-131.369	44.752	0	1530.00	0	2.4570	0	34.5210	0	27.559	0	1512.066	0	24.8	4	7.5	4	-1E+10	1	-1E+10	1	-1E+10	1	-1E+10	1	-1E+10	1	-1E+10	1
4902642	4	C	07/30/2024	09:55	-131.369	44.752	0	1549.70	0	2.4240	0	34.5250	0	27.565	0	1531.463	0	26.0	4	7.9	4	-1E+10	1	-1E+10	1	-1E+10	1	-1E+10	1	-1E+10	1	-1E+10	1
4902642	4	C	07/30/2024	09:55	-131.369	44.752	0	1569.50	0	2.3790	0	34.5290	0	27.572	0	1550.958	0	27.5	4	8.4	4	-1E+10	1	-1E+10	1	-1E+10	1	-1E+10	1	-1E+10	1	-1E+10	1
4902642	4	C	07/30/2024	09:55	-131.369	44.752	0	1589.70	0	2.3580	0	34.5350	0	27.579	0	1570.844	0	28.8	4	8.8	4	-1E+10	1	-1E+10	1	-1E+10	1	-1E+10	1	-1E+10	1	-1E+10	1
4902642	4	C	07/30/2024	09:55	-131.369	44.752	0	1610.30	0	2.3270	0	34.5370	0	27.583	0	1591.123	0	30.1	4	9.1	4	-1E+10	1	-1E+10	1	-1E+10	1	-1E+10	1	-1E+10	1	-1E+10	1
4902642	4	C	07/30/2024	09:55	-131.369	44.752	0	1629.70	0	2.2940	0	34.5430	0	27.591	0	1610.218	0	31.5	4	9.6	4	-1E+10	1	-1E+10	1	-1E+10	1	-1E+10	1	-1E+10	1	-1E+10	1
4902642	4	C	07/30/2024	09:55	-131.369	44.752	0	1649.80	0	2.2690	0	34.5460	0	27.595	0	1630.000	0	32.8	4	10.0	4	-1E+10	1	-1E+10	1	-1E+10	1	-1E+10	1	-1E+10	1	-1E+10	1
4902642	4	C	07/30/2024	09:55	-131.369	44.752	0	1669.80	0	2.2450	0	34.5500	0	27.601	0	1649.683	0	34.1	4	10.3	4	-1E+10	1	-1E+10	1	-1E+10	1	-1E+10	1	-1E+10	1	-1E+10	1
4902642	4	C	07/30/2024	09:55	-131.369	44.752	0	1689.50	0	2.2270	0	34.5530	0	27.605	0	1669.068	0	35.3	4	10.7	4	-1E+10	1	-1E+10	1	-1E+10	1	-1E+10	1	-1E+10	1	-1E+10	1
4902642	4	C	07/30/2024	09:55	-131.369	44.752	0	1709.40	0	2.1990	0	34.5570	0	27.610	0	1688.648	0	36.7	4	11.1	4	-1E+10	1	-1E+10	1	-1E+10	1	-1E+10	1	-1E+10	1	-1E+10	1
4902642	4	C	07/30/2024	09:55	-131.369	44.752	0	1730.30	0	2.1740	0	34.5610	0	27.615	0	1709.210	0	38.0	4	11.5	4	-1E+10	1	-1E+10	1	-1E+10	1	-1E+10	1	-1E+10	1	-1E+10	1
4902642	4	C	07/30/2024	09:55	-131.369	44.752	0	1749.70	0	2.1500	0	34.5630	0	27.619	0	1728.294	0	39.1	4	11.8	4	-1E+10	1	-1E+10	1	-1E+10	1	-1E+10	1	-1E+10	1	-1E+10	1
4902642	4	C	07/30/2024	09:55	-131.369	44.752	0	1769.60	0	2.1310	0	34.5660	0	27.623	0	1747.869	0	40.3	4	12.2	4	-1E+10	1	-1E+10	1	-1E+10	1	-1E+10	1	-1E+10	1	-1E+10	1
4902642	4	C	07/30/2024	09:55	-131.369	44.752	0	1790.00	0	2.1060	0	34.5690	0	27.628	0	1767.934	0	41.5	4	12.5	4	-1E+10	1	-1E+10	1	-1E+10	1	-1E+10	1	-1E+10	1	-1E+10	1
4902642	4	C	07/30/2024	09:55	-131.369	44.752	0	1809.50	0	2.0880	0	34.5720	0	27.631	0	1787.111	0	42.4	4	12.8	4	-1E+10	1	-1E+10	1	-1E+10	1	-1E+10	1	-1E+10	1	-1E+10	1
4902642	4	C	07/30/2024	09:55	-131.369	44.752	0	1829.80	0	2.0680	0	34.5740	0	27.635	0	1807.074	0	43.6	4	13.2	4	-1E+10	1	-1E+10	1	-1E+10	1	-1E+10	1	-1E+10	1	-1E+10	1
4902642	4	C	07/30/2024	09:55	-131.369	44.752	0	1849.80	0	2.0420	0	34.5780	0	27.640	0	1826.740	0	44.8	4	13.5	4	-1E+10	1	-1E+10	1	-1E+10	1	-1E+10	1	-1E+10	1	-1E+10	1
4902642	4	C	07/30/2024	09:55	-131.369	44.752	0	1869.50	0	2.0280	0	34.5800	0	27.643	0	1846.109	0	45.7	4	13.8	4	-1E+10	1	-1E+10	1	-1E+10	1	-1E+10	1	-1E+10	1	-1E+10	1
4902642	4	C	07/30/2024	09:55	-131.369	44.752	0	1889.70	0	2.0120	0	34.5820	0	27.646	0	1865.967	0	46.7	4	14.1	4	-1E+10	1	-1E+10	1	-1E+10	1	-1E+10	1	-1E+10	1	-1E+10	1
4902642	4	C	07/30/2024	09:55	-131.369	44.752	0	1909.90	0	1.9980	0	34.5840	0	27.649	0	1885.824	0	47.6	4	14.4	4	-1E+10	1	-1E+10	1	-1E+10	1	-1E+10	1	-1E+10	1	-1E+10	1
4902642	4	C	07/30/2024	09:55	-131.369	44.752	0	1930.30	0	1.9870	0	34.5860	0	27.651	0	1905.876	0	48.6	4	14.7	4	-1E+10	1	-1E+10	1	-1E+10	1	-1E+10	1	-1E+10	1	-1E+10	1
4902642	4	C	07/30/2024	09:55	-131.369	44.752	0	1949.80	0	1.9710	0	34.5890	0	27.655	0	1925.041	0	49.7	4	15.0	4	-1E+10	1	-1E+10	1	-1E+10	1	-1E+10	1	-1E+10	1	-1E+10	1
4902642	4	C	07/30/2024	09:55	-131.369	44.752	0	1969.90	0	1.9620	0	34.5910	0	27.657	0	1944.794	0	50.4	4	15.2	4	-1E+10	1	-1E+10	1	-1E+10	1	-1E+10	1	-1E+10	1	-1E+10	1
4902642	4	C	07/30/2024	09:55	-131.369	44.752	0	1990.00	0	1.9520	0	34.5930	0	27.660	0	1964.545	0	51.4	4	15.5	4	-1E+10	1	-1E+10	1	-1E+10	1	-1E+10	1	-1E+10	1	-1E+10	1
4902642	4	C	07/30/2024	09:55	-131.369	44.752	0	2009.70	0	1.9390	0	34.5950	4	27.663	0	1983.902	0	52.2	4	15.7	4	-1E+10	1	-1E+10	1	-1E+10	1	-1E+10	1	-1E+10	1	-1E+10	1
4902642	4	C	07/30/2024	09:55	-131.369	44.752	0	2029.70	0	1.9340	0	34.5960	4	27.664	0	2003.551	0	52.8	4	15.9	4	-1E+10	1	-1E+10	1	-1E+10	1	-1E+10	1	-1E+10	1	-1E+10	1
4902642	4	C	07/30/2024	09:55	-131.369	44.752	0	2049.70	0	1.9260	0	34.5980	4	27.666	0	2023.198	0	53.6	4	16.1	4	-1E+10	1	-1E+10	1	-1E+10	1	-1E+10	1	-1E+10	1	-1E+10	1
4902642	4	C	07/30/2024	09:55	-131.369	44.752	0	2069.40	0	1.9180	0	34.5990	4	27.668	0	2042.549	0	54.4	4	16.4	4	-1E+10	1	-1E+10	1	-1E+10	1	-1E+10	1	-1E+10	1	-1E+10	1
4902642	4	C	07/30/2024	09:55	-131.369	44.752	0	2089.70	0	1.9070	0	34.6010	4	27.670	0	2062.488	0	55.4	4	16.7	4	-1E+10	1	-1E+10	1	-1E+10	1	-1E+10	1	-1E+10	1	-1E+10	1
4902642	4	C	07/30/2024	09:55	-131.369	44.752	0	2109.50	0	1.8980	0	34.6030	4	27.673	0	2081.934	0	56.2	4	16.9	4	-1E+10	1	-1E+10	1	-1E+10	1	-1E+10	1	-1E+10	1	-1E+10	1
4902642	4	C	07/30/2024	09:55	-131.369	44.752	0	2128.80	0	1.8890	0	34.6050	4	27.675	0	2100.887	0	56.9	4	17.1	4	-1E+10	1	-1E+10	1	-1E+10	1	-1E+10	1	-1E+10	1	-1E+10	1
4902642	4	C	07/30/2024	09:55	-131.369	44.752	0	2149.50	0	1.8840	0	34.6060	4	27.676	0	2121.213	0	57.5	4	17.3	4	-1E+10	1	-1E+10	1	-1E+10	1	-1E+10	1	-1E+10	1	-1E+10	1
4902642	4	C	07/30/2024	09:55	-131.369	44.752	0	2169.50	0	1.8750	0	34.6080	4	27.679	0	2140.849	0	58.4	4	17.5	4	-1E+10	1	-1E+10	1	-1E+10	1	-1E+10	1	-1E+10	1	-1E+10	1
4902642	4	C	07/30/2024	09:55	-131.369	44.752	0	2189.50	0	1.8670	0	34.6090	4	27.680	0	2160.484	0	59.0	4	17.7	4	-1E+10	1	-1E+10	1	-1E+10	1	-1E+10	1	-1E+10	1	-1E+10	1
4902642	4	C	07/30/2024	09:55	-131.369	44.752	0	2209.70	0	1.8610	0	34.6110	4	27.683	0	2180.313	0	59.6	4	17.9	4	-1E+10	1	-1E+10	1	-1E+10	1	-1E+10	1	-1E+10	1	-1E+10	1
4902642	4	C	07/30/2024	09:55	-131.369	44.752	0	2230.00	0	1.8570	0	34.6120	4	27.684	0	2200.239	0	60.1	4	18.1	4	-1E+10	1	-1E+10	1	-1E+10	1	-1E+10	1	-1E+10	1	-1E+10	1
4902642	4	C	07/30/2024	09:55	-131.369	44.752	0	2249.90	0	1.8520	0	34.6130	4	27.685	0	2219.770	0	60.7	4	18.2	4	-1E+10	1	-1E+10	1	-1E+10	1	-1E+10	1	-1E+10	1	-1E+10	1
4902642	4	C	07/30/2024	09:55	-131.369	44.752	0	2269.90	0	1.8450	0	34.6140	4	27.687	0	2239.398	0	61.2	4	18.4	4	-1E+10	1	-1E+10	1	-1E+10	1	-1E+10	1	-1E+10	1	-1E+10	1
4902642	4	C	07/30/2024	09:55	-131.369	44.752	0	2290.10	0	1.8430	0	34.6150	4	27.688	0	2259.220	0	61.6	4	18.5	4	-1E+10	1	-1E+10	1	-1E+10	1	-1E+10	1	-1E+10	1	-1E+10	1
4902642	4	C	07/30/2024	09:55	-131.369	44.752	0	2309.90	0	1.8390	0	34.6150	4	27.688	0	2278.648	0	62.1	4	18.7	4	-1E+10	1	-1E+10	1	-1E+10	1	-1E+10	1	-1E+10	1	-1E+10	1
4902642	4	C	07/30/2024	09:55	-131.369	44.752	0	2329.90	0	1.8320	0	34.6170	4	27.690	0	2298.270	0	62.9	4	18.9	4	-1E+10	1	-1E+10	1	-1E+10	1	-1E+10	1	-1E+10	1	-1E+10	1
4902642	4	C	07/30/2024	09:55	-131.369	44.752	0	2349.60	0	1.8270	0	34.6180	4	27.692	0	2317.596	0	63.5	4	19.1	4	-1E+10	1	-1E+10	1	-1E+10	1	-1E+10	1	-1E+10	1	-1E+10	1
4902642	4	C	07/30/2024	09:55	-131.369	44.752	0	2370.20	0	1.8230	0	34.6190	4	27.693	0	2337.803	0	64.0	4	19.2	4	-1E+10	1	-1E+10	1	-1E+10	1	-1E+10	1	-1E+10	1	-1E+10	1
4902642	4	C	07/30/2024	09:55	-131.369	44.752	0	2389.50	0	1.8180	0	34.6200	4	27.694	0	2356.734	0	64.6	4	19.4	4	-1E+10	1	-1E+10	1	-1E+10	1	-1E+10	1	-1E+10	1	-1E+10	1
4902642	4	C	07/30/2024	09:55	-131.369	44.752	0	2409.50	0	1.8150	0	34.6200	4	27.694	0	2376.349	0	65.0	4	19.5	4	-1E+10	1	-1E+10	1	-1E+10	1	-1E+10	1	-1E+10	1	-1E+10	1
4902642	4	C	07/30/2024	09:55	-131.369	44.752	0	2429.50	0	1.8100	0	34.6210	4	27.696	0	2395.962	0	65.8	4	19.7	4	-1E+10	1	-1E+10	1	-1E+10	1	-1E+10	1	-1E+10	1	-1E+10	1
4902642	4	C	07/30/2024	09:55	-131.369	44.752	0	2449.70	0	1.8010	0	34.6230	4	27.698	0	2415.770	0	66.6	4	20.0	4	-1E+10	1	-1E+10	1	-1E+10	1	-1E+10	1	-1E+10	1	-1E+10	1
4902642	4	C	07/30/2024	09:55	-131.369	44.752	0	2469.60	0	1.7940	0	34.6240	4	27.700	0	2435.281	0	67.3	4	20.2	4	-1E+10	1	-1E+10	1	-1E+10	1	-1E+10	1	-1E+10	1	-1E+10	1
4902642	4	C	07/30/2024	09:55	-131.369	44.752	0	2489.90	0	1.7900	0	34.6250	4	27.701	0	2455.183	0	68.0	4	20.4	4	-1E+10	1	-1E+10	1	-1E+10	1	-1E+10	1	-1E+10	1	-1E+10	1
4902642	4	C	07/30/2024	09:55	-131.369	44.752	0	2509.80	0	1.7810	0	34.6260	4	27.702	0	2474.691	0	68.8	4	20.6	4	-1E+10	1	-1E+10	1	-1E+10	1	-1E+10	1	-1E+10	1	-1E+10	1
4902642	4	C	07/30/2024	09:55	-131.369	44.752	0	2530.00	0	1.7730	0	34.6270	4	27.704	0	2494.492	0	69.5	4	20.9	4	-1E+10	1	-1E+10	1	-1E+10	1	-1E+10	1	-1E+10	1	-1E+10	1
4902642	4	C	07/30/2024	09:55	-131.369	44.752	0	2549.80	0	1.7660	0	34.6280	4	27.705	0	2513.898	0	70.2	4	21.0	4	-1E+10	1	-1E+10	1	-1E+10	1	-1E+10	1	-1E+10	1	-1E+10	1
4902642	4	C	07/30/2024	09:55	-131.369	44.752	0	2569.60	0	1.7600	0	34.6290	4	27.707	0	2533.303	0	71.0	4	21.3	4	-1E+10	1	-1E+10	1	-1E+10	1	-1E+10	1	-1E+10	1	-1E+10	1
4902642	4	C	07/30/2024	09:55	-131.369	44.752	0	2589.70	0	1.7530	0	34.6300	4	27.708	0	2553.000	0	71.9	4	21.6	4	-1E+10	1	-1E+10	1	-1E+10	1	-1E+10	1	-1E+10	1	-1E+10	1
4902642	4	C	07/30/2024	09:55	-131.369	44.752	0	2609.70	0	1.7460	0	34.6310	4	27.710	0	2572.597	0	72.7	4	21.8	4	-1E+10	1	-1E+10	1	-1E+10	1	-1E+10	1	-1E+10	1	-1E+10	1
4902642	4	C	07/30/2024	09:55	-131.369	44.752	0	2630.20	0	1.7390	0	34.6320	4	27.711	0	2592.682	0	73.6	4	22.0	4	-1E+10	1	-1E+10	1	-1E+10	1	-1E+10	1	-1E+10	1	-1E+10	1
4902642	4	C	07/30/2024	09:55	-131.369	44.752	0	2649.60	0	1.7280	0	34.6330	4	27.713	0	2611.688	0	74.7	4	22.4	4	-1E+10	1	-1E+10	1	-1E+10	1	-1E+10	1	-1E+10	1	-1E+10	1
4902642	4	C	07/30/2024	09:55	-131.369	44.752	0	2669.70	0	1.7180	0	34.6350	4	27.715	0	2631.378	0	75.7	4	22.7	4	-1E+10	1	-1E+10	1	-1E+10	1	-1E+10	1	-1E+10	1	-1E+10	1
4902642	4	C	07/30/2024	09:55	-131.369	44.752	0	2689.70	0	1.7100	0	34.6360	4	27.717	0	2650.968	0	76.7	4	23.0	4	-1E+10	1	-1E+10	1	-1E+10	1	-1E+10	1	-1E+10	1	-1E+10	1
4902642	4	C	07/30/2024	09:55	-131.369	44.752	0	2710.30	0	1.7000	0	34.6370	4	27.718	0	2671.144	0	77.7	4	23.3	4	-1E+10	1	-1E+10	1	-1E+10	1	-1E+10	1	-1E+10	1	-1E+10	1
4902642	4	C	07/30/2024	09:55	-131.369	44.752	0	2729.50	0	1.6930	0	34.6380	4	27.720	0	2689.947	0	78.4	4	23.5	4	-1E+10	1	-1E+10	1	-1E+10	1	-1E+10	1	-1E+10	1	-1E+10	1
4902642	4	C	07/30/2024	09:55	-131.369	44.752	0	2749.80	0	1.6870	0	34.6390	4	27.721	0	2709.825	0	79.2	4	23.7	4	-1E+10	1	-1E+10	1	-1E+10	1	-1E+10	1	-1E+10	1	-1E+10	1
4902642	4	C	07/30/2024	09:55	-131.369	44.752	0	2770.10	0	1.6820	0	34.6400	4	27.723	0	2729.702	0	80.0	4	23.9	4	-1E+10	1	-1E+10	1	-1E+10	1	-1E+10	1	-1E+10	1	-1E+10	1
4902642	4	C	07/30/2024	09:55	-131.369	44.752	0	2789.80	0	1.6750	0	34.6410	4	27.724	0	2748.989	0	80.9	4	24.2	4	-1E+10	1	-1E+10	1	-1E+10	1	-1E+10	1	-1E+10	1	-1E+10	1
4902642	4	C	07/30/2024	09:55	-131.369	44.752	0	2810.00	0	1.6640	0	34.6420	4	27.726	0	2768.764	0	82.1	4	24.6	4	-1E+10	1	-1E+10	1	-1E+10	1	-1E+10	1	-1E+10	1	-1E+10	1
4902642	4	C	07/30/2024	09:55	-131.369	44.752	0	2829.60	0	1.6570	0	34.6430	4	27.727	0	2787.950	0	82.9	4	24.8	4	-1E+10	1	-1E+10	1	-1E+10	1	-1E+10	1	-1E+10	1	-1E+10	1
4902642	4	C	07/30/2024	09:55	-131.369	44.752	0	2849.80	0	1.6490	0	34.6450	4	27.729	0	2807.722	0	84.1	4	25.1	4	-1E+10	1	-1E+10	1	-1E+10	1	-1E+10	1	-1E+10	1	-1E+10	1
4902642	4	C	07/30/2024	09:55	-131.369	44.752	0	2869.70	0	1.6400	0	34.6460	4	27.731	0	2827.198	0	85.0	4	25.4	4	-1E+10	1	-1E+10	1	-1E+10	1	-1E+10	1	-1E+10	1	-1E+10	1
4902642	4	C	07/30/2024	09:55	-131.369	44.752	0	2889.60	0	1.6320	0	34.6470	4	27.732	0	2846.673	0	86.0	4	25.7	4	-1E+10	1	-1E+10	1	-1E+10	1	-1E+10	1	-1E+10	1	-1E+10	1
4902642	4	C	07/30/2024	09:55	-131.369	44.752	0	2910.00	0	1.6240	0	34.6480	4	27.734	0	2866.634	0	86.8	4	25.9	4	-1E+10	1	-1E+10	1	-1E+10	1	-1E+10	1	-1E+10	1	-1E+10	1
4902642	4	C	07/30/2024	09:55	-131.369	44.752	0	2929.70	0	1.6190	0	34.6490	4	27.735	0	2885.910	0	87.5	4	26.2	4	-1E+10	1	-1E+10	1	-1E+10	1	-1E+10	1	-1E+10	1	-1E+10	1
4902642	4	C	07/30/2024	09:55	-131.369	44.752	0	2950.20	0	1.6130	0	34.6500	4	27.737	0	2905.966	0	88.4	4	26.4	4	-1E+10	1	-1E+10	1	-1E+10	1	-1E+10	1	-1E+10	1	-1E+10	1
4902642	4	C	07/30/2024	09:55	-131.369	44.752	0	2969.80	0	1.6050	0	34.6510	4	27.738	0	2925.140	0	89.2	4	26.6	4	-1E+10	1	-1E+10	1	-1E+10	1	-1E+10	1	-1E+10	1	-1E+10	1
4902642	4	C	07/30/2024	09:55	-131.369	44.752	0	2990.00	0	1.6030	0	34.6510	4	27.738	0	2944.899	0	89.6	4	26.8	4	-1E+10	1	-1E+10	1	-1E+10	1	-1E+10	1	-1E+10	1	-1E+10	1
4902642	4	C	07/30/2024	09:55	-131.369	44.752	0	3009.60	0	1.6000	0	34.6520	4	27.740	0	2964.069	0	90.2	4	26.9	4	-1E+10	1	-1E+10	1	-1E+10	1	-1E+10	1	-1E+10	1	-1E+10	1
4902642	4	C	07/30/2024	09:55	-131.369	44.752	0	3029.70	0	1.5960	0	34.6530	4	27.741	0	2983.727	0	90.9	4	27.1	4	-1E+10	1	-1E+10	1	-1E+10	1	-1E+10	1	-1E+10	1	-1E+10	1
4902642	4	C	07/30/2024	09:55	-131.369	44.752	0	3049.90	0	1.5920	0	34.6540	4	27.742	0	3003.481	0	91.7	4	27.4	4	-1E+10	1	-1E+10	1	-1E+10	1	-1E+10	1	-1E+10	1	-1E+10	1
4902642	4	C	07/30/2024	09:55	-131.369	44.752	0	3069.70	0	1.5870	0	34.6550	4	27.743	0	3022.841	0	92.5	4	27.6	4	-1E+10	1	-1E+10	1	-1E+10	1	-1E+10	1	-1E+10	1	-1E+10	1
4902642	4	C	07/30/2024	09:55	-131.369	44.752	0	3089.80	0	1.5820	0	34.6560	4	27.745	0	3042.494	0	93.3	4	27.9	4	-1E+10	1	-1E+10	1	-1E+10	1	-1E+10	1	-1E+10	1	-1E+10	1
4902642	4	C	07/30/2024	09:55	-131.369	44.752	0	3109.10	0	1.5780	0	34.6560	4	27.745	0	3061.362	0	94.0	4	28.0	4	-1E+10	1	-1E+10	1	-1E+10	1	-1E+10	1	-1E+10	1	-1E+10	1
4902642	4	C	07/30/2024	09:55	-131.369	44.752	0	3129.80	0	1.5730	0	34.6570	4	27.746	0	3081.598	0	94.7	4	28.3	4	-1E+10	1	-1E+10	1	-1E+10	1	-1E+10	1	-1E+10	1	-1E+10	1
4902642	4	C	07/30/2024	09:55	-131.369	44.752	0	3150.10	0	1.5690	0	34.6580	4	27.747	0	3101.440	0	95.4	4	28.5	4	-1E+10	1	-1E+10	1	-1E+10	1	-1E+10	1	-1E+10	1	-1E+10	1
4902642	4	C	07/30/2024	09:55	-131.369	44.752	0	3170.70	0	1.5650	0	34.6590	4	27.749	0	3121.574	0	96.1	4	28.7	4	-1E+10	1	-1E+10	1	-1E+10	1	-1E+10	1	-1E+10	1	-1E+10	1
4902642	4	C	07/30/2024	09:55	-131.369	44.752	0	3189.80	0	1.5600	0	34.6600	4	27.750	0	3140.241	0	96.9	4	28.9	4	-1E+10	1	-1E+10	1	-1E+10	1	-1E+10	1	-1E+10	1	-1E+10	1
4902642	4	C	07/30/2024	09:55	-131.369	44.752	0	3210.30	0	1.5550	0	34.6610	4	27.751	0	3160.273	0	97.7	4	29.2	4	-1E+10	1	-1E+10	1	-1E+10	1	-1E+10	1	-1E+10	1	-1E+10	1
4902642	4	C	07/30/2024	09:55	-131.369	44.752	0	3229.90	0	1.5500	0	34.6620	4	27.753	0	3179.425	0	98.6	4	29.4	4	-1E+10	1	-1E+10	1	-1E+10	1	-1E+10	1	-1E+10	1	-1E+10	1
4902642	4	C	07/30/2024	09:55	-131.369	44.752	0	3249.80	0	1.5450	0	34.6620	4	27.753	0	3198.868	0	99.3	4	29.6	4	-1E+10	1	-1E+10	1	-1E+10	1	-1E+10	1	-1E+10	1	-1E+10	1
4902642	4	C	07/30/2024	09:55	-131.369	44.752	0	3269.90	0	1.5440	0	34.6630	4	27.754	0	3218.504	0	99.7	4	29.7	4	-1E+10	1	-1E+10	1	-1E+10	1	-1E+10	1	-1E+10	1	-1E+10	1
4902642	4	C	07/30/2024	09:55	-131.369	44.752	0	3290.10	0	1.5430	0	34.6630	4	27.754	0	3238.237	0	99.9	4	29.8	4	-1E+10	1	-1E+10	1	-1E+10	1	-1E+10	1	-1E+10	1	-1E+10	1
4902642	4	C	07/30/2024	09:55	-131.369	44.752	0	3310.20	0	1.5430	0	34.6640	4	27.755	0	3257.869	0	100.4	4	29.9	4	-1E+10	1	-1E+10	1	-1E+10	1	-1E+10	1	-1E+10	1	-1E+10	1
4902642	4	C	07/30/2024	09:55	-131.369	44.752	0	3329.90	0	1.5420	0	34.6640	4	27.755	0	3277.110	0	100.6	4	30.0	4	-1E+10	1	-1E+10	1	-1E+10	1	-1E+10	1	-1E+10	1	-1E+10	1
4902642	4	C	07/30/2024	09:55	-131.369	44.752	0	3349.80	0	1.5410	0	34.6650	4	27.756	0	3296.544	0	100.9	4	30.1	4	-1E+10	1	-1E+10	1	-1E+10	1	-1E+10	1	-1E+10	1	-1E+10	1
4902642	4	C	07/30/2024	09:55	-131.369	44.752	0	3369.90	0	1.5390	0	34.6650	4	27.757	0	3316.172	0	101.4	4	30.2	4	-1E+10	1	-1E+10	1	-1E+10	1	-1E+10	1	-1E+10	1	-1E+10	1
4902642	4	C	07/30/2024	09:55	-131.369	44.752	0	3390.20	0	1.5390	0	34.6660	4	27.758	0	3335.993	0	101.4	4	30.2	4	-1E+10	1	-1E+10	1	-1E+10	1	-1E+10	1	-1E+10	1	-1E+10	1
4902642	4	C	07/30/2024	09:55	-131.369	44.752	0	3409.00	0	1.5380	0	34.6670	4	27.759	0	3354.348	0	101.2	4	30.2	4	-1E+10	1	-1E+10	1	-1E+10	1	-1E+10	1	-1E+10	1	-1E+10	1
4902642	4	C	07/30/2024	09:55	-131.369	44.752	0																										
4902642	5	C	08/09/2024	03:27	-131.270	44.754	0	1.90	0	18.4200	0	32.4290	0	23.203	0	1.885	0	219.0	4	92.7	4	-1E+10	1	-1E+10	1	-1E+10	1	-1E+10	1	-1E+10	1	-1E+10	1
4902642	5	C	08/09/2024	03:27	-131.270	44.754	0	2.10	0	18.4200	0	32.4300	0	23.203	0	2.083	0	218.7	4	92.6	4	-1E+10	1	-1E+10	1	-1E+10	1	-1E+10	1	-1E+10	1	-1E+10	1
4902642	5	C	08/09/2024	03:27	-131.270	44.754	0	2.20	0	18.4200	0	32.4300	0	23.203	0	2.182	0	218.9	4	92.7	4	-1E+10	1	-1E+10	1	-1E+10	1	-1E+10	1	-1E+10	1	-1E+10	1
4902642	5	C	08/09/2024	03:27	-131.270	44.754	0	2.70	0	18.4200	0	32.4300	0	23.203	0	2.678	0	-1e10	1	-1e10	1	-1E+10	1	-1E+10	1	-1E+10	1	-1E+10	1	-1E+10	1	-1E+10	1
4902642	5	C	08/09/2024	03:27	-131.270	44.754	0	3.00	0	18.4190	0	32.4260	0	23.201	0	2.976	0	219.0	4	92.7	4	-1E+10	1	-1E+10	1	-1E+10	1	-1E+10	1	-1E+10	1	-1E+10	1
4902642	5	C	08/09/2024	03:27	-131.270	44.754	0	3.40	0	18.4170	0	32.4280	0	23.203	0	3.372	0	219.1	4	92.8	4	-1E+10	1	-1E+10	1	-1E+10	1	-1E+10	1	-1E+10	1	-1E+10	1
4902642	5	C	08/09/2024	03:27	-131.270	44.754	0	4.50	0	18.4150	0	32.4310	0	23.205	0	4.464	0	219.2	4	92.8	4	-1E+10	1	-1E+10	1	-1E+10	1	-1E+10	1	-1E+10	1	-1E+10	1
4902642	5	C	08/09/2024	03:27	-131.270	44.754	0	5.50	0	18.4180	0	32.4310	0	23.205	0	5.455	0	219.3	4	92.8	4	-1E+10	1	-1E+10	1	-1E+10	1	-1E+10	1	-1E+10	1	-1E+10	1
4902642	5	C	08/09/2024	03:27	-131.270	44.754	0	6.60	0	18.4180	0	32.4310	0	23.205	0	6.546	0	219.3	4	92.8	4	-1E+10	1	-1E+10	1	-1E+10	1	-1E+10	1	-1E+10	1	-1E+10	1
4902642	5	C	08/09/2024	03:27	-131.270	44.754	0	7.70	0	18.4170	0	32.4320	0	23.206	0	7.638	0	219.4	4	92.9	4	-1E+10	1	-1E+10	1	-1E+10	1	-1E+10	1	-1E+10	1	-1E+10	1
4902642	5	C	08/09/2024	03:27	-131.270	44.754	0	8.60	0	18.4190	0	32.4290	0	23.203	0	8.530	0	219.4	4	92.9	4	-1E+10	1	-1E+10	1	-1E+10	1	-1E+10	1	-1E+10	1	-1E+10	1
4902642	5	C	08/09/2024	03:27	-131.270	44.754	0	9.70	0	18.4190	0	32.4310	0	23.205	0	9.621	0	219.6	4	92.9	4	-1E+10	1	-1E+10	1	-1E+10	1	-1E+10	1	-1E+10	1	-1E+10	1
4902642	5	C	08/09/2024	03:27	-131.270	44.754	0	15.30	0	18.2920	0	32.4260	0	23.232	0	15.176	0	222.4	4	93.9	4	-1E+10	1	-1E+10	1	-1E+10	1	-1E+10	1	-1E+10	1	-1E+10	1
4902642	5	C	08/09/2024	03:27	-131.270	44.754	0	24.90	0	16.3830	0	32.4080	0	23.670	0	24.697	0	241.3	4	98.3	4	-1E+10	1	-1E+10	1	-1E+10	1	-1E+10	1	-1E+10	1	-1E+10	1
4902642	5	C	08/09/2024	03:27	-131.270	44.754	0	35.20	0	13.3520	0	32.3730	0	24.291	0	34.912	0	258.3	4	99.0	4	-1E+10	1	-1E+10	1	-1E+10	1	-1E+10	1	-1E+10	1	-1E+10	1
4902642	5	C	08/09/2024	03:27	-131.270	44.754	0	44.90	0	11.4160	0	32.3950	0	24.675	0	44.532	0	257.2	4	94.7	4	-1E+10	1	-1E+10	1	-1E+10	1	-1E+10	1	-1E+10	1	-1E+10	1
4902642	5	C	08/09/2024	03:27	-131.270	44.754	0	54.80	0	10.0020	0	32.4390	0	24.954	0	54.349	0	253.9	4	90.8	4	-1E+10	1	-1E+10	1	-1E+10	1	-1E+10	1	-1E+10	1	-1E+10	1
4902642	5	C	08/09/2024	03:27	-131.270	44.754	0	64.60	0	9.5570	0	32.4490	0	25.034	0	64.067	0	250.7	4	88.8	4	-1E+10	1	-1E+10	1	-1E+10	1	-1E+10	1	-1E+10	1	-1E+10	1
4902642	5	C	08/09/2024	03:27	-131.270	44.754	0	75.20	0	9.4020	0	32.4820	0	25.085	0	74.578	0	246.9	4	87.2	4	-1E+10	1	-1E+10	1	-1E+10	1	-1E+10	1	-1E+10	1	-1E+10	1
4902642	5	C	08/09/2024	03:27	-131.270	44.754	0	84.90	0	9.3020	0	32.5130	0	25.126	0	84.195	0	242.4	4	85.4	4	-1E+10	1	-1E+10	1	-1E+10	1	-1E+10	1	-1E+10	1	-1E+10	1
4902642	5	C	08/09/2024	03:27	-131.270	44.754	0	95.00	0	9.0830	0	32.5370	0	25.179	0	94.209	0	234.1	4	82.1	4	-1E+10	1	-1E+10	1	-1E+10	1	-1E+10	1	-1E+10	1	-1E+10	1
4902642	5	C	08/09/2024	03:27	-131.270	44.754	0	104.70	0	8.7200	0	32.5930	0	25.279	0	103.826	0	222.4	4	77.4	4	-1E+10	1	-1E+10	1	-1E+10	1	-1E+10	1	-1E+10	1	-1E+10	1
4902642	5	C	08/09/2024	03:27	-131.270	44.754	0	114.50	0	8.5880	0	32.7850	0	25.449	0	113.542	0	202.2	4	70.3	4	-1E+10	1	-1E+10	1	-1E+10	1	-1E+10	1	-1E+10	1	-1E+10	1
4902642	5	C	08/09/2024	03:27	-131.270	44.754	0	124.70	0	8.1740	0	33.0710	0	25.736	0	123.653	0	177.6	4	61.3	4	-1E+10	1	-1E+10	1	-1E+10	1	-1E+10	1	-1E+10	1	-1E+10	1
4902642	5	C	08/09/2024	03:27	-131.270	44.754	0	134.30	0	7.9210	0	33.3180	0	25.967	0	133.170	0	174.4	4	60.0	4	-1E+10	1	-1E+10	1	-1E+10	1	-1E+10	1	-1E+10	1	-1E+10	1
4902642	5	C	08/09/2024	03:27	-131.270	44.754	0	144.90	0	7.5490	0	33.4740	0	26.143	0	143.677	0	190.3	4	64.9	4	-1E+10	1	-1E+10	1	-1E+10	1	-1E+10	1	-1E+10	1	-1E+10	1
4902642	5	C	08/09/2024	03:27	-131.270	44.754	0	154.60	0	7.2460	0	33.5550	0	26.249	0	153.291	0	194.2	4	65.8	4	-1E+10	1	-1E+10	1	-1E+10	1	-1E+10	1	-1E+10	1	-1E+10	1
4902642	5	C	08/09/2024	03:27	-131.270	44.754	0	164.90	0	7.1170	0	33.6270	0	26.324	0	163.500	0	187.3	4	63.4	4	-1E+10	1	-1E+10	1	-1E+10	1	-1E+10	1	-1E+10	1	-1E+10	1
4902642	5	C	08/09/2024	03:27	-131.270	44.754	0	174.50	0	7.0150	0	33.6840	0	26.382	0	173.014	0	178.5	4	60.3	4	-1E+10	1	-1E+10	1	-1E+10	1	-1E+10	1	-1E+10	1	-1E+10	1
4902642	5	C	08/09/2024	03:27	-131.270	44.754	0	184.90	0	6.9220	0	33.7210	0	26.424	0	183.321	0	167.1	4	56.3	4	-1E+10	1	-1E+10	1	-1E+10	1	-1E+10	1	-1E+10	1	-1E+10	1
4902642	5	C	08/09/2024	03:27	-131.270	44.754	0	195.00	0	6.7570	0	33.7640	0	26.481	0	193.330	0	153.9	4	51.7	4	-1E+10	1	-1E+10	1	-1E+10	1	-1E+10	1	-1E+10	1	-1E+10	1
4902642	5	C	08/09/2024	03:27	-131.270	44.754	0	209.80	0	6.5870	0	33.7920	0	26.525	0	207.996	0	143.6	4	48.1	4	-1E+10	1	-1E+10	1	-1E+10	1	-1E+10	1	-1E+10	1	-1E+10	1
4902642	5	C	08/09/2024	03:27	-131.270	44.754	0	230.10	0	6.3800	0	33.8140	0	26.570	0	228.110	0	132.0	4	44.0	4	-1E+10	1	-1E+10	1	-1E+10	1	-1E+10	1	-1E+10	1	-1E+10	1
4902642	5	C	08/09/2024	03:27	-131.270	44.754	0	250.10	0	6.0920	0	33.8250	0	26.615	0	247.925	0	116.7	4	38.6	4	-1E+10	1	-1E+10	1	-1E+10	1	-1E+10	1	-1E+10	1	-1E+10	1
4902642	5	C	08/09/2024	03:27	-131.270	44.754	0	269.30	0	5.8560	0	33.8360	0	26.654	0	266.946	0	103.3	4	34.0	4	-1E+10	1	-1E+10	1	-1E+10	1	-1E+10	1	-1E+10	1	-1E+10	1
4902642	5	C	08/09/2024	03:27	-131.270	44.754	0	289.90	0	5.6430	0	33.8620	0	26.700	0	287.352	0	88.5	4	29.0	4	-1E+10	1	-1E+10	1	-1E+10	1	-1E+10	1	-1E+10	1	-1E+10	1
4902642	5	C	08/09/2024	03:27	-131.270	44.754	0	309.80	0	5.5720	0	33.8890	0	26.731	0	307.062	0	79.7	4	26.1	4	-1E+10	1	-1E+10	1	-1E+10	1	-1E+10	1	-1E+10	1	-1E+10	1
4902642	5	C	08/09/2024	03:27	-131.270	44.754	0	330.60	0	5.4870	0	33.9120	0	26.759	0	327.662	0	71.1	4	23.2	4	-1E+10	1	-1E+10	1	-1E+10	1	-1E+10	1	-1E+10	1	-1E+10	1
4902642	5	C	08/09/2024	03:27	-131.270	44.754	0	349.60	0	5.3850	0	33.9330	0	26.788	0	346.477	0	64.2	4	20.9	4	-1E+10	1	-1E+10	1	-1E+10	1	-1E+10	1	-1E+10	1	-1E+10	1
4902642	5	C	08/09/2024	03:27	-131.270	44.754	0	369.70	0	5.2390	0	33.9490	0	26.818	0	366.380	0	57.3	4	18.6	4	-1E+10	1	-1E+10	1	-1E+10	1	-1E+10	1	-1E+10	1	-1E+10	1
4902642	5	C	08/09/2024	03:27	-131.270	44.754	0	389.90	0	5.1050	0	33.9680	0	26.849	0	386.379	0	50.9	4	16.5	4	-1E+10	1	-1E+10	1	-1E+10	1	-1E+10	1	-1E+10	1	-1E+10	1
4902642	5	C	08/09/2024	03:27	-131.270	44.754	0	409.90	0	5.0360	0	33.9920	0	26.876	0	406.179	0	45.4	4	14.7	4	-1E+10	1	-1E+10	1	-1E+10	1	-1E+10	1	-1E+10	1	-1E+10	1
4902642	5	C	08/09/2024	03:27	-131.270	44.754	0	429.70	0	4.9830	0	34.0060	0	26.893	0	425.779	0	42.5	4	13.7	4	-1E+10	1	-1E+10	1	-1E+10	1	-1E+10	1	-1E+10	1	-1E+10	1
4902642	5	C	08/09/2024	03:27	-131.270	44.754	0	449.80	0	4.8700	0	34.0150	0	26.913	0	445.674	0	39.4	4	12.7	4	-1E+10	1	-1E+10	1	-1E+10	1	-1E+10	1	-1E+10	1	-1E+10	1
4902642	5	C	08/09/2024	03:27	-131.270	44.754	0	469.90	0	4.7330	0	34.0250	0	26.936	0	465.567	0	35.1	4	11.3	4	-1E+10	1	-1E+10	1	-1E+10	1	-1E+10	1	-1E+10	1	-1E+10	1
4902642	5	C	08/09/2024	03:27	-131.270	44.754	0	490.40	0	4.7280	0	34.0560	0	26.962	0	485.854	0	29.7	4	9.5	4	-1E+10	1	-1E+10	1	-1E+10	1	-1E+10	1	-1E+10	1	-1E+10	1
4902642	5	C	08/09/2024	03:27	-131.270	44.754	0	509.80	0	4.6450	0	34.0740	0	26.985	0	505.051	0	25.7	4	8.2	4	-1E+10	1	-1E+10	1	-1E+10	1	-1E+10	1	-1E+10	1	-1E+10	1
4902642	5	C	08/09/2024	03:27	-131.270	44.754	0	529.80	0	4.5850	0	34.0930	0	27.007	0	524.839	0	22.3	4	7.1	4	-1E+10	1	-1E+10	1	-1E+10	1	-1E+10	1	-1E+10	1	-1E+10	1
4902642	5	C	08/09/2024	03:27	-131.270	44.754	0	549.80	0	4.5750	0	34.1160	0	27.027	0	544.626	0	19.5	4	6.2	4	-1E+10	1	-1E+10	1	-1E+10	1	-1E+10	1	-1E+10	1	-1E+10	1
4902642	5	C	08/09/2024	03:27	-131.270	44.754	0	569.70	0	4.4920	0	34.1250	0	27.043	0	564.312	0	17.8	4	5.7	4	-1E+10	1	-1E+10	1	-1E+10	1	-1E+10	1	-1E+10	1	-1E+10	1
4902642	5	C	08/09/2024	03:27	-131.270	44.754	0	589.70	0	4.4520	0	34.1390	0	27.059	0	584.095	0	15.8	4	5.0	4	-1E+10	1	-1E+10	1	-1E+10	1	-1E+10	1	-1E+10	1	-1E+10	1
4902642	5	C	08/09/2024	03:27	-131.270	44.754	0	609.90	0	4.4250	0	34.1570	0	27.076	0	604.073	0	13.7	4	4.4	4	-1E+10	1	-1E+10	1	-1E+10	1	-1E+10	1	-1E+10	1	-1E+10	1
4902642	5	C	08/09/2024	03:27	-131.270	44.754	0	630.00	0	4.3470	0	34.1730	0	27.097	0	623.951	0	12.0	4	3.8	4	-1E+10	1	-1E+10	1	-1E+10	1	-1E+10	1	-1E+10	1	-1E+10	1
4902642	5	C	08/09/2024	03:27	-131.270	44.754	0	650.00	0	4.3140	0	34.1910	0	27.115	0	643.728	0	10.5	4	3.3	4	-1E+10	1	-1E+10	1	-1E+10	1	-1E+10	1	-1E+10	1	-1E+10	1
4902642	5	C	08/09/2024	03:27	-131.270	44.754	0	670.00	0	4.2790	0	34.2060	0	27.131	0	663.503	0	9.4	4	3.0	4	-1E+10	1	-1E+10	1	-1E+10	1	-1E+10	1	-1E+10	1	-1E+10	1
4902642	5	C	08/09/2024	03:27	-131.270	44.754	0	690.60	0	4.2560	0	34.2190	0	27.144	0	683.870	0	8.4	4	2.7	4	-1E+10	1	-1E+10	1	-1E+10	1	-1E+10	1	-1E+10	1	-1E+10	1
4902642	5	C	08/09/2024	03:27	-131.270	44.754	0	709.60	0	4.2470	0	34.2380	0	27.160	0	702.653	0	7.6	4	2.4	4	-1E+10	1	-1E+10	1	-1E+10	1	-1E+10	1	-1E+10	1	-1E+10	1
4902642	5	C	08/09/2024	03:27	-131.270	44.754	0	729.50	0	4.1980	0	34.2510	0	27.176	0	722.323	0	6.9	4	2.2	4	-1E+10	1	-1E+10	1	-1E+10	1	-1E+10	1	-1E+10	1	-1E+10	1
4902642	5	C	08/09/2024	03:27	-131.270	44.754	0	749.50	0	4.1330	0	34.2660	0	27.194	0	742.091	0	6.5	4	2.0	4	-1E+10	1	-1E+10	1	-1E+10	1	-1E+10	1	-1E+10	1	-1E+10	1
4902642	5	C	08/09/2024	03:27	-131.270	44.754	0	769.70	0	4.0790	0	34.2750	0	27.207	0	762.055	0	6.2	4	2.0	4	-1E+10	1	-1E+10	1	-1E+10	1	-1E+10	1	-1E+10	1	-1E+10	1
4902642	5	C	08/09/2024	03:27	-131.270	44.754	0	789.20	0	4.0160	0	34.2820	0	27.219	0	781.324	0	6.1	4	1.9	4	-1E+10	1	-1E+10	1	-1E+10	1	-1E+10	1	-1E+10	1	-1E+10	1
4902642	5	C	08/09/2024	03:27	-131.270	44.754	0	809.80	0	3.9760	0	34.2890	0	27.229	0	801.679	0	5.9	4	1.9	4	-1E+10	1	-1E+10	1	-1E+10	1	-1E+10	1	-1E+10	1	-1E+10	1
4902642	5	C	08/09/2024	03:27	-131.270	44.754	0	830.00	0	3.9410	0	34.2970	0	27.239	0	821.637	0	5.7	4	1.8	4	-1E+10	1	-1E+10	1	-1E+10	1	-1E+10	1	-1E+10	1	-1E+10	1
4902642	5	C	08/09/2024	03:27	-131.270	44.754	0	850.00	0	3.9010	0	34.3110	0	27.255	0	841.395	0	5.5	4	1.7	4	-1E+10	1	-1E+10	1	-1E+10	1	-1E+10	1	-1E+10	1	-1E+10	1
4902642	5	C	08/09/2024	03:27	-131.270	44.754	0	870.00	0	3.8530	0	34.3220	0	27.268	0	861.152	0	5.4	4	1.7	4	-1E+10	1	-1E+10	1	-1E+10	1	-1E+10	1	-1E+10	1	-1E+10	1
4902642	5	C	08/09/2024	03:27	-131.270	44.754	0	890.00	0	3.7840	0	34.3340	0	27.285	0	880.906	0	5.3	4	1.7	4	-1E+10	1	-1E+10	1	-1E+10	1	-1E+10	1	-1E+10	1	-1E+10	1
4902642	5	C	08/09/2024	03:27	-131.270	44.754	0	909.90	0	3.7420	0	34.3420	0	27.296	0	900.560	0	5.4	4	1.7	4	-1E+10	1	-1E+10	1	-1E+10	1	-1E+10	1	-1E+10	1	-1E+10	1
4902642	5	C	08/09/2024	03:27	-131.270	44.754	0	929.90	0	3.6880	0	34.3510	0	27.308	0	920.311	0	5.5	4	1.7	4	-1E+10	1	-1E+10	1	-1E+10	1	-1E+10	1	-1E+10	1	-1E+10	1
4902642	5	C	08/09/2024	03:27	-131.270	44.754	0	949.80	0	3.6510	0	34.3620	0	27.321	0	939.961	0	5.6	4	1.8	4	-1E+10	1	-1E+10	1	-1E+10	1	-1E+10	1	-1E+10	1	-1E+10	1
4902642	5	C	08/09/2024	03:27	-131.270	44.754	0	969.80	0	3.6170	0	34.3710	0	27.331	0	959.708	0	5.9	4	1.8	4	-1E+10	1	-1E+10	1	-1E+10	1	-1E+10	1	-1E+10	1	-1E+10	1
4902642	5	C	08/09/2024	03:27	-131.270	44.754	0	989.60	0	3.5660	0	34.3810	0	27.344	0	979.256	0	6.1	4	1.9	4	-1E+10	1	-1E+10	1	-1E+10	1	-1E+10	1	-1E+10	1	-1E+10	1
4902642	5	C	08/09/2024	03:27	-131.270	44.754	0	1010.30	0	3.4980	0	34.3920	0	27.360	0	999.690	0	6.5	4	2.0	4	-1E+10	1	-1E+10	1	-1E+10	1	-1E+10	1	-1E+10	1	-1E+10	1
4902642	5	C	08/09/2024	03:27	-131.270	44.754	0	1030.00	0	3.4510	0	34.4020	0	27.373	0	1019.135	0	6.9	4	2.2	4	-1E+10	1	-1E+10	1	-1E+10	1	-1E+10	1	-1E+10	1	-1E+10	1
4902642	5	C	08/09/2024	03:27	-131.270	44.754	0	1049.60	0	3.4070	0	34.4090	0	27.382	0	1038.480	0	7.4	4	2.3	4	-1E+10	1	-1E+10	1	-1E+10	1	-1E+10	1	-1E+10	1	-1E+10	1
4902642	5	C	08/09/2024	03:27	-131.270	44.754	0	1069.70	0	3.3670	0	34.4170	0	27.393	0	1058.316	0	7.9	4	2.5	4	-1E+10	1	-1E+10	1	-1E+10	1	-1E+10	1	-1E+10	1	-1E+10	1
4902642	5	C	08/09/2024	03:27	-131.270	44.754	0	1090.10	0	3.3230	0	34.4230	0	27.402	0	1078.447	0	8.4	4	2.6	4	-1E+10	1	-1E+10	1	-1E+10	1	-1E+10	1	-1E+10	1	-1E+10	1
4902642	5	C	08/09/2024	03:27	-131.270	44.754	0	1109.80	0	3.2870	0	34.4300	0	27.411	0	1097.885	0	8.9	4	2.8	4	-1E+10	1	-1E+10	1	-1E+10	1	-1E+10	1	-1E+10	1	-1E+10	1
4902642	5	C	08/09/2024	03:27	-131.270	44.754	0	1130.00	0	3.2600	0	34.4340	0	27.417	0	1117.814	0	9.4	4	2.9	4	-1E+10	1	-1E+10	1	-1E+10	1	-1E+10	1	-1E+10	1	-1E+10	1
4902642	5	C	08/09/2024	03:27	-131.270	44.754	0	1150.00	0	3.2190	0	34.4400	0	27.425	0	1137.544	0	9.9	4	3.1	4	-1E+10	1	-1E+10	1	-1E+10	1	-1E+10	1	-1E+10	1	-1E+10	1
4902642	5	C	08/09/2024	03:27	-131.270	44.754	0	1169.70	0	3.1680	0	34.4440	0	27.433	0	1156.977	0	10.3	4	3.2	4	-1E+10	1	-1E+10	1	-1E+10	1	-1E+10	1	-1E+10	1	-1E+10	1
4902642	5	C	08/09/2024	03:27	-131.270	44.754	0	1189.50	0	3.1210	0	34.4500	0	27.443	0	1176.506	0	10.8	4	3.4	4	-1E+10	1	-1E+10	1	-1E+10	1	-1E+10	1	-1E+10	1	-1E+10	1
4902642	5	C	08/09/2024	03:27	-131.270	44.754	0	1209.50	0	3.0720	0	34.4540	0	27.450	0	1196.231	0	11.4	4	3.5	4	-1E+10	1	-1E+10	1	-1E+10	1	-1E+10	1	-1E+10	1	-1E+10	1
4902642	5	C	08/09/2024	03:27	-131.270	44.754	0	1229.70	0	3.0120	0	34.4610	0	27.462	0	1216.151	0	12.2	4	3.8	4	-1E+10	1	-1E+10	1	-1E+10	1	-1E+10	1	-1E+10	1	-1E+10	1
4902642	5	C	08/09/2024	03:27	-131.270	44.754	0	1249.60	0	2.9750	0	34.4660	0	27.469	0	1235.773	0	12.8	4	4.0	4	-1E+10	1	-1E+10	1	-1E+10	1	-1E+10	1	-1E+10	1	-1E+10	1
4902642	5	C	08/09/2024	03:27	-131.270	44.754	0	1269.70	0	2.9210	0	34.4690	0	27.476	0	1255.591	0	13.4	4	4.1	4	-1E+10	1	-1E+10	1	-1E+10	1	-1E+10	1	-1E+10	1	-1E+10	1
4902642	5	C	08/09/2024	03:27	-131.270	44.754	0	1289.80	0	2.8760	0	34.4730	0	27.484	0	1275.406	0	14.1	4	4.3	4	-1E+10	1	-1E+10	1	-1E+10	1	-1E+10	1	-1E+10	1	-1E+10	1
4902642	5	C	08/09/2024	03:27	-131.270	44.754	0	1309.50	0	2.8330	0	34.4790	0	27.492	0	1294.826	0	14.8	4	4.5	4	-1E+10	1	-1E+10	1	-1E+10	1	-1E+10	1	-1E+10	1	-1E+10	1
4902642	5	C	08/09/2024	03:27	-131.270	44.754	0	1330.40	0	2.7910	0	34.4800	0	27.497	0	1315.427	0	15.3	4	4.7	4	-1E+10	1	-1E+10	1	-1E+10	1	-1E+10	1	-1E+10	1	-1E+10	1
4902642	5	C	08/09/2024	03:27	-131.270	44.754	0	1349.90	0	2.7470	0	34.4850	0	27.505	0	1334.645	0	16.3	4	5.0	4	-1E+10	1	-1E+10	1	-1E+10	1	-1E+10	1	-1E+10	1	-1E+10	1
4902642	5	C	08/09/2024	03:27	-131.270	44.754	0	1369.60	0	2.7120	0	34.4900	0	27.512	0	1354.060	0	17.1	4	5.2	4	-1E+10	1	-1E+10	1	-1E+10	1	-1E+10	1	-1E+10	1	-1E+10	1
4902642	5	C	08/09/2024	03:27	-131.270	44.754	0	1389.80	0	2.6720	0	34.4950	0	27.520	0	1373.965	0	18.1	4	5.5	4	-1E+10	1	-1E+10	1	-1E+10	1	-1E+10	1	-1E+10	1	-1E+10	1
4902642	5	C	08/09/2024	03:27	-131.270	44.754	0	1409.70	0	2.6430	0	34.4990	0	27.525	0	1393.572	0	18.9	4	5.8	4	-1E+10	1	-1E+10	1	-1E+10	1	-1E+10	1	-1E+10	1	-1E+10	1
4902642	5	C	08/09/2024	03:27	-131.270	44.754	0	1429.40	0	2.6010	0	34.5020	0	27.531	0	1412.981	0	20.0	4	6.1	4	-1E+10	1	-1E+10	1	-1E+10	1	-1E+10	1	-1E+10	1	-1E+10	1
4902642	5	C	08/09/2024	03:27	-131.270	44.754	0	1449.60	0	2.5580	0	34.5090	0	27.541	0	1432.880	0	21.5	4	6.6	4	-1E+10	1	-1E+10	1	-1E+10	1	-1E+10	1	-1E+10	1	-1E+10	1
4902642	5	C	08/09/2024	03:27	-131.270	44.754	0	1469.50	0	2.5160	0	34.5140	0	27.548	0	1452.482	0	22.7	4	6.9	4	-1E+10	1	-1E+10	1	-1E+10	1	-1E+10	1	-1E+10	1	-1E+10	1
4902642	5	C	08/09/2024	03:27	-131.270	44.754	0	1490.50	0	2.4810	0	34.5180	0	27.555	0	1473.166	0	23.9	4	7.3	4	-1E+10	1	-1E+10	1	-1E+10	1	-1E+10	1	-1E+10	1	-1E+10	1
4902642	5	C	08/09/2024	03:27	-131.270	44.754	0	1510.00	0	2.4660	0	34.5220	0	27.559	0	1492.370	0	24.9	4	7.6	4	-1E+10	1	-1E+10	1	-1E+10	1	-1E+10	1	-1E+10	1	-1E+10	1
4902642	5	C	08/09/2024	03:27	-131.270	44.754	0	1530.00	0	2.4410	0	34.5240	0	27.563	0	1512.065	0	26.0	4	7.9	4	-1E+10	1	-1E+10	1	-1E+10	1	-1E+10	1	-1E+10	1	-1E+10	1
4902642	5	C	08/09/2024	03:27	-131.270	44.754	0	1550.00	0	2.4280	0	34.5310	0	27.570	0	1531.759	0	27.5	4	8.4	4	-1E+10	1	-1E+10	1	-1E+10	1	-1E+10	1	-1E+10	1	-1E+10	1
4902642	5	C	08/09/2024	03:27	-131.270	44.754	0	1569.70	0	2.3930	0	34.5350	0	27.576	0	1551.155	0	28.8	4	8.8	4	-1E+10	1	-1E+10	1	-1E+10	1	-1E+10	1	-1E+10	1	-1E+10	1
4902642	5	C	08/09/2024	03:27	-131.270	44.754	0	1589.60	0	2.3580	0	34.5390	0	27.582	0	1570.746	0	29.8	4	9.1	4	-1E+10	1	-1E+10	1	-1E+10	1	-1E+10	1	-1E+10	1	-1E+10	1
4902642	5	C	08/09/2024	03:27	-131.270	44.754	0	1610.30	0	2.3330	0	34.5420	0	27.587	0	1591.122	0	30.9	4	9.4	4	-1E+10	1	-1E+10	1	-1E+10	1	-1E+10	1	-1E+10	1	-1E+10	1
4902642	5	C	08/09/2024	03:27	-131.270	44.754	0	1629.60	0	2.3040	0	34.5450	0	27.592	0	1610.119	0	31.8	4	9.7	4	-1E+10	1	-1E+10	1	-1E+10	1	-1E+10	1	-1E+10	1	-1E+10	1
4902642	5	C	08/09/2024	03:27	-131.270	44.754	0	1649.70	0	2.2870	0	34.5470	0	27.595	0	1629.902	0	32.8	4	9.9	4	-1E+10	1	-1E+10	1	-1E+10	1	-1E+10	1	-1E+10	1	-1E+10	1
4902642	5	C	08/09/2024	03:27	-131.270	44.754	0	1670.00	0	2.2580	0	34.5510	0	27.600	0	1649.879	0	34.0	4	10.3	4	-1E+10	1	-1E+10	1	-1E+10	1	-1E+10	1	-1E+10	1	-1E+10	1
4902642	5	C	08/09/2024	03:27	-131.270	44.754	0	1690.00	0	2.2360	0	34.5530	0	27.604	0	1669.559	0	35.1	4	10.6	4	-1E+10	1	-1E+10	1	-1E+10	1	-1E+10	1	-1E+10	1	-1E+10	1
4902642	5	C	08/09/2024	03:27	-131.270	44.754	0	1709.90	0	2.2100	0	34.5560	0	27.608	0	1689.140	0	36.2	4	11.0	4	-1E+10	1	-1E+10	1	-1E+10	1	-1E+10	1	-1E+10	1	-1E+10	1
4902642	5	C	08/09/2024	03:27	-131.270	44.754	0	1730.20	0	2.1840	0	34.5600	0	27.614	0	1709.111	0	37.4	4	11.3	4	-1E+10	1	-1E+10	1	-1E+10	1	-1E+10	1	-1E+10	1	-1E+10	1
4902642	5	C	08/09/2024	03:27	-131.270	44.754	0	1749.40	0	2.1630	0	34.5620	0	27.617	0	1727.999	0	38.3	4	11.6	4	-1E+10	1	-1E+10	1	-1E+10	1	-1E+10	1	-1E+10	1	-1E+10	1
4902642	5	C	08/09/2024	03:27	-131.270	44.754	0	1769.40	0	2.1490	0	34.5640	0	27.620	0	1747.672	0	39.1	4	11.8	4	-1E+10	1	-1E+10	1	-1E+10	1	-1E+10	1	-1E+10	1	-1E+10	1
4902642	5	C	08/09/2024	03:27	-131.270	44.754	0	1789.40	0	2.1310	0	34.5670	0	27.624	0	1767.343	0	40.1	4	12.1	4	-1E+10	1	-1E+10	1	-1E+10	1	-1E+10	1	-1E+10	1	-1E+10	1
4902642	5	C	08/09/2024	03:27	-131.270	44.754	0	1809.50	0	2.1130	0	34.5690	0	27.627	0	1787.111	0	41.1	4	12.4	4	-1E+10	1	-1E+10	1	-1E+10	1	-1E+10	1	-1E+10	1	-1E+10	1
4902642	5	C	08/09/2024	03:27	-131.270	44.754	0	1829.90	0	2.0960	0	34.5710	0	27.630	0	1807.172	0	42.2	4	12.7	4	-1E+10	1	-1E+10	1	-1E+10	1	-1E+10	1	-1E+10	1	-1E+10	1
4902642	5	C	08/09/2024	03:27	-131.270	44.754	0	1849.10	0	2.0730	0	34.5740	0	27.634	0	1826.051	0	43.6	4	13.2	4	-1E+10	1	-1E+10	1	-1E+10	1	-1E+10	1	-1E+10	1	-1E+10	1
4902642	5	C	08/09/2024	03:27	-131.270	44.754	0	1870.10	0	2.0470	0	34.5780	0	27.640	0	1846.698	0	45.0	4	13.6	4	-1E+10	1	-1E+10	1	-1E+10	1	-1E+10	1	-1E+10	1	-1E+10	1
4902642	5	C	08/09/2024	03:27	-131.270	44.754	0	1890.00	0	2.0270	0	34.5810	0	27.644	0	1866.262	0	46.1	4	13.9	4	-1E+10	1	-1E+10	1	-1E+10	1	-1E+10	1	-1E+10	1	-1E+10	1
4902642	5	C	08/09/2024	03:27	-131.270	44.754	0	1909.90	0	2.0140	0	34.5830	0	27.647	0	1885.824	0	47.0	4	14.2	4	-1E+10	1	-1E+10	1	-1E+10	1	-1E+10	1	-1E+10	1	-1E+10	1
4902642	5	C	08/09/2024	03:27	-131.270	44.754	0	1930.00	0	1.9980	0	34.5860	0	27.650	0	1905.581	0	48.2	4	14.5	4	-1E+10	1	-1E+10	1	-1E+10	1	-1E+10	1	-1E+10	1	-1E+10	1
4902642	5	C	08/09/2024	03:27	-131.270	44.754	0	1949.80	0	1.9860	0	34.5880	0	27.653	0	1925.041	0	49.0	4	14.8	4	-1E+10	1	-1E+10	1	-1E+10	1	-1E+10	1	-1E+10	1	-1E+10	1
4902642	5	C	08/09/2024	03:27	-131.270	44.754	0	1969.50	0	1.9740	0	34.5900	0	27.656	0	1944.401	0	50.0	4	15.1	4	-1E+10	1	-1E+10	1	-1E+10	1	-1E+10	1	-1E+10	1	-1E+10	1
4902642	5	C	08/09/2024	03:27	-131.270	44.754	0	1989.70	0	1.9630	0	34.5920	0	27.658	0	1964.250	0	50.9	4	15.3	4	-1E+10	1	-1E+10	1	-1E+10	1	-1E+10	1	-1E+10	1	-1E+10	1
4902642	5	C	08/09/2024	03:27	-131.270	44.754	0	2010.00	0	1.9510	0	34.5940	4	27.661	0	1984.196	0	51.9	4	15.6	4	-1E+10	1	-1E+10	1	-1E+10	1	-1E+10	1	-1E+10	1	-1E+10	1
4902642	5	C	08/09/2024	03:27	-131.270	44.754	0	2029.70	0	1.9400	0	34.5960	4	27.663	0	2003.551	0	53.0	4	16.0	4	-1E+10	1	-1E+10	1	-1E+10	1	-1E+10	1	-1E+10	1	-1E+10	1
4902642	5	C	08/09/2024	03:27	-131.270	44.754	0	2049.50	0	1.9340	0	34.5980	4	27.666	0	2023.002	0	53.8	4	16.2	4	-1E+10	1	-1E+10	1	-1E+10	1	-1E+10	1	-1E+10	1	-1E+10	1
4902642	5	C	08/09/2024	03:27	-131.270	44.754	0	2069.50	0	1.9210	0	34.6000	4	27.668	0	2042.647	0	54.9	4	16.5	4	-1E+10	1	-1E+10	1	-1E+10	1	-1E+10	1	-1E+10	1	-1E+10	1
4902642	5	C	08/09/2024	03:27	-131.270	44.754	0	2089.70	0	1.9100	0	34.6020	4	27.671	0	2062.488	0	55.7	4	16.8	4	-1E+10	1	-1E+10	1	-1E+10	1	-1E+10	1	-1E+10	1	-1E+10	1
4902642	5	C	08/09/2024	03:27	-131.270	44.754	0	2110.00	0	1.8990	0	34.6040	4	27.673	0	2082.424	0	56.7	4	17.0	4	-1E+10	1	-1E+10	1	-1E+10	1	-1E+10	1	-1E+10	1	-1E+10	1
4902642	5	C	08/09/2024	03:27	-131.270	44.754	0	2130.00	0	1.8910	0	34.6060	4	27.676	0	2102.065	0	57.4	4	17.3	4	-1E+10	1	-1E+10	1	-1E+10	1	-1E+10	1	-1E+10	1	-1E+10	1
4902642	5	C	08/09/2024	03:27	-131.270	44.754	0	2150.70	0	1.8850	0	34.6070	4	27.677	0	2122.390	0	58.0	4	17.4	4	-1E+10	1	-1E+10	1	-1E+10	1	-1E+10	1	-1E+10	1	-1E+10	1
4902642	5	C	08/09/2024	03:27	-131.270	44.754	0	2169.60	0	1.8780	0	34.6090	4	27.679	0	2140.947	0	58.5	4	17.6	4	-1E+10	1	-1E+10	1	-1E+10	1	-1E+10	1	-1E+10	1	-1E+10	1
4902642	5	C	08/09/2024	03:27	-131.270	44.754	0	2189.50	0	1.8730	0	34.6100	4	27.681	0	2160.484	0	59.0	4	17.7	4	-1E+10	1	-1E+10	1	-1E+10	1	-1E+10	1	-1E+10	1	-1E+10	1
4902642	5	C	08/09/2024	03:27	-131.270	44.754	0	2210.30	0	1.8670	0	34.6110	4	27.682	0	2180.902	0	59.6	4	17.9	4	-1E+10	1	-1E+10	1	-1E+10	1	-1E+10	1	-1E+10	1	-1E+10	1
4902642	5	C	08/09/2024	03:27	-131.270	44.754	0	2230.00	0	1.8610	0	34.6120	4	27.683	0	2200.239	0	60.1	4	18.1	4	-1E+10	1	-1E+10	1	-1E+10	1	-1E+10	1	-1E+10	1	-1E+10	1
4902642	5	C	08/09/2024	03:27	-131.270	44.754	0	2250.00	0	1.8560	0	34.6130	4	27.685	0	2219.868	0	60.5	4	18.2	4	-1E+10	1	-1E+10	1	-1E+10	1	-1E+10	1	-1E+10	1	-1E+10	1
4902642	5	C	08/09/2024	03:27	-131.270	44.754	0	2270.00	0	1.8510	0	34.6140	4	27.686	0	2239.496	0	61.0	4	18.3	4	-1E+10	1	-1E+10	1	-1E+10	1	-1E+10	1	-1E+10	1	-1E+10	1
4902642	5	C	08/09/2024	03:27	-131.270	44.754	0	2289.80	0	1.8470	0	34.6150	4	27.687	0	2258.926	0	61.6	4	18.5	4	-1E+10	1	-1E+10	1	-1E+10	1	-1E+10	1	-1E+10	1	-1E+10	1
4902642	5	C	08/09/2024	03:27	-131.270	44.754	0	2309.80	0	1.8410	0	34.6160	4	27.689	0	2278.550	0	62.3	4	18.7	4	-1E+10	1	-1E+10	1	-1E+10	1	-1E+10	1	-1E+10	1	-1E+10	1
4902642	5	C	08/09/2024	03:27	-131.270	44.754	0	2329.70	0	1.8370	0	34.6170	4	27.690	0	2298.074	0	62.7	4	18.8	4	-1E+10	1	-1E+10	1	-1E+10	1	-1E+10	1	-1E+10	1	-1E+10	1
4902642	5	C	08/09/2024	03:27	-131.270	44.754	0	2349.50	0	1.8320	0	34.6180	4	27.691	0	2317.498	0	63.2	4	19.0	4	-1E+10	1	-1E+10	1	-1E+10	1	-1E+10	1	-1E+10	1	-1E+10	1
4902642	5	C	08/09/2024	03:27	-131.270	44.754	0	2370.30	0	1.8290	0	34.6180	4	27.692	0	2337.901	0	63.6	4	19.1	4	-1E+10	1	-1E+10	1	-1E+10	1	-1E+10	1	-1E+10	1	-1E+10	1
4902642	5	C	08/09/2024	03:27	-131.270	44.754	0	2389.80	0	1.8260	0	34.6190	4	27.693	0	2357.028	0	64.0	4	19.2	4	-1E+10	1	-1E+10	1	-1E+10	1	-1E+10	1	-1E+10	1	-1E+10	1
4902642	5	C	08/09/2024	03:27	-131.270	44.754	0	2409.70	0	1.8240	0	34.6200	4	27.694	0	2376.545	0	64.3	4	19.3	4	-1E+10	1	-1E+10	1	-1E+10	1	-1E+10	1	-1E+10	1	-1E+10	1
4902642	5	C	08/09/2024	03:27	-131.270	44.754	0	2429.70	0	1.8200	0	34.6200	4	27.694	0	2396.158	0	64.9	4	19.5	4	-1E+10	1	-1E+10	1	-1E+10	1	-1E+10	1	-1E+10	1	-1E+10	1
4902642	5	C	08/09/2024	03:27	-131.270	44.754	0	2449.80	0	1.8140	0	34.6210	4	27.696	0	2415.867	0	65.5	4	19.7	4	-1E+10	1	-1E+10	1	-1E+10	1	-1E+10	1	-1E+10	1	-1E+10	1
4902642	5	C	08/09/2024	03:27	-131.270	44.754	0	2469.60	0	1.8100	0	34.6220	4	27.697	0	2435.281	0	66.0	4	19.8	4	-1E+10	1	-1E+10	1	-1E+10	1	-1E+10	1	-1E+10	1	-1E+10	1
4902642	5	C	08/09/2024	03:27	-131.270	44.754	0	2489.60	0	1.8050	0	34.6230	4	27.698	0	2454.889	0	66.8	4	20.0	4	-1E+10	1	-1E+10	1	-1E+10	1	-1E+10	1	-1E+10	1	-1E+10	1
4902642	5	C	08/09/2024	03:27	-131.270	44.754	0	2509.80	0	1.7960	0	34.6240	4	27.700	0	2474.691	0	67.5	4	20.3	4	-1E+10	1	-1E+10	1	-1E+10	1	-1E+10	1	-1E+10	1	-1E+10	1
4902642	5	C	08/09/2024	03:27	-131.270	44.754	0	2529.80	0	1.7910	0	34.6250	4	27.701	0	2494.295	0	68.2	4	20.5	4	-1E+10	1	-1E+10	1	-1E+10	1	-1E+10	1	-1E+10	1	-1E+10	1
4902642	5	C	08/09/2024	03:27	-131.270	44.754	0	2549.80	0	1.7850	0	34.6260	4	27.702	0	2513.898	0	68.8	4	20.6	4	-1E+10	1	-1E+10	1	-1E+10	1	-1E+10	1	-1E+10	1	-1E+10	1
4902642	5	C	08/09/2024	03:27	-131.270	44.754	0	2569.80	0	1.7810	0	34.6270	4	27.704	0	2533.499	0	69.5	4	20.8	4	-1E+10	1	-1E+10	1	-1E+10	1	-1E+10	1	-1E+10	1	-1E+10	1
4902642	5	C	08/09/2024	03:27	-131.270	44.754	0	2589.60	0	1.7740	0	34.6280	4	27.705	0	2552.902	0	70.3	4	21.1	4	-1E+10	1	-1E+10	1	-1E+10	1	-1E+10	1	-1E+10	1	-1E+10	1
4902642	5	C	08/09/2024	03:27	-131.270	44.754	0	2609.70	0	1.7670	0	34.6290	4	27.707	0	2572.597	0	71.1	4	21.3	4	-1E+10	1	-1E+10	1	-1E+10	1	-1E+10	1	-1E+10	1	-1E+10	1
4902642	5	C	08/09/2024	03:27	-131.270	44.754	0	2630.00	0	1.7610	0	34.6300	4	27.708	0	2592.486	0	71.7	4	21.5	4	-1E+10	1	-1E+10	1	-1E+10	1	-1E+10	1	-1E+10	1	-1E+10	1
4902642	5	C	08/09/2024	03:27	-131.270	44.754	0	2649.10	0	1.7570	0	34.6310	4	27.709	0	2611.198	0	72.5	4	21.7	4	-1E+10	1	-1E+10	1	-1E+10	1	-1E+10	1	-1E+10	1	-1E+10	1
4902642	5	C	08/09/2024	03:27	-131.270	44.754	0	2670.00	0	1.7470	0	34.6320	4	27.711	0	2631.671	0	73.4	4	22.0	4	-1E+10	1	-1E+10	1	-1E+10	1	-1E+10	1	-1E+10	1	-1E+10	1
4902642	5	C	08/09/2024	03:27	-131.270	44.754	0	2690.00	0	1.7390	0	34.6330	4	27.712	0	2651.261	0	74.3	4	22.3	4	-1E+10	1	-1E+10	1	-1E+10	1	-1E+10	1	-1E+10	1	-1E+10	1
4902642	5	C	08/09/2024	03:27	-131.270	44.754	0	2710.00	0	1.7330	0	34.6340	4	27.714	0	2670.849	0	75.1	4	22.5	4	-1E+10	1	-1E+10	1	-1E+10	1	-1E+10	1	-1E+10	1	-1E+10	1
4902642	5	C	08/09/2024	03:27	-131.270	44.754	0	2729.80	0	1.7240	0	34.6350	4	27.715	0	2690.240	0	76.2	4	22.8	4	-1E+10	1	-1E+10	1	-1E+10	1	-1E+10	1	-1E+10	1	-1E+10	1
4902642	5	C	08/09/2024	03:27	-131.270	44.754	0	2749.70	0	1.7140	0	34.6370	4	27.718	0	2709.727	0	77.3	4	23.1	4	-1E+10	1	-1E+10	1	-1E+10	1	-1E+10	1	-1E+10	1	-1E+10	1
4902642	5	C	08/09/2024	03:27	-131.270	44.754	0	2770.40	0	1.7010	0	34.6380	4	27.720	0	2729.995	0	78.4	4	23.5	4	-1E+10	1	-1E+10	1	-1E+10	1	-1E+10	1	-1E+10	1	-1E+10	1
4902642	5	C	08/09/2024	03:27	-131.270	44.754	0	2789.80	0	1.6930	0	34.6400	4	27.722	0	2748.989	0	79.2	4	23.7	4	-1E+10	1	-1E+10	1	-1E+10	1	-1E+10	1	-1E+10	1	-1E+10	1
4902642	5	C	08/09/2024	03:27	-131.270	44.754	0	2810.00	0	1.6880	0	34.6400	4	27.722	0	2768.764	0	79.9	4	23.9	4	-1E+10	1	-1E+10	1	-1E+10	1	-1E+10	1	-1E+10	1	-1E+10	1
4902642	5	C	08/09/2024	03:27	-131.270	44.754	0	2830.20	0	1.6790	0	34.6420	4	27.725	0	2788.537	0	81.0	4	24.2	4	-1E+10	1	-1E+10	1	-1E+10	1	-1E+10	1	-1E+10	1	-1E+10	1
4902642	5	C	08/09/2024	03:27	-131.270	44.754	0	2850.10	0	1.6710	0	34.6430	4	27.726	0	2808.015	0	81.8	4	24.5	4	-1E+10	1	-1E+10	1	-1E+10	1	-1E+10	1	-1E+10	1	-1E+10	1
4902642	5	C	08/09/2024	03:27	-131.270	44.754	0	2870.30	0	1.6660	0	34.6440	4	27.728	0	2827.785	0	82.6	4	24.7	4	-1E+10	1	-1E+10	1	-1E+10	1	-1E+10	1	-1E+10	1	-1E+10	1
4902642	5	C	08/09/2024	03:27	-131.270	44.754	0	2889.90	0	1.6590	0	34.6450	4	27.729	0	2846.966	0	83.5	4	25.0	4	-1E+10	1	-1E+10	1	-1E+10	1	-1E+10	1	-1E+10	1	-1E+10	1
4902642	5	C	08/09/2024	03:27	-131.270	44.754	0	2910.00	0	1.6530	0	34.6460	4	27.730	0	2866.634	0	84.2	4	25.2	4	-1E+10	1	-1E+10	1	-1E+10	1	-1E+10	1	-1E+10	1	-1E+10	1
4902642	5	C	08/09/2024	03:27	-131.270	44.754	0	2930.00	0	1.6470	0	34.6470	4	27.732	0	2886.203	0	85.0	4	25.4	4	-1E+10	1	-1E+10	1	-1E+10	1	-1E+10	1	-1E+10	1	-1E+10	1
4902642	5	C	08/09/2024	03:27	-131.270	44.754	0	2950.10	0	1.6420	0	34.6480	4	27.733	0	2905.868	0	85.9	4	25.7	4	-1E+10	1	-1E+10	1	-1E+10	1	-1E+10	1	-1E+10	1	-1E+10	1
4902642	5	C	08/09/2024	03:27	-131.270	44.754	0	2970.10	0	1.6300	0	34.6490	4	27.735	0	2925.433	0	87.2	4	26.1	4	-1E+10	1	-1E+10	1	-1E+10	1	-1E+10	1	-1E+10	1	-1E+10	1
4902642	5	C	08/09/2024	03:27	-131.270	44.754	0	2990.50	0	1.6190	0	34.6500	4	27.736	0	2945.387	0	88.3	4	26.4	4	-1E+10	1	-1E+10	1	-1E+10	1	-1E+10	1	-1E+10	1	-1E+10	1
4902642	5	C	08/09/2024	03:27	-131.270	44.754	0	3009.70	0	1.6110	0	34.6510	4	27.738	0	2964.166	0	89.1	4	26.6	4	-1E+10	1	-1E+10	1	-1E+10	1	-1E+10	1	-1E+10	1	-1E+10	1
4902642	5	C	08/09/2024	03:27	-131.270	44.754	0	3029.70	0	1.6070	0	34.6520	4	27.739	0	2983.726	0	89.9	4	26.9	4	-1E+10	1	-1E+10	1	-1E+10	1	-1E+10	1	-1E+10	1	-1E+10	1
4902642	5	C	08/09/2024	03:27	-131.270	44.754	0	3049.90	0	1.6010	0	34.6530	4	27.741	0	3003.480	0	90.6	4	27.1	4	-1E+10	1	-1E+10	1	-1E+10	1	-1E+10	1	-1E+10	1	-1E+10	1
4902642	5	C	08/09/2024	03:27	-131.270	44.754	0	3069.90	0	1.5980	0	34.6530	4	27.741	0	3023.036	0	91.1	4	27.2	4	-1E+10	1	-1E+10	1	-1E+10	1	-1E+10	1	-1E+10	1	-1E+10	1
4902642	5	C	08/09/2024	03:27	-131.270	44.754	0	3089.70	0	1.5930	0	34.6540	4	27.742	0	3042.396	0	91.9	4	27.4	4	-1E+10	1	-1E+10	1	-1E+10	1	-1E+10	1	-1E+10	1	-1E+10	1
4902642	5	C	08/09/2024	03:27	-131.270	44.754	0	3110.10	0	1.5880	0	34.6550	4	27.743	0	3062.340	0	92.6	4	27.7	4	-1E+10	1	-1E+10	1	-1E+10	1	-1E+10	1	-1E+10	1	-1E+10	1
4902642	5	C	08/09/2024	03:27	-131.270	44.754	0	3129.90	0	1.5850	0	34.6560	4	27.745	0	3081.695	0	93.2	4	27.8	4	-1E+10	1	-1E+10	1	-1E+10	1	-1E+10	1	-1E+10	1	-1E+10	1
4902642	5	C	08/09/2024	03:27	-131.270	44.754	0	3149.80	0	1.5820	0	34.6570	4	27.746	0	3101.147	0	93.8	4	28.0	4	-1E+10	1	-1E+10	1	-1E+10	1	-1E+10	1	-1E+10	1	-1E+10	1
4902642	5	C	08/09/2024	03:27	-131.270	44.754	0	3169.70	0	1.5770	0	34.6570	4	27.746	0	3120.596	0	94.5	4	28.2	4	-1E+10	1	-1E+10	1	-1E+10	1	-1E+10	1	-1E+10	1	-1E+10	1
4902642	5	C	08/09/2024	03:27	-131.270	44.754	0	3190.30	0	1.5740	0	34.6580	4	27.747	0	3140.729	0	95.0	4	28.4	4	-1E+10	1	-1E+10	1	-1E+10	1	-1E+10	1	-1E+10	1	-1E+10	1
4902642	5	C	08/09/2024	03:27	-131.270	44.754	0	3210.20	0	1.5710	0	34.6590	4	27.749	0	3160.175	0	95.6	4	28.5	4	-1E+10	1	-1E+10	1	-1E+10	1	-1E+10	1	-1E+10	1	-1E+10	1
4902642	5	C	08/09/2024	03:27	-131.270	44.754	0	3230.40	0	1.5650	0	34.6600	4	27.750	0	3179.913	0	96.4	4	28.8	4	-1E+10	1	-1E+10	1	-1E+10	1	-1E+10	1	-1E+10	1	-1E+10	1
4902642	5	C	08/09/2024	03:27	-131.270	44.754	0	3250.30	0	1.5610	0	34.6610	4	27.751	0	3199.356	0	97.4	4	29.1	4	-1E+10	1	-1E+10	1	-1E+10	1	-1E+10	1	-1E+10	1	-1E+10	1
4902642	5	C	08/09/2024	03:27	-131.270	44.754	0	3270.30	0	1.5520	0	34.6630	4	27.754	0	3218.894	0	98.4	4	29.4	4	-1E+10	1	-1E+10	1	-1E+10	1	-1E+10	1	-1E+10	1	-1E+10	1
4902642	5	C	08/09/2024	03:27	-131.270	44.754	0	3287.20	0	1.5480	0	34.6640	4	27.755	0	3235.403	0	99.2	4	29.6	4	-1E+10	1	-1E+10	1	-1E+10	1	-1E+10	1	-1E+10	1	-1E+10	1
4902642	5	C	08/09/2024	03:27	-131.270	44.754	0	3294.60	0	1.5450	0	34.6650	4	27.756	0	3242.632	0	99.6	4	29.7	4	-1E+10	1	-1E+10	1	-1E+10	1	-1E+10	1	-1E+10	1	-1E+10	1
4902642	5	C	08/09/2024	03:27	-131.270	44.754	0	3295.50	0	1.5450	0	34.6640	4	27.755	0	3243.511	0	99.7	4	29.7	4	-1E+10	1	-1E+10	1	-1E+10	1	-1E+10	1	-1E+10	1	-1E+10	1
4902642	5	C	08/09/2024	03:27	-131.270	44.754	0	3296.40	0	1.5450	0	34.6650	4	27.756	0	3244.390	0	99.7	4	29.7	4	-1E+10	1	-1E+10	1	-1E+10	1	-1E+10	1	-1E+10	1	-1E+10	1
4902642	5	C	08/09/2024	03:27	-131.270	44.754	0	3297.30	0	1.5450	0	34.6650	4	27.756	0	3245.269	0	99.7	4	29.7	4	-1E+10	1	-1E+10	1	-1E+10	1	-1E+10	1	-1E+10	1	-1E+10	1
4902642	5	C	08/09/2024	03:27	-131.270	44.754	0	3298.20	0	1.5440	0	34.6640	4	27.755	0	3246.148	0	99.8	4	29.8	4	-1E+10	1	-1E+10	1	-1E+10	1	-1E+10	1	-1E+10	1	-1E+10	1
4902642	5	C	08/09/2024	03:27	-131.270	44.754	0	3299.50	0	1.5430	0	34.6650	4	27.756	0	3247.418	0	99.8	4	29.8	4	-1E+10	1	-1E+10	1	-1E+10	1	-1E+10	1	-1E+10	1	-1E+10	1
4902642	5	C	08/09/2024	03:27	-131.270	44.754	0	3301.00	0	1.5420	0	34.6650	4	27.756	0	3248.883	0	99.9	4	29.8	4	-1E+10	1	-1E+10	1	-1E+10	1	-1E+10	1	-1E+10	1	-1E+10	1
4902642	5	C	08/09/2024	03:27	-131.270	44.754	0	3301.90	0	1.5410	0	34.6660	4	27.757	0	3249.762	0	100.0	4	29.8	4	-1E+10	1	-1E+10	1	-1E+10	1	-1E+10	1	-1E+10	1	-1E+10	1
4902642	5	C	08/09/2024	03:27	-131.270	44.754	0	3302.80	0	1.5410	0	34.6660	4	27.757	0	3250.641	0	100.0	4	29.8	4	-1E+10	1	-1E+10	1	-1E+10	1	-1E+10	1	-1E+10	1	-1E+10	1
4902642	5	C	08/09/2024	03:27	-131.270	44.754	0	3303.80	0	1.5410	0	34.6650	4	27.756	0	3251.618	0	100.0	4	29.8	4	-1E+10	1	-1E+10	1	-1E+10	1	-1E+10	1	-1E+10	1	-1E+10	1
4902642	5	C	08/09/2024	03:27	-131.270	44.754	0	3304.70	0	1.5410	0	34.6650	4	27.756	0	3252.497	0	100.1	4	29.8	4	-1E+10	1	-1E+10	1	-1E+10	1	-1E+10	1	-1E+10	1	-1E+10	1
4902642	5	C	08/09/2024	03:27	-131.270	44.754	0	3305.60	0	1.5410	0	34.6650	4	27.756	0	3253.376	0	100.1	4	29.9	4	-1E+10	1	-1E+10	1	-1E+10	1	-1E+10	1	-1E+10	1	-1E+10	1
4902642	5	C	08/09/2024	03:27	-131.270	44.754	0	3306.60	0	1.5400	0	34.6660	4	27.757	0	3254.353	0	100.1	4	29.9	4	-1E+10	1	-1E+10	1	-1E+10	1	-1E+10	1	-1E+10	1	-1E+10	1
4902642	5	C	08/09/2024	03:27	-131.270	44.754	0	3307.50	0	1.5400	0	34.6660	4	27.757	0	3255.232	0	100.1	4	29.9	4	-1E+10	1	-1E+10	1	-1E+10	1	-1E+10	1	-1E+10	1	-1E+10	1
4902642	5	C	08/09/2024	03:27	-131.270	44.754	0	3308.40	0	1.5400	0	34.6660	4	27.757	0	3256.111	0	100.2	4	29.9	4	-1E+10	1	-1E+10	1	-1E+10	1	-1E+10	1	-1E+10	1	-1E+10	1
4902642	5	C	08/09/2024	03:27	-131.270	44.754	0	3309.40	0	1.5400	0	34.6660	4	27.757	0	3257.087	0	100.2	4	29.9	4	-1E+10	1	-1E+10	1	-1E+10	1	-1E+10	1	-1E+10	1	-1E+10	1
4902642	5	C	08/09/2024	03:27	-131.270	44.754	0	3310.30	0	1.5390	0	34.6660	4	27.757	0	3257.967	0	100.3	4	29.9	4	-1E+10	1	-1E+10	1	-1E+10	1	-1E+10	1	-1E+10	1	-1E+10	1
4902642	5	C	08/09/2024	03:27	-131.270	44.754	0	3311.30	0	1.5380	0	34.6660	4	27.757	0	3258.943	0	100.3	4	29.9	4	-1E+10	1	-1E+10	1	-1E+10	1	-1E+10	1	-1E+10	1	-1E+10	1
4902642	5	C	08/09/2024	03:27	-131.270	44.754	0	3312.20	0	1.5380	0	34.6660	4	27.757	0	3259.822	0	100.3	4	29.9	4	-1E+10	1	-1E+10	1	-1E+10	1	-1E+10	1	-1E+10	1	-1E+10	1
4902642	5	C	08/09/2024	03:27	-131.270	44.754	0	3313.10	0	1.5380	0	34.6660	4	27.757	0	3260.702	0	100.3	4	29.9	4	-1E+10	1	-1E+10	1	-1E+10	1	-1E+10	1	-1E+10	1	-1E+10	1
4902642	5	C	08/09/2024	03:27	-131.270	44.754	0	3314.10	0	1.5370	0	34.6660	4	27.757	0	3261.678	0	100.3	4	29.9	4	-1E+10	1	-1E+10	1	-1E+10	1	-1E+10	1	-1E+10	1	-1E+10	1
4902642	5	C	08/09/2024	03:27	-131.270	44.754	0	3315.50	0	1.5370	0	34.6660	4	27.757	0	3263.046	0	100.4	4	29.9	4	-1E+10	1	-1E+10	1	-1E+10	1	-1E+10	1	-1E+10	1	-1E+10	1
4902642	5	C	08/09/2024	03:27	-131.270	44.754	0	3317.00	0	1.5380	0	34.6660	4	27.757	0	3264.511	0	100.4	4	29.9	4	-1E+10	1	-1E+10	1	-1E+10	1	-1E+10	1	-1E+10	1	-1E+10	1
4902642	5	C	08/09/2024	03:27	-131.270	44.754	0	3317.90	0	1.5380	0	34.6660	4	27.757	0	3265.389	0	100.4	4	29.9	4	-1E+10	1	-1E+10	1	-1E+10	1	-1E+10	1	-1E+10	1	-1E+10	1
4902642	5	C	08/09/2024	03:27	-131.270	44.754	0	3318.90	0	1.5380	0	34.6660	4	27.757	0	3266.366	0	100.4	4	29.9	4	-1E+10	1	-1E+10	1	-1E+10	1	-1E+10	1	-1E+10	1	-1E+10	1
4902642	5	C	08/09/2024	03:27	-131.270	44.754	0	3319.80	0	1.5380	0	34.6660	4	27.757	0	3267.245	0	100.4	4	29.9	4	-1E+10	1	-1E+10	1	-1E+10	1	-1E+10	1	-1E+10	1	-1E+10	1
4902642	5	C	08/09/2024	03:27	-131.270	44.754	0	3320.80	0	1.5370	0	34.6660	4	27.757	0	3268.222	0	100.4	4	29.9	4	-1E+10	1	-1E+10	1	-1E+10	1	-1E+10	1	-1E+10	1	-1E+10	1
4902642	5	C	08/09/2024	03:27	-131.270	44.754	0	3321.70	0	1.5380	0	34.6660	4	27.757	0	3269.101	0	100.4	4	29.9	4	-1E+10	1	-1E+10	1	-1E+10	1	-1E+10	1	-1E+10	1	-1E+10	1
4902642	5	C	08/09/2024	03:27	-131.270	44.754	0	3322.60	0	1.5380	0	34.6660	4	27.757	0	3269.980	0	100.4	4	30.0	4	-1E+10	1	-1E+10	1	-1E+10	1	-1E+10	1	-1E+10	1	-1E+10	1
4902642	5	C	08/09/2024	03:27	-131.270	44.754	0	3323.60	0	1.5380	0	34.6660	4	27.757	0	3270.957	0	100.5	4	30.0	4	-1E+10	1	-1E+10	1	-1E+10	1	-1E+10	1	-1E+10	1	-1E+10	1
4902642	5	C	08/09/2024	03:27	-131.270	44.754	0	3324.50	0	1.5380	0	34.6660	4	27.757	0	3271.836	0	100.5	4	30.0	4	-1E+10	1	-1E+10	1	-1E+10	1	-1E+10	1	-1E+10	1	-1E+10	1
4902642	5	C	08/09/2024	03:27	-131.270	44.754	0	3325.40	0	1.5380	0	34.6660	4	27.757	0	3272.715	0	100.5	4	30.0	4	-1E+10	1	-1E+10	1	-1E+10	1	-1E+10	1	-1E+10	1	-1E+10	1
4902642	5	C	08/09/2024	03:27	-131.270	44.754	0	3326.40	0	1.5380	0	34.6660	4	27.757	0	3273.691	0	100.5	4	30.0	4	-1E+10	1	-1E+10	1	-1E+10	1	-1E+10	1	-1E+10	1	-1E+10	1
4902642	5	C	08/09/2024	03:27	-131.270	44.754	0	3327.30	0	1.5380	0	34.6670	4	27.758	0	3274.570	0	100.6	4	30.0	4	-1E+10	1	-1E+10	1	-1E+10	1	-1E+10	1	-1E+10	1	-1E+10	1
4902642	5	C	08/09/2024	03:27	-131.270	44.754	0	3328.20	0	1.5380	0	34.6660	4	27.757	0	3275.449	0	100.6	4	30.0	4	-1E+10	1	-1E+10	1	-1E+10	1	-1E+10	1	-1E+10	1	-1E+10	1
4902642	5	C	08/09/2024	03:27	-131.270	44.754	0	3329.10	0	1.5370	0	34.6660	4	27.757	0	3276.328	0	100.7	4	30.0	4	-1E+10	1	-1E+10	1	-1E+10	1	-1E+10	1	-1E+10	1	-1E+10	1
4902642	5	C	08/09/2024	03:27	-131.270	44.754	0	3330.50	0	1.5360	0	34.6670	4	27.758	0	3277.695	0	100.7	4	30.0	4	-1E+10	1	-1E+10	1	-1E+10	1	-1E+10	1	-1E+10	1	-1E+10	1
4902642	5	C	08/09/2024	03:27	-131.270	44.754	0	3331.90	0	1.5340	0	34.6670	4	27.758	0	3279.063	0	100.8	4	30.1	4	-1E+10	1	-1E+10	1	-1E+10	1	-1E+10	1	-1E+10	1	-1E+10	1
4902642	5	C	08/09/2024	03:27	-131.270	44.754	0	3332.80	0	1.5340	0	34.6670	4	27.758	0	3279.942	0	100.7	4	30.0	4	-1E+10	1	-1E+10	1	-1E+10	1	-1E+10	1	-1E+10	1	-1E+10	1
4902642	5	C	08/09/2024	03:27	-131.270	44.754	0	3333.70	0	1.5340	0	34.6670	4	27.758	0	3280.821	0	100.8	4	30.1	4	-1E+10	1	-1E+10	1	-1E+10	1	-1E+10	1	-1E+10	1	-1E+10	1
4902642	5	C	08/09/2024	03:27	-131.270	44.754	0	3335.50	0	1.5340	0	34.6670	4	27.758	0	3282.579	0	100.8	4	30.1	4	-1E+10	1	-1E+10	1	-1E+10	1	-1E+10	1	-1E+10	1	-1E+10	1
4902642	5	C	08/09/2024	03:27	-131.270	44.754	0	3336.70	0	1.5330	0	34.6670	4	27.758	0	3283.750	0	100.8	4	30.1	4	-1E+10	1	-1E+10	1	-1E+10	1	-1E+10	1	-1E+10	1	-1E+10	1
4902642	5	C	08/09/2024	03:27	-131.270	44.754	0	3337.50	0	1.5330	0	34.6670	4	27.759	0	3284.532	0	100.7	4	30.0	4	-1E+10	1	-1E+10	1	-1E+10	1	-1E+10	1	-1E+10	1	-1E+10	1
4902642	5	C	08/09/2024	03:27	-131.270	44.754	0	3338.30	0	1.5330	0	34.6670	4	27.759	0	3285.313	0	100.7	4	30.0	4	-1E+10	1	-1E+10	1	-1E+10	1	-1E+10	1	-1E+10	1	-1E+10	1
4902642	5	C	08/09/2024	03:27	-131.270	44.754	0	3339.50	0	1.5340	0	34.6670	4	27.758	0	3286.485	0	100.7	4	30.0	4	-1E+10	1	-1E+10	1	-1E+10	1	-1E+10	1	-1E+10	1	-1E+10	1
4902642	5	C	08/09/2024	03:27	-131.270	44.754	0	3340.70	0	1.5340	0	34.6670	4	27.758	0	3287.657	0	100.7	4	30.0	4	-1E+10	1	-1E+10	1	-1E+10	1	-1E+10	1	-1E+10	1	-1E+10	1
4902642	5	C	08/09/2024	03:27	-131.270	44.754	0	3341.40	0	1.5340	0	34.6670	4	27.758	0	3288.340	0	100.6	4	30.0	4	-1E+10	1	-1E+10	1	-1E+10	1	-1E+10	1	-1E+10	1	-1E+10	1
4902642	5	C	08/09/2024	03:27	-131.270	44.754	0	3342.90	0	1.5340	0	34.6670	4	27.758	0	3289.805	0	100.6	4	30.0	4	-1E+10	1	-1E+10	1	-1E+10	1	-1E+10	1	-1E+10	1	-1E+10	1
4902642	5	C	08/09/2024	03:27	-131.270	44.754	0	3343.90	0	1.5340	0	34.6670	4	27.758	0	3290.782	0	100.6	4	30.0	4	-1E+10	1	-1E+10	1	-1E+10	1	-1E+10	1	-1E+10	1	-1E+10	1
4902642	5	C	08/09/2024	03:27	-131.270	44.754	0																										
4902642	6	C	08/19/2024	02:36	-131.195	44.833	0	1.90	0	18.3740	0	32.4400	0	23.222	0	1.885	0	217.3	4	91.9	4	-1E+10	1	-1E+10	1	-1E+10	1	-1E+10	1	-1E+10	1	-1E+10	1
4902642	6	C	08/19/2024	02:36	-131.195	44.833	0	2.10	0	18.3780	0	32.4390	0	23.221	0	2.083	0	217.2	4	91.9	4	-1E+10	1	-1E+10	1	-1E+10	1	-1E+10	1	-1E+10	1	-1E+10	1
4902642	6	C	08/19/2024	02:36	-131.195	44.833	0	2.40	0	18.3800	0	32.4370	0	23.219	0	2.381	0	217.2	4	91.9	4	-1E+10	1	-1E+10	1	-1E+10	1	-1E+10	1	-1E+10	1	-1E+10	1
4902642	6	C	08/19/2024	02:36	-131.195	44.833	0	3.00	0	18.3810	0	32.4330	0	23.215	0	2.976	0	217.4	4	92.0	4	-1E+10	1	-1E+10	1	-1E+10	1	-1E+10	1	-1E+10	1	-1E+10	1
4902642	6	C	08/19/2024	02:36	-131.195	44.833	0	3.60	0	18.3820	0	32.4360	0	23.217	0	3.571	0	217.4	4	92.0	4	-1E+10	1	-1E+10	1	-1E+10	1	-1E+10	1	-1E+10	1	-1E+10	1
4902642	6	C	08/19/2024	02:36	-131.195	44.833	0	4.60	0	18.3820	0	32.4380	0	23.219	0	4.563	0	217.5	4	92.0	4	-1E+10	1	-1E+10	1	-1E+10	1	-1E+10	1	-1E+10	1	-1E+10	1
4902642	6	C	08/19/2024	02:36	-131.195	44.833	0	5.40	0	18.3830	0	32.4380	0	23.219	0	5.356	0	217.7	4	92.1	4	-1E+10	1	-1E+10	1	-1E+10	1	-1E+10	1	-1E+10	1	-1E+10	1
4902642	6	C	08/19/2024	02:36	-131.195	44.833	0	6.50	0	18.3860	0	32.4380	0	23.218	0	6.447	0	217.8	4	92.2	4	-1E+10	1	-1E+10	1	-1E+10	1	-1E+10	1	-1E+10	1	-1E+10	1
4902642	6	C	08/19/2024	02:36	-131.195	44.833	0	7.60	0	18.3870	0	32.4380	0	23.218	0	7.538	0	218.1	4	92.3	4	-1E+10	1	-1E+10	1	-1E+10	1	-1E+10	1	-1E+10	1	-1E+10	1
4902642	6	C	08/19/2024	02:36	-131.195	44.833	0	8.50	0	18.3880	0	32.4370	0	23.217	0	8.431	0	218.3	4	92.4	4	-1E+10	1	-1E+10	1	-1E+10	1	-1E+10	1	-1E+10	1	-1E+10	1
4902642	6	C	08/19/2024	02:36	-131.195	44.833	0	9.80	0	18.3870	0	32.4380	0	23.218	0	9.720	0	218.7	4	92.6	4	-1E+10	1	-1E+10	1	-1E+10	1	-1E+10	1	-1E+10	1	-1E+10	1
4902642	6	C	08/19/2024	02:36	-131.195	44.833	0	14.70	0	18.3610	0	32.4320	0	23.220	0	14.580	0	223.3	4	94.4	4	-1E+10	1	-1E+10	1	-1E+10	1	-1E+10	1	-1E+10	1	-1E+10	1
4902642	6	C	08/19/2024	02:36	-131.195	44.833	0	24.70	0	15.8450	0	32.4530	0	23.826	0	24.498	0	247.7	4	99.8	4	-1E+10	1	-1E+10	1	-1E+10	1	-1E+10	1	-1E+10	1	-1E+10	1
4902642	6	C	08/19/2024	02:36	-131.195	44.833	0	34.80	0	13.3900	0	32.3780	0	24.287	0	34.515	0	258.8	4	99.3	4	-1E+10	1	-1E+10	1	-1E+10	1	-1E+10	1	-1E+10	1	-1E+10	1
4902642	6	C	08/19/2024	02:36	-131.195	44.833	0	44.80	0	12.1970	0	32.3500	0	24.496	0	44.432	0	255.6	4	95.7	4	-1E+10	1	-1E+10	1	-1E+10	1	-1E+10	1	-1E+10	1	-1E+10	1
4902642	6	C	08/19/2024	02:36	-131.195	44.833	0	54.80	0	10.9590	0	32.3730	0	24.739	0	54.349	0	249.7	4	91.1	4	-1E+10	1	-1E+10	1	-1E+10	1	-1E+10	1	-1E+10	1	-1E+10	1
4902642	6	C	08/19/2024	02:36	-131.195	44.833	0	65.10	0	10.1550	0	32.4140	0	24.909	0	64.562	0	244.8	4	87.8	4	-1E+10	1	-1E+10	1	-1E+10	1	-1E+10	1	-1E+10	1	-1E+10	1
4902642	6	C	08/19/2024	02:36	-131.195	44.833	0	74.50	0	9.7250	0	32.4420	0	25.002	0	73.883	0	237.3	4	84.3	4	-1E+10	1	-1E+10	1	-1E+10	1	-1E+10	1	-1E+10	1	-1E+10	1
4902642	6	C	08/19/2024	02:36	-131.195	44.833	0	84.90	0	9.4650	0	32.4910	0	25.082	0	84.195	0	223.7	4	79.1	4	-1E+10	1	-1E+10	1	-1E+10	1	-1E+10	1	-1E+10	1	-1E+10	1
4902642	6	C	08/19/2024	02:36	-131.195	44.833	0	94.70	0	9.0860	0	32.5890	0	25.219	0	93.911	0	212.7	4	74.6	4	-1E+10	1	-1E+10	1	-1E+10	1	-1E+10	1	-1E+10	1	-1E+10	1
4902642	6	C	08/19/2024	02:36	-131.195	44.833	0	104.60	0	8.6790	0	32.7830	0	25.434	0	103.726	0	195.3	4	68.0	4	-1E+10	1	-1E+10	1	-1E+10	1	-1E+10	1	-1E+10	1	-1E+10	1
4902642	6	C	08/19/2024	02:36	-131.195	44.833	0	114.60	0	8.3410	0	32.9810	0	25.640	0	113.640	0	180.8	4	62.6	4	-1E+10	1	-1E+10	1	-1E+10	1	-1E+10	1	-1E+10	1	-1E+10	1
4902642	6	C	08/19/2024	02:36	-131.195	44.833	0	125.00	0	8.1270	0	33.1270	0	25.787	0	123.950	0	168.0	4	57.9	4	-1E+10	1	-1E+10	1	-1E+10	1	-1E+10	1	-1E+10	1	-1E+10	1
4902642	6	C	08/19/2024	02:36	-131.195	44.833	0	134.90	0	7.9890	0	33.2940	0	25.938	0	133.763	0	155.4	4	53.5	4	-1E+10	1	-1E+10	1	-1E+10	1	-1E+10	1	-1E+10	1	-1E+10	1
4902642	6	C	08/19/2024	02:36	-131.195	44.833	0	144.80	0	7.8050	0	33.4710	0	26.104	0	143.576	0	151.8	4	52.1	4	-1E+10	1	-1E+10	1	-1E+10	1	-1E+10	1	-1E+10	1	-1E+10	1
4902642	6	C	08/19/2024	02:36	-131.195	44.833	0	155.00	0	7.6430	0	33.5540	0	26.192	0	153.686	0	149.0	4	51.0	4	-1E+10	1	-1E+10	1	-1E+10	1	-1E+10	1	-1E+10	1	-1E+10	1
4902642	6	C	08/19/2024	02:36	-131.195	44.833	0	164.90	0	7.5340	0	33.6500	0	26.284	0	163.499	0	154.3	4	52.7	4	-1E+10	1	-1E+10	1	-1E+10	1	-1E+10	1	-1E+10	1	-1E+10	1
4902642	6	C	08/19/2024	02:36	-131.195	44.833	0	175.00	0	7.1950	0	33.6850	0	26.359	0	173.509	0	166.5	4	56.4	4	-1E+10	1	-1E+10	1	-1E+10	1	-1E+10	1	-1E+10	1	-1E+10	1
4902642	6	C	08/19/2024	02:36	-131.195	44.833	0	185.20	0	7.0910	0	33.7330	0	26.411	0	183.617	0	148.6	4	50.3	4	-1E+10	1	-1E+10	1	-1E+10	1	-1E+10	1	-1E+10	1	-1E+10	1
4902642	6	C	08/19/2024	02:36	-131.195	44.833	0	194.90	0	7.1250	0	33.7870	0	26.449	0	193.230	0	152.7	4	51.7	4	-1E+10	1	-1E+10	1	-1E+10	1	-1E+10	1	-1E+10	1	-1E+10	1
4902642	6	C	08/19/2024	02:36	-131.195	44.833	0	209.60	0	6.7060	0	33.7760	0	26.497	0	207.796	0	156.4	4	52.5	4	-1E+10	1	-1E+10	1	-1E+10	1	-1E+10	1	-1E+10	1	-1E+10	1
4902642	6	C	08/19/2024	02:36	-131.195	44.833	0	229.50	0	6.3830	0	33.7940	0	26.554	0	227.514	0	137.5	4	45.8	4	-1E+10	1	-1E+10	1	-1E+10	1	-1E+10	1	-1E+10	1	-1E+10	1
4902642	6	C	08/19/2024	02:36	-131.195	44.833	0	248.80	0	6.1430	0	33.8190	0	26.604	0	246.636	0	122.4	4	40.5	4	-1E+10	1	-1E+10	1	-1E+10	1	-1E+10	1	-1E+10	1	-1E+10	1
4902642	6	C	08/19/2024	02:36	-131.195	44.833	0	269.60	0	5.8500	0	33.8350	0	26.654	0	267.241	0	107.4	4	35.4	4	-1E+10	1	-1E+10	1	-1E+10	1	-1E+10	1	-1E+10	1	-1E+10	1
4902642	6	C	08/19/2024	02:36	-131.195	44.833	0	289.50	0	5.6220	0	33.8490	0	26.693	0	286.953	0	96.7	4	31.6	4	-1E+10	1	-1E+10	1	-1E+10	1	-1E+10	1	-1E+10	1	-1E+10	1
4902642	6	C	08/19/2024	02:36	-131.195	44.833	0	309.70	0	5.4380	0	33.8620	0	26.725	0	306.961	0	85.6	4	27.9	4	-1E+10	1	-1E+10	1	-1E+10	1	-1E+10	1	-1E+10	1	-1E+10	1
4902642	6	C	08/19/2024	02:36	-131.195	44.833	0	330.50	0	5.3140	0	33.8810	0	26.755	0	327.560	0	76.5	4	24.9	4	-1E+10	1	-1E+10	1	-1E+10	1	-1E+10	1	-1E+10	1	-1E+10	1
4902642	6	C	08/19/2024	02:36	-131.195	44.833	0	349.40	0	5.3050	0	33.9130	0	26.782	0	346.276	0	66.6	4	21.6	4	-1E+10	1	-1E+10	1	-1E+10	1	-1E+10	1	-1E+10	1	-1E+10	1
4902642	6	C	08/19/2024	02:36	-131.195	44.833	0	369.60	0	5.2700	0	33.9490	0	26.814	0	366.278	0	58.6	4	19.1	4	-1E+10	1	-1E+10	1	-1E+10	1	-1E+10	1	-1E+10	1	-1E+10	1
4902642	6	C	08/19/2024	02:36	-131.195	44.833	0	389.90	0	5.2070	0	33.9670	0	26.836	0	386.377	0	53.0	4	17.2	4	-1E+10	1	-1E+10	1	-1E+10	1	-1E+10	1	-1E+10	1	-1E+10	1
4902642	6	C	08/19/2024	02:36	-131.195	44.833	0	410.00	0	5.1170	0	33.9830	0	26.859	0	406.275	0	48.4	4	15.7	4	-1E+10	1	-1E+10	1	-1E+10	1	-1E+10	1	-1E+10	1	-1E+10	1
4902642	6	C	08/19/2024	02:36	-131.195	44.833	0	429.90	0	5.0240	0	33.9970	0	26.881	0	425.974	0	45.1	4	14.6	4	-1E+10	1	-1E+10	1	-1E+10	1	-1E+10	1	-1E+10	1	-1E+10	1
4902642	6	C	08/19/2024	02:36	-131.195	44.833	0	449.90	0	4.8390	0	33.9980	0	26.903	0	445.770	0	42.4	4	13.7	4	-1E+10	1	-1E+10	1	-1E+10	1	-1E+10	1	-1E+10	1	-1E+10	1
4902642	6	C	08/19/2024	02:36	-131.195	44.833	0	469.90	0	4.7820	0	34.0220	0	26.929	0	465.564	0	37.0	4	11.9	4	-1E+10	1	-1E+10	1	-1E+10	1	-1E+10	1	-1E+10	1	-1E+10	1
4902642	6	C	08/19/2024	02:36	-131.195	44.833	0	489.70	0	4.7050	0	34.0390	0	26.951	0	485.158	0	32.8	4	10.5	4	-1E+10	1	-1E+10	1	-1E+10	1	-1E+10	1	-1E+10	1	-1E+10	1
4902642	6	C	08/19/2024	02:36	-131.195	44.833	0	509.40	0	4.6530	0	34.0620	0	26.975	0	504.652	0	27.9	4	8.9	4	-1E+10	1	-1E+10	1	-1E+10	1	-1E+10	1	-1E+10	1	-1E+10	1
4902642	6	C	08/19/2024	02:36	-131.195	44.833	0	528.90	0	4.6120	0	34.0840	0	26.997	0	523.945	0	23.8	4	7.6	4	-1E+10	1	-1E+10	1	-1E+10	1	-1E+10	1	-1E+10	1	-1E+10	1
4902642	6	C	08/19/2024	02:36	-131.195	44.833	0	550.00	0	4.5490	0	34.1090	0	27.024	0	544.820	0	20.4	4	6.5	4	-1E+10	1	-1E+10	1	-1E+10	1	-1E+10	1	-1E+10	1	-1E+10	1
4902642	6	C	08/19/2024	02:36	-131.195	44.833	0	570.00	0	4.4920	0	34.1240	0	27.042	0	564.604	0	18.2	4	5.8	4	-1E+10	1	-1E+10	1	-1E+10	1	-1E+10	1	-1E+10	1	-1E+10	1
4902642	6	C	08/19/2024	02:36	-131.195	44.833	0	589.90	0	4.4070	0	34.1320	0	27.058	0	584.288	0	17.0	4	5.4	4	-1E+10	1	-1E+10	1	-1E+10	1	-1E+10	1	-1E+10	1	-1E+10	1
4902642	6	C	08/19/2024	02:36	-131.195	44.833	0	609.80	0	4.3760	0	34.1440	0	27.071	0	603.970	0	15.1	4	4.8	4	-1E+10	1	-1E+10	1	-1E+10	1	-1E+10	1	-1E+10	1	-1E+10	1
4902642	6	C	08/19/2024	02:36	-131.195	44.833	0	629.50	0	4.3190	0	34.1570	0	27.087	0	623.452	0	13.6	4	4.3	4	-1E+10	1	-1E+10	1	-1E+10	1	-1E+10	1	-1E+10	1	-1E+10	1
4902642	6	C	08/19/2024	02:36	-131.195	44.833	0	650.20	0	4.2980	0	34.1780	0	27.106	0	643.921	0	11.3	4	3.6	4	-1E+10	1	-1E+10	1	-1E+10	1	-1E+10	1	-1E+10	1	-1E+10	1
4902642	6	C	08/19/2024	02:36	-131.195	44.833	0	669.70	0	4.2780	0	34.2020	0	27.128	0	663.202	0	9.6	4	3.0	4	-1E+10	1	-1E+10	1	-1E+10	1	-1E+10	1	-1E+10	1	-1E+10	1
4902642	6	C	08/19/2024	02:36	-131.195	44.833	0	689.90	0	4.2590	0	34.2200	0	27.144	0	683.173	0	8.4	4	2.7	4	-1E+10	1	-1E+10	1	-1E+10	1	-1E+10	1	-1E+10	1	-1E+10	1
4902642	6	C	08/19/2024	02:36	-131.195	44.833	0	710.10	0	4.2290	0	34.2400	0	27.163	0	703.142	0	7.5	4	2.4	4	-1E+10	1	-1E+10	1	-1E+10	1	-1E+10	1	-1E+10	1	-1E+10	1
4902642	6	C	08/19/2024	02:36	-131.195	44.833	0	729.70	0	4.1970	0	34.2520	0	27.176	0	722.516	0	7.0	4	2.2	4	-1E+10	1	-1E+10	1	-1E+10	1	-1E+10	1	-1E+10	1	-1E+10	1
4902642	6	C	08/19/2024	02:36	-131.195	44.833	0	749.70	0	4.1510	0	34.2610	0	27.189	0	742.283	0	6.7	4	2.1	4	-1E+10	1	-1E+10	1	-1E+10	1	-1E+10	1	-1E+10	1	-1E+10	1
4902642	6	C	08/19/2024	02:36	-131.195	44.833	0	769.80	0	4.0940	0	34.2720	0	27.203	0	762.148	0	6.3	4	2.0	4	-1E+10	1	-1E+10	1	-1E+10	1	-1E+10	1	-1E+10	1	-1E+10	1
4902642	6	C	08/19/2024	02:36	-131.195	44.833	0	789.90	0	4.0380	0	34.2810	0	27.216	0	782.010	0	6.1	4	1.9	4	-1E+10	1	-1E+10	1	-1E+10	1	-1E+10	1	-1E+10	1	-1E+10	1
4902642	6	C	08/19/2024	02:36	-131.195	44.833	0	809.70	0	3.9700	0	34.2930	0	27.233	0	801.575	0	5.7	4	1.8	4	-1E+10	1	-1E+10	1	-1E+10	1	-1E+10	1	-1E+10	1	-1E+10	1
4902642	6	C	08/19/2024	02:36	-131.195	44.833	0	830.60	0	3.9000	0	34.3100	0	27.254	0	822.224	0	5.5	4	1.7	4	-1E+10	1	-1E+10	1	-1E+10	1	-1E+10	1	-1E+10	1	-1E+10	1
4902642	6	C	08/19/2024	02:36	-131.195	44.833	0	849.70	0	3.8710	0	34.3240	0	27.268	0	841.093	0	5.4	4	1.7	4	-1E+10	1	-1E+10	1	-1E+10	1	-1E+10	1	-1E+10	1	-1E+10	1
4902642	6	C	08/19/2024	02:36	-131.195	44.833	0	870.30	0	3.8040	0	34.3330	0	27.282	0	861.442	0	5.3	4	1.7	4	-1E+10	1	-1E+10	1	-1E+10	1	-1E+10	1	-1E+10	1	-1E+10	1
4902642	6	C	08/19/2024	02:36	-131.195	44.833	0	889.80	0	3.7580	0	34.3400	0	27.292	0	880.702	0	5.3	4	1.7	4	-1E+10	1	-1E+10	1	-1E+10	1	-1E+10	1	-1E+10	1	-1E+10	1
4902642	6	C	08/19/2024	02:36	-131.195	44.833	0	909.90	0	3.7160	0	34.3470	0	27.302	0	900.553	0	5.4	4	1.7	4	-1E+10	1	-1E+10	1	-1E+10	1	-1E+10	1	-1E+10	1	-1E+10	1
4902642	6	C	08/19/2024	02:36	-131.195	44.833	0	930.00	0	3.6800	0	34.3570	0	27.314	0	920.403	0	5.5	4	1.7	4	-1E+10	1	-1E+10	1	-1E+10	1	-1E+10	1	-1E+10	1	-1E+10	1
4902642	6	C	08/19/2024	02:36	-131.195	44.833	0	949.90	0	3.6410	0	34.3660	0	27.325	0	940.053	0	5.7	4	1.8	4	-1E+10	1	-1E+10	1	-1E+10	1	-1E+10	1	-1E+10	1	-1E+10	1
4902642	6	C	08/19/2024	02:36	-131.195	44.833	0	969.60	0	3.6010	0	34.3740	0	27.335	0	959.503	0	5.8	4	1.8	4	-1E+10	1	-1E+10	1	-1E+10	1	-1E+10	1	-1E+10	1	-1E+10	1
4902642	6	C	08/19/2024	02:36	-131.195	44.833	0	989.60	0	3.5540	0	34.3830	0	27.347	0	979.248	0	6.2	4	1.9	4	-1E+10	1	-1E+10	1	-1E+10	1	-1E+10	1	-1E+10	1	-1E+10	1
4902642	6	C	08/19/2024	02:36	-131.195	44.833	0	1009.70	0	3.5170	0	34.3910	0	27.357	0	999.090	0	6.4	4	2.0	4	-1E+10	1	-1E+10	1	-1E+10	1	-1E+10	1	-1E+10	1	-1E+10	1
4902642	6	C	08/19/2024	02:36	-131.195	44.833	0	1029.60	0	3.4790	0	34.3980	0	27.367	0	1018.733	0	6.8	4	2.1	4	-1E+10	1	-1E+10	1	-1E+10	1	-1E+10	1	-1E+10	1	-1E+10	1
4902642	6	C	08/19/2024	02:36	-131.195	44.833	0	1049.40	0	3.4340	0	34.4050	0	27.377	0	1038.275	0	7.2	4	2.2	4	-1E+10	1	-1E+10	1	-1E+10	1	-1E+10	1	-1E+10	1	-1E+10	1
4902642	6	C	08/19/2024	02:36	-131.195	44.833	0	1069.60	0	3.3950	0	34.4140	0	27.388	0	1058.210	0	7.6	4	2.4	4	-1E+10	1	-1E+10	1	-1E+10	1	-1E+10	1	-1E+10	1	-1E+10	1
4902642	6	C	08/19/2024	02:36	-131.195	44.833	0	1090.00	0	3.3480	0	34.4200	0	27.397	0	1078.340	0	8.0	4	2.5	4	-1E+10	1	-1E+10	1	-1E+10	1	-1E+10	1	-1E+10	1	-1E+10	1
4902642	6	C	08/19/2024	02:36	-131.195	44.833	0	1109.80	0	3.3170	0	34.4250	0	27.404	0	1097.877	0	8.5	4	2.7	4	-1E+10	1	-1E+10	1	-1E+10	1	-1E+10	1	-1E+10	1	-1E+10	1
4902642	6	C	08/19/2024	02:36	-131.195	44.833	0	1129.70	0	3.2720	0	34.4330	0	27.415	0	1117.510	0	9.2	4	2.9	4	-1E+10	1	-1E+10	1	-1E+10	1	-1E+10	1	-1E+10	1	-1E+10	1
4902642	6	C	08/19/2024	02:36	-131.195	44.833	0	1149.80	0	3.2240	0	34.4380	0	27.423	0	1137.339	0	9.7	4	3.0	4	-1E+10	1	-1E+10	1	-1E+10	1	-1E+10	1	-1E+10	1	-1E+10	1
4902642	6	C	08/19/2024	02:36	-131.195	44.833	0	1169.60	0	3.1780	0	34.4440	0	27.433	0	1156.870	0	10.2	4	3.2	4	-1E+10	1	-1E+10	1	-1E+10	1	-1E+10	1	-1E+10	1	-1E+10	1
4902642	6	C	08/19/2024	02:36	-131.195	44.833	0	1190.30	0	3.1300	0	34.4490	0	27.441	0	1177.286	0	10.6	4	3.3	4	-1E+10	1	-1E+10	1	-1E+10	1	-1E+10	1	-1E+10	1	-1E+10	1
4902642	6	C	08/19/2024	02:36	-131.195	44.833	0	1209.70	0	3.0830	0	34.4530	0	27.449	0	1196.419	0	11.1	4	3.4	4	-1E+10	1	-1E+10	1	-1E+10	1	-1E+10	1	-1E+10	1	-1E+10	1
4902642	6	C	08/19/2024	02:36	-131.195	44.833	0	1229.00	0	3.0400	0	34.4580	0	27.457	0	1215.451	0	11.6	4	3.6	4	-1E+10	1	-1E+10	1	-1E+10	1	-1E+10	1	-1E+10	1	-1E+10	1
4902642	6	C	08/19/2024	02:36	-131.195	44.833	0	1249.60	0	2.9940	0	34.4630	0	27.465	0	1235.764	0	12.2	4	3.8	4	-1E+10	1	-1E+10	1	-1E+10	1	-1E+10	1	-1E+10	1	-1E+10	1
4902642	6	C	08/19/2024	02:36	-131.195	44.833	0	1269.30	0	2.9620	0	34.4660	0	27.470	0	1255.187	0	12.6	4	3.9	4	-1E+10	1	-1E+10	1	-1E+10	1	-1E+10	1	-1E+10	1	-1E+10	1
4902642	6	C	08/19/2024	02:36	-131.195	44.833	0	1289.90	0	2.9280	0	34.4690	0	27.476	0	1275.496	0	13.2	4	4.1	4	-1E+10	1	-1E+10	1	-1E+10	1	-1E+10	1	-1E+10	1	-1E+10	1
4902642	6	C	08/19/2024	02:36	-131.195	44.833	0	1309.60	0	2.8980	0	34.4740	0	27.483	0	1294.915	0	13.9	4	4.3	4	-1E+10	1	-1E+10	1	-1E+10	1	-1E+10	1	-1E+10	1	-1E+10	1
4902642	6	C	08/19/2024	02:36	-131.195	44.833	0	1329.80	0	2.8600	0	34.4780	0	27.489	0	1314.826	0	14.6	4	4.5	4	-1E+10	1	-1E+10	1	-1E+10	1	-1E+10	1	-1E+10	1	-1E+10	1
4902642	6	C	08/19/2024	02:36	-131.195	44.833	0	1349.70	0	2.8210	0	34.4820	0	27.496	0	1334.438	0	15.2	4	4.7	4	-1E+10	1	-1E+10	1	-1E+10	1	-1E+10	1	-1E+10	1	-1E+10	1
4902642	6	C	08/19/2024	02:36	-131.195	44.833	0	1369.40	0	2.7710	0	34.4840	0	27.502	0	1353.853	0	15.8	4	4.9	4	-1E+10	1	-1E+10	1	-1E+10	1	-1E+10	1	-1E+10	1	-1E+10	1
4902642	6	C	08/19/2024	02:36	-131.195	44.833	0	1389.70	0	2.7290	0	34.4880	0	27.509	0	1373.856	0	16.6	4	5.1	4	-1E+10	1	-1E+10	1	-1E+10	1	-1E+10	1	-1E+10	1	-1E+10	1
4902642	6	C	08/19/2024	02:36	-131.195	44.833	0	1409.70	0	2.6930	0	34.4920	0	27.515	0	1393.562	0	17.5	4	5.4	4	-1E+10	1	-1E+10	1	-1E+10	1	-1E+10	1	-1E+10	1	-1E+10	1
4902642	6	C	08/19/2024	02:36	-131.195	44.833	0	1429.50	0	2.6570	0	34.4970	0	27.523	0	1413.069	0	18.3	4	5.6	4	-1E+10	1	-1E+10	1	-1E+10	1	-1E+10	1	-1E+10	1	-1E+10	1
4902642	6	C	08/19/2024	02:36	-131.195	44.833	0	1449.70	0	2.6270	0	34.5000	0	27.528	0	1432.968	0	19.1	4	5.9	4	-1E+10	1	-1E+10	1	-1E+10	1	-1E+10	1	-1E+10	1	-1E+10	1
4902642	6	C	08/19/2024	02:36	-131.195	44.833	0	1469.90	0	2.5940	0	34.5040	0	27.534	0	1452.866	0	20.1	4	6.2	4	-1E+10	1	-1E+10	1	-1E+10	1	-1E+10	1	-1E+10	1	-1E+10	1
4902642	6	C	08/19/2024	02:36	-131.195	44.833	0	1489.80	0	2.5600	0	34.5090	0	27.541	0	1472.466	0	21.5	4	6.6	4	-1E+10	1	-1E+10	1	-1E+10	1	-1E+10	1	-1E+10	1	-1E+10	1
4902642	6	C	08/19/2024	02:36	-131.195	44.833	0	1510.00	0	2.5190	0	34.5150	0	27.549	0	1492.360	0	23.0	4	7.0	4	-1E+10	1	-1E+10	1	-1E+10	1	-1E+10	1	-1E+10	1	-1E+10	1
4902642	6	C	08/19/2024	02:36	-131.195	44.833	0	1530.00	0	2.4830	0	34.5210	0	27.557	0	1512.054	0	24.8	4	7.6	4	-1E+10	1	-1E+10	1	-1E+10	1	-1E+10	1	-1E+10	1	-1E+10	1
4902642	6	C	08/19/2024	02:36	-131.195	44.833	0	1550.00	0	2.4380	0	34.5280	0	27.567	0	1531.747	0	26.6	4	8.1	4	-1E+10	1	-1E+10	1	-1E+10	1	-1E+10	1	-1E+10	1	-1E+10	1
4902642	6	C	08/19/2024	02:36	-131.195	44.833	0	1570.50	0	2.4000	0	34.5330	0	27.574	0	1551.931	0	27.8	4	8.5	4	-1E+10	1	-1E+10	1	-1E+10	1	-1E+10	1	-1E+10	1	-1E+10	1
4902642	6	C	08/19/2024	02:36	-131.195	44.833	0	1589.80	0	2.3740	0	34.5360	0	27.578	0	1570.931	0	29.0	4	8.8	4	-1E+10	1	-1E+10	1	-1E+10	1	-1E+10	1	-1E+10	1	-1E+10	1
4902642	6	C	08/19/2024	02:36	-131.195	44.833	0	1609.70	0	2.3480	0	34.5400	0	27.584	0	1590.520	0	30.2	4	9.2	4	-1E+10	1	-1E+10	1	-1E+10	1	-1E+10	1	-1E+10	1	-1E+10	1
4902642	6	C	08/19/2024	02:36	-131.195	44.833	0	1629.80	0	2.3210	0	34.5430	0	27.589	0	1610.304	0	31.2	4	9.5	4	-1E+10	1	-1E+10	1	-1E+10	1	-1E+10	1	-1E+10	1	-1E+10	1
4902642	6	C	08/19/2024	02:36	-131.195	44.833	0	1649.70	0	2.2960	0	34.5460	0	27.593	0	1629.890	0	32.2	4	9.8	4	-1E+10	1	-1E+10	1	-1E+10	1	-1E+10	1	-1E+10	1	-1E+10	1
4902642	6	C	08/19/2024	02:36	-131.195	44.833	0	1669.60	0	2.2700	0	34.5490	0	27.598	0	1649.473	0	33.3	4	10.1	4	-1E+10	1	-1E+10	1	-1E+10	1	-1E+10	1	-1E+10	1	-1E+10	1
4902642	6	C	08/19/2024	02:36	-131.195	44.833	0	1689.40	0	2.2490	0	34.5520	0	27.602	0	1668.957	0	34.5	4	10.5	4	-1E+10	1	-1E+10	1	-1E+10	1	-1E+10	1	-1E+10	1	-1E+10	1
4902642	6	C	08/19/2024	02:36	-131.195	44.833	0	1709.70	0	2.2280	0	34.5550	0	27.606	0	1688.930	0	35.6	4	10.8	4	-1E+10	1	-1E+10	1	-1E+10	1	-1E+10	1	-1E+10	1	-1E+10	1
4902642	6	C	08/19/2024	02:36	-131.195	44.833	0	1729.90	0	2.2090	0	34.5580	0	27.610	0	1708.804	0	36.9	4	11.2	4	-1E+10	1	-1E+10	1	-1E+10	1	-1E+10	1	-1E+10	1	-1E+10	1
4902642	6	C	08/19/2024	02:36	-131.195	44.833	0	1750.40	0	2.1840	0	34.5620	0	27.616	0	1728.970	0	38.2	4	11.6	4	-1E+10	1	-1E+10	1	-1E+10	1	-1E+10	1	-1E+10	1	-1E+10	1
4902642	6	C	08/19/2024	02:36	-131.195	44.833	0	1769.80	0	2.1560	0	34.5650	0	27.620	0	1748.053	0	39.3	4	11.9	4	-1E+10	1	-1E+10	1	-1E+10	1	-1E+10	1	-1E+10	1	-1E+10	1
4902642	6	C	08/19/2024	02:36	-131.195	44.833	0	1789.70	0	2.1380	0	34.5670	0	27.623	0	1767.626	0	40.3	4	12.2	4	-1E+10	1	-1E+10	1	-1E+10	1	-1E+10	1	-1E+10	1	-1E+10	1
4902642	6	C	08/19/2024	02:36	-131.195	44.833	0	1810.20	0	2.1130	0	34.5700	0	27.628	0	1787.786	0	41.6	4	12.6	4	-1E+10	1	-1E+10	1	-1E+10	1	-1E+10	1	-1E+10	1	-1E+10	1
4902642	6	C	08/19/2024	02:36	-131.195	44.833	0	1829.40	0	2.0900	0	34.5730	0	27.632	0	1806.667	0	43.0	4	13.0	4	-1E+10	1	-1E+10	1	-1E+10	1	-1E+10	1	-1E+10	1	-1E+10	1
4902642	6	C	08/19/2024	02:36	-131.195	44.833	0	1849.60	0	2.0720	0	34.5760	0	27.636	0	1826.529	0	44.0	4	13.3	4	-1E+10	1	-1E+10	1	-1E+10	1	-1E+10	1	-1E+10	1	-1E+10	1
4902642	6	C	08/19/2024	02:36	-131.195	44.833	0	1869.80	0	2.0570	0	34.5790	0	27.640	0	1846.390	0	45.1	4	13.6	4	-1E+10	1	-1E+10	1	-1E+10	1	-1E+10	1	-1E+10	1	-1E+10	1
4902642	6	C	08/19/2024	02:36	-131.195	44.833	0	1889.70	0	2.0400	0	34.5810	0	27.643	0	1865.953	0	46.0	4	13.9	4	-1E+10	1	-1E+10	1	-1E+10	1	-1E+10	1	-1E+10	1	-1E+10	1
4902642	6	C	08/19/2024	02:36	-131.195	44.833	0	1909.40	0	2.0250	0	34.5840	0	27.647	0	1885.319	0	47.1	4	14.2	4	-1E+10	1	-1E+10	1	-1E+10	1	-1E+10	1	-1E+10	1	-1E+10	1
4902642	6	C	08/19/2024	02:36	-131.195	44.833	0	1929.40	0	2.0090	0	34.5860	0	27.650	0	1904.977	0	48.0	4	14.5	4	-1E+10	1	-1E+10	1	-1E+10	1	-1E+10	1	-1E+10	1	-1E+10	1
4902642	6	C	08/19/2024	02:36	-131.195	44.833	0	1949.50	0	1.9970	0	34.5880	0	27.652	0	1924.732	0	48.7	4	14.7	4	-1E+10	1	-1E+10	1	-1E+10	1	-1E+10	1	-1E+10	1	-1E+10	1
4902642	6	C	08/19/2024	02:36	-131.195	44.833	0	1969.80	0	1.9850	0	34.5900	0	27.655	0	1944.681	0	49.6	4	15.0	4	-1E+10	1	-1E+10	1	-1E+10	1	-1E+10	1	-1E+10	1	-1E+10	1
4902642	6	C	08/19/2024	02:36	-131.195	44.833	0	1989.80	0	1.9770	0	34.5910	0	27.656	0	1964.334	0	50.4	4	15.2	4	-1E+10	1	-1E+10	1	-1E+10	1	-1E+10	1	-1E+10	1	-1E+10	1
4902642	6	C	08/19/2024	02:36	-131.195	44.833	0	2009.60	0	1.9620	0	34.5930	4	27.659	0	1983.789	0	51.4	4	15.5	4	-1E+10	1	-1E+10	1	-1E+10	1	-1E+10	1	-1E+10	1	-1E+10	1
4902642	6	C	08/19/2024	02:36	-131.195	44.833	0	2029.60	0	1.9450	0	34.5960	4	27.663	0	2003.438	0	52.3	4	15.7	4	-1E+10	1	-1E+10	1	-1E+10	1	-1E+10	1	-1E+10	1	-1E+10	1
4902642	6	C	08/19/2024	02:36	-131.195	44.833	0	2050.30	0	1.9320	0	34.5980	4	27.666	0	2023.773	0	53.2	4	16.0	4	-1E+10	1	-1E+10	1	-1E+10	1	-1E+10	1	-1E+10	1	-1E+10	1
4902642	6	C	08/19/2024	02:36	-131.195	44.833	0	2069.90	0	1.9240	0	34.6000	4	27.668	0	2043.025	0	54.0	4	16.3	4	-1E+10	1	-1E+10	1	-1E+10	1	-1E+10	1	-1E+10	1	-1E+10	1
4902642	6	C	08/19/2024	02:36	-131.195	44.833	0	2089.80	0	1.9100	0	34.6020	4	27.671	0	2062.571	0	55.2	4	16.6	4	-1E+10	1	-1E+10	1	-1E+10	1	-1E+10	1	-1E+10	1	-1E+10	1
4902642	6	C	08/19/2024	02:36	-131.195	44.833	0	2109.80	0	1.9000	0	34.6040	4	27.673	0	2082.213	0	55.9	4	16.8	4	-1E+10	1	-1E+10	1	-1E+10	1	-1E+10	1	-1E+10	1	-1E+10	1
4902642	6	C	08/19/2024	02:36	-131.195	44.833	0	2129.20	0	1.8940	0	34.6050	4	27.675	0	2101.264	0	56.5	4	17.0	4	-1E+10	1	-1E+10	1	-1E+10	1	-1E+10	1	-1E+10	1	-1E+10	1
4902642	6	C	08/19/2024	02:36	-131.195	44.833	0	2149.70	0	1.8880	0	34.6060	4	27.676	0	2121.393	0	57.1	4	17.2	4	-1E+10	1	-1E+10	1	-1E+10	1	-1E+10	1	-1E+10	1	-1E+10	1
4902642	6	C	08/19/2024	02:36	-131.195	44.833	0	2169.80	0	1.8810	0	34.6070	4	27.678	0	2141.128	0	57.8	4	17.4	4	-1E+10	1	-1E+10	1	-1E+10	1	-1E+10	1	-1E+10	1	-1E+10	1
4902642	6	C	08/19/2024	02:36	-131.195	44.833	0	2190.20	0	1.8730	0	34.6090	4	27.680	0	2161.155	0	58.5	4	17.6	4	-1E+10	1	-1E+10	1	-1E+10	1	-1E+10	1	-1E+10	1	-1E+10	1
4902642	6	C	08/19/2024	02:36	-131.195	44.833	0	2209.90	0	1.8670	0	34.6100	4	27.681	0	2180.493	0	59.1	4	17.8	4	-1E+10	1	-1E+10	1	-1E+10	1	-1E+10	1	-1E+10	1	-1E+10	1
4902642	6	C	08/19/2024	02:36	-131.195	44.833	0	2229.70	0	1.8610	0	34.6110	4	27.683	0	2199.928	0	59.7	4	17.9	4	-1E+10	1	-1E+10	1	-1E+10	1	-1E+10	1	-1E+10	1	-1E+10	1
4902642	6	C	08/19/2024	02:36	-131.195	44.833	0	2249.70	0	1.8550	0	34.6130	4	27.685	0	2219.558	0	60.4	4	18.1	4	-1E+10	1	-1E+10	1	-1E+10	1	-1E+10	1	-1E+10	1	-1E+10	1
4902642	6	C	08/19/2024	02:36	-131.195	44.833	0	2269.50	0	1.8490	0	34.6140	4	27.686	0	2238.989	0	61.1	4	18.3	4	-1E+10	1	-1E+10	1	-1E+10	1	-1E+10	1	-1E+10	1	-1E+10	1
4902642	6	C	08/19/2024	02:36	-131.195	44.833	0	2289.50	0	1.8410	0	34.6150	4	27.688	0	2258.615	0	61.8	4	18.6	4	-1E+10	1	-1E+10	1	-1E+10	1	-1E+10	1	-1E+10	1	-1E+10	1
4902642	6	C	08/19/2024	02:36	-131.195	44.833	0	2309.80	0	1.8360	0	34.6160	4	27.689	0	2278.533	0	62.4	4	18.7	4	-1E+10	1	-1E+10	1	-1E+10	1	-1E+10	1	-1E+10	1	-1E+10	1
4902642	6	C	08/19/2024	02:36	-131.195	44.833	0	2330.10	0	1.8290	0	34.6180	4	27.691	0	2298.449	0	63.0	4	18.9	4	-1E+10	1	-1E+10	1	-1E+10	1	-1E+10	1	-1E+10	1	-1E+10	1
4902642	6	C	08/19/2024	02:36	-131.195	44.833	0	2350.30	0	1.8250	0	34.6180	4	27.692	0	2318.266	0	63.5	4	19.1	4	-1E+10	1	-1E+10	1	-1E+10	1	-1E+10	1	-1E+10	1	-1E+10	1
4902642	6	C	08/19/2024	02:36	-131.195	44.833	0	2369.80	0	1.8200	0	34.6190	4	27.693	0	2337.394	0	64.1	4	19.3	4	-1E+10	1	-1E+10	1	-1E+10	1	-1E+10	1	-1E+10	1	-1E+10	1
4902642	6	C	08/19/2024	02:36	-131.195	44.833	0	2389.20	0	1.8150	0	34.6200	4	27.694	0	2356.422	0	64.6	4	19.4	4	-1E+10	1	-1E+10	1	-1E+10	1	-1E+10	1	-1E+10	1	-1E+10	1
4902642	6	C	08/19/2024	02:36	-131.195	44.833	0	2408.90	0	1.8120	0	34.6210	4	27.695	0	2375.743	0	65.1	4	19.5	4	-1E+10	1	-1E+10	1	-1E+10	1	-1E+10	1	-1E+10	1	-1E+10	1
4902642	6	C	08/19/2024	02:36	-131.195	44.833	0	2430.20	0	1.8060	0	34.6220	4	27.697	0	2396.631	0	65.8	4	19.7	4	-1E+10	1	-1E+10	1	-1E+10	1	-1E+10	1	-1E+10	1	-1E+10	1
4902642	6	C	08/19/2024	02:36	-131.195	44.833	0	2449.90	0	1.8000	0	34.6230	4	27.698	0	2415.948	0	66.4	4	19.9	4	-1E+10	1	-1E+10	1	-1E+10	1	-1E+10	1	-1E+10	1	-1E+10	1
4902642	6	C	08/19/2024	02:36	-131.195	44.833	0	2469.80	0	1.7940	0	34.6240	4	27.700	0	2435.459	0	67.1	4	20.1	4	-1E+10	1	-1E+10	1	-1E+10	1	-1E+10	1	-1E+10	1	-1E+10	1
4902642	6	C	08/19/2024	02:36	-131.195	44.833	0	2489.70	0	1.7890	0	34.6250	4	27.701	0	2454.969	0	67.7	4	20.3	4	-1E+10	1	-1E+10	1	-1E+10	1	-1E+10	1	-1E+10	1	-1E+10	1
4902642	6	C	08/19/2024	02:36	-131.195	44.833	0	2509.70	0	1.7840	0	34.6260	4	27.702	0	2474.575	0	68.4	4	20.5	4	-1E+10	1	-1E+10	1	-1E+10	1	-1E+10	1	-1E+10	1	-1E+10	1
4902642	6	C	08/19/2024	02:36	-131.195	44.833	0	2529.70	0	1.7780	0	34.6270	4	27.704	0	2494.179	0	69.1	4	20.7	4	-1E+10	1	-1E+10	1	-1E+10	1	-1E+10	1	-1E+10	1	-1E+10	1
4902642	6	C	08/19/2024	02:36	-131.195	44.833	0	2549.70	0	1.7720	0	34.6280	4	27.705	0	2513.781	0	69.7	4	20.9	4	-1E+10	1	-1E+10	1	-1E+10	1	-1E+10	1	-1E+10	1	-1E+10	1
4902642	6	C	08/19/2024	02:36	-131.195	44.833	0	2569.70	0	1.7660	0	34.6290	4	27.706	0	2533.382	0	70.4	4	21.1	4	-1E+10	1	-1E+10	1	-1E+10	1	-1E+10	1	-1E+10	1	-1E+10	1
4902642	6	C	08/19/2024	02:36	-131.195	44.833	0	2589.60	0	1.7620	0	34.6290	4	27.707	0	2552.883	0	71.0	4	21.3	4	-1E+10	1	-1E+10	1	-1E+10	1	-1E+10	1	-1E+10	1	-1E+10	1
4902642	6	C	08/19/2024	02:36	-131.195	44.833	0	2609.80	0	1.7550	0	34.6310	4	27.709	0	2572.676	0	71.8	4	21.5	4	-1E+10	1	-1E+10	1	-1E+10	1	-1E+10	1	-1E+10	1	-1E+10	1
4902642	6	C	08/19/2024	02:36	-131.195	44.833	0	2630.00	0	1.7480	0	34.6320	4	27.710	0	2592.467	0	72.6	4	21.8	4	-1E+10	1	-1E+10	1	-1E+10	1	-1E+10	1	-1E+10	1	-1E+10	1
4902642	6	C	08/19/2024	02:36	-131.195	44.833	0	2649.90	0	1.7410	0	34.6330	4	27.712	0	2611.962	0	73.4	4	22.0	4	-1E+10	1	-1E+10	1	-1E+10	1	-1E+10	1	-1E+10	1	-1E+10	1
4902642	6	C	08/19/2024	02:36	-131.195	44.833	0	2670.10	0	1.7330	0	34.6340	4	27.713	0	2631.750	0	74.4	4	22.3	4	-1E+10	1	-1E+10	1	-1E+10	1	-1E+10	1	-1E+10	1	-1E+10	1
4902642	6	C	08/19/2024	02:36	-131.195	44.833	0	2689.90	0	1.7230	0	34.6350	4	27.715	0	2651.144	0	75.4	4	22.6	4	-1E+10	1	-1E+10	1	-1E+10	1	-1E+10	1	-1E+10	1	-1E+10	1
4902642	6	C	08/19/2024	02:36	-131.195	44.833	0	2709.60	0	1.7170	0	34.6360	4	27.716	0	2670.438	0	76.1	4	22.8	4	-1E+10	1	-1E+10	1	-1E+10	1	-1E+10	1	-1E+10	1	-1E+10	1
4902642	6	C	08/19/2024	02:36	-131.195	44.833	0	2729.90	0	1.7100	0	34.6370	4	27.718	0	2690.318	0	76.9	4	23.0	4	-1E+10	1	-1E+10	1	-1E+10	1	-1E+10	1	-1E+10	1	-1E+10	1
4902642	6	C	08/19/2024	02:36	-131.195	44.833	0	2750.00	0	1.7070	0	34.6380	4	27.719	0	2710.001	0	77.3	4	23.1	4	-1E+10	1	-1E+10	1	-1E+10	1	-1E+10	1	-1E+10	1	-1E+10	1
4902642	6	C	08/19/2024	02:36	-131.195	44.833	0	2770.60	0	1.7020	0	34.6380	4	27.719	0	2730.171	0	78.1	4	23.4	4	-1E+10	1	-1E+10	1	-1E+10	1	-1E+10	1	-1E+10	1	-1E+10	1
4902642	6	C	08/19/2024	02:36	-131.195	44.833	0	2789.90	0	1.6960	0	34.6390	4	27.721	0	2749.067	0	78.7	4	23.6	4	-1E+10	1	-1E+10	1	-1E+10	1	-1E+10	1	-1E+10	1	-1E+10	1
4902642	6	C	08/19/2024	02:36	-131.195	44.833	0	2809.80	0	1.6890	0	34.6400	4	27.722	0	2768.548	0	79.5	4	23.8	4	-1E+10	1	-1E+10	1	-1E+10	1	-1E+10	1	-1E+10	1	-1E+10	1
4902642	6	C	08/19/2024	02:36	-131.195	44.833	0	2830.00	0	1.6840	0	34.6410	4	27.724	0	2788.321	0	80.3	4	24.0	4	-1E+10	1	-1E+10	1	-1E+10	1	-1E+10	1	-1E+10	1	-1E+10	1
4902642	6	C	08/19/2024	02:36	-131.195	44.833	0	2849.90	0	1.6780	0	34.6420	4	27.725	0	2807.799	0	81.1	4	24.3	4	-1E+10	1	-1E+10	1	-1E+10	1	-1E+10	1	-1E+10	1	-1E+10	1
4902642	6	C	08/19/2024	02:36	-131.195	44.833	0	2869.90	0	1.6720	0	34.6430	4	27.726	0	2827.373	0	81.9	4	24.5	4	-1E+10	1	-1E+10	1	-1E+10	1	-1E+10	1	-1E+10	1	-1E+10	1
4902642	6	C	08/19/2024	02:36	-131.195	44.833	0	2889.80	0	1.6650	0	34.6440	4	27.728	0	2846.847	0	82.5	4	24.7	4	-1E+10	1	-1E+10	1	-1E+10	1	-1E+10	1	-1E+10	1	-1E+10	1
4902642	6	C	08/19/2024	02:36	-131.195	44.833	0	2909.40	0	1.6610	0	34.6450	4	27.729	0	2866.026	0	83.3	4	24.9	4	-1E+10	1	-1E+10	1	-1E+10	1	-1E+10	1	-1E+10	1	-1E+10	1
4902642	6	C	08/19/2024	02:36	-131.195	44.833	0	2930.00	0	1.6550	0	34.6460	4	27.730	0	2886.182	0	84.1	4	25.2	4	-1E+10	1	-1E+10	1	-1E+10	1	-1E+10	1	-1E+10	1	-1E+10	1
4902642	6	C	08/19/2024	02:36	-131.195	44.833	0	2950.20	0	1.6480	0	34.6470	4	27.732	0	2905.944	0	85.0	4	25.4	4	-1E+10	1	-1E+10	1	-1E+10	1	-1E+10	1	-1E+10	1	-1E+10	1
4902642	6	C	08/19/2024	02:36	-131.195	44.833	0	2970.00	0	1.6420	0	34.6480	4	27.733	0	2925.313	0	86.0	4	25.7	4	-1E+10	1	-1E+10	1	-1E+10	1	-1E+10	1	-1E+10	1	-1E+10	1
4902642	6	C	08/19/2024	02:36	-131.195	44.833	0	2990.20	0	1.6320	0	34.6490	4	27.735	0	2945.072	0	87.1	4	26.0	4	-1E+10	1	-1E+10	1	-1E+10	1	-1E+10	1	-1E+10	1	-1E+10	1
4902642	6	C	08/19/2024	02:36	-131.195	44.833	0	3010.20	0	1.6270	0	34.6500	4	27.736	0	2964.634	0	87.9	4	26.3	4	-1E+10	1	-1E+10	1	-1E+10	1	-1E+10	1	-1E+10	1	-1E+10	1
4902642	6	C	08/19/2024	02:36	-131.195	44.833	0	3029.90	0	1.6190	0	34.6510	4	27.738	0	2983.900	0	89.1	4	26.6	4	-1E+10	1	-1E+10	1	-1E+10	1	-1E+10	1	-1E+10	1	-1E+10	1
4902642	6	C	08/19/2024	02:36	-131.195	44.833	0	3050.40	0	1.6050	0	34.6530	4	27.740	0	3003.947	0	90.6	4	27.1	4	-1E+10	1	-1E+10	1	-1E+10	1	-1E+10	1	-1E+10	1	-1E+10	1
4902642	6	C	08/19/2024	02:36	-131.195	44.833	0	3070.00	0	1.5940	0	34.6550	4	27.743	0	3023.112	0	92.1	4	27.5	4	-1E+10	1	-1E+10	1	-1E+10	1	-1E+10	1	-1E+10	1	-1E+10	1
4902642	6	C	08/19/2024	02:36	-131.195	44.833	0	3089.80	0	1.5790	0	34.6570	4	27.746	0	3042.471	0	93.7	4	28.0	4	-1E+10	1	-1E+10	1	-1E+10	1	-1E+10	1	-1E+10	1	-1E+10	1
4902642	6	C	08/19/2024	02:36	-131.195	44.833	0	3109.60	0	1.5720	0	34.6580	4	27.747	0	3061.828	0	94.7	4	28.2	4	-1E+10	1	-1E+10	1	-1E+10	1	-1E+10	1	-1E+10	1	-1E+10	1
4902642	6	C	08/19/2024	02:36	-131.195	44.833	0	3129.80	0	1.5650	0	34.6590	4	27.748	0	3081.575	0	95.6	4	28.5	4	-1E+10	1	-1E+10	1	-1E+10	1	-1E+10	1	-1E+10	1	-1E+10	1
4902642	6	C	08/19/2024	02:36	-131.195	44.833	0	3150.10	0	1.5570	0	34.6600	4	27.750	0	3101.417	0	96.4	4	28.8	4	-1E+10	1	-1E+10	1	-1E+10	1	-1E+10	1	-1E+10	1	-1E+10	1
4902642	6	C	08/19/2024	02:36	-131.195	44.833	0	3170.30	0	1.5540	0	34.6610	4	27.751	0	3121.160	0	96.9	4	28.9	4	-1E+10	1	-1E+10	1	-1E+10	1	-1E+10	1	-1E+10	1	-1E+10	1
4902642	6	C	08/19/2024	02:36	-131.195	44.833	0	3188.70	0	1.5520	0	34.6620	4	27.752	0	3139.142	0	97.4	4	29.1	4	-1E+10	1	-1E+10	1	-1E+10	1	-1E+10	1	-1E+10	1	-1E+10	1
4902642	6	C	08/19/2024	02:36	-131.195	44.833	0	3197.70	0	1.5510	0	34.6620	4	27.752	0	3147.937	0	97.8	4	29.2	4	-1E+10	1	-1E+10	1	-1E+10	1	-1E+10	1	-1E+10	1	-1E+10	1
4902642	6	C	08/19/2024	02:36	-131.195	44.833	0	3198.50	0	1.5510	0	34.6620	4	27.752	0	3148.719	0	97.8	4	29.2	4	-1E+10	1	-1E+10	1	-1E+10	1	-1E+10	1	-1E+10	1	-1E+10	1
4902642	6	C	08/19/2024	02:36	-131.195	44.833	0	3199.60	0	1.5500	0	34.6620	4	27.752	0	3149.794	0	97.9	4	29.2	4	-1E+10	1	-1E+10	1	-1E+10	1	-1E+10	1	-1E+10	1	-1E+10	1
4902642	6	C	08/19/2024	02:36	-131.195	44.833	0	3200.80	0	1.5490	0	34.6630	4	27.753	0	3150.967	0	97.9	4	29.2	4	-1E+10	1	-1E+10	1	-1E+10	1	-1E+10	1	-1E+10	1	-1E+10	1
4902642	6	C	08/19/2024	02:36	-131.195	44.833	0	3201.60	0	1.5480	0	34.6630	4	27.753	0	3151.748	0	97.9	4	29.2	4	-1E+10	1	-1E+10	1	-1E+10	1	-1E+10	1	-1E+10	1	-1E+10	1
4902642	6	C	08/19/2024	02:36	-131.195	44.833	0	3202.40	0	1.5480	0	34.6630	4	27.753	0	3152.530	0	97.9	4	29.2	4	-1E+10	1	-1E+10	1	-1E+10	1	-1E+10	1	-1E+10	1	-1E+10	1
4902642	6	C	08/19/2024	02:36	-131.195	44.833	0	3203.60	0	1.5480	0	34.6630	4	27.753	0	3153.703	0	98.0	4	29.2	4	-1E+10	1	-1E+10	1	-1E+10	1	-1E+10	1	-1E+10	1	-1E+10	1
4902642	6	C	08/19/2024	02:36	-131.195	44.833	0	3204.70	0	1.5480	0	34.6630	4	27.753	0	3154.777	0	98.0	4	29.2	4	-1E+10	1	-1E+10	1	-1E+10	1	-1E+10	1	-1E+10	1	-1E+10	1
4902642	6	C	08/19/2024	02:36	-131.195	44.833	0	3205.60	0	1.5480	0	34.6630	4	27.753	0	3155.657	0	98.1	4	29.3	4	-1E+10	1	-1E+10	1	-1E+10	1	-1E+10	1	-1E+10	1	-1E+10	1
4902642	6	C	08/19/2024	02:36	-131.195	44.833	0	3206.30	0	1.5480	0	34.6630	4	27.753	0	3156.341	0	98.1	4	29.3	4	-1E+10	1	-1E+10	1	-1E+10	1	-1E+10	1	-1E+10	1	-1E+10	1
4902642	6	C	08/19/2024	02:36	-131.195	44.833	0	3207.60	0	1.5470	0	34.6630	4	27.753	0	3157.611	0	98.1	4	29.3	4	-1E+10	1	-1E+10	1	-1E+10	1	-1E+10	1	-1E+10	1	-1E+10	1
4902642	6	C	08/19/2024	02:36	-131.195	44.833	0	3208.70	0	1.5470	0	34.6640	4	27.754	0	3158.686	0	98.2	4	29.3	4	-1E+10	1	-1E+10	1	-1E+10	1	-1E+10	1	-1E+10	1	-1E+10	1
4902642	6	C	08/19/2024	02:36	-131.195	44.833	0	3209.50	0	1.5470	0	34.6630	4	27.753	0	3159.468	0	98.2	4	29.3	4	-1E+10	1	-1E+10	1	-1E+10	1	-1E+10	1	-1E+10	1	-1E+10	1
4902642	6	C	08/19/2024	02:36	-131.195	44.833	0	3210.50	0	1.5470	0	34.6630	4	27.753	0	3160.445	0	98.2	4	29.3	4	-1E+10	1	-1E+10	1	-1E+10	1	-1E+10	1	-1E+10	1	-1E+10	1
4902642	6	C	08/19/2024	02:36	-131.195	44.833	0	3211.60	0	1.5470	0	34.6630	4	27.753	0	3161.520	0	98.3	4	29.3	4	-1E+10	1	-1E+10	1	-1E+10	1	-1E+10	1	-1E+10	1	-1E+10	1
4902642	6	C	08/19/2024	02:36	-131.195	44.833	0	3212.80	0	1.5470	0	34.6630	4	27.753	0	3162.693	0	98.3	4	29.3	4	-1E+10	1	-1E+10	1	-1E+10	1	-1E+10	1	-1E+10	1	-1E+10	1
4902642	6	C	08/19/2024	02:36	-131.195	44.833	0	3213.70	0	1.5460	0	34.6630	4	27.754	0	3163.572	0	98.4	4	29.4	4	-1E+10	1	-1E+10	1	-1E+10	1	-1E+10	1	-1E+10	1	-1E+10	1
4902642	6	C	08/19/2024	02:36	-131.195	44.833	0	3214.50	0	1.5460	0	34.6630	4	27.754	0	3164.354	0	98.4	4	29.4	4	-1E+10	1	-1E+10	1	-1E+10	1	-1E+10	1	-1E+10	1	-1E+10	1
4902642	6	C	08/19/2024	02:36	-131.195	44.833	0	3215.40	0	1.5460	0	34.6630	4	27.754	0	3165.233	0	98.5	4	29.4	4	-1E+10	1	-1E+10	1	-1E+10	1	-1E+10	1	-1E+10	1	-1E+10	1
4902642	6	C	08/19/2024	02:36	-131.195	44.833	0	3216.50	0	1.5440	0	34.6640	4	27.754	0	3166.308	0	98.5	4	29.4	4	-1E+10	1	-1E+10	1	-1E+10	1	-1E+10	1	-1E+10	1	-1E+10	1
4902642	6	C	08/19/2024	02:36	-131.195	44.833	0	3217.80	0	1.5440	0	34.6640	4	27.755	0	3167.578	0	98.5	4	29.4	4	-1E+10	1	-1E+10	1	-1E+10	1	-1E+10	1	-1E+10	1	-1E+10	1
4902642	6	C	08/19/2024	02:36	-131.195	44.833	0	3218.70	0	1.5440	0	34.6640	4	27.755	0	3168.458	0	98.5	4	29.4	4	-1E+10	1	-1E+10	1	-1E+10	1	-1E+10	1	-1E+10	1	-1E+10	1
4902642	6	C	08/19/2024	02:36	-131.195	44.833	0	3219.50	0	1.5440	0	34.6640	4	27.755	0	3169.239	0	98.5	4	29.4	4	-1E+10	1	-1E+10	1	-1E+10	1	-1E+10	1	-1E+10	1	-1E+10	1
4902642	6	C	08/19/2024	02:36	-131.195	44.833	0	3220.30	0	1.5440	0	34.6640	4	27.755	0	3170.021	0	98.6	4	29.4	4	-1E+10	1	-1E+10	1	-1E+10	1	-1E+10	1	-1E+10	1	-1E+10	1
4902642	6	C	08/19/2024	02:36	-131.195	44.833	0	3221.60	0	1.5430	0	34.6640	4	27.755	0	3171.291	0	98.6	4	29.4	4	-1E+10	1	-1E+10	1	-1E+10	1	-1E+10	1	-1E+10	1	-1E+10	1
4902642	6	C	08/19/2024	02:36	-131.195	44.833	0	3222.80	0	1.5430	0	34.6640	4	27.755	0	3172.464	0	98.6	4	29.4	4	-1E+10	1	-1E+10	1	-1E+10	1	-1E+10	1	-1E+10	1	-1E+10	1
4902642	6	C	08/19/2024	02:36	-131.195	44.833	0	3223.60	0	1.5440	0	34.6640	4	27.755	0	3173.245	0	98.7	4	29.4	4	-1E+10	1	-1E+10	1	-1E+10	1	-1E+10	1	-1E+10	1	-1E+10	1
4902642	6	C	08/19/2024	02:36	-131.195	44.833	0	3224.40	0	1.5440	0	34.6640	4	27.755	0	3174.027	0	98.6	4	29.4	4	-1E+10	1	-1E+10	1	-1E+10	1	-1E+10	1	-1E+10	1	-1E+10	1
4902642	6	C	08/19/2024	02:36	-131.195	44.833	0	3225.20	0	1.5430	0	34.6640	4	27.755	0	3174.809	0	98.7	4	29.4	4	-1E+10	1	-1E+10	1	-1E+10	1	-1E+10	1	-1E+10	1	-1E+10	1
4902642	6	C	08/19/2024	02:36	-131.195	44.833	0	3226.50	0	1.5430	0	34.6640	4	27.755	0	3176.079	0	98.7	4	29.4	4	-1E+10	1	-1E+10	1	-1E+10	1	-1E+10	1	-1E+10	1	-1E+10	1
4902642	6	C	08/19/2024	02:36	-131.195	44.833	0	3227.90	0	1.5430	0	34.6640	4	27.755	0	3177.447	0	98.8	4	29.5	4	-1E+10	1	-1E+10	1	-1E+10	1	-1E+10	1	-1E+10	1	-1E+10	1
4902642	6	C	08/19/2024	02:36	-131.195	44.833	0	3228.80	0	1.5430	0	34.6640	4	27.755	0	3178.326	0	98.8	4	29.5	4	-1E+10	1	-1E+10	1	-1E+10	1	-1E+10	1	-1E+10	1	-1E+10	1
4902642	6	C	08/19/2024	02:36	-131.195	44.833	0	3229.60	0	1.5430	0	34.6640	4	27.755	0	3179.108	0	98.8	4	29.5	4	-1E+10	1	-1E+10	1	-1E+10	1	-1E+10	1	-1E+10	1	-1E+10	1
4902642	6	C	08/19/2024	02:36	-131.195	44.833	0	3230.50	0	1.5430	0	34.6640	4	27.755	0	3179.987	0	98.8	4	29.5	4	-1E+10	1	-1E+10	1	-1E+10	1	-1E+10	1	-1E+10	1	-1E+10	1
4902642	6	C	08/19/2024	02:36	-131.195	44.833	0	3231.30	0	1.5440	0	34.6640	4	27.755	0	3180.769	0	98.9	4	29.5	4	-1E+10	1	-1E+10	1	-1E+10	1	-1E+10	1	-1E+10	1	-1E+10	1
4902642	6	C	08/19/2024	02:36	-131.195	44.833	0	3232.30	0	1.5430	0	34.6640	4	27.755	0	3181.746	0	98.9	4	29.5	4	-1E+10	1	-1E+10	1	-1E+10	1	-1E+10	1	-1E+10	1	-1E+10	1
4902642	6	C	08/19/2024	02:36	-131.195	44.833	0	3233.50	0	1.5430	0	34.6640	4	27.755	0	3182.918	0	99.0	4	29.5	4	-1E+10	1	-1E+10	1	-1E+10	1	-1E+10	1	-1E+10	1	-1E+10	1
4902642	6	C	08/19/2024	02:36	-131.195	44.833	0	3234.80	0	1.5430	0	34.6640	4	27.755	0	3184.189	0	99.1	4	29.6	4	-1E+10	1	-1E+10	1	-1E+10	1	-1E+10	1	-1E+10	1	-1E+10	1
4902642	6	C	08/19/2024	02:36	-131.195	44.833	0	3235.50	0	1.5430	0	34.6640	4	27.755	0	3184.872	0	99.1	4	29.6	4	-1E+10	1	-1E+10	1	-1E+10	1	-1E+10	1	-1E+10	1	-1E+10	1
4902642	6	C	08/19/2024	02:36	-131.195	44.833	0	3236.80	0	1.5420	0	34.6650	4	27.756	0	3186.143	0	99.2	4	29.6	4	-1E+10	1	-1E+10	1	-1E+10	1	-1E+10	1	-1E+10	1	-1E+10	1
4902642	6	C	08/19/2024	02:36	-131.195	44.833	0	3237.40	0	1.5400	0	34.6660	4	27.757	0	3186.729	0	99.3	4	29.6	4	-1E+10	1	-1E+10	1	-1E+10	1	-1E+10	1	-1E+10	1	-1E+10	1
4902642	6	C	08/19/2024	02:36	-131.195	44.833	0	3238.40	0	1.5410	0	34.6650	4	27.756	0	3187.706	0	99.2	4	29.6	4	-1E+10	1	-1E+10	1	-1E+10	1	-1E+10	1	-1E+10	1	-1E+10	1
4902642	6	C	08/19/2024	02:36	-131.195	44.833	0	3239.70	0	1.5410	0	34.6650	4	27.756	0	3188.976	0	99.3	4	29.6	4	-1E+10	1	-1E+10	1	-1E+10	1	-1E+10	1	-1E+10	1	-1E+10	1
4902642	6	C	08/19/2024	02:36	-131.195	44.833	0	3240.70	0	1.5400	0	34.6650	4	27.756	0	3189.953	0	99.4	4	29.6	4	-1E+10	1	-1E+10	1	-1E+10	1	-1E+10	1	-1E+10	1	-1E+10	1
4902642	6	C	08/19/2024	02:36	-131.195	44.833	0	3241.60	0	1.5400	0	34.6650	4	27.756	0	3190.832	0	99.3	4	29.6	4	-1E+10	1	-1E+10	1	-1E+10	1	-1E+10	1	-1E+10	1	-1E+10	1
4902642	6	C	08/19/2024	02:36	-131.195	44.833	0	3242.50	0	1.5400	0	34.6650	4	27.756	0	3191.712	0	99.4	4	29.6	4	-1E+10	1	-1E+10	1	-1E+10	1	-1E+10	1	-1E+10	1	-1E+10	1
4902642	6	C	08/19/2024	02:36	-131.195	44.833	0	3243.30	0	1.5400	0	34.6650	4	27.756	0	3192.493	0	99.3	4	29.6	4	-1E+10	1	-1E+10	1	-1E+10	1	-1E+10	1	-1E+10	1	-1E+10	1
4902642	6	C	08/19/2024	02:36	-131.195	44.833	0	3244.50	0	1.5380	0	34.6650	4	27.756	0	3193.666	0	99.3	4	29.6	4	-1E+10	1	-1E+10	1	-1E+10	1	-1E+10	1	-1E+10	1	-1E+10	1
4902642	6	C	08/19/2024	02:36	-131.195	44.833	0	3245.60	0	1.5380	0	34.6650	4	27.756	0	3194.740	0	99.3	4	29.6	4	-1E+10	1	-1E+10	1	-1E+10	1	-1E+10	1	-1E+10	1	-1E+10	1
4902642	6	C	08/19/2024	02:36	-131.195	44.833	0	3246.50	0	1.5380	0	34.6650	4	27.756	0	3195.620	0	99.4	4	29.6	4	-1E+10	1	-1E+10	1	-1E+10	1	-1E+10	1	-1E+10	1	-1E+10	1
4902642	6	C	08/19/2024	02:36	-131.195	44.833	0																										
4902642	7	C	08/29/2024	01:51	-131.178	44.868	0	2.00	0	18.3420	0	32.4720	0	23.255	0	1.984	0	219.1	4	92.7	4	-1E+10	1	-1E+10	1	-1E+10	1	-1E+10	1	-1E+10	1	-1E+10	1
4902642	7	C	08/29/2024	01:51	-131.178	44.868	0	2.50	0	18.3460	0	32.4690	0	23.251	0	2.480	0	219.2	4	92.7	4	-1E+10	1	-1E+10	1	-1E+10	1	-1E+10	1	-1E+10	1	-1E+10	1
4902642	7	C	08/29/2024	01:51	-131.178	44.868	0	2.60	0	18.3450	0	32.4710	0	23.253	0	2.579	0	219.0	4	92.6	4	-1E+10	1	-1E+10	1	-1E+10	1	-1E+10	1	-1E+10	1	-1E+10	1
4902642	7	C	08/29/2024	01:51	-131.178	44.868	0	2.90	0	18.3440	0	32.4700	0	23.253	0	2.876	0	-1e10	1	-1e10	1	-1E+10	1	-1E+10	1	-1E+10	1	-1E+10	1	-1E+10	1	-1E+10	1
4902642	7	C	08/29/2024	01:51	-131.178	44.868	0	3.00	0	18.3460	0	32.4700	0	23.252	0	2.976	0	219.1	4	92.6	4	-1E+10	1	-1E+10	1	-1E+10	1	-1E+10	1	-1E+10	1	-1E+10	1
4902642	7	C	08/29/2024	01:51	-131.178	44.868	0	3.30	0	18.3490	0	32.4690	0	23.251	0	3.273	0	219.0	4	92.6	4	-1E+10	1	-1E+10	1	-1E+10	1	-1E+10	1	-1E+10	1	-1E+10	1
4902642	7	C	08/29/2024	01:51	-131.178	44.868	0	4.60	0	18.3490	0	32.4700	0	23.252	0	4.563	0	219.1	4	92.7	4	-1E+10	1	-1E+10	1	-1E+10	1	-1E+10	1	-1E+10	1	-1E+10	1
4902642	7	C	08/29/2024	01:51	-131.178	44.868	0	5.60	0	18.3480	0	32.4700	0	23.252	0	5.555	0	219.1	4	92.6	4	-1E+10	1	-1E+10	1	-1E+10	1	-1E+10	1	-1E+10	1	-1E+10	1
4902642	7	C	08/29/2024	01:51	-131.178	44.868	0	6.60	0	18.3480	0	32.4700	0	23.252	0	6.546	0	219.1	4	92.7	4	-1E+10	1	-1E+10	1	-1E+10	1	-1E+10	1	-1E+10	1	-1E+10	1
4902642	7	C	08/29/2024	01:51	-131.178	44.868	0	7.60	0	18.3480	0	32.4690	0	23.251	0	7.538	0	219.2	4	92.7	4	-1E+10	1	-1E+10	1	-1E+10	1	-1E+10	1	-1E+10	1	-1E+10	1
4902642	7	C	08/29/2024	01:51	-131.178	44.868	0	8.70	0	18.3490	0	32.4690	0	23.251	0	8.629	0	219.2	4	92.7	4	-1E+10	1	-1E+10	1	-1E+10	1	-1E+10	1	-1E+10	1	-1E+10	1
4902642	7	C	08/29/2024	01:51	-131.178	44.868	0	9.60	0	18.3520	0	32.4690	0	23.250	0	9.522	0	219.3	4	92.7	4	-1E+10	1	-1E+10	1	-1E+10	1	-1E+10	1	-1E+10	1	-1E+10	1
4902642	7	C	08/29/2024	01:51	-131.178	44.868	0	14.50	0	18.3400	0	32.4690	0	23.253	0	14.382	0	220.0	4	93.0	4	-1E+10	1	-1E+10	1	-1E+10	1	-1E+10	1	-1E+10	1	-1E+10	1
4902642	7	C	08/29/2024	01:51	-131.178	44.868	0	24.60	0	18.2800	0	32.4570	0	23.259	0	24.399	0	226.7	4	95.7	4	-1E+10	1	-1E+10	1	-1E+10	1	-1E+10	1	-1E+10	1	-1E+10	1
4902642	7	C	08/29/2024	01:51	-131.178	44.868	0	34.60	0	14.8210	0	32.4900	0	24.078	0	34.317	0	253.4	4	100.1	4	-1E+10	1	-1E+10	1	-1E+10	1	-1E+10	1	-1E+10	1	-1E+10	1
4902642	7	C	08/29/2024	01:51	-131.178	44.868	0	45.10	0	12.1150	0	32.5290	0	24.651	0	44.730	0	259.5	4	97.1	4	-1E+10	1	-1E+10	1	-1E+10	1	-1E+10	1	-1E+10	1	-1E+10	1
4902642	7	C	08/29/2024	01:51	-131.178	44.868	0	54.90	0	10.4880	0	32.5420	0	24.952	0	54.448	0	255.0	4	92.2	4	-1E+10	1	-1E+10	1	-1E+10	1	-1E+10	1	-1E+10	1	-1E+10	1
4902642	7	C	08/29/2024	01:51	-131.178	44.868	0	64.90	0	9.8470	0	32.5390	0	25.058	0	64.364	0	251.2	4	89.6	4	-1E+10	1	-1E+10	1	-1E+10	1	-1E+10	1	-1E+10	1	-1E+10	1
4902642	7	C	08/29/2024	01:51	-131.178	44.868	0	75.20	0	9.7310	0	32.5780	0	25.107	0	74.577	0	247.5	4	88.1	4	-1E+10	1	-1E+10	1	-1E+10	1	-1E+10	1	-1E+10	1	-1E+10	1
4902642	7	C	08/29/2024	01:51	-131.178	44.868	0	85.00	0	9.5470	0	32.5820	0	25.140	0	84.294	0	244.6	4	86.7	4	-1E+10	1	-1E+10	1	-1E+10	1	-1E+10	1	-1E+10	1	-1E+10	1
4902642	7	C	08/29/2024	01:51	-131.178	44.868	0	95.10	0	9.3500	0	32.5900	0	25.178	0	94.307	0	239.2	4	84.4	4	-1E+10	1	-1E+10	1	-1E+10	1	-1E+10	1	-1E+10	1	-1E+10	1
4902642	7	C	08/29/2024	01:51	-131.178	44.868	0	104.70	0	9.1640	0	32.6110	0	25.224	0	103.825	0	232.3	4	81.7	4	-1E+10	1	-1E+10	1	-1E+10	1	-1E+10	1	-1E+10	1	-1E+10	1
4902642	7	C	08/29/2024	01:51	-131.178	44.868	0	114.90	0	8.7320	0	32.6480	0	25.320	0	113.937	0	218.8	4	76.2	4	-1E+10	1	-1E+10	1	-1E+10	1	-1E+10	1	-1E+10	1	-1E+10	1
4902642	7	C	08/29/2024	01:51	-131.178	44.868	0	124.90	0	8.4490	0	32.8560	0	25.526	0	123.850	0	195.3	4	67.7	4	-1E+10	1	-1E+10	1	-1E+10	1	-1E+10	1	-1E+10	1	-1E+10	1
4902642	7	C	08/29/2024	01:51	-131.178	44.868	0	134.90	0	8.1340	0	33.0960	0	25.761	0	133.763	0	176.1	4	60.7	4	-1E+10	1	-1E+10	1	-1E+10	1	-1E+10	1	-1E+10	1	-1E+10	1
4902642	7	C	08/29/2024	01:51	-131.178	44.868	0	145.00	0	7.9400	0	33.2680	0	25.925	0	143.774	0	163.6	4	56.2	4	-1E+10	1	-1E+10	1	-1E+10	1	-1E+10	1	-1E+10	1	-1E+10	1
4902642	7	C	08/29/2024	01:51	-131.178	44.868	0	155.20	0	7.6890	0	33.4970	0	26.141	0	153.884	0	147.3	4	50.4	4	-1E+10	1	-1E+10	1	-1E+10	1	-1E+10	1	-1E+10	1	-1E+10	1
4902642	7	C	08/29/2024	01:51	-131.178	44.868	0	164.60	0	7.6000	0	33.6450	0	26.270	0	163.201	0	137.2	4	46.9	4	-1E+10	1	-1E+10	1	-1E+10	1	-1E+10	1	-1E+10	1	-1E+10	1
4902642	7	C	08/29/2024	01:51	-131.178	44.868	0	174.60	0	7.4330	0	33.7090	0	26.344	0	173.112	0	134.5	4	45.9	4	-1E+10	1	-1E+10	1	-1E+10	1	-1E+10	1	-1E+10	1	-1E+10	1
4902642	7	C	08/29/2024	01:51	-131.178	44.868	0	184.60	0	7.2920	0	33.7550	0	26.400	0	183.022	0	130.0	4	44.2	4	-1E+10	1	-1E+10	1	-1E+10	1	-1E+10	1	-1E+10	1	-1E+10	1
4902642	7	C	08/29/2024	01:51	-131.178	44.868	0	191.80	0	7.2070	0	33.7860	0	26.437	0	190.157	0	124.3	4	42.2	4	-1E+10	1	-1E+10	1	-1E+10	1	-1E+10	1	-1E+10	1	-1E+10	1
4902642	7	C	08/29/2024	01:51	-131.178	44.868	0	203.50	0	7.1230	0	33.8240	0	26.478	0	201.751	0	118.1	4	40.0	4	-1E+10	1	-1E+10	1	-1E+10	1	-1E+10	1	-1E+10	1	-1E+10	1
4902642	7	C	08/29/2024	01:51	-131.178	44.868	0	223.40	0	6.8500	0	33.8500	0	26.536	0	221.469	0	112.2	4	37.8	4	-1E+10	1	-1E+10	1	-1E+10	1	-1E+10	1	-1E+10	1	-1E+10	1
4902642	7	C	08/29/2024	01:51	-131.178	44.868	0	243.60	0	6.5630	0	33.8730	0	26.593	0	241.483	0	99.8	4	33.4	4	-1E+10	1	-1E+10	1	-1E+10	1	-1E+10	1	-1E+10	1	-1E+10	1
4902642	7	C	08/29/2024	01:51	-131.178	44.868	0	263.10	0	6.3740	0	33.8960	0	26.636	0	260.801	0	88.7	4	29.6	4	-1E+10	1	-1E+10	1	-1E+10	1	-1E+10	1	-1E+10	1	-1E+10	1
4902642	7	C	08/29/2024	01:51	-131.178	44.868	0	283.70	0	6.2190	0	33.9150	0	26.671	0	281.207	0	80.3	4	26.7	4	-1E+10	1	-1E+10	1	-1E+10	1	-1E+10	1	-1E+10	1	-1E+10	1
4902642	7	C	08/29/2024	01:51	-131.178	44.868	0	303.50	0	5.9910	0	33.9260	0	26.709	0	300.819	0	74.6	4	24.6	4	-1E+10	1	-1E+10	1	-1E+10	1	-1E+10	1	-1E+10	1	-1E+10	1
4902642	7	C	08/29/2024	01:51	-131.178	44.868	0	323.80	0	5.8230	0	33.9420	0	26.742	0	320.924	0	66.5	4	21.9	4	-1E+10	1	-1E+10	1	-1E+10	1	-1E+10	1	-1E+10	1	-1E+10	1
4902642	7	C	08/29/2024	01:51	-131.178	44.868	0	343.90	0	5.7400	0	33.9620	0	26.768	0	340.829	0	63.3	4	20.8	4	-1E+10	1	-1E+10	1	-1E+10	1	-1E+10	1	-1E+10	1	-1E+10	1
4902642	7	C	08/29/2024	01:51	-131.178	44.868	0	364.60	0	5.2300	0	33.9150	0	26.792	0	361.326	0	66.1	4	21.5	4	-1E+10	1	-1E+10	1	-1E+10	1	-1E+10	1	-1E+10	1	-1E+10	1
4902642	7	C	08/29/2024	01:51	-131.178	44.868	0	383.80	0	5.1820	0	33.9420	0	26.819	0	380.336	0	57.5	4	18.6	4	-1E+10	1	-1E+10	1	-1E+10	1	-1E+10	1	-1E+10	1	-1E+10	1
4902642	7	C	08/29/2024	01:51	-131.178	44.868	0	403.90	0	5.1530	0	33.9780	0	26.851	0	400.235	0	50.0	4	16.2	4	-1E+10	1	-1E+10	1	-1E+10	1	-1E+10	1	-1E+10	1	-1E+10	1
4902642	7	C	08/29/2024	01:51	-131.178	44.868	0	424.00	0	5.0990	0	33.9930	0	26.870	0	420.133	0	46.1	4	14.9	4	-1E+10	1	-1E+10	1	-1E+10	1	-1E+10	1	-1E+10	1	-1E+10	1
4902642	7	C	08/29/2024	01:51	-131.178	44.868	0	443.60	0	5.0510	0	34.0090	0	26.888	0	439.533	0	42.3	4	13.7	4	-1E+10	1	-1E+10	1	-1E+10	1	-1E+10	1	-1E+10	1	-1E+10	1
4902642	7	C	08/29/2024	01:51	-131.178	44.868	0	463.50	0	4.9870	0	34.0220	0	26.906	0	459.229	0	39.0	4	12.6	4	-1E+10	1	-1E+10	1	-1E+10	1	-1E+10	1	-1E+10	1	-1E+10	1
4902642	7	C	08/29/2024	01:51	-131.178	44.868	0	483.60	0	4.8850	0	34.0330	0	26.926	0	479.120	0	35.7	4	11.5	4	-1E+10	1	-1E+10	1	-1E+10	1	-1E+10	1	-1E+10	1	-1E+10	1
4902642	7	C	08/29/2024	01:51	-131.178	44.868	0	503.70	0	4.7980	0	34.0520	0	26.951	0	499.010	0	31.8	4	10.2	4	-1E+10	1	-1E+10	1	-1E+10	1	-1E+10	1	-1E+10	1	-1E+10	1
4902642	7	C	08/29/2024	01:51	-131.178	44.868	0	523.70	0	4.7090	0	34.0610	0	26.968	0	518.799	0	29.1	4	9.3	4	-1E+10	1	-1E+10	1	-1E+10	1	-1E+10	1	-1E+10	1	-1E+10	1
4902642	7	C	08/29/2024	01:51	-131.178	44.868	0	544.00	0	4.6640	0	34.0800	0	26.988	0	538.882	0	25.0	4	8.0	4	-1E+10	1	-1E+10	1	-1E+10	1	-1E+10	1	-1E+10	1	-1E+10	1
4902642	7	C	08/29/2024	01:51	-131.178	44.868	0	563.50	0	4.6220	0	34.1000	0	27.009	0	558.173	0	21.7	4	7.0	4	-1E+10	1	-1E+10	1	-1E+10	1	-1E+10	1	-1E+10	1	-1E+10	1
4902642	7	C	08/29/2024	01:51	-131.178	44.868	0	583.50	0	4.5540	0	34.1160	0	27.029	0	577.956	0	19.4	4	6.2	4	-1E+10	1	-1E+10	1	-1E+10	1	-1E+10	1	-1E+10	1	-1E+10	1
4902642	7	C	08/29/2024	01:51	-131.178	44.868	0	603.80	0	4.4690	0	34.1270	0	27.047	0	598.034	0	17.7	4	5.6	4	-1E+10	1	-1E+10	1	-1E+10	1	-1E+10	1	-1E+10	1	-1E+10	1
4902642	7	C	08/29/2024	01:51	-131.178	44.868	0	623.80	0	4.4000	0	34.1400	0	27.065	0	617.813	0	15.4	4	4.9	4	-1E+10	1	-1E+10	1	-1E+10	1	-1E+10	1	-1E+10	1	-1E+10	1
4902642	7	C	08/29/2024	01:51	-131.178	44.868	0	643.60	0	4.3400	0	34.1590	0	27.087	0	637.393	0	13.3	4	4.2	4	-1E+10	1	-1E+10	1	-1E+10	1	-1E+10	1	-1E+10	1	-1E+10	1
4902642	7	C	08/29/2024	01:51	-131.178	44.868	0	663.80	0	4.2950	0	34.1760	0	27.105	0	657.366	0	11.7	4	3.7	4	-1E+10	1	-1E+10	1	-1E+10	1	-1E+10	1	-1E+10	1	-1E+10	1
4902642	7	C	08/29/2024	01:51	-131.178	44.868	0	683.90	0	4.2700	0	34.1930	0	27.122	0	677.239	0	10.3	4	3.3	4	-1E+10	1	-1E+10	1	-1E+10	1	-1E+10	1	-1E+10	1	-1E+10	1
4902642	7	C	08/29/2024	01:51	-131.178	44.868	0	703.70	0	4.2300	0	34.2090	0	27.139	0	696.813	0	9.1	4	2.9	4	-1E+10	1	-1E+10	1	-1E+10	1	-1E+10	1	-1E+10	1	-1E+10	1
4902642	7	C	08/29/2024	01:51	-131.178	44.868	0	723.60	0	4.2010	0	34.2260	0	27.155	0	716.484	0	8.1	4	2.6	4	-1E+10	1	-1E+10	1	-1E+10	1	-1E+10	1	-1E+10	1	-1E+10	1
4902642	7	C	08/29/2024	01:51	-131.178	44.868	0	744.40	0	4.1780	0	34.2430	0	27.171	0	737.043	0	7.2	4	2.3	4	-1E+10	1	-1E+10	1	-1E+10	1	-1E+10	1	-1E+10	1	-1E+10	1
4902642	7	C	08/29/2024	01:51	-131.178	44.868	0	763.70	0	4.1640	0	34.2610	0	27.187	0	756.117	0	6.6	4	2.1	4	-1E+10	1	-1E+10	1	-1E+10	1	-1E+10	1	-1E+10	1	-1E+10	1
4902642	7	C	08/29/2024	01:51	-131.178	44.868	0	783.70	0	4.0800	0	34.2730	0	27.206	0	775.881	0	6.2	4	2.0	4	-1E+10	1	-1E+10	1	-1E+10	1	-1E+10	1	-1E+10	1	-1E+10	1
4902642	7	C	08/29/2024	01:51	-131.178	44.868	0	803.50	0	4.0030	0	34.2870	0	27.225	0	795.446	0	5.8	4	1.8	4	-1E+10	1	-1E+10	1	-1E+10	1	-1E+10	1	-1E+10	1	-1E+10	1
4902642	7	C	08/29/2024	01:51	-131.178	44.868	0	823.80	0	3.9410	0	34.2970	0	27.239	0	815.503	0	5.6	4	1.8	4	-1E+10	1	-1E+10	1	-1E+10	1	-1E+10	1	-1E+10	1	-1E+10	1
4902642	7	C	08/29/2024	01:51	-131.178	44.868	0	843.50	0	3.8770	0	34.3060	0	27.253	0	834.965	0	5.5	4	1.7	4	-1E+10	1	-1E+10	1	-1E+10	1	-1E+10	1	-1E+10	1	-1E+10	1
4902642	7	C	08/29/2024	01:51	-131.178	44.868	0	863.40	0	3.8530	0	34.3190	0	27.266	0	854.623	0	5.4	4	1.7	4	-1E+10	1	-1E+10	1	-1E+10	1	-1E+10	1	-1E+10	1	-1E+10	1
4902642	7	C	08/29/2024	01:51	-131.178	44.868	0	883.70	0	3.8250	0	34.3280	0	27.276	0	874.674	0	5.3	4	1.7	4	-1E+10	1	-1E+10	1	-1E+10	1	-1E+10	1	-1E+10	1	-1E+10	1
4902642	7	C	08/29/2024	01:51	-131.178	44.868	0	903.80	0	3.7740	0	34.3370	0	27.288	0	894.526	0	5.3	4	1.7	4	-1E+10	1	-1E+10	1	-1E+10	1	-1E+10	1	-1E+10	1	-1E+10	1
4902642	7	C	08/29/2024	01:51	-131.178	44.868	0	923.60	0	3.7180	0	34.3450	0	27.300	0	914.080	0	5.4	4	1.7	4	-1E+10	1	-1E+10	1	-1E+10	1	-1E+10	1	-1E+10	1	-1E+10	1
4902642	7	C	08/29/2024	01:51	-131.178	44.868	0	943.70	0	3.6770	0	34.3520	0	27.310	0	933.928	0	5.4	4	1.7	4	-1E+10	1	-1E+10	1	-1E+10	1	-1E+10	1	-1E+10	1	-1E+10	1
4902642	7	C	08/29/2024	01:51	-131.178	44.868	0	963.70	0	3.6520	0	34.3610	0	27.320	0	953.675	0	5.5	4	1.7	4	-1E+10	1	-1E+10	1	-1E+10	1	-1E+10	1	-1E+10	1	-1E+10	1
4902642	7	C	08/29/2024	01:51	-131.178	44.868	0	983.90	0	3.6220	0	34.3690	0	27.329	0	973.618	0	5.7	4	1.8	4	-1E+10	1	-1E+10	1	-1E+10	1	-1E+10	1	-1E+10	1	-1E+10	1
4902642	7	C	08/29/2024	01:51	-131.178	44.868	0	1003.70	0	3.5890	0	34.3740	0	27.337	0	993.164	0	5.8	4	1.8	4	-1E+10	1	-1E+10	1	-1E+10	1	-1E+10	1	-1E+10	1	-1E+10	1
4902642	7	C	08/29/2024	01:51	-131.178	44.868	0	1023.80	0	3.5390	0	34.3830	0	27.349	0	1013.005	0	6.1	4	1.9	4	-1E+10	1	-1E+10	1	-1E+10	1	-1E+10	1	-1E+10	1	-1E+10	1
4902642	7	C	08/29/2024	01:51	-131.178	44.868	0	1044.10	0	3.4990	0	34.3920	0	27.360	0	1033.041	0	6.4	4	2.0	4	-1E+10	1	-1E+10	1	-1E+10	1	-1E+10	1	-1E+10	1	-1E+10	1
4902642	7	C	08/29/2024	01:51	-131.178	44.868	0	1063.80	0	3.4290	0	34.4020	0	27.375	0	1052.483	0	6.8	4	2.1	4	-1E+10	1	-1E+10	1	-1E+10	1	-1E+10	1	-1E+10	1	-1E+10	1
4902642	7	C	08/29/2024	01:51	-131.178	44.868	0	1083.80	0	3.3790	0	34.4100	0	27.386	0	1072.219	0	7.3	4	2.3	4	-1E+10	1	-1E+10	1	-1E+10	1	-1E+10	1	-1E+10	1	-1E+10	1
4902642	7	C	08/29/2024	01:51	-131.178	44.868	0	1103.90	0	3.3380	0	34.4180	0	27.396	0	1092.052	0	7.9	4	2.4	4	-1E+10	1	-1E+10	1	-1E+10	1	-1E+10	1	-1E+10	1	-1E+10	1
4902642	7	C	08/29/2024	01:51	-131.178	44.868	0	1124.00	0	3.2910	0	34.4260	0	27.407	0	1111.883	0	8.4	4	2.6	4	-1E+10	1	-1E+10	1	-1E+10	1	-1E+10	1	-1E+10	1	-1E+10	1
4902642	7	C	08/29/2024	01:51	-131.178	44.868	0	1144.70	0	3.2440	0	34.4340	0	27.418	0	1132.304	0	9.1	4	2.8	4	-1E+10	1	-1E+10	1	-1E+10	1	-1E+10	1	-1E+10	1	-1E+10	1
4902642	7	C	08/29/2024	01:51	-131.178	44.868	0	1163.70	0	3.2040	0	34.4400	0	27.427	0	1151.046	0	9.6	4	3.0	4	-1E+10	1	-1E+10	1	-1E+10	1	-1E+10	1	-1E+10	1	-1E+10	1
4902642	7	C	08/29/2024	01:51	-131.178	44.868	0	1183.60	0	3.1650	0	34.4470	0	27.436	0	1170.674	0	10.5	4	3.2	4	-1E+10	1	-1E+10	1	-1E+10	1	-1E+10	1	-1E+10	1	-1E+10	1
4902642	7	C	08/29/2024	01:51	-131.178	44.868	0	1204.20	0	3.1190	0	34.4540	0	27.446	0	1190.991	0	11.2	4	3.5	4	-1E+10	1	-1E+10	1	-1E+10	1	-1E+10	1	-1E+10	1	-1E+10	1
4902642	7	C	08/29/2024	01:51	-131.178	44.868	0	1223.00	0	3.0770	0	34.4590	0	27.454	0	1209.531	0	11.7	4	3.6	4	-1E+10	1	-1E+10	1	-1E+10	1	-1E+10	1	-1E+10	1	-1E+10	1
4902642	7	C	08/29/2024	01:51	-131.178	44.868	0	1243.80	0	3.0280	0	34.4630	0	27.462	0	1230.041	0	12.1	4	3.7	4	-1E+10	1	-1E+10	1	-1E+10	1	-1E+10	1	-1E+10	1	-1E+10	1
4902642	7	C	08/29/2024	01:51	-131.178	44.868	0	1263.50	0	2.9760	0	34.4660	0	27.469	0	1249.465	0	12.6	4	3.9	4	-1E+10	1	-1E+10	1	-1E+10	1	-1E+10	1	-1E+10	1	-1E+10	1
4902642	7	C	08/29/2024	01:51	-131.178	44.868	0	1283.60	0	2.9410	0	34.4690	0	27.475	0	1269.281	0	13.2	4	4.1	4	-1E+10	1	-1E+10	1	-1E+10	1	-1E+10	1	-1E+10	1	-1E+10	1
4902642	7	C	08/29/2024	01:51	-131.178	44.868	0	1303.80	0	2.9090	0	34.4730	0	27.481	0	1289.194	0	13.8	4	4.3	4	-1E+10	1	-1E+10	1	-1E+10	1	-1E+10	1	-1E+10	1	-1E+10	1
4902642	7	C	08/29/2024	01:51	-131.178	44.868	0	1323.60	0	2.8690	0	34.4780	0	27.488	0	1308.710	0	14.6	4	4.5	4	-1E+10	1	-1E+10	1	-1E+10	1	-1E+10	1	-1E+10	1	-1E+10	1
4902642	7	C	08/29/2024	01:51	-131.178	44.868	0	1343.40	0	2.8310	0	34.4820	0	27.495	0	1328.225	0	15.3	4	4.7	4	-1E+10	1	-1E+10	1	-1E+10	1	-1E+10	1	-1E+10	1	-1E+10	1
4902642	7	C	08/29/2024	01:51	-131.178	44.868	0	1363.70	0	2.7960	0	34.4860	0	27.502	0	1348.231	0	15.9	4	4.9	4	-1E+10	1	-1E+10	1	-1E+10	1	-1E+10	1	-1E+10	1	-1E+10	1
4902642	7	C	08/29/2024	01:51	-131.178	44.868	0	1384.30	0	2.7610	0	34.4900	0	27.508	0	1368.531	0	16.6	4	5.1	4	-1E+10	1	-1E+10	1	-1E+10	1	-1E+10	1	-1E+10	1	-1E+10	1
4902642	7	C	08/29/2024	01:51	-131.178	44.868	0	1404.00	0	2.7250	0	34.4930	0	27.514	0	1387.941	0	17.4	4	5.3	4	-1E+10	1	-1E+10	1	-1E+10	1	-1E+10	1	-1E+10	1	-1E+10	1
4902642	7	C	08/29/2024	01:51	-131.178	44.868	0	1424.00	0	2.6920	0	34.4970	0	27.520	0	1407.646	0	18.2	4	5.6	4	-1E+10	1	-1E+10	1	-1E+10	1	-1E+10	1	-1E+10	1	-1E+10	1
4902642	7	C	08/29/2024	01:51	-131.178	44.868	0	1443.80	0	2.6670	0	34.5000	0	27.524	0	1427.152	0	18.8	4	5.8	4	-1E+10	1	-1E+10	1	-1E+10	1	-1E+10	1	-1E+10	1	-1E+10	1
4902642	7	C	08/29/2024	01:51	-131.178	44.868	0	1463.80	0	2.6380	0	34.5030	0	27.529	0	1446.853	0	19.5	4	6.0	4	-1E+10	1	-1E+10	1	-1E+10	1	-1E+10	1	-1E+10	1	-1E+10	1
4902642	7	C	08/29/2024	01:51	-131.178	44.868	0	1484.10	0	2.6110	0	34.5060	0	27.534	0	1466.847	0	20.2	4	6.2	4	-1E+10	1	-1E+10	1	-1E+10	1	-1E+10	1	-1E+10	1	-1E+10	1
4902642	7	C	08/29/2024	01:51	-131.178	44.868	0	1503.70	0	2.5780	0	34.5080	0	27.539	0	1486.150	0	20.9	4	6.4	4	-1E+10	1	-1E+10	1	-1E+10	1	-1E+10	1	-1E+10	1	-1E+10	1
4902642	7	C	08/29/2024	01:51	-131.178	44.868	0	1523.50	0	2.5490	0	34.5110	0	27.544	0	1505.649	0	21.7	4	6.6	4	-1E+10	1	-1E+10	1	-1E+10	1	-1E+10	1	-1E+10	1	-1E+10	1
4902642	7	C	08/29/2024	01:51	-131.178	44.868	0	1543.80	0	2.5230	0	34.5150	0	27.549	0	1525.638	0	22.7	4	6.9	4	-1E+10	1	-1E+10	1	-1E+10	1	-1E+10	1	-1E+10	1	-1E+10	1
4902642	7	C	08/29/2024	01:51	-131.178	44.868	0	1563.90	0	2.4880	0	34.5190	0	27.555	0	1545.428	0	23.9	4	7.3	4	-1E+10	1	-1E+10	1	-1E+10	1	-1E+10	1	-1E+10	1	-1E+10	1
4902642	7	C	08/29/2024	01:51	-131.178	44.868	0	1583.90	0	2.4650	0	34.5230	0	27.561	0	1565.118	0	25.1	4	7.7	4	-1E+10	1	-1E+10	1	-1E+10	1	-1E+10	1	-1E+10	1	-1E+10	1
4902642	7	C	08/29/2024	01:51	-131.178	44.868	0	1604.00	0	2.4320	0	34.5270	0	27.567	0	1584.904	0	26.2	4	8.0	4	-1E+10	1	-1E+10	1	-1E+10	1	-1E+10	1	-1E+10	1	-1E+10	1
4902642	7	C	08/29/2024	01:51	-131.178	44.868	0	1624.10	0	2.4140	0	34.5310	0	27.571	0	1604.689	0	27.3	4	8.3	4	-1E+10	1	-1E+10	1	-1E+10	1	-1E+10	1	-1E+10	1	-1E+10	1
4902642	7	C	08/29/2024	01:51	-131.178	44.868	0	1644.20	0	2.3910	0	34.5350	0	27.577	0	1624.472	0	28.6	4	8.7	4	-1E+10	1	-1E+10	1	-1E+10	1	-1E+10	1	-1E+10	1	-1E+10	1
4902642	7	C	08/29/2024	01:51	-131.178	44.868	0	1663.70	0	2.3610	0	34.5390	0	27.582	0	1643.662	0	29.7	4	9.0	4	-1E+10	1	-1E+10	1	-1E+10	1	-1E+10	1	-1E+10	1	-1E+10	1
4902642	7	C	08/29/2024	01:51	-131.178	44.868	0	1683.80	0	2.3330	0	34.5420	0	27.587	0	1663.441	0	30.8	4	9.4	4	-1E+10	1	-1E+10	1	-1E+10	1	-1E+10	1	-1E+10	1	-1E+10	1
4902642	7	C	08/29/2024	01:51	-131.178	44.868	0	1703.60	0	2.3000	0	34.5460	0	27.593	0	1682.923	0	32.0	4	9.7	4	-1E+10	1	-1E+10	1	-1E+10	1	-1E+10	1	-1E+10	1	-1E+10	1
4902642	7	C	08/29/2024	01:51	-131.178	44.868	0	1723.90	0	2.2720	0	34.5500	0	27.599	0	1702.895	0	33.5	4	10.2	4	-1E+10	1	-1E+10	1	-1E+10	1	-1E+10	1	-1E+10	1	-1E+10	1
4902642	7	C	08/29/2024	01:51	-131.178	44.868	0	1743.60	0	2.2420	0	34.5540	0	27.605	0	1722.275	0	34.9	4	10.6	4	-1E+10	1	-1E+10	1	-1E+10	1	-1E+10	1	-1E+10	1	-1E+10	1
4902642	7	C	08/29/2024	01:51	-131.178	44.868	0	1763.50	0	2.2170	0	34.5570	0	27.609	0	1741.850	0	36.0	4	10.9	4	-1E+10	1	-1E+10	1	-1E+10	1	-1E+10	1	-1E+10	1	-1E+10	1
4902642	7	C	08/29/2024	01:51	-131.178	44.868	0	1784.50	0	2.1960	0	34.5600	0	27.613	0	1762.506	0	36.9	4	11.2	4	-1E+10	1	-1E+10	1	-1E+10	1	-1E+10	1	-1E+10	1	-1E+10	1
4902642	7	C	08/29/2024	01:51	-131.178	44.868	0	1803.80	0	2.1780	0	34.5620	0	27.616	0	1781.487	0	37.8	4	11.4	4	-1E+10	1	-1E+10	1	-1E+10	1	-1E+10	1	-1E+10	1	-1E+10	1
4902642	7	C	08/29/2024	01:51	-131.178	44.868	0	1823.70	0	2.1550	0	34.5650	0	27.621	0	1801.056	0	38.9	4	11.8	4	-1E+10	1	-1E+10	1	-1E+10	1	-1E+10	1	-1E+10	1	-1E+10	1
4902642	7	C	08/29/2024	01:51	-131.178	44.868	0	1844.10	0	2.1330	0	34.5680	0	27.625	0	1821.116	0	39.9	4	12.1	4	-1E+10	1	-1E+10	1	-1E+10	1	-1E+10	1	-1E+10	1	-1E+10	1
4902642	7	C	08/29/2024	01:51	-131.178	44.868	0	1863.70	0	2.1160	0	34.5700	0	27.628	0	1840.387	0	41.1	4	12.4	4	-1E+10	1	-1E+10	1	-1E+10	1	-1E+10	1	-1E+10	1	-1E+10	1
4902642	7	C	08/29/2024	01:51	-131.178	44.868	0	1884.20	0	2.0910	0	34.5740	0	27.633	0	1860.541	0	42.5	4	12.8	4	-1E+10	1	-1E+10	1	-1E+10	1	-1E+10	1	-1E+10	1	-1E+10	1
4902642	7	C	08/29/2024	01:51	-131.178	44.868	0	1903.70	0	2.0700	0	34.5760	0	27.637	0	1879.710	0	43.5	4	13.1	4	-1E+10	1	-1E+10	1	-1E+10	1	-1E+10	1	-1E+10	1	-1E+10	1
4902642	7	C	08/29/2024	01:51	-131.178	44.868	0	1923.60	0	2.0540	0	34.5790	0	27.640	0	1899.270	0	44.6	4	13.5	4	-1E+10	1	-1E+10	1	-1E+10	1	-1E+10	1	-1E+10	1	-1E+10	1
4902642	7	C	08/29/2024	01:51	-131.178	44.868	0	1943.90	0	2.0380	0	34.5810	0	27.643	0	1919.222	0	45.5	4	13.7	4	-1E+10	1	-1E+10	1	-1E+10	1	-1E+10	1	-1E+10	1	-1E+10	1
4902642	7	C	08/29/2024	01:51	-131.178	44.868	0	1963.40	0	2.0250	0	34.5830	0	27.646	0	1938.386	0	46.6	4	14.1	4	-1E+10	1	-1E+10	1	-1E+10	1	-1E+10	1	-1E+10	1	-1E+10	1
4902642	7	C	08/29/2024	01:51	-131.178	44.868	0	1984.10	0	2.0080	0	34.5860	0	27.650	0	1958.727	0	47.8	4	14.4	4	-1E+10	1	-1E+10	1	-1E+10	1	-1E+10	1	-1E+10	1	-1E+10	1
4902642	7	C	08/29/2024	01:51	-131.178	44.868	0	2004.20	0	1.9910	0	34.5890	4	27.654	0	1978.477	0	48.9	4	14.7	4	-1E+10	1	-1E+10	1	-1E+10	1	-1E+10	1	-1E+10	1	-1E+10	1
4902642	7	C	08/29/2024	01:51	-131.178	44.868	0	2024.00	0	1.9790	0	34.5910	4	27.656	0	1997.930	0	49.8	4	15.0	4	-1E+10	1	-1E+10	1	-1E+10	1	-1E+10	1	-1E+10	1	-1E+10	1
4902642	7	C	08/29/2024	01:51	-131.178	44.868	0	2043.90	0	1.9620	0	34.5940	4	27.660	0	2017.479	0	51.2	4	15.4	4	-1E+10	1	-1E+10	1	-1E+10	1	-1E+10	1	-1E+10	1	-1E+10	1
4902642	7	C	08/29/2024	01:51	-131.178	44.868	0	2064.20	0	1.9460	0	34.5960	4	27.663	0	2037.420	0	52.3	4	15.8	4	-1E+10	1	-1E+10	1	-1E+10	1	-1E+10	1	-1E+10	1	-1E+10	1
4902642	7	C	08/29/2024	01:51	-131.178	44.868	0	2084.10	0	1.9360	0	34.5980	4	27.666	0	2056.966	0	53.1	4	16.0	4	-1E+10	1	-1E+10	1	-1E+10	1	-1E+10	1	-1E+10	1	-1E+10	1
4902642	7	C	08/29/2024	01:51	-131.178	44.868	0	2104.10	0	1.9270	0	34.6000	4	27.668	0	2076.608	0	54.1	4	16.3	4	-1E+10	1	-1E+10	1	-1E+10	1	-1E+10	1	-1E+10	1	-1E+10	1
4902642	7	C	08/29/2024	01:51	-131.178	44.868	0	2123.90	0	1.9150	0	34.6020	4	27.671	0	2096.052	0	55.0	4	16.5	4	-1E+10	1	-1E+10	1	-1E+10	1	-1E+10	1	-1E+10	1	-1E+10	1
4902642	7	C	08/29/2024	01:51	-131.178	44.868	0	2144.20	0	1.9040	0	34.6040	4	27.673	0	2115.986	0	55.9	4	16.8	4	-1E+10	1	-1E+10	1	-1E+10	1	-1E+10	1	-1E+10	1	-1E+10	1
4902642	7	C	08/29/2024	01:51	-131.178	44.868	0	2164.20	0	1.8950	0	34.6060	4	27.676	0	2135.623	0	56.7	4	17.0	4	-1E+10	1	-1E+10	1	-1E+10	1	-1E+10	1	-1E+10	1	-1E+10	1
4902642	7	C	08/29/2024	01:51	-131.178	44.868	0	2184.20	0	1.8890	0	34.6070	4	27.677	0	2155.258	0	57.3	4	17.2	4	-1E+10	1	-1E+10	1	-1E+10	1	-1E+10	1	-1E+10	1	-1E+10	1
4902642	7	C	08/29/2024	01:51	-131.178	44.868	0	2204.10	0	1.8780	0	34.6090	4	27.680	0	2174.793	0	58.1	4	17.5	4	-1E+10	1	-1E+10	1	-1E+10	1	-1E+10	1	-1E+10	1	-1E+10	1
4902642	7	C	08/29/2024	01:51	-131.178	44.868	0	2224.00	0	1.8690	0	34.6100	4	27.681	0	2194.327	0	58.9	4	17.7	4	-1E+10	1	-1E+10	1	-1E+10	1	-1E+10	1	-1E+10	1	-1E+10	1
4902642	7	C	08/29/2024	01:51	-131.178	44.868	0	2243.80	0	1.8590	0	34.6120	4	27.684	0	2213.760	0	59.7	4	17.9	4	-1E+10	1	-1E+10	1	-1E+10	1	-1E+10	1	-1E+10	1	-1E+10	1
4902642	7	C	08/29/2024	01:51	-131.178	44.868	0	2263.80	0	1.8550	0	34.6130	4	27.685	0	2233.388	0	60.1	4	18.1	4	-1E+10	1	-1E+10	1	-1E+10	1	-1E+10	1	-1E+10	1	-1E+10	1
4902642	7	C	08/29/2024	01:51	-131.178	44.868	0	2284.00	0	1.8500	0	34.6140	4	27.686	0	2253.210	0	60.7	4	18.2	4	-1E+10	1	-1E+10	1	-1E+10	1	-1E+10	1	-1E+10	1	-1E+10	1
4902642	7	C	08/29/2024	01:51	-131.178	44.868	0	2304.10	0	1.8440	0	34.6150	4	27.688	0	2272.933	0	61.4	4	18.4	4	-1E+10	1	-1E+10	1	-1E+10	1	-1E+10	1	-1E+10	1	-1E+10	1
4902642	7	C	08/29/2024	01:51	-131.178	44.868	0	2324.20	0	1.8400	0	34.6160	4	27.689	0	2292.654	0	61.9	4	18.6	4	-1E+10	1	-1E+10	1	-1E+10	1	-1E+10	1	-1E+10	1	-1E+10	1
4902642	7	C	08/29/2024	01:51	-131.178	44.868	0	2343.90	0	1.8340	0	34.6170	4	27.690	0	2311.980	0	62.5	4	18.8	4	-1E+10	1	-1E+10	1	-1E+10	1	-1E+10	1	-1E+10	1	-1E+10	1
4902642	7	C	08/29/2024	01:51	-131.178	44.868	0	2364.10	0	1.8270	0	34.6180	4	27.692	0	2331.795	0	63.3	4	19.0	4	-1E+10	1	-1E+10	1	-1E+10	1	-1E+10	1	-1E+10	1	-1E+10	1
4902642	7	C	08/29/2024	01:51	-131.178	44.868	0	2383.90	0	1.8190	0	34.6190	4	27.693	0	2351.216	0	64.0	4	19.2	4	-1E+10	1	-1E+10	1	-1E+10	1	-1E+10	1	-1E+10	1	-1E+10	1
4902642	7	C	08/29/2024	01:51	-131.178	44.868	0	2404.00	0	1.8150	0	34.6200	4	27.694	0	2370.930	0	64.6	4	19.4	4	-1E+10	1	-1E+10	1	-1E+10	1	-1E+10	1	-1E+10	1	-1E+10	1
4902642	7	C	08/29/2024	01:51	-131.178	44.868	0	2424.20	0	1.8110	0	34.6210	4	27.696	0	2390.739	0	65.0	4	19.5	4	-1E+10	1	-1E+10	1	-1E+10	1	-1E+10	1	-1E+10	1	-1E+10	1
4902642	7	C	08/29/2024	01:51	-131.178	44.868	0	2443.80	0	1.8080	0	34.6220	4	27.697	0	2409.959	0	65.5	4	19.7	4	-1E+10	1	-1E+10	1	-1E+10	1	-1E+10	1	-1E+10	1	-1E+10	1
4902642	7	C	08/29/2024	01:51	-131.178	44.868	0	2463.70	0	1.8030	0	34.6230	4	27.698	0	2429.471	0	66.2	4	19.9	4	-1E+10	1	-1E+10	1	-1E+10	1	-1E+10	1	-1E+10	1	-1E+10	1
4902642	7	C	08/29/2024	01:51	-131.178	44.868	0	2484.10	0	1.7950	0	34.6240	4	27.700	0	2449.471	0	67.1	4	20.1	4	-1E+10	1	-1E+10	1	-1E+10	1	-1E+10	1	-1E+10	1	-1E+10	1
4902642	7	C	08/29/2024	01:51	-131.178	44.868	0	2504.30	0	1.7870	0	34.6250	4	27.701	0	2469.274	0	67.9	4	20.4	4	-1E+10	1	-1E+10	1	-1E+10	1	-1E+10	1	-1E+10	1	-1E+10	1
4902642	7	C	08/29/2024	01:51	-131.178	44.868	0	2524.20	0	1.7820	0	34.6260	4	27.702	0	2488.780	0	68.5	4	20.6	4	-1E+10	1	-1E+10	1	-1E+10	1	-1E+10	1	-1E+10	1	-1E+10	1
4902642	7	C	08/29/2024	01:51	-131.178	44.868	0	2544.30	0	1.7750	0	34.6270	4	27.704	0	2508.481	0	69.5	4	20.8	4	-1E+10	1	-1E+10	1	-1E+10	1	-1E+10	1	-1E+10	1	-1E+10	1
4902642	7	C	08/29/2024	01:51	-131.178	44.868	0	2564.80	0	1.7650	0	34.6290	4	27.706	0	2528.572	0	70.4	4	21.1	4	-1E+10	1	-1E+10	1	-1E+10	1	-1E+10	1	-1E+10	1	-1E+10	1
4902642	7	C	08/29/2024	01:51	-131.178	44.868	0	2583.90	0	1.7560	0	34.6300	4	27.708	0	2547.289	0	71.3	4	21.4	4	-1E+10	1	-1E+10	1	-1E+10	1	-1E+10	1	-1E+10	1	-1E+10	1
4902642	7	C	08/29/2024	01:51	-131.178	44.868	0	2603.80	0	1.7480	0	34.6310	4	27.709	0	2566.789	0	72.2	4	21.6	4	-1E+10	1	-1E+10	1	-1E+10	1	-1E+10	1	-1E+10	1	-1E+10	1
4902642	7	C	08/29/2024	01:51	-131.178	44.868	0	2623.90	0	1.7420	0	34.6320	4	27.711	0	2586.482	0	73.0	4	21.9	4	-1E+10	1	-1E+10	1	-1E+10	1	-1E+10	1	-1E+10	1	-1E+10	1
4902642	7	C	08/29/2024	01:51	-131.178	44.868	0	2643.80	0	1.7320	0	34.6330	4	27.712	0	2605.978	0	73.9	4	22.1	4	-1E+10	1	-1E+10	1	-1E+10	1	-1E+10	1	-1E+10	1	-1E+10	1
4902642	7	C	08/29/2024	01:51	-131.178	44.868	0	2663.80	0	1.7250	0	34.6340	4	27.714	0	2625.570	0	74.8	4	22.4	4	-1E+10	1	-1E+10	1	-1E+10	1	-1E+10	1	-1E+10	1	-1E+10	1
4902642	7	C	08/29/2024	01:51	-131.178	44.868	0	2684.60	0	1.7170	0	34.6350	4	27.715	0	2645.944	0	75.6	4	22.6	4	-1E+10	1	-1E+10	1	-1E+10	1	-1E+10	1	-1E+10	1	-1E+10	1
4902642	7	C	08/29/2024	01:51	-131.178	44.868	0	2703.90	0	1.7130	0	34.6360	4	27.717	0	2664.847	0	76.2	4	22.8	4	-1E+10	1	-1E+10	1	-1E+10	1	-1E+10	1	-1E+10	1	-1E+10	1
4902642	7	C	08/29/2024	01:51	-131.178	44.868	0	2724.00	0	1.7050	0	34.6370	4	27.718	0	2684.532	0	77.2	4	23.1	4	-1E+10	1	-1E+10	1	-1E+10	1	-1E+10	1	-1E+10	1	-1E+10	1
4902642	7	C	08/29/2024	01:51	-131.178	44.868	0	2744.40	0	1.6980	0	34.6380	4	27.720	0	2704.508	0	77.8	4	23.3	4	-1E+10	1	-1E+10	1	-1E+10	1	-1E+10	1	-1E+10	1	-1E+10	1
4902642	7	C	08/29/2024	01:51	-131.178	44.868	0	2764.00	0	1.6950	0	34.6390	4	27.721	0	2723.700	0	78.3	4	23.4	4	-1E+10	1	-1E+10	1	-1E+10	1	-1E+10	1	-1E+10	1	-1E+10	1
4902642	7	C	08/29/2024	01:51	-131.178	44.868	0	2783.80	0	1.6920	0	34.6390	4	27.721	0	2743.086	0	78.9	4	23.6	4	-1E+10	1	-1E+10	1	-1E+10	1	-1E+10	1	-1E+10	1	-1E+10	1
4902642	7	C	08/29/2024	01:51	-131.178	44.868	0	2803.90	0	1.6870	0	34.6400	4	27.722	0	2762.763	0	79.6	4	23.8	4	-1E+10	1	-1E+10	1	-1E+10	1	-1E+10	1	-1E+10	1	-1E+10	1
4902642	7	C	08/29/2024	01:51	-131.178	44.868	0	2823.90	0	1.6830	0	34.6410	4	27.724	0	2782.341	0	80.2	4	24.0	4	-1E+10	1	-1E+10	1	-1E+10	1	-1E+10	1	-1E+10	1	-1E+10	1
4902642	7	C	08/29/2024	01:51	-131.178	44.868	0	2843.70	0	1.6800	0	34.6420	4	27.725	0	2801.722	0	80.9	4	24.2	4	-1E+10	1	-1E+10	1	-1E+10	1	-1E+10	1	-1E+10	1	-1E+10	1
4902642	7	C	08/29/2024	01:51	-131.178	44.868	0	2863.90	0	1.6710	0	34.6430	4	27.726	0	2821.492	0	81.9	4	24.5	4	-1E+10	1	-1E+10	1	-1E+10	1	-1E+10	1	-1E+10	1	-1E+10	1
4902642	7	C	08/29/2024	01:51	-131.178	44.868	0	2884.10	0	1.6640	0	34.6440	4	27.728	0	2841.260	0	82.8	4	24.8	4	-1E+10	1	-1E+10	1	-1E+10	1	-1E+10	1	-1E+10	1	-1E+10	1
4902642	7	C	08/29/2024	01:51	-131.178	44.868	0	2904.30	0	1.6580	0	34.6450	4	27.729	0	2861.027	0	83.5	4	25.0	4	-1E+10	1	-1E+10	1	-1E+10	1	-1E+10	1	-1E+10	1	-1E+10	1
4902642	7	C	08/29/2024	01:51	-131.178	44.868	0	2924.90	0	1.6540	0	34.6460	4	27.730	0	2881.182	0	84.1	4	25.2	4	-1E+10	1	-1E+10	1	-1E+10	1	-1E+10	1	-1E+10	1	-1E+10	1
4902642	7	C	08/29/2024	01:51	-131.178	44.868	0	2944.20	0	1.6460	0	34.6470	4	27.732	0	2900.065	0	85.0	4	25.4	4	-1E+10	1	-1E+10	1	-1E+10	1	-1E+10	1	-1E+10	1	-1E+10	1
4902642	7	C	08/29/2024	01:51	-131.178	44.868	0	2964.10	0	1.6410	0	34.6480	4	27.733	0	2919.533	0	85.7	4	25.6	4	-1E+10	1	-1E+10	1	-1E+10	1	-1E+10	1	-1E+10	1	-1E+10	1
4902642	7	C	08/29/2024	01:51	-131.178	44.868	0	2984.00	0	1.6350	0	34.6490	4	27.735	0	2938.998	0	86.7	4	25.9	4	-1E+10	1	-1E+10	1	-1E+10	1	-1E+10	1	-1E+10	1	-1E+10	1
4902642	7	C	08/29/2024	01:51	-131.178	44.868	0	3003.90	0	1.6290	0	34.6500	4	27.736	0	2958.463	0	87.4	4	26.1	4	-1E+10	1	-1E+10	1	-1E+10	1	-1E+10	1	-1E+10	1	-1E+10	1
4902642	7	C	08/29/2024	01:51	-131.178	44.868	0	3023.70	0	1.6230	0	34.6510	4	27.737	0	2977.827	0	88.3	4	26.4	4	-1E+10	1	-1E+10	1	-1E+10	1	-1E+10	1	-1E+10	1	-1E+10	1
4902642	7	C	08/29/2024	01:51	-131.178	44.868	0	3043.90	0	1.6190	0	34.6510	4	27.738	0	2997.581	0	89.1	4	26.6	4	-1E+10	1	-1E+10	1	-1E+10	1	-1E+10	1	-1E+10	1	-1E+10	1
4902642	7	C	08/29/2024	01:51	-131.178	44.868	0	3064.30	0	1.6030	0	34.6530	4	27.741	0	3017.529	0	91.3	4	27.3	4	-1E+10	1	-1E+10	1	-1E+10	1	-1E+10	1	-1E+10	1	-1E+10	1
4902642	7	C	08/29/2024	01:51	-131.178	44.868	0	3084.80	0	1.5860	0	34.6560	4	27.744	0	3037.573	0	93.1	4	27.8	4	-1E+10	1	-1E+10	1	-1E+10	1	-1E+10	1	-1E+10	1	-1E+10	1
4902642	7	C	08/29/2024	01:51	-131.178	44.868	0	3103.90	0	1.5710	0	34.6580	4	27.747	0	3056.246	0	94.7	4	28.3	4	-1E+10	1	-1E+10	1	-1E+10	1	-1E+10	1	-1E+10	1	-1E+10	1
4902642	7	C	08/29/2024	01:51	-131.178	44.868	0	3114.60	0	1.5650	0	34.6600	4	27.749	0	3066.706	0	95.4	4	28.5	4	-1E+10	1	-1E+10	1	-1E+10	1	-1E+10	1	-1E+10	1	-1E+10	1
4902642	7	C	08/29/2024	01:51	-131.178	44.868	0	3115.80	0	1.5650	0	34.6600	4	27.749	0	3067.879	0	95.5	4	28.5	4	-1E+10	1	-1E+10	1	-1E+10	1	-1E+10	1	-1E+10	1	-1E+10	1
4902642	7	C	08/29/2024	01:51	-131.178	44.868	0	3116.60	0	1.5640	0	34.6600	4	27.749	0	3068.662	0	95.4	4	28.5	4	-1E+10	1	-1E+10	1	-1E+10	1	-1E+10	1	-1E+10	1	-1E+10	1
4902642	7	C	08/29/2024	01:51	-131.178	44.868	0	3117.40	0	1.5640	0	34.6600	4	27.749	0	3069.443	0	95.5	4	28.5	4	-1E+10	1	-1E+10	1	-1E+10	1	-1E+10	1	-1E+10	1	-1E+10	1
4902642	7	C	08/29/2024	01:51	-131.178	44.868	0	3118.30	0	1.5620	0	34.6600	4	27.749	0	3070.323	0	95.5	4	28.5	4	-1E+10	1	-1E+10	1	-1E+10	1	-1E+10	1	-1E+10	1	-1E+10	1
4902642	7	C	08/29/2024	01:51	-131.178	44.868	0	3119.50	0	1.5630	0	34.6600	4	27.749	0	3071.496	0	95.6	4	28.5	4	-1E+10	1	-1E+10	1	-1E+10	1	-1E+10	1	-1E+10	1	-1E+10	1
4902642	7	C	08/29/2024	01:51	-131.178	44.868	0	3120.80	0	1.5630	0	34.6600	4	27.749	0	3072.767	0	95.6	4	28.5	4	-1E+10	1	-1E+10	1	-1E+10	1	-1E+10	1	-1E+10	1	-1E+10	1
4902642	7	C	08/29/2024	01:51	-131.178	44.868	0	3121.70	0	1.5620	0	34.6600	4	27.749	0	3073.647	0	95.6	4	28.5	4	-1E+10	1	-1E+10	1	-1E+10	1	-1E+10	1	-1E+10	1	-1E+10	1
4902642	7	C	08/29/2024	01:51	-131.178	44.868	0	3122.50	0	1.5630	0	34.6600	4	27.749	0	3074.429	0	95.7	4	28.6	4	-1E+10	1	-1E+10	1	-1E+10	1	-1E+10	1	-1E+10	1	-1E+10	1
4902642	7	C	08/29/2024	01:51	-131.178	44.868	0	3123.40	0	1.5630	0	34.6600	4	27.749	0	3075.309	0	95.7	4	28.6	4	-1E+10	1	-1E+10	1	-1E+10	1	-1E+10	1	-1E+10	1	-1E+10	1
4902642	7	C	08/29/2024	01:51	-131.178	44.868	0	3124.30	0	1.5620	0	34.6600	4	27.749	0	3076.189	0	95.7	4	28.6	4	-1E+10	1	-1E+10	1	-1E+10	1	-1E+10	1	-1E+10	1	-1E+10	1
4902642	7	C	08/29/2024	01:51	-131.178	44.868	0	3125.20	0	1.5620	0	34.6600	4	27.749	0	3077.068	0	95.8	4	28.6	4	-1E+10	1	-1E+10	1	-1E+10	1	-1E+10	1	-1E+10	1	-1E+10	1
4902642	7	C	08/29/2024	01:51	-131.178	44.868	0	3126.50	0	1.5600	0	34.6600	4	27.750	0	3078.339	0	95.8	4	28.6	4	-1E+10	1	-1E+10	1	-1E+10	1	-1E+10	1	-1E+10	1	-1E+10	1
4902642	7	C	08/29/2024	01:51	-131.178	44.868	0	3127.80	0	1.5600	0	34.6600	4	27.750	0	3079.610	0	95.8	4	28.6	4	-1E+10	1	-1E+10	1	-1E+10	1	-1E+10	1	-1E+10	1	-1E+10	1
4902642	7	C	08/29/2024	01:51	-131.178	44.868	0	3128.60	0	1.5600	0	34.6600	4	27.750	0	3080.392	0	95.9	4	28.6	4	-1E+10	1	-1E+10	1	-1E+10	1	-1E+10	1	-1E+10	1	-1E+10	1
4902642	7	C	08/29/2024	01:51	-131.178	44.868	0	3129.50	0	1.5600	0	34.6610	4	27.750	0	3081.272	0	95.8	4	28.6	4	-1E+10	1	-1E+10	1	-1E+10	1	-1E+10	1	-1E+10	1	-1E+10	1
4902642	7	C	08/29/2024	01:51	-131.178	44.868	0	3130.30	0	1.5600	0	34.6600	4	27.750	0	3082.054	0	95.9	4	28.6	4	-1E+10	1	-1E+10	1	-1E+10	1	-1E+10	1	-1E+10	1	-1E+10	1
4902642	7	C	08/29/2024	01:51	-131.178	44.868	0	3131.50	0	1.5600	0	34.6610	4	27.750	0	3083.227	0	96.0	4	28.6	4	-1E+10	1	-1E+10	1	-1E+10	1	-1E+10	1	-1E+10	1	-1E+10	1
4902642	7	C	08/29/2024	01:51	-131.178	44.868	0	3132.80	0	1.5600	0	34.6610	4	27.750	0	3084.497	0	96.0	4	28.7	4	-1E+10	1	-1E+10	1	-1E+10	1	-1E+10	1	-1E+10	1	-1E+10	1
4902642	7	C	08/29/2024	01:51	-131.178	44.868	0	3133.70	0	1.5600	0	34.6610	4	27.750	0	3085.377	0	96.0	4	28.7	4	-1E+10	1	-1E+10	1	-1E+10	1	-1E+10	1	-1E+10	1	-1E+10	1
4902642	7	C	08/29/2024	01:51	-131.178	44.868	0	3134.50	0	1.5600	0	34.6600	4	27.750	0	3086.159	0	96.1	4	28.7	4	-1E+10	1	-1E+10	1	-1E+10	1	-1E+10	1	-1E+10	1	-1E+10	1
4902642	7	C	08/29/2024	01:51	-131.178	44.868	0	3135.40	0	1.5590	0	34.6610	4	27.750	0	3087.039	0	96.2	4	28.7	4	-1E+10	1	-1E+10	1	-1E+10	1	-1E+10	1	-1E+10	1	-1E+10	1
4902642	7	C	08/29/2024	01:51	-131.178	44.868	0	3136.60	0	1.5580	0	34.6600	4	27.750	0	3088.212	0	96.2	4	28.7	4	-1E+10	1	-1E+10	1	-1E+10	1	-1E+10	1	-1E+10	1	-1E+10	1
4902642	7	C	08/29/2024	01:51	-131.178	44.868	0	3137.70	0	1.5570	0	34.6610	4	27.751	0	3089.287	0	96.2	4	28.7	4	-1E+10	1	-1E+10	1	-1E+10	1	-1E+10	1	-1E+10	1	-1E+10	1
4902642	7	C	08/29/2024	01:51	-131.178	44.868	0	3138.60	0	1.5570	0	34.6610	4	27.751	0	3090.167	0	96.3	4	28.7	4	-1E+10	1	-1E+10	1	-1E+10	1	-1E+10	1	-1E+10	1	-1E+10	1
4902642	7	C	08/29/2024	01:51	-131.178	44.868	0	3139.40	0	1.5580	0	34.6600	4	27.750	0	3090.949	0	96.3	4	28.7	4	-1E+10	1	-1E+10	1	-1E+10	1	-1E+10	1	-1E+10	1	-1E+10	1
4902642	7	C	08/29/2024	01:51	-131.178	44.868	0	3140.30	0	1.5560	0	34.6610	4	27.751	0	3091.828	0	96.3	4	28.7	4	-1E+10	1	-1E+10	1	-1E+10	1	-1E+10	1	-1E+10	1	-1E+10	1
4902642	7	C	08/29/2024	01:51	-131.178	44.868	0	3141.60	0	1.5560	0	34.6610	4	27.751	0	3093.099	0	96.4	4	28.8	4	-1E+10	1	-1E+10	1	-1E+10	1	-1E+10	1	-1E+10	1	-1E+10	1
4902642	7	C	08/29/2024	01:51	-131.178	44.868	0	3142.90	0	1.5560	0	34.6610	4	27.751	0	3094.370	0	96.5	4	28.8	4	-1E+10	1	-1E+10	1	-1E+10	1	-1E+10	1	-1E+10	1	-1E+10	1
4902642	7	C	08/29/2024	01:51	-131.178	44.868	0	3143.70	0	1.5560	0	34.6620	4	27.752	0	3095.152	0	96.5	4	28.8	4	-1E+10	1	-1E+10	1	-1E+10	1	-1E+10	1	-1E+10	1	-1E+10	1
4902642	7	C	08/29/2024	01:51	-131.178	44.868	0	3144.70	0	1.5550	0	34.6620	4	27.752	0	3096.129	0	96.5	4	28.8	4	-1E+10	1	-1E+10	1	-1E+10	1	-1E+10	1	-1E+10	1	-1E+10	1
4902642	7	C	08/29/2024	01:51	-131.178	44.868	0	3145.60	0	1.5560	0	34.6610	4	27.751	0	3097.009	0	96.5	4	28.8	4	-1E+10	1	-1E+10	1	-1E+10	1	-1E+10	1	-1E+10	1	-1E+10	1
4902642	7	C	08/29/2024	01:51	-131.178	44.868	0	3146.50	0	1.5560	0	34.6610	4	27.751	0	3097.889	0	96.6	4	28.8	4	-1E+10	1	-1E+10	1	-1E+10	1	-1E+10	1	-1E+10	1	-1E+10	1
4902642	7	C	08/29/2024	01:51	-131.178	44.868	0	3147.40	0	1.5560	0	34.6610	4	27.751	0	3098.768	0	96.6	4	28.8	4	-1E+10	1	-1E+10	1	-1E+10	1	-1E+10	1	-1E+10	1	-1E+10	1
4902642	7	C	08/29/2024	01:51	-131.178	44.868	0	3148.20	0	1.5560	0	34.6600	4	27.750	0	3099.550	0	96.7	4	28.8	4	-1E+10	1	-1E+10	1	-1E+10	1	-1E+10	1	-1E+10	1	-1E+10	1
4902642	7	C	08/29/2024	01:51	-131.178	44.868	0	3149.50	0	1.5550	0	34.6610	4	27.751	0	3100.821	0	96.8	4	28.9	4	-1E+10	1	-1E+10	1	-1E+10	1	-1E+10	1	-1E+10	1	-1E+10	1
4902642	7	C	08/29/2024	01:51	-131.178	44.868	0	3150.80	0	1.5530	0	34.6620	4	27.752	0	3102.091	0	96.9	4	28.9	4	-1E+10	1	-1E+10	1	-1E+10	1	-1E+10	1	-1E+10	1	-1E+10	1
4902642	7	C	08/29/2024	01:51	-131.178	44.868	0	3151.70	0	1.5550	0	34.6620	4	27.752	0	3102.971	0	96.9	4	28.9	4	-1E+10	1	-1E+10	1	-1E+10	1	-1E+10	1	-1E+10	1	-1E+10	1
4902642	7	C	08/29/2024	01:51	-131.178	44.868	0	3152.70	0	1.5540	0	34.6610	4	27.751	0	3103.948	0	97.0	4	28.9	4	-1E+10	1	-1E+10	1	-1E+10	1	-1E+10	1	-1E+10	1	-1E+10	1
4902642	7	C	08/29/2024	01:51	-131.178	44.868	0	3153.50	0	1.5540	0	34.6610	4	27.751	0	3104.730	0	97.0	4	29.0	4	-1E+10	1	-1E+10	1	-1E+10	1	-1E+10	1	-1E+10	1	-1E+10	1
4902642	7	C	08/29/2024	01:51	-131.178	44.868	0	3154.30	0	1.5540	0	34.6610	4	27.751	0	3105.512	0	97.1	4	29.0	4	-1E+10	1	-1E+10	1	-1E+10	1	-1E+10	1	-1E+10	1	-1E+10	1
4902642	7	C	08/29/2024	01:51	-131.178	44.868	0	3155.10	0	1.5510	0	34.6620	4	27.752	0	3106.294	0	97.2	4	29.0	4	-1E+10	1	-1E+10	1	-1E+10	1	-1E+10	1	-1E+10	1	-1E+10	1
4902642	7	C	08/29/2024	01:51	-131.178	44.868	0	3156.50	0	1.5520	0	34.6610	4	27.751	0	3107.663	0	97.3	4	29.0	4	-1E+10	1	-1E+10	1	-1E+10	1	-1E+10	1	-1E+10	1	-1E+10	1
4902642	7	C	08/29/2024	01:51	-131.178	44.868	0	3157.40	0	1.5490	0	34.6620	4	27.752	0	3108.542	0	97.4	4	29.0	4	-1E+10	1	-1E+10	1	-1E+10	1	-1E+10	1	-1E+10	1	-1E+10	1
4902642	7	C	08/29/2024	01:51	-131.178	44.868	0	3158.50	0	1.5480	0	34.6640	4	27.754	0	3109.617	0	97.4	4	29.1	4	-1E+10	1	-1E+10	1	-1E+10	1	-1E+10	1	-1E+10	1	-1E+10	1
4902642	7	C	08/29/2024	01:51	-131.178	44.868	0	3159.40	0	1.5480	0	34.6630	4	27.753	0	3110.497	0	97.4	4	29.1	4	-1E+10	1	-1E+10	1	-1E+10	1	-1E+10	1	-1E+10	1	-1E+10	1
4902642	7	C	08/29/2024	01:51	-131.178	44.868	0	3160.60	0	1.5460	0	34.6630	4	27.753	0	3111.670	0	97.4	4	29.1	4	-1E+10	1	-1E+10	1	-1E+10	1	-1E+10	1	-1E+10	1	-1E+10	1
4902642	7	C	08/29/2024	01:51	-131.178	44.868	0	3161.60	0	1.5450	0	34.6630	4	27.753	0	3112.647	0	97.4	4	29.1	4	-1E+10	1	-1E+10	1	-1E+10	1	-1E+10	1	-1E+10	1	-1E+10	1
4902642	7	C	08/29/2024	01:51	-131.178	44.868	0	3162.60	0	1.5450	0	34.6630	4	27.753	0	3113.625	0	97.4	4	29.0	4	-1E+10	1	-1E+10	1	-1E+10	1	-1E+10	1	-1E+10	1	-1E+10	1
4902642	7	C	08/29/2024	01:51	-131.178	44.868	0	3163.40	0	1.5440	0	34.6630	4	27.753	0	3114.406	0	97.4	4	29.1	4	-1E+10	1	-1E+10	1	-1E+10	1	-1E+10	1	-1E+10	1	-1E+10	1
4902642	7	C	08/29/2024	01:51	-131.178	44.868	0	3164.70	0	1.5440	0	34.6630	4	27.753	0	3115.677	0	97.3	4	29.0	4	-1E+10	1	-1E+10	1	-1E+10	1	-1E+10	1	-1E+10	1	-1E+10	1
4902642	7	C	08/29/2024	01:51	-131.178	44.868	0	3165.50	0	1.5450	0	34.6630	4	27.753	0	3116.459	0	97.4	4	29.0	4	-1E+10	1	-1E+10	1	-1E+10	1	-1E+10	1	-1E+10	1	-1E+10	1
4902642	7	C	08/29/2024	01:51	-131.178	44.868	0																										
4902642	8	C	09/08/2024	10:01	-131.251	44.904	0	1.90	0	18.6140	0	32.5120	0	23.218	0	1.885	0	216.1	4	91.9	4	-1E+10	1	-1E+10	1	-1E+10	1	-1E+10	1	-1E+10	1	-1E+10	1
4902642	8	C	09/08/2024	10:01	-131.251	44.904	0	2.10	0	18.6130	0	32.5140	0	23.220	0	2.083	0	216.1	4	91.9	4	-1E+10	1	-1E+10	1	-1E+10	1	-1E+10	1	-1E+10	1	-1E+10	1
4902642	8	C	09/08/2024	10:01	-131.251	44.904	0	2.20	0	18.6160	0	32.5120	0	23.218	0	2.182	0	216.0	4	91.9	4	-1E+10	1	-1E+10	1	-1E+10	1	-1E+10	1	-1E+10	1	-1E+10	1
4902642	8	C	09/08/2024	10:01	-131.251	44.904	0	2.30	0	18.6150	0	32.5120	0	23.218	0	2.281	0	216.0	4	91.8	4	-1E+10	1	-1E+10	1	-1E+10	1	-1E+10	1	-1E+10	1	-1E+10	1
4902642	8	C	09/08/2024	10:01	-131.251	44.904	0	2.60	0	18.6170	0	32.5100	0	23.216	0	2.579	0	216.0	4	91.8	4	-1E+10	1	-1E+10	1	-1E+10	1	-1E+10	1	-1E+10	1	-1E+10	1
4902642	8	C	09/08/2024	10:01	-131.251	44.904	0	3.00	0	18.6160	0	32.5110	0	23.217	0	2.976	0	216.1	4	91.9	4	-1E+10	1	-1E+10	1	-1E+10	1	-1E+10	1	-1E+10	1	-1E+10	1
4902642	8	C	09/08/2024	10:01	-131.251	44.904	0	3.40	0	18.6180	0	32.5100	0	23.216	0	3.372	0	216.4	4	92.0	4	-1E+10	1	-1E+10	1	-1E+10	1	-1E+10	1	-1E+10	1	-1E+10	1
4902642	8	C	09/08/2024	10:01	-131.251	44.904	0	4.50	0	18.6210	0	32.5110	0	23.216	0	4.463	0	216.6	4	92.1	4	-1E+10	1	-1E+10	1	-1E+10	1	-1E+10	1	-1E+10	1	-1E+10	1
4902642	8	C	09/08/2024	10:01	-131.251	44.904	0	5.80	0	18.6190	0	32.5120	0	23.217	0	5.753	0	216.7	4	92.1	4	-1E+10	1	-1E+10	1	-1E+10	1	-1E+10	1	-1E+10	1	-1E+10	1
4902642	8	C	09/08/2024	10:01	-131.251	44.904	0	6.50	0	18.6190	0	32.5120	0	23.217	0	6.447	0	216.9	4	92.2	4	-1E+10	1	-1E+10	1	-1E+10	1	-1E+10	1	-1E+10	1	-1E+10	1
4902642	8	C	09/08/2024	10:01	-131.251	44.904	0	7.40	0	18.6200	0	32.5110	0	23.216	0	7.340	0	217.1	4	92.3	4	-1E+10	1	-1E+10	1	-1E+10	1	-1E+10	1	-1E+10	1	-1E+10	1
4902642	8	C	09/08/2024	10:01	-131.251	44.904	0	8.50	0	18.6230	0	32.5110	0	23.215	0	8.431	0	217.4	4	92.4	4	-1E+10	1	-1E+10	1	-1E+10	1	-1E+10	1	-1E+10	1	-1E+10	1
4902642	8	C	09/08/2024	10:01	-131.251	44.904	0	9.70	0	18.6240	0	32.5110	0	23.215	0	9.621	0	217.9	4	92.6	4	-1E+10	1	-1E+10	1	-1E+10	1	-1E+10	1	-1E+10	1	-1E+10	1
4902642	8	C	09/08/2024	10:01	-131.251	44.904	0	14.70	0	18.4590	0	32.5200	0	23.263	0	14.580	0	222.2	4	94.2	4	-1E+10	1	-1E+10	1	-1E+10	1	-1E+10	1	-1E+10	1	-1E+10	1
4902642	8	C	09/08/2024	10:01	-131.251	44.904	0	24.70	0	17.8200	0	32.5210	0	23.420	0	24.498	0	236.3	4	99.0	4	-1E+10	1	-1E+10	1	-1E+10	1	-1E+10	1	-1E+10	1	-1E+10	1
4902642	8	C	09/08/2024	10:01	-131.251	44.904	0	34.80	0	14.2850	0	32.4660	0	24.172	0	34.515	0	258.5	4	101.1	4	-1E+10	1	-1E+10	1	-1E+10	1	-1E+10	1	-1E+10	1	-1E+10	1
4902642	8	C	09/08/2024	10:01	-131.251	44.904	0	44.60	0	12.3010	0	32.5040	0	24.596	0	44.234	0	260.7	4	97.9	4	-1E+10	1	-1E+10	1	-1E+10	1	-1E+10	1	-1E+10	1	-1E+10	1
4902642	8	C	09/08/2024	10:01	-131.251	44.904	0	54.50	0	11.4150	0	32.5140	0	24.768	0	54.051	0	259.1	4	95.5	4	-1E+10	1	-1E+10	1	-1E+10	1	-1E+10	1	-1E+10	1	-1E+10	1
4902642	8	C	09/08/2024	10:01	-131.251	44.904	0	64.40	0	10.6930	0	32.5310	0	24.909	0	63.868	0	256.0	4	93.0	4	-1E+10	1	-1E+10	1	-1E+10	1	-1E+10	1	-1E+10	1	-1E+10	1
4902642	8	C	09/08/2024	10:01	-131.251	44.904	0	74.90	0	10.3230	0	32.5850	0	25.014	0	74.279	0	251.4	4	90.6	4	-1E+10	1	-1E+10	1	-1E+10	1	-1E+10	1	-1E+10	1	-1E+10	1
4902642	8	C	09/08/2024	10:01	-131.251	44.904	0	85.00	0	10.1090	0	32.6080	0	25.068	0	84.293	0	247.4	4	88.8	4	-1E+10	1	-1E+10	1	-1E+10	1	-1E+10	1	-1E+10	1	-1E+10	1
4902642	8	C	09/08/2024	10:01	-131.251	44.904	0	94.80	0	9.9180	0	32.6320	0	25.119	0	94.010	0	244.0	4	87.2	4	-1E+10	1	-1E+10	1	-1E+10	1	-1E+10	1	-1E+10	1	-1E+10	1
4902642	8	C	09/08/2024	10:01	-131.251	44.904	0	105.00	0	9.5960	0	32.6050	0	25.151	0	104.122	0	241.3	4	85.6	4	-1E+10	1	-1E+10	1	-1E+10	1	-1E+10	1	-1E+10	1	-1E+10	1
4902642	8	C	09/08/2024	10:01	-131.251	44.904	0	114.50	0	9.4420	0	32.6100	0	25.180	0	113.540	0	238.0	4	84.2	4	-1E+10	1	-1E+10	1	-1E+10	1	-1E+10	1	-1E+10	1	-1E+10	1
4902642	8	C	09/08/2024	10:01	-131.251	44.904	0	124.70	0	9.1630	0	32.6480	0	25.254	0	123.651	0	230.8	4	81.1	4	-1E+10	1	-1E+10	1	-1E+10	1	-1E+10	1	-1E+10	1	-1E+10	1
4902642	8	C	09/08/2024	10:01	-131.251	44.904	0	134.20	0	8.9280	0	32.7710	0	25.387	0	133.069	0	219.0	4	76.7	4	-1E+10	1	-1E+10	1	-1E+10	1	-1E+10	1	-1E+10	1	-1E+10	1
4902642	8	C	09/08/2024	10:01	-131.251	44.904	0	145.10	0	8.5990	0	32.9380	0	25.568	0	143.873	0	209.1	4	72.7	4	-1E+10	1	-1E+10	1	-1E+10	1	-1E+10	1	-1E+10	1	-1E+10	1
4902642	8	C	09/08/2024	10:01	-131.251	44.904	0	154.70	0	8.2280	0	33.1190	0	25.766	0	153.388	0	200.7	4	69.4	4	-1E+10	1	-1E+10	1	-1E+10	1	-1E+10	1	-1E+10	1	-1E+10	1
4902642	8	C	09/08/2024	10:01	-131.251	44.904	0	164.90	0	7.7850	0	33.3350	0	26.000	0	163.498	0	191.8	4	65.7	4	-1E+10	1	-1E+10	1	-1E+10	1	-1E+10	1	-1E+10	1	-1E+10	1
4902642	8	C	09/08/2024	10:01	-131.251	44.904	0	175.20	0	7.4490	0	33.4730	0	26.156	0	173.706	0	177.3	4	60.3	4	-1E+10	1	-1E+10	1	-1E+10	1	-1E+10	1	-1E+10	1	-1E+10	1
4902642	8	C	09/08/2024	10:01	-131.251	44.904	0	185.20	0	7.3770	0	33.6030	0	26.269	0	183.616	0	152.5	4	51.9	4	-1E+10	1	-1E+10	1	-1E+10	1	-1E+10	1	-1E+10	1	-1E+10	1
4902642	8	C	09/08/2024	10:01	-131.251	44.904	0	194.90	0	7.4040	0	33.6940	0	26.337	0	193.228	0	143.2	4	48.8	4	-1E+10	1	-1E+10	1	-1E+10	1	-1E+10	1	-1E+10	1	-1E+10	1
4902642	8	C	09/08/2024	10:01	-131.251	44.904	0	210.20	0	7.1920	0	33.7700	0	26.426	0	208.389	0	135.6	4	46.0	4	-1E+10	1	-1E+10	1	-1E+10	1	-1E+10	1	-1E+10	1	-1E+10	1
4902642	8	C	09/08/2024	10:01	-131.251	44.904	0	229.40	0	6.9850	0	33.8270	0	26.500	0	227.414	0	121.9	4	41.2	4	-1E+10	1	-1E+10	1	-1E+10	1	-1E+10	1	-1E+10	1	-1E+10	1
4902642	8	C	09/08/2024	10:01	-131.251	44.904	0	249.10	0	6.7740	0	33.8560	0	26.551	0	246.931	0	108.6	4	36.5	4	-1E+10	1	-1E+10	1	-1E+10	1	-1E+10	1	-1E+10	1	-1E+10	1
4902642	8	C	09/08/2024	10:01	-131.251	44.904	0	269.80	0	6.6460	0	33.8810	0	26.588	0	267.438	0	100.2	4	33.6	4	-1E+10	1	-1E+10	1	-1E+10	1	-1E+10	1	-1E+10	1	-1E+10	1
4902642	8	C	09/08/2024	10:01	-131.251	44.904	0	289.80	0	6.4230	0	33.8860	0	26.622	0	287.249	0	92.9	4	31.0	4	-1E+10	1	-1E+10	1	-1E+10	1	-1E+10	1	-1E+10	1	-1E+10	1
4902642	8	C	09/08/2024	10:01	-131.251	44.904	0	309.90	0	6.2190	0	33.9120	0	26.669	0	307.157	0	80.0	4	26.6	4	-1E+10	1	-1E+10	1	-1E+10	1	-1E+10	1	-1E+10	1	-1E+10	1
4902642	8	C	09/08/2024	10:01	-131.251	44.904	0	329.90	0	6.0270	0	33.9340	0	26.711	0	326.964	0	72.1	4	23.9	4	-1E+10	1	-1E+10	1	-1E+10	1	-1E+10	1	-1E+10	1	-1E+10	1
4902642	8	C	09/08/2024	10:01	-131.251	44.904	0	350.20	0	5.8290	0	33.9460	0	26.745	0	347.066	0	64.8	4	21.3	4	-1E+10	1	-1E+10	1	-1E+10	1	-1E+10	1	-1E+10	1	-1E+10	1
4902642	8	C	09/08/2024	10:01	-131.251	44.904	0	369.80	0	5.7140	0	33.9670	0	26.776	0	366.474	0	57.0	4	18.7	4	-1E+10	1	-1E+10	1	-1E+10	1	-1E+10	1	-1E+10	1	-1E+10	1
4902642	8	C	09/08/2024	10:01	-131.251	44.904	0	389.60	0	5.5420	0	33.9800	0	26.807	0	386.077	0	50.5	4	16.5	4	-1E+10	1	-1E+10	1	-1E+10	1	-1E+10	1	-1E+10	1	-1E+10	1
4902642	8	C	09/08/2024	10:01	-131.251	44.904	0	409.70	0	5.4630	0	34.0070	0	26.838	0	405.976	0	44.0	4	14.4	4	-1E+10	1	-1E+10	1	-1E+10	1	-1E+10	1	-1E+10	1	-1E+10	1
4902642	8	C	09/08/2024	10:01	-131.251	44.904	0	429.90	0	5.3480	0	34.0220	0	26.864	0	425.971	0	40.4	4	13.1	4	-1E+10	1	-1E+10	1	-1E+10	1	-1E+10	1	-1E+10	1	-1E+10	1
4902642	8	C	09/08/2024	10:01	-131.251	44.904	0	449.80	0	5.1520	0	34.0240	0	26.888	0	445.668	0	40.0	4	13.0	4	-1E+10	1	-1E+10	1	-1E+10	1	-1E+10	1	-1E+10	1	-1E+10	1
4902642	8	C	09/08/2024	10:01	-131.251	44.904	0	469.90	0	4.9840	0	34.0270	0	26.910	0	465.561	0	37.2	4	12.0	4	-1E+10	1	-1E+10	1	-1E+10	1	-1E+10	1	-1E+10	1	-1E+10	1
4902642	8	C	09/08/2024	10:01	-131.251	44.904	0	489.90	0	4.9080	0	34.0460	0	26.934	0	485.353	0	33.4	4	10.8	4	-1E+10	1	-1E+10	1	-1E+10	1	-1E+10	1	-1E+10	1	-1E+10	1
4902642	8	C	09/08/2024	10:01	-131.251	44.904	0	509.90	0	4.7970	0	34.0600	0	26.958	0	505.143	0	29.6	4	9.5	4	-1E+10	1	-1E+10	1	-1E+10	1	-1E+10	1	-1E+10	1	-1E+10	1
4902642	8	C	09/08/2024	10:01	-131.251	44.904	0	530.60	0	4.7040	0	34.0780	0	26.982	0	525.624	0	26.1	4	8.4	4	-1E+10	1	-1E+10	1	-1E+10	1	-1E+10	1	-1E+10	1	-1E+10	1
4902642	8	C	09/08/2024	10:01	-131.251	44.904	0	550.00	0	4.6360	0	34.0900	0	26.999	0	544.816	0	23.7	4	7.6	4	-1E+10	1	-1E+10	1	-1E+10	1	-1E+10	1	-1E+10	1	-1E+10	1
4902642	8	C	09/08/2024	10:01	-131.251	44.904	0	569.90	0	4.5720	0	34.1030	0	27.017	0	564.502	0	21.1	4	6.8	4	-1E+10	1	-1E+10	1	-1E+10	1	-1E+10	1	-1E+10	1	-1E+10	1
4902642	8	C	09/08/2024	10:01	-131.251	44.904	0	589.80	0	4.4940	0	34.1160	0	27.036	0	584.185	0	18.8	4	6.0	4	-1E+10	1	-1E+10	1	-1E+10	1	-1E+10	1	-1E+10	1	-1E+10	1
4902642	8	C	09/08/2024	10:01	-131.251	44.904	0	609.70	0	4.4370	0	34.1350	0	27.057	0	603.867	0	16.3	4	5.2	4	-1E+10	1	-1E+10	1	-1E+10	1	-1E+10	1	-1E+10	1	-1E+10	1
4902642	8	C	09/08/2024	10:01	-131.251	44.904	0	629.60	0	4.3850	0	34.1490	0	27.074	0	623.547	0	14.2	4	4.5	4	-1E+10	1	-1E+10	1	-1E+10	1	-1E+10	1	-1E+10	1	-1E+10	1
4902642	8	C	09/08/2024	10:01	-131.251	44.904	0	649.90	0	4.3500	0	34.1740	0	27.098	0	643.620	0	11.8	4	3.8	4	-1E+10	1	-1E+10	1	-1E+10	1	-1E+10	1	-1E+10	1	-1E+10	1
4902642	8	C	09/08/2024	10:01	-131.251	44.904	0	670.00	0	4.3040	0	34.1920	0	27.117	0	663.494	0	10.4	4	3.3	4	-1E+10	1	-1E+10	1	-1E+10	1	-1E+10	1	-1E+10	1	-1E+10	1
4902642	8	C	09/08/2024	10:01	-131.251	44.904	0	690.10	0	4.2520	0	34.2050	0	27.133	0	683.366	0	9.3	4	3.0	4	-1E+10	1	-1E+10	1	-1E+10	1	-1E+10	1	-1E+10	1	-1E+10	1
4902642	8	C	09/08/2024	10:01	-131.251	44.904	0	709.80	0	4.2150	0	34.2230	0	27.151	0	702.841	0	8.3	4	2.6	4	-1E+10	1	-1E+10	1	-1E+10	1	-1E+10	1	-1E+10	1	-1E+10	1
4902642	8	C	09/08/2024	10:01	-131.251	44.904	0	729.40	0	4.1670	0	34.2360	0	27.167	0	722.215	0	7.6	4	2.4	4	-1E+10	1	-1E+10	1	-1E+10	1	-1E+10	1	-1E+10	1	-1E+10	1
4902642	8	C	09/08/2024	10:01	-131.251	44.904	0	750.50	0	4.1190	0	34.2510	0	27.184	0	743.069	0	6.9	4	2.2	4	-1E+10	1	-1E+10	1	-1E+10	1	-1E+10	1	-1E+10	1	-1E+10	1
4902642	8	C	09/08/2024	10:01	-131.251	44.904	0	769.90	0	4.0940	0	34.2680	0	27.200	0	762.242	0	6.3	4	2.0	4	-1E+10	1	-1E+10	1	-1E+10	1	-1E+10	1	-1E+10	1	-1E+10	1
4902642	8	C	09/08/2024	10:01	-131.251	44.904	0	789.70	0	4.0550	0	34.2820	0	27.215	0	781.808	0	5.9	4	1.9	4	-1E+10	1	-1E+10	1	-1E+10	1	-1E+10	1	-1E+10	1	-1E+10	1
4902642	8	C	09/08/2024	10:01	-131.251	44.904	0	809.60	0	4.0020	0	34.2940	0	27.231	0	801.471	0	5.7	4	1.8	4	-1E+10	1	-1E+10	1	-1E+10	1	-1E+10	1	-1E+10	1	-1E+10	1
4902642	8	C	09/08/2024	10:01	-131.251	44.904	0	830.40	0	3.9510	0	34.3050	0	27.245	0	822.021	0	5.5	4	1.7	4	-1E+10	1	-1E+10	1	-1E+10	1	-1E+10	1	-1E+10	1	-1E+10	1
4902642	8	C	09/08/2024	10:01	-131.251	44.904	0	849.40	0	3.9030	0	34.3150	0	27.258	0	840.791	0	5.4	4	1.7	4	-1E+10	1	-1E+10	1	-1E+10	1	-1E+10	1	-1E+10	1	-1E+10	1
4902642	8	C	09/08/2024	10:01	-131.251	44.904	0	869.60	0	3.8680	0	34.3270	0	27.271	0	860.745	0	5.3	4	1.7	4	-1E+10	1	-1E+10	1	-1E+10	1	-1E+10	1	-1E+10	1	-1E+10	1
4902642	8	C	09/08/2024	10:01	-131.251	44.904	0	889.80	0	3.8210	0	34.3330	0	27.280	0	880.696	0	5.3	4	1.7	4	-1E+10	1	-1E+10	1	-1E+10	1	-1E+10	1	-1E+10	1	-1E+10	1
4902642	8	C	09/08/2024	10:01	-131.251	44.904	0	909.80	0	3.7820	0	34.3470	0	27.296	0	900.449	0	5.4	4	1.7	4	-1E+10	1	-1E+10	1	-1E+10	1	-1E+10	1	-1E+10	1	-1E+10	1
4902642	8	C	09/08/2024	10:01	-131.251	44.904	0	930.00	0	3.7220	0	34.3560	0	27.309	0	920.397	0	5.5	4	1.7	4	-1E+10	1	-1E+10	1	-1E+10	1	-1E+10	1	-1E+10	1	-1E+10	1
4902642	8	C	09/08/2024	10:01	-131.251	44.904	0	950.00	0	3.6850	0	34.3640	0	27.319	0	940.145	0	5.7	4	1.8	4	-1E+10	1	-1E+10	1	-1E+10	1	-1E+10	1	-1E+10	1	-1E+10	1
4902642	8	C	09/08/2024	10:01	-131.251	44.904	0	969.70	0	3.6540	0	34.3720	0	27.329	0	959.596	0	5.9	4	1.9	4	-1E+10	1	-1E+10	1	-1E+10	1	-1E+10	1	-1E+10	1	-1E+10	1
4902642	8	C	09/08/2024	10:01	-131.251	44.904	0	989.60	0	3.6150	0	34.3820	0	27.341	0	979.242	0	6.2	4	2.0	4	-1E+10	1	-1E+10	1	-1E+10	1	-1E+10	1	-1E+10	1	-1E+10	1
4902642	8	C	09/08/2024	10:01	-131.251	44.904	0	1009.70	0	3.5500	0	34.3890	0	27.353	0	999.084	0	6.3	4	2.0	4	-1E+10	1	-1E+10	1	-1E+10	1	-1E+10	1	-1E+10	1	-1E+10	1
4902642	8	C	09/08/2024	10:01	-131.251	44.904	0	1029.70	0	3.4980	0	34.3960	0	27.363	0	1018.825	0	6.7	4	2.1	4	-1E+10	1	-1E+10	1	-1E+10	1	-1E+10	1	-1E+10	1	-1E+10	1
4902642	8	C	09/08/2024	10:01	-131.251	44.904	0	1049.50	0	3.4640	0	34.4040	0	27.373	0	1038.367	0	7.0	4	2.2	4	-1E+10	1	-1E+10	1	-1E+10	1	-1E+10	1	-1E+10	1	-1E+10	1
4902642	8	C	09/08/2024	10:01	-131.251	44.904	0	1070.30	0	3.4110	0	34.4080	0	27.381	0	1058.894	0	7.3	4	2.3	4	-1E+10	1	-1E+10	1	-1E+10	1	-1E+10	1	-1E+10	1	-1E+10	1
4902642	8	C	09/08/2024	10:01	-131.251	44.904	0	1089.70	0	3.3740	0	34.4170	0	27.392	0	1078.037	0	7.8	4	2.4	4	-1E+10	1	-1E+10	1	-1E+10	1	-1E+10	1	-1E+10	1	-1E+10	1
4902642	8	C	09/08/2024	10:01	-131.251	44.904	0	1109.70	0	3.3260	0	34.4230	0	27.402	0	1097.771	0	8.2	4	2.6	4	-1E+10	1	-1E+10	1	-1E+10	1	-1E+10	1	-1E+10	1	-1E+10	1
4902642	8	C	09/08/2024	10:01	-131.251	44.904	0	1129.80	0	3.2710	0	34.4300	0	27.413	0	1117.601	0	8.7	4	2.7	4	-1E+10	1	-1E+10	1	-1E+10	1	-1E+10	1	-1E+10	1	-1E+10	1
4902642	8	C	09/08/2024	10:01	-131.251	44.904	0	1150.30	0	3.2320	0	34.4370	0	27.422	0	1137.824	0	9.4	4	2.9	4	-1E+10	1	-1E+10	1	-1E+10	1	-1E+10	1	-1E+10	1	-1E+10	1
4902642	8	C	09/08/2024	10:01	-131.251	44.904	0	1169.30	0	3.1910	0	34.4430	0	27.431	0	1156.566	0	10.0	4	3.1	4	-1E+10	1	-1E+10	1	-1E+10	1	-1E+10	1	-1E+10	1	-1E+10	1
4902642	8	C	09/08/2024	10:01	-131.251	44.904	0	1189.70	0	3.1500	0	34.4470	0	27.438	0	1176.687	0	10.4	4	3.2	4	-1E+10	1	-1E+10	1	-1E+10	1	-1E+10	1	-1E+10	1	-1E+10	1
4902642	8	C	09/08/2024	10:01	-131.251	44.904	0	1209.80	0	3.1140	0	34.4510	0	27.444	0	1196.510	0	10.8	4	3.3	4	-1E+10	1	-1E+10	1	-1E+10	1	-1E+10	1	-1E+10	1	-1E+10	1
4902642	8	C	09/08/2024	10:01	-131.251	44.904	0	1229.60	0	3.0720	0	34.4550	0	27.451	0	1216.035	0	11.4	4	3.5	4	-1E+10	1	-1E+10	1	-1E+10	1	-1E+10	1	-1E+10	1	-1E+10	1
4902642	8	C	09/08/2024	10:01	-131.251	44.904	0	1249.70	0	3.0280	0	34.4610	0	27.460	0	1235.854	0	12.1	4	3.7	4	-1E+10	1	-1E+10	1	-1E+10	1	-1E+10	1	-1E+10	1	-1E+10	1
4902642	8	C	09/08/2024	10:01	-131.251	44.904	0	1269.70	0	2.9840	0	34.4660	0	27.468	0	1255.573	0	12.6	4	3.9	4	-1E+10	1	-1E+10	1	-1E+10	1	-1E+10	1	-1E+10	1	-1E+10	1
4902642	8	C	09/08/2024	10:01	-131.251	44.904	0	1289.60	0	2.9450	0	34.4700	0	27.475	0	1275.191	0	13.2	4	4.1	4	-1E+10	1	-1E+10	1	-1E+10	1	-1E+10	1	-1E+10	1	-1E+10	1
4902642	8	C	09/08/2024	10:01	-131.251	44.904	0	1309.10	0	2.9060	0	34.4750	0	27.483	0	1294.414	0	13.9	4	4.3	4	-1E+10	1	-1E+10	1	-1E+10	1	-1E+10	1	-1E+10	1	-1E+10	1
4902642	8	C	09/08/2024	10:01	-131.251	44.904	0	1329.90	0	2.8670	0	34.4790	0	27.490	0	1314.916	0	14.6	4	4.5	4	-1E+10	1	-1E+10	1	-1E+10	1	-1E+10	1	-1E+10	1	-1E+10	1
4902642	8	C	09/08/2024	10:01	-131.251	44.904	0	1349.50	0	2.8250	0	34.4820	0	27.496	0	1334.233	0	15.2	4	4.7	4	-1E+10	1	-1E+10	1	-1E+10	1	-1E+10	1	-1E+10	1	-1E+10	1
4902642	8	C	09/08/2024	10:01	-131.251	44.904	0	1369.70	0	2.7900	0	34.4860	0	27.502	0	1354.139	0	15.9	4	4.9	4	-1E+10	1	-1E+10	1	-1E+10	1	-1E+10	1	-1E+10	1	-1E+10	1
4902642	8	C	09/08/2024	10:01	-131.251	44.904	0	1389.80	0	2.7480	0	34.4880	0	27.507	0	1373.946	0	16.5	4	5.1	4	-1E+10	1	-1E+10	1	-1E+10	1	-1E+10	1	-1E+10	1	-1E+10	1
4902642	8	C	09/08/2024	10:01	-131.251	44.904	0	1409.70	0	2.7020	0	34.4930	0	27.516	0	1393.553	0	17.5	4	5.4	4	-1E+10	1	-1E+10	1	-1E+10	1	-1E+10	1	-1E+10	1	-1E+10	1
4902642	8	C	09/08/2024	10:01	-131.251	44.904	0	1430.50	0	2.6590	0	34.4980	0	27.523	0	1414.045	0	18.5	4	5.7	4	-1E+10	1	-1E+10	1	-1E+10	1	-1E+10	1	-1E+10	1	-1E+10	1
4902642	8	C	09/08/2024	10:01	-131.251	44.904	0	1449.70	0	2.6360	0	34.5010	0	27.528	0	1432.959	0	19.1	4	5.9	4	-1E+10	1	-1E+10	1	-1E+10	1	-1E+10	1	-1E+10	1	-1E+10	1
4902642	8	C	09/08/2024	10:01	-131.251	44.904	0	1469.60	0	2.5990	0	34.5040	0	27.533	0	1452.561	0	20.1	4	6.1	4	-1E+10	1	-1E+10	1	-1E+10	1	-1E+10	1	-1E+10	1	-1E+10	1
4902642	8	C	09/08/2024	10:01	-131.251	44.904	0	1489.90	0	2.5580	0	34.5090	0	27.541	0	1472.555	0	21.3	4	6.5	4	-1E+10	1	-1E+10	1	-1E+10	1	-1E+10	1	-1E+10	1	-1E+10	1
4902642	8	C	09/08/2024	10:01	-131.251	44.904	0	1509.60	0	2.5300	0	34.5140	0	27.548	0	1491.956	0	22.4	4	6.9	4	-1E+10	1	-1E+10	1	-1E+10	1	-1E+10	1	-1E+10	1	-1E+10	1
4902642	8	C	09/08/2024	10:01	-131.251	44.904	0	1529.50	0	2.5040	0	34.5190	0	27.554	0	1511.552	0	23.5	4	7.2	4	-1E+10	1	-1E+10	1	-1E+10	1	-1E+10	1	-1E+10	1	-1E+10	1
4902642	8	C	09/08/2024	10:01	-131.251	44.904	0	1549.60	0	2.4810	0	34.5210	0	27.557	0	1531.343	0	24.5	4	7.5	4	-1E+10	1	-1E+10	1	-1E+10	1	-1E+10	1	-1E+10	1	-1E+10	1
4902642	8	C	09/08/2024	10:01	-131.251	44.904	0	1569.90	0	2.4500	0	34.5260	0	27.564	0	1551.330	0	25.8	4	7.9	4	-1E+10	1	-1E+10	1	-1E+10	1	-1E+10	1	-1E+10	1	-1E+10	1
4902642	8	C	09/08/2024	10:01	-131.251	44.904	0	1590.00	0	2.4080	0	34.5310	0	27.572	0	1571.118	0	27.4	4	8.4	4	-1E+10	1	-1E+10	1	-1E+10	1	-1E+10	1	-1E+10	1	-1E+10	1
4902642	8	C	09/08/2024	10:01	-131.251	44.904	0	1609.80	0	2.3800	0	34.5360	0	27.578	0	1590.608	0	28.7	4	8.7	4	-1E+10	1	-1E+10	1	-1E+10	1	-1E+10	1	-1E+10	1	-1E+10	1
4902642	8	C	09/08/2024	10:01	-131.251	44.904	0	1629.70	0	2.3550	0	34.5390	0	27.583	0	1610.195	0	29.6	4	9.0	4	-1E+10	1	-1E+10	1	-1E+10	1	-1E+10	1	-1E+10	1	-1E+10	1
4902642	8	C	09/08/2024	10:01	-131.251	44.904	0	1649.50	0	2.3320	0	34.5420	0	27.587	0	1629.682	0	30.6	4	9.3	4	-1E+10	1	-1E+10	1	-1E+10	1	-1E+10	1	-1E+10	1	-1E+10	1
4902642	8	C	09/08/2024	10:01	-131.251	44.904	0	1669.40	0	2.3070	0	34.5450	0	27.592	0	1649.266	0	31.7	4	9.6	4	-1E+10	1	-1E+10	1	-1E+10	1	-1E+10	1	-1E+10	1	-1E+10	1
4902642	8	C	09/08/2024	10:01	-131.251	44.904	0	1689.40	0	2.2870	0	34.5470	0	27.595	0	1668.946	0	32.5	4	9.9	4	-1E+10	1	-1E+10	1	-1E+10	1	-1E+10	1	-1E+10	1	-1E+10	1
4902642	8	C	09/08/2024	10:01	-131.251	44.904	0	1709.40	0	2.2530	0	34.5520	0	27.602	0	1688.624	0	33.7	4	10.2	4	-1E+10	1	-1E+10	1	-1E+10	1	-1E+10	1	-1E+10	1	-1E+10	1
4902642	8	C	09/08/2024	10:01	-131.251	44.904	0	1730.50	0	2.2260	0	34.5550	0	27.607	0	1709.383	0	34.9	4	10.6	4	-1E+10	1	-1E+10	1	-1E+10	1	-1E+10	1	-1E+10	1	-1E+10	1
4902642	8	C	09/08/2024	10:01	-131.251	44.904	0	1749.70	0	2.2060	0	34.5580	0	27.611	0	1728.270	0	36.2	4	11.0	4	-1E+10	1	-1E+10	1	-1E+10	1	-1E+10	1	-1E+10	1	-1E+10	1
4902642	8	C	09/08/2024	10:01	-131.251	44.904	0	1769.60	0	2.1760	0	34.5620	0	27.616	0	1747.845	0	37.8	4	11.4	4	-1E+10	1	-1E+10	1	-1E+10	1	-1E+10	1	-1E+10	1	-1E+10	1
4902642	8	C	09/08/2024	10:01	-131.251	44.904	0	1789.60	0	2.1510	0	34.5650	0	27.621	0	1767.516	0	39.0	4	11.8	4	-1E+10	1	-1E+10	1	-1E+10	1	-1E+10	1	-1E+10	1	-1E+10	1
4902642	8	C	09/08/2024	10:01	-131.251	44.904	0	1809.60	0	2.1260	0	34.5680	0	27.625	0	1787.185	0	40.1	4	12.1	4	-1E+10	1	-1E+10	1	-1E+10	1	-1E+10	1	-1E+10	1	-1E+10	1
4902642	8	C	09/08/2024	10:01	-131.251	44.904	0	1829.10	0	2.1130	0	34.5710	0	27.629	0	1806.360	0	40.9	4	12.4	4	-1E+10	1	-1E+10	1	-1E+10	1	-1E+10	1	-1E+10	1	-1E+10	1
4902642	8	C	09/08/2024	10:01	-131.251	44.904	0	1850.00	0	2.0970	0	34.5730	0	27.632	0	1826.911	0	41.9	4	12.7	4	-1E+10	1	-1E+10	1	-1E+10	1	-1E+10	1	-1E+10	1	-1E+10	1
4902642	8	C	09/08/2024	10:01	-131.251	44.904	0	1870.60	0	2.0830	0	34.5750	0	27.635	0	1847.164	0	43.1	4	13.0	4	-1E+10	1	-1E+10	1	-1E+10	1	-1E+10	1	-1E+10	1	-1E+10	1
4902642	8	C	09/08/2024	10:01	-131.251	44.904	0	1889.50	0	2.0630	0	34.5780	0	27.639	0	1865.745	0	44.1	4	13.3	4	-1E+10	1	-1E+10	1	-1E+10	1	-1E+10	1	-1E+10	1	-1E+10	1
4902642	8	C	09/08/2024	10:01	-131.251	44.904	0	1909.50	0	2.0390	0	34.5810	0	27.643	0	1885.405	0	45.4	4	13.7	4	-1E+10	1	-1E+10	1	-1E+10	1	-1E+10	1	-1E+10	1	-1E+10	1
4902642	8	C	09/08/2024	10:01	-131.251	44.904	0	1929.80	0	2.0240	0	34.5830	0	27.646	0	1905.358	0	46.4	4	14.0	4	-1E+10	1	-1E+10	1	-1E+10	1	-1E+10	1	-1E+10	1	-1E+10	1
4902642	8	C	09/08/2024	10:01	-131.251	44.904	0	1949.60	0	2.0090	0	34.5860	0	27.650	0	1924.817	0	47.5	4	14.3	4	-1E+10	1	-1E+10	1	-1E+10	1	-1E+10	1	-1E+10	1	-1E+10	1
4902642	8	C	09/08/2024	10:01	-131.251	44.904	0	1969.40	0	2.0000	0	34.5880	0	27.652	0	1944.275	0	48.6	4	14.7	4	-1E+10	1	-1E+10	1	-1E+10	1	-1E+10	1	-1E+10	1	-1E+10	1
4902642	8	C	09/08/2024	10:01	-131.251	44.904	0	1989.40	0	1.9920	0	34.5900	0	27.654	0	1963.928	0	49.4	4	14.9	4	-1E+10	1	-1E+10	1	-1E+10	1	-1E+10	1	-1E+10	1	-1E+10	1
4902642	8	C	09/08/2024	10:01	-131.251	44.904	0	2009.60	0	1.9800	0	34.5920	4	27.657	0	1983.775	0	50.3	4	15.2	4	-1E+10	1	-1E+10	1	-1E+10	1	-1E+10	1	-1E+10	1	-1E+10	1
4902642	8	C	09/08/2024	10:01	-131.251	44.904	0	2029.90	0	1.9660	0	34.5940	4	27.660	0	2003.719	0	51.2	4	15.4	4	-1E+10	1	-1E+10	1	-1E+10	1	-1E+10	1	-1E+10	1	-1E+10	1
4902642	8	C	09/08/2024	10:01	-131.251	44.904	0	2049.80	0	1.9560	0	34.5960	4	27.662	0	2023.268	0	52.0	4	15.7	4	-1E+10	1	-1E+10	1	-1E+10	1	-1E+10	1	-1E+10	1	-1E+10	1
4902642	8	C	09/08/2024	10:01	-131.251	44.904	0	2069.80	0	1.9420	0	34.5980	4	27.665	0	2042.914	0	52.9	4	15.9	4	-1E+10	1	-1E+10	1	-1E+10	1	-1E+10	1	-1E+10	1	-1E+10	1
4902642	8	C	09/08/2024	10:01	-131.251	44.904	0	2089.60	0	1.9320	0	34.5990	4	27.667	0	2062.361	0	53.8	4	16.2	4	-1E+10	1	-1E+10	1	-1E+10	1	-1E+10	1	-1E+10	1	-1E+10	1
4902642	8	C	09/08/2024	10:01	-131.251	44.904	0	2108.90	0	1.9210	0	34.6010	4	27.669	0	2081.315	0	54.6	4	16.4	4	-1E+10	1	-1E+10	1	-1E+10	1	-1E+10	1	-1E+10	1	-1E+10	1
4902642	8	C	09/08/2024	10:01	-131.251	44.904	0	2130.00	0	1.9100	0	34.6030	4	27.672	0	2102.036	0	55.4	4	16.7	4	-1E+10	1	-1E+10	1	-1E+10	1	-1E+10	1	-1E+10	1	-1E+10	1
4902642	8	C	09/08/2024	10:01	-131.251	44.904	0	2150.00	0	1.8990	0	34.6050	4	27.675	0	2121.674	0	56.2	4	16.9	4	-1E+10	1	-1E+10	1	-1E+10	1	-1E+10	1	-1E+10	1	-1E+10	1
4902642	8	C	09/08/2024	10:01	-131.251	44.904	0	2170.00	0	1.8910	0	34.6060	4	27.676	0	2141.310	0	56.9	4	17.1	4	-1E+10	1	-1E+10	1	-1E+10	1	-1E+10	1	-1E+10	1	-1E+10	1
4902642	8	C	09/08/2024	10:01	-131.251	44.904	0	2189.90	0	1.8810	0	34.6080	4	27.679	0	2160.846	0	57.7	4	17.4	4	-1E+10	1	-1E+10	1	-1E+10	1	-1E+10	1	-1E+10	1	-1E+10	1
4902642	8	C	09/08/2024	10:01	-131.251	44.904	0	2210.50	0	1.8710	0	34.6090	4	27.680	0	2181.068	0	58.5	4	17.6	4	-1E+10	1	-1E+10	1	-1E+10	1	-1E+10	1	-1E+10	1	-1E+10	1
4902642	8	C	09/08/2024	10:01	-131.251	44.904	0	2229.80	0	1.8640	0	34.6110	4	27.682	0	2200.012	0	59.1	4	17.8	4	-1E+10	1	-1E+10	1	-1E+10	1	-1E+10	1	-1E+10	1	-1E+10	1
4902642	8	C	09/08/2024	10:01	-131.251	44.904	0	2249.60	0	1.8570	0	34.6120	4	27.684	0	2219.445	0	59.7	4	17.9	4	-1E+10	1	-1E+10	1	-1E+10	1	-1E+10	1	-1E+10	1	-1E+10	1
4902642	8	C	09/08/2024	10:01	-131.251	44.904	0	2269.70	0	1.8520	0	34.6130	4	27.685	0	2239.170	0	60.3	4	18.1	4	-1E+10	1	-1E+10	1	-1E+10	1	-1E+10	1	-1E+10	1	-1E+10	1
4902642	8	C	09/08/2024	10:01	-131.251	44.904	0	2289.60	0	1.8470	0	34.6140	4	27.686	0	2258.698	0	61.2	4	18.4	4	-1E+10	1	-1E+10	1	-1E+10	1	-1E+10	1	-1E+10	1	-1E+10	1
4902642	8	C	09/08/2024	10:01	-131.251	44.904	0	2309.70	0	1.8390	0	34.6160	4	27.689	0	2278.420	0	62.2	4	18.7	4	-1E+10	1	-1E+10	1	-1E+10	1	-1E+10	1	-1E+10	1	-1E+10	1
4902642	8	C	09/08/2024	10:01	-131.251	44.904	0	2329.90	0	1.8330	0	34.6170	4	27.690	0	2298.238	0	62.8	4	18.9	4	-1E+10	1	-1E+10	1	-1E+10	1	-1E+10	1	-1E+10	1	-1E+10	1
4902642	8	C	09/08/2024	10:01	-131.251	44.904	0	2350.70	0	1.8280	0	34.6180	4	27.692	0	2318.643	0	63.2	4	19.0	4	-1E+10	1	-1E+10	1	-1E+10	1	-1E+10	1	-1E+10	1	-1E+10	1
4902642	8	C	09/08/2024	10:01	-131.251	44.904	0	2369.80	0	1.8240	0	34.6190	4	27.693	0	2337.378	0	63.6	4	19.1	4	-1E+10	1	-1E+10	1	-1E+10	1	-1E+10	1	-1E+10	1	-1E+10	1
4902642	8	C	09/08/2024	10:01	-131.251	44.904	0	2389.60	0	1.8160	0	34.6200	4	27.694	0	2356.799	0	64.3	4	19.3	4	-1E+10	1	-1E+10	1	-1E+10	1	-1E+10	1	-1E+10	1	-1E+10	1
4902642	8	C	09/08/2024	10:01	-131.251	44.904	0	2409.70	0	1.8120	0	34.6210	4	27.695	0	2376.512	0	64.8	4	19.4	4	-1E+10	1	-1E+10	1	-1E+10	1	-1E+10	1	-1E+10	1	-1E+10	1
4902642	8	C	09/08/2024	10:01	-131.251	44.904	0	2430.10	0	1.8090	0	34.6220	4	27.697	0	2396.517	0	65.3	4	19.6	4	-1E+10	1	-1E+10	1	-1E+10	1	-1E+10	1	-1E+10	1	-1E+10	1
4902642	8	C	09/08/2024	10:01	-131.251	44.904	0	2450.10	0	1.8010	0	34.6230	4	27.698	0	2416.128	0	66.2	4	19.9	4	-1E+10	1	-1E+10	1	-1E+10	1	-1E+10	1	-1E+10	1	-1E+10	1
4902642	8	C	09/08/2024	10:01	-131.251	44.904	0	2469.90	0	1.7910	0	34.6240	4	27.700	0	2435.541	0	67.1	4	20.1	4	-1E+10	1	-1E+10	1	-1E+10	1	-1E+10	1	-1E+10	1	-1E+10	1
4902642	8	C	09/08/2024	10:01	-131.251	44.904	0	2489.60	0	1.7880	0	34.6250	4	27.701	0	2454.855	0	67.6	4	20.3	4	-1E+10	1	-1E+10	1	-1E+10	1	-1E+10	1	-1E+10	1	-1E+10	1
4902642	8	C	09/08/2024	10:01	-131.251	44.904	0	2509.80	0	1.7860	0	34.6260	4	27.702	0	2474.657	0	68.1	4	20.4	4	-1E+10	1	-1E+10	1	-1E+10	1	-1E+10	1	-1E+10	1	-1E+10	1
4902642	8	C	09/08/2024	10:01	-131.251	44.904	0	2530.10	0	1.7810	0	34.6270	4	27.703	0	2494.555	0	68.7	4	20.6	4	-1E+10	1	-1E+10	1	-1E+10	1	-1E+10	1	-1E+10	1	-1E+10	1
4902642	8	C	09/08/2024	10:01	-131.251	44.904	0	2549.70	0	1.7780	0	34.6280	4	27.705	0	2513.765	0	69.2	4	20.8	4	-1E+10	1	-1E+10	1	-1E+10	1	-1E+10	1	-1E+10	1	-1E+10	1
4902642	8	C	09/08/2024	10:01	-131.251	44.904	0	2569.50	0	1.7740	0	34.6280	4	27.705	0	2533.169	0	69.6	4	20.9	4	-1E+10	1	-1E+10	1	-1E+10	1	-1E+10	1	-1E+10	1	-1E+10	1
4902642	8	C	09/08/2024	10:01	-131.251	44.904	0	2590.20	0	1.7700	0	34.6290	4	27.706	0	2553.454	0	70.3	4	21.1	4	-1E+10	1	-1E+10	1	-1E+10	1	-1E+10	1	-1E+10	1	-1E+10	1
4902642	8	C	09/08/2024	10:01	-131.251	44.904	0	2609.60	0	1.7620	0	34.6300	4	27.708	0	2572.463	0	71.1	4	21.3	4	-1E+10	1	-1E+10	1	-1E+10	1	-1E+10	1	-1E+10	1	-1E+10	1
4902642	8	C	09/08/2024	10:01	-131.251	44.904	0	2629.60	0	1.7540	0	34.6310	4	27.709	0	2592.058	0	72.2	4	21.6	4	-1E+10	1	-1E+10	1	-1E+10	1	-1E+10	1	-1E+10	1	-1E+10	1
4902642	8	C	09/08/2024	10:01	-131.251	44.904	0	2649.40	0	1.7420	0	34.6330	4	27.712	0	2611.455	0	73.3	4	22.0	4	-1E+10	1	-1E+10	1	-1E+10	1	-1E+10	1	-1E+10	1	-1E+10	1
4902642	8	C	09/08/2024	10:01	-131.251	44.904	0	2669.10	0	1.7350	0	34.6340	4	27.713	0	2630.753	0	74.1	4	22.2	4	-1E+10	1	-1E+10	1	-1E+10	1	-1E+10	1	-1E+10	1	-1E+10	1
4902642	8	C	09/08/2024	10:01	-131.251	44.904	0	2690.10	0	1.7310	0	34.6350	4	27.714	0	2651.322	0	74.6	4	22.3	4	-1E+10	1	-1E+10	1	-1E+10	1	-1E+10	1	-1E+10	1	-1E+10	1
4902642	8	C	09/08/2024	10:01	-131.251	44.904	0	2709.80	0	1.7290	0	34.6350	4	27.715	0	2670.617	0	75.1	4	22.5	4	-1E+10	1	-1E+10	1	-1E+10	1	-1E+10	1	-1E+10	1	-1E+10	1
4902642	8	C	09/08/2024	10:01	-131.251	44.904	0	2729.60	0	1.7210	0	34.6370	4	27.717	0	2690.007	0	76.1	4	22.8	4	-1E+10	1	-1E+10	1	-1E+10	1	-1E+10	1	-1E+10	1	-1E+10	1
4902642	8	C	09/08/2024	10:01	-131.251	44.904	0	2749.90	0	1.7090	0	34.6380	4	27.719	0	2709.885	0	77.2	4	23.1	4	-1E+10	1	-1E+10	1	-1E+10	1	-1E+10	1	-1E+10	1	-1E+10	1
4902642	8	C	09/08/2024	10:01	-131.251	44.904	0	2770.00	0	1.7000	0	34.6390	4	27.720	0	2729.566	0	78.1	4	23.4	4	-1E+10	1	-1E+10	1	-1E+10	1	-1E+10	1	-1E+10	1	-1E+10	1
4902642	8	C	09/08/2024	10:01	-131.251	44.904	0	2790.40	0	1.6950	0	34.6400	4	27.722	0	2749.538	0	78.8	4	23.6	4	-1E+10	1	-1E+10	1	-1E+10	1	-1E+10	1	-1E+10	1	-1E+10	1
4902642	8	C	09/08/2024	10:01	-131.251	44.904	0	2809.70	0	1.6900	0	34.6410	4	27.723	0	2768.432	0	79.4	4	23.8	4	-1E+10	1	-1E+10	1	-1E+10	1	-1E+10	1	-1E+10	1	-1E+10	1
4902642	8	C	09/08/2024	10:01	-131.251	44.904	0	2829.70	0	1.6870	0	34.6410	4	27.723	0	2788.009	0	79.9	4	23.9	4	-1E+10	1	-1E+10	1	-1E+10	1	-1E+10	1	-1E+10	1	-1E+10	1
4902642	8	C	09/08/2024	10:01	-131.251	44.904	0	2849.70	0	1.6830	0	34.6420	4	27.725	0	2807.585	0	80.5	4	24.1	4	-1E+10	1	-1E+10	1	-1E+10	1	-1E+10	1	-1E+10	1	-1E+10	1
4902642	8	C	09/08/2024	10:01	-131.251	44.904	0	2870.10	0	1.6790	0	34.6430	4	27.726	0	2827.550	0	81.0	4	24.2	4	-1E+10	1	-1E+10	1	-1E+10	1	-1E+10	1	-1E+10	1	-1E+10	1
4902642	8	C	09/08/2024	10:01	-131.251	44.904	0	2890.50	0	1.6750	0	34.6430	4	27.726	0	2847.513	0	81.6	4	24.4	4	-1E+10	1	-1E+10	1	-1E+10	1	-1E+10	1	-1E+10	1	-1E+10	1
4902642	8	C	09/08/2024	10:01	-131.251	44.904	0	2909.70	0	1.6700	0	34.6440	4	27.728	0	2866.301	0	82.3	4	24.6	4	-1E+10	1	-1E+10	1	-1E+10	1	-1E+10	1	-1E+10	1	-1E+10	1
4902642	8	C	09/08/2024	10:01	-131.251	44.904	0	2929.60	0	1.6650	0	34.6450	4	27.729	0	2885.771	0	83.1	4	24.9	4	-1E+10	1	-1E+10	1	-1E+10	1	-1E+10	1	-1E+10	1	-1E+10	1
4902642	8	C	09/08/2024	10:01	-131.251	44.904	0	2949.60	0	1.6570	0	34.6460	4	27.730	0	2905.338	0	84.0	4	25.1	4	-1E+10	1	-1E+10	1	-1E+10	1	-1E+10	1	-1E+10	1	-1E+10	1
4902642	8	C	09/08/2024	10:01	-131.251	44.904	0	2969.60	0	1.6510	0	34.6470	4	27.732	0	2924.903	0	85.0	4	25.4	4	-1E+10	1	-1E+10	1	-1E+10	1	-1E+10	1	-1E+10	1	-1E+10	1
4902642	8	C	09/08/2024	10:01	-131.251	44.904	0	2990.30	0	1.6360	0	34.6480	4	27.734	0	2945.151	0	86.4	4	25.8	4	-1E+10	1	-1E+10	1	-1E+10	1	-1E+10	1	-1E+10	1	-1E+10	1
4902642	8	C	09/08/2024	10:01	-131.251	44.904	0	3010.30	0	1.6250	0	34.6500	4	27.736	0	2964.712	0	87.7	4	26.2	4	-1E+10	1	-1E+10	1	-1E+10	1	-1E+10	1	-1E+10	1	-1E+10	1
4902642	8	C	09/08/2024	10:01	-131.251	44.904	0	3030.10	0	1.6100	0	34.6510	4	27.738	0	2984.076	0	89.3	4	26.7	4	-1E+10	1	-1E+10	1	-1E+10	1	-1E+10	1	-1E+10	1	-1E+10	1
4902642	8	C	09/08/2024	10:01	-131.251	44.904	0	3050.10	0	1.6040	0	34.6530	4	27.740	0	3003.634	0	89.7	4	26.8	4	-1E+10	1	-1E+10	1	-1E+10	1	-1E+10	1	-1E+10	1	-1E+10	1
4902642	8	C	09/08/2024	10:01	-131.251	44.904	0	3071.00	0	1.6020	0	34.6530	4	27.741	0	3024.070	0	90.5	4	27.0	4	-1E+10	1	-1E+10	1	-1E+10	1	-1E+10	1	-1E+10	1	-1E+10	1
4902642	8	C	09/08/2024	10:01	-131.251	44.904	0	3090.20	0	1.5930	0	34.6540	4	27.742	0	3042.842	0	91.5	4	27.3	4	-1E+10	1	-1E+10	1	-1E+10	1	-1E+10	1	-1E+10	1	-1E+10	1
4902642	8	C	09/08/2024	10:01	-131.251	44.904	0	3109.90	0	1.5890	0	34.6550	4	27.743	0	3062.101	0	92.2	4	27.5	4	-1E+10	1	-1E+10	1	-1E+10	1	-1E+10	1	-1E+10	1	-1E+10	1
4902642	8	C	09/08/2024	10:01	-131.251	44.904	0	3129.70	0	1.5840	0	34.6560	4	27.745	0	3081.457	0	93.1	4	27.8	4	-1E+10	1	-1E+10	1	-1E+10	1	-1E+10	1	-1E+10	1	-1E+10	1
4902642	8	C	09/08/2024	10:01	-131.251	44.904	0	3149.70	0	1.5770	0	34.6570	4	27.746	0	3101.006	0	94.0	4	28.1	4	-1E+10	1	-1E+10	1	-1E+10	1	-1E+10	1	-1E+10	1	-1E+10	1
4902642	8	C	09/08/2024	10:01	-131.251	44.904	0	3170.00	0	1.5730	0	34.6580	4	27.747	0	3120.846	0	94.6	4	28.2	4	-1E+10	1	-1E+10	1	-1E+10	1	-1E+10	1	-1E+10	1	-1E+10	1
4902642	8	C	09/08/2024	10:01	-131.251	44.904	0	3190.40	0	1.5720	0	34.6590	4	27.748	0	3140.783	0	95.1	4	28.4	4	-1E+10	1	-1E+10	1	-1E+10	1	-1E+10	1	-1E+10	1	-1E+10	1
4902642	8	C	09/08/2024	10:01	-131.251	44.904	0	3209.80	0	1.5640	0	34.6600	4	27.750	0	3159.740	0	96.1	4	28.7	4	-1E+10	1	-1E+10	1	-1E+10	1	-1E+10	1	-1E+10	1	-1E+10	1
4902642	8	C	09/08/2024	10:01	-131.251	44.904	0	3230.00	0	1.5600	0	34.6610	4	27.751	0	3179.478	0	96.6	4	28.8	4	-1E+10	1	-1E+10	1	-1E+10	1	-1E+10	1	-1E+10	1	-1E+10	1
4902642	8	C	09/08/2024	10:01	-131.251	44.904	0	3250.00	0	1.5580	0	34.6620	4	27.752	0	3199.018	0	97.0	4	28.9	4	-1E+10	1	-1E+10	1	-1E+10	1	-1E+10	1	-1E+10	1	-1E+10	1
4902642	8	C	09/08/2024	10:01	-131.251	44.904	0	3270.20	0	1.5590	0	34.6620	4	27.752	0	3218.752	0	97.1	4	29.0	4	-1E+10	1	-1E+10	1	-1E+10	1	-1E+10	1	-1E+10	1	-1E+10	1
4902642	8	C	09/08/2024	10:01	-131.251	44.904	0	3290.00	0	1.5590	0	34.6620	4	27.752	0	3238.093	0	97.3	4	29.0	4	-1E+10	1	-1E+10	1	-1E+10	1	-1E+10	1	-1E+10	1	-1E+10	1
4902642	8	C	09/08/2024	10:01	-131.251	44.904	0	3310.10	0	1.5590	0	34.6620	4	27.753	0	3257.726	0	97.4	4	29.1	4	-1E+10	1	-1E+10	1	-1E+10	1	-1E+10	1	-1E+10	1	-1E+10	1
4902642	8	C	09/08/2024	10:01	-131.251	44.904	0	3329.60	0	1.5610	0	34.6630	4	27.753	0	3276.771	0	97.4	4	29.1	4	-1E+10	1	-1E+10	1	-1E+10	1	-1E+10	1	-1E+10	1	-1E+10	1
4902642	8	C	09/08/2024	10:01	-131.251	44.904	0	3349.90	0	1.5630	0	34.6630	4	27.753	0	3296.595	0	97.3	4	29.0	4	-1E+10	1	-1E+10	1	-1E+10	1	-1E+10	1	-1E+10	1	-1E+10	1
4902642	8	C	09/08/2024	10:01	-131.251	44.904	0	3366.00	0	1.5640	0	34.6620	4	27.753	0	3312.317	0	96.9	4	28.9	4	-1E+10	1	-1E+10	1	-1E+10	1	-1E+10	1	-1E+10	1	-1E+10	1
4902642	8	C	09/08/2024	10:01	-131.251	44.904	0																										
4902642	9	C	09/18/2024	04:22	-131.285	44.947	0	1.90	0	18.1720	0	32.5530	0	23.358	0	1.885	0	217.0	4	91.5	4	-1E+10	1	-1E+10	1	-1E+10	1	-1E+10	1	-1E+10	1	-1E+10	1
4902642	9	C	09/18/2024	04:22	-131.285	44.947	0	2.00	0	18.1750	0	32.5490	0	23.354	0	1.984	0	217.0	4	91.5	4	-1E+10	1	-1E+10	1	-1E+10	1	-1E+10	1	-1E+10	1	-1E+10	1
4902642	9	C	09/18/2024	04:22	-131.285	44.947	0	2.10	0	18.1720	0	32.5520	0	23.357	0	2.083	0	217.1	4	91.5	4	-1E+10	1	-1E+10	1	-1E+10	1	-1E+10	1	-1E+10	1	-1E+10	1
4902642	9	C	09/18/2024	04:22	-131.285	44.947	0	2.30	0	18.1723	0	32.5523	0	23.358	0	2.281	0	217.0	4	91.5	4	-1E+10	1	-1E+10	1	-1E+10	1	-1E+10	1	-1E+10	1	-1E+10	1
4902642	9	C	09/18/2024	04:22	-131.285	44.947	0	2.40	0	18.1740	0	32.5500	0	23.355	0	2.381	0	217.0	4	91.5	4	-1E+10	1	-1E+10	1	-1E+10	1	-1E+10	1	-1E+10	1	-1E+10	1
4902642	9	C	09/18/2024	04:22	-131.285	44.947	0	2.50	0	18.1740	0	32.5515	0	23.357	0	2.480	0	-1e10	1	-1e10	1	-1E+10	1	-1E+10	1	-1E+10	1	-1E+10	1	-1E+10	1	-1E+10	1
4902642	9	C	09/18/2024	04:22	-131.285	44.947	0	2.80	0	18.1830	0	32.5520	0	23.355	0	2.777	0	217.8	4	91.9	4	-1E+10	1	-1E+10	1	-1E+10	1	-1E+10	1	-1E+10	1	-1E+10	1
4902642	9	C	09/18/2024	04:22	-131.285	44.947	0	3.50	0	18.1870	0	32.5510	0	23.353	0	3.472	0	217.2	4	91.7	4	-1E+10	1	-1E+10	1	-1E+10	1	-1E+10	1	-1E+10	1	-1E+10	1
4902642	9	C	09/18/2024	04:22	-131.285	44.947	0	4.70	0	18.1880	0	32.5520	0	23.354	0	4.662	0	217.2	4	91.6	4	-1E+10	1	-1E+10	1	-1E+10	1	-1E+10	1	-1E+10	1	-1E+10	1
4902642	9	C	09/18/2024	04:22	-131.285	44.947	0	5.60	0	18.1890	0	32.5510	0	23.353	0	5.554	0	217.3	4	91.7	4	-1E+10	1	-1E+10	1	-1E+10	1	-1E+10	1	-1E+10	1	-1E+10	1
4902642	9	C	09/18/2024	04:22	-131.285	44.947	0	6.40	0	18.1890	0	32.5520	0	23.353	0	6.348	0	217.3	4	91.7	4	-1E+10	1	-1E+10	1	-1E+10	1	-1E+10	1	-1E+10	1	-1E+10	1
4902642	9	C	09/18/2024	04:22	-131.285	44.947	0	7.50	0	18.1880	0	32.5520	0	23.354	0	7.439	0	217.3	4	91.7	4	-1E+10	1	-1E+10	1	-1E+10	1	-1E+10	1	-1E+10	1	-1E+10	1
4902642	9	C	09/18/2024	04:22	-131.285	44.947	0	8.30	0	18.1880	0	32.5520	0	23.354	0	8.233	0	217.4	4	91.7	4	-1E+10	1	-1E+10	1	-1E+10	1	-1E+10	1	-1E+10	1	-1E+10	1
4902642	9	C	09/18/2024	04:22	-131.285	44.947	0	9.60	0	18.1890	0	32.5520	0	23.354	0	9.522	0	217.6	4	91.8	4	-1E+10	1	-1E+10	1	-1E+10	1	-1E+10	1	-1E+10	1	-1E+10	1
4902642	9	C	09/18/2024	04:22	-131.285	44.947	0	14.50	0	18.1860	0	32.5490	0	23.352	0	14.382	0	220.2	4	92.9	4	-1E+10	1	-1E+10	1	-1E+10	1	-1E+10	1	-1E+10	1	-1E+10	1
4902642	9	C	09/18/2024	04:22	-131.285	44.947	0	24.20	0	16.5320	0	32.5080	0	23.713	0	24.002	0	241.8	4	98.8	4	-1E+10	1	-1E+10	1	-1E+10	1	-1E+10	1	-1E+10	1	-1E+10	1
4902642	9	C	09/18/2024	04:22	-131.285	44.947	0	34.60	0	12.4160	0	32.4820	0	24.557	0	34.316	0	261.0	4	98.3	4	-1E+10	1	-1E+10	1	-1E+10	1	-1E+10	1	-1E+10	1	-1E+10	1
4902642	9	C	09/18/2024	04:22	-131.285	44.947	0	44.70	0	11.1990	0	32.4880	0	24.786	0	44.333	0	257.0	4	94.3	4	-1E+10	1	-1E+10	1	-1E+10	1	-1E+10	1	-1E+10	1	-1E+10	1
4902642	9	C	09/18/2024	04:22	-131.285	44.947	0	54.50	0	10.3920	0	32.5160	0	24.948	0	54.051	0	253.3	4	91.4	4	-1E+10	1	-1E+10	1	-1E+10	1	-1E+10	1	-1E+10	1	-1E+10	1
4902642	9	C	09/18/2024	04:22	-131.285	44.947	0	64.90	0	10.0940	0	32.5360	0	25.014	0	64.363	0	250.4	4	89.8	4	-1E+10	1	-1E+10	1	-1E+10	1	-1E+10	1	-1E+10	1	-1E+10	1
4902642	9	C	09/18/2024	04:22	-131.285	44.947	0	74.80	0	9.9300	0	32.5670	0	25.066	0	74.180	0	247.6	4	88.5	4	-1E+10	1	-1E+10	1	-1E+10	1	-1E+10	1	-1E+10	1	-1E+10	1
4902642	9	C	09/18/2024	04:22	-131.285	44.947	0	84.80	0	9.7360	0	32.5650	0	25.096	0	84.095	0	244.5	4	87.0	4	-1E+10	1	-1E+10	1	-1E+10	1	-1E+10	1	-1E+10	1	-1E+10	1
4902642	9	C	09/18/2024	04:22	-131.285	44.947	0	95.30	0	9.5320	0	32.5860	0	25.146	0	94.505	0	242.6	4	86.0	4	-1E+10	1	-1E+10	1	-1E+10	1	-1E+10	1	-1E+10	1	-1E+10	1
4902642	9	C	09/18/2024	04:22	-131.285	44.947	0	105.10	0	9.3410	0	32.5970	0	25.185	0	104.221	0	240.8	4	85.0	4	-1E+10	1	-1E+10	1	-1E+10	1	-1E+10	1	-1E+10	1	-1E+10	1
4902642	9	C	09/18/2024	04:22	-131.285	44.947	0	114.90	0	9.2010	0	32.6120	0	25.219	0	113.936	0	235.8	4	83.0	4	-1E+10	1	-1E+10	1	-1E+10	1	-1E+10	1	-1E+10	1	-1E+10	1
4902642	9	C	09/18/2024	04:22	-131.285	44.947	0	124.80	0	9.0710	0	32.6990	0	25.308	0	123.750	0	222.9	4	78.2	4	-1E+10	1	-1E+10	1	-1E+10	1	-1E+10	1	-1E+10	1	-1E+10	1
4902642	9	C	09/18/2024	04:22	-131.285	44.947	0	135.50	0	8.6070	0	32.9430	0	25.571	0	134.357	0	209.0	4	72.7	4	-1E+10	1	-1E+10	1	-1E+10	1	-1E+10	1	-1E+10	1	-1E+10	1
4902642	9	C	09/18/2024	04:22	-131.285	44.947	0	145.10	0	8.2040	0	33.1360	0	25.783	0	143.872	0	202.1	4	69.8	4	-1E+10	1	-1E+10	1	-1E+10	1	-1E+10	1	-1E+10	1	-1E+10	1
4902642	9	C	09/18/2024	04:22	-131.285	44.947	0	155.50	0	7.7300	0	33.3100	0	25.988	0	154.180	0	196.1	4	67.1	4	-1E+10	1	-1E+10	1	-1E+10	1	-1E+10	1	-1E+10	1	-1E+10	1
4902642	9	C	09/18/2024	04:22	-131.285	44.947	0	164.80	0	7.4020	0	33.4350	0	26.133	0	163.398	0	189.7	4	64.5	4	-1E+10	1	-1E+10	1	-1E+10	1	-1E+10	1	-1E+10	1	-1E+10	1
4902642	9	C	09/18/2024	04:22	-131.285	44.947	0	175.20	0	7.2580	0	33.5460	0	26.241	0	173.705	0	177.5	4	60.2	4	-1E+10	1	-1E+10	1	-1E+10	1	-1E+10	1	-1E+10	1	-1E+10	1
4902642	9	C	09/18/2024	04:22	-131.285	44.947	0	184.90	0	7.3030	0	33.6450	0	26.312	0	183.318	0	156.5	4	53.2	4	-1E+10	1	-1E+10	1	-1E+10	1	-1E+10	1	-1E+10	1	-1E+10	1
4902642	9	C	09/18/2024	04:22	-131.285	44.947	0	194.60	0	7.2530	0	33.7150	0	26.374	0	192.930	0	154.1	4	52.3	4	-1E+10	1	-1E+10	1	-1E+10	1	-1E+10	1	-1E+10	1	-1E+10	1
4902642	9	C	09/18/2024	04:22	-131.285	44.947	0	209.60	0	6.9690	0	33.7540	0	26.444	0	207.794	0	162.6	4	54.9	4	-1E+10	1	-1E+10	1	-1E+10	1	-1E+10	1	-1E+10	1	-1E+10	1
4902642	9	C	09/18/2024	04:22	-131.285	44.947	0	229.70	0	6.6790	0	33.7850	0	26.508	0	227.710	0	151.5	4	50.8	4	-1E+10	1	-1E+10	1	-1E+10	1	-1E+10	1	-1E+10	1	-1E+10	1
4902642	9	C	09/18/2024	04:22	-131.285	44.947	0	249.30	0	6.4900	0	33.8090	0	26.552	0	247.128	0	134.9	4	45.0	4	-1E+10	1	-1E+10	1	-1E+10	1	-1E+10	1	-1E+10	1	-1E+10	1
4902642	9	C	09/18/2024	04:22	-131.285	44.947	0	270.30	0	6.1480	0	33.8110	0	26.598	0	267.932	0	126.2	4	41.8	4	-1E+10	1	-1E+10	1	-1E+10	1	-1E+10	1	-1E+10	1	-1E+10	1
4902642	9	C	09/18/2024	04:22	-131.285	44.947	0	289.90	0	5.9170	0	33.8230	0	26.636	0	287.347	0	114.9	4	37.8	4	-1E+10	1	-1E+10	1	-1E+10	1	-1E+10	1	-1E+10	1	-1E+10	1
4902642	9	C	09/18/2024	04:22	-131.285	44.947	0	309.90	0	5.7320	0	33.8320	0	26.666	0	307.156	0	105.6	4	34.7	4	-1E+10	1	-1E+10	1	-1E+10	1	-1E+10	1	-1E+10	1	-1E+10	1
4902642	9	C	09/18/2024	04:22	-131.285	44.947	0	329.90	0	5.5950	0	33.8500	0	26.697	0	326.963	0	93.4	4	30.6	4	-1E+10	1	-1E+10	1	-1E+10	1	-1E+10	1	-1E+10	1	-1E+10	1
4902642	9	C	09/18/2024	04:22	-131.285	44.947	0	350.00	0	5.4910	0	33.8850	0	26.738	0	346.867	0	78.0	4	25.5	4	-1E+10	1	-1E+10	1	-1E+10	1	-1E+10	1	-1E+10	1	-1E+10	1
4902642	9	C	09/18/2024	04:22	-131.285	44.947	0	369.90	0	5.3260	0	33.9090	0	26.776	0	366.571	0	69.5	4	22.6	4	-1E+10	1	-1E+10	1	-1E+10	1	-1E+10	1	-1E+10	1	-1E+10	1
4902642	9	C	09/18/2024	04:22	-131.285	44.947	0	389.80	0	5.1950	0	33.9260	0	26.805	0	386.274	0	62.0	4	20.1	4	-1E+10	1	-1E+10	1	-1E+10	1	-1E+10	1	-1E+10	1	-1E+10	1
4902642	9	C	09/18/2024	04:22	-131.285	44.947	0	410.00	0	5.0790	0	33.9480	0	26.836	0	406.271	0	54.9	4	17.8	4	-1E+10	1	-1E+10	1	-1E+10	1	-1E+10	1	-1E+10	1	-1E+10	1
4902642	9	C	09/18/2024	04:22	-131.285	44.947	0	429.80	0	5.0040	0	33.9740	0	26.865	0	425.871	0	49.0	4	15.8	4	-1E+10	1	-1E+10	1	-1E+10	1	-1E+10	1	-1E+10	1	-1E+10	1
4902642	9	C	09/18/2024	04:22	-131.285	44.947	0	449.70	0	4.9050	0	33.9900	0	26.889	0	445.567	0	44.1	4	14.2	4	-1E+10	1	-1E+10	1	-1E+10	1	-1E+10	1	-1E+10	1	-1E+10	1
4902642	9	C	09/18/2024	04:22	-131.285	44.947	0	469.40	0	4.8910	0	34.0150	0	26.911	0	465.064	0	38.2	4	12.3	4	-1E+10	1	-1E+10	1	-1E+10	1	-1E+10	1	-1E+10	1	-1E+10	1
4902642	9	C	09/18/2024	04:22	-131.285	44.947	0	490.40	0	4.8980	0	34.0470	0	26.936	0	485.846	0	32.0	4	10.3	4	-1E+10	1	-1E+10	1	-1E+10	1	-1E+10	1	-1E+10	1	-1E+10	1
4902642	9	C	09/18/2024	04:22	-131.285	44.947	0	509.90	0	4.7980	0	34.0620	0	26.959	0	505.141	0	29.1	4	9.3	4	-1E+10	1	-1E+10	1	-1E+10	1	-1E+10	1	-1E+10	1	-1E+10	1
4902642	9	C	09/18/2024	04:22	-131.285	44.947	0	530.00	0	4.6790	0	34.0750	0	26.983	0	525.028	0	26.3	4	8.4	4	-1E+10	1	-1E+10	1	-1E+10	1	-1E+10	1	-1E+10	1	-1E+10	1
4902642	9	C	09/18/2024	04:22	-131.285	44.947	0	549.70	0	4.5560	0	34.0860	0	27.005	0	544.517	0	23.2	4	7.4	4	-1E+10	1	-1E+10	1	-1E+10	1	-1E+10	1	-1E+10	1	-1E+10	1
4902642	9	C	09/18/2024	04:22	-131.285	44.947	0	569.60	0	4.4990	0	34.1070	0	27.028	0	564.203	0	19.9	4	6.4	4	-1E+10	1	-1E+10	1	-1E+10	1	-1E+10	1	-1E+10	1	-1E+10	1
4902642	9	C	09/18/2024	04:22	-131.285	44.947	0	589.60	0	4.4500	0	34.1240	0	27.047	0	583.985	0	17.5	4	5.6	4	-1E+10	1	-1E+10	1	-1E+10	1	-1E+10	1	-1E+10	1	-1E+10	1
4902642	9	C	09/18/2024	04:22	-131.285	44.947	0	609.50	0	4.4140	0	34.1410	0	27.064	0	603.667	0	15.1	4	4.8	4	-1E+10	1	-1E+10	1	-1E+10	1	-1E+10	1	-1E+10	1	-1E+10	1
4902642	9	C	09/18/2024	04:22	-131.285	44.947	0	629.40	0	4.3960	0	34.1610	0	27.082	0	623.347	0	12.9	4	4.1	4	-1E+10	1	-1E+10	1	-1E+10	1	-1E+10	1	-1E+10	1	-1E+10	1
4902642	9	C	09/18/2024	04:22	-131.285	44.947	0	649.70	0	4.3360	0	34.1810	0	27.105	0	643.420	0	11.1	4	3.5	4	-1E+10	1	-1E+10	1	-1E+10	1	-1E+10	1	-1E+10	1	-1E+10	1
4902642	9	C	09/18/2024	04:22	-131.285	44.947	0	670.00	0	4.3160	0	34.2010	0	27.123	0	663.492	0	9.7	4	3.1	4	-1E+10	1	-1E+10	1	-1E+10	1	-1E+10	1	-1E+10	1	-1E+10	1
4902642	9	C	09/18/2024	04:22	-131.285	44.947	0	690.30	0	4.2730	0	34.2170	0	27.140	0	683.561	0	8.7	4	2.8	4	-1E+10	1	-1E+10	1	-1E+10	1	-1E+10	1	-1E+10	1	-1E+10	1
4902642	9	C	09/18/2024	04:22	-131.285	44.947	0	709.60	0	4.2300	0	34.2260	0	27.152	0	702.640	0	8.1	4	2.6	4	-1E+10	1	-1E+10	1	-1E+10	1	-1E+10	1	-1E+10	1	-1E+10	1
4902642	9	C	09/18/2024	04:22	-131.285	44.947	0	729.80	0	4.1620	0	34.2390	0	27.170	0	722.607	0	7.4	4	2.3	4	-1E+10	1	-1E+10	1	-1E+10	1	-1E+10	1	-1E+10	1	-1E+10	1
4902642	9	C	09/18/2024	04:22	-131.285	44.947	0	749.80	0	4.1130	0	34.2550	0	27.188	0	742.374	0	6.7	4	2.1	4	-1E+10	1	-1E+10	1	-1E+10	1	-1E+10	1	-1E+10	1	-1E+10	1
4902642	9	C	09/18/2024	04:22	-131.285	44.947	0	769.50	0	4.0850	0	34.2710	0	27.203	0	761.843	0	6.2	4	2.0	4	-1E+10	1	-1E+10	1	-1E+10	1	-1E+10	1	-1E+10	1	-1E+10	1
4902642	9	C	09/18/2024	04:22	-131.285	44.947	0	790.30	0	4.0500	0	34.2840	0	27.218	0	782.397	0	5.9	4	1.9	4	-1E+10	1	-1E+10	1	-1E+10	1	-1E+10	1	-1E+10	1	-1E+10	1
4902642	9	C	09/18/2024	04:22	-131.285	44.947	0	809.90	0	3.9910	0	34.2930	0	27.231	0	801.764	0	5.7	4	1.8	4	-1E+10	1	-1E+10	1	-1E+10	1	-1E+10	1	-1E+10	1	-1E+10	1
4902642	9	C	09/18/2024	04:22	-131.285	44.947	0	829.90	0	3.9310	0	34.3030	0	27.245	0	821.524	0	5.5	4	1.7	4	-1E+10	1	-1E+10	1	-1E+10	1	-1E+10	1	-1E+10	1	-1E+10	1
4902642	9	C	09/18/2024	04:22	-131.285	44.947	0	849.90	0	3.8800	0	34.3110	0	27.257	0	841.282	0	5.4	4	1.7	4	-1E+10	1	-1E+10	1	-1E+10	1	-1E+10	1	-1E+10	1	-1E+10	1
4902642	9	C	09/18/2024	04:22	-131.285	44.947	0	869.60	0	3.8290	0	34.3200	0	27.269	0	860.741	0	5.3	4	1.7	4	-1E+10	1	-1E+10	1	-1E+10	1	-1E+10	1	-1E+10	1	-1E+10	1
4902642	9	C	09/18/2024	04:22	-131.285	44.947	0	889.60	0	3.7760	0	34.3310	0	27.283	0	880.495	0	5.3	4	1.7	4	-1E+10	1	-1E+10	1	-1E+10	1	-1E+10	1	-1E+10	1	-1E+10	1
4902642	9	C	09/18/2024	04:22	-131.285	44.947	0	910.00	0	3.7130	0	34.3390	0	27.296	0	900.643	0	5.3	4	1.7	4	-1E+10	1	-1E+10	1	-1E+10	1	-1E+10	1	-1E+10	1	-1E+10	1
4902642	9	C	09/18/2024	04:22	-131.285	44.947	0	929.80	0	3.6690	0	34.3450	0	27.305	0	920.196	0	5.4	4	1.7	4	-1E+10	1	-1E+10	1	-1E+10	1	-1E+10	1	-1E+10	1	-1E+10	1
4902642	9	C	09/18/2024	04:22	-131.285	44.947	0	949.60	0	3.6380	0	34.3540	0	27.316	0	939.747	0	5.4	4	1.7	4	-1E+10	1	-1E+10	1	-1E+10	1	-1E+10	1	-1E+10	1	-1E+10	1
4902642	9	C	09/18/2024	04:22	-131.285	44.947	0	969.80	0	3.6140	0	34.3660	0	27.328	0	959.691	0	5.6	4	1.8	4	-1E+10	1	-1E+10	1	-1E+10	1	-1E+10	1	-1E+10	1	-1E+10	1
4902642	9	C	09/18/2024	04:22	-131.285	44.947	0	989.70	0	3.5680	0	34.3780	0	27.342	0	979.337	0	5.9	4	1.9	4	-1E+10	1	-1E+10	1	-1E+10	1	-1E+10	1	-1E+10	1	-1E+10	1
4902642	9	C	09/18/2024	04:22	-131.285	44.947	0	1010.50	0	3.5200	0	34.3890	0	27.355	0	999.870	0	6.3	4	2.0	4	-1E+10	1	-1E+10	1	-1E+10	1	-1E+10	1	-1E+10	1	-1E+10	1
4902642	9	C	09/18/2024	04:22	-131.285	44.947	0	1029.90	0	3.4790	0	34.4000	0	27.368	0	1019.018	0	6.9	4	2.2	4	-1E+10	1	-1E+10	1	-1E+10	1	-1E+10	1	-1E+10	1	-1E+10	1
4902642	9	C	09/18/2024	04:22	-131.285	44.947	0	1049.70	0	3.4370	0	34.4080	0	27.379	0	1038.560	0	7.3	4	2.3	4	-1E+10	1	-1E+10	1	-1E+10	1	-1E+10	1	-1E+10	1	-1E+10	1
4902642	9	C	09/18/2024	04:22	-131.285	44.947	0	1070.10	0	3.3900	0	34.4160	0	27.390	0	1058.692	0	7.8	4	2.4	4	-1E+10	1	-1E+10	1	-1E+10	1	-1E+10	1	-1E+10	1	-1E+10	1
4902642	9	C	09/18/2024	04:22	-131.285	44.947	0	1089.80	0	3.3640	0	34.4220	0	27.397	0	1078.132	0	8.3	4	2.6	4	-1E+10	1	-1E+10	1	-1E+10	1	-1E+10	1	-1E+10	1	-1E+10	1
4902642	9	C	09/18/2024	04:22	-131.285	44.947	0	1109.80	0	3.3220	0	34.4260	0	27.404	0	1097.865	0	8.4	4	2.6	4	-1E+10	1	-1E+10	1	-1E+10	1	-1E+10	1	-1E+10	1	-1E+10	1
4902642	9	C	09/18/2024	04:22	-131.285	44.947	0	1129.40	0	3.2800	0	34.4300	0	27.412	0	1117.202	0	8.7	4	2.7	4	-1E+10	1	-1E+10	1	-1E+10	1	-1E+10	1	-1E+10	1	-1E+10	1
4902642	9	C	09/18/2024	04:22	-131.285	44.947	0	1150.10	0	3.2380	0	34.4360	0	27.420	0	1137.623	0	9.3	4	2.9	4	-1E+10	1	-1E+10	1	-1E+10	1	-1E+10	1	-1E+10	1	-1E+10	1
4902642	9	C	09/18/2024	04:22	-131.285	44.947	0	1169.80	0	3.1960	0	34.4420	0	27.429	0	1157.055	0	10.0	4	3.1	4	-1E+10	1	-1E+10	1	-1E+10	1	-1E+10	1	-1E+10	1	-1E+10	1
4902642	9	C	09/18/2024	04:22	-131.285	44.947	0	1190.00	0	3.1510	0	34.4470	0	27.438	0	1176.978	0	10.4	4	3.2	4	-1E+10	1	-1E+10	1	-1E+10	1	-1E+10	1	-1E+10	1	-1E+10	1
4902642	9	C	09/18/2024	04:22	-131.285	44.947	0	1209.70	0	3.1260	0	34.4530	0	27.445	0	1196.406	0	10.9	4	3.4	4	-1E+10	1	-1E+10	1	-1E+10	1	-1E+10	1	-1E+10	1	-1E+10	1
4902642	9	C	09/18/2024	04:22	-131.285	44.947	0	1229.80	0	3.0850	0	34.4580	0	27.453	0	1216.228	0	11.5	4	3.5	4	-1E+10	1	-1E+10	1	-1E+10	1	-1E+10	1	-1E+10	1	-1E+10	1
4902642	9	C	09/18/2024	04:22	-131.285	44.947	0	1250.10	0	3.0430	0	34.4620	0	27.460	0	1236.244	0	12.0	4	3.7	4	-1E+10	1	-1E+10	1	-1E+10	1	-1E+10	1	-1E+10	1	-1E+10	1
4902642	9	C	09/18/2024	04:22	-131.285	44.947	0	1269.90	0	3.0010	0	34.4650	0	27.466	0	1255.765	0	12.6	4	3.9	4	-1E+10	1	-1E+10	1	-1E+10	1	-1E+10	1	-1E+10	1	-1E+10	1
4902642	9	C	09/18/2024	04:22	-131.285	44.947	0	1289.70	0	2.9570	0	34.4700	0	27.474	0	1275.285	0	13.3	4	4.1	4	-1E+10	1	-1E+10	1	-1E+10	1	-1E+10	1	-1E+10	1	-1E+10	1
4902642	9	C	09/18/2024	04:22	-131.285	44.947	0	1309.70	0	2.9170	0	34.4770	0	27.483	0	1295.000	0	14.1	4	4.4	4	-1E+10	1	-1E+10	1	-1E+10	1	-1E+10	1	-1E+10	1	-1E+10	1
4902642	9	C	09/18/2024	04:22	-131.285	44.947	0	1329.80	0	2.8760	0	34.4800	0	27.490	0	1314.812	0	14.6	4	4.5	4	-1E+10	1	-1E+10	1	-1E+10	1	-1E+10	1	-1E+10	1	-1E+10	1
4902642	9	C	09/18/2024	04:22	-131.285	44.947	0	1349.60	0	2.8410	0	34.4830	0	27.495	0	1334.326	0	15.4	4	4.7	4	-1E+10	1	-1E+10	1	-1E+10	1	-1E+10	1	-1E+10	1	-1E+10	1
4902642	9	C	09/18/2024	04:22	-131.285	44.947	0	1369.50	0	2.7910	0	34.4870	0	27.503	0	1353.937	0	16.2	4	5.0	4	-1E+10	1	-1E+10	1	-1E+10	1	-1E+10	1	-1E+10	1	-1E+10	1
4902642	9	C	09/18/2024	04:22	-131.285	44.947	0	1389.50	0	2.7390	0	34.4910	0	27.511	0	1373.645	0	16.8	4	5.2	4	-1E+10	1	-1E+10	1	-1E+10	1	-1E+10	1	-1E+10	1	-1E+10	1
4902642	9	C	09/18/2024	04:22	-131.285	44.947	0	1409.50	0	2.7050	0	34.4940	0	27.516	0	1393.350	0	17.5	4	5.4	4	-1E+10	1	-1E+10	1	-1E+10	1	-1E+10	1	-1E+10	1	-1E+10	1
4902642	9	C	09/18/2024	04:22	-131.285	44.947	0	1429.80	0	2.6690	0	34.4980	0	27.522	0	1413.350	0	18.5	4	5.7	4	-1E+10	1	-1E+10	1	-1E+10	1	-1E+10	1	-1E+10	1	-1E+10	1
4902642	9	C	09/18/2024	04:22	-131.285	44.947	0	1450.00	0	2.6140	0	34.5030	0	27.531	0	1433.249	0	19.6	4	6.0	4	-1E+10	1	-1E+10	1	-1E+10	1	-1E+10	1	-1E+10	1	-1E+10	1
4902642	9	C	09/18/2024	04:22	-131.285	44.947	0	1469.90	0	2.5790	0	34.5080	0	27.538	0	1452.851	0	20.9	4	6.4	4	-1E+10	1	-1E+10	1	-1E+10	1	-1E+10	1	-1E+10	1	-1E+10	1
4902642	9	C	09/18/2024	04:22	-131.285	44.947	0	1489.90	0	2.5430	0	34.5130	0	27.546	0	1472.549	0	22.2	4	6.8	4	-1E+10	1	-1E+10	1	-1E+10	1	-1E+10	1	-1E+10	1	-1E+10	1
4902642	9	C	09/18/2024	04:22	-131.285	44.947	0	1510.70	0	2.5120	0	34.5200	0	27.554	0	1493.033	0	23.7	4	7.2	4	-1E+10	1	-1E+10	1	-1E+10	1	-1E+10	1	-1E+10	1	-1E+10	1
4902642	9	C	09/18/2024	04:22	-131.285	44.947	0	1528.70	0	2.4680	0	34.5240	0	27.561	0	1510.758	0	24.8	4	7.6	4	-1E+10	1	-1E+10	1	-1E+10	1	-1E+10	1	-1E+10	1	-1E+10	1
4902642	9	C	09/18/2024	04:22	-131.285	44.947	0	1549.70	0	2.4220	0	34.5280	0	27.568	0	1531.436	0	26.0	4	7.9	4	-1E+10	1	-1E+10	1	-1E+10	1	-1E+10	1	-1E+10	1	-1E+10	1
4902642	9	C	09/18/2024	04:22	-131.285	44.947	0	1570.00	0	2.3900	0	34.5330	0	27.575	0	1551.422	0	27.1	4	8.2	4	-1E+10	1	-1E+10	1	-1E+10	1	-1E+10	1	-1E+10	1	-1E+10	1
4902642	9	C	09/18/2024	04:22	-131.285	44.947	0	1590.00	0	2.3720	0	34.5360	0	27.579	0	1571.112	0	28.0	4	8.5	4	-1E+10	1	-1E+10	1	-1E+10	1	-1E+10	1	-1E+10	1	-1E+10	1
4902642	9	C	09/18/2024	04:22	-131.285	44.947	0	1610.10	0	2.3520	0	34.5380	0	27.582	0	1590.897	0	28.8	4	8.8	4	-1E+10	1	-1E+10	1	-1E+10	1	-1E+10	1	-1E+10	1	-1E+10	1
4902642	9	C	09/18/2024	04:22	-131.285	44.947	0	1630.10	0	2.3310	0	34.5400	0	27.585	0	1610.583	0	29.7	4	9.0	4	-1E+10	1	-1E+10	1	-1E+10	1	-1E+10	1	-1E+10	1	-1E+10	1
4902642	9	C	09/18/2024	04:22	-131.285	44.947	0	1650.50	0	2.3080	0	34.5440	0	27.591	0	1630.660	0	30.8	4	9.4	4	-1E+10	1	-1E+10	1	-1E+10	1	-1E+10	1	-1E+10	1	-1E+10	1
4902642	9	C	09/18/2024	04:22	-131.285	44.947	0	1670.10	0	2.2860	0	34.5470	0	27.595	0	1649.948	0	32.2	4	9.8	4	-1E+10	1	-1E+10	1	-1E+10	1	-1E+10	1	-1E+10	1	-1E+10	1
4902642	9	C	09/18/2024	04:22	-131.285	44.947	0	1690.00	0	2.2560	0	34.5510	0	27.601	0	1669.530	0	33.5	4	10.2	4	-1E+10	1	-1E+10	1	-1E+10	1	-1E+10	1	-1E+10	1	-1E+10	1
4902642	9	C	09/18/2024	04:22	-131.285	44.947	0	1709.70	0	2.2380	0	34.5540	0	27.605	0	1688.913	0	34.4	4	10.4	4	-1E+10	1	-1E+10	1	-1E+10	1	-1E+10	1	-1E+10	1	-1E+10	1
4902642	9	C	09/18/2024	04:22	-131.285	44.947	0	1729.80	0	2.2120	0	34.5570	0	27.609	0	1708.687	0	35.6	4	10.8	4	-1E+10	1	-1E+10	1	-1E+10	1	-1E+10	1	-1E+10	1	-1E+10	1
4902642	9	C	09/18/2024	04:22	-131.285	44.947	0	1749.90	0	2.1850	0	34.5600	0	27.614	0	1728.460	0	36.8	4	11.2	4	-1E+10	1	-1E+10	1	-1E+10	1	-1E+10	1	-1E+10	1	-1E+10	1
4902642	9	C	09/18/2024	04:22	-131.285	44.947	0	1770.40	0	2.1660	0	34.5630	0	27.618	0	1748.625	0	37.9	4	11.5	4	-1E+10	1	-1E+10	1	-1E+10	1	-1E+10	1	-1E+10	1	-1E+10	1
4902642	9	C	09/18/2024	04:22	-131.285	44.947	0	1789.70	0	2.1510	0	34.5650	0	27.621	0	1767.607	0	38.7	4	11.7	4	-1E+10	1	-1E+10	1	-1E+10	1	-1E+10	1	-1E+10	1	-1E+10	1
4902642	9	C	09/18/2024	04:22	-131.285	44.947	0	1810.00	0	2.1370	0	34.5680	0	27.624	0	1787.571	0	39.8	4	12.0	4	-1E+10	1	-1E+10	1	-1E+10	1	-1E+10	1	-1E+10	1	-1E+10	1
4902642	9	C	09/18/2024	04:22	-131.285	44.947	0	1830.00	0	2.1100	0	34.5720	0	27.630	0	1807.238	0	41.5	4	12.5	4	-1E+10	1	-1E+10	1	-1E+10	1	-1E+10	1	-1E+10	1	-1E+10	1
4902642	9	C	09/18/2024	04:22	-131.285	44.947	0	1849.70	0	2.0870	0	34.5750	0	27.634	0	1826.609	0	43.1	4	13.0	4	-1E+10	1	-1E+10	1	-1E+10	1	-1E+10	1	-1E+10	1	-1E+10	1
4902642	9	C	09/18/2024	04:22	-131.285	44.947	0	1869.50	0	2.0640	0	34.5790	0	27.639	0	1846.076	0	44.2	4	13.3	4	-1E+10	1	-1E+10	1	-1E+10	1	-1E+10	1	-1E+10	1	-1E+10	1
4902642	9	C	09/18/2024	04:22	-131.285	44.947	0	1889.70	0	2.0460	0	34.5810	0	27.642	0	1865.934	0	45.2	4	13.6	4	-1E+10	1	-1E+10	1	-1E+10	1	-1E+10	1	-1E+10	1	-1E+10	1
4902642	9	C	09/18/2024	04:22	-131.285	44.947	0	1910.60	0	2.0240	0	34.5840	0	27.647	0	1886.478	0	46.4	4	14.0	4	-1E+10	1	-1E+10	1	-1E+10	1	-1E+10	1	-1E+10	1	-1E+10	1
4902642	9	C	09/18/2024	04:22	-131.285	44.947	0	1930.10	0	2.0040	0	34.5860	0	27.650	0	1905.645	0	47.4	4	14.3	4	-1E+10	1	-1E+10	1	-1E+10	1	-1E+10	1	-1E+10	1	-1E+10	1
4902642	9	C	09/18/2024	04:22	-131.285	44.947	0	1950.00	0	1.9930	0	34.5880	0	27.652	0	1925.203	0	48.3	4	14.5	4	-1E+10	1	-1E+10	1	-1E+10	1	-1E+10	1	-1E+10	1	-1E+10	1
4902642	9	C	09/18/2024	04:22	-131.285	44.947	0	1969.70	0	1.9820	0	34.5900	0	27.655	0	1944.563	0	49.1	4	14.8	4	-1E+10	1	-1E+10	1	-1E+10	1	-1E+10	1	-1E+10	1	-1E+10	1
4902642	9	C	09/18/2024	04:22	-131.285	44.947	0	1989.80	0	1.9720	0	34.5920	0	27.658	0	1964.313	0	49.9	4	15.0	4	-1E+10	1	-1E+10	1	-1E+10	1	-1E+10	1	-1E+10	1	-1E+10	1
4902642	9	C	09/18/2024	04:22	-131.285	44.947	0	2010.00	0	1.9630	0	34.5930	4	27.659	0	1984.161	0	50.9	4	15.3	4	-1E+10	1	-1E+10	1	-1E+10	1	-1E+10	1	-1E+10	1	-1E+10	1
4902642	9	C	09/18/2024	04:22	-131.285	44.947	0	2029.70	0	1.9520	0	34.5960	4	27.663	0	2003.515	0	51.9	4	15.6	4	-1E+10	1	-1E+10	1	-1E+10	1	-1E+10	1	-1E+10	1	-1E+10	1
4902642	9	C	09/18/2024	04:22	-131.285	44.947	0	2050.60	0	1.9410	0	34.5980	4	27.665	0	2024.046	0	52.6	4	15.8	4	-1E+10	1	-1E+10	1	-1E+10	1	-1E+10	1	-1E+10	1	-1E+10	1
4902642	9	C	09/18/2024	04:22	-131.285	44.947	0	2070.40	0	1.9280	0	34.5990	4	27.667	0	2043.495	0	53.4	4	16.1	4	-1E+10	1	-1E+10	1	-1E+10	1	-1E+10	1	-1E+10	1	-1E+10	1
4902642	9	C	09/18/2024	04:22	-131.285	44.947	0	2090.20	0	1.9190	0	34.6010	4	27.669	0	2062.942	0	54.1	4	16.3	4	-1E+10	1	-1E+10	1	-1E+10	1	-1E+10	1	-1E+10	1	-1E+10	1
4902642	9	C	09/18/2024	04:22	-131.285	44.947	0	2110.00	0	1.9120	0	34.6020	4	27.671	0	2082.387	0	54.8	4	16.5	4	-1E+10	1	-1E+10	1	-1E+10	1	-1E+10	1	-1E+10	1	-1E+10	1
4902642	9	C	09/18/2024	04:22	-131.285	44.947	0	2130.00	0	1.9050	0	34.6040	4	27.673	0	2102.027	0	55.4	4	16.7	4	-1E+10	1	-1E+10	1	-1E+10	1	-1E+10	1	-1E+10	1	-1E+10	1
4902642	9	C	09/18/2024	04:22	-131.285	44.947	0	2150.10	0	1.8980	0	34.6050	4	27.675	0	2121.764	0	56.1	4	16.9	4	-1E+10	1	-1E+10	1	-1E+10	1	-1E+10	1	-1E+10	1	-1E+10	1
4902642	9	C	09/18/2024	04:22	-131.285	44.947	0	2170.40	0	1.8890	0	34.6070	4	27.677	0	2141.694	0	56.9	4	17.1	4	-1E+10	1	-1E+10	1	-1E+10	1	-1E+10	1	-1E+10	1	-1E+10	1
4902642	9	C	09/18/2024	04:22	-131.285	44.947	0	2190.20	0	1.8800	0	34.6080	4	27.679	0	2161.132	0	57.6	4	17.3	4	-1E+10	1	-1E+10	1	-1E+10	1	-1E+10	1	-1E+10	1	-1E+10	1
4902642	9	C	09/18/2024	04:22	-131.285	44.947	0	2209.70	0	1.8740	0	34.6090	4	27.680	0	2180.274	0	58.2	4	17.5	4	-1E+10	1	-1E+10	1	-1E+10	1	-1E+10	1	-1E+10	1	-1E+10	1
4902642	9	C	09/18/2024	04:22	-131.285	44.947	0	2229.80	0	1.8680	0	34.6100	4	27.681	0	2200.004	0	58.7	4	17.7	4	-1E+10	1	-1E+10	1	-1E+10	1	-1E+10	1	-1E+10	1	-1E+10	1
4902642	9	C	09/18/2024	04:22	-131.285	44.947	0	2250.00	0	1.8640	0	34.6110	4	27.683	0	2219.829	0	59.2	4	17.8	4	-1E+10	1	-1E+10	1	-1E+10	1	-1E+10	1	-1E+10	1	-1E+10	1
4902642	9	C	09/18/2024	04:22	-131.285	44.947	0	2269.90	0	1.8590	0	34.6120	4	27.684	0	2239.358	0	59.8	4	18.0	4	-1E+10	1	-1E+10	1	-1E+10	1	-1E+10	1	-1E+10	1	-1E+10	1
4902642	9	C	09/18/2024	04:22	-131.285	44.947	0	2290.00	0	1.8530	0	34.6140	4	27.686	0	2259.082	0	60.5	4	18.2	4	-1E+10	1	-1E+10	1	-1E+10	1	-1E+10	1	-1E+10	1	-1E+10	1
4902642	9	C	09/18/2024	04:22	-131.285	44.947	0	2309.80	0	1.8460	0	34.6150	4	27.688	0	2278.509	0	61.1	4	18.4	4	-1E+10	1	-1E+10	1	-1E+10	1	-1E+10	1	-1E+10	1	-1E+10	1
4902642	9	C	09/18/2024	04:22	-131.285	44.947	0	2330.00	0	1.8400	0	34.6160	4	27.689	0	2298.327	0	61.8	4	18.6	4	-1E+10	1	-1E+10	1	-1E+10	1	-1E+10	1	-1E+10	1	-1E+10	1
4902642	9	C	09/18/2024	04:22	-131.285	44.947	0	2350.40	0	1.8330	0	34.6170	4	27.690	0	2318.339	0	62.4	4	18.7	4	-1E+10	1	-1E+10	1	-1E+10	1	-1E+10	1	-1E+10	1	-1E+10	1
4902642	9	C	09/18/2024	04:22	-131.285	44.947	0	2370.00	0	1.8280	0	34.6180	4	27.692	0	2337.565	0	63.0	4	18.9	4	-1E+10	1	-1E+10	1	-1E+10	1	-1E+10	1	-1E+10	1	-1E+10	1
4902642	9	C	09/18/2024	04:22	-131.285	44.947	0	2390.00	0	1.8250	0	34.6190	4	27.693	0	2357.182	0	63.6	4	19.1	4	-1E+10	1	-1E+10	1	-1E+10	1	-1E+10	1	-1E+10	1	-1E+10	1
4902642	9	C	09/18/2024	04:22	-131.285	44.947	0	2410.40	0	1.8180	0	34.6200	4	27.694	0	2377.189	0	64.4	4	19.3	4	-1E+10	1	-1E+10	1	-1E+10	1	-1E+10	1	-1E+10	1	-1E+10	1
4902642	9	C	09/18/2024	04:22	-131.285	44.947	0	2430.50	0	1.8090	0	34.6220	4	27.697	0	2396.900	0	65.2	4	19.6	4	-1E+10	1	-1E+10	1	-1E+10	1	-1E+10	1	-1E+10	1	-1E+10	1
4902642	9	C	09/18/2024	04:22	-131.285	44.947	0	2450.00	0	1.8030	0	34.6230	4	27.698	0	2416.021	0	65.8	4	19.7	4	-1E+10	1	-1E+10	1	-1E+10	1	-1E+10	1	-1E+10	1	-1E+10	1
4902642	9	C	09/18/2024	04:22	-131.285	44.947	0	2470.60	0	1.7990	0	34.6230	4	27.698	0	2436.218	0	66.4	4	19.9	4	-1E+10	1	-1E+10	1	-1E+10	1	-1E+10	1	-1E+10	1	-1E+10	1
4902642	9	C	09/18/2024	04:22	-131.285	44.947	0	2489.80	0	1.7910	0	34.6250	4	27.701	0	2455.041	0	67.4	4	20.2	4	-1E+10	1	-1E+10	1	-1E+10	1	-1E+10	1	-1E+10	1	-1E+10	1
4902642	9	C	09/18/2024	04:22	-131.285	44.947	0	2509.70	0	1.7830	0	34.6260	4	27.702	0	2474.549	0	68.2	4	20.5	4	-1E+10	1	-1E+10	1	-1E+10	1	-1E+10	1	-1E+10	1	-1E+10	1
4902642	9	C	09/18/2024	04:22	-131.285	44.947	0	2529.70	0	1.7780	0	34.6270	4	27.704	0	2494.153	0	69.0	4	20.7	4	-1E+10	1	-1E+10	1	-1E+10	1	-1E+10	1	-1E+10	1	-1E+10	1
4902642	9	C	09/18/2024	04:22	-131.285	44.947	0	2549.70	0	1.7720	0	34.6280	4	27.705	0	2513.755	0	69.7	4	20.9	4	-1E+10	1	-1E+10	1	-1E+10	1	-1E+10	1	-1E+10	1	-1E+10	1
4902642	9	C	09/18/2024	04:22	-131.285	44.947	0	2569.80	0	1.7660	0	34.6290	4	27.706	0	2533.454	0	70.3	4	21.1	4	-1E+10	1	-1E+10	1	-1E+10	1	-1E+10	1	-1E+10	1	-1E+10	1
4902642	9	C	09/18/2024	04:22	-131.285	44.947	0	2589.70	0	1.7610	0	34.6300	4	27.708	0	2552.954	0	71.0	4	21.3	4	-1E+10	1	-1E+10	1	-1E+10	1	-1E+10	1	-1E+10	1	-1E+10	1
4902642	9	C	09/18/2024	04:22	-131.285	44.947	0	2609.60	0	1.7560	0	34.6310	4	27.709	0	2572.453	0	71.5	4	21.4	4	-1E+10	1	-1E+10	1	-1E+10	1	-1E+10	1	-1E+10	1	-1E+10	1
4902642	9	C	09/18/2024	04:22	-131.285	44.947	0	2629.60	0	1.7540	0	34.6320	4	27.710	0	2592.048	0	72.0	4	21.6	4	-1E+10	1	-1E+10	1	-1E+10	1	-1E+10	1	-1E+10	1	-1E+10	1
4902642	9	C	09/18/2024	04:22	-131.285	44.947	0	2650.00	0	1.7490	0	34.6330	4	27.711	0	2612.033	0	72.7	4	21.8	4	-1E+10	1	-1E+10	1	-1E+10	1	-1E+10	1	-1E+10	1	-1E+10	1
4902642	9	C	09/18/2024	04:22	-131.285	44.947	0	2670.00	0	1.7430	0	34.6330	4	27.712	0	2631.624	0	73.4	4	22.0	4	-1E+10	1	-1E+10	1	-1E+10	1	-1E+10	1	-1E+10	1	-1E+10	1
4902642	9	C	09/18/2024	04:22	-131.285	44.947	0	2689.90	0	1.7380	0	34.6340	4	27.713	0	2651.116	0	74.0	4	22.2	4	-1E+10	1	-1E+10	1	-1E+10	1	-1E+10	1	-1E+10	1	-1E+10	1
4902642	9	C	09/18/2024	04:22	-131.285	44.947	0	2709.80	0	1.7320	0	34.6350	4	27.715	0	2670.606	0	74.8	4	22.4	4	-1E+10	1	-1E+10	1	-1E+10	1	-1E+10	1	-1E+10	1	-1E+10	1
4902642	9	C	09/18/2024	04:22	-131.285	44.947	0	2730.50	0	1.7270	0	34.6360	4	27.716	0	2690.878	0	75.4	4	22.6	4	-1E+10	1	-1E+10	1	-1E+10	1	-1E+10	1	-1E+10	1	-1E+10	1
4902642	9	C	09/18/2024	04:22	-131.285	44.947	0	2750.00	0	1.7220	0	34.6370	4	27.717	0	2709.972	0	76.0	4	22.8	4	-1E+10	1	-1E+10	1	-1E+10	1	-1E+10	1	-1E+10	1	-1E+10	1
4902642	9	C	09/18/2024	04:22	-131.285	44.947	0	2770.00	0	1.7170	0	34.6380	4	27.718	0	2729.555	0	76.7	4	23.0	4	-1E+10	1	-1E+10	1	-1E+10	1	-1E+10	1	-1E+10	1	-1E+10	1
4902642	9	C	09/18/2024	04:22	-131.285	44.947	0	2790.30	0	1.7100	0	34.6390	4	27.720	0	2749.429	0	77.5	4	23.2	4	-1E+10	1	-1E+10	1	-1E+10	1	-1E+10	1	-1E+10	1	-1E+10	1
4902642	9	C	09/18/2024	04:22	-131.285	44.947	0	2809.80	0	1.7050	0	34.6390	4	27.720	0	2768.519	0	78.0	4	23.4	4	-1E+10	1	-1E+10	1	-1E+10	1	-1E+10	1	-1E+10	1	-1E+10	1
4902642	9	C	09/18/2024	04:22	-131.285	44.947	0	2830.20	0	1.7000	0	34.6400	4	27.722	0	2788.488	0	78.8	4	23.6	4	-1E+10	1	-1E+10	1	-1E+10	1	-1E+10	1	-1E+10	1	-1E+10	1
4902642	9	C	09/18/2024	04:22	-131.285	44.947	0	2849.70	0	1.6920	0	34.6410	4	27.723	0	2807.574	0	79.6	4	23.8	4	-1E+10	1	-1E+10	1	-1E+10	1	-1E+10	1	-1E+10	1	-1E+10	1
4902642	9	C	09/18/2024	04:22	-131.285	44.947	0	2869.90	0	1.6860	0	34.6420	4	27.725	0	2827.343	0	80.4	4	24.0	4	-1E+10	1	-1E+10	1	-1E+10	1	-1E+10	1	-1E+10	1	-1E+10	1
4902642	9	C	09/18/2024	04:22	-131.285	44.947	0	2890.00	0	1.6800	0	34.6430	4	27.726	0	2847.013	0	81.2	4	24.3	4	-1E+10	1	-1E+10	1	-1E+10	1	-1E+10	1	-1E+10	1	-1E+10	1
4902642	9	C	09/18/2024	04:22	-131.285	44.947	0	2909.80	0	1.6740	0	34.6440	4	27.727	0	2866.387	0	82.0	4	24.5	4	-1E+10	1	-1E+10	1	-1E+10	1	-1E+10	1	-1E+10	1	-1E+10	1
4902642	9	C	09/18/2024	04:22	-131.285	44.947	0	2929.60	0	1.6670	0	34.6450	4	27.729	0	2885.760	0	82.9	4	24.8	4	-1E+10	1	-1E+10	1	-1E+10	1	-1E+10	1	-1E+10	1	-1E+10	1
4902642	9	C	09/18/2024	04:22	-131.285	44.947	0	2949.90	0	1.6600	0	34.6460	4	27.730	0	2905.620	0	84.0	4	25.1	4	-1E+10	1	-1E+10	1	-1E+10	1	-1E+10	1	-1E+10	1	-1E+10	1
4902642	9	C	09/18/2024	04:22	-131.285	44.947	0	2970.00	0	1.6450	0	34.6480	4	27.733	0	2925.283	0	85.5	4	25.6	4	-1E+10	1	-1E+10	1	-1E+10	1	-1E+10	1	-1E+10	1	-1E+10	1
4902642	9	C	09/18/2024	04:22	-131.285	44.947	0	2990.20	0	1.6370	0	34.6490	4	27.734	0	2945.041	0	86.4	4	25.8	4	-1E+10	1	-1E+10	1	-1E+10	1	-1E+10	1	-1E+10	1	-1E+10	1
4902642	9	C	09/18/2024	04:22	-131.285	44.947	0	3009.90	0	1.6300	0	34.6500	4	27.736	0	2964.309	0	87.2	4	26.1	4	-1E+10	1	-1E+10	1	-1E+10	1	-1E+10	1	-1E+10	1	-1E+10	1
4902642	9	C	09/18/2024	04:22	-131.285	44.947	0	3030.30	0	1.6250	0	34.6510	4	27.737	0	2984.260	0	88.0	4	26.3	4	-1E+10	1	-1E+10	1	-1E+10	1	-1E+10	1	-1E+10	1	-1E+10	1
4902642	9	C	09/18/2024	04:22	-131.285	44.947	0	3050.00	0	1.6110	0	34.6520	4	27.739	0	3003.525	0	89.9	4	26.9	4	-1E+10	1	-1E+10	1	-1E+10	1	-1E+10	1	-1E+10	1	-1E+10	1
4902642	9	C	09/18/2024	04:22	-131.285	44.947	0	3069.60	0	1.5940	0	34.6550	4	27.743	0	3022.690	0	91.7	4	27.4	4	-1E+10	1	-1E+10	1	-1E+10	1	-1E+10	1	-1E+10	1	-1E+10	1
4902642	9	C	09/18/2024	04:22	-131.285	44.947	0	3089.90	0	1.5870	0	34.6560	4	27.744	0	3042.537	0	92.6	4	27.6	4	-1E+10	1	-1E+10	1	-1E+10	1	-1E+10	1	-1E+10	1	-1E+10	1
4902642	9	C	09/18/2024	04:22	-131.285	44.947	0	3110.60	0	1.5780	0	34.6570	4	27.746	0	3062.774	0	93.7	4	28.0	4	-1E+10	1	-1E+10	1	-1E+10	1	-1E+10	1	-1E+10	1	-1E+10	1
4902642	9	C	09/18/2024	04:22	-131.285	44.947	0	3129.90	0	1.5730	0	34.6580	4	27.747	0	3081.640	0	94.4	4	28.2	4	-1E+10	1	-1E+10	1	-1E+10	1	-1E+10	1	-1E+10	1	-1E+10	1
4902642	9	C	09/18/2024	04:22	-131.285	44.947	0	3150.00	0	1.5710	0	34.6590	4	27.748	0	3101.287	0	94.8	4	28.3	4	-1E+10	1	-1E+10	1	-1E+10	1	-1E+10	1	-1E+10	1	-1E+10	1
4902642	9	C	09/18/2024	04:22	-131.285	44.947	0	3170.10	0	1.5680	0	34.6600	4	27.749	0	3120.932	0	95.2	4	28.4	4	-1E+10	1	-1E+10	1	-1E+10	1	-1E+10	1	-1E+10	1	-1E+10	1
4902642	9	C	09/18/2024	04:22	-131.285	44.947	0	3189.90	0	1.5660	0	34.6600	4	27.750	0	3140.282	0	95.6	4	28.5	4	-1E+10	1	-1E+10	1	-1E+10	1	-1E+10	1	-1E+10	1	-1E+10	1
4902642	9	C	09/18/2024	04:22	-131.285	44.947	0	3209.90	0	1.5650	0	34.6600	4	27.750	0	3159.826	0	95.9	4	28.6	4	-1E+10	1	-1E+10	1	-1E+10	1	-1E+10	1	-1E+10	1	-1E+10	1
4902642	9	C	09/18/2024	04:22	-131.285	44.947	0	3228.00	0	1.5650	0	34.6610	4	27.751	0	3177.511	0	96.0	4	28.7	4	-1E+10	1	-1E+10	1	-1E+10	1	-1E+10	1	-1E+10	1	-1E+10	1
4902642	9	C	09/18/2024	04:22	-131.285	44.947	0	3236.50	0	1.5650	0	34.6620	4	27.752	0	3185.816	0	96.1	4	28.7	4	-1E+10	1	-1E+10	1	-1E+10	1	-1E+10	1	-1E+10	1	-1E+10	1
4902642	9	C	09/18/2024	04:22	-131.285	44.947	0	3237.40	0	1.5650	0	34.6610	4	27.751	0	3186.695	0	96.1	4	28.7	4	-1E+10	1	-1E+10	1	-1E+10	1	-1E+10	1	-1E+10	1	-1E+10	1
4902642	9	C	09/18/2024	04:22	-131.285	44.947	0	3238.40	0	1.5650	0	34.6610	4	27.751	0	3187.672	0	96.0	4	28.7	4	-1E+10	1	-1E+10	1	-1E+10	1	-1E+10	1	-1E+10	1	-1E+10	1
4902642	9	C	09/18/2024	04:22	-131.285	44.947	0	3239.30	0	1.5650	0	34.6610	4	27.751	0	3188.552	0	96.1	4	28.7	4	-1E+10	1	-1E+10	1	-1E+10	1	-1E+10	1	-1E+10	1	-1E+10	1
4902642	9	C	09/18/2024	04:22	-131.285	44.947	0	3240.30	0	1.5650	0	34.6620	4	27.752	0	3189.529	0	96.0	4	28.7	4	-1E+10	1	-1E+10	1	-1E+10	1	-1E+10	1	-1E+10	1	-1E+10	1
4902642	9	C	09/18/2024	04:22	-131.285	44.947	0	3241.20	0	1.5660	0	34.6610	4	27.751	0	3190.408	0	96.1	4	28.7	4	-1E+10	1	-1E+10	1	-1E+10	1	-1E+10	1	-1E+10	1	-1E+10	1
4902642	9	C	09/18/2024	04:22	-131.285	44.947	0	3242.10	0	1.5660	0	34.6610	4	27.751	0	3191.288	0	96.1	4	28.7	4	-1E+10	1	-1E+10	1	-1E+10	1	-1E+10	1	-1E+10	1	-1E+10	1
4902642	9	C	09/18/2024	04:22	-131.285	44.947	0	3243.50	0	1.5660	0	34.6610	4	27.751	0	3192.655	0	96.1	4	28.7	4	-1E+10	1	-1E+10	1	-1E+10	1	-1E+10	1	-1E+10	1	-1E+10	1
4902642	9	C	09/18/2024	04:22	-131.285	44.947	0	3245.00	0	1.5660	0	34.6610	4	27.751	0	3194.121	0	96.1	4	28.7	4	-1E+10	1	-1E+10	1	-1E+10	1	-1E+10	1	-1E+10	1	-1E+10	1
4902642	9	C	09/18/2024	04:22	-131.285	44.947	0	3245.90	0	1.5660	0	34.6620	4	27.752	0	3195.000	0	96.1	4	28.7	4	-1E+10	1	-1E+10	1	-1E+10	1	-1E+10	1	-1E+10	1	-1E+10	1
4902642	9	C	09/18/2024	04:22	-131.285	44.947	0	3246.80	0	1.5650	0	34.6620	4	27.752	0	3195.879	0	96.1	4	28.7	4	-1E+10	1	-1E+10	1	-1E+10	1	-1E+10	1	-1E+10	1	-1E+10	1
4902642	9	C	09/18/2024	04:22	-131.285	44.947	0	3247.80	0	1.5660	0	34.6610	4	27.751	0	3196.856	0	96.1	4	28.7	4	-1E+10	1	-1E+10	1	-1E+10	1	-1E+10	1	-1E+10	1	-1E+10	1
4902642	9	C	09/18/2024	04:22	-131.285	44.947	0	3248.70	0	1.5660	0	34.6610	4	27.751	0	3197.735	0	96.1	4	28.7	4	-1E+10	1	-1E+10	1	-1E+10	1	-1E+10	1	-1E+10	1	-1E+10	1
4902642	9	C	09/18/2024	04:22	-131.285	44.947	0	3249.70	0	1.5660	0	34.6610	4	27.751	0	3198.712	0	96.1	4	28.7	4	-1E+10	1	-1E+10	1	-1E+10	1	-1E+10	1	-1E+10	1	-1E+10	1
4902642	9	C	09/18/2024	04:22	-131.285	44.947	0	3250.60	0	1.5660	0	34.6610	4	27.751	0	3199.592	0	96.2	4	28.7	4	-1E+10	1	-1E+10	1	-1E+10	1	-1E+10	1	-1E+10	1	-1E+10	1
4902642	9	C	09/18/2024	04:22	-131.285	44.947	0	3251.60	0	1.5660	0	34.6610	4	27.751	0	3200.569	0	96.1	4	28.7	4	-1E+10	1	-1E+10	1	-1E+10	1	-1E+10	1	-1E+10	1	-1E+10	1
4902642	9	C	09/18/2024	04:22	-131.285	44.947	0	3252.50	0	1.5660	0	34.6620	4	27.752	0	3201.448	0	96.1	4	28.7	4	-1E+10	1	-1E+10	1	-1E+10	1	-1E+10	1	-1E+10	1	-1E+10	1
4902642	9	C	09/18/2024	04:22	-131.285	44.947	0	3253.40	0	1.5660	0	34.6620	4	27.752	0	3202.327	0	96.1	4	28.7	4	-1E+10	1	-1E+10	1	-1E+10	1	-1E+10	1	-1E+10	1	-1E+10	1
4902642	9	C	09/18/2024	04:22	-131.285	44.947	0	3254.40	0	1.5660	0	34.6610	4	27.751	0	3203.304	0	96.1	4	28.7	4	-1E+10	1	-1E+10	1	-1E+10	1	-1E+10	1	-1E+10	1	-1E+10	1
4902642	9	C	09/18/2024	04:22	-131.285	44.947	0	3255.30	0	1.5660	0	34.6610	4	27.751	0	3204.183	0	96.1	4	28.7	4	-1E+10	1	-1E+10	1	-1E+10	1	-1E+10	1	-1E+10	1	-1E+10	1
4902642	9	C	09/18/2024	04:22	-131.285	44.947	0	3256.30	0	1.5660	0	34.6620	4	27.752	0	3205.160	0	96.1	4	28.7	4	-1E+10	1	-1E+10	1	-1E+10	1	-1E+10	1	-1E+10	1	-1E+10	1
4902642	9	C	09/18/2024	04:22	-131.285	44.947	0	3257.30	0	1.5670	0	34.6610	4	27.751	0	3206.137	0	96.1	4	28.7	4	-1E+10	1	-1E+10	1	-1E+10	1	-1E+10	1	-1E+10	1	-1E+10	1
4902642	9	C	09/18/2024	04:22	-131.285	44.947	0	3258.20	0	1.5670	0	34.6610	4	27.751	0	3207.017	0	96.1	4	28.7	4	-1E+10	1	-1E+10	1	-1E+10	1	-1E+10	1	-1E+10	1	-1E+10	1
4902642	9	C	09/18/2024	04:22	-131.285	44.947	0	3259.10	0	1.5660	0	34.6620	4	27.752	0	3207.896	0	96.1	4	28.7	4	-1E+10	1	-1E+10	1	-1E+10	1	-1E+10	1	-1E+10	1	-1E+10	1
4902642	9	C	09/18/2024	04:22	-131.285	44.947	0	3260.10	0	1.5670	0	34.6620	4	27.752	0	3208.873	0	96.1	4	28.7	4	-1E+10	1	-1E+10	1	-1E+10	1	-1E+10	1	-1E+10	1	-1E+10	1
4902642	9	C	09/18/2024	04:22	-131.285	44.947	0	3261.10	0	1.5670	0	34.6610	4	27.751	0	3209.850	0	96.1	4	28.7	4	-1E+10	1	-1E+10	1	-1E+10	1	-1E+10	1	-1E+10	1	-1E+10	1
4902642	9	C	09/18/2024	04:22	-131.285	44.947	0	3262.50	0	1.5670	0	34.6610	4	27.751	0	3211.217	0	96.1	4	28.7	4	-1E+10	1	-1E+10	1	-1E+10	1	-1E+10	1	-1E+10	1	-1E+10	1
4902642	9	C	09/18/2024	04:22	-131.285	44.947	0	3263.90	0	1.5660	0	34.6620	4	27.752	0	3212.585	0	96.1	4	28.7	4	-1E+10	1	-1E+10	1	-1E+10	1	-1E+10	1	-1E+10	1	-1E+10	1
4902642	9	C	09/18/2024	04:22	-131.285	44.947	0	3264.90	0	1.5660	0	34.6610	4	27.751	0	3213.562	0	96.1	4	28.7	4	-1E+10	1	-1E+10	1	-1E+10	1	-1E+10	1	-1E+10	1	-1E+10	1
4902642	9	C	09/18/2024	04:22	-131.285	44.947	0	3265.90	0	1.5660	0	34.6610	4	27.751	0	3214.539	0	96.1	4	28.7	4	-1E+10	1	-1E+10	1	-1E+10	1	-1E+10	1	-1E+10	1	-1E+10	1
4902642	9	C	09/18/2024	04:22	-131.285	44.947	0	3266.90	0	1.5660	0	34.6620	4	27.752	0	3215.516	0	96.2	4	28.7	4	-1E+10	1	-1E+10	1	-1E+10	1	-1E+10	1	-1E+10	1	-1E+10	1
4902642	9	C	09/18/2024	04:22	-131.285	44.947	0	3267.80	0	1.5660	0	34.6620	4	27.752	0	3216.395	0	96.2	4	28.7	4	-1E+10	1	-1E+10	1	-1E+10	1	-1E+10	1	-1E+10	1	-1E+10	1
4902642	9	C	09/18/2024	04:22	-131.285	44.947	0	3268.80	0	1.5660	0	34.6620	4	27.752	0	3217.372	0	96.2	4	28.7	4	-1E+10	1	-1E+10	1	-1E+10	1	-1E+10	1	-1E+10	1	-1E+10	1
4902642	9	C	09/18/2024	04:22	-131.285	44.947	0	3269.80	0	1.5660	0	34.6620	4	27.752	0	3218.349	0	96.1	4	28.7	4	-1E+10	1	-1E+10	1	-1E+10	1	-1E+10	1	-1E+10	1	-1E+10	1
4902642	9	C	09/18/2024	04:22	-131.285	44.947	0	3270.70	0	1.5660	0	34.6610	4	27.751	0	3219.228	0	96.2	4	28.7	4	-1E+10	1	-1E+10	1	-1E+10	1	-1E+10	1	-1E+10	1	-1E+10	1
4902642	9	C	09/18/2024	04:22	-131.285	44.947	0	3271.60	0	1.5660	0	34.6620	4	27.752	0	3220.107	0	96.2	4	28.7	4	-1E+10	1	-1E+10	1	-1E+10	1	-1E+10	1	-1E+10	1	-1E+10	1
4902642	9	C	09/18/2024	04:22	-131.285	44.947	0	3273.00	0	1.5660	0	34.6620	4	27.752	0	3221.475	0	96.1	4	28.7	4	-1E+10	1	-1E+10	1	-1E+10	1	-1E+10	1	-1E+10	1	-1E+10	1
4902642	9	C	09/18/2024	04:22	-131.285	44.947	0	3273.80	0	1.5670	0	34.6620	4	27.752	0	3222.256	0	96.1	4	28.7	4	-1E+10	1	-1E+10	1	-1E+10	1	-1E+10	1	-1E+10	1	-1E+10	1
4902642	9	C	09/18/2024	04:22	-131.285	44.947	0	3274.50	0	1.5660	0	34.6620	4	27.752	0	3222.940	0	96.1	4	28.7	4	-1E+10	1	-1E+10	1	-1E+10	1	-1E+10	1	-1E+10	1	-1E+10	1
4902642	9	C	09/18/2024	04:22	-131.285	44.947	0	3275.40	0	1.5670	0	34.6620	4	27.752	0	3223.819	0	96.1	4	28.7	4	-1E+10	1	-1E+10	1	-1E+10	1	-1E+10	1	-1E+10	1	-1E+10	1
4902642	9	C	09/18/2024	04:22	-131.285	44.947	0	3276.40	0	1.5670	0	34.6610	4	27.751	0	3224.796	0	96.1	4	28.7	4	-1E+10	1	-1E+10	1	-1E+10	1	-1E+10	1	-1E+10	1	-1E+10	1
4902642	9	C	09/18/2024	04:22	-131.285	44.947	0	3277.60	0	1.5670	0	34.6620	4	27.752	0	3225.968	0	96.1	4	28.7	4	-1E+10	1	-1E+10	1	-1E+10	1	-1E+10	1	-1E+10	1	-1E+10	1
4902642	9	C	09/18/2024	04:22	-131.285	44.947	0	3278.40	0	1.5670	0	34.6610	4	27.751	0	3226.750	0	96.1	4	28.7	4	-1E+10	1	-1E+10	1	-1E+10	1	-1E+10	1	-1E+10	1	-1E+10	1
4902642	9	C	09/18/2024	04:22	-131.285	44.947	0	3279.40	0	1.5670	0	34.6610	4	27.751	0	3227.726	0	96.1	4	28.7	4	-1E+10	1	-1E+10	1	-1E+10	1	-1E+10	1	-1E+10	1	-1E+10	1
4902642	9	C	09/18/2024	04:22	-131.285	44.947	0	3280.60	0	1.5670	0	34.6610	4	27.751	0	3228.899	0	96.0	4	28.7	4	-1E+10	1	-1E+10	1	-1E+10	1	-1E+10	1	-1E+10	1	-1E+10	1
4902642	9	C	09/18/2024	04:22	-131.285	44.947	0	3281.30	0	1.5670	0	34.6620	4	27.752	0	3229.583	0	96.0	4	28.7	4	-1E+10	1	-1E+10	1	-1E+10	1	-1E+10	1	-1E+10	1	-1E+10	1
4902642	9	C	09/18/2024	04:22	-131.285	44.947	0	3282.70	0	1.5680	0	34.6620	4	27.752	0	3230.950	0	96.1	4	28.7	4	-1E+10	1	-1E+10	1	-1E+10	1	-1E+10	1	-1E+10	1	-1E+10	1
4902642	9	C	09/18/2024	04:22	-131.285	44.947	0	3283.50	0	1.5670	0	34.6620	4	27.752	0	3231.732	0	96.0	4	28.7	4	-1E+10	1	-1E+10	1	-1E+10	1	-1E+10	1	-1E+10	1	-1E+10	1
4902642	9	C	09/18/2024	04:22	-131.285	44.947	0	3284.60	0	1.5670	0	34.6610	4	27.751	0	3232.806	0	96.0	4	28.6	4	-1E+10	1	-1E+10	1	-1E+10	1	-1E+10	1	-1E+10	1	-1E+10	1
4902642	9	C	09/18/2024	04:22	-131.285	44.947	0	3285.80	0	1.5680	0	34.6610	4	27.751	0	3233.978	0	96.0	4	28.6	4	-1E+10	1	-1E+10	1	-1E+10	1	-1E+10	1	-1E+10	1	-1E+10	1
4902642	9	C	09/18/2024	04:22	-131.285	44.947	0	3286.50	0	1.5680	0	34.6610	4	27.751	0	3234.662	0	96.1	4	28.7	4	-1E+10	1	-1E+10	1	-1E+10	1	-1E+10	1	-1E+10	1	-1E+10	1
4902642	9	C	09/18/2024	04:22	-131.285	44.947	0																										
4902642	10	C	09/28/2024	03:30	-131.333	45.002	0	1.40	0	17.6220	0	32.5790	0	23.511	0	1.389	0	220.2	4	91.9	4	-1E+10	1	-1E+10	1	-1E+10	1	-1E+10	1	-1E+10	1	-1E+10	1
4902642	10	C	09/28/2024	03:30	-131.333	45.002	0	1.50	0	17.6290	0	32.5760	0	23.507	0	1.488	0	220.1	4	91.9	4	-1E+10	1	-1E+10	1	-1E+10	1	-1E+10	1	-1E+10	1	-1E+10	1
4902642	10	C	09/28/2024	03:30	-131.333	45.002	0	1.70	0	17.6410	0	32.5663	0	23.497	0	1.686	0	220.1	4	91.9	4	-1E+10	1	-1E+10	1	-1E+10	1	-1E+10	1	-1E+10	1	-1E+10	1
4902642	10	C	09/28/2024	03:30	-131.333	45.002	0	1.80	0	17.6260	0	32.5760	0	23.508	0	1.785	0	220.1	4	91.9	4	-1E+10	1	-1E+10	1	-1E+10	1	-1E+10	1	-1E+10	1	-1E+10	1
4902642	10	C	09/28/2024	03:30	-131.333	45.002	0	1.90	0	17.6230	0	32.5800	0	23.511	0	1.885	0	220.0	4	91.9	4	-1E+10	1	-1E+10	1	-1E+10	1	-1E+10	1	-1E+10	1	-1E+10	1
4902642	10	C	09/28/2024	03:30	-131.333	45.002	0	2.00	0	17.6387	0	32.5713	0	23.501	0	1.984	0	-1e10	1	-1e10	1	-1E+10	1	-1E+10	1	-1E+10	1	-1E+10	1	-1E+10	1	-1E+10	1
4902642	10	C	09/28/2024	03:30	-131.333	45.002	0	2.40	0	17.6410	0	32.5740	0	23.503	0	2.381	0	219.9	4	91.8	4	-1E+10	1	-1E+10	1	-1E+10	1	-1E+10	1	-1E+10	1	-1E+10	1
4902642	10	C	09/28/2024	03:30	-131.333	45.002	0	3.40	0	17.6510	0	32.5740	0	23.500	0	3.372	0	220.1	4	91.9	4	-1E+10	1	-1E+10	1	-1E+10	1	-1E+10	1	-1E+10	1	-1E+10	1
4902642	10	C	09/28/2024	03:30	-131.333	45.002	0	4.60	0	17.6590	0	32.5700	0	23.495	0	4.563	0	220.1	4	92.0	4	-1E+10	1	-1E+10	1	-1E+10	1	-1E+10	1	-1E+10	1	-1E+10	1
4902642	10	C	09/28/2024	03:30	-131.333	45.002	0	5.70	0	17.6660	0	32.5690	0	23.493	0	5.654	0	220.1	4	92.0	4	-1E+10	1	-1E+10	1	-1E+10	1	-1E+10	1	-1E+10	1	-1E+10	1
4902642	10	C	09/28/2024	03:30	-131.333	45.002	0	6.60	0	17.6600	0	32.5700	0	23.495	0	6.546	0	220.0	4	91.9	4	-1E+10	1	-1E+10	1	-1E+10	1	-1E+10	1	-1E+10	1	-1E+10	1
4902642	10	C	09/28/2024	03:30	-131.333	45.002	0	7.80	0	17.6640	0	32.5660	0	23.491	0	7.737	0	220.2	4	92.0	4	-1E+10	1	-1E+10	1	-1E+10	1	-1E+10	1	-1E+10	1	-1E+10	1
4902642	10	C	09/28/2024	03:30	-131.333	45.002	0	8.50	0	17.6640	0	32.5700	0	23.494	0	8.431	0	220.0	4	91.9	4	-1E+10	1	-1E+10	1	-1E+10	1	-1E+10	1	-1E+10	1	-1E+10	1
4902642	10	C	09/28/2024	03:30	-131.333	45.002	0	9.70	0	17.6660	0	32.5680	0	23.492	0	9.621	0	220.1	4	91.9	4	-1E+10	1	-1E+10	1	-1E+10	1	-1E+10	1	-1E+10	1	-1E+10	1
4902642	10	C	09/28/2024	03:30	-131.333	45.002	0	14.70	0	17.6660	0	32.5680	0	23.492	0	14.580	0	220.1	4	92.0	4	-1E+10	1	-1E+10	1	-1E+10	1	-1E+10	1	-1E+10	1	-1E+10	1
4902642	10	C	09/28/2024	03:30	-131.333	45.002	0	25.40	0	17.6550	0	32.5660	0	23.494	0	25.192	0	221.2	4	92.4	4	-1E+10	1	-1E+10	1	-1E+10	1	-1E+10	1	-1E+10	1	-1E+10	1
4902642	10	C	09/28/2024	03:30	-131.333	45.002	0	35.40	0	17.3910	0	32.5540	0	23.548	0	35.110	0	231.3	4	96.1	4	-1E+10	1	-1E+10	1	-1E+10	1	-1E+10	1	-1E+10	1	-1E+10	1
4902642	10	C	09/28/2024	03:30	-131.333	45.002	0	44.60	0	13.4660	0	32.5030	0	24.369	0	44.233	0	258.0	4	99.2	4	-1E+10	1	-1E+10	1	-1E+10	1	-1E+10	1	-1E+10	1	-1E+10	1
4902642	10	C	09/28/2024	03:30	-131.333	45.002	0	54.90	0	11.7870	0	32.5220	0	24.706	0	54.447	0	258.1	4	95.9	4	-1E+10	1	-1E+10	1	-1E+10	1	-1E+10	1	-1E+10	1	-1E+10	1
4902642	10	C	09/28/2024	03:30	-131.333	45.002	0	65.20	0	10.8120	0	32.5170	0	24.877	0	64.661	0	254.1	4	92.5	4	-1E+10	1	-1E+10	1	-1E+10	1	-1E+10	1	-1E+10	1	-1E+10	1
4902642	10	C	09/28/2024	03:30	-131.333	45.002	0	75.30	0	10.3280	0	32.5410	0	24.979	0	74.675	0	248.3	4	89.5	4	-1E+10	1	-1E+10	1	-1E+10	1	-1E+10	1	-1E+10	1	-1E+10	1
4902642	10	C	09/28/2024	03:30	-131.333	45.002	0	85.20	0	9.9630	0	32.5560	0	25.052	0	84.491	0	243.6	4	87.1	4	-1E+10	1	-1E+10	1	-1E+10	1	-1E+10	1	-1E+10	1	-1E+10	1
4902642	10	C	09/28/2024	03:30	-131.333	45.002	0	94.90	0	9.6960	0	32.5700	0	25.107	0	94.108	0	240.0	4	85.3	4	-1E+10	1	-1E+10	1	-1E+10	1	-1E+10	1	-1E+10	1	-1E+10	1
4902642	10	C	09/28/2024	03:30	-131.333	45.002	0	104.00	0	9.4660	0	32.5920	0	25.161	0	103.130	0	235.6	4	83.3	4	-1E+10	1	-1E+10	1	-1E+10	1	-1E+10	1	-1E+10	1	-1E+10	1
4902642	10	C	09/28/2024	03:30	-131.333	45.002	0	114.40	0	9.2810	0	32.6390	0	25.228	0	113.440	0	227.0	4	80.0	4	-1E+10	1	-1E+10	1	-1E+10	1	-1E+10	1	-1E+10	1	-1E+10	1
4902642	10	C	09/28/2024	03:30	-131.333	45.002	0	124.20	0	8.9380	0	32.7520	0	25.370	0	123.155	0	214.8	4	75.2	4	-1E+10	1	-1E+10	1	-1E+10	1	-1E+10	1	-1E+10	1	-1E+10	1
4902642	10	C	09/28/2024	03:30	-131.333	45.002	0	134.70	0	8.3320	0	33.0280	0	25.679	0	133.563	0	205.0	4	71.0	4	-1E+10	1	-1E+10	1	-1E+10	1	-1E+10	1	-1E+10	1	-1E+10	1
4902642	10	C	09/28/2024	03:30	-131.333	45.002	0	144.60	0	7.9140	0	33.2430	0	25.909	0	143.376	0	200.2	4	68.8	4	-1E+10	1	-1E+10	1	-1E+10	1	-1E+10	1	-1E+10	1	-1E+10	1
4902642	10	C	09/28/2024	03:30	-131.333	45.002	0	154.50	0	7.6010	0	33.3800	0	26.062	0	153.188	0	197.1	4	67.3	4	-1E+10	1	-1E+10	1	-1E+10	1	-1E+10	1	-1E+10	1	-1E+10	1
4902642	10	C	09/28/2024	03:30	-131.333	45.002	0	165.30	0	7.4040	0	33.4620	0	26.154	0	163.893	0	193.5	4	65.8	4	-1E+10	1	-1E+10	1	-1E+10	1	-1E+10	1	-1E+10	1	-1E+10	1
4902642	10	C	09/28/2024	03:30	-131.333	45.002	0	174.80	0	7.2600	0	33.5580	0	26.250	0	173.308	0	189.8	4	64.4	4	-1E+10	1	-1E+10	1	-1E+10	1	-1E+10	1	-1E+10	1	-1E+10	1
4902642	10	C	09/28/2024	03:30	-131.333	45.002	0	185.00	0	7.0860	0	33.6370	0	26.336	0	183.416	0	186.0	4	62.9	4	-1E+10	1	-1E+10	1	-1E+10	1	-1E+10	1	-1E+10	1	-1E+10	1
4902642	10	C	09/28/2024	03:30	-131.333	45.002	0	194.80	0	7.0000	0	33.6980	0	26.396	0	193.128	0	180.0	4	60.8	4	-1E+10	1	-1E+10	1	-1E+10	1	-1E+10	1	-1E+10	1	-1E+10	1
4902642	10	C	09/28/2024	03:30	-131.333	45.002	0	209.70	0	6.8520	0	33.7480	0	26.455	0	207.892	0	169.2	4	56.9	4	-1E+10	1	-1E+10	1	-1E+10	1	-1E+10	1	-1E+10	1	-1E+10	1
4902642	10	C	09/28/2024	03:30	-131.333	45.002	0	229.50	0	6.6120	0	33.7840	0	26.516	0	227.511	0	154.4	4	51.7	4	-1E+10	1	-1E+10	1	-1E+10	1	-1E+10	1	-1E+10	1	-1E+10	1
4902642	10	C	09/28/2024	03:30	-131.333	45.002	0	249.50	0	6.3320	0	33.7950	0	26.561	0	247.325	0	138.8	4	46.2	4	-1E+10	1	-1E+10	1	-1E+10	1	-1E+10	1	-1E+10	1	-1E+10	1
4902642	10	C	09/28/2024	03:30	-131.333	45.002	0	269.40	0	6.0690	0	33.8170	0	26.612	0	267.039	0	118.7	4	39.3	4	-1E+10	1	-1E+10	1	-1E+10	1	-1E+10	1	-1E+10	1	-1E+10	1
4902642	10	C	09/28/2024	03:30	-131.333	45.002	0	289.70	0	5.8120	0	33.8360	0	26.659	0	287.147	0	106.7	4	35.1	4	-1E+10	1	-1E+10	1	-1E+10	1	-1E+10	1	-1E+10	1	-1E+10	1
4902642	10	C	09/28/2024	03:30	-131.333	45.002	0	309.90	0	5.6130	0	33.8460	0	26.692	0	307.154	0	96.6	4	31.6	4	-1E+10	1	-1E+10	1	-1E+10	1	-1E+10	1	-1E+10	1	-1E+10	1
4902642	10	C	09/28/2024	03:30	-131.333	45.002	0	329.90	0	5.4610	0	33.8670	0	26.727	0	326.961	0	83.4	4	27.2	4	-1E+10	1	-1E+10	1	-1E+10	1	-1E+10	1	-1E+10	1	-1E+10	1
4902642	10	C	09/28/2024	03:30	-131.333	45.002	0	349.60	0	5.3370	0	33.8920	0	26.761	0	346.469	0	74.1	4	24.1	4	-1E+10	1	-1E+10	1	-1E+10	1	-1E+10	1	-1E+10	1	-1E+10	1
4902642	10	C	09/28/2024	03:30	-131.333	45.002	0	369.50	0	5.2450	0	33.9150	0	26.790	0	366.173	0	66.6	4	21.6	4	-1E+10	1	-1E+10	1	-1E+10	1	-1E+10	1	-1E+10	1	-1E+10	1
4902642	10	C	09/28/2024	03:30	-131.333	45.002	0	389.00	0	5.0740	0	33.9280	0	26.821	0	385.480	0	60.6	4	19.6	4	-1E+10	1	-1E+10	1	-1E+10	1	-1E+10	1	-1E+10	1	-1E+10	1
4902642	10	C	09/28/2024	03:30	-131.333	45.002	0	409.70	0	4.9950	0	33.9420	0	26.841	0	405.972	0	56.4	4	18.2	4	-1E+10	1	-1E+10	1	-1E+10	1	-1E+10	1	-1E+10	1	-1E+10	1
4902642	10	C	09/28/2024	03:30	-131.333	45.002	0	429.50	0	4.9350	0	33.9640	0	26.865	0	425.572	0	50.3	4	16.2	4	-1E+10	1	-1E+10	1	-1E+10	1	-1E+10	1	-1E+10	1	-1E+10	1
4902642	10	C	09/28/2024	03:30	-131.333	45.002	0	449.60	0	4.8750	0	33.9840	0	26.888	0	445.466	0	45.6	4	14.7	4	-1E+10	1	-1E+10	1	-1E+10	1	-1E+10	1	-1E+10	1	-1E+10	1
4902642	10	C	09/28/2024	03:30	-131.333	45.002	0	469.90	0	4.7940	0	34.0000	0	26.910	0	465.557	0	40.4	4	13.0	4	-1E+10	1	-1E+10	1	-1E+10	1	-1E+10	1	-1E+10	1	-1E+10	1
4902642	10	C	09/28/2024	03:30	-131.333	45.002	0	489.90	0	4.7730	0	34.0360	0	26.941	0	485.348	0	33.3	4	10.7	4	-1E+10	1	-1E+10	1	-1E+10	1	-1E+10	1	-1E+10	1	-1E+10	1
4902642	10	C	09/28/2024	03:30	-131.333	45.002	0	510.40	0	4.7280	0	34.0580	0	26.964	0	505.633	0	29.6	4	9.5	4	-1E+10	1	-1E+10	1	-1E+10	1	-1E+10	1	-1E+10	1	-1E+10	1
4902642	10	C	09/28/2024	03:30	-131.333	45.002	0	529.50	0	4.6490	0	34.0680	0	26.980	0	524.531	0	26.3	4	8.4	4	-1E+10	1	-1E+10	1	-1E+10	1	-1E+10	1	-1E+10	1	-1E+10	1
4902642	10	C	09/28/2024	03:30	-131.333	45.002	0	549.50	0	4.6610	0	34.0970	0	27.002	0	544.317	0	22.3	4	7.1	4	-1E+10	1	-1E+10	1	-1E+10	1	-1E+10	1	-1E+10	1	-1E+10	1
4902642	10	C	09/28/2024	03:30	-131.333	45.002	0	569.50	0	4.5790	0	34.1110	0	27.022	0	564.101	0	19.6	4	6.3	4	-1E+10	1	-1E+10	1	-1E+10	1	-1E+10	1	-1E+10	1	-1E+10	1
4902642	10	C	09/28/2024	03:30	-131.333	45.002	0	589.50	0	4.4620	0	34.1220	0	27.044	0	583.883	0	17.8	4	5.7	4	-1E+10	1	-1E+10	1	-1E+10	1	-1E+10	1	-1E+10	1	-1E+10	1
4902642	10	C	09/28/2024	03:30	-131.333	45.002	0	609.70	0	4.4100	0	34.1420	0	27.066	0	603.862	0	15.0	4	4.8	4	-1E+10	1	-1E+10	1	-1E+10	1	-1E+10	1	-1E+10	1	-1E+10	1
4902642	10	C	09/28/2024	03:30	-131.333	45.002	0	629.90	0	4.3890	0	34.1620	0	27.084	0	623.838	0	13.0	4	4.1	4	-1E+10	1	-1E+10	1	-1E+10	1	-1E+10	1	-1E+10	1	-1E+10	1
4902642	10	C	09/28/2024	03:30	-131.333	45.002	0	649.30	0	4.3590	0	34.1830	0	27.104	0	643.021	0	11.0	4	3.5	4	-1E+10	1	-1E+10	1	-1E+10	1	-1E+10	1	-1E+10	1	-1E+10	1
4902642	10	C	09/28/2024	03:30	-131.333	45.002	0	669.80	0	4.3190	0	34.2040	0	27.125	0	663.290	0	9.4	4	3.0	4	-1E+10	1	-1E+10	1	-1E+10	1	-1E+10	1	-1E+10	1	-1E+10	1
4902642	10	C	09/28/2024	03:30	-131.333	45.002	0	689.90	0	4.2350	0	34.2180	0	27.145	0	683.162	0	8.7	4	2.7	4	-1E+10	1	-1E+10	1	-1E+10	1	-1E+10	1	-1E+10	1	-1E+10	1
4902642	10	C	09/28/2024	03:30	-131.333	45.002	0	709.90	0	4.1350	0	34.2290	0	27.164	0	702.933	0	7.9	4	2.5	4	-1E+10	1	-1E+10	1	-1E+10	1	-1E+10	1	-1E+10	1	-1E+10	1
4902642	10	C	09/28/2024	03:30	-131.333	45.002	0	730.00	0	4.0960	0	34.2450	0	27.181	0	722.801	0	7.1	4	2.2	4	-1E+10	1	-1E+10	1	-1E+10	1	-1E+10	1	-1E+10	1	-1E+10	1
4902642	10	C	09/28/2024	03:30	-131.333	45.002	0	749.60	0	4.0760	0	34.2620	0	27.197	0	742.173	0	6.4	4	2.0	4	-1E+10	1	-1E+10	1	-1E+10	1	-1E+10	1	-1E+10	1	-1E+10	1
4902642	10	C	09/28/2024	03:30	-131.333	45.002	0	769.50	0	4.0540	0	34.2770	0	27.211	0	761.839	0	6.0	4	1.9	4	-1E+10	1	-1E+10	1	-1E+10	1	-1E+10	1	-1E+10	1	-1E+10	1
4902642	10	C	09/28/2024	03:30	-131.333	45.002	0	790.20	0	4.0090	0	34.2880	0	27.225	0	782.295	0	5.8	4	1.8	4	-1E+10	1	-1E+10	1	-1E+10	1	-1E+10	1	-1E+10	1	-1E+10	1
4902642	10	C	09/28/2024	03:30	-131.333	45.002	0	809.50	0	3.9870	0	34.2970	0	27.234	0	801.365	0	5.6	4	1.8	4	-1E+10	1	-1E+10	1	-1E+10	1	-1E+10	1	-1E+10	1	-1E+10	1
4902642	10	C	09/28/2024	03:30	-131.333	45.002	0	829.50	0	3.9350	0	34.3070	0	27.248	0	821.124	0	5.4	4	1.7	4	-1E+10	1	-1E+10	1	-1E+10	1	-1E+10	1	-1E+10	1	-1E+10	1
4902642	10	C	09/28/2024	03:30	-131.333	45.002	0	849.60	0	3.8780	0	34.3160	0	27.261	0	840.981	0	5.3	4	1.7	4	-1E+10	1	-1E+10	1	-1E+10	1	-1E+10	1	-1E+10	1	-1E+10	1
4902642	10	C	09/28/2024	03:30	-131.333	45.002	0	869.70	0	3.8320	0	34.3250	0	27.273	0	860.836	0	5.3	4	1.7	4	-1E+10	1	-1E+10	1	-1E+10	1	-1E+10	1	-1E+10	1	-1E+10	1
4902642	10	C	09/28/2024	03:30	-131.333	45.002	0	889.80	0	3.8070	0	34.3350	0	27.283	0	880.688	0	5.3	4	1.7	4	-1E+10	1	-1E+10	1	-1E+10	1	-1E+10	1	-1E+10	1	-1E+10	1
4902642	10	C	09/28/2024	03:30	-131.333	45.002	0	909.80	0	3.7490	0	34.3420	0	27.295	0	900.441	0	5.3	4	1.7	4	-1E+10	1	-1E+10	1	-1E+10	1	-1E+10	1	-1E+10	1	-1E+10	1
4902642	10	C	09/28/2024	03:30	-131.333	45.002	0	930.00	0	3.6750	0	34.3460	0	27.306	0	920.388	0	5.3	4	1.7	4	-1E+10	1	-1E+10	1	-1E+10	1	-1E+10	1	-1E+10	1	-1E+10	1
4902642	10	C	09/28/2024	03:30	-131.333	45.002	0	950.10	0	3.6350	0	34.3570	0	27.318	0	940.236	0	5.5	4	1.7	4	-1E+10	1	-1E+10	1	-1E+10	1	-1E+10	1	-1E+10	1	-1E+10	1
4902642	10	C	09/28/2024	03:30	-131.333	45.002	0	969.70	0	3.6120	0	34.3730	0	27.333	0	959.587	0	6.0	4	1.9	4	-1E+10	1	-1E+10	1	-1E+10	1	-1E+10	1	-1E+10	1	-1E+10	1
4902642	10	C	09/28/2024	03:30	-131.333	45.002	0	988.80	0	3.5960	0	34.3870	0	27.346	0	978.443	0	6.4	4	2.0	4	-1E+10	1	-1E+10	1	-1E+10	1	-1E+10	1	-1E+10	1	-1E+10	1
4902642	10	C	09/28/2024	03:30	-131.333	45.002	0	1009.40	0	3.5440	0	34.3940	0	27.357	0	998.779	0	6.5	4	2.0	4	-1E+10	1	-1E+10	1	-1E+10	1	-1E+10	1	-1E+10	1	-1E+10	1
4902642	10	C	09/28/2024	03:30	-131.333	45.002	0	1029.40	0	3.5000	0	34.4000	0	27.366	0	1018.520	0	6.9	4	2.2	4	-1E+10	1	-1E+10	1	-1E+10	1	-1E+10	1	-1E+10	1	-1E+10	1
4902642	10	C	09/28/2024	03:30	-131.333	45.002	0	1049.40	0	3.4630	0	34.4060	0	27.375	0	1038.259	0	7.2	4	2.2	4	-1E+10	1	-1E+10	1	-1E+10	1	-1E+10	1	-1E+10	1	-1E+10	1
4902642	10	C	09/28/2024	03:30	-131.333	45.002	0	1069.50	0	3.4150	0	34.4120	0	27.384	0	1058.095	0	7.6	4	2.4	4	-1E+10	1	-1E+10	1	-1E+10	1	-1E+10	1	-1E+10	1	-1E+10	1
4902642	10	C	09/28/2024	03:30	-131.333	45.002	0	1090.20	0	3.3690	0	34.4200	0	27.395	0	1078.521	0	8.1	4	2.5	4	-1E+10	1	-1E+10	1	-1E+10	1	-1E+10	1	-1E+10	1	-1E+10	1
4902642	10	C	09/28/2024	03:30	-131.333	45.002	0	1109.80	0	3.3320	0	34.4260	0	27.403	0	1097.860	0	8.6	4	2.7	4	-1E+10	1	-1E+10	1	-1E+10	1	-1E+10	1	-1E+10	1	-1E+10	1
4902642	10	C	09/28/2024	03:30	-131.333	45.002	0	1130.00	0	3.2780	0	34.4330	0	27.414	0	1117.788	0	9.1	4	2.8	4	-1E+10	1	-1E+10	1	-1E+10	1	-1E+10	1	-1E+10	1	-1E+10	1
4902642	10	C	09/28/2024	03:30	-131.333	45.002	0	1149.80	0	3.2470	0	34.4370	0	27.420	0	1137.321	0	9.4	4	2.9	4	-1E+10	1	-1E+10	1	-1E+10	1	-1E+10	1	-1E+10	1	-1E+10	1
4902642	10	C	09/28/2024	03:30	-131.333	45.002	0	1169.60	0	3.2100	0	34.4410	0	27.427	0	1156.851	0	9.8	4	3.0	4	-1E+10	1	-1E+10	1	-1E+10	1	-1E+10	1	-1E+10	1	-1E+10	1
4902642	10	C	09/28/2024	03:30	-131.333	45.002	0	1189.40	0	3.1650	0	34.4450	0	27.435	0	1176.380	0	10.2	4	3.2	4	-1E+10	1	-1E+10	1	-1E+10	1	-1E+10	1	-1E+10	1	-1E+10	1
4902642	10	C	09/28/2024	03:30	-131.333	45.002	0	1209.50	0	3.1170	0	34.4510	0	27.444	0	1196.203	0	10.7	4	3.3	4	-1E+10	1	-1E+10	1	-1E+10	1	-1E+10	1	-1E+10	1	-1E+10	1
4902642	10	C	09/28/2024	03:30	-131.333	45.002	0	1229.90	0	3.0650	0	34.4560	0	27.453	0	1216.320	0	11.3	4	3.5	4	-1E+10	1	-1E+10	1	-1E+10	1	-1E+10	1	-1E+10	1	-1E+10	1
4902642	10	C	09/28/2024	03:30	-131.333	45.002	0	1250.40	0	3.0190	0	34.4610	0	27.461	0	1236.533	0	11.9	4	3.7	4	-1E+10	1	-1E+10	1	-1E+10	1	-1E+10	1	-1E+10	1	-1E+10	1
4902642	10	C	09/28/2024	03:30	-131.333	45.002	0	1269.80	0	2.9950	0	34.4650	0	27.467	0	1255.660	0	12.4	4	3.8	4	-1E+10	1	-1E+10	1	-1E+10	1	-1E+10	1	-1E+10	1	-1E+10	1
4902642	10	C	09/28/2024	03:30	-131.333	45.002	0	1289.80	0	2.9490	0	34.4690	0	27.474	0	1275.377	0	13.0	4	4.0	4	-1E+10	1	-1E+10	1	-1E+10	1	-1E+10	1	-1E+10	1	-1E+10	1
4902642	10	C	09/28/2024	03:30	-131.333	45.002	0	1309.60	0	2.8940	0	34.4730	0	27.482	0	1294.895	0	13.8	4	4.2	4	-1E+10	1	-1E+10	1	-1E+10	1	-1E+10	1	-1E+10	1	-1E+10	1
4902642	10	C	09/28/2024	03:30	-131.333	45.002	0	1329.80	0	2.8430	0	34.4780	0	27.491	0	1314.805	0	14.6	4	4.5	4	-1E+10	1	-1E+10	1	-1E+10	1	-1E+10	1	-1E+10	1	-1E+10	1
4902642	10	C	09/28/2024	03:30	-131.333	45.002	0	1350.00	0	2.8030	0	34.4830	0	27.498	0	1334.713	0	15.4	4	4.7	4	-1E+10	1	-1E+10	1	-1E+10	1	-1E+10	1	-1E+10	1	-1E+10	1
4902642	10	C	09/28/2024	03:30	-131.333	45.002	0	1369.80	0	2.7610	0	34.4870	0	27.505	0	1354.226	0	16.2	4	5.0	4	-1E+10	1	-1E+10	1	-1E+10	1	-1E+10	1	-1E+10	1	-1E+10	1
4902642	10	C	09/28/2024	03:30	-131.333	45.002	0	1390.40	0	2.7180	0	34.4910	0	27.512	0	1374.524	0	17.0	4	5.2	4	-1E+10	1	-1E+10	1	-1E+10	1	-1E+10	1	-1E+10	1	-1E+10	1
4902642	10	C	09/28/2024	03:30	-131.333	45.002	0	1409.80	0	2.6770	0	34.4950	0	27.519	0	1393.639	0	18.0	4	5.5	4	-1E+10	1	-1E+10	1	-1E+10	1	-1E+10	1	-1E+10	1	-1E+10	1
4902642	10	C	09/28/2024	03:30	-131.333	45.002	0	1429.60	0	2.6410	0	34.5010	0	27.527	0	1413.146	0	19.1	4	5.9	4	-1E+10	1	-1E+10	1	-1E+10	1	-1E+10	1	-1E+10	1	-1E+10	1
4902642	10	C	09/28/2024	03:30	-131.333	45.002	0	1449.50	0	2.6130	0	34.5060	0	27.534	0	1432.749	0	20.1	4	6.1	4	-1E+10	1	-1E+10	1	-1E+10	1	-1E+10	1	-1E+10	1	-1E+10	1
4902642	10	C	09/28/2024	03:30	-131.333	45.002	0	1469.30	0	2.5880	0	34.5100	0	27.539	0	1452.252	0	21.2	4	6.5	4	-1E+10	1	-1E+10	1	-1E+10	1	-1E+10	1	-1E+10	1	-1E+10	1
4902642	10	C	09/28/2024	03:30	-131.333	45.002	0	1489.40	0	2.5630	0	34.5140	0	27.545	0	1472.049	0	21.9	4	6.7	4	-1E+10	1	-1E+10	1	-1E+10	1	-1E+10	1	-1E+10	1	-1E+10	1
4902642	10	C	09/28/2024	03:30	-131.333	45.002	0	1509.30	0	2.5340	0	34.5160	0	27.549	0	1491.647	0	22.7	4	6.9	4	-1E+10	1	-1E+10	1	-1E+10	1	-1E+10	1	-1E+10	1	-1E+10	1
4902642	10	C	09/28/2024	03:30	-131.333	45.002	0	1530.10	0	2.4990	0	34.5200	0	27.555	0	1512.129	0	23.9	4	7.3	4	-1E+10	1	-1E+10	1	-1E+10	1	-1E+10	1	-1E+10	1	-1E+10	1
4902642	10	C	09/28/2024	03:30	-131.333	45.002	0	1549.70	0	2.4670	0	34.5240	0	27.561	0	1531.428	0	25.1	4	7.7	4	-1E+10	1	-1E+10	1	-1E+10	1	-1E+10	1	-1E+10	1	-1E+10	1
4902642	10	C	09/28/2024	03:30	-131.333	45.002	0	1569.80	0	2.4310	0	34.5290	0	27.568	0	1551.218	0	26.4	4	8.0	4	-1E+10	1	-1E+10	1	-1E+10	1	-1E+10	1	-1E+10	1	-1E+10	1
4902642	10	C	09/28/2024	03:30	-131.333	45.002	0	1589.80	0	2.3980	0	34.5330	0	27.574	0	1570.907	0	27.5	4	8.4	4	-1E+10	1	-1E+10	1	-1E+10	1	-1E+10	1	-1E+10	1	-1E+10	1
4902642	10	C	09/28/2024	03:30	-131.333	45.002	0	1609.90	0	2.3690	0	34.5370	0	27.580	0	1590.692	0	28.6	4	8.7	4	-1E+10	1	-1E+10	1	-1E+10	1	-1E+10	1	-1E+10	1	-1E+10	1
4902642	10	C	09/28/2024	03:30	-131.333	45.002	0	1629.90	0	2.3370	0	34.5400	0	27.585	0	1610.378	0	29.7	4	9.0	4	-1E+10	1	-1E+10	1	-1E+10	1	-1E+10	1	-1E+10	1	-1E+10	1
4902642	10	C	09/28/2024	03:30	-131.333	45.002	0	1650.00	0	2.3150	0	34.5430	0	27.589	0	1630.160	0	30.6	4	9.3	4	-1E+10	1	-1E+10	1	-1E+10	1	-1E+10	1	-1E+10	1	-1E+10	1
4902642	10	C	09/28/2024	03:30	-131.333	45.002	0	1670.20	0	2.2880	0	34.5460	0	27.594	0	1650.038	0	31.9	4	9.7	4	-1E+10	1	-1E+10	1	-1E+10	1	-1E+10	1	-1E+10	1	-1E+10	1
4902642	10	C	09/28/2024	03:30	-131.333	45.002	0	1689.80	0	2.2570	0	34.5500	0	27.600	0	1669.324	0	33.3	4	10.1	4	-1E+10	1	-1E+10	1	-1E+10	1	-1E+10	1	-1E+10	1	-1E+10	1
4902642	10	C	09/28/2024	03:30	-131.333	45.002	0	1710.00	0	2.2300	0	34.5540	0	27.605	0	1689.199	0	34.6	4	10.5	4	-1E+10	1	-1E+10	1	-1E+10	1	-1E+10	1	-1E+10	1	-1E+10	1
4902642	10	C	09/28/2024	03:30	-131.333	45.002	0	1730.00	0	2.2070	0	34.5570	0	27.610	0	1708.875	0	35.7	4	10.8	4	-1E+10	1	-1E+10	1	-1E+10	1	-1E+10	1	-1E+10	1	-1E+10	1
4902642	10	C	09/28/2024	03:30	-131.333	45.002	0	1750.20	0	2.1830	0	34.5600	0	27.614	0	1728.746	0	37.0	4	11.2	4	-1E+10	1	-1E+10	1	-1E+10	1	-1E+10	1	-1E+10	1	-1E+10	1
4902642	10	C	09/28/2024	03:30	-131.333	45.002	0	1770.30	0	2.1590	0	34.5640	0	27.619	0	1748.517	0	38.4	4	11.6	4	-1E+10	1	-1E+10	1	-1E+10	1	-1E+10	1	-1E+10	1	-1E+10	1
4902642	10	C	09/28/2024	03:30	-131.333	45.002	0	1789.90	0	2.1410	0	34.5670	0	27.623	0	1767.795	0	39.5	4	12.0	4	-1E+10	1	-1E+10	1	-1E+10	1	-1E+10	1	-1E+10	1	-1E+10	1
4902642	10	C	09/28/2024	03:30	-131.333	45.002	0	1810.00	0	2.1190	0	34.5700	0	27.627	0	1787.562	0	40.5	4	12.3	4	-1E+10	1	-1E+10	1	-1E+10	1	-1E+10	1	-1E+10	1	-1E+10	1
4902642	10	C	09/28/2024	03:30	-131.333	45.002	0	1830.10	0	2.1010	0	34.5730	0	27.631	0	1807.327	0	41.8	4	12.6	4	-1E+10	1	-1E+10	1	-1E+10	1	-1E+10	1	-1E+10	1	-1E+10	1
4902642	10	C	09/28/2024	03:30	-131.333	45.002	0	1849.90	0	2.0840	0	34.5760	0	27.635	0	1826.796	0	43.0	4	13.0	4	-1E+10	1	-1E+10	1	-1E+10	1	-1E+10	1	-1E+10	1	-1E+10	1
4902642	10	C	09/28/2024	03:30	-131.333	45.002	0	1870.10	0	2.0680	0	34.5780	0	27.638	0	1846.656	0	44.1	4	13.3	4	-1E+10	1	-1E+10	1	-1E+10	1	-1E+10	1	-1E+10	1	-1E+10	1
4902642	10	C	09/28/2024	03:30	-131.333	45.002	0	1889.90	0	2.0550	0	34.5800	0	27.641	0	1866.121	0	44.9	4	13.6	4	-1E+10	1	-1E+10	1	-1E+10	1	-1E+10	1	-1E+10	1	-1E+10	1
4902642	10	C	09/28/2024	03:30	-131.333	45.002	0	1910.50	0	2.0330	0	34.5830	0	27.645	0	1886.370	0	46.3	4	14.0	4	-1E+10	1	-1E+10	1	-1E+10	1	-1E+10	1	-1E+10	1	-1E+10	1
4902642	10	C	09/28/2024	03:30	-131.333	45.002	0	1929.80	0	2.0140	0	34.5860	0	27.649	0	1905.340	0	47.6	4	14.4	4	-1E+10	1	-1E+10	1	-1E+10	1	-1E+10	1	-1E+10	1	-1E+10	1
4902642	10	C	09/28/2024	03:30	-131.333	45.002	0	1950.00	0	2.0000	0	34.5890	0	27.653	0	1925.193	0	48.6	4	14.7	4	-1E+10	1	-1E+10	1	-1E+10	1	-1E+10	1	-1E+10	1	-1E+10	1
4902642	10	C	09/28/2024	03:30	-131.333	45.002	0	1970.20	0	1.9820	0	34.5910	0	27.656	0	1945.044	0	49.8	4	15.0	4	-1E+10	1	-1E+10	1	-1E+10	1	-1E+10	1	-1E+10	1	-1E+10	1
4902642	10	C	09/28/2024	03:30	-131.333	45.002	0	1990.00	0	1.9630	0	34.5940	0	27.660	0	1964.500	0	51.0	4	15.4	4	-1E+10	1	-1E+10	1	-1E+10	1	-1E+10	1	-1E+10	1	-1E+10	1
4902642	10	C	09/28/2024	03:30	-131.333	45.002	0	2010.00	0	1.9500	0	34.5960	4	27.663	0	1984.151	0	52.0	4	15.6	4	-1E+10	1	-1E+10	1	-1E+10	1	-1E+10	1	-1E+10	1	-1E+10	1
4902642	10	C	09/28/2024	03:30	-131.333	45.002	0	2029.90	0	1.9390	0	34.5980	4	27.665	0	2003.701	0	52.9	4	15.9	4	-1E+10	1	-1E+10	1	-1E+10	1	-1E+10	1	-1E+10	1	-1E+10	1
4902642	10	C	09/28/2024	03:30	-131.333	45.002	0	2050.40	0	1.9270	0	34.6000	4	27.668	0	2023.839	0	53.7	4	16.2	4	-1E+10	1	-1E+10	1	-1E+10	1	-1E+10	1	-1E+10	1	-1E+10	1
4902642	10	C	09/28/2024	03:30	-131.333	45.002	0	2070.00	0	1.9130	0	34.6020	4	27.671	0	2043.092	0	54.7	4	16.5	4	-1E+10	1	-1E+10	1	-1E+10	1	-1E+10	1	-1E+10	1	-1E+10	1
4902642	10	C	09/28/2024	03:30	-131.333	45.002	0	2090.10	0	1.9040	0	34.6030	4	27.672	0	2062.833	0	55.5	4	16.7	4	-1E+10	1	-1E+10	1	-1E+10	1	-1E+10	1	-1E+10	1	-1E+10	1
4902642	10	C	09/28/2024	03:30	-131.333	45.002	0	2110.00	0	1.8970	0	34.6050	4	27.674	0	2082.377	0	56.1	4	16.9	4	-1E+10	1	-1E+10	1	-1E+10	1	-1E+10	1	-1E+10	1	-1E+10	1
4902642	10	C	09/28/2024	03:30	-131.333	45.002	0	2130.10	0	1.8890	0	34.6060	4	27.676	0	2102.115	0	56.8	4	17.1	4	-1E+10	1	-1E+10	1	-1E+10	1	-1E+10	1	-1E+10	1	-1E+10	1
4902642	10	C	09/28/2024	03:30	-131.333	45.002	0	2149.90	0	1.8830	0	34.6070	4	27.677	0	2121.556	0	57.5	4	17.3	4	-1E+10	1	-1E+10	1	-1E+10	1	-1E+10	1	-1E+10	1	-1E+10	1
4902642	10	C	09/28/2024	03:30	-131.333	45.002	0	2169.80	0	1.8760	0	34.6090	4	27.680	0	2141.094	0	58.1	4	17.5	4	-1E+10	1	-1E+10	1	-1E+10	1	-1E+10	1	-1E+10	1	-1E+10	1
4902642	10	C	09/28/2024	03:30	-131.333	45.002	0	2190.10	0	1.8700	0	34.6100	4	27.681	0	2161.023	0	58.7	4	17.6	4	-1E+10	1	-1E+10	1	-1E+10	1	-1E+10	1	-1E+10	1	-1E+10	1
4902642	10	C	09/28/2024	03:30	-131.333	45.002	0	2210.20	0	1.8640	0	34.6110	4	27.682	0	2180.754	0	59.2	4	17.8	4	-1E+10	1	-1E+10	1	-1E+10	1	-1E+10	1	-1E+10	1	-1E+10	1
4902642	10	C	09/28/2024	03:30	-131.333	45.002	0	2230.80	0	1.8580	0	34.6120	4	27.684	0	2200.974	0	59.8	4	18.0	4	-1E+10	1	-1E+10	1	-1E+10	1	-1E+10	1	-1E+10	1	-1E+10	1
4902642	10	C	09/28/2024	03:30	-131.333	45.002	0	2249.90	0	1.8520	0	34.6130	4	27.685	0	2219.719	0	60.5	4	18.2	4	-1E+10	1	-1E+10	1	-1E+10	1	-1E+10	1	-1E+10	1	-1E+10	1
4902642	10	C	09/28/2024	03:30	-131.333	45.002	0	2269.80	0	1.8470	0	34.6140	4	27.686	0	2239.248	0	60.9	4	18.3	4	-1E+10	1	-1E+10	1	-1E+10	1	-1E+10	1	-1E+10	1	-1E+10	1
4902642	10	C	09/28/2024	03:30	-131.333	45.002	0	2290.00	0	1.8440	0	34.6150	4	27.688	0	2259.070	0	61.3	4	18.4	4	-1E+10	1	-1E+10	1	-1E+10	1	-1E+10	1	-1E+10	1	-1E+10	1
4902642	10	C	09/28/2024	03:30	-131.333	45.002	0	2309.90	0	1.8390	0	34.6160	4	27.689	0	2278.595	0	61.8	4	18.6	4	-1E+10	1	-1E+10	1	-1E+10	1	-1E+10	1	-1E+10	1	-1E+10	1
4902642	10	C	09/28/2024	03:30	-131.333	45.002	0	2330.40	0	1.8350	0	34.6170	4	27.690	0	2298.708	0	62.4	4	18.7	4	-1E+10	1	-1E+10	1	-1E+10	1	-1E+10	1	-1E+10	1	-1E+10	1
4902642	10	C	09/28/2024	03:30	-131.333	45.002	0	2350.00	0	1.8290	0	34.6180	4	27.691	0	2317.935	0	63.0	4	18.9	4	-1E+10	1	-1E+10	1	-1E+10	1	-1E+10	1	-1E+10	1	-1E+10	1
4902642	10	C	09/28/2024	03:30	-131.333	45.002	0	2369.90	0	1.8260	0	34.6190	4	27.693	0	2337.455	0	63.4	4	19.0	4	-1E+10	1	-1E+10	1	-1E+10	1	-1E+10	1	-1E+10	1	-1E+10	1
4902642	10	C	09/28/2024	03:30	-131.333	45.002	0	2390.20	0	1.8230	0	34.6200	4	27.694	0	2357.366	0	63.8	4	19.2	4	-1E+10	1	-1E+10	1	-1E+10	1	-1E+10	1	-1E+10	1	-1E+10	1
4902642	10	C	09/28/2024	03:30	-131.333	45.002	0	2410.20	0	1.8200	0	34.6200	4	27.694	0	2376.980	0	64.3	4	19.3	4	-1E+10	1	-1E+10	1	-1E+10	1	-1E+10	1	-1E+10	1	-1E+10	1
4902642	10	C	09/28/2024	03:30	-131.333	45.002	0	2430.00	0	1.8170	0	34.6210	4	27.695	0	2396.397	0	64.7	4	19.4	4	-1E+10	1	-1E+10	1	-1E+10	1	-1E+10	1	-1E+10	1	-1E+10	1
4902642	10	C	09/28/2024	03:30	-131.333	45.002	0	2449.60	0	1.8110	0	34.6220	4	27.697	0	2415.616	0	65.3	4	19.6	4	-1E+10	1	-1E+10	1	-1E+10	1	-1E+10	1	-1E+10	1	-1E+10	1
4902642	10	C	09/28/2024	03:30	-131.333	45.002	0	2469.90	0	1.8070	0	34.6220	4	27.697	0	2435.519	0	65.8	4	19.8	4	-1E+10	1	-1E+10	1	-1E+10	1	-1E+10	1	-1E+10	1	-1E+10	1
4902642	10	C	09/28/2024	03:30	-131.333	45.002	0	2490.70	0	1.8030	0	34.6240	4	27.699	0	2455.911	0	66.4	4	19.9	4	-1E+10	1	-1E+10	1	-1E+10	1	-1E+10	1	-1E+10	1	-1E+10	1
4902642	10	C	09/28/2024	03:30	-131.333	45.002	0	2510.30	0	1.7950	0	34.6250	4	27.701	0	2475.124	0	67.1	4	20.1	4	-1E+10	1	-1E+10	1	-1E+10	1	-1E+10	1	-1E+10	1	-1E+10	1
4902642	10	C	09/28/2024	03:30	-131.333	45.002	0	2530.00	0	1.7900	0	34.6260	4	27.702	0	2494.434	0	67.8	4	20.3	4	-1E+10	1	-1E+10	1	-1E+10	1	-1E+10	1	-1E+10	1	-1E+10	1
4902642	10	C	09/28/2024	03:30	-131.333	45.002	0	2549.90	0	1.7840	0	34.6260	4	27.702	0	2513.938	0	68.6	4	20.6	4	-1E+10	1	-1E+10	1	-1E+10	1	-1E+10	1	-1E+10	1	-1E+10	1
4902642	10	C	09/28/2024	03:30	-131.333	45.002	0	2569.90	0	1.7750	0	34.6280	4	27.705	0	2533.538	0	69.5	4	20.9	4	-1E+10	1	-1E+10	1	-1E+10	1	-1E+10	1	-1E+10	1	-1E+10	1
4902642	10	C	09/28/2024	03:30	-131.333	45.002	0	2590.00	0	1.7680	0	34.6290	4	27.706	0	2553.235	0	70.3	4	21.1	4	-1E+10	1	-1E+10	1	-1E+10	1	-1E+10	1	-1E+10	1	-1E+10	1
4902642	10	C	09/28/2024	03:30	-131.333	45.002	0	2610.00	0	1.7630	0	34.6300	4	27.708	0	2572.832	0	70.9	4	21.3	4	-1E+10	1	-1E+10	1	-1E+10	1	-1E+10	1	-1E+10	1	-1E+10	1
4902642	10	C	09/28/2024	03:30	-131.333	45.002	0	2629.80	0	1.7580	0	34.6310	4	27.709	0	2592.231	0	71.6	4	21.5	4	-1E+10	1	-1E+10	1	-1E+10	1	-1E+10	1	-1E+10	1	-1E+10	1
4902642	10	C	09/28/2024	03:30	-131.333	45.002	0	2650.00	0	1.7510	0	34.6320	4	27.710	0	2612.020	0	72.3	4	21.7	4	-1E+10	1	-1E+10	1	-1E+10	1	-1E+10	1	-1E+10	1	-1E+10	1
4902642	10	C	09/28/2024	03:30	-131.333	45.002	0	2670.20	0	1.7460	0	34.6320	4	27.711	0	2631.807	0	73.0	4	21.9	4	-1E+10	1	-1E+10	1	-1E+10	1	-1E+10	1	-1E+10	1	-1E+10	1
4902642	10	C	09/28/2024	03:30	-131.333	45.002	0	2690.30	0	1.7390	0	34.6340	4	27.713	0	2651.494	0	73.7	4	22.1	4	-1E+10	1	-1E+10	1	-1E+10	1	-1E+10	1	-1E+10	1	-1E+10	1
4902642	10	C	09/28/2024	03:30	-131.333	45.002	0	2709.90	0	1.7330	0	34.6340	4	27.714	0	2670.690	0	74.6	4	22.3	4	-1E+10	1	-1E+10	1	-1E+10	1	-1E+10	1	-1E+10	1	-1E+10	1
4902642	10	C	09/28/2024	03:30	-131.333	45.002	0	2730.10	0	1.7210	0	34.6360	4	27.716	0	2690.472	0	75.6	4	22.6	4	-1E+10	1	-1E+10	1	-1E+10	1	-1E+10	1	-1E+10	1	-1E+10	1
4902642	10	C	09/28/2024	03:30	-131.333	45.002	0	2750.00	0	1.7160	0	34.6370	4	27.718	0	2709.959	0	76.2	4	22.8	4	-1E+10	1	-1E+10	1	-1E+10	1	-1E+10	1	-1E+10	1	-1E+10	1
4902642	10	C	09/28/2024	03:30	-131.333	45.002	0	2769.70	0	1.7110	0	34.6370	4	27.718	0	2729.247	0	76.8	4	23.0	4	-1E+10	1	-1E+10	1	-1E+10	1	-1E+10	1	-1E+10	1	-1E+10	1
4902642	10	C	09/28/2024	03:30	-131.333	45.002	0	2789.60	0	1.7030	0	34.6390	4	27.720	0	2748.730	0	77.8	4	23.3	4	-1E+10	1	-1E+10	1	-1E+10	1	-1E+10	1	-1E+10	1	-1E+10	1
4902642	10	C	09/28/2024	03:30	-131.333	45.002	0	2809.90	0	1.6940	0	34.6400	4	27.722	0	2768.603	0	78.7	4	23.6	4	-1E+10	1	-1E+10	1	-1E+10	1	-1E+10	1	-1E+10	1	-1E+10	1
4902642	10	C	09/28/2024	03:30	-131.333	45.002	0	2830.40	0	1.6870	0	34.6410	4	27.723	0	2788.669	0	79.5	4	23.8	4	-1E+10	1	-1E+10	1	-1E+10	1	-1E+10	1	-1E+10	1	-1E+10	1
4902642	10	C	09/28/2024	03:30	-131.333	45.002	0	2849.90	0	1.6820	0	34.6420	4	27.725	0	2807.755	0	80.4	4	24.1	4	-1E+10	1	-1E+10	1	-1E+10	1	-1E+10	1	-1E+10	1	-1E+10	1
4902642	10	C	09/28/2024	03:30	-131.333	45.002	0	2869.70	0	1.6750	0	34.6430	4	27.726	0	2827.133	0	81.2	4	24.3	4	-1E+10	1	-1E+10	1	-1E+10	1	-1E+10	1	-1E+10	1	-1E+10	1
4902642	10	C	09/28/2024	03:30	-131.333	45.002	0	2889.60	0	1.6690	0	34.6440	4	27.727	0	2846.607	0	82.2	4	24.6	4	-1E+10	1	-1E+10	1	-1E+10	1	-1E+10	1	-1E+10	1	-1E+10	1
4902642	10	C	09/28/2024	03:30	-131.333	45.002	0	2909.70	0	1.6570	0	34.6450	4	27.729	0	2866.275	0	83.4	4	24.9	4	-1E+10	1	-1E+10	1	-1E+10	1	-1E+10	1	-1E+10	1	-1E+10	1
4902642	10	C	09/28/2024	03:30	-131.333	45.002	0	2929.80	0	1.6480	0	34.6460	4	27.731	0	2885.941	0	84.3	4	25.2	4	-1E+10	1	-1E+10	1	-1E+10	1	-1E+10	1	-1E+10	1	-1E+10	1
4902642	10	C	09/28/2024	03:30	-131.333	45.002	0	2950.00	0	1.6400	0	34.6470	4	27.732	0	2905.703	0	85.3	4	25.5	4	-1E+10	1	-1E+10	1	-1E+10	1	-1E+10	1	-1E+10	1	-1E+10	1
4902642	10	C	09/28/2024	03:30	-131.333	45.002	0	2969.60	0	1.6330	0	34.6480	4	27.734	0	2924.877	0	86.1	4	25.7	4	-1E+10	1	-1E+10	1	-1E+10	1	-1E+10	1	-1E+10	1	-1E+10	1
4902642	10	C	09/28/2024	03:30	-131.333	45.002	0	2989.70	0	1.6250	0	34.6490	4	27.735	0	2944.537	0	87.2	4	26.0	4	-1E+10	1	-1E+10	1	-1E+10	1	-1E+10	1	-1E+10	1	-1E+10	1
4902642	10	C	09/28/2024	03:30	-131.333	45.002	0	3010.00	0	1.6190	0	34.6510	4	27.737	0	2964.392	0	88.0	4	26.3	4	-1E+10	1	-1E+10	1	-1E+10	1	-1E+10	1	-1E+10	1	-1E+10	1
4902642	10	C	09/28/2024	03:30	-131.333	45.002	0	3030.10	0	1.6150	0	34.6510	4	27.738	0	2984.049	0	88.6	4	26.5	4	-1E+10	1	-1E+10	1	-1E+10	1	-1E+10	1	-1E+10	1	-1E+10	1
4902642	10	C	09/28/2024	03:30	-131.333	45.002	0	3050.00	0	1.6090	0	34.6520	4	27.739	0	3003.509	0	89.3	4	26.7	4	-1E+10	1	-1E+10	1	-1E+10	1	-1E+10	1	-1E+10	1	-1E+10	1
4902642	10	C	09/28/2024	03:30	-131.333	45.002	0	3069.80	0	1.6050	0	34.6530	4	27.740	0	3022.870	0	90.1	4	26.9	4	-1E+10	1	-1E+10	1	-1E+10	1	-1E+10	1	-1E+10	1	-1E+10	1
4902642	10	C	09/28/2024	03:30	-131.333	45.002	0	3090.20	0	1.5970	0	34.6540	4	27.742	0	3042.815	0	91.3	4	27.3	4	-1E+10	1	-1E+10	1	-1E+10	1	-1E+10	1	-1E+10	1	-1E+10	1
4902642	10	C	09/28/2024	03:30	-131.333	45.002	0	3109.80	0	1.5880	0	34.6560	4	27.744	0	3061.976	0	92.3	4	27.6	4	-1E+10	1	-1E+10	1	-1E+10	1	-1E+10	1	-1E+10	1	-1E+10	1
4902642	10	C	09/28/2024	03:30	-131.333	45.002	0	3129.80	0	1.5840	0	34.6560	4	27.745	0	3081.527	0	93.0	4	27.8	4	-1E+10	1	-1E+10	1	-1E+10	1	-1E+10	1	-1E+10	1	-1E+10	1
4902642	10	C	09/28/2024	03:30	-131.333	45.002	0	3149.60	0	1.5800	0	34.6570	4	27.746	0	3100.880	0	93.7	4	28.0	4	-1E+10	1	-1E+10	1	-1E+10	1	-1E+10	1	-1E+10	1	-1E+10	1
4902642	10	C	09/28/2024	03:30	-131.333	45.002	0	3169.70	0	1.5750	0	34.6580	4	27.747	0	3120.525	0	94.4	4	28.2	4	-1E+10	1	-1E+10	1	-1E+10	1	-1E+10	1	-1E+10	1	-1E+10	1
4902642	10	C	09/28/2024	03:30	-131.333	45.002	0	3183.50	0	1.5700	0	34.6590	4	27.748	0	3134.012	0	95.2	4	28.4	4	-1E+10	1	-1E+10	1	-1E+10	1	-1E+10	1	-1E+10	1	-1E+10	1
4902642	10	C	09/28/2024	03:30	-131.333	45.002	0	3187.70	0	1.5690	0	34.6590	4	27.749	0	3138.116	0	95.5	4	28.5	4	-1E+10	1	-1E+10	1	-1E+10	1	-1E+10	1	-1E+10	1	-1E+10	1
4902642	10	C	09/28/2024	03:30	-131.333	45.002	0	3188.70	0	1.5680	0	34.6590	4	27.749	0	3139.093	0	95.6	4	28.5	4	-1E+10	1	-1E+10	1	-1E+10	1	-1E+10	1	-1E+10	1	-1E+10	1
4902642	10	C	09/28/2024	03:30	-131.333	45.002	0	3189.60	0	1.5670	0	34.6600	4	27.750	0	3139.973	0	95.6	4	28.5	4	-1E+10	1	-1E+10	1	-1E+10	1	-1E+10	1	-1E+10	1	-1E+10	1
4902642	10	C	09/28/2024	03:30	-131.333	45.002	0	3190.50	0	1.5660	0	34.6600	4	27.750	0	3140.852	0	95.6	4	28.5	4	-1E+10	1	-1E+10	1	-1E+10	1	-1E+10	1	-1E+10	1	-1E+10	1
4902642	10	C	09/28/2024	03:30	-131.333	45.002	0	3191.40	0	1.5660	0	34.6600	4	27.750	0	3141.732	0	95.7	4	28.6	4	-1E+10	1	-1E+10	1	-1E+10	1	-1E+10	1	-1E+10	1	-1E+10	1
4902642	10	C	09/28/2024	03:30	-131.333	45.002	0	3192.40	0	1.5660	0	34.6600	4	27.750	0	3142.709	0	95.7	4	28.6	4	-1E+10	1	-1E+10	1	-1E+10	1	-1E+10	1	-1E+10	1	-1E+10	1
4902642	10	C	09/28/2024	03:30	-131.333	45.002	0	3193.40	0	1.5660	0	34.6600	4	27.750	0	3143.686	0	95.8	4	28.6	4	-1E+10	1	-1E+10	1	-1E+10	1	-1E+10	1	-1E+10	1	-1E+10	1
4902642	10	C	09/28/2024	03:30	-131.333	45.002	0	3194.30	0	1.5660	0	34.6600	4	27.750	0	3144.566	0	95.8	4	28.6	4	-1E+10	1	-1E+10	1	-1E+10	1	-1E+10	1	-1E+10	1	-1E+10	1
4902642	10	C	09/28/2024	03:30	-131.333	45.002	0	3195.20	0	1.5650	0	34.6600	4	27.750	0	3145.445	0	95.8	4	28.6	4	-1E+10	1	-1E+10	1	-1E+10	1	-1E+10	1	-1E+10	1	-1E+10	1
4902642	10	C	09/28/2024	03:30	-131.333	45.002	0	3196.20	0	1.5650	0	34.6600	4	27.750	0	3146.422	0	95.8	4	28.6	4	-1E+10	1	-1E+10	1	-1E+10	1	-1E+10	1	-1E+10	1	-1E+10	1
4902642	10	C	09/28/2024	03:30	-131.333	45.002	0	3197.10	0	1.5650	0	34.6600	4	27.750	0	3147.302	0	95.9	4	28.6	4	-1E+10	1	-1E+10	1	-1E+10	1	-1E+10	1	-1E+10	1	-1E+10	1
4902642	10	C	09/28/2024	03:30	-131.333	45.002	0	3198.50	0	1.5640	0	34.6600	4	27.750	0	3148.670	0	95.9	4	28.6	4	-1E+10	1	-1E+10	1	-1E+10	1	-1E+10	1	-1E+10	1	-1E+10	1
4902642	10	C	09/28/2024	03:30	-131.333	45.002	0	3200.00	0	1.5640	0	34.6600	4	27.750	0	3150.136	0	95.9	4	28.6	4	-1E+10	1	-1E+10	1	-1E+10	1	-1E+10	1	-1E+10	1	-1E+10	1
4902642	10	C	09/28/2024	03:30	-131.333	45.002	0	3200.90	0	1.5640	0	34.6600	4	27.750	0	3151.015	0	95.9	4	28.6	4	-1E+10	1	-1E+10	1	-1E+10	1	-1E+10	1	-1E+10	1	-1E+10	1
4902642	10	C	09/28/2024	03:30	-131.333	45.002	0	3201.90	0	1.5640	0	34.6600	4	27.750	0	3151.992	0	96.0	4	28.6	4	-1E+10	1	-1E+10	1	-1E+10	1	-1E+10	1	-1E+10	1	-1E+10	1
4902642	10	C	09/28/2024	03:30	-131.333	45.002	0	3202.90	0	1.5640	0	34.6600	4	27.750	0	3152.969	0	96.0	4	28.7	4	-1E+10	1	-1E+10	1	-1E+10	1	-1E+10	1	-1E+10	1	-1E+10	1
4902642	10	C	09/28/2024	03:30	-131.333	45.002	0	3203.80	0	1.5640	0	34.6610	4	27.751	0	3153.849	0	96.1	4	28.7	4	-1E+10	1	-1E+10	1	-1E+10	1	-1E+10	1	-1E+10	1	-1E+10	1
4902642	10	C	09/28/2024	03:30	-131.333	45.002	0	3204.80	0	1.5630	0	34.6610	4	27.751	0	3154.826	0	96.1	4	28.7	4	-1E+10	1	-1E+10	1	-1E+10	1	-1E+10	1	-1E+10	1	-1E+10	1
4902642	10	C	09/28/2024	03:30	-131.333	45.002	0	3205.80	0	1.5630	0	34.6600	4	27.750	0	3155.803	0	96.2	4	28.7	4	-1E+10	1	-1E+10	1	-1E+10	1	-1E+10	1	-1E+10	1	-1E+10	1
4902642	10	C	09/28/2024	03:30	-131.333	45.002	0	3206.70	0	1.5630	0	34.6610	4	27.751	0	3156.683	0	96.1	4	28.7	4	-1E+10	1	-1E+10	1	-1E+10	1	-1E+10	1	-1E+10	1	-1E+10	1
4902642	10	C	09/28/2024	03:30	-131.333	45.002	0	3207.70	0	1.5630	0	34.6600	4	27.750	0	3157.660	0	96.3	4	28.7	4	-1E+10	1	-1E+10	1	-1E+10	1	-1E+10	1	-1E+10	1	-1E+10	1
4902642	10	C	09/28/2024	03:30	-131.333	45.002	0	3208.70	0	1.5630	0	34.6610	4	27.751	0	3158.637	0	96.3	4	28.7	4	-1E+10	1	-1E+10	1	-1E+10	1	-1E+10	1	-1E+10	1	-1E+10	1
4902642	10	C	09/28/2024	03:30	-131.333	45.002	0	3209.60	0	1.5620	0	34.6600	4	27.750	0	3159.516	0	96.3	4	28.7	4	-1E+10	1	-1E+10	1	-1E+10	1	-1E+10	1	-1E+10	1	-1E+10	1
4902642	10	C	09/28/2024	03:30	-131.333	45.002	0	3210.70	0	1.5620	0	34.6610	4	27.751	0	3160.591	0	96.3	4	28.7	4	-1E+10	1	-1E+10	1	-1E+10	1	-1E+10	1	-1E+10	1	-1E+10	1
4902642	10	C	09/28/2024	03:30	-131.333	45.002	0	3211.50	0	1.5610	0	34.6610	4	27.751	0	3161.373	0	96.3	4	28.7	4	-1E+10	1	-1E+10	1	-1E+10	1	-1E+10	1	-1E+10	1	-1E+10	1
4902642	10	C	09/28/2024	03:30	-131.333	45.002	0	3213.00	0	1.5610	0	34.6610	4	27.751	0	3162.839	0	96.4	4	28.7	4	-1E+10	1	-1E+10	1	-1E+10	1	-1E+10	1	-1E+10	1	-1E+10	1
4902642	10	C	09/28/2024	03:30	-131.333	45.002	0	3213.80	0	1.5610	0	34.6610	4	27.751	0	3163.620	0	96.4	4	28.8	4	-1E+10	1	-1E+10	1	-1E+10	1	-1E+10	1	-1E+10	1	-1E+10	1
4902642	10	C	09/28/2024	03:30	-131.333	45.002	0	3214.60	0	1.5610	0	34.6610	4	27.751	0	3164.402	0	96.4	4	28.8	4	-1E+10	1	-1E+10	1	-1E+10	1	-1E+10	1	-1E+10	1	-1E+10	1
4902642	10	C	09/28/2024	03:30	-131.333	45.002	0	3215.30	0	1.5610	0	34.6610	4	27.751	0	3165.086	0	96.4	4	28.8	4	-1E+10	1	-1E+10	1	-1E+10	1	-1E+10	1	-1E+10	1	-1E+10	1
4902642	10	C	09/28/2024	03:30	-131.333	45.002	0	3216.50	0	1.5600	0	34.6610	4	27.751	0	3166.259	0	96.5	4	28.8	4	-1E+10	1	-1E+10	1	-1E+10	1	-1E+10	1	-1E+10	1	-1E+10	1
4902642	10	C	09/28/2024	03:30	-131.333	45.002	0	3217.70	0	1.5600	0	34.6610	4	27.751	0	3167.431	0	96.5	4	28.8	4	-1E+10	1	-1E+10	1	-1E+10	1	-1E+10	1	-1E+10	1	-1E+10	1
4902642	10	C	09/28/2024	03:30	-131.333	45.002	0	3218.50	0	1.5600	0	34.6610	4	27.751	0	3168.213	0	96.6	4	28.8	4	-1E+10	1	-1E+10	1	-1E+10	1	-1E+10	1	-1E+10	1	-1E+10	1
4902642	10	C	09/28/2024	03:30	-131.333	45.002	0	3219.60	0	1.5600	0	34.6610	4	27.751	0	3169.288	0	96.6	4	28.8	4	-1E+10	1	-1E+10	1	-1E+10	1	-1E+10	1	-1E+10	1	-1E+10	1
4902642	10	C	09/28/2024	03:30	-131.333	45.002	0	3220.90	0	1.5600	0	34.6610	4	27.751	0	3170.558	0	96.7	4	28.8	4	-1E+10	1	-1E+10	1	-1E+10	1	-1E+10	1	-1E+10	1	-1E+10	1
4902642	10	C	09/28/2024	03:30	-131.333	45.002	0	3221.60	0	1.5590	0	34.6610	4	27.751	0	3171.242	0	96.7	4	28.8	4	-1E+10	1	-1E+10	1	-1E+10	1	-1E+10	1	-1E+10	1	-1E+10	1
4902642	10	C	09/28/2024	03:30	-131.333	45.002	0	3222.40	0	1.5580	0	34.6620	4	27.752	0	3172.023	0	96.8	4	28.9	4	-1E+10	1	-1E+10	1	-1E+10	1	-1E+10	1	-1E+10	1	-1E+10	1
4902642	10	C	09/28/2024	03:30	-131.333	45.002	0	3223.60	0	1.5580	0	34.6610	4	27.751	0	3173.196	0	96.7	4	28.9	4	-1E+10	1	-1E+10	1	-1E+10	1	-1E+10	1	-1E+10	1	-1E+10	1
4902642	10	C	09/28/2024	03:30	-131.333	45.002	0	3224.80	0	1.5590	0	34.6610	4	27.751	0	3174.368	0	96.8	4	28.9	4	-1E+10	1	-1E+10	1	-1E+10	1	-1E+10	1	-1E+10	1	-1E+10	1
4902642	10	C	09/28/2024	03:30	-131.333	45.002	0	3225.60	0	1.5580	0	34.6620	4	27.752	0	3175.150	0	96.8	4	28.9	4	-1E+10	1	-1E+10	1	-1E+10	1	-1E+10	1	-1E+10	1	-1E+10	1
4902642	10	C	09/28/2024	03:30	-131.333	45.002	0	3226.50	0	1.5580	0	34.6620	4	27.752	0	3176.029	0	96.8	4	28.9	4	-1E+10	1	-1E+10	1	-1E+10	1	-1E+10	1	-1E+10	1	-1E+10	1
4902642	10	C	09/28/2024	03:30	-131.333	45.002	0	3227.60	0	1.5570	0	34.6620	4	27.752	0	3177.104	0	96.8	4	28.9	4	-1E+10	1	-1E+10	1	-1E+10	1	-1E+10	1	-1E+10	1	-1E+10	1
4902642	10	C	09/28/2024	03:30	-131.333	45.002	0	3228.80	0	1.5570	0	34.6620	4	27.752	0	3178.277	0	96.8	4	28.9	4	-1E+10	1	-1E+10	1	-1E+10	1	-1E+10	1	-1E+10	1	-1E+10	1
4902642	10	C	09/28/2024	03:30	-131.333	45.002	0	3229.50	0	1.5570	0	34.6620	4	27.752	0	3178.961	0	96.8	4	28.9	4	-1E+10	1	-1E+10	1	-1E+10	1	-1E+10	1	-1E+10	1	-1E+10	1
4902642	10	C	09/28/2024	03:30	-131.333	45.002	0	3230.60	0	1.5570	0	34.6620	4	27.752	0	3180.035	0	96.9	4	28.9	4	-1E+10	1	-1E+10	1	-1E+10	1	-1E+10	1	-1E+10	1	-1E+10	1
4902642	10	C	09/28/2024	03:30	-131.333	45.002	0	3232.30	0	1.5570	0	34.6620	4	27.752	0	3181.696	0	96.8	4	28.9	4	-1E+10	1	-1E+10	1	-1E+10	1	-1E+10	1	-1E+10	1	-1E+10	1
4902642	10	C	09/28/2024	03:30	-131.333	45.002	0	3233.40	0	1.5570	0	34.6620	4	27.752	0	3182.771	0	96.8	4	28.9	4	-1E+10	1	-1E+10	1	-1E+10	1	-1E+10	1	-1E+10	1	-1E+10	1
4902642	10	C	09/28/2024	03:30	-131.333	45.002	0	3234.50	0	1.5570	0	34.6620	4	27.752	0	3183.846	0	96.8	4	28.9	4	-1E+10	1	-1E+10	1	-1E+10	1	-1E+10	1	-1E+10	1	-1E+10	1
4902642	10	C	09/28/2024	03:30	-131.333	45.002	0	3235.50	0	1.5570	0	34.6620	4	27.752	0	3184.823	0	96.8	4	28.9	4	-1E+10	1	-1E+10	1	-1E+10	1	-1E+10	1	-1E+10	1	-1E+10	1
4902642	10	C	09/28/2024	03:30	-131.333	45.002	0	3236.60	0	1.5570	0	34.6620	4	27.752	0	3185.898	0	96.8	4	28.9	4	-1E+10	1	-1E+10	1	-1E+10	1	-1E+10	1	-1E+10	1	-1E+10	1
4902642	10	C	09/28/2024	03:30	-131.333	45.002	0	3237.40	0	1.5570	0	34.6620	4	27.752	0	3186.679	0	97.0	4	28.9	4	-1E+10	1	-1E+10	1	-1E+10	1	-1E+10	1	-1E+10	1	-1E+10	1
4902642	10	C	09/28/2024	03:30	-131.333	45.002	0																										
4902642	11	C	10/08/2024	03:54	-131.379	45.077	0	1.60	0	17.6650	0	32.5610	0	23.487	0	1.587	0	218.9	4	91.5	4	-1E+10	1	-1E+10	1	-1E+10	1	-1E+10	1	-1E+10	1	-1E+10	1
4902642	11	C	10/08/2024	03:54	-131.379	45.077	0	1.70	0	17.6630	0	32.5620	0	23.488	0	1.686	0	218.8	4	91.4	4	-1E+10	1	-1E+10	1	-1E+10	1	-1E+10	1	-1E+10	1	-1E+10	1
4902642	11	C	10/08/2024	03:54	-131.379	45.077	0	1.80	0	17.6645	0	32.5615	0	23.487	0	1.785	0	218.9	4	91.4	4	-1E+10	1	-1E+10	1	-1E+10	1	-1E+10	1	-1E+10	1	-1E+10	1
4902642	11	C	10/08/2024	03:54	-131.379	45.077	0	1.90	0	17.6655	0	32.5610	0	23.487	0	1.885	0	218.8	4	91.4	4	-1E+10	1	-1E+10	1	-1E+10	1	-1E+10	1	-1E+10	1	-1E+10	1
4902642	11	C	10/08/2024	03:54	-131.379	45.077	0	2.00	0	17.6660	0	32.5600	0	23.486	0	1.984	0	218.8	4	91.4	4	-1E+10	1	-1E+10	1	-1E+10	1	-1E+10	1	-1E+10	1	-1E+10	1
4902642	11	C	10/08/2024	03:54	-131.379	45.077	0	2.10	0	17.6635	0	32.5610	0	23.487	0	2.083	0	218.8	4	91.4	4	-1E+10	1	-1E+10	1	-1E+10	1	-1E+10	1	-1E+10	1	-1E+10	1
4902642	11	C	10/08/2024	03:54	-131.379	45.077	0	2.20	0	17.6620	0	32.5620	0	23.488	0	2.182	0	-1e10	1	-1e10	1	-1E+10	1	-1E+10	1	-1E+10	1	-1E+10	1	-1E+10	1	-1E+10	1
4902642	11	C	10/08/2024	03:54	-131.379	45.077	0	2.60	0	17.6690	0	32.5590	0	23.484	0	2.579	0	218.9	4	91.4	4	-1E+10	1	-1E+10	1	-1E+10	1	-1E+10	1	-1E+10	1	-1E+10	1
4902642	11	C	10/08/2024	03:54	-131.379	45.077	0	3.70	0	17.6690	0	32.5600	0	23.485	0	3.670	0	218.9	4	91.5	4	-1E+10	1	-1E+10	1	-1E+10	1	-1E+10	1	-1E+10	1	-1E+10	1
4902642	11	C	10/08/2024	03:54	-131.379	45.077	0	4.60	0	17.6660	0	32.5640	0	23.489	0	4.563	0	218.9	4	91.5	4	-1E+10	1	-1E+10	1	-1E+10	1	-1E+10	1	-1E+10	1	-1E+10	1
4902642	11	C	10/08/2024	03:54	-131.379	45.077	0	5.50	0	17.6660	0	32.5620	0	23.488	0	5.455	0	218.9	4	91.5	4	-1E+10	1	-1E+10	1	-1E+10	1	-1E+10	1	-1E+10	1	-1E+10	1
4902642	11	C	10/08/2024	03:54	-131.379	45.077	0	6.70	0	17.6650	0	32.5610	0	23.487	0	6.645	0	218.9	4	91.5	4	-1E+10	1	-1E+10	1	-1E+10	1	-1E+10	1	-1E+10	1	-1E+10	1
4902642	11	C	10/08/2024	03:54	-131.379	45.077	0	7.40	0	17.6590	0	32.5580	0	23.486	0	7.340	0	219.0	4	91.5	4	-1E+10	1	-1E+10	1	-1E+10	1	-1E+10	1	-1E+10	1	-1E+10	1
4902642	11	C	10/08/2024	03:54	-131.379	45.077	0	8.30	0	17.6530	0	32.5660	0	23.494	0	8.232	0	219.0	4	91.5	4	-1E+10	1	-1E+10	1	-1E+10	1	-1E+10	1	-1E+10	1	-1E+10	1
4902642	11	C	10/08/2024	03:54	-131.379	45.077	0	9.50	0	17.6350	0	32.5620	0	23.495	0	9.423	0	219.2	4	91.5	4	-1E+10	1	-1E+10	1	-1E+10	1	-1E+10	1	-1E+10	1	-1E+10	1
4902642	11	C	10/08/2024	03:54	-131.379	45.077	0	14.60	0	17.5540	0	32.5700	0	23.521	0	14.481	0	219.9	4	91.7	4	-1E+10	1	-1E+10	1	-1E+10	1	-1E+10	1	-1E+10	1	-1E+10	1
4902642	11	C	10/08/2024	03:54	-131.379	45.077	0	25.40	0	17.5260	0	32.5730	0	23.530	0	25.192	0	223.1	4	93.0	4	-1E+10	1	-1E+10	1	-1E+10	1	-1E+10	1	-1E+10	1	-1E+10	1
4902642	11	C	10/08/2024	03:54	-131.379	45.077	0	35.20	0	15.0670	0	32.5490	0	24.070	0	34.911	0	247.0	4	98.1	4	-1E+10	1	-1E+10	1	-1E+10	1	-1E+10	1	-1E+10	1	-1E+10	1
4902642	11	C	10/08/2024	03:54	-131.379	45.077	0	44.60	0	11.5330	0	32.5350	0	24.763	0	44.233	0	256.9	4	95.0	4	-1E+10	1	-1E+10	1	-1E+10	1	-1E+10	1	-1E+10	1	-1E+10	1
4902642	11	C	10/08/2024	03:54	-131.379	45.077	0	54.60	0	10.4540	0	32.5180	0	24.939	0	54.149	0	251.7	4	90.9	4	-1E+10	1	-1E+10	1	-1E+10	1	-1E+10	1	-1E+10	1	-1E+10	1
4902642	11	C	10/08/2024	03:54	-131.379	45.077	0	64.70	0	9.9680	0	32.5390	0	25.038	0	64.164	0	247.2	4	88.4	4	-1E+10	1	-1E+10	1	-1E+10	1	-1E+10	1	-1E+10	1	-1E+10	1
4902642	11	C	10/08/2024	03:54	-131.379	45.077	0	74.80	0	9.7710	0	32.5640	0	25.090	0	74.179	0	244.0	4	86.9	4	-1E+10	1	-1E+10	1	-1E+10	1	-1E+10	1	-1E+10	1	-1E+10	1
4902642	11	C	10/08/2024	03:54	-131.379	45.077	0	84.80	0	9.7280	0	32.6070	0	25.131	0	84.094	0	242.6	4	86.3	4	-1E+10	1	-1E+10	1	-1E+10	1	-1E+10	1	-1E+10	1	-1E+10	1
4902642	11	C	10/08/2024	03:54	-131.379	45.077	0	94.90	0	9.7100	0	32.6680	0	25.181	0	94.107	0	240.2	4	85.5	4	-1E+10	1	-1E+10	1	-1E+10	1	-1E+10	1	-1E+10	1	-1E+10	1
4902642	11	C	10/08/2024	03:54	-131.379	45.077	0	104.70	0	9.6130	0	32.7140	0	25.233	0	103.823	0	237.9	4	84.5	4	-1E+10	1	-1E+10	1	-1E+10	1	-1E+10	1	-1E+10	1	-1E+10	1
4902642	11	C	10/08/2024	03:54	-131.379	45.077	0	114.70	0	9.5080	0	32.7310	0	25.264	0	113.737	0	234.8	4	83.2	4	-1E+10	1	-1E+10	1	-1E+10	1	-1E+10	1	-1E+10	1	-1E+10	1
4902642	11	C	10/08/2024	03:54	-131.379	45.077	0	124.20	0	9.3200	0	32.7840	0	25.335	0	123.154	0	229.3	4	81.0	4	-1E+10	1	-1E+10	1	-1E+10	1	-1E+10	1	-1E+10	1	-1E+10	1
4902642	11	C	10/08/2024	03:54	-131.379	45.077	0	134.70	0	9.1480	0	32.8870	0	25.443	0	133.562	0	219.9	4	77.4	4	-1E+10	1	-1E+10	1	-1E+10	1	-1E+10	1	-1E+10	1	-1E+10	1
4902642	11	C	10/08/2024	03:54	-131.379	45.077	0	144.10	0	8.8960	0	33.0210	0	25.588	0	142.879	0	210.3	4	73.7	4	-1E+10	1	-1E+10	1	-1E+10	1	-1E+10	1	-1E+10	1	-1E+10	1
4902642	11	C	10/08/2024	03:54	-131.379	45.077	0	155.10	0	8.3470	0	33.2160	0	25.824	0	153.782	0	202.6	4	70.2	4	-1E+10	1	-1E+10	1	-1E+10	1	-1E+10	1	-1E+10	1	-1E+10	1
4902642	11	C	10/08/2024	03:54	-131.379	45.077	0	165.10	0	7.8330	0	33.3770	0	26.026	0	163.693	0	199.2	4	68.4	4	-1E+10	1	-1E+10	1	-1E+10	1	-1E+10	1	-1E+10	1	-1E+10	1
4902642	11	C	10/08/2024	03:54	-131.379	45.077	0	174.90	0	7.6510	0	33.4880	0	26.140	0	173.406	0	194.9	4	66.7	4	-1E+10	1	-1E+10	1	-1E+10	1	-1E+10	1	-1E+10	1	-1E+10	1
4902642	11	C	10/08/2024	03:54	-131.379	45.077	0	185.60	0	7.3030	0	33.5840	0	26.264	0	184.009	0	183.4	4	62.3	4	-1E+10	1	-1E+10	1	-1E+10	1	-1E+10	1	-1E+10	1	-1E+10	1
4902642	11	C	10/08/2024	03:54	-131.379	45.077	0	195.00	0	7.2190	0	33.6420	0	26.322	0	193.324	0	167.7	4	56.9	4	-1E+10	1	-1E+10	1	-1E+10	1	-1E+10	1	-1E+10	1	-1E+10	1
4902642	11	C	10/08/2024	03:54	-131.379	45.077	0	209.90	0	7.0710	0	33.7320	0	26.413	0	208.089	0	154.7	4	52.3	4	-1E+10	1	-1E+10	1	-1E+10	1	-1E+10	1	-1E+10	1	-1E+10	1
4902642	11	C	10/08/2024	03:54	-131.379	45.077	0	229.90	0	6.8230	0	33.7870	0	26.490	0	227.905	0	149.0	4	50.1	4	-1E+10	1	-1E+10	1	-1E+10	1	-1E+10	1	-1E+10	1	-1E+10	1
4902642	11	C	10/08/2024	03:54	-131.379	45.077	0	249.80	0	6.5370	0	33.8030	0	26.541	0	247.621	0	139.9	4	46.8	4	-1E+10	1	-1E+10	1	-1E+10	1	-1E+10	1	-1E+10	1	-1E+10	1
4902642	11	C	10/08/2024	03:54	-131.379	45.077	0	270.00	0	6.2240	0	33.8090	0	26.586	0	267.631	0	127.2	4	42.2	4	-1E+10	1	-1E+10	1	-1E+10	1	-1E+10	1	-1E+10	1	-1E+10	1
4902642	11	C	10/08/2024	03:54	-131.379	45.077	0	290.70	0	5.8840	0	33.8200	0	26.638	0	288.136	0	114.0	4	37.5	4	-1E+10	1	-1E+10	1	-1E+10	1	-1E+10	1	-1E+10	1	-1E+10	1
4902642	11	C	10/08/2024	03:54	-131.379	45.077	0	309.70	0	5.6160	0	33.8280	0	26.677	0	306.954	0	102.8	4	33.6	4	-1E+10	1	-1E+10	1	-1E+10	1	-1E+10	1	-1E+10	1	-1E+10	1
4902642	11	C	10/08/2024	03:54	-131.379	45.077	0	329.70	0	5.4280	0	33.8510	0	26.718	0	326.761	0	90.8	4	29.6	4	-1E+10	1	-1E+10	1	-1E+10	1	-1E+10	1	-1E+10	1	-1E+10	1
4902642	11	C	10/08/2024	03:54	-131.379	45.077	0	349.90	0	5.2960	0	33.8790	0	26.756	0	346.764	0	79.3	4	25.8	4	-1E+10	1	-1E+10	1	-1E+10	1	-1E+10	1	-1E+10	1	-1E+10	1
4902642	11	C	10/08/2024	03:54	-131.379	45.077	0	369.90	0	5.1190	0	33.8980	0	26.791	0	366.567	0	70.3	4	22.8	4	-1E+10	1	-1E+10	1	-1E+10	1	-1E+10	1	-1E+10	1	-1E+10	1
4902642	11	C	10/08/2024	03:54	-131.379	45.077	0	389.60	0	5.0300	0	33.9170	0	26.817	0	386.071	0	62.6	4	20.2	4	-1E+10	1	-1E+10	1	-1E+10	1	-1E+10	1	-1E+10	1	-1E+10	1
4902642	11	C	10/08/2024	03:54	-131.379	45.077	0	409.60	0	4.9400	0	33.9350	0	26.841	0	405.870	0	57.2	4	18.4	4	-1E+10	1	-1E+10	1	-1E+10	1	-1E+10	1	-1E+10	1	-1E+10	1
4902642	11	C	10/08/2024	03:54	-131.379	45.077	0	429.70	0	4.8410	0	33.9540	0	26.868	0	425.767	0	51.1	4	16.4	4	-1E+10	1	-1E+10	1	-1E+10	1	-1E+10	1	-1E+10	1	-1E+10	1
4902642	11	C	10/08/2024	03:54	-131.379	45.077	0	449.80	0	4.7960	0	33.9790	0	26.893	0	445.661	0	45.8	4	14.7	4	-1E+10	1	-1E+10	1	-1E+10	1	-1E+10	1	-1E+10	1	-1E+10	1
4902642	11	C	10/08/2024	03:54	-131.379	45.077	0	469.60	0	4.7440	0	33.9950	0	26.911	0	465.257	0	41.7	4	13.4	4	-1E+10	1	-1E+10	1	-1E+10	1	-1E+10	1	-1E+10	1	-1E+10	1
4902642	11	C	10/08/2024	03:54	-131.379	45.077	0	489.60	0	4.6560	0	34.0170	0	26.939	0	485.048	0	36.6	4	11.7	4	-1E+10	1	-1E+10	1	-1E+10	1	-1E+10	1	-1E+10	1	-1E+10	1
4902642	11	C	10/08/2024	03:54	-131.379	45.077	0	510.10	0	4.6050	0	34.0410	0	26.964	0	505.333	0	31.4	4	10.0	4	-1E+10	1	-1E+10	1	-1E+10	1	-1E+10	1	-1E+10	1	-1E+10	1
4902642	11	C	10/08/2024	03:54	-131.379	45.077	0	529.40	0	4.5340	0	34.0610	0	26.987	0	524.428	0	27.1	4	8.7	4	-1E+10	1	-1E+10	1	-1E+10	1	-1E+10	1	-1E+10	1	-1E+10	1
4902642	11	C	10/08/2024	03:54	-131.379	45.077	0	548.90	0	4.4710	0	34.0820	0	27.011	0	543.719	0	23.3	4	7.4	4	-1E+10	1	-1E+10	1	-1E+10	1	-1E+10	1	-1E+10	1	-1E+10	1
4902642	11	C	10/08/2024	03:54	-131.379	45.077	0	569.70	0	4.3910	0	34.1010	0	27.035	0	564.295	0	19.9	4	6.3	4	-1E+10	1	-1E+10	1	-1E+10	1	-1E+10	1	-1E+10	1	-1E+10	1
4902642	11	C	10/08/2024	03:54	-131.379	45.077	0	589.50	0	4.3780	0	34.1290	0	27.058	0	583.879	0	16.6	4	5.3	4	-1E+10	1	-1E+10	1	-1E+10	1	-1E+10	1	-1E+10	1	-1E+10	1
4902642	11	C	10/08/2024	03:54	-131.379	45.077	0	609.70	0	4.3270	0	34.1480	0	27.079	0	603.857	0	14.2	4	4.5	4	-1E+10	1	-1E+10	1	-1E+10	1	-1E+10	1	-1E+10	1	-1E+10	1
4902642	11	C	10/08/2024	03:54	-131.379	45.077	0	629.70	0	4.2930	0	34.1670	0	27.098	0	623.636	0	12.3	4	3.9	4	-1E+10	1	-1E+10	1	-1E+10	1	-1E+10	1	-1E+10	1	-1E+10	1
4902642	11	C	10/08/2024	03:54	-131.379	45.077	0	649.80	0	4.2340	0	34.1840	0	27.118	0	643.511	0	10.8	4	3.4	4	-1E+10	1	-1E+10	1	-1E+10	1	-1E+10	1	-1E+10	1	-1E+10	1
4902642	11	C	10/08/2024	03:54	-131.379	45.077	0	669.90	0	4.1960	0	34.2030	0	27.137	0	663.385	0	9.4	4	3.0	4	-1E+10	1	-1E+10	1	-1E+10	1	-1E+10	1	-1E+10	1	-1E+10	1
4902642	11	C	10/08/2024	03:54	-131.379	45.077	0	689.80	0	4.1760	0	34.2210	0	27.154	0	683.059	0	8.3	4	2.6	4	-1E+10	1	-1E+10	1	-1E+10	1	-1E+10	1	-1E+10	1	-1E+10	1
4902642	11	C	10/08/2024	03:54	-131.379	45.077	0	709.70	0	4.1230	0	34.2340	0	27.170	0	702.731	0	7.7	4	2.4	4	-1E+10	1	-1E+10	1	-1E+10	1	-1E+10	1	-1E+10	1	-1E+10	1
4902642	11	C	10/08/2024	03:54	-131.379	45.077	0	729.80	0	4.0640	0	34.2440	0	27.184	0	722.598	0	7.3	4	2.3	4	-1E+10	1	-1E+10	1	-1E+10	1	-1E+10	1	-1E+10	1	-1E+10	1
4902642	11	C	10/08/2024	03:54	-131.379	45.077	0	750.60	0	4.0150	0	34.2560	0	27.199	0	743.156	0	6.7	4	2.1	4	-1E+10	1	-1E+10	1	-1E+10	1	-1E+10	1	-1E+10	1	-1E+10	1
4902642	11	C	10/08/2024	03:54	-131.379	45.077	0	769.80	0	3.9860	0	34.2680	0	27.211	0	762.131	0	6.2	4	2.0	4	-1E+10	1	-1E+10	1	-1E+10	1	-1E+10	1	-1E+10	1	-1E+10	1
4902642	11	C	10/08/2024	03:54	-131.379	45.077	0	789.90	0	3.9930	0	34.2880	0	27.227	0	781.993	0	5.7	4	1.8	4	-1E+10	1	-1E+10	1	-1E+10	1	-1E+10	1	-1E+10	1	-1E+10	1
4902642	11	C	10/08/2024	03:54	-131.379	45.077	0	810.00	0	3.9520	0	34.3020	0	27.242	0	801.853	0	5.4	4	1.7	4	-1E+10	1	-1E+10	1	-1E+10	1	-1E+10	1	-1E+10	1	-1E+10	1
4902642	11	C	10/08/2024	03:54	-131.379	45.077	0	829.30	0	3.9000	0	34.3170	0	27.259	0	820.921	0	5.3	4	1.7	4	-1E+10	1	-1E+10	1	-1E+10	1	-1E+10	1	-1E+10	1	-1E+10	1
4902642	11	C	10/08/2024	03:54	-131.379	45.077	0	849.60	0	3.8420	0	34.3290	0	27.275	0	840.975	0	5.2	4	1.6	4	-1E+10	1	-1E+10	1	-1E+10	1	-1E+10	1	-1E+10	1	-1E+10	1
4902642	11	C	10/08/2024	03:54	-131.379	45.077	0	869.40	0	3.7940	0	34.3370	0	27.286	0	860.533	0	5.3	4	1.7	4	-1E+10	1	-1E+10	1	-1E+10	1	-1E+10	1	-1E+10	1	-1E+10	1
4902642	11	C	10/08/2024	03:54	-131.379	45.077	0	889.60	0	3.7450	0	34.3440	0	27.297	0	880.485	0	5.3	4	1.7	4	-1E+10	1	-1E+10	1	-1E+10	1	-1E+10	1	-1E+10	1	-1E+10	1
4902642	11	C	10/08/2024	03:54	-131.379	45.077	0	909.70	0	3.7110	0	34.3520	0	27.307	0	900.336	0	5.4	4	1.7	4	-1E+10	1	-1E+10	1	-1E+10	1	-1E+10	1	-1E+10	1	-1E+10	1
4902642	11	C	10/08/2024	03:54	-131.379	45.077	0	930.60	0	3.6850	0	34.3620	0	27.317	0	920.974	0	5.5	4	1.7	4	-1E+10	1	-1E+10	1	-1E+10	1	-1E+10	1	-1E+10	1	-1E+10	1
4902642	11	C	10/08/2024	03:54	-131.379	45.077	0	949.90	0	3.6300	0	34.3670	0	27.327	0	940.032	0	5.6	4	1.8	4	-1E+10	1	-1E+10	1	-1E+10	1	-1E+10	1	-1E+10	1	-1E+10	1
4902642	11	C	10/08/2024	03:54	-131.379	45.077	0	969.80	0	3.5980	0	34.3770	0	27.338	0	959.679	0	6.1	4	1.9	4	-1E+10	1	-1E+10	1	-1E+10	1	-1E+10	1	-1E+10	1	-1E+10	1
4902642	11	C	10/08/2024	03:54	-131.379	45.077	0	989.80	0	3.5730	0	34.3910	0	27.352	0	979.424	0	6.5	4	2.0	4	-1E+10	1	-1E+10	1	-1E+10	1	-1E+10	1	-1E+10	1	-1E+10	1
4902642	11	C	10/08/2024	03:54	-131.379	45.077	0	1009.80	0	3.5110	0	34.3990	0	27.364	0	999.166	0	6.9	4	2.1	4	-1E+10	1	-1E+10	1	-1E+10	1	-1E+10	1	-1E+10	1	-1E+10	1
4902642	11	C	10/08/2024	03:54	-131.379	45.077	0	1030.20	0	3.4550	0	34.4070	0	27.376	0	1019.302	0	7.3	4	2.3	4	-1E+10	1	-1E+10	1	-1E+10	1	-1E+10	1	-1E+10	1	-1E+10	1
4902642	11	C	10/08/2024	03:54	-131.379	45.077	0	1049.80	0	3.4090	0	34.4140	0	27.386	0	1038.646	0	7.7	4	2.4	4	-1E+10	1	-1E+10	1	-1E+10	1	-1E+10	1	-1E+10	1	-1E+10	1
4902642	11	C	10/08/2024	03:54	-131.379	45.077	0	1069.70	0	3.3740	0	34.4190	0	27.394	0	1058.285	0	8.0	4	2.5	4	-1E+10	1	-1E+10	1	-1E+10	1	-1E+10	1	-1E+10	1	-1E+10	1
4902642	11	C	10/08/2024	03:54	-131.379	45.077	0	1089.70	0	3.3310	0	34.4250	0	27.403	0	1078.020	0	8.3	4	2.6	4	-1E+10	1	-1E+10	1	-1E+10	1	-1E+10	1	-1E+10	1	-1E+10	1
4902642	11	C	10/08/2024	03:54	-131.379	45.077	0	1109.90	0	3.2960	0	34.4280	0	27.408	0	1097.951	0	8.6	4	2.7	4	-1E+10	1	-1E+10	1	-1E+10	1	-1E+10	1	-1E+10	1	-1E+10	1
4902642	11	C	10/08/2024	03:54	-131.379	45.077	0	1129.50	0	3.2630	0	34.4330	0	27.416	0	1117.287	0	9.1	4	2.8	4	-1E+10	1	-1E+10	1	-1E+10	1	-1E+10	1	-1E+10	1	-1E+10	1
4902642	11	C	10/08/2024	03:54	-131.379	45.077	0	1149.50	0	3.2270	0	34.4380	0	27.423	0	1137.017	0	9.5	4	2.9	4	-1E+10	1	-1E+10	1	-1E+10	1	-1E+10	1	-1E+10	1	-1E+10	1
4902642	11	C	10/08/2024	03:54	-131.379	45.077	0	1169.50	0	3.1890	0	34.4420	0	27.430	0	1156.745	0	9.8	4	3.1	4	-1E+10	1	-1E+10	1	-1E+10	1	-1E+10	1	-1E+10	1	-1E+10	1
4902642	11	C	10/08/2024	03:54	-131.379	45.077	0	1189.40	0	3.1450	0	34.4460	0	27.437	0	1176.372	0	10.2	4	3.2	4	-1E+10	1	-1E+10	1	-1E+10	1	-1E+10	1	-1E+10	1	-1E+10	1
4902642	11	C	10/08/2024	03:54	-131.379	45.077	0	1209.50	0	3.1080	0	34.4490	0	27.443	0	1196.195	0	10.6	4	3.3	4	-1E+10	1	-1E+10	1	-1E+10	1	-1E+10	1	-1E+10	1	-1E+10	1
4902642	11	C	10/08/2024	03:54	-131.379	45.077	0	1229.60	0	3.0660	0	34.4540	0	27.451	0	1216.016	0	11.2	4	3.4	4	-1E+10	1	-1E+10	1	-1E+10	1	-1E+10	1	-1E+10	1	-1E+10	1
4902642	11	C	10/08/2024	03:54	-131.379	45.077	0	1250.20	0	3.0100	0	34.4590	0	27.460	0	1236.328	0	11.7	4	3.6	4	-1E+10	1	-1E+10	1	-1E+10	1	-1E+10	1	-1E+10	1	-1E+10	1
4902642	11	C	10/08/2024	03:54	-131.379	45.077	0	1269.50	0	2.9680	0	34.4640	0	27.468	0	1255.356	0	12.4	4	3.8	4	-1E+10	1	-1E+10	1	-1E+10	1	-1E+10	1	-1E+10	1	-1E+10	1
4902642	11	C	10/08/2024	03:54	-131.379	45.077	0	1289.80	0	2.9280	0	34.4690	0	27.476	0	1275.368	0	13.0	4	4.0	4	-1E+10	1	-1E+10	1	-1E+10	1	-1E+10	1	-1E+10	1	-1E+10	1
4902642	11	C	10/08/2024	03:54	-131.379	45.077	0	1310.10	0	2.8880	0	34.4720	0	27.482	0	1295.379	0	13.5	4	4.2	4	-1E+10	1	-1E+10	1	-1E+10	1	-1E+10	1	-1E+10	1	-1E+10	1
4902642	11	C	10/08/2024	03:54	-131.379	45.077	0	1330.00	0	2.8540	0	34.4760	0	27.488	0	1314.993	0	14.3	4	4.4	4	-1E+10	1	-1E+10	1	-1E+10	1	-1E+10	1	-1E+10	1	-1E+10	1
4902642	11	C	10/08/2024	03:54	-131.379	45.077	0	1349.70	0	2.8120	0	34.4810	0	27.496	0	1334.408	0	15.0	4	4.6	4	-1E+10	1	-1E+10	1	-1E+10	1	-1E+10	1	-1E+10	1	-1E+10	1
4902642	11	C	10/08/2024	03:54	-131.379	45.077	0	1369.40	0	2.7780	0	34.4840	0	27.502	0	1353.822	0	15.6	4	4.8	4	-1E+10	1	-1E+10	1	-1E+10	1	-1E+10	1	-1E+10	1	-1E+10	1
4902642	11	C	10/08/2024	03:54	-131.379	45.077	0	1389.50	0	2.7530	0	34.4870	0	27.506	0	1373.628	0	16.1	4	4.9	4	-1E+10	1	-1E+10	1	-1E+10	1	-1E+10	1	-1E+10	1	-1E+10	1
4902642	11	C	10/08/2024	03:54	-131.379	45.077	0	1410.20	0	2.7200	0	34.4900	0	27.512	0	1394.023	0	16.8	4	5.1	4	-1E+10	1	-1E+10	1	-1E+10	1	-1E+10	1	-1E+10	1	-1E+10	1
4902642	11	C	10/08/2024	03:54	-131.379	45.077	0	1429.50	0	2.6950	0	34.4930	0	27.516	0	1413.037	0	17.5	4	5.4	4	-1E+10	1	-1E+10	1	-1E+10	1	-1E+10	1	-1E+10	1	-1E+10	1
4902642	11	C	10/08/2024	03:54	-131.379	45.077	0	1449.50	0	2.6520	0	34.4980	0	27.524	0	1432.739	0	18.6	4	5.7	4	-1E+10	1	-1E+10	1	-1E+10	1	-1E+10	1	-1E+10	1	-1E+10	1
4902642	11	C	10/08/2024	03:54	-131.379	45.077	0	1469.50	0	2.6120	0	34.5030	0	27.532	0	1452.439	0	19.9	4	6.1	4	-1E+10	1	-1E+10	1	-1E+10	1	-1E+10	1	-1E+10	1	-1E+10	1
4902642	11	C	10/08/2024	03:54	-131.379	45.077	0	1489.70	0	2.5750	0	34.5080	0	27.539	0	1472.334	0	20.9	4	6.4	4	-1E+10	1	-1E+10	1	-1E+10	1	-1E+10	1	-1E+10	1	-1E+10	1
4902642	11	C	10/08/2024	03:54	-131.379	45.077	0	1510.00	0	2.5380	0	34.5120	0	27.545	0	1492.326	0	22.0	4	6.7	4	-1E+10	1	-1E+10	1	-1E+10	1	-1E+10	1	-1E+10	1	-1E+10	1
4902642	11	C	10/08/2024	03:54	-131.379	45.077	0	1530.00	0	2.5020	0	34.5170	0	27.552	0	1512.020	0	23.3	4	7.1	4	-1E+10	1	-1E+10	1	-1E+10	1	-1E+10	1	-1E+10	1	-1E+10	1
4902642	11	C	10/08/2024	03:54	-131.379	45.077	0	1549.90	0	2.4630	0	34.5220	0	27.560	0	1531.615	0	24.8	4	7.6	4	-1E+10	1	-1E+10	1	-1E+10	1	-1E+10	1	-1E+10	1	-1E+10	1
4902642	11	C	10/08/2024	03:54	-131.379	45.077	0	1569.90	0	2.4260	0	34.5270	0	27.567	0	1551.305	0	26.1	4	7.9	4	-1E+10	1	-1E+10	1	-1E+10	1	-1E+10	1	-1E+10	1	-1E+10	1
4902642	11	C	10/08/2024	03:54	-131.379	45.077	0	1589.90	0	2.3890	0	34.5310	0	27.573	0	1570.994	0	27.4	4	8.3	4	-1E+10	1	-1E+10	1	-1E+10	1	-1E+10	1	-1E+10	1	-1E+10	1
4902642	11	C	10/08/2024	03:54	-131.379	45.077	0	1609.80	0	2.3590	0	34.5360	0	27.580	0	1590.583	0	28.8	4	8.8	4	-1E+10	1	-1E+10	1	-1E+10	1	-1E+10	1	-1E+10	1	-1E+10	1
4902642	11	C	10/08/2024	03:54	-131.379	45.077	0	1629.70	0	2.3200	0	34.5410	0	27.587	0	1610.170	0	30.5	4	9.3	4	-1E+10	1	-1E+10	1	-1E+10	1	-1E+10	1	-1E+10	1	-1E+10	1
4902642	11	C	10/08/2024	03:54	-131.379	45.077	0	1649.60	0	2.2900	0	34.5450	0	27.593	0	1629.755	0	31.8	4	9.7	4	-1E+10	1	-1E+10	1	-1E+10	1	-1E+10	1	-1E+10	1	-1E+10	1
4902642	11	C	10/08/2024	03:54	-131.379	45.077	0	1670.30	0	2.2610	0	34.5490	0	27.599	0	1650.125	0	33.2	4	10.1	4	-1E+10	1	-1E+10	1	-1E+10	1	-1E+10	1	-1E+10	1	-1E+10	1
4902642	11	C	10/08/2024	03:54	-131.379	45.077	0	1689.70	0	2.2310	0	34.5520	0	27.603	0	1669.214	0	34.5	4	10.4	4	-1E+10	1	-1E+10	1	-1E+10	1	-1E+10	1	-1E+10	1	-1E+10	1
4902642	11	C	10/08/2024	03:54	-131.379	45.077	0	1710.00	0	2.2080	0	34.5560	0	27.609	0	1689.188	0	35.6	4	10.8	4	-1E+10	1	-1E+10	1	-1E+10	1	-1E+10	1	-1E+10	1	-1E+10	1
4902642	11	C	10/08/2024	03:54	-131.379	45.077	0	1730.50	0	2.1830	0	34.5590	0	27.613	0	1709.355	0	36.9	4	11.2	4	-1E+10	1	-1E+10	1	-1E+10	1	-1E+10	1	-1E+10	1	-1E+10	1
4902642	11	C	10/08/2024	03:54	-131.379	45.077	0	1749.70	0	2.1630	0	34.5620	0	27.617	0	1728.243	0	37.9	4	11.5	4	-1E+10	1	-1E+10	1	-1E+10	1	-1E+10	1	-1E+10	1	-1E+10	1
4902642	11	C	10/08/2024	03:54	-131.379	45.077	0	1769.60	0	2.1420	0	34.5640	0	27.621	0	1747.817	0	38.8	4	11.7	4	-1E+10	1	-1E+10	1	-1E+10	1	-1E+10	1	-1E+10	1	-1E+10	1
4902642	11	C	10/08/2024	03:54	-131.379	45.077	0	1789.10	0	2.1270	0	34.5660	0	27.623	0	1766.996	0	39.7	4	12.0	4	-1E+10	1	-1E+10	1	-1E+10	1	-1E+10	1	-1E+10	1	-1E+10	1
4902642	11	C	10/08/2024	03:54	-131.379	45.077	0	1809.80	0	2.1070	0	34.5690	0	27.628	0	1787.353	0	40.8	4	12.3	4	-1E+10	1	-1E+10	1	-1E+10	1	-1E+10	1	-1E+10	1	-1E+10	1
4902642	11	C	10/08/2024	03:54	-131.379	45.077	0	1829.20	0	2.0900	0	34.5720	0	27.631	0	1806.430	0	41.7	4	12.6	4	-1E+10	1	-1E+10	1	-1E+10	1	-1E+10	1	-1E+10	1	-1E+10	1
4902642	11	C	10/08/2024	03:54	-131.379	45.077	0	1850.70	0	2.0720	0	34.5740	0	27.635	0	1827.570	0	42.8	4	12.9	4	-1E+10	1	-1E+10	1	-1E+10	1	-1E+10	1	-1E+10	1	-1E+10	1
4902642	11	C	10/08/2024	03:54	-131.379	45.077	0	1869.90	0	2.0520	0	34.5770	0	27.639	0	1846.447	0	44.0	4	13.3	4	-1E+10	1	-1E+10	1	-1E+10	1	-1E+10	1	-1E+10	1	-1E+10	1
4902642	11	C	10/08/2024	03:54	-131.379	45.077	0	1889.60	0	2.0360	0	34.5800	0	27.642	0	1865.813	0	45.1	4	13.6	4	-1E+10	1	-1E+10	1	-1E+10	1	-1E+10	1	-1E+10	1	-1E+10	1
4902642	11	C	10/08/2024	03:54	-131.379	45.077	0	1909.70	0	2.0180	0	34.5820	0	27.646	0	1885.571	0	46.3	4	14.0	4	-1E+10	1	-1E+10	1	-1E+10	1	-1E+10	1	-1E+10	1	-1E+10	1
4902642	11	C	10/08/2024	03:54	-131.379	45.077	0	1929.70	0	2.0000	0	34.5850	0	27.649	0	1905.229	0	47.6	4	14.3	4	-1E+10	1	-1E+10	1	-1E+10	1	-1E+10	1	-1E+10	1	-1E+10	1
4902642	11	C	10/08/2024	03:54	-131.379	45.077	0	1949.90	0	1.9850	0	34.5880	0	27.653	0	1925.082	0	48.5	4	14.6	4	-1E+10	1	-1E+10	1	-1E+10	1	-1E+10	1	-1E+10	1	-1E+10	1
4902642	11	C	10/08/2024	03:54	-131.379	45.077	0	1970.30	0	1.9770	0	34.5890	0	27.655	0	1945.129	0	49.2	4	14.8	4	-1E+10	1	-1E+10	1	-1E+10	1	-1E+10	1	-1E+10	1	-1E+10	1
4902642	11	C	10/08/2024	03:54	-131.379	45.077	0	1989.90	0	1.9670	0	34.5910	0	27.657	0	1964.388	0	50.0	4	15.1	4	-1E+10	1	-1E+10	1	-1E+10	1	-1E+10	1	-1E+10	1	-1E+10	1
4902642	11	C	10/08/2024	03:54	-131.379	45.077	0	2010.10	0	1.9540	0	34.5930	4	27.660	0	1984.235	0	51.0	4	15.4	4	-1E+10	1	-1E+10	1	-1E+10	1	-1E+10	1	-1E+10	1	-1E+10	1
4902642	11	C	10/08/2024	03:54	-131.379	45.077	0	2030.10	0	1.9410	0	34.5960	4	27.663	0	2003.884	0	52.2	4	15.7	4	-1E+10	1	-1E+10	1	-1E+10	1	-1E+10	1	-1E+10	1	-1E+10	1
4902642	11	C	10/08/2024	03:54	-131.379	45.077	0	2050.10	0	1.9320	0	34.5980	4	27.666	0	2023.531	0	53.3	4	16.0	4	-1E+10	1	-1E+10	1	-1E+10	1	-1E+10	1	-1E+10	1	-1E+10	1
4902642	11	C	10/08/2024	03:54	-131.379	45.077	0	2070.10	0	1.9230	0	34.6000	4	27.668	0	2043.176	0	54.1	4	16.3	4	-1E+10	1	-1E+10	1	-1E+10	1	-1E+10	1	-1E+10	1	-1E+10	1
4902642	11	C	10/08/2024	03:54	-131.379	45.077	0	2090.10	0	1.9100	0	34.6020	4	27.671	0	2062.819	0	55.2	4	16.6	4	-1E+10	1	-1E+10	1	-1E+10	1	-1E+10	1	-1E+10	1	-1E+10	1
4902642	11	C	10/08/2024	03:54	-131.379	45.077	0	2109.70	0	1.9010	0	34.6040	4	27.673	0	2082.068	0	55.8	4	16.8	4	-1E+10	1	-1E+10	1	-1E+10	1	-1E+10	1	-1E+10	1	-1E+10	1
4902642	11	C	10/08/2024	03:54	-131.379	45.077	0	2130.20	0	1.8910	0	34.6060	4	27.676	0	2102.198	0	56.9	4	17.1	4	-1E+10	1	-1E+10	1	-1E+10	1	-1E+10	1	-1E+10	1	-1E+10	1
4902642	11	C	10/08/2024	03:54	-131.379	45.077	0	2150.10	0	1.8810	0	34.6080	4	27.678	0	2121.738	0	57.6	4	17.3	4	-1E+10	1	-1E+10	1	-1E+10	1	-1E+10	1	-1E+10	1	-1E+10	1
4902642	11	C	10/08/2024	03:54	-131.379	45.077	0	2169.90	0	1.8740	0	34.6090	4	27.680	0	2141.178	0	58.1	4	17.5	4	-1E+10	1	-1E+10	1	-1E+10	1	-1E+10	1	-1E+10	1	-1E+10	1
4902642	11	C	10/08/2024	03:54	-131.379	45.077	0	2189.80	0	1.8670	0	34.6100	4	27.681	0	2160.714	0	58.5	4	17.6	4	-1E+10	1	-1E+10	1	-1E+10	1	-1E+10	1	-1E+10	1	-1E+10	1
4902642	11	C	10/08/2024	03:54	-131.379	45.077	0	2209.60	0	1.8640	0	34.6110	4	27.682	0	2180.150	0	59.0	4	17.7	4	-1E+10	1	-1E+10	1	-1E+10	1	-1E+10	1	-1E+10	1	-1E+10	1
4902642	11	C	10/08/2024	03:54	-131.379	45.077	0	2229.90	0	1.8590	0	34.6120	4	27.684	0	2200.075	0	59.7	4	17.9	4	-1E+10	1	-1E+10	1	-1E+10	1	-1E+10	1	-1E+10	1	-1E+10	1
4902642	11	C	10/08/2024	03:54	-131.379	45.077	0	2249.90	0	1.8540	0	34.6130	4	27.685	0	2219.704	0	60.2	4	18.1	4	-1E+10	1	-1E+10	1	-1E+10	1	-1E+10	1	-1E+10	1	-1E+10	1
4902642	11	C	10/08/2024	03:54	-131.379	45.077	0	2270.00	0	1.8510	0	34.6140	4	27.686	0	2239.429	0	60.6	4	18.2	4	-1E+10	1	-1E+10	1	-1E+10	1	-1E+10	1	-1E+10	1	-1E+10	1
4902642	11	C	10/08/2024	03:54	-131.379	45.077	0	2289.90	0	1.8460	0	34.6150	4	27.687	0	2258.956	0	61.1	4	18.4	4	-1E+10	1	-1E+10	1	-1E+10	1	-1E+10	1	-1E+10	1	-1E+10	1
4902642	11	C	10/08/2024	03:54	-131.379	45.077	0	2309.90	0	1.8430	0	34.6150	4	27.688	0	2278.580	0	61.5	4	18.5	4	-1E+10	1	-1E+10	1	-1E+10	1	-1E+10	1	-1E+10	1	-1E+10	1
4902642	11	C	10/08/2024	03:54	-131.379	45.077	0	2330.10	0	1.8400	0	34.6160	4	27.689	0	2298.398	0	62.0	4	18.6	4	-1E+10	1	-1E+10	1	-1E+10	1	-1E+10	1	-1E+10	1	-1E+10	1
4902642	11	C	10/08/2024	03:54	-131.379	45.077	0	2350.10	0	1.8320	0	34.6170	4	27.690	0	2318.017	0	62.7	4	18.8	4	-1E+10	1	-1E+10	1	-1E+10	1	-1E+10	1	-1E+10	1	-1E+10	1
4902642	11	C	10/08/2024	03:54	-131.379	45.077	0	2370.20	0	1.8270	0	34.6180	4	27.692	0	2337.733	0	63.3	4	19.0	4	-1E+10	1	-1E+10	1	-1E+10	1	-1E+10	1	-1E+10	1	-1E+10	1
4902642	11	C	10/08/2024	03:54	-131.379	45.077	0	2390.70	0	1.8220	0	34.6190	4	27.693	0	2357.840	0	63.9	4	19.2	4	-1E+10	1	-1E+10	1	-1E+10	1	-1E+10	1	-1E+10	1	-1E+10	1
4902642	11	C	10/08/2024	03:54	-131.379	45.077	0	2410.00	0	1.8160	0	34.6200	4	27.694	0	2376.768	0	64.5	4	19.4	4	-1E+10	1	-1E+10	1	-1E+10	1	-1E+10	1	-1E+10	1	-1E+10	1
4902642	11	C	10/08/2024	03:54	-131.379	45.077	0	2429.60	0	1.8110	0	34.6220	4	27.696	0	2395.988	0	65.1	4	19.5	4	-1E+10	1	-1E+10	1	-1E+10	1	-1E+10	1	-1E+10	1	-1E+10	1
4902642	11	C	10/08/2024	03:54	-131.379	45.077	0	2449.60	0	1.8070	0	34.6220	4	27.697	0	2415.599	0	65.6	4	19.7	4	-1E+10	1	-1E+10	1	-1E+10	1	-1E+10	1	-1E+10	1	-1E+10	1
4902642	11	C	10/08/2024	03:54	-131.379	45.077	0	2469.80	0	1.8010	0	34.6230	4	27.698	0	2435.404	0	66.2	4	19.9	4	-1E+10	1	-1E+10	1	-1E+10	1	-1E+10	1	-1E+10	1	-1E+10	1
4902642	11	C	10/08/2024	03:54	-131.379	45.077	0	2490.10	0	1.7980	0	34.6240	4	27.699	0	2455.306	0	66.7	4	20.0	4	-1E+10	1	-1E+10	1	-1E+10	1	-1E+10	1	-1E+10	1	-1E+10	1
4902642	11	C	10/08/2024	03:54	-131.379	45.077	0	2509.90	0	1.7910	0	34.6250	4	27.701	0	2474.715	0	67.7	4	20.3	4	-1E+10	1	-1E+10	1	-1E+10	1	-1E+10	1	-1E+10	1	-1E+10	1
4902642	11	C	10/08/2024	03:54	-131.379	45.077	0	2530.00	0	1.7830	0	34.6270	4	27.703	0	2494.417	0	68.5	4	20.5	4	-1E+10	1	-1E+10	1	-1E+10	1	-1E+10	1	-1E+10	1	-1E+10	1
4902642	11	C	10/08/2024	03:54	-131.379	45.077	0	2550.10	0	1.7780	0	34.6270	4	27.704	0	2514.117	0	69.0	4	20.7	4	-1E+10	1	-1E+10	1	-1E+10	1	-1E+10	1	-1E+10	1	-1E+10	1
4902642	11	C	10/08/2024	03:54	-131.379	45.077	0	2570.10	0	1.7730	0	34.6280	4	27.705	0	2533.717	0	69.7	4	20.9	4	-1E+10	1	-1E+10	1	-1E+10	1	-1E+10	1	-1E+10	1	-1E+10	1
4902642	11	C	10/08/2024	03:54	-131.379	45.077	0	2590.40	0	1.7660	0	34.6290	4	27.706	0	2553.609	0	70.5	4	21.1	4	-1E+10	1	-1E+10	1	-1E+10	1	-1E+10	1	-1E+10	1	-1E+10	1
4902642	11	C	10/08/2024	03:54	-131.379	45.077	0	2610.20	0	1.7590	0	34.6300	4	27.708	0	2573.010	0	71.3	4	21.4	4	-1E+10	1	-1E+10	1	-1E+10	1	-1E+10	1	-1E+10	1	-1E+10	1
4902642	11	C	10/08/2024	03:54	-131.379	45.077	0	2630.00	0	1.7490	0	34.6320	4	27.710	0	2592.409	0	72.3	4	21.7	4	-1E+10	1	-1E+10	1	-1E+10	1	-1E+10	1	-1E+10	1	-1E+10	1
4902642	11	C	10/08/2024	03:54	-131.379	45.077	0	2650.10	0	1.7390	0	34.6330	4	27.712	0	2612.100	0	73.4	4	22.0	4	-1E+10	1	-1E+10	1	-1E+10	1	-1E+10	1	-1E+10	1	-1E+10	1
4902642	11	C	10/08/2024	03:54	-131.379	45.077	0	2670.20	0	1.7300	0	34.6340	4	27.714	0	2631.789	0	74.4	4	22.3	4	-1E+10	1	-1E+10	1	-1E+10	1	-1E+10	1	-1E+10	1	-1E+10	1
4902642	11	C	10/08/2024	03:54	-131.379	45.077	0	2690.10	0	1.7230	0	34.6350	4	27.715	0	2651.280	0	75.1	4	22.5	4	-1E+10	1	-1E+10	1	-1E+10	1	-1E+10	1	-1E+10	1	-1E+10	1
4902642	11	C	10/08/2024	03:54	-131.379	45.077	0	2710.00	0	1.7190	0	34.6360	4	27.716	0	2670.770	0	75.7	4	22.7	4	-1E+10	1	-1E+10	1	-1E+10	1	-1E+10	1	-1E+10	1	-1E+10	1
4902642	11	C	10/08/2024	03:54	-131.379	45.077	0	2730.50	0	1.7150	0	34.6370	4	27.717	0	2690.845	0	76.2	4	22.8	4	-1E+10	1	-1E+10	1	-1E+10	1	-1E+10	1	-1E+10	1	-1E+10	1
4902642	11	C	10/08/2024	03:54	-131.379	45.077	0	2750.20	0	1.7090	0	34.6380	4	27.719	0	2710.136	0	77.0	4	23.1	4	-1E+10	1	-1E+10	1	-1E+10	1	-1E+10	1	-1E+10	1	-1E+10	1
4902642	11	C	10/08/2024	03:54	-131.379	45.077	0	2770.20	0	1.7030	0	34.6390	4	27.720	0	2729.718	0	77.7	4	23.3	4	-1E+10	1	-1E+10	1	-1E+10	1	-1E+10	1	-1E+10	1	-1E+10	1
4902642	11	C	10/08/2024	03:54	-131.379	45.077	0	2790.20	0	1.7000	0	34.6400	4	27.721	0	2749.298	0	78.2	4	23.4	4	-1E+10	1	-1E+10	1	-1E+10	1	-1E+10	1	-1E+10	1	-1E+10	1
4902642	11	C	10/08/2024	03:54	-131.379	45.077	0	2809.90	0	1.6970	0	34.6400	4	27.722	0	2768.583	0	78.7	4	23.6	4	-1E+10	1	-1E+10	1	-1E+10	1	-1E+10	1	-1E+10	1	-1E+10	1
4902642	11	C	10/08/2024	03:54	-131.379	45.077	0	2829.70	0	1.6920	0	34.6410	4	27.723	0	2787.965	0	79.5	4	23.8	4	-1E+10	1	-1E+10	1	-1E+10	1	-1E+10	1	-1E+10	1	-1E+10	1
4902642	11	C	10/08/2024	03:54	-131.379	45.077	0	2850.30	0	1.6850	0	34.6420	4	27.724	0	2808.127	0	80.2	4	24.0	4	-1E+10	1	-1E+10	1	-1E+10	1	-1E+10	1	-1E+10	1	-1E+10	1
4902642	11	C	10/08/2024	03:54	-131.379	45.077	0	2869.70	0	1.6790	0	34.6430	4	27.726	0	2827.113	0	81.0	4	24.2	4	-1E+10	1	-1E+10	1	-1E+10	1	-1E+10	1	-1E+10	1	-1E+10	1
4902642	11	C	10/08/2024	03:54	-131.379	45.077	0	2890.00	0	1.6710	0	34.6440	4	27.727	0	2846.979	0	81.8	4	24.5	4	-1E+10	1	-1E+10	1	-1E+10	1	-1E+10	1	-1E+10	1	-1E+10	1
4902642	11	C	10/08/2024	03:54	-131.379	45.077	0	2910.10	0	1.6630	0	34.6450	4	27.729	0	2866.646	0	82.9	4	24.8	4	-1E+10	1	-1E+10	1	-1E+10	1	-1E+10	1	-1E+10	1	-1E+10	1
4902642	11	C	10/08/2024	03:54	-131.379	45.077	0	2929.90	0	1.6530	0	34.6460	4	27.730	0	2886.019	0	83.9	4	25.1	4	-1E+10	1	-1E+10	1	-1E+10	1	-1E+10	1	-1E+10	1	-1E+10	1
4902642	11	C	10/08/2024	03:54	-131.379	45.077	0	2950.20	0	1.6450	0	34.6470	4	27.732	0	2905.879	0	84.6	4	25.3	4	-1E+10	1	-1E+10	1	-1E+10	1	-1E+10	1	-1E+10	1	-1E+10	1
4902642	11	C	10/08/2024	03:54	-131.379	45.077	0	2970.20	0	1.6420	0	34.6470	4	27.732	0	2925.443	0	85.2	4	25.5	4	-1E+10	1	-1E+10	1	-1E+10	1	-1E+10	1	-1E+10	1	-1E+10	1
4902642	11	C	10/08/2024	03:54	-131.379	45.077	0	2990.20	0	1.6360	0	34.6480	4	27.734	0	2945.006	0	85.9	4	25.7	4	-1E+10	1	-1E+10	1	-1E+10	1	-1E+10	1	-1E+10	1	-1E+10	1
4902642	11	C	10/08/2024	03:54	-131.379	45.077	0	3010.00	0	1.6290	0	34.6490	4	27.735	0	2964.372	0	86.8	4	25.9	4	-1E+10	1	-1E+10	1	-1E+10	1	-1E+10	1	-1E+10	1	-1E+10	1
4902642	11	C	10/08/2024	03:54	-131.379	45.077	0	3029.80	0	1.6250	0	34.6500	4	27.736	0	2983.735	0	87.4	4	26.1	4	-1E+10	1	-1E+10	1	-1E+10	1	-1E+10	1	-1E+10	1	-1E+10	1
4902642	11	C	10/08/2024	03:54	-131.379	45.077	0	3049.90	0	1.6210	0	34.6500	4	27.737	0	3003.390	0	88.1	4	26.3	4	-1E+10	1	-1E+10	1	-1E+10	1	-1E+10	1	-1E+10	1	-1E+10	1
4902642	11	C	10/08/2024	03:54	-131.379	45.077	0	3069.90	0	1.6150	0	34.6510	4	27.738	0	3022.946	0	88.8	4	26.5	4	-1E+10	1	-1E+10	1	-1E+10	1	-1E+10	1	-1E+10	1	-1E+10	1
4902642	11	C	10/08/2024	03:54	-131.379	45.077	0	3089.80	0	1.6100	0	34.6520	4	27.739	0	3042.403	0	89.6	4	26.8	4	-1E+10	1	-1E+10	1	-1E+10	1	-1E+10	1	-1E+10	1	-1E+10	1
4902642	11	C	10/08/2024	03:54	-131.379	45.077	0	3109.80	0	1.6050	0	34.6530	4	27.741	0	3061.955	0	90.5	4	27.0	4	-1E+10	1	-1E+10	1	-1E+10	1	-1E+10	1	-1E+10	1	-1E+10	1
4902642	11	C	10/08/2024	03:54	-131.379	45.077	0	3130.30	0	1.5980	0	34.6540	4	27.742	0	3081.994	0	91.4	4	27.3	4	-1E+10	1	-1E+10	1	-1E+10	1	-1E+10	1	-1E+10	1	-1E+10	1
4902642	11	C	10/08/2024	03:54	-131.379	45.077	0	3149.90	0	1.5930	0	34.6550	4	27.743	0	3101.152	0	92.3	4	27.6	4	-1E+10	1	-1E+10	1	-1E+10	1	-1E+10	1	-1E+10	1	-1E+10	1
4902642	11	C	10/08/2024	03:54	-131.379	45.077	0	3170.00	0	1.5850	0	34.6570	4	27.746	0	3120.797	0	93.3	4	27.9	4	-1E+10	1	-1E+10	1	-1E+10	1	-1E+10	1	-1E+10	1	-1E+10	1
4902642	11	C	10/08/2024	03:54	-131.379	45.077	0	3190.00	0	1.5810	0	34.6580	4	27.747	0	3140.342	0	94.0	4	28.1	4	-1E+10	1	-1E+10	1	-1E+10	1	-1E+10	1	-1E+10	1	-1E+10	1
4902642	11	C	10/08/2024	03:54	-131.379	45.077	0	3209.70	0	1.5740	0	34.6580	4	27.748	0	3159.592	0	95.1	4	28.4	4	-1E+10	1	-1E+10	1	-1E+10	1	-1E+10	1	-1E+10	1	-1E+10	1
4902642	11	C	10/08/2024	03:54	-131.379	45.077	0	3221.20	0	1.5690	0	34.6590	4	27.749	0	3170.829	0	95.8	4	28.6	4	-1E+10	1	-1E+10	1	-1E+10	1	-1E+10	1	-1E+10	1	-1E+10	1
4902642	11	C	10/08/2024	03:54	-131.379	45.077	0	3223.50	0	1.5670	0	34.6600	4	27.750	0	3173.076	0	95.9	4	28.6	4	-1E+10	1	-1E+10	1	-1E+10	1	-1E+10	1	-1E+10	1	-1E+10	1
4902642	11	C	10/08/2024	03:54	-131.379	45.077	0	3225.00	0	1.5660	0	34.6600	4	27.750	0	3174.542	0	96.0	4	28.6	4	-1E+10	1	-1E+10	1	-1E+10	1	-1E+10	1	-1E+10	1	-1E+10	1
4902642	11	C	10/08/2024	03:54	-131.379	45.077	0	3225.90	0	1.5660	0	34.6600	4	27.750	0	3175.421	0	96.0	4	28.6	4	-1E+10	1	-1E+10	1	-1E+10	1	-1E+10	1	-1E+10	1	-1E+10	1
4902642	11	C	10/08/2024	03:54	-131.379	45.077	0	3226.80	0	1.5660	0	34.6600	4	27.750	0	3176.301	0	96.0	4	28.7	4	-1E+10	1	-1E+10	1	-1E+10	1	-1E+10	1	-1E+10	1	-1E+10	1
4902642	11	C	10/08/2024	03:54	-131.379	45.077	0	3227.80	0	1.5650	0	34.6610	4	27.751	0	3177.278	0	96.0	4	28.6	4	-1E+10	1	-1E+10	1	-1E+10	1	-1E+10	1	-1E+10	1	-1E+10	1
4902642	11	C	10/08/2024	03:54	-131.379	45.077	0	3228.70	0	1.5650	0	34.6610	4	27.751	0	3178.157	0	96.1	4	28.7	4	-1E+10	1	-1E+10	1	-1E+10	1	-1E+10	1	-1E+10	1	-1E+10	1
4902642	11	C	10/08/2024	03:54	-131.379	45.077	0	3229.50	0	1.5650	0	34.6610	4	27.751	0	3178.939	0	96.1	4	28.7	4	-1E+10	1	-1E+10	1	-1E+10	1	-1E+10	1	-1E+10	1	-1E+10	1
4902642	11	C	10/08/2024	03:54	-131.379	45.077	0	3230.50	0	1.5650	0	34.6610	4	27.751	0	3179.916	0	96.1	4	28.7	4	-1E+10	1	-1E+10	1	-1E+10	1	-1E+10	1	-1E+10	1	-1E+10	1
4902642	11	C	10/08/2024	03:54	-131.379	45.077	0	3231.40	0	1.5650	0	34.6610	4	27.751	0	3180.795	0	96.1	4	28.7	4	-1E+10	1	-1E+10	1	-1E+10	1	-1E+10	1	-1E+10	1	-1E+10	1
4902642	11	C	10/08/2024	03:54	-131.379	45.077	0	3232.40	0	1.5640	0	34.6610	4	27.751	0	3181.772	0	96.1	4	28.7	4	-1E+10	1	-1E+10	1	-1E+10	1	-1E+10	1	-1E+10	1	-1E+10	1
4902642	11	C	10/08/2024	03:54	-131.379	45.077	0	3233.40	0	1.5640	0	34.6610	4	27.751	0	3182.749	0	96.2	4	28.7	4	-1E+10	1	-1E+10	1	-1E+10	1	-1E+10	1	-1E+10	1	-1E+10	1
4902642	11	C	10/08/2024	03:54	-131.379	45.077	0	3234.30	0	1.5640	0	34.6610	4	27.751	0	3183.628	0	96.2	4	28.7	4	-1E+10	1	-1E+10	1	-1E+10	1	-1E+10	1	-1E+10	1	-1E+10	1
4902642	11	C	10/08/2024	03:54	-131.379	45.077	0	3235.20	0	1.5640	0	34.6610	4	27.751	0	3184.508	0	96.2	4	28.7	4	-1E+10	1	-1E+10	1	-1E+10	1	-1E+10	1	-1E+10	1	-1E+10	1
4902642	11	C	10/08/2024	03:54	-131.379	45.077	0	3236.20	0	1.5640	0	34.6610	4	27.751	0	3185.485	0	96.2	4	28.7	4	-1E+10	1	-1E+10	1	-1E+10	1	-1E+10	1	-1E+10	1	-1E+10	1
4902642	11	C	10/08/2024	03:54	-131.379	45.077	0	3237.10	0	1.5640	0	34.6610	4	27.751	0	3186.364	0	96.2	4	28.7	4	-1E+10	1	-1E+10	1	-1E+10	1	-1E+10	1	-1E+10	1	-1E+10	1
4902642	11	C	10/08/2024	03:54	-131.379	45.077	0	3238.10	0	1.5640	0	34.6610	4	27.751	0	3187.341	0	96.2	4	28.7	4	-1E+10	1	-1E+10	1	-1E+10	1	-1E+10	1	-1E+10	1	-1E+10	1
4902642	11	C	10/08/2024	03:54	-131.379	45.077	0	3239.50	0	1.5630	0	34.6610	4	27.751	0	3188.709	0	96.2	4	28.7	4	-1E+10	1	-1E+10	1	-1E+10	1	-1E+10	1	-1E+10	1	-1E+10	1
4902642	11	C	10/08/2024	03:54	-131.379	45.077	0	3240.90	0	1.5630	0	34.6610	4	27.751	0	3190.076	0	96.2	4	28.7	4	-1E+10	1	-1E+10	1	-1E+10	1	-1E+10	1	-1E+10	1	-1E+10	1
4902642	11	C	10/08/2024	03:54	-131.379	45.077	0	3241.90	0	1.5640	0	34.6610	4	27.751	0	3191.053	0	96.3	4	28.7	4	-1E+10	1	-1E+10	1	-1E+10	1	-1E+10	1	-1E+10	1	-1E+10	1
4902642	11	C	10/08/2024	03:54	-131.379	45.077	0	3242.90	0	1.5640	0	34.6610	4	27.751	0	3192.030	0	96.2	4	28.7	4	-1E+10	1	-1E+10	1	-1E+10	1	-1E+10	1	-1E+10	1	-1E+10	1
4902642	11	C	10/08/2024	03:54	-131.379	45.077	0	3243.80	0	1.5640	0	34.6610	4	27.751	0	3192.910	0	96.2	4	28.7	4	-1E+10	1	-1E+10	1	-1E+10	1	-1E+10	1	-1E+10	1	-1E+10	1
4902642	11	C	10/08/2024	03:54	-131.379	45.077	0	3244.80	0	1.5630	0	34.6610	4	27.751	0	3193.887	0	96.2	4	28.7	4	-1E+10	1	-1E+10	1	-1E+10	1	-1E+10	1	-1E+10	1	-1E+10	1
4902642	11	C	10/08/2024	03:54	-131.379	45.077	0	3245.70	0	1.5630	0	34.6610	4	27.751	0	3194.766	0	96.2	4	28.7	4	-1E+10	1	-1E+10	1	-1E+10	1	-1E+10	1	-1E+10	1	-1E+10	1
4902642	11	C	10/08/2024	03:54	-131.379	45.077	0	3246.70	0	1.5640	0	34.6610	4	27.751	0	3195.743	0	96.2	4	28.7	4	-1E+10	1	-1E+10	1	-1E+10	1	-1E+10	1	-1E+10	1	-1E+10	1
4902642	11	C	10/08/2024	03:54	-131.379	45.077	0	3247.60	0	1.5640	0	34.6610	4	27.751	0	3196.622	0	96.2	4	28.7	4	-1E+10	1	-1E+10	1	-1E+10	1	-1E+10	1	-1E+10	1	-1E+10	1
4902642	11	C	10/08/2024	03:54	-131.379	45.077	0	3248.50	0	1.5640	0	34.6610	4	27.751	0	3197.502	0	96.2	4	28.7	4	-1E+10	1	-1E+10	1	-1E+10	1	-1E+10	1	-1E+10	1	-1E+10	1
4902642	11	C	10/08/2024	03:54	-131.379	45.077	0	3250.00	0	1.5640	0	34.6610	4	27.751	0	3198.967	0	96.2	4	28.7	4	-1E+10	1	-1E+10	1	-1E+10	1	-1E+10	1	-1E+10	1	-1E+10	1
4902642	11	C	10/08/2024	03:54	-131.379	45.077	0	3250.80	0	1.5640	0	34.6610	4	27.751	0	3199.749	0	96.2	4	28.7	4	-1E+10	1	-1E+10	1	-1E+10	1	-1E+10	1	-1E+10	1	-1E+10	1
4902642	11	C	10/08/2024	03:54	-131.379	45.077	0	3251.50	0	1.5640	0	34.6610	4	27.751	0	3200.432	0	96.2	4	28.7	4	-1E+10	1	-1E+10	1	-1E+10	1	-1E+10	1	-1E+10	1	-1E+10	1
4902642	11	C	10/08/2024	03:54	-131.379	45.077	0	3252.20	0	1.5640	0	34.6610	4	27.751	0	3201.116	0	96.2	4	28.7	4	-1E+10	1	-1E+10	1	-1E+10	1	-1E+10	1	-1E+10	1	-1E+10	1
4902642	11	C	10/08/2024	03:54	-131.379	45.077	0	3253.40	0	1.5640	0	34.6610	4	27.751	0	3202.289	0	96.2	4	28.7	4	-1E+10	1	-1E+10	1	-1E+10	1	-1E+10	1	-1E+10	1	-1E+10	1
4902642	11	C	10/08/2024	03:54	-131.379	45.077	0	3254.60	0	1.5640	0	34.6610	4	27.751	0	3203.461	0	96.2	4	28.7	4	-1E+10	1	-1E+10	1	-1E+10	1	-1E+10	1	-1E+10	1	-1E+10	1
4902642	11	C	10/08/2024	03:54	-131.379	45.077	0	3255.40	0	1.5640	0	34.6610	4	27.751	0	3204.242	0	96.2	4	28.7	4	-1E+10	1	-1E+10	1	-1E+10	1	-1E+10	1	-1E+10	1	-1E+10	1
4902642	11	C	10/08/2024	03:54	-131.379	45.077	0	3256.50	0	1.5640	0	34.6610	4	27.751	0	3205.317	0	96.2	4	28.7	4	-1E+10	1	-1E+10	1	-1E+10	1	-1E+10	1	-1E+10	1	-1E+10	1
4902642	11	C	10/08/2024	03:54	-131.379	45.077	0	3257.60	0	1.5650	0	34.6610	4	27.751	0	3206.392	0	96.2	4	28.7	4	-1E+10	1	-1E+10	1	-1E+10	1	-1E+10	1	-1E+10	1	-1E+10	1
4902642	11	C	10/08/2024	03:54	-131.379	45.077	0	3258.40	0	1.5650	0	34.6610	4	27.751	0	3207.173	0	96.2	4	28.7	4	-1E+10	1	-1E+10	1	-1E+10	1	-1E+10	1	-1E+10	1	-1E+10	1
4902642	11	C	10/08/2024	03:54	-131.379	45.077	0	3259.20	0	1.5650	0	34.6610	4	27.751	0	3207.955	0	96.2	4	28.7	4	-1E+10	1	-1E+10	1	-1E+10	1	-1E+10	1	-1E+10	1	-1E+10	1
4902642	11	C	10/08/2024	03:54	-131.379	45.077	0	3260.40	0	1.5650	0	34.6610	4	27.751	0	3209.127	0	96.2	4	28.7	4	-1E+10	1	-1E+10	1	-1E+10	1	-1E+10	1	-1E+10	1	-1E+10	1
4902642	11	C	10/08/2024	03:54	-131.379	45.077	0	3261.60	0	1.5650	0	34.6610	4	27.751	0	3210.300	0	96.2	4	28.7	4	-1E+10	1	-1E+10	1	-1E+10	1	-1E+10	1	-1E+10	1	-1E+10	1
4902642	11	C	10/08/2024	03:54	-131.379	45.077	0	3262.40	0	1.5650	0	34.6610	4	27.751	0	3211.081	0	96.2	4	28.7	4	-1E+10	1	-1E+10	1	-1E+10	1	-1E+10	1	-1E+10	1	-1E+10	1
4902642	11	C	10/08/2024	03:54	-131.379	45.077	0	3263.60	0	1.5650	0	34.6610	4	27.751	0	3212.253	0	96.2	4	28.7	4	-1E+10	1	-1E+10	1	-1E+10	1	-1E+10	1	-1E+10	1	-1E+10	1
4902642	11	C	10/08/2024	03:54	-131.379	45.077	0	3264.80	0	1.5650	0	34.6610	4	27.751	0	3213.426	0	96.3	4	28.7	4	-1E+10	1	-1E+10	1	-1E+10	1	-1E+10	1	-1E+10	1	-1E+10	1
4902642	11	C	10/08/2024	03:54	-131.379	45.077	0	3265.60	0	1.5650	0	34.6610	4	27.751	0	3214.207	0	96.2	4	28.7	4	-1E+10	1	-1E+10	1	-1E+10	1	-1E+10	1	-1E+10	1	-1E+10	1
4902642	11	C	10/08/2024	03:54	-131.379	45.077	0	3266.30	0	1.5660	0	34.6610	4	27.751	0	3214.891	0	96.2	4	28.7	4	-1E+10	1	-1E+10	1	-1E+10	1	-1E+10	1	-1E+10	1	-1E+10	1
4902642	11	C	10/08/2024	03:54	-131.379	45.077	0	3267.40	0	1.5650	0	34.6610	4	27.751	0	3215.965	0	96.2	4	28.7	4	-1E+10	1	-1E+10	1	-1E+10	1	-1E+10	1	-1E+10	1	-1E+10	1
4902642	11	C	10/08/2024	03:54	-131.379	45.077	0	3268.80	0	1.5660	0	34.6610	4	27.751	0	3217.333	0	96.2	4	28.7	4	-1E+10	1	-1E+10	1	-1E+10	1	-1E+10	1	-1E+10	1	-1E+10	1
4902642	11	C	10/08/2024	03:54	-131.379	45.077	0	3269.60	0	1.5660	0	34.6610	4	27.751	0	3218.115	0	96.2	4	28.7	4	-1E+10	1	-1E+10	1	-1E+10	1	-1E+10	1	-1E+10	1	-1E+10	1
4902642	11	C	10/08/2024	03:54	-131.379	45.077	0	3270.60	0	1.5660	0	34.6610	4	27.751	0	3219.091	0	96.2	4	28.7	4	-1E+10	1	-1E+10	1	-1E+10	1	-1E+10	1	-1E+10	1	-1E+10	1
4902642	11	C	10/08/2024	03:54	-131.379	45.077	0	3271.80	0	1.5660	0	34.6610	4	27.751	0	3220.264	0	96.2	4	28.7	4	-1E+10	1	-1E+10	1	-1E+10	1	-1E+10	1	-1E+10	1	-1E+10	1
4902642	11	C	10/08/2024	03:54	-131.379	45.077	0	3272.80	0	1.5660	0	34.6610	4	27.751	0	3221.241	0	96.2	4	28.7	4	-1E+10	1	-1E+10	1	-1E+10	1	-1E+10	1	-1E+10	1	-1E+10	1
4902642	11	C	10/08/2024	03:54	-131.379	45.077	0	3273.30	0	1.5660	0	34.6610	4	27.751	0	3221.729	0	96.2	4	28.7	4	-1E+10	1	-1E+10	1	-1E+10	1	-1E+10	1	-1E+10	1	-1E+10	1
4902642	11	C	10/08/2024	03:54	-131.379	45.077	0																										
4902642	12	C	10/18/2024	05:23	-131.434	45.211	0	0.80	0	16.7740	0	32.5990	0	23.726	0	0.793	0	220.8	4	90.7	4	-1E+10	1	-1E+10	1	-1E+10	1	-1E+10	1	-1E+10	1	-1E+10	1
4902642	12	C	10/18/2024	05:23	-131.434	45.211	0	0.90	0	16.7740	0	32.5960	0	23.724	0	0.893	0	220.8	4	90.7	4	-1E+10	1	-1E+10	1	-1E+10	1	-1E+10	1	-1E+10	1	-1E+10	1
4902642	12	C	10/18/2024	05:23	-131.434	45.211	0	1.00	0	16.7720	0	32.5995	0	23.727	0	0.992	0	220.9	4	90.7	4	-1E+10	1	-1E+10	1	-1E+10	1	-1E+10	1	-1E+10	1	-1E+10	1
4902642	12	C	10/18/2024	05:23	-131.434	45.211	0	1.10	0	16.7675	0	32.6010	0	23.729	0	1.091	0	220.9	4	90.8	4	-1E+10	1	-1E+10	1	-1E+10	1	-1E+10	1	-1E+10	1	-1E+10	1
4902642	12	C	10/18/2024	05:23	-131.434	45.211	0	1.20	0	16.7723	0	32.6013	0	23.728	0	1.190	0	220.8	4	90.7	4	-1E+10	1	-1E+10	1	-1E+10	1	-1E+10	1	-1E+10	1	-1E+10	1
4902642	12	C	10/18/2024	05:23	-131.434	45.211	0	1.30	0	16.7790	0	32.6010	0	23.726	0	1.289	0	-1e10	1	-1e10	1	-1E+10	1	-1E+10	1	-1E+10	1	-1E+10	1	-1E+10	1	-1E+10	1
4902642	12	C	10/18/2024	05:23	-131.434	45.211	0	1.70	0	16.7840	0	32.5990	0	23.724	0	1.686	0	220.9	4	90.8	4	-1E+10	1	-1E+10	1	-1E+10	1	-1E+10	1	-1E+10	1	-1E+10	1
4902642	12	C	10/18/2024	05:23	-131.434	45.211	0	2.40	0	16.7840	0	32.6040	0	23.727	0	2.380	0	220.9	4	90.8	4	-1E+10	1	-1E+10	1	-1E+10	1	-1E+10	1	-1E+10	1	-1E+10	1
4902642	12	C	10/18/2024	05:23	-131.434	45.211	0	3.50	0	16.7890	0	32.5970	0	23.721	0	3.471	0	220.7	4	90.7	4	-1E+10	1	-1E+10	1	-1E+10	1	-1E+10	1	-1E+10	1	-1E+10	1
4902642	12	C	10/18/2024	05:23	-131.434	45.211	0	4.60	0	16.7890	0	32.5990	0	23.722	0	4.563	0	220.8	4	90.7	4	-1E+10	1	-1E+10	1	-1E+10	1	-1E+10	1	-1E+10	1	-1E+10	1
4902642	12	C	10/18/2024	05:23	-131.434	45.211	0	5.30	0	16.7770	0	32.6020	0	23.728	0	5.257	0	220.8	4	90.7	4	-1E+10	1	-1E+10	1	-1E+10	1	-1E+10	1	-1E+10	1	-1E+10	1
4902642	12	C	10/18/2024	05:23	-131.434	45.211	0	6.50	0	16.7840	0	32.6010	0	23.725	0	6.447	0	220.8	4	90.7	4	-1E+10	1	-1E+10	1	-1E+10	1	-1E+10	1	-1E+10	1	-1E+10	1
4902642	12	C	10/18/2024	05:23	-131.434	45.211	0	8.10	0	16.7930	0	32.6030	0	23.725	0	8.034	0	220.7	4	90.7	4	-1E+10	1	-1E+10	1	-1E+10	1	-1E+10	1	-1E+10	1	-1E+10	1
4902642	12	C	10/18/2024	05:23	-131.434	45.211	0	9.20	0	16.7950	0	32.6020	0	23.724	0	9.125	0	220.8	4	90.7	4	-1E+10	1	-1E+10	1	-1E+10	1	-1E+10	1	-1E+10	1	-1E+10	1
4902642	12	C	10/18/2024	05:23	-131.434	45.211	0	15.20	0	16.7940	0	32.6020	0	23.724	0	15.076	0	220.8	4	90.7	4	-1E+10	1	-1E+10	1	-1E+10	1	-1E+10	1	-1E+10	1	-1E+10	1
4902642	12	C	10/18/2024	05:23	-131.434	45.211	0	25.10	0	16.7950	0	32.6020	0	23.724	0	24.894	0	221.1	4	90.9	4	-1E+10	1	-1E+10	1	-1E+10	1	-1E+10	1	-1E+10	1	-1E+10	1
4902642	12	C	10/18/2024	05:23	-131.434	45.211	0	35.10	0	16.7940	0	32.6010	0	23.724	0	34.811	0	223.6	4	91.9	4	-1E+10	1	-1E+10	1	-1E+10	1	-1E+10	1	-1E+10	1	-1E+10	1
4902642	12	C	10/18/2024	05:23	-131.434	45.211	0	44.80	0	15.1030	0	32.5960	0	24.099	0	44.431	0	244.9	4	97.4	4	-1E+10	1	-1E+10	1	-1E+10	1	-1E+10	1	-1E+10	1	-1E+10	1
4902642	12	C	10/18/2024	05:23	-131.434	45.211	0	55.30	0	11.8960	0	32.5950	0	24.743	0	54.843	0	258.8	4	96.5	4	-1E+10	1	-1E+10	1	-1E+10	1	-1E+10	1	-1E+10	1	-1E+10	1
4902642	12	C	10/18/2024	05:23	-131.434	45.211	0	64.90	0	10.9030	0	32.5810	0	24.911	0	64.362	0	256.1	4	93.5	4	-1E+10	1	-1E+10	1	-1E+10	1	-1E+10	1	-1E+10	1	-1E+10	1
4902642	12	C	10/18/2024	05:23	-131.434	45.211	0	74.90	0	10.4280	0	32.6130	0	25.018	0	74.277	0	250.8	4	90.6	4	-1E+10	1	-1E+10	1	-1E+10	1	-1E+10	1	-1E+10	1	-1E+10	1
4902642	12	C	10/18/2024	05:23	-131.434	45.211	0	85.00	0	9.9380	0	32.6180	0	25.105	0	84.291	0	245.5	4	87.8	4	-1E+10	1	-1E+10	1	-1E+10	1	-1E+10	1	-1E+10	1	-1E+10	1
4902642	12	C	10/18/2024	05:23	-131.434	45.211	0	94.90	0	9.7720	0	32.6410	0	25.150	0	94.106	0	241.5	4	86.0	4	-1E+10	1	-1E+10	1	-1E+10	1	-1E+10	1	-1E+10	1	-1E+10	1
4902642	12	C	10/18/2024	05:23	-131.434	45.211	0	104.80	0	9.5020	0	32.6740	0	25.220	0	103.921	0	236.9	4	83.9	4	-1E+10	1	-1E+10	1	-1E+10	1	-1E+10	1	-1E+10	1	-1E+10	1
4902642	12	C	10/18/2024	05:23	-131.434	45.211	0	115.10	0	9.3360	0	32.7490	0	25.305	0	114.132	0	228.2	4	80.6	4	-1E+10	1	-1E+10	1	-1E+10	1	-1E+10	1	-1E+10	1	-1E+10	1
4902642	12	C	10/18/2024	05:23	-131.434	45.211	0	124.60	0	8.8720	0	32.9120	0	25.506	0	123.549	0	215.8	4	75.5	4	-1E+10	1	-1E+10	1	-1E+10	1	-1E+10	1	-1E+10	1	-1E+10	1
4902642	12	C	10/18/2024	05:23	-131.434	45.211	0	135.20	0	8.4830	0	33.1500	0	25.752	0	134.056	0	207.1	4	72.0	4	-1E+10	1	-1E+10	1	-1E+10	1	-1E+10	1	-1E+10	1	-1E+10	1
4902642	12	C	10/18/2024	05:23	-131.434	45.211	0	145.00	0	8.0660	0	33.3270	0	25.953	0	143.770	0	202.8	4	69.9	4	-1E+10	1	-1E+10	1	-1E+10	1	-1E+10	1	-1E+10	1	-1E+10	1
4902642	12	C	10/18/2024	05:23	-131.434	45.211	0	155.00	0	7.6770	0	33.4550	0	26.110	0	153.681	0	200.0	4	68.4	4	-1E+10	1	-1E+10	1	-1E+10	1	-1E+10	1	-1E+10	1	-1E+10	1
4902642	12	C	10/18/2024	05:23	-131.434	45.211	0	164.90	0	7.3830	0	33.5590	0	26.233	0	163.493	0	197.2	4	67.1	4	-1E+10	1	-1E+10	1	-1E+10	1	-1E+10	1	-1E+10	1	-1E+10	1
4902642	12	C	10/18/2024	05:23	-131.434	45.211	0	174.60	0	7.2140	0	33.6220	0	26.306	0	173.106	0	192.5	4	65.3	4	-1E+10	1	-1E+10	1	-1E+10	1	-1E+10	1	-1E+10	1	-1E+10	1
4902642	12	C	10/18/2024	05:23	-131.434	45.211	0	184.90	0	7.1460	0	33.6850	0	26.366	0	183.313	0	185.9	4	63.0	4	-1E+10	1	-1E+10	1	-1E+10	1	-1E+10	1	-1E+10	1	-1E+10	1
4902642	12	C	10/18/2024	05:23	-131.434	45.211	0	195.10	0	7.0580	0	33.7210	0	26.406	0	193.421	0	179.8	4	60.8	4	-1E+10	1	-1E+10	1	-1E+10	1	-1E+10	1	-1E+10	1	-1E+10	1
4902642	12	C	10/18/2024	05:23	-131.434	45.211	0	210.20	0	6.8880	0	33.7540	0	26.455	0	208.384	0	168.7	4	56.8	4	-1E+10	1	-1E+10	1	-1E+10	1	-1E+10	1	-1E+10	1	-1E+10	1
4902642	12	C	10/18/2024	05:23	-131.434	45.211	0	229.90	0	6.7170	0	33.7970	0	26.512	0	227.903	0	144.9	4	48.6	4	-1E+10	1	-1E+10	1	-1E+10	1	-1E+10	1	-1E+10	1	-1E+10	1
4902642	12	C	10/18/2024	05:23	-131.434	45.211	0	249.80	0	6.4910	0	33.8140	0	26.556	0	247.618	0	133.2	4	44.5	4	-1E+10	1	-1E+10	1	-1E+10	1	-1E+10	1	-1E+10	1	-1E+10	1
4902642	12	C	10/18/2024	05:23	-131.434	45.211	0	269.90	0	6.1920	0	33.8100	0	26.591	0	267.529	0	128.3	4	42.5	4	-1E+10	1	-1E+10	1	-1E+10	1	-1E+10	1	-1E+10	1	-1E+10	1
4902642	12	C	10/18/2024	05:23	-131.434	45.211	0	289.80	0	5.9540	0	33.8250	0	26.633	0	287.240	0	114.2	4	37.6	4	-1E+10	1	-1E+10	1	-1E+10	1	-1E+10	1	-1E+10	1	-1E+10	1
4902642	12	C	10/18/2024	05:23	-131.434	45.211	0	310.00	0	5.8150	0	33.8420	0	26.664	0	307.247	0	102.6	4	33.7	4	-1E+10	1	-1E+10	1	-1E+10	1	-1E+10	1	-1E+10	1	-1E+10	1
4902642	12	C	10/18/2024	05:23	-131.434	45.211	0	329.70	0	5.6040	0	33.8590	0	26.703	0	326.757	0	92.3	4	30.2	4	-1E+10	1	-1E+10	1	-1E+10	1	-1E+10	1	-1E+10	1	-1E+10	1
4902642	12	C	10/18/2024	05:23	-131.434	45.211	0	350.00	0	5.4720	0	33.8860	0	26.741	0	346.858	0	80.0	4	26.1	4	-1E+10	1	-1E+10	1	-1E+10	1	-1E+10	1	-1E+10	1	-1E+10	1
4902642	12	C	10/18/2024	05:23	-131.434	45.211	0	370.20	0	5.2280	0	33.8900	0	26.773	0	366.859	0	74.9	4	24.3	4	-1E+10	1	-1E+10	1	-1E+10	1	-1E+10	1	-1E+10	1	-1E+10	1
4902642	12	C	10/18/2024	05:23	-131.434	45.211	0	390.20	0	5.1170	0	33.9090	0	26.801	0	386.660	0	67.3	4	21.8	4	-1E+10	1	-1E+10	1	-1E+10	1	-1E+10	1	-1E+10	1	-1E+10	1
4902642	12	C	10/18/2024	05:23	-131.434	45.211	0	410.50	0	4.9190	0	33.9210	0	26.833	0	406.756	0	61.2	4	19.7	4	-1E+10	1	-1E+10	1	-1E+10	1	-1E+10	1	-1E+10	1	-1E+10	1
4902642	12	C	10/18/2024	05:23	-131.434	45.211	0	429.70	0	4.8090	0	33.9410	0	26.861	0	425.761	0	55.0	4	17.7	4	-1E+10	1	-1E+10	1	-1E+10	1	-1E+10	1	-1E+10	1	-1E+10	1
4902642	12	C	10/18/2024	05:23	-131.434	45.211	0	449.80	0	4.7510	0	33.9660	0	26.887	0	445.655	0	48.2	4	15.5	4	-1E+10	1	-1E+10	1	-1E+10	1	-1E+10	1	-1E+10	1	-1E+10	1
4902642	12	C	10/18/2024	05:23	-131.434	45.211	0	469.70	0	4.7200	0	33.9900	0	26.910	0	465.350	0	43.0	4	13.8	4	-1E+10	1	-1E+10	1	-1E+10	1	-1E+10	1	-1E+10	1	-1E+10	1
4902642	12	C	10/18/2024	05:23	-131.434	45.211	0	489.90	0	4.6710	0	34.0160	0	26.936	0	485.339	0	36.7	4	11.8	4	-1E+10	1	-1E+10	1	-1E+10	1	-1E+10	1	-1E+10	1	-1E+10	1
4902642	12	C	10/18/2024	05:23	-131.434	45.211	0	510.00	0	4.6080	0	34.0420	0	26.964	0	505.228	0	31.9	4	10.2	4	-1E+10	1	-1E+10	1	-1E+10	1	-1E+10	1	-1E+10	1	-1E+10	1
4902642	12	C	10/18/2024	05:23	-131.434	45.211	0	529.90	0	4.5580	0	34.0570	0	26.981	0	524.916	0	28.8	4	9.2	4	-1E+10	1	-1E+10	1	-1E+10	1	-1E+10	1	-1E+10	1	-1E+10	1
4902642	12	C	10/18/2024	05:23	-131.434	45.211	0	549.70	0	4.5070	0	34.0720	0	26.999	0	544.504	0	26.0	4	8.3	4	-1E+10	1	-1E+10	1	-1E+10	1	-1E+10	1	-1E+10	1	-1E+10	1
4902642	12	C	10/18/2024	05:23	-131.434	45.211	0	569.90	0	4.4460	0	34.0860	0	27.017	0	564.486	0	23.1	4	7.4	4	-1E+10	1	-1E+10	1	-1E+10	1	-1E+10	1	-1E+10	1	-1E+10	1
4902642	12	C	10/18/2024	05:23	-131.434	45.211	0	590.30	0	4.3940	0	34.1050	0	27.038	0	584.663	0	19.8	4	6.3	4	-1E+10	1	-1E+10	1	-1E+10	1	-1E+10	1	-1E+10	1	-1E+10	1
4902642	12	C	10/18/2024	05:23	-131.434	45.211	0	610.10	0	4.3850	0	34.1330	0	27.061	0	604.246	0	16.2	4	5.2	4	-1E+10	1	-1E+10	1	-1E+10	1	-1E+10	1	-1E+10	1	-1E+10	1
4902642	12	C	10/18/2024	05:23	-131.434	45.211	0	630.10	0	4.3620	0	34.1520	0	27.079	0	624.024	0	14.0	4	4.5	4	-1E+10	1	-1E+10	1	-1E+10	1	-1E+10	1	-1E+10	1	-1E+10	1
4902642	12	C	10/18/2024	05:23	-131.434	45.211	0	650.10	0	4.3170	0	34.1700	0	27.098	0	643.800	0	12.0	4	3.8	4	-1E+10	1	-1E+10	1	-1E+10	1	-1E+10	1	-1E+10	1	-1E+10	1
4902642	12	C	10/18/2024	05:23	-131.434	45.211	0	670.00	0	4.3360	0	34.2010	0	27.121	0	663.475	0	9.7	4	3.1	4	-1E+10	1	-1E+10	1	-1E+10	1	-1E+10	1	-1E+10	1	-1E+10	1
4902642	12	C	10/18/2024	05:23	-131.434	45.211	0	689.80	0	4.3260	0	34.2170	0	27.135	0	683.050	0	8.8	4	2.8	4	-1E+10	1	-1E+10	1	-1E+10	1	-1E+10	1	-1E+10	1	-1E+10	1
4902642	12	C	10/18/2024	05:23	-131.434	45.211	0	710.00	0	4.2440	0	34.2280	0	27.152	0	703.018	0	8.1	4	2.6	4	-1E+10	1	-1E+10	1	-1E+10	1	-1E+10	1	-1E+10	1	-1E+10	1
4902642	12	C	10/18/2024	05:23	-131.434	45.211	0	731.00	0	4.1770	0	34.2440	0	27.172	0	723.776	0	7.2	4	2.3	4	-1E+10	1	-1E+10	1	-1E+10	1	-1E+10	1	-1E+10	1	-1E+10	1
4902642	12	C	10/18/2024	05:23	-131.434	45.211	0	749.70	0	4.0530	0	34.2500	0	27.190	0	742.258	0	7.0	4	2.2	4	-1E+10	1	-1E+10	1	-1E+10	1	-1E+10	1	-1E+10	1	-1E+10	1
4902642	12	C	10/18/2024	05:23	-131.434	45.211	0	769.80	0	3.9880	0	34.2610	0	27.205	0	762.121	0	6.5	4	2.1	4	-1E+10	1	-1E+10	1	-1E+10	1	-1E+10	1	-1E+10	1	-1E+10	1
4902642	12	C	10/18/2024	05:23	-131.434	45.211	0	789.80	0	3.9540	0	34.2760	0	27.221	0	781.884	0	6.0	4	1.9	4	-1E+10	1	-1E+10	1	-1E+10	1	-1E+10	1	-1E+10	1	-1E+10	1
4902642	12	C	10/18/2024	05:23	-131.434	45.211	0	809.80	0	3.9320	0	34.2920	0	27.236	0	801.646	0	5.6	4	1.8	4	-1E+10	1	-1E+10	1	-1E+10	1	-1E+10	1	-1E+10	1	-1E+10	1
4902642	12	C	10/18/2024	05:23	-131.434	45.211	0	829.60	0	3.8980	0	34.3020	0	27.248	0	821.207	0	5.4	4	1.7	4	-1E+10	1	-1E+10	1	-1E+10	1	-1E+10	1	-1E+10	1	-1E+10	1
4902642	12	C	10/18/2024	05:23	-131.434	45.211	0	849.70	0	3.8680	0	34.3180	0	27.264	0	841.063	0	5.2	4	1.6	4	-1E+10	1	-1E+10	1	-1E+10	1	-1E+10	1	-1E+10	1	-1E+10	1
4902642	12	C	10/18/2024	05:23	-131.434	45.211	0	869.90	0	3.8190	0	34.3320	0	27.280	0	861.017	0	5.2	4	1.6	4	-1E+10	1	-1E+10	1	-1E+10	1	-1E+10	1	-1E+10	1	-1E+10	1
4902642	12	C	10/18/2024	05:23	-131.434	45.211	0	890.00	0	3.7590	0	34.3420	0	27.294	0	880.869	0	5.2	4	1.6	4	-1E+10	1	-1E+10	1	-1E+10	1	-1E+10	1	-1E+10	1	-1E+10	1
4902642	12	C	10/18/2024	05:23	-131.434	45.211	0	909.90	0	3.7000	0	34.3540	0	27.309	0	900.522	0	5.4	4	1.7	4	-1E+10	1	-1E+10	1	-1E+10	1	-1E+10	1	-1E+10	1	-1E+10	1
4902642	12	C	10/18/2024	05:23	-131.434	45.211	0	929.60	0	3.6630	0	34.3630	0	27.320	0	919.976	0	5.5	4	1.7	4	-1E+10	1	-1E+10	1	-1E+10	1	-1E+10	1	-1E+10	1	-1E+10	1
4902642	12	C	10/18/2024	05:23	-131.434	45.211	0	949.40	0	3.6070	0	34.3690	0	27.331	0	939.526	0	5.6	4	1.7	4	-1E+10	1	-1E+10	1	-1E+10	1	-1E+10	1	-1E+10	1	-1E+10	1
4902642	12	C	10/18/2024	05:23	-131.434	45.211	0	969.70	0	3.5630	0	34.3800	0	27.344	0	959.569	0	5.8	4	1.8	4	-1E+10	1	-1E+10	1	-1E+10	1	-1E+10	1	-1E+10	1	-1E+10	1
4902642	12	C	10/18/2024	05:23	-131.434	45.211	0	989.70	0	3.5310	0	34.3860	0	27.352	0	979.313	0	6.0	4	1.9	4	-1E+10	1	-1E+10	1	-1E+10	1	-1E+10	1	-1E+10	1	-1E+10	1
4902642	12	C	10/18/2024	05:23	-131.434	45.211	0	1009.90	0	3.5090	0	34.3910	0	27.358	0	999.253	0	6.3	4	2.0	4	-1E+10	1	-1E+10	1	-1E+10	1	-1E+10	1	-1E+10	1	-1E+10	1
4902642	12	C	10/18/2024	05:23	-131.434	45.211	0	1029.80	0	3.4870	0	34.4020	0	27.369	0	1018.895	0	6.8	4	2.1	4	-1E+10	1	-1E+10	1	-1E+10	1	-1E+10	1	-1E+10	1	-1E+10	1
4902642	12	C	10/18/2024	05:23	-131.434	45.211	0	1049.80	0	3.4320	0	34.4050	0	27.377	0	1038.634	0	7.0	4	2.2	4	-1E+10	1	-1E+10	1	-1E+10	1	-1E+10	1	-1E+10	1	-1E+10	1
4902642	12	C	10/18/2024	05:23	-131.434	45.211	0	1070.10	0	3.3850	0	34.4160	0	27.390	0	1058.666	0	7.8	4	2.4	4	-1E+10	1	-1E+10	1	-1E+10	1	-1E+10	1	-1E+10	1	-1E+10	1
4902642	12	C	10/18/2024	05:23	-131.434	45.211	0	1090.10	0	3.3370	0	34.4250	0	27.402	0	1078.401	0	8.4	4	2.6	4	-1E+10	1	-1E+10	1	-1E+10	1	-1E+10	1	-1E+10	1	-1E+10	1
4902642	12	C	10/18/2024	05:23	-131.434	45.211	0	1110.10	0	3.2890	0	34.4310	0	27.411	0	1098.134	0	8.8	4	2.7	4	-1E+10	1	-1E+10	1	-1E+10	1	-1E+10	1	-1E+10	1	-1E+10	1
4902642	12	C	10/18/2024	05:23	-131.434	45.211	0	1129.90	0	3.2470	0	34.4360	0	27.420	0	1117.668	0	9.2	4	2.9	4	-1E+10	1	-1E+10	1	-1E+10	1	-1E+10	1	-1E+10	1	-1E+10	1
4902642	12	C	10/18/2024	05:23	-131.434	45.211	0	1149.60	0	3.2030	0	34.4400	0	27.427	0	1137.102	0	9.6	4	3.0	4	-1E+10	1	-1E+10	1	-1E+10	1	-1E+10	1	-1E+10	1	-1E+10	1
4902642	12	C	10/18/2024	05:23	-131.434	45.211	0	1169.60	0	3.1620	0	34.4440	0	27.434	0	1156.829	0	10.0	4	3.1	4	-1E+10	1	-1E+10	1	-1E+10	1	-1E+10	1	-1E+10	1	-1E+10	1
4902642	12	C	10/18/2024	05:23	-131.434	45.211	0	1190.40	0	3.1200	0	34.4490	0	27.442	0	1177.344	0	10.4	4	3.2	4	-1E+10	1	-1E+10	1	-1E+10	1	-1E+10	1	-1E+10	1	-1E+10	1
4902642	12	C	10/18/2024	05:23	-131.434	45.211	0	1209.70	0	3.0790	0	34.4530	0	27.449	0	1196.377	0	10.8	4	3.4	4	-1E+10	1	-1E+10	1	-1E+10	1	-1E+10	1	-1E+10	1	-1E+10	1
4902642	12	C	10/18/2024	05:23	-131.434	45.211	0	1229.90	0	3.0300	0	34.4580	0	27.458	0	1216.297	0	11.4	4	3.5	4	-1E+10	1	-1E+10	1	-1E+10	1	-1E+10	1	-1E+10	1	-1E+10	1
4902642	12	C	10/18/2024	05:23	-131.434	45.211	0	1250.30	0	2.9960	0	34.4620	0	27.464	0	1236.411	0	11.9	4	3.7	4	-1E+10	1	-1E+10	1	-1E+10	1	-1E+10	1	-1E+10	1	-1E+10	1
4902642	12	C	10/18/2024	05:23	-131.434	45.211	0	1270.20	0	2.9650	0	34.4650	0	27.469	0	1256.031	0	12.4	4	3.8	4	-1E+10	1	-1E+10	1	-1E+10	1	-1E+10	1	-1E+10	1	-1E+10	1
4902642	12	C	10/18/2024	05:23	-131.434	45.211	0	1290.10	0	2.9180	0	34.4690	0	27.477	0	1275.648	0	13.0	4	4.0	4	-1E+10	1	-1E+10	1	-1E+10	1	-1E+10	1	-1E+10	1	-1E+10	1
4902642	12	C	10/18/2024	05:23	-131.434	45.211	0	1310.20	0	2.8830	0	34.4730	0	27.483	0	1295.461	0	13.5	4	4.2	4	-1E+10	1	-1E+10	1	-1E+10	1	-1E+10	1	-1E+10	1	-1E+10	1
4902642	12	C	10/18/2024	05:23	-131.434	45.211	0	1330.00	0	2.8480	0	34.4770	0	27.490	0	1314.977	0	14.2	4	4.4	4	-1E+10	1	-1E+10	1	-1E+10	1	-1E+10	1	-1E+10	1	-1E+10	1
4902642	12	C	10/18/2024	05:23	-131.434	45.211	0	1350.50	0	2.8050	0	34.4810	0	27.497	0	1335.180	0	14.9	4	4.6	4	-1E+10	1	-1E+10	1	-1E+10	1	-1E+10	1	-1E+10	1	-1E+10	1
4902642	12	C	10/18/2024	05:23	-131.434	45.211	0	1369.80	0	2.7610	0	34.4860	0	27.505	0	1354.200	0	15.8	4	4.8	4	-1E+10	1	-1E+10	1	-1E+10	1	-1E+10	1	-1E+10	1	-1E+10	1
4902642	12	C	10/18/2024	05:23	-131.434	45.211	0	1390.00	0	2.7280	0	34.4900	0	27.511	0	1374.104	0	16.6	4	5.1	4	-1E+10	1	-1E+10	1	-1E+10	1	-1E+10	1	-1E+10	1	-1E+10	1
4902642	12	C	10/18/2024	05:23	-131.434	45.211	0	1410.20	0	2.7010	0	34.4940	0	27.516	0	1394.006	0	17.4	4	5.3	4	-1E+10	1	-1E+10	1	-1E+10	1	-1E+10	1	-1E+10	1	-1E+10	1
4902642	12	C	10/18/2024	05:23	-131.434	45.211	0	1430.20	0	2.6710	0	34.4980	0	27.522	0	1413.709	0	18.3	4	5.6	4	-1E+10	1	-1E+10	1	-1E+10	1	-1E+10	1	-1E+10	1	-1E+10	1
4902642	12	C	10/18/2024	05:23	-131.434	45.211	0	1450.00	0	2.6270	0	34.5040	0	27.531	0	1433.214	0	19.7	4	6.0	4	-1E+10	1	-1E+10	1	-1E+10	1	-1E+10	1	-1E+10	1	-1E+10	1
4902642	12	C	10/18/2024	05:23	-131.434	45.211	0	1470.10	0	2.5830	0	34.5090	0	27.539	0	1453.012	0	21.0	4	6.4	4	-1E+10	1	-1E+10	1	-1E+10	1	-1E+10	1	-1E+10	1	-1E+10	1
4902642	12	C	10/18/2024	05:23	-131.434	45.211	0	1490.10	0	2.5430	0	34.5140	0	27.546	0	1472.710	0	22.2	4	6.8	4	-1E+10	1	-1E+10	1	-1E+10	1	-1E+10	1	-1E+10	1	-1E+10	1
4902642	12	C	10/18/2024	05:23	-131.434	45.211	0	1510.00	0	2.5010	0	34.5180	0	27.553	0	1492.308	0	23.5	4	7.2	4	-1E+10	1	-1E+10	1	-1E+10	1	-1E+10	1	-1E+10	1	-1E+10	1
4902642	12	C	10/18/2024	05:23	-131.434	45.211	0	1529.80	0	2.4630	0	34.5240	0	27.561	0	1511.805	0	24.8	4	7.6	4	-1E+10	1	-1E+10	1	-1E+10	1	-1E+10	1	-1E+10	1	-1E+10	1
4902642	12	C	10/18/2024	05:23	-131.434	45.211	0	1550.10	0	2.4260	0	34.5280	0	27.568	0	1531.793	0	26.1	4	7.9	4	-1E+10	1	-1E+10	1	-1E+10	1	-1E+10	1	-1E+10	1	-1E+10	1
4902642	12	C	10/18/2024	05:23	-131.434	45.211	0	1570.00	0	2.3930	0	34.5320	0	27.574	0	1551.385	0	27.2	4	8.3	4	-1E+10	1	-1E+10	1	-1E+10	1	-1E+10	1	-1E+10	1	-1E+10	1
4902642	12	C	10/18/2024	05:23	-131.434	45.211	0	1590.00	0	2.3690	0	34.5350	0	27.578	0	1571.073	0	28.0	4	8.5	4	-1E+10	1	-1E+10	1	-1E+10	1	-1E+10	1	-1E+10	1	-1E+10	1
4902642	12	C	10/18/2024	05:23	-131.434	45.211	0	1610.30	0	2.3470	0	34.5380	0	27.582	0	1591.055	0	29.2	4	8.9	4	-1E+10	1	-1E+10	1	-1E+10	1	-1E+10	1	-1E+10	1	-1E+10	1
4902642	12	C	10/18/2024	05:23	-131.434	45.211	0	1630.00	0	2.3130	0	34.5420	0	27.589	0	1610.445	0	30.6	4	9.3	4	-1E+10	1	-1E+10	1	-1E+10	1	-1E+10	1	-1E+10	1	-1E+10	1
4902642	12	C	10/18/2024	05:23	-131.434	45.211	0	1650.00	0	2.2750	0	34.5460	0	27.595	0	1630.128	0	32.2	4	9.8	4	-1E+10	1	-1E+10	1	-1E+10	1	-1E+10	1	-1E+10	1	-1E+10	1
4902642	12	C	10/18/2024	05:23	-131.434	45.211	0	1670.70	0	2.2460	0	34.5500	0	27.601	0	1650.498	0	33.4	4	10.1	4	-1E+10	1	-1E+10	1	-1E+10	1	-1E+10	1	-1E+10	1	-1E+10	1
4902642	12	C	10/18/2024	05:23	-131.434	45.211	0	1689.90	0	2.2280	0	34.5530	0	27.604	0	1669.391	0	34.4	4	10.4	4	-1E+10	1	-1E+10	1	-1E+10	1	-1E+10	1	-1E+10	1	-1E+10	1
4902642	12	C	10/18/2024	05:23	-131.434	45.211	0	1710.00	0	2.2020	0	34.5560	0	27.609	0	1689.167	0	35.7	4	10.8	4	-1E+10	1	-1E+10	1	-1E+10	1	-1E+10	1	-1E+10	1	-1E+10	1
4902642	12	C	10/18/2024	05:23	-131.434	45.211	0	1729.80	0	2.1810	0	34.5590	0	27.613	0	1708.646	0	36.8	4	11.1	4	-1E+10	1	-1E+10	1	-1E+10	1	-1E+10	1	-1E+10	1	-1E+10	1
4902642	12	C	10/18/2024	05:23	-131.434	45.211	0	1750.00	0	2.1630	0	34.5620	0	27.617	0	1728.517	0	37.9	4	11.5	4	-1E+10	1	-1E+10	1	-1E+10	1	-1E+10	1	-1E+10	1	-1E+10	1
4902642	12	C	10/18/2024	05:23	-131.434	45.211	0	1769.70	0	2.1380	0	34.5650	0	27.622	0	1747.894	0	39.2	4	11.8	4	-1E+10	1	-1E+10	1	-1E+10	1	-1E+10	1	-1E+10	1	-1E+10	1
4902642	12	C	10/18/2024	05:23	-131.434	45.211	0	1789.70	0	2.1090	0	34.5690	0	27.627	0	1767.564	0	40.8	4	12.3	4	-1E+10	1	-1E+10	1	-1E+10	1	-1E+10	1	-1E+10	1	-1E+10	1
4902642	12	C	10/18/2024	05:23	-131.434	45.211	0	1809.90	0	2.0850	0	34.5720	0	27.632	0	1787.429	0	42.1	4	12.7	4	-1E+10	1	-1E+10	1	-1E+10	1	-1E+10	1	-1E+10	1	-1E+10	1
4902642	12	C	10/18/2024	05:23	-131.434	45.211	0	1829.90	0	2.0690	0	34.5750	0	27.635	0	1807.096	0	43.2	4	13.0	4	-1E+10	1	-1E+10	1	-1E+10	1	-1E+10	1	-1E+10	1	-1E+10	1
4902642	12	C	10/18/2024	05:23	-131.434	45.211	0	1849.70	0	2.0570	0	34.5780	0	27.639	0	1826.564	0	44.1	4	13.3	4	-1E+10	1	-1E+10	1	-1E+10	1	-1E+10	1	-1E+10	1	-1E+10	1
4902642	12	C	10/18/2024	05:23	-131.434	45.211	0	1869.80	0	2.0460	0	34.5800	0	27.642	0	1846.326	0	44.9	4	13.6	4	-1E+10	1	-1E+10	1	-1E+10	1	-1E+10	1	-1E+10	1	-1E+10	1
4902642	12	C	10/18/2024	05:23	-131.434	45.211	0	1890.30	0	2.0280	0	34.5820	0	27.645	0	1866.478	0	45.9	4	13.8	4	-1E+10	1	-1E+10	1	-1E+10	1	-1E+10	1	-1E+10	1	-1E+10	1
4902642	12	C	10/18/2024	05:23	-131.434	45.211	0	1910.00	0	2.0150	0	34.5850	0	27.648	0	1885.843	0	46.7	4	14.1	4	-1E+10	1	-1E+10	1	-1E+10	1	-1E+10	1	-1E+10	1	-1E+10	1
4902642	12	C	10/18/2024	05:23	-131.434	45.211	0	1930.50	0	2.0080	0	34.5860	0	27.650	0	1905.992	0	47.3	4	14.3	4	-1E+10	1	-1E+10	1	-1E+10	1	-1E+10	1	-1E+10	1	-1E+10	1
4902642	12	C	10/18/2024	05:23	-131.434	45.211	0	1950.20	0	1.9960	0	34.5880	0	27.652	0	1925.353	0	48.2	4	14.5	4	-1E+10	1	-1E+10	1	-1E+10	1	-1E+10	1	-1E+10	1	-1E+10	1
4902642	12	C	10/18/2024	05:23	-131.434	45.211	0	1970.10	0	1.9870	0	34.5890	0	27.654	0	1944.908	0	48.7	4	14.7	4	-1E+10	1	-1E+10	1	-1E+10	1	-1E+10	1	-1E+10	1	-1E+10	1
4902642	12	C	10/18/2024	05:23	-131.434	45.211	0	1990.10	0	1.9760	0	34.5910	0	27.656	0	1964.560	0	49.6	4	15.0	4	-1E+10	1	-1E+10	1	-1E+10	1	-1E+10	1	-1E+10	1	-1E+10	1
4902642	12	C	10/18/2024	05:23	-131.434	45.211	0	2010.10	0	1.9600	0	34.5940	4	27.660	0	1984.211	0	50.6	4	15.3	4	-1E+10	1	-1E+10	1	-1E+10	1	-1E+10	1	-1E+10	1	-1E+10	1
4902642	12	C	10/18/2024	05:23	-131.434	45.211	0	2029.70	0	1.9530	0	34.5950	4	27.662	0	2003.466	0	51.2	4	15.4	4	-1E+10	1	-1E+10	1	-1E+10	1	-1E+10	1	-1E+10	1	-1E+10	1
4902642	12	C	10/18/2024	05:23	-131.434	45.211	0	2049.90	0	1.9460	0	34.5960	4	27.663	0	2023.309	0	51.8	4	15.6	4	-1E+10	1	-1E+10	1	-1E+10	1	-1E+10	1	-1E+10	1	-1E+10	1
4902642	12	C	10/18/2024	05:23	-131.434	45.211	0	2070.10	0	1.9400	0	34.5970	4	27.664	0	2043.151	0	52.3	4	15.8	4	-1E+10	1	-1E+10	1	-1E+10	1	-1E+10	1	-1E+10	1	-1E+10	1
4902642	12	C	10/18/2024	05:23	-131.434	45.211	0	2090.00	0	1.9330	0	34.5990	4	27.667	0	2062.695	0	52.9	4	15.9	4	-1E+10	1	-1E+10	1	-1E+10	1	-1E+10	1	-1E+10	1	-1E+10	1
4902642	12	C	10/18/2024	05:23	-131.434	45.211	0	2109.70	0	1.9280	0	34.5990	4	27.667	0	2082.042	0	53.5	4	16.1	4	-1E+10	1	-1E+10	1	-1E+10	1	-1E+10	1	-1E+10	1	-1E+10	1
4902642	12	C	10/18/2024	05:23	-131.434	45.211	0	2129.60	0	1.9180	0	34.6010	4	27.670	0	2101.583	0	54.4	4	16.4	4	-1E+10	1	-1E+10	1	-1E+10	1	-1E+10	1	-1E+10	1	-1E+10	1
4902642	12	C	10/18/2024	05:23	-131.434	45.211	0	2149.60	0	1.9100	0	34.6030	4	27.672	0	2121.221	0	55.1	4	16.6	4	-1E+10	1	-1E+10	1	-1E+10	1	-1E+10	1	-1E+10	1	-1E+10	1
4902642	12	C	10/18/2024	05:23	-131.434	45.211	0	2169.80	0	1.9020	0	34.6040	4	27.674	0	2141.053	0	55.8	4	16.8	4	-1E+10	1	-1E+10	1	-1E+10	1	-1E+10	1	-1E+10	1	-1E+10	1
4902642	12	C	10/18/2024	05:23	-131.434	45.211	0	2190.10	0	1.8950	0	34.6060	4	27.676	0	2160.982	0	56.4	4	17.0	4	-1E+10	1	-1E+10	1	-1E+10	1	-1E+10	1	-1E+10	1	-1E+10	1
4902642	12	C	10/18/2024	05:23	-131.434	45.211	0	2210.30	0	1.8870	0	34.6070	4	27.677	0	2180.810	0	57.2	4	17.2	4	-1E+10	1	-1E+10	1	-1E+10	1	-1E+10	1	-1E+10	1	-1E+10	1
4902642	12	C	10/18/2024	05:23	-131.434	45.211	0	2230.10	0	1.8790	0	34.6090	4	27.680	0	2200.244	0	58.0	4	17.4	4	-1E+10	1	-1E+10	1	-1E+10	1	-1E+10	1	-1E+10	1	-1E+10	1
4902642	12	C	10/18/2024	05:23	-131.434	45.211	0	2249.90	0	1.8710	0	34.6100	4	27.681	0	2219.676	0	58.8	4	17.7	4	-1E+10	1	-1E+10	1	-1E+10	1	-1E+10	1	-1E+10	1	-1E+10	1
4902642	12	C	10/18/2024	05:23	-131.434	45.211	0	2269.60	0	1.8640	0	34.6110	4	27.683	0	2239.009	0	59.4	4	17.8	4	-1E+10	1	-1E+10	1	-1E+10	1	-1E+10	1	-1E+10	1	-1E+10	1
4902642	12	C	10/18/2024	05:23	-131.434	45.211	0	2289.90	0	1.8570	0	34.6130	4	27.685	0	2258.928	0	60.2	4	18.1	4	-1E+10	1	-1E+10	1	-1E+10	1	-1E+10	1	-1E+10	1	-1E+10	1
4902642	12	C	10/18/2024	05:23	-131.434	45.211	0	2309.90	0	1.8470	0	34.6140	4	27.687	0	2278.551	0	60.9	4	18.3	4	-1E+10	1	-1E+10	1	-1E+10	1	-1E+10	1	-1E+10	1	-1E+10	1
4902642	12	C	10/18/2024	05:23	-131.434	45.211	0	2330.30	0	1.8420	0	34.6150	4	27.688	0	2298.565	0	61.5	4	18.5	4	-1E+10	1	-1E+10	1	-1E+10	1	-1E+10	1	-1E+10	1	-1E+10	1
4902642	12	C	10/18/2024	05:23	-131.434	45.211	0	2350.30	0	1.8350	0	34.6170	4	27.690	0	2318.185	0	62.3	4	18.7	4	-1E+10	1	-1E+10	1	-1E+10	1	-1E+10	1	-1E+10	1	-1E+10	1
4902642	12	C	10/18/2024	05:23	-131.434	45.211	0	2370.30	0	1.8280	0	34.6180	4	27.692	0	2337.803	0	63.0	4	18.9	4	-1E+10	1	-1E+10	1	-1E+10	1	-1E+10	1	-1E+10	1	-1E+10	1
4902642	12	C	10/18/2024	05:23	-131.434	45.211	0	2390.20	0	1.8240	0	34.6190	4	27.693	0	2357.321	0	63.5	4	19.1	4	-1E+10	1	-1E+10	1	-1E+10	1	-1E+10	1	-1E+10	1	-1E+10	1
4902642	12	C	10/18/2024	05:23	-131.434	45.211	0	2410.20	0	1.8180	0	34.6200	4	27.694	0	2376.935	0	64.2	4	19.3	4	-1E+10	1	-1E+10	1	-1E+10	1	-1E+10	1	-1E+10	1	-1E+10	1
4902642	12	C	10/18/2024	05:23	-131.434	45.211	0	2430.50	0	1.8120	0	34.6210	4	27.696	0	2396.841	0	64.9	4	19.5	4	-1E+10	1	-1E+10	1	-1E+10	1	-1E+10	1	-1E+10	1	-1E+10	1
4902642	12	C	10/18/2024	05:23	-131.434	45.211	0	2450.00	0	1.8050	0	34.6230	4	27.698	0	2415.962	0	65.7	4	19.7	4	-1E+10	1	-1E+10	1	-1E+10	1	-1E+10	1	-1E+10	1	-1E+10	1
4902642	12	C	10/18/2024	05:23	-131.434	45.211	0	2470.10	0	1.8010	0	34.6230	4	27.698	0	2435.669	0	66.2	4	19.9	4	-1E+10	1	-1E+10	1	-1E+10	1	-1E+10	1	-1E+10	1	-1E+10	1
4902642	12	C	10/18/2024	05:23	-131.434	45.211	0	2490.00	0	1.7960	0	34.6240	4	27.700	0	2455.178	0	66.9	4	20.1	4	-1E+10	1	-1E+10	1	-1E+10	1	-1E+10	1	-1E+10	1	-1E+10	1
4902642	12	C	10/18/2024	05:23	-131.434	45.211	0	2509.80	0	1.7910	0	34.6250	4	27.701	0	2474.587	0	67.5	4	20.2	4	-1E+10	1	-1E+10	1	-1E+10	1	-1E+10	1	-1E+10	1	-1E+10	1
4902642	12	C	10/18/2024	05:23	-131.434	45.211	0	2530.00	0	1.7840	0	34.6260	4	27.702	0	2494.386	0	68.3	4	20.5	4	-1E+10	1	-1E+10	1	-1E+10	1	-1E+10	1	-1E+10	1	-1E+10	1
4902642	12	C	10/18/2024	05:23	-131.434	45.211	0	2550.20	0	1.7760	0	34.6270	4	27.704	0	2514.184	0	69.2	4	20.7	4	-1E+10	1	-1E+10	1	-1E+10	1	-1E+10	1	-1E+10	1	-1E+10	1
4902642	12	C	10/18/2024	05:23	-131.434	45.211	0	2570.00	0	1.7720	0	34.6290	4	27.706	0	2533.588	0	69.7	4	20.9	4	-1E+10	1	-1E+10	1	-1E+10	1	-1E+10	1	-1E+10	1	-1E+10	1
4902642	12	C	10/18/2024	05:23	-131.434	45.211	0	2590.30	0	1.7680	0	34.6290	4	27.706	0	2553.480	0	70.3	4	21.1	4	-1E+10	1	-1E+10	1	-1E+10	1	-1E+10	1	-1E+10	1	-1E+10	1
4902642	12	C	10/18/2024	05:23	-131.434	45.211	0	2610.10	0	1.7620	0	34.6300	4	27.708	0	2572.880	0	71.0	4	21.3	4	-1E+10	1	-1E+10	1	-1E+10	1	-1E+10	1	-1E+10	1	-1E+10	1
4902642	12	C	10/18/2024	05:23	-131.434	45.211	0	2630.10	0	1.7550	0	34.6310	4	27.709	0	2592.475	0	71.7	4	21.5	4	-1E+10	1	-1E+10	1	-1E+10	1	-1E+10	1	-1E+10	1	-1E+10	1
4902642	12	C	10/18/2024	05:23	-131.434	45.211	0	2650.10	0	1.7490	0	34.6320	4	27.710	0	2612.067	0	72.3	4	21.7	4	-1E+10	1	-1E+10	1	-1E+10	1	-1E+10	1	-1E+10	1	-1E+10	1
4902642	12	C	10/18/2024	05:23	-131.434	45.211	0	2670.00	0	1.7440	0	34.6330	4	27.712	0	2631.560	0	73.0	4	21.9	4	-1E+10	1	-1E+10	1	-1E+10	1	-1E+10	1	-1E+10	1	-1E+10	1
4902642	12	C	10/18/2024	05:23	-131.434	45.211	0	2690.30	0	1.7350	0	34.6340	4	27.713	0	2651.443	0	73.9	4	22.1	4	-1E+10	1	-1E+10	1	-1E+10	1	-1E+10	1	-1E+10	1	-1E+10	1
4902642	12	C	10/18/2024	05:23	-131.434	45.211	0	2709.80	0	1.7300	0	34.6350	4	27.715	0	2670.541	0	74.5	4	22.3	4	-1E+10	1	-1E+10	1	-1E+10	1	-1E+10	1	-1E+10	1	-1E+10	1
4902642	12	C	10/18/2024	05:23	-131.434	45.211	0	2729.90	0	1.7220	0	34.6360	4	27.716	0	2690.225	0	75.4	4	22.6	4	-1E+10	1	-1E+10	1	-1E+10	1	-1E+10	1	-1E+10	1	-1E+10	1
4902642	12	C	10/18/2024	05:23	-131.434	45.211	0	2749.90	0	1.7150	0	34.6360	4	27.717	0	2709.808	0	76.2	4	22.8	4	-1E+10	1	-1E+10	1	-1E+10	1	-1E+10	1	-1E+10	1	-1E+10	1
4902642	12	C	10/18/2024	05:23	-131.434	45.211	0	2770.00	0	1.7060	0	34.6370	4	27.718	0	2729.488	0	77.2	4	23.1	4	-1E+10	1	-1E+10	1	-1E+10	1	-1E+10	1	-1E+10	1	-1E+10	1
4902642	12	C	10/18/2024	05:23	-131.434	45.211	0	2790.10	0	1.6980	0	34.6390	4	27.721	0	2749.167	0	78.0	4	23.4	4	-1E+10	1	-1E+10	1	-1E+10	1	-1E+10	1	-1E+10	1	-1E+10	1
4902642	12	C	10/18/2024	05:23	-131.434	45.211	0	2810.00	0	1.6930	0	34.6400	4	27.722	0	2768.647	0	78.8	4	23.6	4	-1E+10	1	-1E+10	1	-1E+10	1	-1E+10	1	-1E+10	1	-1E+10	1
4902642	12	C	10/18/2024	05:23	-131.434	45.211	0	2829.60	0	1.6850	0	34.6400	4	27.723	0	2787.833	0	79.6	4	23.8	4	-1E+10	1	-1E+10	1	-1E+10	1	-1E+10	1	-1E+10	1	-1E+10	1
4902642	12	C	10/18/2024	05:23	-131.434	45.211	0	2850.20	0	1.6760	0	34.6410	4	27.724	0	2807.995	0	80.4	4	24.0	4	-1E+10	1	-1E+10	1	-1E+10	1	-1E+10	1	-1E+10	1	-1E+10	1
4902642	12	C	10/18/2024	05:23	-131.434	45.211	0	2869.80	0	1.6670	0	34.6420	4	27.726	0	2827.176	0	81.3	4	24.3	4	-1E+10	1	-1E+10	1	-1E+10	1	-1E+10	1	-1E+10	1	-1E+10	1
4902642	12	C	10/18/2024	05:23	-131.434	45.211	0	2889.90	0	1.6580	0	34.6430	4	27.727	0	2846.846	0	82.4	4	24.6	4	-1E+10	1	-1E+10	1	-1E+10	1	-1E+10	1	-1E+10	1	-1E+10	1
4902642	12	C	10/18/2024	05:23	-131.434	45.211	0	2909.90	0	1.6510	0	34.6440	4	27.729	0	2866.415	0	83.2	4	24.9	4	-1E+10	1	-1E+10	1	-1E+10	1	-1E+10	1	-1E+10	1	-1E+10	1
4902642	12	C	10/18/2024	05:23	-131.434	45.211	0	2929.80	0	1.6430	0	34.6450	4	27.730	0	2885.885	0	84.1	4	25.1	4	-1E+10	1	-1E+10	1	-1E+10	1	-1E+10	1	-1E+10	1	-1E+10	1
4902642	12	C	10/18/2024	05:23	-131.434	45.211	0	2949.80	0	1.6390	0	34.6460	4	27.732	0	2905.452	0	84.9	4	25.4	4	-1E+10	1	-1E+10	1	-1E+10	1	-1E+10	1	-1E+10	1	-1E+10	1
4902642	12	C	10/18/2024	05:23	-131.434	45.211	0	2970.10	0	1.6320	0	34.6470	4	27.733	0	2925.309	0	85.9	4	25.7	4	-1E+10	1	-1E+10	1	-1E+10	1	-1E+10	1	-1E+10	1	-1E+10	1
4902642	12	C	10/18/2024	05:23	-131.434	45.211	0	2990.50	0	1.6260	0	34.6480	4	27.734	0	2945.263	0	86.5	4	25.9	4	-1E+10	1	-1E+10	1	-1E+10	1	-1E+10	1	-1E+10	1	-1E+10	1
4902642	12	C	10/18/2024	05:23	-131.434	45.211	0	3010.10	0	1.6230	0	34.6490	4	27.736	0	2964.433	0	87.1	4	26.0	4	-1E+10	1	-1E+10	1	-1E+10	1	-1E+10	1	-1E+10	1	-1E+10	1
4902642	12	C	10/18/2024	05:23	-131.434	45.211	0	3029.90	0	1.6200	0	34.6500	4	27.737	0	2983.796	0	87.7	4	26.2	4	-1E+10	1	-1E+10	1	-1E+10	1	-1E+10	1	-1E+10	1	-1E+10	1
4902642	12	C	10/18/2024	05:23	-131.434	45.211	0	3050.00	0	1.6140	0	34.6510	4	27.738	0	3003.451	0	88.5	4	26.4	4	-1E+10	1	-1E+10	1	-1E+10	1	-1E+10	1	-1E+10	1	-1E+10	1
4902642	12	C	10/18/2024	05:23	-131.434	45.211	0	3070.30	0	1.6110	0	34.6510	4	27.738	0	3023.300	0	89.1	4	26.6	4	-1E+10	1	-1E+10	1	-1E+10	1	-1E+10	1	-1E+10	1	-1E+10	1
4902642	12	C	10/18/2024	05:23	-131.434	45.211	0	3090.30	0	1.6060	0	34.6520	4	27.740	0	3042.854	0	90.0	4	26.9	4	-1E+10	1	-1E+10	1	-1E+10	1	-1E+10	1	-1E+10	1	-1E+10	1
4902642	12	C	10/18/2024	05:23	-131.434	45.211	0	3110.50	0	1.6000	0	34.6530	4	27.741	0	3062.601	0	91.0	4	27.2	4	-1E+10	1	-1E+10	1	-1E+10	1	-1E+10	1	-1E+10	1	-1E+10	1
4902642	12	C	10/18/2024	05:23	-131.434	45.211	0	3129.80	0	1.5900	0	34.6550	4	27.743	0	3081.467	0	92.2	4	27.5	4	-1E+10	1	-1E+10	1	-1E+10	1	-1E+10	1	-1E+10	1	-1E+10	1
4902642	12	C	10/18/2024	05:23	-131.434	45.211	0	3149.80	0	1.5850	0	34.6560	4	27.745	0	3101.016	0	92.9	4	27.7	4	-1E+10	1	-1E+10	1	-1E+10	1	-1E+10	1	-1E+10	1	-1E+10	1
4902642	12	C	10/18/2024	05:23	-131.434	45.211	0	3169.80	0	1.5820	0	34.6570	4	27.746	0	3120.563	0	93.4	4	27.9	4	-1E+10	1	-1E+10	1	-1E+10	1	-1E+10	1	-1E+10	1	-1E+10	1
4902642	12	C	10/18/2024	05:23	-131.434	45.211	0	3189.70	0	1.5800	0	34.6570	4	27.746	0	3140.010	0	93.8	4	28.0	4	-1E+10	1	-1E+10	1	-1E+10	1	-1E+10	1	-1E+10	1	-1E+10	1
4902642	12	C	10/18/2024	05:23	-131.434	45.211	0	3208.30	0	1.5790	0	34.6580	4	27.747	0	3158.185	0	94.4	4	28.2	4	-1E+10	1	-1E+10	1	-1E+10	1	-1E+10	1	-1E+10	1	-1E+10	1
4902642	12	C	10/18/2024	05:23	-131.434	45.211	0	3217.40	0	1.5760	0	34.6590	4	27.748	0	3167.077	0	94.8	4	28.3	4	-1E+10	1	-1E+10	1	-1E+10	1	-1E+10	1	-1E+10	1	-1E+10	1
4902642	12	C	10/18/2024	05:23	-131.434	45.211	0	3218.40	0	1.5760	0	34.6590	4	27.748	0	3168.054	0	94.9	4	28.3	4	-1E+10	1	-1E+10	1	-1E+10	1	-1E+10	1	-1E+10	1	-1E+10	1
4902642	12	C	10/18/2024	05:23	-131.434	45.211	0	3219.30	0	1.5750	0	34.6590	4	27.748	0	3168.933	0	94.9	4	28.3	4	-1E+10	1	-1E+10	1	-1E+10	1	-1E+10	1	-1E+10	1	-1E+10	1
4902642	12	C	10/18/2024	05:23	-131.434	45.211	0	3220.30	0	1.5740	0	34.6590	4	27.748	0	3169.911	0	95.0	4	28.3	4	-1E+10	1	-1E+10	1	-1E+10	1	-1E+10	1	-1E+10	1	-1E+10	1
4902642	12	C	10/18/2024	05:23	-131.434	45.211	0	3221.20	0	1.5740	0	34.6590	4	27.748	0	3170.790	0	94.9	4	28.3	4	-1E+10	1	-1E+10	1	-1E+10	1	-1E+10	1	-1E+10	1	-1E+10	1
4902642	12	C	10/18/2024	05:23	-131.434	45.211	0	3222.60	0	1.5740	0	34.6590	4	27.748	0	3172.158	0	95.0	4	28.3	4	-1E+10	1	-1E+10	1	-1E+10	1	-1E+10	1	-1E+10	1	-1E+10	1
4902642	12	C	10/18/2024	05:23	-131.434	45.211	0	3224.00	0	1.5740	0	34.6590	4	27.748	0	3173.526	0	95.0	4	28.4	4	-1E+10	1	-1E+10	1	-1E+10	1	-1E+10	1	-1E+10	1	-1E+10	1
4902642	12	C	10/18/2024	05:23	-131.434	45.211	0	3224.90	0	1.5740	0	34.6590	4	27.748	0	3174.405	0	95.0	4	28.4	4	-1E+10	1	-1E+10	1	-1E+10	1	-1E+10	1	-1E+10	1	-1E+10	1
4902642	12	C	10/18/2024	05:23	-131.434	45.211	0	3225.90	0	1.5740	0	34.6590	4	27.748	0	3175.382	0	95.1	4	28.4	4	-1E+10	1	-1E+10	1	-1E+10	1	-1E+10	1	-1E+10	1	-1E+10	1
4902642	12	C	10/18/2024	05:23	-131.434	45.211	0	3226.80	0	1.5750	0	34.6590	4	27.748	0	3176.261	0	95.1	4	28.4	4	-1E+10	1	-1E+10	1	-1E+10	1	-1E+10	1	-1E+10	1	-1E+10	1
4902642	12	C	10/18/2024	05:23	-131.434	45.211	0	3227.70	0	1.5740	0	34.6590	4	27.748	0	3177.141	0	95.2	4	28.4	4	-1E+10	1	-1E+10	1	-1E+10	1	-1E+10	1	-1E+10	1	-1E+10	1
4902642	12	C	10/18/2024	05:23	-131.434	45.211	0	3228.60	0	1.5740	0	34.6590	4	27.748	0	3178.020	0	95.2	4	28.4	4	-1E+10	1	-1E+10	1	-1E+10	1	-1E+10	1	-1E+10	1	-1E+10	1
4902642	12	C	10/18/2024	05:23	-131.434	45.211	0	3229.50	0	1.5740	0	34.6590	4	27.749	0	3178.899	0	95.3	4	28.4	4	-1E+10	1	-1E+10	1	-1E+10	1	-1E+10	1	-1E+10	1	-1E+10	1
4902642	12	C	10/18/2024	05:23	-131.434	45.211	0	3230.50	0	1.5730	0	34.6590	4	27.749	0	3179.876	0	95.3	4	28.4	4	-1E+10	1	-1E+10	1	-1E+10	1	-1E+10	1	-1E+10	1	-1E+10	1
4902642	12	C	10/18/2024	05:23	-131.434	45.211	0	3231.50	0	1.5720	0	34.6590	4	27.749	0	3180.853	0	95.3	4	28.4	4	-1E+10	1	-1E+10	1	-1E+10	1	-1E+10	1	-1E+10	1	-1E+10	1
4902642	12	C	10/18/2024	05:23	-131.434	45.211	0	3232.40	0	1.5720	0	34.6590	4	27.749	0	3181.733	0	95.3	4	28.5	4	-1E+10	1	-1E+10	1	-1E+10	1	-1E+10	1	-1E+10	1	-1E+10	1
4902642	12	C	10/18/2024	05:23	-131.434	45.211	0	3233.30	0	1.5720	0	34.6600	4	27.749	0	3182.612	0	95.4	4	28.5	4	-1E+10	1	-1E+10	1	-1E+10	1	-1E+10	1	-1E+10	1	-1E+10	1
4902642	12	C	10/18/2024	05:23	-131.434	45.211	0	3234.30	0	1.5710	0	34.6600	4	27.750	0	3183.589	0	95.4	4	28.5	4	-1E+10	1	-1E+10	1	-1E+10	1	-1E+10	1	-1E+10	1	-1E+10	1
4902642	12	C	10/18/2024	05:23	-131.434	45.211	0	3235.20	0	1.5710	0	34.6600	4	27.750	0	3184.468	0	95.4	4	28.5	4	-1E+10	1	-1E+10	1	-1E+10	1	-1E+10	1	-1E+10	1	-1E+10	1
4902642	12	C	10/18/2024	05:23	-131.434	45.211	0	3236.20	0	1.5710	0	34.6600	4	27.750	0	3185.445	0	95.4	4	28.5	4	-1E+10	1	-1E+10	1	-1E+10	1	-1E+10	1	-1E+10	1	-1E+10	1
4902642	12	C	10/18/2024	05:23	-131.434	45.211	0	3237.20	0	1.5700	0	34.6600	4	27.750	0	3186.422	0	95.4	4	28.5	4	-1E+10	1	-1E+10	1	-1E+10	1	-1E+10	1	-1E+10	1	-1E+10	1
4902642	12	C	10/18/2024	05:23	-131.434	45.211	0	3238.50	0	1.5700	0	34.6600	4	27.750	0	3187.693	0	95.5	4	28.5	4	-1E+10	1	-1E+10	1	-1E+10	1	-1E+10	1	-1E+10	1	-1E+10	1
4902642	12	C	10/18/2024	05:23	-131.434	45.211	0	3240.00	0	1.5700	0	34.6600	4	27.750	0	3189.158	0	95.5	4	28.5	4	-1E+10	1	-1E+10	1	-1E+10	1	-1E+10	1	-1E+10	1	-1E+10	1
4902642	12	C	10/18/2024	05:23	-131.434	45.211	0	3240.90	0	1.5700	0	34.6600	4	27.750	0	3190.037	0	95.5	4	28.5	4	-1E+10	1	-1E+10	1	-1E+10	1	-1E+10	1	-1E+10	1	-1E+10	1
4902642	12	C	10/18/2024	05:23	-131.434	45.211	0	3242.00	0	1.5700	0	34.6600	4	27.750	0	3191.112	0	95.5	4	28.5	4	-1E+10	1	-1E+10	1	-1E+10	1	-1E+10	1	-1E+10	1	-1E+10	1
4902642	12	C	10/18/2024	05:23	-131.434	45.211	0	3242.90	0	1.5700	0	34.6600	4	27.750	0	3191.991	0	95.5	4	28.5	4	-1E+10	1	-1E+10	1	-1E+10	1	-1E+10	1	-1E+10	1	-1E+10	1
4902642	12	C	10/18/2024	05:23	-131.434	45.211	0	3243.70	0	1.5700	0	34.6600	4	27.750	0	3192.773	0	95.5	4	28.5	4	-1E+10	1	-1E+10	1	-1E+10	1	-1E+10	1	-1E+10	1	-1E+10	1
4902642	12	C	10/18/2024	05:23	-131.434	45.211	0	3244.80	0	1.5700	0	34.6600	4	27.750	0	3193.848	0	95.6	4	28.5	4	-1E+10	1	-1E+10	1	-1E+10	1	-1E+10	1	-1E+10	1	-1E+10	1
4902642	12	C	10/18/2024	05:23	-131.434	45.211	0	3245.70	0	1.5700	0	34.6600	4	27.750	0	3194.727	0	95.5	4	28.5	4	-1E+10	1	-1E+10	1	-1E+10	1	-1E+10	1	-1E+10	1	-1E+10	1
4902642	12	C	10/18/2024	05:23	-131.434	45.211	0	3246.60	0	1.5700	0	34.6600	4	27.750	0	3195.606	0	95.5	4	28.5	4	-1E+10	1	-1E+10	1	-1E+10	1	-1E+10	1	-1E+10	1	-1E+10	1
4902642	12	C	10/18/2024	05:23	-131.434	45.211	0	3247.60	0	1.5690	0	34.6600	4	27.750	0	3196.583	0	95.5	4	28.5	4	-1E+10	1	-1E+10	1	-1E+10	1	-1E+10	1	-1E+10	1	-1E+10	1
4902642	12	C	10/18/2024	05:23	-131.434	45.211	0	3248.60	0	1.5700	0	34.6600	4	27.750	0	3197.560	0	95.5	4	28.5	4	-1E+10	1	-1E+10	1	-1E+10	1	-1E+10	1	-1E+10	1	-1E+10	1
4902642	12	C	10/18/2024	05:23	-131.434	45.211	0	3249.60	0	1.5700	0	34.6600	4	27.750	0	3198.537	0	95.5	4	28.5	4	-1E+10	1	-1E+10	1	-1E+10	1	-1E+10	1	-1E+10	1	-1E+10	1
4902642	12	C	10/18/2024	05:23	-131.434	45.211	0	3250.50	0	1.5700	0	34.6600	4	27.750	0	3199.416	0	95.5	4	28.5	4	-1E+10	1	-1E+10	1	-1E+10	1	-1E+10	1	-1E+10	1	-1E+10	1
4902642	12	C	10/18/2024	05:23	-131.434	45.211	0	3251.40	0	1.5700	0	34.6600	4	27.750	0	3200.295	0	95.5	4	28.5	4	-1E+10	1	-1E+10	1	-1E+10	1	-1E+10	1	-1E+10	1	-1E+10	1
4902642	12	C	10/18/2024	05:23	-131.434	45.211	0	3252.40	0	1.5700	0	34.6600	4	27.750	0	3201.272	0	95.6	4	28.5	4	-1E+10	1	-1E+10	1	-1E+10	1	-1E+10	1	-1E+10	1	-1E+10	1
4902642	12	C	10/18/2024	05:23	-131.434	45.211	0	3253.80	0	1.5690	0	34.6610	4	27.751	0	3202.640	0	95.5	4	28.5	4	-1E+10	1	-1E+10	1	-1E+10	1	-1E+10	1	-1E+10	1	-1E+10	1
4902642	12	C	10/18/2024	05:23	-131.434	45.211	0	3254.60	0	1.5700	0	34.6600	4	27.750	0	3203.422	0	95.5	4	28.5	4	-1E+10	1	-1E+10	1	-1E+10	1	-1E+10	1	-1E+10	1	-1E+10	1
4902642	12	C	10/18/2024	05:23	-131.434	45.211	0	3255.40	0	1.5700	0	34.6600	4	27.750	0	3204.203	0	95.6	4	28.5	4	-1E+10	1	-1E+10	1	-1E+10	1	-1E+10	1	-1E+10	1	-1E+10	1
4902642	12	C	10/18/2024	05:23	-131.434	45.211	0	3256.50	0	1.5700	0	34.6600	4	27.750	0	3205.278	0	95.5	4	28.5	4	-1E+10	1	-1E+10	1	-1E+10	1	-1E+10	1	-1E+10	1	-1E+10	1
4902642	12	C	10/18/2024	05:23	-131.434	45.211	0	3257.80	0	1.5700	0	34.6600	4	27.750	0	3206.548	0	95.5	4	28.5	4	-1E+10	1	-1E+10	1	-1E+10	1	-1E+10	1	-1E+10	1	-1E+10	1
4902642	12	C	10/18/2024	05:23	-131.434	45.211	0	3258.50	0	1.5700	0	34.6600	4	27.750	0	3207.231	0	95.6	4	28.5	4	-1E+10	1	-1E+10	1	-1E+10	1	-1E+10	1	-1E+10	1	-1E+10	1
4902642	12	C	10/18/2024	05:23	-131.434	45.211	0	3259.30	0	1.5700	0	34.6600	4	27.750	0	3208.013	0	95.5	4	28.5	4	-1E+10	1	-1E+10	1	-1E+10	1	-1E+10	1	-1E+10	1	-1E+10	1
4902642	12	C	10/18/2024	05:23	-131.434	45.211	0	3260.50	0	1.5700	0	34.6600	4	27.750	0	3209.185	0	95.5	4	28.5	4	-1E+10	1	-1E+10	1	-1E+10	1	-1E+10	1	-1E+10	1	-1E+10	1
4902642	12	C	10/18/2024	05:23	-131.434	45.211	0	3261.70	0	1.5700	0	34.6600	4	27.750	0	3210.358	0	95.5	4	28.5	4	-1E+10	1	-1E+10	1	-1E+10	1	-1E+10	1	-1E+10	1	-1E+10	1
4902642	12	C	10/18/2024	05:23	-131.434	45.211	0	3262.30	0	1.5700	0	34.6610	4	27.751	0	3210.944	0	95.5	4	28.5	4	-1E+10	1	-1E+10	1	-1E+10	1	-1E+10	1	-1E+10	1	-1E+10	1
4902642	12	C	10/18/2024	05:23	-131.434	45.211	0	3263.60	0	1.5700	0	34.6600	4	27.750	0	3212.214	0	95.5	4	28.5	4	-1E+10	1	-1E+10	1	-1E+10	1	-1E+10	1	-1E+10	1	-1E+10	1
4902642	12	C	10/18/2024	05:23	-131.434	45.211	0	3264.70	0	1.5710	0	34.6600	4	27.750	0	3213.288	0	95.5	4	28.5	4	-1E+10	1	-1E+10	1	-1E+10	1	-1E+10	1	-1E+10	1	-1E+10	1
4902642	12	C	10/18/2024	05:23	-131.434	45.211	0	3266.00	0	1.5710	0	34.6600	4	27.750	0	3214.558	0	95.5	4	28.5	4	-1E+10	1	-1E+10	1	-1E+10	1	-1E+10	1	-1E+10	1	-1E+10	1
4902642	12	C	10/18/2024	05:23	-131.434	45.211	0	3266.60	0	1.5710	0	34.6600	4	27.750	0	3215.144	0	95.5	4	28.5	4	-1E+10	1	-1E+10	1	-1E+10	1	-1E+10	1	-1E+10	1	-1E+10	1
4902642	12	C	10/18/2024	05:23	-131.434	45.211	0																										
4902642	13	C	10/28/2024	04:22	-131.504	45.313	0	1.40	0	15.7790	0	32.6520	0	23.993	0	1.389	0	223.5	4	90.1	4	-1E+10	1	-1E+10	1	-1E+10	1	-1E+10	1	-1E+10	1	-1E+10	1
4902642	13	C	10/28/2024	04:22	-131.504	45.313	0	1.60	0	15.7920	0	32.6370	0	23.978	0	1.587	0	223.4	4	90.1	4	-1E+10	1	-1E+10	1	-1E+10	1	-1E+10	1	-1E+10	1	-1E+10	1
4902642	13	C	10/28/2024	04:22	-131.504	45.313	0	1.70	0	15.7895	0	32.6390	0	23.980	0	1.686	0	223.5	4	90.1	4	-1E+10	1	-1E+10	1	-1E+10	1	-1E+10	1	-1E+10	1	-1E+10	1
4902642	13	C	10/28/2024	04:22	-131.504	45.313	0	1.80	0	15.7850	0	32.6450	0	23.986	0	1.785	0	223.5	4	90.1	4	-1E+10	1	-1E+10	1	-1E+10	1	-1E+10	1	-1E+10	1	-1E+10	1
4902642	13	C	10/28/2024	04:22	-131.504	45.313	0	1.90	0	15.7855	0	32.6410	0	23.983	0	1.885	0	223.4	4	90.1	4	-1E+10	1	-1E+10	1	-1E+10	1	-1E+10	1	-1E+10	1	-1E+10	1
4902642	13	C	10/28/2024	04:22	-131.504	45.313	0	2.00	0	15.7970	0	32.6320	0	23.973	0	1.984	0	223.4	4	90.1	4	-1E+10	1	-1E+10	1	-1E+10	1	-1E+10	1	-1E+10	1	-1E+10	1
4902642	13	C	10/28/2024	04:22	-131.504	45.313	0	2.70	0	15.8000	0	32.6470	0	23.984	0	2.678	0	223.3	4	90.1	4	-1E+10	1	-1E+10	1	-1E+10	1	-1E+10	1	-1E+10	1	-1E+10	1
4902642	13	C	10/28/2024	04:22	-131.504	45.313	0	3.60	0	15.8070	0	32.6470	0	23.983	0	3.571	0	223.2	4	90.0	4	-1E+10	1	-1E+10	1	-1E+10	1	-1E+10	1	-1E+10	1	-1E+10	1
4902642	13	C	10/28/2024	04:22	-131.504	45.313	0	4.60	0	15.8100	0	32.6460	0	23.981	0	4.562	0	223.3	4	90.1	4	-1E+10	1	-1E+10	1	-1E+10	1	-1E+10	1	-1E+10	1	-1E+10	1
4902642	13	C	10/28/2024	04:22	-131.504	45.313	0	5.70	0	15.8160	0	32.6440	0	23.978	0	5.653	0	223.1	4	90.0	4	-1E+10	1	-1E+10	1	-1E+10	1	-1E+10	1	-1E+10	1	-1E+10	1
4902642	13	C	10/28/2024	04:22	-131.504	45.313	0	6.80	0	15.8170	0	32.6460	0	23.980	0	6.744	0	223.2	4	90.0	4	-1E+10	1	-1E+10	1	-1E+10	1	-1E+10	1	-1E+10	1	-1E+10	1
4902642	13	C	10/28/2024	04:22	-131.504	45.313	0	7.70	0	15.8160	0	32.6460	0	23.980	0	7.637	0	223.1	4	90.0	4	-1E+10	1	-1E+10	1	-1E+10	1	-1E+10	1	-1E+10	1	-1E+10	1
4902642	13	C	10/28/2024	04:22	-131.504	45.313	0	8.70	0	15.8140	0	32.6450	0	23.980	0	8.629	0	223.2	4	90.1	4	-1E+10	1	-1E+10	1	-1E+10	1	-1E+10	1	-1E+10	1	-1E+10	1
4902642	13	C	10/28/2024	04:22	-131.504	45.313	0	9.60	0	15.8120	0	32.6470	0	23.982	0	9.522	0	223.2	4	90.1	4	-1E+10	1	-1E+10	1	-1E+10	1	-1E+10	1	-1E+10	1	-1E+10	1
4902642	13	C	10/28/2024	04:22	-131.504	45.313	0	14.70	0	15.8170	0	32.6460	0	23.980	0	14.580	0	223.1	4	90.0	4	-1E+10	1	-1E+10	1	-1E+10	1	-1E+10	1	-1E+10	1	-1E+10	1
4902642	13	C	10/28/2024	04:22	-131.504	45.313	0	24.80	0	15.8190	0	32.6450	0	23.979	0	24.597	0	223.1	4	90.0	4	-1E+10	1	-1E+10	1	-1E+10	1	-1E+10	1	-1E+10	1	-1E+10	1
4902642	13	C	10/28/2024	04:22	-131.504	45.313	0	34.70	0	15.8220	0	32.6460	0	23.979	0	34.414	0	223.2	4	90.1	4	-1E+10	1	-1E+10	1	-1E+10	1	-1E+10	1	-1E+10	1	-1E+10	1
4902642	13	C	10/28/2024	04:22	-131.504	45.313	0	44.70	0	15.8240	0	32.6450	0	23.979	0	44.331	0	223.9	4	90.4	4	-1E+10	1	-1E+10	1	-1E+10	1	-1E+10	1	-1E+10	1	-1E+10	1
4902642	13	C	10/28/2024	04:22	-131.504	45.313	0	54.90	0	15.7010	0	32.6240	0	23.990	0	54.446	0	229.8	4	92.5	4	-1E+10	1	-1E+10	1	-1E+10	1	-1E+10	1	-1E+10	1	-1E+10	1
4902642	13	C	10/28/2024	04:22	-131.504	45.313	0	65.00	0	11.5710	0	32.5960	0	24.804	0	64.460	0	248.2	4	91.9	4	-1E+10	1	-1E+10	1	-1E+10	1	-1E+10	1	-1E+10	1	-1E+10	1
4902642	13	C	10/28/2024	04:22	-131.504	45.313	0	74.70	0	10.4740	0	32.6240	0	25.019	0	74.078	0	242.4	4	87.7	4	-1E+10	1	-1E+10	1	-1E+10	1	-1E+10	1	-1E+10	1	-1E+10	1
4902642	13	C	10/28/2024	04:22	-131.504	45.313	0	84.90	0	9.8610	0	32.5890	0	25.095	0	84.191	0	240.5	4	85.8	4	-1E+10	1	-1E+10	1	-1E+10	1	-1E+10	1	-1E+10	1	-1E+10	1
4902642	13	C	10/28/2024	04:22	-131.504	45.313	0	95.00	0	9.7010	0	32.6580	0	25.175	0	94.204	0	238.3	4	84.8	4	-1E+10	1	-1E+10	1	-1E+10	1	-1E+10	1	-1E+10	1	-1E+10	1
4902642	13	C	10/28/2024	04:22	-131.504	45.313	0	104.90	0	9.5160	0	32.7150	0	25.250	0	104.019	0	233.0	4	82.6	4	-1E+10	1	-1E+10	1	-1E+10	1	-1E+10	1	-1E+10	1	-1E+10	1
4902642	13	C	10/28/2024	04:22	-131.504	45.313	0	115.20	0	9.2200	0	32.7680	0	25.338	0	114.230	0	225.3	4	79.4	4	-1E+10	1	-1E+10	1	-1E+10	1	-1E+10	1	-1E+10	1	-1E+10	1
4902642	13	C	10/28/2024	04:22	-131.504	45.313	0	124.80	0	8.9630	0	32.8670	0	25.456	0	123.746	0	217.9	4	76.4	4	-1E+10	1	-1E+10	1	-1E+10	1	-1E+10	1	-1E+10	1	-1E+10	1
4902642	13	C	10/28/2024	04:22	-131.504	45.313	0	135.00	0	8.6450	0	33.0490	0	25.648	0	133.857	0	208.4	4	72.7	4	-1E+10	1	-1E+10	1	-1E+10	1	-1E+10	1	-1E+10	1	-1E+10	1
4902642	13	C	10/28/2024	04:22	-131.504	45.313	0	144.90	0	8.2890	0	33.2640	0	25.870	0	143.669	0	202.6	4	70.2	4	-1E+10	1	-1E+10	1	-1E+10	1	-1E+10	1	-1E+10	1	-1E+10	1
4902642	13	C	10/28/2024	04:22	-131.504	45.313	0	154.40	0	7.8250	0	33.4180	0	26.059	0	153.085	0	200.5	4	68.8	4	-1E+10	1	-1E+10	1	-1E+10	1	-1E+10	1	-1E+10	1	-1E+10	1
4902642	13	C	10/28/2024	04:22	-131.504	45.313	0	164.90	0	7.4350	0	33.5210	0	26.196	0	163.491	0	197.7	4	67.3	4	-1E+10	1	-1E+10	1	-1E+10	1	-1E+10	1	-1E+10	1	-1E+10	1
4902642	13	C	10/28/2024	04:22	-131.504	45.313	0	175.20	0	7.2210	0	33.5840	0	26.276	0	173.699	0	194.3	4	65.9	4	-1E+10	1	-1E+10	1	-1E+10	1	-1E+10	1	-1E+10	1	-1E+10	1
4902642	13	C	10/28/2024	04:22	-131.504	45.313	0	185.40	0	7.1410	0	33.6370	0	26.328	0	183.807	0	189.9	4	64.3	4	-1E+10	1	-1E+10	1	-1E+10	1	-1E+10	1	-1E+10	1	-1E+10	1
4902642	13	C	10/28/2024	04:22	-131.504	45.313	0	195.00	0	7.0630	0	33.6800	0	26.373	0	193.320	0	184.8	4	62.5	4	-1E+10	1	-1E+10	1	-1E+10	1	-1E+10	1	-1E+10	1	-1E+10	1
4902642	13	C	10/28/2024	04:22	-131.504	45.313	0	209.80	0	6.9400	0	33.7290	0	26.429	0	207.985	0	176.5	4	59.5	4	-1E+10	1	-1E+10	1	-1E+10	1	-1E+10	1	-1E+10	1	-1E+10	1
4902642	13	C	10/28/2024	04:22	-131.504	45.313	0	229.70	0	6.7160	0	33.7690	0	26.490	0	227.702	0	163.9	4	55.0	4	-1E+10	1	-1E+10	1	-1E+10	1	-1E+10	1	-1E+10	1	-1E+10	1
4902642	13	C	10/28/2024	04:22	-131.504	45.313	0	249.50	0	6.4750	0	33.7920	0	26.540	0	247.318	0	150.5	4	50.2	4	-1E+10	1	-1E+10	1	-1E+10	1	-1E+10	1	-1E+10	1	-1E+10	1
4902642	13	C	10/28/2024	04:22	-131.504	45.313	0	269.80	0	6.2180	0	33.7990	0	26.579	0	267.428	0	138.1	4	45.8	4	-1E+10	1	-1E+10	1	-1E+10	1	-1E+10	1	-1E+10	1	-1E+10	1
4902642	13	C	10/28/2024	04:22	-131.504	45.313	0	289.70	0	5.9600	0	33.8120	0	26.622	0	287.139	0	121.2	4	40.0	4	-1E+10	1	-1E+10	1	-1E+10	1	-1E+10	1	-1E+10	1	-1E+10	1
4902642	13	C	10/28/2024	04:22	-131.504	45.313	0	309.80	0	5.7370	0	33.8270	0	26.662	0	307.046	0	107.3	4	35.2	4	-1E+10	1	-1E+10	1	-1E+10	1	-1E+10	1	-1E+10	1	-1E+10	1
4902642	13	C	10/28/2024	04:22	-131.504	45.313	0	330.30	0	5.5690	0	33.8500	0	26.700	0	327.348	0	94.8	4	31.0	4	-1E+10	1	-1E+10	1	-1E+10	1	-1E+10	1	-1E+10	1	-1E+10	1
4902642	13	C	10/28/2024	04:22	-131.504	45.313	0	349.60	0	5.4300	0	33.8670	0	26.730	0	346.459	0	86.6	4	28.2	4	-1E+10	1	-1E+10	1	-1E+10	1	-1E+10	1	-1E+10	1	-1E+10	1
4902642	13	C	10/28/2024	04:22	-131.504	45.313	0	369.80	0	5.2560	0	33.8800	0	26.761	0	366.460	0	78.8	4	25.6	4	-1E+10	1	-1E+10	1	-1E+10	1	-1E+10	1	-1E+10	1	-1E+10	1
4902642	13	C	10/28/2024	04:22	-131.504	45.313	0	389.90	0	5.0610	0	33.8980	0	26.798	0	386.360	0	71.8	4	23.2	4	-1E+10	1	-1E+10	1	-1E+10	1	-1E+10	1	-1E+10	1	-1E+10	1
4902642	13	C	10/28/2024	04:22	-131.504	45.313	0	410.10	0	4.9190	0	33.9140	0	26.827	0	406.356	0	67.3	4	21.7	4	-1E+10	1	-1E+10	1	-1E+10	1	-1E+10	1	-1E+10	1	-1E+10	1
4902642	13	C	10/28/2024	04:22	-131.504	45.313	0	429.90	0	4.8000	0	33.9320	0	26.855	0	425.955	0	61.6	4	19.8	4	-1E+10	1	-1E+10	1	-1E+10	1	-1E+10	1	-1E+10	1	-1E+10	1
4902642	13	C	10/28/2024	04:22	-131.504	45.313	0	449.70	0	4.7150	0	33.9550	0	26.883	0	445.552	0	53.7	4	17.2	4	-1E+10	1	-1E+10	1	-1E+10	1	-1E+10	1	-1E+10	1	-1E+10	1
4902642	13	C	10/28/2024	04:22	-131.504	45.313	0	469.60	0	4.6870	0	33.9770	0	26.903	0	465.247	0	46.4	4	14.9	4	-1E+10	1	-1E+10	1	-1E+10	1	-1E+10	1	-1E+10	1	-1E+10	1
4902642	13	C	10/28/2024	04:22	-131.504	45.313	0	489.40	0	4.6330	0	33.9980	0	26.926	0	484.840	0	40.1	4	12.9	4	-1E+10	1	-1E+10	1	-1E+10	1	-1E+10	1	-1E+10	1	-1E+10	1
4902642	13	C	10/28/2024	04:22	-131.504	45.313	0	509.30	0	4.5640	0	34.0210	0	26.952	0	504.530	0	34.6	4	11.0	4	-1E+10	1	-1E+10	1	-1E+10	1	-1E+10	1	-1E+10	1	-1E+10	1
4902642	13	C	10/28/2024	04:22	-131.504	45.313	0	530.00	0	4.5110	0	34.0500	0	26.981	0	525.010	0	29.4	4	9.4	4	-1E+10	1	-1E+10	1	-1E+10	1	-1E+10	1	-1E+10	1	-1E+10	1
4902642	13	C	10/28/2024	04:22	-131.504	45.313	0	549.70	0	4.4550	0	34.0670	0	27.001	0	544.499	0	25.9	4	8.2	4	-1E+10	1	-1E+10	1	-1E+10	1	-1E+10	1	-1E+10	1	-1E+10	1
4902642	13	C	10/28/2024	04:22	-131.504	45.313	0	570.50	0	4.4130	0	34.0910	0	27.024	0	565.074	0	21.7	4	6.9	4	-1E+10	1	-1E+10	1	-1E+10	1	-1E+10	1	-1E+10	1	-1E+10	1
4902642	13	C	10/28/2024	04:22	-131.504	45.313	0	590.40	0	4.3920	0	34.1150	0	27.046	0	584.757	0	18.3	4	5.8	4	-1E+10	1	-1E+10	1	-1E+10	1	-1E+10	1	-1E+10	1	-1E+10	1
4902642	13	C	10/28/2024	04:22	-131.504	45.313	0	609.90	0	4.3220	0	34.1360	0	27.070	0	604.042	0	15.6	4	5.0	4	-1E+10	1	-1E+10	1	-1E+10	1	-1E+10	1	-1E+10	1	-1E+10	1
4902642	13	C	10/28/2024	04:22	-131.504	45.313	0	630.40	0	4.2940	0	34.1560	0	27.089	0	624.315	0	13.5	4	4.3	4	-1E+10	1	-1E+10	1	-1E+10	1	-1E+10	1	-1E+10	1	-1E+10	1
4902642	13	C	10/28/2024	04:22	-131.504	45.313	0	650.40	0	4.2400	0	34.1690	0	27.105	0	644.091	0	12.1	4	3.8	4	-1E+10	1	-1E+10	1	-1E+10	1	-1E+10	1	-1E+10	1	-1E+10	1
4902642	13	C	10/28/2024	04:22	-131.504	45.313	0	670.50	0	4.2330	0	34.1870	0	27.121	0	663.964	0	10.6	4	3.4	4	-1E+10	1	-1E+10	1	-1E+10	1	-1E+10	1	-1E+10	1	-1E+10	1
4902642	13	C	10/28/2024	04:22	-131.504	45.313	0	690.00	0	4.2110	0	34.2030	0	27.136	0	683.241	0	9.5	4	3.0	4	-1E+10	1	-1E+10	1	-1E+10	1	-1E+10	1	-1E+10	1	-1E+10	1
4902642	13	C	10/28/2024	04:22	-131.504	45.313	0	710.10	0	4.1850	0	34.2160	0	27.149	0	703.111	0	8.6	4	2.7	4	-1E+10	1	-1E+10	1	-1E+10	1	-1E+10	1	-1E+10	1	-1E+10	1
4902642	13	C	10/28/2024	04:22	-131.504	45.313	0	729.70	0	4.1560	0	34.2350	0	27.167	0	722.484	0	7.6	4	2.4	4	-1E+10	1	-1E+10	1	-1E+10	1	-1E+10	1	-1E+10	1	-1E+10	1
4902642	13	C	10/28/2024	04:22	-131.504	45.313	0	750.00	0	4.0810	0	34.2500	0	27.187	0	742.547	0	6.9	4	2.2	4	-1E+10	1	-1E+10	1	-1E+10	1	-1E+10	1	-1E+10	1	-1E+10	1
4902642	13	C	10/28/2024	04:22	-131.504	45.313	0	769.80	0	4.0290	0	34.2680	0	27.207	0	762.114	0	6.3	4	2.0	4	-1E+10	1	-1E+10	1	-1E+10	1	-1E+10	1	-1E+10	1	-1E+10	1
4902642	13	C	10/28/2024	04:22	-131.504	45.313	0	789.90	0	3.9680	0	34.2810	0	27.224	0	781.976	0	5.9	4	1.9	4	-1E+10	1	-1E+10	1	-1E+10	1	-1E+10	1	-1E+10	1	-1E+10	1
4902642	13	C	10/28/2024	04:22	-131.504	45.313	0	809.70	0	3.9230	0	34.2910	0	27.236	0	801.539	0	5.7	4	1.8	4	-1E+10	1	-1E+10	1	-1E+10	1	-1E+10	1	-1E+10	1	-1E+10	1
4902642	13	C	10/28/2024	04:22	-131.504	45.313	0	829.70	0	3.8710	0	34.2990	0	27.248	0	821.298	0	5.5	4	1.7	4	-1E+10	1	-1E+10	1	-1E+10	1	-1E+10	1	-1E+10	1	-1E+10	1
4902642	13	C	10/28/2024	04:22	-131.504	45.313	0	850.10	0	3.8270	0	34.3100	0	27.261	0	841.451	0	5.4	4	1.7	4	-1E+10	1	-1E+10	1	-1E+10	1	-1E+10	1	-1E+10	1	-1E+10	1
4902642	13	C	10/28/2024	04:22	-131.504	45.313	0	870.20	0	3.7930	0	34.3210	0	27.274	0	861.305	0	5.3	4	1.7	4	-1E+10	1	-1E+10	1	-1E+10	1	-1E+10	1	-1E+10	1	-1E+10	1
4902642	13	C	10/28/2024	04:22	-131.504	45.313	0	890.10	0	3.7770	0	34.3340	0	27.286	0	880.959	0	5.2	4	1.6	4	-1E+10	1	-1E+10	1	-1E+10	1	-1E+10	1	-1E+10	1	-1E+10	1
4902642	13	C	10/28/2024	04:22	-131.504	45.313	0	909.90	0	3.7510	0	34.3460	0	27.298	0	900.514	0	5.3	4	1.7	4	-1E+10	1	-1E+10	1	-1E+10	1	-1E+10	1	-1E+10	1	-1E+10	1
4902642	13	C	10/28/2024	04:22	-131.504	45.313	0	929.60	0	3.7160	0	34.3550	0	27.309	0	919.967	0	5.4	4	1.7	4	-1E+10	1	-1E+10	1	-1E+10	1	-1E+10	1	-1E+10	1	-1E+10	1
4902642	13	C	10/28/2024	04:22	-131.504	45.313	0	949.90	0	3.6560	0	34.3620	0	27.320	0	940.011	0	5.5	4	1.7	4	-1E+10	1	-1E+10	1	-1E+10	1	-1E+10	1	-1E+10	1	-1E+10	1
4902642	13	C	10/28/2024	04:22	-131.504	45.313	0	970.60	0	3.6150	0	34.3730	0	27.333	0	960.448	0	5.8	4	1.8	4	-1E+10	1	-1E+10	1	-1E+10	1	-1E+10	1	-1E+10	1	-1E+10	1
4902642	13	C	10/28/2024	04:22	-131.504	45.313	0	989.80	0	3.5920	0	34.3840	0	27.344	0	979.403	0	6.2	4	1.9	4	-1E+10	1	-1E+10	1	-1E+10	1	-1E+10	1	-1E+10	1	-1E+10	1
4902642	13	C	10/28/2024	04:22	-131.504	45.313	0	1010.10	0	3.5180	0	34.3920	0	27.358	0	999.441	0	6.4	4	2.0	4	-1E+10	1	-1E+10	1	-1E+10	1	-1E+10	1	-1E+10	1	-1E+10	1
4902642	13	C	10/28/2024	04:22	-131.504	45.313	0	1030.30	0	3.4780	0	34.4000	0	27.368	0	1019.379	0	6.8	4	2.1	4	-1E+10	1	-1E+10	1	-1E+10	1	-1E+10	1	-1E+10	1	-1E+10	1
4902642	13	C	10/28/2024	04:22	-131.504	45.313	0	1049.90	0	3.4420	0	34.4070	0	27.378	0	1038.722	0	7.2	4	2.3	4	-1E+10	1	-1E+10	1	-1E+10	1	-1E+10	1	-1E+10	1	-1E+10	1
4902642	13	C	10/28/2024	04:22	-131.504	45.313	0	1069.50	0	3.4140	0	34.4140	0	27.386	0	1058.064	0	7.7	4	2.4	4	-1E+10	1	-1E+10	1	-1E+10	1	-1E+10	1	-1E+10	1	-1E+10	1
4902642	13	C	10/28/2024	04:22	-131.504	45.313	0	1090.20	0	3.3760	0	34.4200	0	27.394	0	1078.490	0	8.1	4	2.5	4	-1E+10	1	-1E+10	1	-1E+10	1	-1E+10	1	-1E+10	1	-1E+10	1
4902642	13	C	10/28/2024	04:22	-131.504	45.313	0	1109.70	0	3.3190	0	34.4270	0	27.405	0	1097.729	0	8.6	4	2.7	4	-1E+10	1	-1E+10	1	-1E+10	1	-1E+10	1	-1E+10	1	-1E+10	1
4902642	13	C	10/28/2024	04:22	-131.504	45.313	0	1129.90	0	3.2690	0	34.4330	0	27.415	0	1117.658	0	9.1	4	2.8	4	-1E+10	1	-1E+10	1	-1E+10	1	-1E+10	1	-1E+10	1	-1E+10	1
4902642	13	C	10/28/2024	04:22	-131.504	45.313	0	1149.90	0	3.2210	0	34.4380	0	27.424	0	1137.387	0	9.4	4	2.9	4	-1E+10	1	-1E+10	1	-1E+10	1	-1E+10	1	-1E+10	1	-1E+10	1
4902642	13	C	10/28/2024	04:22	-131.504	45.313	0	1169.80	0	3.1800	0	34.4420	0	27.431	0	1157.016	0	9.8	4	3.0	4	-1E+10	1	-1E+10	1	-1E+10	1	-1E+10	1	-1E+10	1	-1E+10	1
4902642	13	C	10/28/2024	04:22	-131.504	45.313	0	1189.70	0	3.1330	0	34.4470	0	27.439	0	1176.642	0	10.2	4	3.2	4	-1E+10	1	-1E+10	1	-1E+10	1	-1E+10	1	-1E+10	1	-1E+10	1
4902642	13	C	10/28/2024	04:22	-131.504	45.313	0	1209.70	0	3.0900	0	34.4510	0	27.446	0	1196.366	0	10.7	4	3.3	4	-1E+10	1	-1E+10	1	-1E+10	1	-1E+10	1	-1E+10	1	-1E+10	1
4902642	13	C	10/28/2024	04:22	-131.504	45.313	0	1229.80	0	3.0480	0	34.4550	0	27.454	0	1216.187	0	11.2	4	3.5	4	-1E+10	1	-1E+10	1	-1E+10	1	-1E+10	1	-1E+10	1	-1E+10	1
4902642	13	C	10/28/2024	04:22	-131.504	45.313	0	1250.10	0	3.0140	0	34.4590	0	27.460	0	1236.202	0	11.6	4	3.6	4	-1E+10	1	-1E+10	1	-1E+10	1	-1E+10	1	-1E+10	1	-1E+10	1
4902642	13	C	10/28/2024	04:22	-131.504	45.313	0	1270.30	0	2.9690	0	34.4640	0	27.468	0	1256.117	0	12.3	4	3.8	4	-1E+10	1	-1E+10	1	-1E+10	1	-1E+10	1	-1E+10	1	-1E+10	1
4902642	13	C	10/28/2024	04:22	-131.504	45.313	0	1290.40	0	2.9150	0	34.4680	0	27.476	0	1275.932	0	12.9	4	4.0	4	-1E+10	1	-1E+10	1	-1E+10	1	-1E+10	1	-1E+10	1	-1E+10	1
4902642	13	C	10/28/2024	04:22	-131.504	45.313	0	1310.80	0	2.8790	0	34.4730	0	27.484	0	1296.041	0	13.6	4	4.2	4	-1E+10	1	-1E+10	1	-1E+10	1	-1E+10	1	-1E+10	1	-1E+10	1
4902642	13	C	10/28/2024	04:22	-131.504	45.313	0	1329.90	0	2.8430	0	34.4770	0	27.490	0	1314.866	0	14.3	4	4.4	4	-1E+10	1	-1E+10	1	-1E+10	1	-1E+10	1	-1E+10	1	-1E+10	1
4902642	13	C	10/28/2024	04:22	-131.504	45.313	0	1349.90	0	2.8010	0	34.4820	0	27.498	0	1334.577	0	15.2	4	4.7	4	-1E+10	1	-1E+10	1	-1E+10	1	-1E+10	1	-1E+10	1	-1E+10	1
4902642	13	C	10/28/2024	04:22	-131.504	45.313	0	1369.80	0	2.7590	0	34.4860	0	27.505	0	1354.187	0	15.9	4	4.9	4	-1E+10	1	-1E+10	1	-1E+10	1	-1E+10	1	-1E+10	1	-1E+10	1
4902642	13	C	10/28/2024	04:22	-131.504	45.313	0	1390.20	0	2.7240	0	34.4910	0	27.512	0	1374.288	0	16.8	4	5.2	4	-1E+10	1	-1E+10	1	-1E+10	1	-1E+10	1	-1E+10	1	-1E+10	1
4902642	13	C	10/28/2024	04:22	-131.504	45.313	0	1409.80	0	2.6900	0	34.4950	0	27.518	0	1393.599	0	17.7	4	5.4	4	-1E+10	1	-1E+10	1	-1E+10	1	-1E+10	1	-1E+10	1	-1E+10	1
4902642	13	C	10/28/2024	04:22	-131.504	45.313	0	1429.90	0	2.6610	0	34.4990	0	27.524	0	1413.401	0	18.4	4	5.6	4	-1E+10	1	-1E+10	1	-1E+10	1	-1E+10	1	-1E+10	1	-1E+10	1
4902642	13	C	10/28/2024	04:22	-131.504	45.313	0	1450.00	0	2.6260	0	34.5030	0	27.530	0	1433.200	0	19.6	4	6.0	4	-1E+10	1	-1E+10	1	-1E+10	1	-1E+10	1	-1E+10	1	-1E+10	1
4902642	13	C	10/28/2024	04:22	-131.504	45.313	0	1470.10	0	2.5900	0	34.5080	0	27.537	0	1452.998	0	20.6	4	6.3	4	-1E+10	1	-1E+10	1	-1E+10	1	-1E+10	1	-1E+10	1	-1E+10	1
4902642	13	C	10/28/2024	04:22	-131.504	45.313	0	1490.10	0	2.5490	0	34.5120	0	27.544	0	1472.696	0	21.8	4	6.6	4	-1E+10	1	-1E+10	1	-1E+10	1	-1E+10	1	-1E+10	1	-1E+10	1
4902642	13	C	10/28/2024	04:22	-131.504	45.313	0	1510.00	0	2.5160	0	34.5160	0	27.550	0	1492.294	0	22.8	4	7.0	4	-1E+10	1	-1E+10	1	-1E+10	1	-1E+10	1	-1E+10	1	-1E+10	1
4902642	13	C	10/28/2024	04:22	-131.504	45.313	0	1530.20	0	2.4800	0	34.5210	0	27.557	0	1512.184	0	24.1	4	7.4	4	-1E+10	1	-1E+10	1	-1E+10	1	-1E+10	1	-1E+10	1	-1E+10	1
4902642	13	C	10/28/2024	04:22	-131.504	45.313	0	1550.80	0	2.4510	0	34.5250	0	27.563	0	1532.467	0	25.1	4	7.7	4	-1E+10	1	-1E+10	1	-1E+10	1	-1E+10	1	-1E+10	1	-1E+10	1
4902642	13	C	10/28/2024	04:22	-131.504	45.313	0	1570.30	0	2.4240	0	34.5280	0	27.568	0	1551.665	0	26.2	4	8.0	4	-1E+10	1	-1E+10	1	-1E+10	1	-1E+10	1	-1E+10	1	-1E+10	1
4902642	13	C	10/28/2024	04:22	-131.504	45.313	0	1590.40	0	2.3940	0	34.5320	0	27.574	0	1571.452	0	27.3	4	8.3	4	-1E+10	1	-1E+10	1	-1E+10	1	-1E+10	1	-1E+10	1	-1E+10	1
4902642	13	C	10/28/2024	04:22	-131.504	45.313	0	1610.00	0	2.3670	0	34.5350	0	27.578	0	1590.745	0	28.5	4	8.7	4	-1E+10	1	-1E+10	1	-1E+10	1	-1E+10	1	-1E+10	1	-1E+10	1
4902642	13	C	10/28/2024	04:22	-131.504	45.313	0	1629.90	0	2.3360	0	34.5400	0	27.585	0	1610.332	0	29.7	4	9.0	4	-1E+10	1	-1E+10	1	-1E+10	1	-1E+10	1	-1E+10	1	-1E+10	1
4902642	13	C	10/28/2024	04:22	-131.504	45.313	0	1650.00	0	2.3130	0	34.5430	0	27.589	0	1630.113	0	30.8	4	9.4	4	-1E+10	1	-1E+10	1	-1E+10	1	-1E+10	1	-1E+10	1	-1E+10	1
4902642	13	C	10/28/2024	04:22	-131.504	45.313	0	1670.10	0	2.2940	0	34.5460	0	27.593	0	1649.892	0	31.7	4	9.6	4	-1E+10	1	-1E+10	1	-1E+10	1	-1E+10	1	-1E+10	1	-1E+10	1
4902642	13	C	10/28/2024	04:22	-131.504	45.313	0	1690.00	0	2.2800	0	34.5480	0	27.596	0	1669.473	0	32.5	4	9.9	4	-1E+10	1	-1E+10	1	-1E+10	1	-1E+10	1	-1E+10	1	-1E+10	1
4902642	13	C	10/28/2024	04:22	-131.504	45.313	0	1710.20	0	2.2590	0	34.5510	0	27.601	0	1689.348	0	33.6	4	10.2	4	-1E+10	1	-1E+10	1	-1E+10	1	-1E+10	1	-1E+10	1	-1E+10	1
4902642	13	C	10/28/2024	04:22	-131.504	45.313	0	1729.80	0	2.2370	0	34.5540	0	27.605	0	1708.630	0	34.5	4	10.5	4	-1E+10	1	-1E+10	1	-1E+10	1	-1E+10	1	-1E+10	1	-1E+10	1
4902642	13	C	10/28/2024	04:22	-131.504	45.313	0	1749.80	0	2.2210	0	34.5560	0	27.608	0	1728.304	0	35.3	4	10.7	4	-1E+10	1	-1E+10	1	-1E+10	1	-1E+10	1	-1E+10	1	-1E+10	1
4902642	13	C	10/28/2024	04:22	-131.504	45.313	0	1770.00	0	2.2070	0	34.5580	0	27.611	0	1748.172	0	36.3	4	11.0	4	-1E+10	1	-1E+10	1	-1E+10	1	-1E+10	1	-1E+10	1	-1E+10	1
4902642	13	C	10/28/2024	04:22	-131.504	45.313	0	1789.70	0	2.1890	0	34.5620	0	27.615	0	1767.547	0	37.4	4	11.3	4	-1E+10	1	-1E+10	1	-1E+10	1	-1E+10	1	-1E+10	1	-1E+10	1
4902642	13	C	10/28/2024	04:22	-131.504	45.313	0	1809.80	0	2.1660	0	34.5650	0	27.620	0	1787.314	0	38.7	4	11.7	4	-1E+10	1	-1E+10	1	-1E+10	1	-1E+10	1	-1E+10	1	-1E+10	1
4902642	13	C	10/28/2024	04:22	-131.504	45.313	0	1829.90	0	2.1350	0	34.5690	0	27.626	0	1807.079	0	40.2	4	12.2	4	-1E+10	1	-1E+10	1	-1E+10	1	-1E+10	1	-1E+10	1	-1E+10	1
4902642	13	C	10/28/2024	04:22	-131.504	45.313	0	1849.90	0	2.1060	0	34.5720	0	27.630	0	1826.744	0	41.9	4	12.7	4	-1E+10	1	-1E+10	1	-1E+10	1	-1E+10	1	-1E+10	1	-1E+10	1
4902642	13	C	10/28/2024	04:22	-131.504	45.313	0	1870.70	0	2.0810	0	34.5750	0	27.635	0	1847.193	0	43.2	4	13.0	4	-1E+10	1	-1E+10	1	-1E+10	1	-1E+10	1	-1E+10	1	-1E+10	1
4902642	13	C	10/28/2024	04:22	-131.504	45.313	0	1890.10	0	2.0590	0	34.5780	0	27.639	0	1866.264	0	44.5	4	13.4	4	-1E+10	1	-1E+10	1	-1E+10	1	-1E+10	1	-1E+10	1	-1E+10	1
4902642	13	C	10/28/2024	04:22	-131.504	45.313	0	1910.10	0	2.0390	0	34.5810	0	27.643	0	1885.923	0	45.6	4	13.7	4	-1E+10	1	-1E+10	1	-1E+10	1	-1E+10	1	-1E+10	1	-1E+10	1
4902642	13	C	10/28/2024	04:22	-131.504	45.313	0	1930.10	0	2.0270	0	34.5830	0	27.646	0	1905.581	0	46.5	4	14.0	4	-1E+10	1	-1E+10	1	-1E+10	1	-1E+10	1	-1E+10	1	-1E+10	1
4902642	13	C	10/28/2024	04:22	-131.504	45.313	0	1950.40	0	2.0080	0	34.5860	0	27.650	0	1925.531	0	47.6	4	14.4	4	-1E+10	1	-1E+10	1	-1E+10	1	-1E+10	1	-1E+10	1	-1E+10	1
4902642	13	C	10/28/2024	04:22	-131.504	45.313	0	1970.30	0	1.9910	0	34.5890	0	27.654	0	1945.087	0	49.0	4	14.8	4	-1E+10	1	-1E+10	1	-1E+10	1	-1E+10	1	-1E+10	1	-1E+10	1
4902642	13	C	10/28/2024	04:22	-131.504	45.313	0	1989.80	0	1.9710	0	34.5920	0	27.658	0	1964.247	0	50.4	4	15.2	4	-1E+10	1	-1E+10	1	-1E+10	1	-1E+10	1	-1E+10	1	-1E+10	1
4902642	13	C	10/28/2024	04:22	-131.504	45.313	0	2009.70	0	1.9560	0	34.5940	4	27.660	0	1983.799	0	51.5	4	15.5	4	-1E+10	1	-1E+10	1	-1E+10	1	-1E+10	1	-1E+10	1	-1E+10	1
4902642	13	C	10/28/2024	04:22	-131.504	45.313	0	2029.90	0	1.9440	0	34.5970	4	27.664	0	2003.644	0	52.4	4	15.8	4	-1E+10	1	-1E+10	1	-1E+10	1	-1E+10	1	-1E+10	1	-1E+10	1
4902642	13	C	10/28/2024	04:22	-131.504	45.313	0	2050.20	0	1.9360	0	34.5980	4	27.665	0	2023.585	0	53.1	4	16.0	4	-1E+10	1	-1E+10	1	-1E+10	1	-1E+10	1	-1E+10	1	-1E+10	1
4902642	13	C	10/28/2024	04:22	-131.504	45.313	0	2070.20	0	1.9270	0	34.6000	4	27.668	0	2043.230	0	53.7	4	16.2	4	-1E+10	1	-1E+10	1	-1E+10	1	-1E+10	1	-1E+10	1	-1E+10	1
4902642	13	C	10/28/2024	04:22	-131.504	45.313	0	2090.10	0	1.9210	0	34.6000	4	27.668	0	2062.774	0	54.3	4	16.3	4	-1E+10	1	-1E+10	1	-1E+10	1	-1E+10	1	-1E+10	1	-1E+10	1
4902642	13	C	10/28/2024	04:22	-131.504	45.313	0	2110.50	0	1.9150	0	34.6020	4	27.671	0	2082.808	0	54.8	4	16.5	4	-1E+10	1	-1E+10	1	-1E+10	1	-1E+10	1	-1E+10	1	-1E+10	1
4902642	13	C	10/28/2024	04:22	-131.504	45.313	0	2129.70	0	1.9080	0	34.6030	4	27.672	0	2101.662	0	55.5	4	16.7	4	-1E+10	1	-1E+10	1	-1E+10	1	-1E+10	1	-1E+10	1	-1E+10	1
4902642	13	C	10/28/2024	04:22	-131.504	45.313	0	2149.80	0	1.9000	0	34.6040	4	27.674	0	2121.397	0	56.1	4	16.9	4	-1E+10	1	-1E+10	1	-1E+10	1	-1E+10	1	-1E+10	1	-1E+10	1
4902642	13	C	10/28/2024	04:22	-131.504	45.313	0	2170.30	0	1.8910	0	34.6060	4	27.676	0	2141.524	0	57.0	4	17.1	4	-1E+10	1	-1E+10	1	-1E+10	1	-1E+10	1	-1E+10	1	-1E+10	1
4902642	13	C	10/28/2024	04:22	-131.504	45.313	0	2190.40	0	1.8820	0	34.6080	4	27.678	0	2161.256	0	57.8	4	17.4	4	-1E+10	1	-1E+10	1	-1E+10	1	-1E+10	1	-1E+10	1	-1E+10	1
4902642	13	C	10/28/2024	04:22	-131.504	45.313	0	2210.30	0	1.8730	0	34.6090	4	27.680	0	2180.790	0	58.5	4	17.6	4	-1E+10	1	-1E+10	1	-1E+10	1	-1E+10	1	-1E+10	1	-1E+10	1
4902642	13	C	10/28/2024	04:22	-131.504	45.313	0	2230.10	0	1.8660	0	34.6110	4	27.682	0	2200.224	0	59.1	4	17.8	4	-1E+10	1	-1E+10	1	-1E+10	1	-1E+10	1	-1E+10	1	-1E+10	1
4902642	13	C	10/28/2024	04:22	-131.504	45.313	0	2250.20	0	1.8600	0	34.6120	4	27.684	0	2219.950	0	59.7	4	17.9	4	-1E+10	1	-1E+10	1	-1E+10	1	-1E+10	1	-1E+10	1	-1E+10	1
4902642	13	C	10/28/2024	04:22	-131.504	45.313	0	2270.00	0	1.8540	0	34.6130	4	27.685	0	2239.380	0	60.3	4	18.1	4	-1E+10	1	-1E+10	1	-1E+10	1	-1E+10	1	-1E+10	1	-1E+10	1
4902642	13	C	10/28/2024	04:22	-131.504	45.313	0	2290.00	0	1.8480	0	34.6140	4	27.686	0	2259.005	0	60.9	4	18.3	4	-1E+10	1	-1E+10	1	-1E+10	1	-1E+10	1	-1E+10	1	-1E+10	1
4902642	13	C	10/28/2024	04:22	-131.504	45.313	0	2310.00	0	1.8410	0	34.6150	4	27.688	0	2278.628	0	61.6	4	18.5	4	-1E+10	1	-1E+10	1	-1E+10	1	-1E+10	1	-1E+10	1	-1E+10	1
4902642	13	C	10/28/2024	04:22	-131.504	45.313	0	2330.40	0	1.8350	0	34.6170	4	27.690	0	2298.642	0	62.2	4	18.7	4	-1E+10	1	-1E+10	1	-1E+10	1	-1E+10	1	-1E+10	1	-1E+10	1
4902642	13	C	10/28/2024	04:22	-131.504	45.313	0	2350.20	0	1.8310	0	34.6170	4	27.690	0	2318.065	0	62.5	4	18.8	4	-1E+10	1	-1E+10	1	-1E+10	1	-1E+10	1	-1E+10	1	-1E+10	1
4902642	13	C	10/28/2024	04:22	-131.504	45.313	0	2369.90	0	1.8280	0	34.6180	4	27.692	0	2337.388	0	62.9	4	18.9	4	-1E+10	1	-1E+10	1	-1E+10	1	-1E+10	1	-1E+10	1	-1E+10	1
4902642	13	C	10/28/2024	04:22	-131.504	45.313	0	2389.90	0	1.8260	0	34.6190	4	27.693	0	2357.004	0	63.4	4	19.0	4	-1E+10	1	-1E+10	1	-1E+10	1	-1E+10	1	-1E+10	1	-1E+10	1
4902642	13	C	10/28/2024	04:22	-131.504	45.313	0	2410.00	0	1.8230	0	34.6190	4	27.693	0	2376.716	0	63.8	4	19.1	4	-1E+10	1	-1E+10	1	-1E+10	1	-1E+10	1	-1E+10	1	-1E+10	1
4902642	13	C	10/28/2024	04:22	-131.504	45.313	0	2430.10	0	1.8200	0	34.6200	4	27.694	0	2396.427	0	64.2	4	19.3	4	-1E+10	1	-1E+10	1	-1E+10	1	-1E+10	1	-1E+10	1	-1E+10	1
4902642	13	C	10/28/2024	04:22	-131.504	45.313	0	2449.90	0	1.8160	0	34.6210	4	27.695	0	2415.841	0	64.6	4	19.4	4	-1E+10	1	-1E+10	1	-1E+10	1	-1E+10	1	-1E+10	1	-1E+10	1
4902642	13	C	10/28/2024	04:22	-131.504	45.313	0	2470.20	0	1.8120	0	34.6210	4	27.696	0	2435.744	0	65.2	4	19.6	4	-1E+10	1	-1E+10	1	-1E+10	1	-1E+10	1	-1E+10	1	-1E+10	1
4902642	13	C	10/28/2024	04:22	-131.504	45.313	0	2489.90	0	1.8070	0	34.6220	4	27.697	0	2455.056	0	65.8	4	19.7	4	-1E+10	1	-1E+10	1	-1E+10	1	-1E+10	1	-1E+10	1	-1E+10	1
4902642	13	C	10/28/2024	04:22	-131.504	45.313	0	2509.80	0	1.8000	0	34.6230	4	27.699	0	2474.563	0	66.3	4	19.9	4	-1E+10	1	-1E+10	1	-1E+10	1	-1E+10	1	-1E+10	1	-1E+10	1
4902642	13	C	10/28/2024	04:22	-131.504	45.313	0	2529.80	0	1.7940	0	34.6240	4	27.700	0	2494.167	0	66.9	4	20.1	4	-1E+10	1	-1E+10	1	-1E+10	1	-1E+10	1	-1E+10	1	-1E+10	1
4902642	13	C	10/28/2024	04:22	-131.504	45.313	0	2550.00	0	1.7910	0	34.6250	4	27.701	0	2513.964	0	67.3	4	20.2	4	-1E+10	1	-1E+10	1	-1E+10	1	-1E+10	1	-1E+10	1	-1E+10	1
4902642	13	C	10/28/2024	04:22	-131.504	45.313	0	2570.00	0	1.7870	0	34.6250	4	27.702	0	2533.564	0	67.7	4	20.3	4	-1E+10	1	-1E+10	1	-1E+10	1	-1E+10	1	-1E+10	1	-1E+10	1
4902642	13	C	10/28/2024	04:22	-131.504	45.313	0	2589.50	0	1.7830	0	34.6250	4	27.702	0	2552.672	0	68.1	4	20.4	4	-1E+10	1	-1E+10	1	-1E+10	1	-1E+10	1	-1E+10	1	-1E+10	1
4902642	13	C	10/28/2024	04:22	-131.504	45.313	0	2609.70	0	1.7790	0	34.6260	4	27.703	0	2572.464	0	68.6	4	20.6	4	-1E+10	1	-1E+10	1	-1E+10	1	-1E+10	1	-1E+10	1	-1E+10	1
4902642	13	C	10/28/2024	04:22	-131.504	45.313	0	2630.20	0	1.7740	0	34.6270	4	27.705	0	2592.548	0	69.3	4	20.8	4	-1E+10	1	-1E+10	1	-1E+10	1	-1E+10	1	-1E+10	1	-1E+10	1
4902642	13	C	10/28/2024	04:22	-131.504	45.313	0	2650.50	0	1.7650	0	34.6280	4	27.706	0	2612.435	0	70.1	4	21.0	4	-1E+10	1	-1E+10	1	-1E+10	1	-1E+10	1	-1E+10	1	-1E+10	1
4902642	13	C	10/28/2024	04:22	-131.504	45.313	0	2670.00	0	1.7560	0	34.6290	4	27.708	0	2631.536	0	71.1	4	21.3	4	-1E+10	1	-1E+10	1	-1E+10	1	-1E+10	1	-1E+10	1	-1E+10	1
4902642	13	C	10/28/2024	04:22	-131.504	45.313	0	2690.20	0	1.7460	0	34.6310	4	27.710	0	2651.320	0	72.5	4	21.7	4	-1E+10	1	-1E+10	1	-1E+10	1	-1E+10	1	-1E+10	1	-1E+10	1
4902642	13	C	10/28/2024	04:22	-131.504	45.313	0	2710.10	0	1.7350	0	34.6320	4	27.712	0	2670.810	0	73.5	4	22.0	4	-1E+10	1	-1E+10	1	-1E+10	1	-1E+10	1	-1E+10	1	-1E+10	1
4902642	13	C	10/28/2024	04:22	-131.504	45.313	0	2730.00	0	1.7230	0	34.6340	4	27.715	0	2690.297	0	74.6	4	22.3	4	-1E+10	1	-1E+10	1	-1E+10	1	-1E+10	1	-1E+10	1	-1E+10	1
4902642	13	C	10/28/2024	04:22	-131.504	45.313	0	2750.10	0	1.7190	0	34.6350	4	27.716	0	2709.979	0	75.3	4	22.6	4	-1E+10	1	-1E+10	1	-1E+10	1	-1E+10	1	-1E+10	1	-1E+10	1
4902642	13	C	10/28/2024	04:22	-131.504	45.313	0	2770.30	0	1.7090	0	34.6360	4	27.717	0	2729.757	0	76.3	4	22.9	4	-1E+10	1	-1E+10	1	-1E+10	1	-1E+10	1	-1E+10	1	-1E+10	1
4902642	13	C	10/28/2024	04:22	-131.504	45.313	0	2790.50	0	1.7070	0	34.6370	4	27.718	0	2749.532	0	76.9	4	23.0	4	-1E+10	1	-1E+10	1	-1E+10	1	-1E+10	1	-1E+10	1	-1E+10	1
4902642	13	C	10/28/2024	04:22	-131.504	45.313	0	2810.00	0	1.6980	0	34.6380	4	27.720	0	2768.621	0	77.7	4	23.3	4	-1E+10	1	-1E+10	1	-1E+10	1	-1E+10	1	-1E+10	1	-1E+10	1
4902642	13	C	10/28/2024	04:22	-131.504	45.313	0	2829.90	0	1.6860	0	34.6380	4	27.721	0	2788.100	0	78.6	4	23.5	4	-1E+10	1	-1E+10	1	-1E+10	1	-1E+10	1	-1E+10	1	-1E+10	1
4902642	13	C	10/28/2024	04:22	-131.504	45.313	0	2850.00	0	1.6800	0	34.6390	4	27.722	0	2807.773	0	79.4	4	23.8	4	-1E+10	1	-1E+10	1	-1E+10	1	-1E+10	1	-1E+10	1	-1E+10	1
4902642	13	C	10/28/2024	04:22	-131.504	45.313	0	2870.00	0	1.6720	0	34.6400	4	27.724	0	2827.346	0	80.4	4	24.1	4	-1E+10	1	-1E+10	1	-1E+10	1	-1E+10	1	-1E+10	1	-1E+10	1
4902642	13	C	10/28/2024	04:22	-131.504	45.313	0	2889.80	0	1.6650	0	34.6410	4	27.725	0	2846.721	0	81.5	4	24.4	4	-1E+10	1	-1E+10	1	-1E+10	1	-1E+10	1	-1E+10	1	-1E+10	1
4902642	13	C	10/28/2024	04:22	-131.504	45.313	0	2909.50	0	1.6530	0	34.6430	4	27.728	0	2865.997	0	82.9	4	24.8	4	-1E+10	1	-1E+10	1	-1E+10	1	-1E+10	1	-1E+10	1	-1E+10	1
4902642	13	C	10/28/2024	04:22	-131.504	45.313	0	2929.60	0	1.6460	0	34.6440	4	27.729	0	2885.663	0	83.6	4	25.0	4	-1E+10	1	-1E+10	1	-1E+10	1	-1E+10	1	-1E+10	1	-1E+10	1
4902642	13	C	10/28/2024	04:22	-131.504	45.313	0	2949.50	0	1.6420	0	34.6450	4	27.731	0	2905.131	0	84.4	4	25.2	4	-1E+10	1	-1E+10	1	-1E+10	1	-1E+10	1	-1E+10	1	-1E+10	1
4902642	13	C	10/28/2024	04:22	-131.504	45.313	0	2969.80	0	1.6360	0	34.6460	4	27.732	0	2924.989	0	85.3	4	25.5	4	-1E+10	1	-1E+10	1	-1E+10	1	-1E+10	1	-1E+10	1	-1E+10	1
4902642	13	C	10/28/2024	04:22	-131.504	45.313	0	2989.70	0	1.6290	0	34.6480	4	27.734	0	2944.453	0	86.1	4	25.7	4	-1E+10	1	-1E+10	1	-1E+10	1	-1E+10	1	-1E+10	1	-1E+10	1
4902642	13	C	10/28/2024	04:22	-131.504	45.313	0	3009.80	0	1.6250	0	34.6480	4	27.735	0	2964.112	0	86.7	4	25.9	4	-1E+10	1	-1E+10	1	-1E+10	1	-1E+10	1	-1E+10	1	-1E+10	1
4902642	13	C	10/28/2024	04:22	-131.504	45.313	0	3030.00	0	1.6240	0	34.6490	4	27.736	0	2983.866	0	87.1	4	26.0	4	-1E+10	1	-1E+10	1	-1E+10	1	-1E+10	1	-1E+10	1	-1E+10	1
4902642	13	C	10/28/2024	04:22	-131.504	45.313	0	3050.90	0	1.6220	0	34.6500	4	27.737	0	3004.303	0	87.6	4	26.2	4	-1E+10	1	-1E+10	1	-1E+10	1	-1E+10	1	-1E+10	1	-1E+10	1
4902642	13	C	10/28/2024	04:22	-131.504	45.313	0	3070.10	0	1.6190	0	34.6500	4	27.737	0	3023.076	0	88.3	4	26.4	4	-1E+10	1	-1E+10	1	-1E+10	1	-1E+10	1	-1E+10	1	-1E+10	1
4902642	13	C	10/28/2024	04:22	-131.504	45.313	0	3089.80	0	1.6110	0	34.6510	4	27.739	0	3042.337	0	89.3	4	26.7	4	-1E+10	1	-1E+10	1	-1E+10	1	-1E+10	1	-1E+10	1	-1E+10	1
4902642	13	C	10/28/2024	04:22	-131.504	45.313	0	3109.60	0	1.6080	0	34.6520	4	27.740	0	3061.693	0	89.9	4	26.9	4	-1E+10	1	-1E+10	1	-1E+10	1	-1E+10	1	-1E+10	1	-1E+10	1
4902642	13	C	10/28/2024	04:22	-131.504	45.313	0	3130.20	0	1.6040	0	34.6530	4	27.741	0	3081.829	0	90.6	4	27.1	4	-1E+10	1	-1E+10	1	-1E+10	1	-1E+10	1	-1E+10	1	-1E+10	1
4902642	13	C	10/28/2024	04:22	-131.504	45.313	0	3150.10	0	1.6000	0	34.6540	4	27.742	0	3101.280	0	91.2	4	27.2	4	-1E+10	1	-1E+10	1	-1E+10	1	-1E+10	1	-1E+10	1	-1E+10	1
4902642	13	C	10/28/2024	04:22	-131.504	45.313	0	3169.70	0	1.5970	0	34.6540	4	27.742	0	3120.436	0	91.8	4	27.4	4	-1E+10	1	-1E+10	1	-1E+10	1	-1E+10	1	-1E+10	1	-1E+10	1
4902642	13	C	10/28/2024	04:22	-131.504	45.313	0	3189.60	0	1.5940	0	34.6550	4	27.744	0	3139.883	0	92.4	4	27.6	4	-1E+10	1	-1E+10	1	-1E+10	1	-1E+10	1	-1E+10	1	-1E+10	1
4902642	13	C	10/28/2024	04:22	-131.504	45.313	0	3205.50	0	1.5910	0	34.6560	4	27.745	0	3155.420	0	92.9	4	27.7	4	-1E+10	1	-1E+10	1	-1E+10	1	-1E+10	1	-1E+10	1	-1E+10	1
4902642	13	C	10/28/2024	04:22	-131.504	45.313	0	3211.80	0	1.5910	0	34.6560	4	27.745	0	3161.576	0	93.0	4	27.8	4	-1E+10	1	-1E+10	1	-1E+10	1	-1E+10	1	-1E+10	1	-1E+10	1
4902642	13	C	10/28/2024	04:22	-131.504	45.313	0	3212.90	0	1.5900	0	34.6560	4	27.745	0	3162.650	0	93.0	4	27.8	4	-1E+10	1	-1E+10	1	-1E+10	1	-1E+10	1	-1E+10	1	-1E+10	1
4902642	13	C	10/28/2024	04:22	-131.504	45.313	0	3213.90	0	1.5900	0	34.6560	4	27.745	0	3163.627	0	93.0	4	27.8	4	-1E+10	1	-1E+10	1	-1E+10	1	-1E+10	1	-1E+10	1	-1E+10	1
4902642	13	C	10/28/2024	04:22	-131.504	45.313	0	3215.00	0	1.5900	0	34.6560	4	27.745	0	3164.702	0	93.0	4	27.8	4	-1E+10	1	-1E+10	1	-1E+10	1	-1E+10	1	-1E+10	1	-1E+10	1
4902642	13	C	10/28/2024	04:22	-131.504	45.313	0	3216.00	0	1.5900	0	34.6570	4	27.746	0	3165.679	0	93.1	4	27.8	4	-1E+10	1	-1E+10	1	-1E+10	1	-1E+10	1	-1E+10	1	-1E+10	1
4902642	13	C	10/28/2024	04:22	-131.504	45.313	0	3217.10	0	1.5900	0	34.6560	4	27.745	0	3166.754	0	93.1	4	27.8	4	-1E+10	1	-1E+10	1	-1E+10	1	-1E+10	1	-1E+10	1	-1E+10	1
4902642	13	C	10/28/2024	04:22	-131.504	45.313	0	3218.10	0	1.5900	0	34.6570	4	27.746	0	3167.731	0	93.1	4	27.8	4	-1E+10	1	-1E+10	1	-1E+10	1	-1E+10	1	-1E+10	1	-1E+10	1
4902642	13	C	10/28/2024	04:22	-131.504	45.313	0	3219.20	0	1.5900	0	34.6570	4	27.746	0	3168.806	0	93.1	4	27.8	4	-1E+10	1	-1E+10	1	-1E+10	1	-1E+10	1	-1E+10	1	-1E+10	1
4902642	13	C	10/28/2024	04:22	-131.504	45.313	0	3220.30	0	1.5900	0	34.6570	4	27.746	0	3169.881	0	93.1	4	27.8	4	-1E+10	1	-1E+10	1	-1E+10	1	-1E+10	1	-1E+10	1	-1E+10	1
4902642	13	C	10/28/2024	04:22	-131.504	45.313	0	3221.30	0	1.5910	0	34.6560	4	27.745	0	3170.858	0	93.1	4	27.8	4	-1E+10	1	-1E+10	1	-1E+10	1	-1E+10	1	-1E+10	1	-1E+10	1
4902642	13	C	10/28/2024	04:22	-131.504	45.313	0	3222.30	0	1.5910	0	34.6560	4	27.745	0	3171.835	0	93.1	4	27.8	4	-1E+10	1	-1E+10	1	-1E+10	1	-1E+10	1	-1E+10	1	-1E+10	1
4902642	13	C	10/28/2024	04:22	-131.504	45.313	0	3223.30	0	1.5910	0	34.6570	4	27.746	0	3172.812	0	93.2	4	27.8	4	-1E+10	1	-1E+10	1	-1E+10	1	-1E+10	1	-1E+10	1	-1E+10	1
4902642	13	C	10/28/2024	04:22	-131.504	45.313	0	3224.40	0	1.5900	0	34.6570	4	27.746	0	3173.887	0	93.2	4	27.8	4	-1E+10	1	-1E+10	1	-1E+10	1	-1E+10	1	-1E+10	1	-1E+10	1
4902642	13	C	10/28/2024	04:22	-131.504	45.313	0	3225.50	0	1.5910	0	34.6560	4	27.745	0	3174.961	0	93.2	4	27.8	4	-1E+10	1	-1E+10	1	-1E+10	1	-1E+10	1	-1E+10	1	-1E+10	1
4902642	13	C	10/28/2024	04:22	-131.504	45.313	0	3226.50	0	1.5910	0	34.6560	4	27.745	0	3175.938	0	93.2	4	27.8	4	-1E+10	1	-1E+10	1	-1E+10	1	-1E+10	1	-1E+10	1	-1E+10	1
4902642	13	C	10/28/2024	04:22	-131.504	45.313	0	3227.50	0	1.5900	0	34.6560	4	27.745	0	3176.915	0	93.3	4	27.8	4	-1E+10	1	-1E+10	1	-1E+10	1	-1E+10	1	-1E+10	1	-1E+10	1
4902642	13	C	10/28/2024	04:22	-131.504	45.313	0	3228.50	0	1.5880	0	34.6570	4	27.746	0	3177.892	0	93.3	4	27.9	4	-1E+10	1	-1E+10	1	-1E+10	1	-1E+10	1	-1E+10	1	-1E+10	1
4902642	13	C	10/28/2024	04:22	-131.504	45.313	0	3229.60	0	1.5880	0	34.6570	4	27.746	0	3178.967	0	93.3	4	27.9	4	-1E+10	1	-1E+10	1	-1E+10	1	-1E+10	1	-1E+10	1	-1E+10	1
4902642	13	C	10/28/2024	04:22	-131.504	45.313	0	3230.50	0	1.5880	0	34.6570	4	27.746	0	3179.847	0	93.3	4	27.9	4	-1E+10	1	-1E+10	1	-1E+10	1	-1E+10	1	-1E+10	1	-1E+10	1
4902642	13	C	10/28/2024	04:22	-131.504	45.313	0	3231.70	0	1.5890	0	34.6570	4	27.746	0	3181.019	0	93.3	4	27.9	4	-1E+10	1	-1E+10	1	-1E+10	1	-1E+10	1	-1E+10	1	-1E+10	1
4902642	13	C	10/28/2024	04:22	-131.504	45.313	0	3232.60	0	1.5890	0	34.6570	4	27.746	0	3181.898	0	93.3	4	27.9	4	-1E+10	1	-1E+10	1	-1E+10	1	-1E+10	1	-1E+10	1	-1E+10	1
4902642	13	C	10/28/2024	04:22	-131.504	45.313	0	3233.70	0	1.5880	0	34.6570	4	27.746	0	3182.973	0	93.3	4	27.9	4	-1E+10	1	-1E+10	1	-1E+10	1	-1E+10	1	-1E+10	1	-1E+10	1
4902642	13	C	10/28/2024	04:22	-131.504	45.313	0	3234.70	0	1.5890	0	34.6570	4	27.746	0	3183.950	0	93.3	4	27.9	4	-1E+10	1	-1E+10	1	-1E+10	1	-1E+10	1	-1E+10	1	-1E+10	1
4902642	13	C	10/28/2024	04:22	-131.504	45.313	0	3235.70	0	1.5890	0	34.6570	4	27.746	0	3184.927	0	93.3	4	27.9	4	-1E+10	1	-1E+10	1	-1E+10	1	-1E+10	1	-1E+10	1	-1E+10	1
4902642	13	C	10/28/2024	04:22	-131.504	45.313	0	3236.80	0	1.5890	0	34.6570	4	27.746	0	3186.002	0	93.3	4	27.9	4	-1E+10	1	-1E+10	1	-1E+10	1	-1E+10	1	-1E+10	1	-1E+10	1
4902642	13	C	10/28/2024	04:22	-131.504	45.313	0	3237.80	0	1.5890	0	34.6570	4	27.746	0	3186.979	0	93.3	4	27.9	4	-1E+10	1	-1E+10	1	-1E+10	1	-1E+10	1	-1E+10	1	-1E+10	1
4902642	13	C	10/28/2024	04:22	-131.504	45.313	0	3238.80	0	1.5890	0	34.6570	4	27.746	0	3187.956	0	93.3	4	27.9	4	-1E+10	1	-1E+10	1	-1E+10	1	-1E+10	1	-1E+10	1	-1E+10	1
4902642	13	C	10/28/2024	04:22	-131.504	45.313	0	3239.90	0	1.5890	0	34.6570	4	27.746	0	3189.030	0	93.3	4	27.9	4	-1E+10	1	-1E+10	1	-1E+10	1	-1E+10	1	-1E+10	1	-1E+10	1
4902642	13	C	10/28/2024	04:22	-131.504	45.313	0	3240.90	0	1.5890	0	34.6570	4	27.746	0	3190.007	0	93.3	4	27.9	4	-1E+10	1	-1E+10	1	-1E+10	1	-1E+10	1	-1E+10	1	-1E+10	1
4902642	13	C	10/28/2024	04:22	-131.504	45.313	0	3241.90	0	1.5890	0	34.6570	4	27.746	0	3190.984	0	93.3	4	27.9	4	-1E+10	1	-1E+10	1	-1E+10	1	-1E+10	1	-1E+10	1	-1E+10	1
4902642	13	C	10/28/2024	04:22	-131.504	45.313	0	3243.00	0	1.5890	0	34.6570	4	27.746	0	3192.059	0	93.4	4	27.9	4	-1E+10	1	-1E+10	1	-1E+10	1	-1E+10	1	-1E+10	1	-1E+10	1
4902642	13	C	10/28/2024	04:22	-131.504	45.313	0	3243.90	0	1.5900	0	34.6570	4	27.746	0	3192.938	0	93.3	4	27.9	4	-1E+10	1	-1E+10	1	-1E+10	1	-1E+10	1	-1E+10	1	-1E+10	1
4902642	13	C	10/28/2024	04:22	-131.504	45.313	0	3245.00	0	1.5900	0	34.6570	4	27.746	0	3194.013	0	93.4	4	27.9	4	-1E+10	1	-1E+10	1	-1E+10	1	-1E+10	1	-1E+10	1	-1E+10	1
4902642	13	C	10/28/2024	04:22	-131.504	45.313	0	3246.10	0	1.5900	0	34.6570	4	27.746	0	3195.088	0	93.3	4	27.9	4	-1E+10	1	-1E+10	1	-1E+10	1	-1E+10	1	-1E+10	1	-1E+10	1
4902642	13	C	10/28/2024	04:22	-131.504	45.313	0	3247.10	0	1.5900	0	34.6570	4	27.746	0	3196.065	0	93.3	4	27.9	4	-1E+10	1	-1E+10	1	-1E+10	1	-1E+10	1	-1E+10	1	-1E+10	1
4902642	13	C	10/28/2024	04:22	-131.504	45.313	0	3248.20	0	1.5900	0	34.6570	4	27.746	0	3197.139	0	93.4	4	27.9	4	-1E+10	1	-1E+10	1	-1E+10	1	-1E+10	1	-1E+10	1	-1E+10	1
4902642	13	C	10/28/2024	04:22	-131.504	45.313	0	3249.30	0	1.5900	0	34.6570	4	27.746	0	3198.214	0	93.4	4	27.9	4	-1E+10	1	-1E+10	1	-1E+10	1	-1E+10	1	-1E+10	1	-1E+10	1
4902642	13	C	10/28/2024	04:22	-131.504	45.313	0	3250.20	0	1.5900	0	34.6570	4	27.746	0	3199.093	0	93.3	4	27.9	4	-1E+10	1	-1E+10	1	-1E+10	1	-1E+10	1	-1E+10	1	-1E+10	1
4902642	13	C	10/28/2024	04:22	-131.504	45.313	0	3252.00	0	1.5900	0	34.6570	4	27.746	0	3200.851	0	93.4	4	27.9	4	-1E+10	1	-1E+10	1	-1E+10	1	-1E+10	1	-1E+10	1	-1E+10	1
4902642	13	C	10/28/2024	04:22	-131.504	45.313	0	3252.80	0	1.5890	0	34.6570	4	27.746	0	3201.633	0	93.4	4	27.9	4	-1E+10	1	-1E+10	1	-1E+10	1	-1E+10	1	-1E+10	1	-1E+10	1
4902642	13	C	10/28/2024	04:22	-131.504	45.313	0	3253.70	0	1.5890	0	34.6570	4	27.746	0	3202.512	0	93.4	4	27.9	4	-1E+10	1	-1E+10	1	-1E+10	1	-1E+10	1	-1E+10	1	-1E+10	1
4902642	13	C	10/28/2024	04:22	-131.504	45.313	0	3254.50	0	1.5900	0	34.6570	4	27.746	0	3203.294	0	93.4	4	27.9	4	-1E+10	1	-1E+10	1	-1E+10	1	-1E+10	1	-1E+10	1	-1E+10	1
4902642	13	C	10/28/2024	04:22	-131.504	45.313	0	3255.40	0	1.5900	0	34.6570	4	27.746	0	3204.173	0	93.5	4	27.9	4	-1E+10	1	-1E+10	1	-1E+10	1	-1E+10	1	-1E+10	1	-1E+10	1
4902642	13	C	10/28/2024	04:22	-131.504	45.313	0	3256.30	0	1.5900	0	34.6570	4	27.746	0	3205.052	0	93.4	4	27.9	4	-1E+10	1	-1E+10	1	-1E+10	1	-1E+10	1	-1E+10	1	-1E+10	1
4902642	13	C	10/28/2024	04:22	-131.504	45.313	0	3257.20	0	1.5900	0	34.6570	4	27.746	0	3205.931	0	93.4	4	27.9	4	-1E+10	1	-1E+10	1	-1E+10	1	-1E+10	1	-1E+10	1	-1E+10	1
4902642	13	C	10/28/2024	04:22	-131.504	45.313	0	3258.40	0	1.5900	0	34.6570	4	27.746	0	3207.104	0	93.4	4	27.9	4	-1E+10	1	-1E+10	1	-1E+10	1	-1E+10	1	-1E+10	1	-1E+10	1
4902642	13	C	10/28/2024	04:22	-131.504	45.313	0	3260.50	0	1.5900	0	34.6570	4	27.746	0	3209.155	0	93.4	4	27.9	4	-1E+10	1	-1E+10	1	-1E+10	1	-1E+10	1	-1E+10	1	-1E+10	1
4902642	13	C	10/28/2024	04:22	-131.504	45.313	0	3261.60	0	1.5920	0	34.6570	4	27.746	0	3210.230	0	93.3	4	27.9	4	-1E+10	1	-1E+10	1	-1E+10	1	-1E+10	1	-1E+10	1	-1E+10	1
4902642	13	C	10/28/2024	04:22	-131.504	45.313	0																										
4902642	14	C	11/07/2024	03:20	-131.604	45.413	0	1.30	0	14.8470	0	32.6530	0	24.197	0	1.289	0	228.8	4	90.6	4	-1E+10	1	-1E+10	1	-1E+10	1	-1E+10	1	-1E+10	1	-1E+10	1
4902642	14	C	11/07/2024	03:20	-131.604	45.413	0	1.40	0	14.8470	0	32.6530	0	24.197	0	1.389	0	228.8	4	90.6	4	-1E+10	1	-1E+10	1	-1E+10	1	-1E+10	1	-1E+10	1	-1E+10	1
4902642	14	C	11/07/2024	03:20	-131.604	45.413	0	1.50	0	14.8470	0	32.6530	0	24.197	0	1.488	0	228.6	4	90.5	4	-1E+10	1	-1E+10	1	-1E+10	1	-1E+10	1	-1E+10	1	-1E+10	1
4902642	14	C	11/07/2024	03:20	-131.604	45.413	0	1.60	0	14.8467	0	32.6533	0	24.197	0	1.587	0	228.7	4	90.5	4	-1E+10	1	-1E+10	1	-1E+10	1	-1E+10	1	-1E+10	1	-1E+10	1
4902642	14	C	11/07/2024	03:20	-131.604	45.413	0	1.70	0	14.8470	0	32.6530	0	24.197	0	1.686	0	-1e10	1	-1e10	1	-1E+10	1	-1E+10	1	-1E+10	1	-1E+10	1	-1E+10	1	-1E+10	1
4902642	14	C	11/07/2024	03:20	-131.604	45.413	0	2.00	0	14.8480	0	32.6530	0	24.197	0	1.984	0	228.7	4	90.5	4	-1E+10	1	-1E+10	1	-1E+10	1	-1E+10	1	-1E+10	1	-1E+10	1
4902642	14	C	11/07/2024	03:20	-131.604	45.413	0	2.50	0	14.8490	0	32.6520	0	24.196	0	2.480	0	228.6	4	90.5	4	-1E+10	1	-1E+10	1	-1E+10	1	-1E+10	1	-1E+10	1	-1E+10	1
4902642	14	C	11/07/2024	03:20	-131.604	45.413	0	3.40	0	14.8490	0	32.6520	0	24.196	0	3.372	0	228.5	4	90.5	4	-1E+10	1	-1E+10	1	-1E+10	1	-1E+10	1	-1E+10	1	-1E+10	1
4902642	14	C	11/07/2024	03:20	-131.604	45.413	0	4.30	0	14.8500	0	32.6530	0	24.196	0	4.265	0	228.4	4	90.4	4	-1E+10	1	-1E+10	1	-1E+10	1	-1E+10	1	-1E+10	1	-1E+10	1
4902642	14	C	11/07/2024	03:20	-131.604	45.413	0	5.40	0	14.8510	0	32.6530	0	24.196	0	5.356	0	228.5	4	90.4	4	-1E+10	1	-1E+10	1	-1E+10	1	-1E+10	1	-1E+10	1	-1E+10	1
4902642	14	C	11/07/2024	03:20	-131.604	45.413	0	6.50	0	14.8510	0	32.6530	0	24.196	0	6.447	0	228.4	4	90.4	4	-1E+10	1	-1E+10	1	-1E+10	1	-1E+10	1	-1E+10	1	-1E+10	1
4902642	14	C	11/07/2024	03:20	-131.604	45.413	0	7.70	0	14.8510	0	32.6530	0	24.196	0	7.637	0	228.3	4	90.4	4	-1E+10	1	-1E+10	1	-1E+10	1	-1E+10	1	-1E+10	1	-1E+10	1
4902642	14	C	11/07/2024	03:20	-131.604	45.413	0	8.60	0	14.8520	0	32.6530	0	24.196	0	8.530	0	228.2	4	90.4	4	-1E+10	1	-1E+10	1	-1E+10	1	-1E+10	1	-1E+10	1	-1E+10	1
4902642	14	C	11/07/2024	03:20	-131.604	45.413	0	9.50	0	14.8510	0	32.6530	0	24.196	0	9.422	0	228.4	4	90.4	4	-1E+10	1	-1E+10	1	-1E+10	1	-1E+10	1	-1E+10	1	-1E+10	1
4902642	14	C	11/07/2024	03:20	-131.604	45.413	0	14.50	0	14.8360	0	32.6540	0	24.200	0	14.381	0	228.1	4	90.3	4	-1E+10	1	-1E+10	1	-1E+10	1	-1E+10	1	-1E+10	1	-1E+10	1
4902642	14	C	11/07/2024	03:20	-131.604	45.413	0	24.70	0	14.7430	0	32.6530	0	24.220	0	24.497	0	228.1	4	90.1	4	-1E+10	1	-1E+10	1	-1E+10	1	-1E+10	1	-1E+10	1	-1E+10	1
4902642	14	C	11/07/2024	03:20	-131.604	45.413	0	34.50	0	14.7360	0	32.6540	0	24.222	0	34.216	0	227.9	4	90.0	4	-1E+10	1	-1E+10	1	-1E+10	1	-1E+10	1	-1E+10	1	-1E+10	1
4902642	14	C	11/07/2024	03:20	-131.604	45.413	0	45.10	0	14.7260	0	32.6520	0	24.223	0	44.727	0	228.0	4	90.1	4	-1E+10	1	-1E+10	1	-1E+10	1	-1E+10	1	-1E+10	1	-1E+10	1
4902642	14	C	11/07/2024	03:20	-131.604	45.413	0	55.00	0	14.6380	0	32.6420	0	24.234	0	54.544	0	231.6	4	91.3	4	-1E+10	1	-1E+10	1	-1E+10	1	-1E+10	1	-1E+10	1	-1E+10	1
4902642	14	C	11/07/2024	03:20	-131.604	45.413	0	64.70	0	12.0270	0	32.6620	0	24.771	0	64.162	0	244.7	4	91.5	4	-1E+10	1	-1E+10	1	-1E+10	1	-1E+10	1	-1E+10	1	-1E+10	1
4902642	14	C	11/07/2024	03:20	-131.604	45.413	0	74.60	0	10.6810	0	32.6670	0	25.017	0	73.978	0	239.9	4	87.2	4	-1E+10	1	-1E+10	1	-1E+10	1	-1E+10	1	-1E+10	1	-1E+10	1
4902642	14	C	11/07/2024	03:20	-131.604	45.413	0	84.90	0	10.2430	0	32.6690	0	25.094	0	84.190	0	236.9	4	85.3	4	-1E+10	1	-1E+10	1	-1E+10	1	-1E+10	1	-1E+10	1	-1E+10	1
4902642	14	C	11/07/2024	03:20	-131.604	45.413	0	95.10	0	9.9120	0	32.7030	0	25.175	0	94.303	0	234.1	4	83.7	4	-1E+10	1	-1E+10	1	-1E+10	1	-1E+10	1	-1E+10	1	-1E+10	1
4902642	14	C	11/07/2024	03:20	-131.604	45.413	0	105.20	0	9.4490	0	32.7030	0	25.251	0	104.315	0	231.8	4	82.1	4	-1E+10	1	-1E+10	1	-1E+10	1	-1E+10	1	-1E+10	1	-1E+10	1
4902642	14	C	11/07/2024	03:20	-131.604	45.413	0	114.90	0	9.3040	0	32.7790	0	25.334	0	113.931	0	224.1	4	79.1	4	-1E+10	1	-1E+10	1	-1E+10	1	-1E+10	1	-1E+10	1	-1E+10	1
4902642	14	C	11/07/2024	03:20	-131.604	45.413	0	124.90	0	8.9810	0	32.9410	0	25.511	0	123.844	0	211.4	4	74.2	4	-1E+10	1	-1E+10	1	-1E+10	1	-1E+10	1	-1E+10	1	-1E+10	1
4902642	14	C	11/07/2024	03:20	-131.604	45.413	0	134.60	0	8.5700	0	33.0890	0	25.691	0	133.459	0	203.2	4	70.8	4	-1E+10	1	-1E+10	1	-1E+10	1	-1E+10	1	-1E+10	1	-1E+10	1
4902642	14	C	11/07/2024	03:20	-131.604	45.413	0	144.60	0	8.2140	0	33.2110	0	25.840	0	143.371	0	197.5	4	68.3	4	-1E+10	1	-1E+10	1	-1E+10	1	-1E+10	1	-1E+10	1	-1E+10	1
4902642	14	C	11/07/2024	03:20	-131.604	45.413	0	154.70	0	7.9350	0	33.3440	0	25.985	0	153.381	0	197.4	4	67.9	4	-1E+10	1	-1E+10	1	-1E+10	1	-1E+10	1	-1E+10	1	-1E+10	1
4902642	14	C	11/07/2024	03:20	-131.604	45.413	0	164.70	0	7.9050	0	33.4590	0	26.080	0	163.292	0	195.6	4	67.3	4	-1E+10	1	-1E+10	1	-1E+10	1	-1E+10	1	-1E+10	1	-1E+10	1
4902642	14	C	11/07/2024	03:20	-131.604	45.413	0	174.60	0	7.6820	0	33.5240	0	26.164	0	173.103	0	191.5	4	65.5	4	-1E+10	1	-1E+10	1	-1E+10	1	-1E+10	1	-1E+10	1	-1E+10	1
4902642	14	C	11/07/2024	03:20	-131.604	45.413	0	184.60	0	7.4210	0	33.5870	0	26.250	0	183.013	0	188.6	4	64.2	4	-1E+10	1	-1E+10	1	-1E+10	1	-1E+10	1	-1E+10	1	-1E+10	1
4902642	14	C	11/07/2024	03:20	-131.604	45.413	0	192.20	0	7.2870	0	33.6460	0	26.315	0	190.544	0	186.9	4	63.5	4	-1E+10	1	-1E+10	1	-1E+10	1	-1E+10	1	-1E+10	1	-1E+10	1
4902642	14	C	11/07/2024	03:20	-131.604	45.413	0	204.60	0	7.0270	0	33.6960	0	26.391	0	202.831	0	178.9	4	60.4	4	-1E+10	1	-1E+10	1	-1E+10	1	-1E+10	1	-1E+10	1	-1E+10	1
4902642	14	C	11/07/2024	03:20	-131.604	45.413	0	224.20	0	6.7550	0	33.7620	0	26.480	0	222.251	0	164.7	4	55.3	4	-1E+10	1	-1E+10	1	-1E+10	1	-1E+10	1	-1E+10	1	-1E+10	1
4902642	14	C	11/07/2024	03:20	-131.604	45.413	0	244.60	0	6.4630	0	33.7880	0	26.539	0	242.462	0	151.2	4	50.4	4	-1E+10	1	-1E+10	1	-1E+10	1	-1E+10	1	-1E+10	1	-1E+10	1
4902642	14	C	11/07/2024	03:20	-131.604	45.413	0	264.50	0	6.1860	0	33.7990	0	26.583	0	262.175	0	138.0	4	45.8	4	-1E+10	1	-1E+10	1	-1E+10	1	-1E+10	1	-1E+10	1	-1E+10	1
4902642	14	C	11/07/2024	03:20	-131.604	45.413	0	284.40	0	5.9600	0	33.8060	0	26.617	0	281.887	0	125.4	4	41.4	4	-1E+10	1	-1E+10	1	-1E+10	1	-1E+10	1	-1E+10	1	-1E+10	1
4902642	14	C	11/07/2024	03:20	-131.604	45.413	0	304.70	0	5.6870	0	33.8190	0	26.661	0	301.992	0	109.4	4	35.9	4	-1E+10	1	-1E+10	1	-1E+10	1	-1E+10	1	-1E+10	1	-1E+10	1
4902642	14	C	11/07/2024	03:20	-131.604	45.413	0	324.60	0	5.5600	0	33.8460	0	26.698	0	321.700	0	95.5	4	31.2	4	-1E+10	1	-1E+10	1	-1E+10	1	-1E+10	1	-1E+10	1	-1E+10	1
4902642	14	C	11/07/2024	03:20	-131.604	45.413	0	345.10	0	5.4140	0	33.8640	0	26.730	0	342.000	0	87.5	4	28.5	4	-1E+10	1	-1E+10	1	-1E+10	1	-1E+10	1	-1E+10	1	-1E+10	1
4902642	14	C	11/07/2024	03:20	-131.604	45.413	0	364.50	0	5.2360	0	33.8770	0	26.761	0	361.209	0	79.5	4	25.8	4	-1E+10	1	-1E+10	1	-1E+10	1	-1E+10	1	-1E+10	1	-1E+10	1
4902642	14	C	11/07/2024	03:20	-131.604	45.413	0	384.80	0	5.0490	0	33.8960	0	26.798	0	381.307	0	72.4	4	23.4	4	-1E+10	1	-1E+10	1	-1E+10	1	-1E+10	1	-1E+10	1	-1E+10	1
4902642	14	C	11/07/2024	03:20	-131.604	45.413	0	405.00	0	4.9620	0	33.9110	0	26.820	0	401.304	0	67.2	4	21.7	4	-1E+10	1	-1E+10	1	-1E+10	1	-1E+10	1	-1E+10	1	-1E+10	1
4902642	14	C	11/07/2024	03:20	-131.604	45.413	0	425.10	0	4.8590	0	33.9250	0	26.843	0	421.200	0	61.2	4	19.7	4	-1E+10	1	-1E+10	1	-1E+10	1	-1E+10	1	-1E+10	1	-1E+10	1
4902642	14	C	11/07/2024	03:20	-131.604	45.413	0	444.80	0	4.7580	0	33.9470	0	26.872	0	440.699	0	52.7	4	16.9	4	-1E+10	1	-1E+10	1	-1E+10	1	-1E+10	1	-1E+10	1	-1E+10	1
4902642	14	C	11/07/2024	03:20	-131.604	45.413	0	464.90	0	4.6660	0	33.9780	0	26.906	0	460.591	0	46.1	4	14.8	4	-1E+10	1	-1E+10	1	-1E+10	1	-1E+10	1	-1E+10	1	-1E+10	1
4902642	14	C	11/07/2024	03:20	-131.604	45.413	0	484.80	0	4.5950	0	33.9940	0	26.927	0	480.284	0	41.6	4	13.3	4	-1E+10	1	-1E+10	1	-1E+10	1	-1E+10	1	-1E+10	1	-1E+10	1
4902642	14	C	11/07/2024	03:20	-131.604	45.413	0	504.80	0	4.5380	0	34.0180	0	26.952	0	500.073	0	35.8	4	11.4	4	-1E+10	1	-1E+10	1	-1E+10	1	-1E+10	1	-1E+10	1	-1E+10	1
4902642	14	C	11/07/2024	03:20	-131.604	45.413	0	524.60	0	4.4840	0	34.0430	0	26.978	0	519.663	0	30.6	4	9.8	4	-1E+10	1	-1E+10	1	-1E+10	1	-1E+10	1	-1E+10	1	-1E+10	1
4902642	14	C	11/07/2024	03:20	-131.604	45.413	0	544.80	0	4.4350	0	34.0570	0	26.995	0	539.647	0	27.7	4	8.8	4	-1E+10	1	-1E+10	1	-1E+10	1	-1E+10	1	-1E+10	1	-1E+10	1
4902642	14	C	11/07/2024	03:20	-131.604	45.413	0	564.70	0	4.3860	0	34.0780	0	27.017	0	559.332	0	24.2	4	7.7	4	-1E+10	1	-1E+10	1	-1E+10	1	-1E+10	1	-1E+10	1	-1E+10	1
4902642	14	C	11/07/2024	03:20	-131.604	45.413	0	584.80	0	4.3570	0	34.0910	0	27.030	0	579.213	0	21.7	4	6.9	4	-1E+10	1	-1E+10	1	-1E+10	1	-1E+10	1	-1E+10	1	-1E+10	1
4902642	14	C	11/07/2024	03:20	-131.604	45.413	0	604.50	0	4.3310	0	34.1100	0	27.048	0	598.696	0	18.5	4	5.9	4	-1E+10	1	-1E+10	1	-1E+10	1	-1E+10	1	-1E+10	1	-1E+10	1
4902642	14	C	11/07/2024	03:20	-131.604	45.413	0	623.70	0	4.3070	0	34.1330	0	27.069	0	617.683	0	15.4	4	4.9	4	-1E+10	1	-1E+10	1	-1E+10	1	-1E+10	1	-1E+10	1	-1E+10	1
4902642	14	C	11/07/2024	03:20	-131.604	45.413	0	645.00	0	4.2880	0	34.1600	0	27.093	0	638.745	0	13.0	4	4.1	4	-1E+10	1	-1E+10	1	-1E+10	1	-1E+10	1	-1E+10	1	-1E+10	1
4902642	14	C	11/07/2024	03:20	-131.604	45.413	0	665.00	0	4.2410	0	34.1750	0	27.110	0	658.520	0	11.5	4	3.7	4	-1E+10	1	-1E+10	1	-1E+10	1	-1E+10	1	-1E+10	1	-1E+10	1
4902642	14	C	11/07/2024	03:20	-131.604	45.413	0	684.80	0	4.1910	0	34.1910	0	27.128	0	678.095	0	10.0	4	3.2	4	-1E+10	1	-1E+10	1	-1E+10	1	-1E+10	1	-1E+10	1	-1E+10	1
4902642	14	C	11/07/2024	03:20	-131.604	45.413	0	704.90	0	4.1590	0	34.2120	0	27.148	0	697.964	0	8.7	4	2.8	4	-1E+10	1	-1E+10	1	-1E+10	1	-1E+10	1	-1E+10	1	-1E+10	1
4902642	14	C	11/07/2024	03:20	-131.604	45.413	0	724.80	0	4.1450	0	34.2290	0	27.163	0	717.634	0	7.8	4	2.5	4	-1E+10	1	-1E+10	1	-1E+10	1	-1E+10	1	-1E+10	1	-1E+10	1
4902642	14	C	11/07/2024	03:20	-131.604	45.413	0	745.10	0	4.1060	0	34.2440	0	27.180	0	737.697	0	7.2	4	2.3	4	-1E+10	1	-1E+10	1	-1E+10	1	-1E+10	1	-1E+10	1	-1E+10	1
4902642	14	C	11/07/2024	03:20	-131.604	45.413	0	764.90	0	4.0610	0	34.2570	0	27.195	0	757.265	0	6.7	4	2.1	4	-1E+10	1	-1E+10	1	-1E+10	1	-1E+10	1	-1E+10	1	-1E+10	1
4902642	14	C	11/07/2024	03:20	-131.604	45.413	0	785.10	0	4.0020	0	34.2720	0	27.213	0	777.226	0	6.1	4	1.9	4	-1E+10	1	-1E+10	1	-1E+10	1	-1E+10	1	-1E+10	1	-1E+10	1
4902642	14	C	11/07/2024	03:20	-131.604	45.413	0	804.40	0	3.9610	0	34.2900	0	27.232	0	796.295	0	5.7	4	1.8	4	-1E+10	1	-1E+10	1	-1E+10	1	-1E+10	1	-1E+10	1	-1E+10	1
4902642	14	C	11/07/2024	03:20	-131.604	45.413	0	824.20	0	3.9110	0	34.3030	0	27.247	0	815.857	0	5.4	4	1.7	4	-1E+10	1	-1E+10	1	-1E+10	1	-1E+10	1	-1E+10	1	-1E+10	1
4902642	14	C	11/07/2024	03:20	-131.604	45.413	0	844.70	0	3.8400	0	34.3110	0	27.261	0	836.109	0	5.3	4	1.7	4	-1E+10	1	-1E+10	1	-1E+10	1	-1E+10	1	-1E+10	1	-1E+10	1
4902642	14	C	11/07/2024	03:20	-131.604	45.413	0	864.70	0	3.7860	0	34.3190	0	27.273	0	855.864	0	5.3	4	1.7	4	-1E+10	1	-1E+10	1	-1E+10	1	-1E+10	1	-1E+10	1	-1E+10	1
4902642	14	C	11/07/2024	03:20	-131.604	45.413	0	884.60	0	3.7490	0	34.3280	0	27.284	0	875.519	0	5.3	4	1.7	4	-1E+10	1	-1E+10	1	-1E+10	1	-1E+10	1	-1E+10	1	-1E+10	1
4902642	14	C	11/07/2024	03:20	-131.604	45.413	0	904.70	0	3.7200	0	34.3390	0	27.295	0	895.370	0	5.3	4	1.7	4	-1E+10	1	-1E+10	1	-1E+10	1	-1E+10	1	-1E+10	1	-1E+10	1
4902642	14	C	11/07/2024	03:20	-131.604	45.413	0	924.70	0	3.7140	0	34.3550	0	27.309	0	915.120	0	5.4	4	1.7	4	-1E+10	1	-1E+10	1	-1E+10	1	-1E+10	1	-1E+10	1	-1E+10	1
4902642	14	C	11/07/2024	03:20	-131.604	45.413	0	944.90	0	3.6650	0	34.3640	0	27.321	0	935.066	0	5.5	4	1.7	4	-1E+10	1	-1E+10	1	-1E+10	1	-1E+10	1	-1E+10	1	-1E+10	1
4902642	14	C	11/07/2024	03:20	-131.604	45.413	0	964.90	0	3.6300	0	34.3710	0	27.330	0	954.812	0	5.7	4	1.8	4	-1E+10	1	-1E+10	1	-1E+10	1	-1E+10	1	-1E+10	1	-1E+10	1
4902642	14	C	11/07/2024	03:20	-131.604	45.413	0	985.20	0	3.5970	0	34.3800	0	27.341	0	974.853	0	6.1	4	1.9	4	-1E+10	1	-1E+10	1	-1E+10	1	-1E+10	1	-1E+10	1	-1E+10	1
4902642	14	C	11/07/2024	03:20	-131.604	45.413	0	1004.60	0	3.5630	0	34.3920	0	27.354	0	994.003	0	6.6	4	2.1	4	-1E+10	1	-1E+10	1	-1E+10	1	-1E+10	1	-1E+10	1	-1E+10	1
4902642	14	C	11/07/2024	03:20	-131.604	45.413	0	1024.60	0	3.5040	0	34.4000	0	27.366	0	1013.743	0	6.9	4	2.2	4	-1E+10	1	-1E+10	1	-1E+10	1	-1E+10	1	-1E+10	1	-1E+10	1
4902642	14	C	11/07/2024	03:20	-131.604	45.413	0	1044.70	0	3.4500	0	34.4070	0	27.377	0	1033.581	0	7.3	4	2.3	4	-1E+10	1	-1E+10	1	-1E+10	1	-1E+10	1	-1E+10	1	-1E+10	1
4902642	14	C	11/07/2024	03:20	-131.604	45.413	0	1064.80	0	3.3900	0	34.4150	0	27.389	0	1053.417	0	7.8	4	2.4	4	-1E+10	1	-1E+10	1	-1E+10	1	-1E+10	1	-1E+10	1	-1E+10	1
4902642	14	C	11/07/2024	03:20	-131.604	45.413	0	1084.80	0	3.3460	0	34.4220	0	27.399	0	1073.152	0	8.1	4	2.5	4	-1E+10	1	-1E+10	1	-1E+10	1	-1E+10	1	-1E+10	1	-1E+10	1
4902642	14	C	11/07/2024	03:20	-131.604	45.413	0	1105.00	0	3.3070	0	34.4270	0	27.407	0	1093.082	0	8.5	4	2.6	4	-1E+10	1	-1E+10	1	-1E+10	1	-1E+10	1	-1E+10	1	-1E+10	1
4902642	14	C	11/07/2024	03:20	-131.604	45.413	0	1124.80	0	3.2610	0	34.4330	0	27.416	0	1112.616	0	9.0	4	2.8	4	-1E+10	1	-1E+10	1	-1E+10	1	-1E+10	1	-1E+10	1	-1E+10	1
4902642	14	C	11/07/2024	03:20	-131.604	45.413	0	1144.80	0	3.2210	0	34.4380	0	27.424	0	1132.346	0	9.5	4	2.9	4	-1E+10	1	-1E+10	1	-1E+10	1	-1E+10	1	-1E+10	1	-1E+10	1
4902642	14	C	11/07/2024	03:20	-131.604	45.413	0	1165.00	0	3.1840	0	34.4420	0	27.430	0	1152.271	0	9.9	4	3.1	4	-1E+10	1	-1E+10	1	-1E+10	1	-1E+10	1	-1E+10	1	-1E+10	1
4902642	14	C	11/07/2024	03:20	-131.604	45.413	0	1185.50	0	3.1360	0	34.4470	0	27.439	0	1172.489	0	10.3	4	3.2	4	-1E+10	1	-1E+10	1	-1E+10	1	-1E+10	1	-1E+10	1	-1E+10	1
4902642	14	C	11/07/2024	03:20	-131.604	45.413	0	1204.50	0	3.0990	0	34.4500	0	27.445	0	1191.227	0	10.7	4	3.3	4	-1E+10	1	-1E+10	1	-1E+10	1	-1E+10	1	-1E+10	1	-1E+10	1
4902642	14	C	11/07/2024	03:20	-131.604	45.413	0	1224.40	0	3.0620	0	34.4540	0	27.451	0	1210.851	0	11.1	4	3.4	4	-1E+10	1	-1E+10	1	-1E+10	1	-1E+10	1	-1E+10	1	-1E+10	1
4902642	14	C	11/07/2024	03:20	-131.604	45.413	0	1244.40	0	3.0180	0	34.4580	0	27.459	0	1230.571	0	11.7	4	3.6	4	-1E+10	1	-1E+10	1	-1E+10	1	-1E+10	1	-1E+10	1	-1E+10	1
4902642	14	C	11/07/2024	03:20	-131.604	45.413	0	1264.40	0	2.9670	0	34.4640	0	27.468	0	1250.289	0	12.4	4	3.8	4	-1E+10	1	-1E+10	1	-1E+10	1	-1E+10	1	-1E+10	1	-1E+10	1
4902642	14	C	11/07/2024	03:20	-131.604	45.413	0	1284.80	0	2.9190	0	34.4690	0	27.477	0	1270.400	0	13.2	4	4.1	4	-1E+10	1	-1E+10	1	-1E+10	1	-1E+10	1	-1E+10	1	-1E+10	1
4902642	14	C	11/07/2024	03:20	-131.604	45.413	0	1304.00	0	2.8660	0	34.4740	0	27.485	0	1289.326	0	13.9	4	4.3	4	-1E+10	1	-1E+10	1	-1E+10	1	-1E+10	1	-1E+10	1	-1E+10	1
4902642	14	C	11/07/2024	03:20	-131.604	45.413	0	1324.90	0	2.8230	0	34.4780	0	27.493	0	1309.926	0	14.6	4	4.5	4	-1E+10	1	-1E+10	1	-1E+10	1	-1E+10	1	-1E+10	1	-1E+10	1
4902642	14	C	11/07/2024	03:20	-131.604	45.413	0	1345.00	0	2.7790	0	34.4830	0	27.500	0	1329.735	0	15.4	4	4.7	4	-1E+10	1	-1E+10	1	-1E+10	1	-1E+10	1	-1E+10	1	-1E+10	1
4902642	14	C	11/07/2024	03:20	-131.604	45.413	0	1364.70	0	2.7430	0	34.4870	0	27.507	0	1349.149	0	16.3	4	5.0	4	-1E+10	1	-1E+10	1	-1E+10	1	-1E+10	1	-1E+10	1	-1E+10	1
4902642	14	C	11/07/2024	03:20	-131.604	45.413	0	1384.80	0	2.7040	0	34.4920	0	27.514	0	1368.955	0	17.1	4	5.3	4	-1E+10	1	-1E+10	1	-1E+10	1	-1E+10	1	-1E+10	1	-1E+10	1
4902642	14	C	11/07/2024	03:20	-131.604	45.413	0	1404.80	0	2.6720	0	34.4960	0	27.520	0	1388.660	0	17.9	4	5.5	4	-1E+10	1	-1E+10	1	-1E+10	1	-1E+10	1	-1E+10	1	-1E+10	1
4902642	14	C	11/07/2024	03:20	-131.604	45.413	0	1424.60	0	2.6480	0	34.4990	0	27.525	0	1408.166	0	18.6	4	5.7	4	-1E+10	1	-1E+10	1	-1E+10	1	-1E+10	1	-1E+10	1	-1E+10	1
4902642	14	C	11/07/2024	03:20	-131.604	45.413	0	1444.80	0	2.6190	0	34.5030	0	27.531	0	1428.065	0	19.5	4	6.0	4	-1E+10	1	-1E+10	1	-1E+10	1	-1E+10	1	-1E+10	1	-1E+10	1
4902642	14	C	11/07/2024	03:20	-131.604	45.413	0	1464.90	0	2.5910	0	34.5070	0	27.537	0	1447.863	0	20.4	4	6.2	4	-1E+10	1	-1E+10	1	-1E+10	1	-1E+10	1	-1E+10	1	-1E+10	1
4902642	14	C	11/07/2024	03:20	-131.604	45.413	0	1484.60	0	2.5670	0	34.5100	0	27.541	0	1467.266	0	21.2	4	6.5	4	-1E+10	1	-1E+10	1	-1E+10	1	-1E+10	1	-1E+10	1	-1E+10	1
4902642	14	C	11/07/2024	03:20	-131.604	45.413	0	1505.30	0	2.5440	0	34.5130	0	27.546	0	1487.651	0	22.0	4	6.7	4	-1E+10	1	-1E+10	1	-1E+10	1	-1E+10	1	-1E+10	1	-1E+10	1
4902642	14	C	11/07/2024	03:20	-131.604	45.413	0	1524.90	0	2.5160	0	34.5160	0	27.550	0	1506.952	0	23.0	4	7.0	4	-1E+10	1	-1E+10	1	-1E+10	1	-1E+10	1	-1E+10	1	-1E+10	1
4902642	14	C	11/07/2024	03:20	-131.604	45.413	0	1544.80	0	2.4820	0	34.5210	0	27.557	0	1526.546	0	24.2	4	7.4	4	-1E+10	1	-1E+10	1	-1E+10	1	-1E+10	1	-1E+10	1	-1E+10	1
4902642	14	C	11/07/2024	03:20	-131.604	45.413	0	1564.50	0	2.4480	0	34.5250	0	27.563	0	1545.941	0	25.6	4	7.8	4	-1E+10	1	-1E+10	1	-1E+10	1	-1E+10	1	-1E+10	1	-1E+10	1
4902642	14	C	11/07/2024	03:20	-131.604	45.413	0	1584.60	0	2.4090	0	34.5310	0	27.572	0	1565.728	0	27.1	4	8.3	4	-1E+10	1	-1E+10	1	-1E+10	1	-1E+10	1	-1E+10	1	-1E+10	1
4902642	14	C	11/07/2024	03:20	-131.604	45.413	0	1604.90	0	2.3780	0	34.5350	0	27.577	0	1585.711	0	28.3	4	8.6	4	-1E+10	1	-1E+10	1	-1E+10	1	-1E+10	1	-1E+10	1	-1E+10	1
4902642	14	C	11/07/2024	03:20	-131.604	45.413	0	1624.20	0	2.3460	0	34.5390	0	27.583	0	1604.707	0	29.7	4	9.0	4	-1E+10	1	-1E+10	1	-1E+10	1	-1E+10	1	-1E+10	1	-1E+10	1
4902642	14	C	11/07/2024	03:20	-131.604	45.413	0	1644.50	0	2.3140	0	34.5430	0	27.589	0	1624.685	0	30.9	4	9.4	4	-1E+10	1	-1E+10	1	-1E+10	1	-1E+10	1	-1E+10	1	-1E+10	1
4902642	14	C	11/07/2024	03:20	-131.604	45.413	0	1664.50	0	2.2940	0	34.5460	0	27.593	0	1644.367	0	31.8	4	9.7	4	-1E+10	1	-1E+10	1	-1E+10	1	-1E+10	1	-1E+10	1	-1E+10	1
4902642	14	C	11/07/2024	03:20	-131.604	45.413	0	1684.70	0	2.2750	0	34.5480	0	27.597	0	1664.243	0	32.9	4	10.0	4	-1E+10	1	-1E+10	1	-1E+10	1	-1E+10	1	-1E+10	1	-1E+10	1
4902642	14	C	11/07/2024	03:20	-131.604	45.413	0	1705.00	0	2.2480	0	34.5520	0	27.602	0	1684.216	0	34.2	4	10.4	4	-1E+10	1	-1E+10	1	-1E+10	1	-1E+10	1	-1E+10	1	-1E+10	1
4902642	14	C	11/07/2024	03:20	-131.604	45.413	0	1724.70	0	2.2230	0	34.5550	0	27.607	0	1703.597	0	35.1	4	10.6	4	-1E+10	1	-1E+10	1	-1E+10	1	-1E+10	1	-1E+10	1	-1E+10	1
4902642	14	C	11/07/2024	03:20	-131.604	45.413	0	1744.50	0	2.2110	0	34.5570	0	27.609	0	1723.074	0	35.7	4	10.8	4	-1E+10	1	-1E+10	1	-1E+10	1	-1E+10	1	-1E+10	1	-1E+10	1
4902642	14	C	11/07/2024	03:20	-131.604	45.413	0	1764.40	0	2.1970	0	34.5580	0	27.611	0	1742.648	0	36.6	4	11.1	4	-1E+10	1	-1E+10	1	-1E+10	1	-1E+10	1	-1E+10	1	-1E+10	1
4902642	14	C	11/07/2024	03:20	-131.604	45.413	0	1784.90	0	2.1770	0	34.5610	0	27.616	0	1762.810	0	37.7	4	11.4	4	-1E+10	1	-1E+10	1	-1E+10	1	-1E+10	1	-1E+10	1	-1E+10	1
4902642	14	C	11/07/2024	03:20	-131.604	45.413	0	1804.80	0	2.1500	0	34.5640	0	27.620	0	1782.381	0	39.0	4	11.8	4	-1E+10	1	-1E+10	1	-1E+10	1	-1E+10	1	-1E+10	1	-1E+10	1
4902642	14	C	11/07/2024	03:20	-131.604	45.413	0	1824.90	0	2.1270	0	34.5670	0	27.625	0	1802.146	0	40.2	4	12.1	4	-1E+10	1	-1E+10	1	-1E+10	1	-1E+10	1	-1E+10	1	-1E+10	1
4902642	14	C	11/07/2024	03:20	-131.604	45.413	0	1845.20	0	2.1040	0	34.5710	0	27.630	0	1822.106	0	41.7	4	12.6	4	-1E+10	1	-1E+10	1	-1E+10	1	-1E+10	1	-1E+10	1	-1E+10	1
4902642	14	C	11/07/2024	03:20	-131.604	45.413	0	1864.60	0	2.0820	0	34.5750	0	27.635	0	1841.179	0	43.1	4	13.0	4	-1E+10	1	-1E+10	1	-1E+10	1	-1E+10	1	-1E+10	1	-1E+10	1
4902642	14	C	11/07/2024	03:20	-131.604	45.413	0	1884.90	0	2.0590	0	34.5780	0	27.639	0	1861.135	0	44.4	4	13.4	4	-1E+10	1	-1E+10	1	-1E+10	1	-1E+10	1	-1E+10	1	-1E+10	1
4902642	14	C	11/07/2024	03:20	-131.604	45.413	0	1904.90	0	2.0380	0	34.5810	0	27.643	0	1880.795	0	45.6	4	13.8	4	-1E+10	1	-1E+10	1	-1E+10	1	-1E+10	1	-1E+10	1	-1E+10	1
4902642	14	C	11/07/2024	03:20	-131.604	45.413	0	1924.90	0	2.0260	0	34.5820	0	27.645	0	1900.452	0	46.5	4	14.0	4	-1E+10	1	-1E+10	1	-1E+10	1	-1E+10	1	-1E+10	1	-1E+10	1
4902642	14	C	11/07/2024	03:20	-131.604	45.413	0	1944.70	0	2.0110	0	34.5850	0	27.649	0	1919.912	0	47.6	4	14.3	4	-1E+10	1	-1E+10	1	-1E+10	1	-1E+10	1	-1E+10	1	-1E+10	1
4902642	14	C	11/07/2024	03:20	-131.604	45.413	0	1964.70	0	1.9960	0	34.5870	0	27.652	0	1939.566	0	48.4	4	14.6	4	-1E+10	1	-1E+10	1	-1E+10	1	-1E+10	1	-1E+10	1	-1E+10	1
4902642	14	C	11/07/2024	03:20	-131.604	45.413	0	1984.90	0	1.9840	0	34.5890	0	27.654	0	1959.414	0	49.2	4	14.8	4	-1E+10	1	-1E+10	1	-1E+10	1	-1E+10	1	-1E+10	1	-1E+10	1
4902642	14	C	11/07/2024	03:20	-131.604	45.413	0	2004.80	0	1.9710	0	34.5910	4	27.657	0	1978.967	0	50.3	4	15.1	4	-1E+10	1	-1E+10	1	-1E+10	1	-1E+10	1	-1E+10	1	-1E+10	1
4902642	14	C	11/07/2024	03:20	-131.604	45.413	0	2025.50	0	1.9500	0	34.5940	4	27.661	0	1999.303	0	51.8	4	15.6	4	-1E+10	1	-1E+10	1	-1E+10	1	-1E+10	1	-1E+10	1	-1E+10	1
4902642	14	C	11/07/2024	03:20	-131.604	45.413	0	2044.80	0	1.9310	0	34.5970	4	27.665	0	2018.262	0	52.9	4	15.9	4	-1E+10	1	-1E+10	1	-1E+10	1	-1E+10	1	-1E+10	1	-1E+10	1
4902642	14	C	11/07/2024	03:20	-131.604	45.413	0	2064.90	0	1.9210	0	34.5990	4	27.667	0	2038.005	0	54.0	4	16.3	4	-1E+10	1	-1E+10	1	-1E+10	1	-1E+10	1	-1E+10	1	-1E+10	1
4902642	14	C	11/07/2024	03:20	-131.604	45.413	0	2084.90	0	1.9090	0	34.6020	4	27.671	0	2057.648	0	55.1	4	16.6	4	-1E+10	1	-1E+10	1	-1E+10	1	-1E+10	1	-1E+10	1	-1E+10	1
4902642	14	C	11/07/2024	03:20	-131.604	45.413	0	2104.90	0	1.9010	0	34.6040	4	27.673	0	2077.289	0	55.8	4	16.8	4	-1E+10	1	-1E+10	1	-1E+10	1	-1E+10	1	-1E+10	1	-1E+10	1
4902642	14	C	11/07/2024	03:20	-131.604	45.413	0	2125.00	0	1.8950	0	34.6050	4	27.675	0	2097.027	0	56.3	4	16.9	4	-1E+10	1	-1E+10	1	-1E+10	1	-1E+10	1	-1E+10	1	-1E+10	1
4902642	14	C	11/07/2024	03:20	-131.604	45.413	0	2144.60	0	1.8910	0	34.6060	4	27.676	0	2116.272	0	56.8	4	17.1	4	-1E+10	1	-1E+10	1	-1E+10	1	-1E+10	1	-1E+10	1	-1E+10	1
4902642	14	C	11/07/2024	03:20	-131.604	45.413	0	2165.30	0	1.8850	0	34.6070	4	27.677	0	2136.595	0	57.3	4	17.2	4	-1E+10	1	-1E+10	1	-1E+10	1	-1E+10	1	-1E+10	1	-1E+10	1
4902642	14	C	11/07/2024	03:20	-131.604	45.413	0	2184.60	0	1.8800	0	34.6080	4	27.679	0	2155.542	0	57.8	4	17.4	4	-1E+10	1	-1E+10	1	-1E+10	1	-1E+10	1	-1E+10	1	-1E+10	1
4902642	14	C	11/07/2024	03:20	-131.604	45.413	0	2204.70	0	1.8720	0	34.6090	4	27.680	0	2175.273	0	58.2	4	17.5	4	-1E+10	1	-1E+10	1	-1E+10	1	-1E+10	1	-1E+10	1	-1E+10	1
4902642	14	C	11/07/2024	03:20	-131.604	45.413	0	2224.70	0	1.8690	0	34.6100	4	27.681	0	2194.903	0	58.7	4	17.7	4	-1E+10	1	-1E+10	1	-1E+10	1	-1E+10	1	-1E+10	1	-1E+10	1
4902642	14	C	11/07/2024	03:20	-131.604	45.413	0	2243.80	0	1.8600	0	34.6110	4	27.683	0	2213.649	0	59.4	4	17.9	4	-1E+10	1	-1E+10	1	-1E+10	1	-1E+10	1	-1E+10	1	-1E+10	1
4902642	14	C	11/07/2024	03:20	-131.604	45.413	0	2264.50	0	1.8520	0	34.6120	4	27.684	0	2233.963	0	60.2	4	18.1	4	-1E+10	1	-1E+10	1	-1E+10	1	-1E+10	1	-1E+10	1	-1E+10	1
4902642	14	C	11/07/2024	03:20	-131.604	45.413	0	2284.70	0	1.8420	0	34.6140	4	27.687	0	2253.784	0	61.1	4	18.3	4	-1E+10	1	-1E+10	1	-1E+10	1	-1E+10	1	-1E+10	1	-1E+10	1
4902642	14	C	11/07/2024	03:20	-131.604	45.413	0	2305.30	0	1.8350	0	34.6160	4	27.689	0	2273.996	0	61.8	4	18.6	4	-1E+10	1	-1E+10	1	-1E+10	1	-1E+10	1	-1E+10	1	-1E+10	1
4902642	14	C	11/07/2024	03:20	-131.604	45.413	0	2324.60	0	1.8310	0	34.6170	4	27.690	0	2292.931	0	62.3	4	18.7	4	-1E+10	1	-1E+10	1	-1E+10	1	-1E+10	1	-1E+10	1	-1E+10	1
4902642	14	C	11/07/2024	03:20	-131.604	45.413	0	2344.90	0	1.8270	0	34.6180	4	27.692	0	2312.845	0	62.7	4	18.8	4	-1E+10	1	-1E+10	1	-1E+10	1	-1E+10	1	-1E+10	1	-1E+10	1
4902642	14	C	11/07/2024	03:20	-131.604	45.413	0	2365.00	0	1.8260	0	34.6180	4	27.692	0	2332.561	0	63.0	4	18.9	4	-1E+10	1	-1E+10	1	-1E+10	1	-1E+10	1	-1E+10	1	-1E+10	1
4902642	14	C	11/07/2024	03:20	-131.604	45.413	0	2384.80	0	1.8210	0	34.6190	4	27.693	0	2351.981	0	63.5	4	19.1	4	-1E+10	1	-1E+10	1	-1E+10	1	-1E+10	1	-1E+10	1	-1E+10	1
4902642	14	C	11/07/2024	03:20	-131.604	45.413	0	2405.00	0	1.8170	0	34.6200	4	27.694	0	2371.791	0	64.1	4	19.3	4	-1E+10	1	-1E+10	1	-1E+10	1	-1E+10	1	-1E+10	1	-1E+10	1
4902642	14	C	11/07/2024	03:20	-131.604	45.413	0	2425.50	0	1.8130	0	34.6210	4	27.696	0	2391.894	0	64.6	4	19.4	4	-1E+10	1	-1E+10	1	-1E+10	1	-1E+10	1	-1E+10	1	-1E+10	1
4902642	14	C	11/07/2024	03:20	-131.604	45.413	0	2445.00	0	1.8080	0	34.6210	4	27.696	0	2411.014	0	65.2	4	19.6	4	-1E+10	1	-1E+10	1	-1E+10	1	-1E+10	1	-1E+10	1	-1E+10	1
4902642	14	C	11/07/2024	03:20	-131.604	45.413	0	2465.00	0	1.8010	0	34.6220	4	27.697	0	2430.623	0	65.8	4	19.7	4	-1E+10	1	-1E+10	1	-1E+10	1	-1E+10	1	-1E+10	1	-1E+10	1
4902642	14	C	11/07/2024	03:20	-131.604	45.413	0	2485.10	0	1.7960	0	34.6230	4	27.699	0	2450.328	0	66.4	4	19.9	4	-1E+10	1	-1E+10	1	-1E+10	1	-1E+10	1	-1E+10	1	-1E+10	1
4902642	14	C	11/07/2024	03:20	-131.604	45.413	0	2505.30	0	1.7900	0	34.6240	4	27.700	0	2470.130	0	66.8	4	20.1	4	-1E+10	1	-1E+10	1	-1E+10	1	-1E+10	1	-1E+10	1	-1E+10	1
4902642	14	C	11/07/2024	03:20	-131.604	45.413	0	2525.20	0	1.7850	0	34.6240	4	27.701	0	2489.635	0	67.3	4	20.2	4	-1E+10	1	-1E+10	1	-1E+10	1	-1E+10	1	-1E+10	1	-1E+10	1
4902642	14	C	11/07/2024	03:20	-131.604	45.413	0	2544.90	0	1.7800	0	34.6250	4	27.702	0	2508.943	0	67.7	4	20.3	4	-1E+10	1	-1E+10	1	-1E+10	1	-1E+10	1	-1E+10	1	-1E+10	1
4902642	14	C	11/07/2024	03:20	-131.604	45.413	0	2565.50	0	1.7760	0	34.6250	4	27.702	0	2529.131	0	68.3	4	20.5	4	-1E+10	1	-1E+10	1	-1E+10	1	-1E+10	1	-1E+10	1	-1E+10	1
4902642	14	C	11/07/2024	03:20	-131.604	45.413	0	2585.20	0	1.7680	0	34.6260	4	27.704	0	2548.435	0	69.3	4	20.8	4	-1E+10	1	-1E+10	1	-1E+10	1	-1E+10	1	-1E+10	1	-1E+10	1
4902642	14	C	11/07/2024	03:20	-131.604	45.413	0	2605.10	0	1.7620	0	34.6280	4	27.706	0	2567.933	0	70.2	4	21.0	4	-1E+10	1	-1E+10	1	-1E+10	1	-1E+10	1	-1E+10	1	-1E+10	1
4902642	14	C	11/07/2024	03:20	-131.604	45.413	0	2624.80	0	1.7570	0	34.6290	4	27.707	0	2587.234	0	70.8	4	21.2	4	-1E+10	1	-1E+10	1	-1E+10	1	-1E+10	1	-1E+10	1	-1E+10	1
4902642	14	C	11/07/2024	03:20	-131.604	45.413	0	2645.00	0	1.7480	0	34.6300	4	27.709	0	2607.023	0	71.8	4	21.5	4	-1E+10	1	-1E+10	1	-1E+10	1	-1E+10	1	-1E+10	1	-1E+10	1
4902642	14	C	11/07/2024	03:20	-131.604	45.413	0	2664.90	0	1.7390	0	34.6310	4	27.711	0	2626.516	0	72.5	4	21.7	4	-1E+10	1	-1E+10	1	-1E+10	1	-1E+10	1	-1E+10	1	-1E+10	1
4902642	14	C	11/07/2024	03:20	-131.604	45.413	0	2684.90	0	1.7310	0	34.6320	4	27.712	0	2646.105	0	73.4	4	22.0	4	-1E+10	1	-1E+10	1	-1E+10	1	-1E+10	1	-1E+10	1	-1E+10	1
4902642	14	C	11/07/2024	03:20	-131.604	45.413	0	2705.20	0	1.7210	0	34.6330	4	27.714	0	2665.986	0	74.4	4	22.3	4	-1E+10	1	-1E+10	1	-1E+10	1	-1E+10	1	-1E+10	1	-1E+10	1
4902642	14	C	11/07/2024	03:20	-131.604	45.413	0	2724.90	0	1.7130	0	34.6340	4	27.715	0	2685.278	0	75.2	4	22.5	4	-1E+10	1	-1E+10	1	-1E+10	1	-1E+10	1	-1E+10	1	-1E+10	1
4902642	14	C	11/07/2024	03:20	-131.604	45.413	0	2745.30	0	1.7010	0	34.6360	4	27.718	0	2705.254	0	76.5	4	22.9	4	-1E+10	1	-1E+10	1	-1E+10	1	-1E+10	1	-1E+10	1	-1E+10	1
4902642	14	C	11/07/2024	03:20	-131.604	45.413	0	2765.00	0	1.6910	0	34.6370	4	27.719	0	2724.542	0	77.5	4	23.2	4	-1E+10	1	-1E+10	1	-1E+10	1	-1E+10	1	-1E+10	1	-1E+10	1
4902642	14	C	11/07/2024	03:20	-131.604	45.413	0	2785.10	0	1.6850	0	34.6380	4	27.721	0	2744.221	0	78.3	4	23.4	4	-1E+10	1	-1E+10	1	-1E+10	1	-1E+10	1	-1E+10	1	-1E+10	1
4902642	14	C	11/07/2024	03:20	-131.604	45.413	0	2805.50	0	1.6790	0	34.6390	4	27.722	0	2764.191	0	79.0	4	23.6	4	-1E+10	1	-1E+10	1	-1E+10	1	-1E+10	1	-1E+10	1	-1E+10	1
4902642	14	C	11/07/2024	03:20	-131.604	45.413	0	2824.60	0	1.6750	0	34.6390	4	27.723	0	2782.887	0	79.5	4	23.8	4	-1E+10	1	-1E+10	1	-1E+10	1	-1E+10	1	-1E+10	1	-1E+10	1
4902642	14	C	11/07/2024	03:20	-131.604	45.413	0	2844.80	0	1.6730	0	34.6400	4	27.724	0	2802.657	0	80.0	4	23.9	4	-1E+10	1	-1E+10	1	-1E+10	1	-1E+10	1	-1E+10	1	-1E+10	1
4902642	14	C	11/07/2024	03:20	-131.604	45.413	0	2864.70	0	1.6680	0	34.6410	4	27.725	0	2822.133	0	80.7	4	24.1	4	-1E+10	1	-1E+10	1	-1E+10	1	-1E+10	1	-1E+10	1	-1E+10	1
4902642	14	C	11/07/2024	03:20	-131.604	45.413	0	2884.70	0	1.6630	0	34.6410	4	27.725	0	2841.704	0	81.4	4	24.3	4	-1E+10	1	-1E+10	1	-1E+10	1	-1E+10	1	-1E+10	1	-1E+10	1
4902642	14	C	11/07/2024	03:20	-131.604	45.413	0	2904.90	0	1.6590	0	34.6430	4	27.727	0	2861.470	0	82.0	4	24.5	4	-1E+10	1	-1E+10	1	-1E+10	1	-1E+10	1	-1E+10	1	-1E+10	1
4902642	14	C	11/07/2024	03:20	-131.604	45.413	0	2925.20	0	1.6580	0	34.6430	4	27.728	0	2881.331	0	82.3	4	24.6	4	-1E+10	1	-1E+10	1	-1E+10	1	-1E+10	1	-1E+10	1	-1E+10	1
4902642	14	C	11/07/2024	03:20	-131.604	45.413	0	2945.60	0	1.6550	0	34.6430	4	27.728	0	2901.289	0	82.9	4	24.8	4	-1E+10	1	-1E+10	1	-1E+10	1	-1E+10	1	-1E+10	1	-1E+10	1
4902642	14	C	11/07/2024	03:20	-131.604	45.413	0	2964.80	0	1.6510	0	34.6440	4	27.729	0	2920.071	0	83.4	4	25.0	4	-1E+10	1	-1E+10	1	-1E+10	1	-1E+10	1	-1E+10	1	-1E+10	1
4902642	14	C	11/07/2024	03:20	-131.604	45.413	0	2984.70	0	1.6490	0	34.6450	4	27.730	0	2939.535	0	84.0	4	25.1	4	-1E+10	1	-1E+10	1	-1E+10	1	-1E+10	1	-1E+10	1	-1E+10	1
4902642	14	C	11/07/2024	03:20	-131.604	45.413	0	3004.70	0	1.6450	0	34.6460	4	27.732	0	2959.096	0	84.6	4	25.3	4	-1E+10	1	-1E+10	1	-1E+10	1	-1E+10	1	-1E+10	1	-1E+10	1
4902642	14	C	11/07/2024	03:20	-131.604	45.413	0	3024.90	0	1.6410	0	34.6470	4	27.733	0	2978.851	0	85.4	4	25.5	4	-1E+10	1	-1E+10	1	-1E+10	1	-1E+10	1	-1E+10	1	-1E+10	1
4902642	14	C	11/07/2024	03:20	-131.604	45.413	0	3045.20	0	1.6360	0	34.6470	4	27.733	0	2998.702	0	86.2	4	25.8	4	-1E+10	1	-1E+10	1	-1E+10	1	-1E+10	1	-1E+10	1	-1E+10	1
4902642	14	C	11/07/2024	03:20	-131.604	45.413	0	3065.40	0	1.6310	0	34.6490	4	27.735	0	3018.453	0	87.0	4	26.0	4	-1E+10	1	-1E+10	1	-1E+10	1	-1E+10	1	-1E+10	1	-1E+10	1
4902642	14	C	11/07/2024	03:20	-131.604	45.413	0	3085.40	0	1.6240	0	34.6500	4	27.737	0	3038.007	0	88.1	4	26.3	4	-1E+10	1	-1E+10	1	-1E+10	1	-1E+10	1	-1E+10	1	-1E+10	1
4902642	14	C	11/07/2024	03:20	-131.604	45.413	0	3105.00	0	1.6170	0	34.6510	4	27.738	0	3057.168	0	89.0	4	26.6	4	-1E+10	1	-1E+10	1	-1E+10	1	-1E+10	1	-1E+10	1	-1E+10	1
4902642	14	C	11/07/2024	03:20	-131.604	45.413	0	3124.90	0	1.6130	0	34.6520	4	27.739	0	3076.620	0	89.6	4	26.8	4	-1E+10	1	-1E+10	1	-1E+10	1	-1E+10	1	-1E+10	1	-1E+10	1
4902642	14	C	11/07/2024	03:20	-131.604	45.413	0	3144.90	0	1.6090	0	34.6530	4	27.741	0	3096.169	0	90.2	4	26.9	4	-1E+10	1	-1E+10	1	-1E+10	1	-1E+10	1	-1E+10	1	-1E+10	1
4902642	14	C	11/07/2024	03:20	-131.604	45.413	0	3165.00	0	1.6050	0	34.6530	4	27.741	0	3115.814	0	90.8	4	27.1	4	-1E+10	1	-1E+10	1	-1E+10	1	-1E+10	1	-1E+10	1	-1E+10	1
4902642	14	C	11/07/2024	03:20	-131.604	45.413	0	3184.70	0	1.6020	0	34.6540	4	27.742	0	3135.065	0	91.4	4	27.3	4	-1E+10	1	-1E+10	1	-1E+10	1	-1E+10	1	-1E+10	1	-1E+10	1
4902642	14	C	11/07/2024	03:20	-131.604	45.413	0	3204.60	0	1.5980	0	34.6550	4	27.743	0	3154.511	0	92.3	4	27.6	4	-1E+10	1	-1E+10	1	-1E+10	1	-1E+10	1	-1E+10	1	-1E+10	1
4902642	14	C	11/07/2024	03:20	-131.604	45.413	0	3225.00	0	1.5900	0	34.6560	4	27.745	0	3174.443	0	93.4	4	27.9	4	-1E+10	1	-1E+10	1	-1E+10	1	-1E+10	1	-1E+10	1	-1E+10	1
4902642	14	C	11/07/2024	03:20	-131.604	45.413	0	3244.60	0	1.5820	0	34.6570	4	27.746	0	3193.593	0	94.4	4	28.2	4	-1E+10	1	-1E+10	1	-1E+10	1	-1E+10	1	-1E+10	1	-1E+10	1
4902642	14	C	11/07/2024	03:20	-131.604	45.413	0	3255.50	0	1.5800	0	34.6590	4	27.748	0	3204.241	0	94.8	4	28.3	4	-1E+10	1	-1E+10	1	-1E+10	1	-1E+10	1	-1E+10	1	-1E+10	1
4902642	14	C	11/07/2024	03:20	-131.604	45.413	0	3256.80	0	1.5790	0	34.6590	4	27.748	0	3205.511	0	94.8	4	28.3	4	-1E+10	1	-1E+10	1	-1E+10	1	-1E+10	1	-1E+10	1	-1E+10	1
4902642	14	C	11/07/2024	03:20	-131.604	45.413	0	3257.60	0	1.5790	0	34.6590	4	27.748	0	3206.293	0	94.8	4	28.3	4	-1E+10	1	-1E+10	1	-1E+10	1	-1E+10	1	-1E+10	1	-1E+10	1
4902642	14	C	11/07/2024	03:20	-131.604	45.413	0	3258.60	0	1.5790	0	34.6580	4	27.748	0	3207.269	0	94.9	4	28.3	4	-1E+10	1	-1E+10	1	-1E+10	1	-1E+10	1	-1E+10	1	-1E+10	1
4902642	14	C	11/07/2024	03:20	-131.604	45.413	0	3259.40	0	1.5780	0	34.6590	4	27.748	0	3208.051	0	94.9	4	28.3	4	-1E+10	1	-1E+10	1	-1E+10	1	-1E+10	1	-1E+10	1	-1E+10	1
4902642	14	C	11/07/2024	03:20	-131.604	45.413	0	3260.20	0	1.5780	0	34.6590	4	27.748	0	3208.832	0	94.9	4	28.3	4	-1E+10	1	-1E+10	1	-1E+10	1	-1E+10	1	-1E+10	1	-1E+10	1
4902642	14	C	11/07/2024	03:20	-131.604	45.413	0	3261.50	0	1.5780	0	34.6590	4	27.748	0	3210.102	0	94.9	4	28.3	4	-1E+10	1	-1E+10	1	-1E+10	1	-1E+10	1	-1E+10	1	-1E+10	1
4902642	14	C	11/07/2024	03:20	-131.604	45.413	0	3262.80	0	1.5780	0	34.6590	4	27.748	0	3211.372	0	94.9	4	28.3	4	-1E+10	1	-1E+10	1	-1E+10	1	-1E+10	1	-1E+10	1	-1E+10	1
4902642	14	C	11/07/2024	03:20	-131.604	45.413	0	3263.60	0	1.5780	0	34.6590	4	27.748	0	3212.154	0	94.9	4	28.3	4	-1E+10	1	-1E+10	1	-1E+10	1	-1E+10	1	-1E+10	1	-1E+10	1
4902642	14	C	11/07/2024	03:20	-131.604	45.413	0	3264.50	0	1.5780	0	34.6590	4	27.748	0	3213.033	0	95.0	4	28.3	4	-1E+10	1	-1E+10	1	-1E+10	1	-1E+10	1	-1E+10	1	-1E+10	1
4902642	14	C	11/07/2024	03:20	-131.604	45.413	0	3265.30	0	1.5780	0	34.6590	4	27.748	0	3213.814	0	95.0	4	28.3	4	-1E+10	1	-1E+10	1	-1E+10	1	-1E+10	1	-1E+10	1	-1E+10	1
4902642	14	C	11/07/2024	03:20	-131.604	45.413	0	3266.60	0	1.5780	0	34.6590	4	27.748	0	3215.084	0	95.0	4	28.4	4	-1E+10	1	-1E+10	1	-1E+10	1	-1E+10	1	-1E+10	1	-1E+10	1
4902642	14	C	11/07/2024	03:20	-131.604	45.413	0	3267.80	0	1.5780	0	34.6590	4	27.748	0	3216.257	0	95.0	4	28.4	4	-1E+10	1	-1E+10	1	-1E+10	1	-1E+10	1	-1E+10	1	-1E+10	1
4902642	14	C	11/07/2024	03:20	-131.604	45.413	0	3268.80	0	1.5780	0	34.6590	4	27.748	0	3217.233	0	95.0	4	28.4	4	-1E+10	1	-1E+10	1	-1E+10	1	-1E+10	1	-1E+10	1	-1E+10	1
4902642	14	C	11/07/2024	03:20	-131.604	45.413	0	3269.60	0	1.5780	0	34.6590	4	27.749	0	3218.015	0	95.0	4	28.4	4	-1E+10	1	-1E+10	1	-1E+10	1	-1E+10	1	-1E+10	1	-1E+10	1
4902642	14	C	11/07/2024	03:20	-131.604	45.413	0	3270.40	0	1.5770	0	34.6590	4	27.749	0	3218.796	0	95.0	4	28.4	4	-1E+10	1	-1E+10	1	-1E+10	1	-1E+10	1	-1E+10	1	-1E+10	1
4902642	14	C	11/07/2024	03:20	-131.604	45.413	0	3271.30	0	1.5780	0	34.6590	4	27.749	0	3219.675	0	95.0	4	28.4	4	-1E+10	1	-1E+10	1	-1E+10	1	-1E+10	1	-1E+10	1	-1E+10	1
4902642	14	C	11/07/2024	03:20	-131.604	45.413	0	3272.60	0	1.5780	0	34.6590	4	27.749	0	3220.945	0	95.1	4	28.4	4	-1E+10	1	-1E+10	1	-1E+10	1	-1E+10	1	-1E+10	1	-1E+10	1
4902642	14	C	11/07/2024	03:20	-131.604	45.413	0	3273.90	0	1.5780	0	34.6590	4	27.749	0	3222.215	0	95.1	4	28.4	4	-1E+10	1	-1E+10	1	-1E+10	1	-1E+10	1	-1E+10	1	-1E+10	1
4902642	14	C	11/07/2024	03:20	-131.604	45.413	0	3274.70	0	1.5780	0	34.6590	4	27.749	0	3222.997	0	95.1	4	28.4	4	-1E+10	1	-1E+10	1	-1E+10	1	-1E+10	1	-1E+10	1	-1E+10	1
4902642	14	C	11/07/2024	03:20	-131.604	45.413	0	3275.60	0	1.5780	0	34.6590	4	27.749	0	3223.876	0	95.1	4	28.4	4	-1E+10	1	-1E+10	1	-1E+10	1	-1E+10	1	-1E+10	1	-1E+10	1
4902642	14	C	11/07/2024	03:20	-131.604	45.413	0	3276.50	0	1.5780	0	34.6590	4	27.749	0	3224.755	0	95.1	4	28.4	4	-1E+10	1	-1E+10	1	-1E+10	1	-1E+10	1	-1E+10	1	-1E+10	1
4902642	14	C	11/07/2024	03:20	-131.604	45.413	0	3277.30	0	1.5780	0	34.6590	4	27.749	0	3225.536	0	95.1	4	28.4	4	-1E+10	1	-1E+10	1	-1E+10	1	-1E+10	1	-1E+10	1	-1E+10	1
4902642	14	C	11/07/2024	03:20	-131.604	45.413	0	3278.50	0	1.5780	0	34.6590	4	27.749	0	3226.709	0	95.1	4	28.4	4	-1E+10	1	-1E+10	1	-1E+10	1	-1E+10	1	-1E+10	1	-1E+10	1
4902642	14	C	11/07/2024	03:20	-131.604	45.413	0	3279.90	0	1.5780	0	34.6590	4	27.749	0	3228.076	0	95.2	4	28.4	4	-1E+10	1	-1E+10	1	-1E+10	1	-1E+10	1	-1E+10	1	-1E+10	1
4902642	14	C	11/07/2024	03:20	-131.604	45.413	0	3280.80	0	1.5780	0	34.6590	4	27.749	0	3228.955	0	95.2	4	28.4	4	-1E+10	1	-1E+10	1	-1E+10	1	-1E+10	1	-1E+10	1	-1E+10	1
4902642	14	C	11/07/2024	03:20	-131.604	45.413	0	3281.60	0	1.5780	0	34.6590	4	27.749	0	3229.737	0	95.2	4	28.4	4	-1E+10	1	-1E+10	1	-1E+10	1	-1E+10	1	-1E+10	1	-1E+10	1
4902642	14	C	11/07/2024	03:20	-131.604	45.413	0	3282.50	0	1.5770	0	34.6590	4	27.749	0	3230.616	0	95.2	4	28.4	4	-1E+10	1	-1E+10	1	-1E+10	1	-1E+10	1	-1E+10	1	-1E+10	1
4902642	14	C	11/07/2024	03:20	-131.604	45.413	0	3283.40	0	1.5770	0	34.6590	4	27.749	0	3231.495	0	95.3	4	28.4	4	-1E+10	1	-1E+10	1	-1E+10	1	-1E+10	1	-1E+10	1	-1E+10	1
4902642	14	C	11/07/2024	03:20	-131.604	45.413	0	3284.20	0	1.5770	0	34.6590	4	27.749	0	3232.276	0	95.2	4	28.4	4	-1E+10	1	-1E+10	1	-1E+10	1	-1E+10	1	-1E+10	1	-1E+10	1
4902642	14	C	11/07/2024	03:20	-131.604	45.413	0	3285.50	0	1.5770	0	34.6590	4	27.749	0	3233.546	0	95.3	4	28.4	4	-1E+10	1	-1E+10	1	-1E+10	1	-1E+10	1	-1E+10	1	-1E+10	1
4902642	14	C	11/07/2024	03:20	-131.604	45.413	0	3286.80	0	1.5770	0	34.6600	4	27.749	0	3234.816	0	95.3	4	28.4	4	-1E+10	1	-1E+10	1	-1E+10	1	-1E+10	1	-1E+10	1	-1E+10	1
4902642	14	C	11/07/2024	03:20	-131.604	45.413	0	3287.60	0	1.5770	0	34.6590	4	27.749	0	3235.597	0	95.3	4	28.4	4	-1E+10	1	-1E+10	1	-1E+10	1	-1E+10	1	-1E+10	1	-1E+10	1
4902642	14	C	11/07/2024	03:20	-131.604	45.413	0	3288.60	0	1.5770	0	34.6590	4	27.749	0	3236.574	0	95.3	4	28.5	4	-1E+10	1	-1E+10	1	-1E+10	1	-1E+10	1	-1E+10	1	-1E+10	1
4902642	14	C	11/07/2024	03:20	-131.604	45.413	0	3289.50	0	1.5770	0	34.6590	4	27.749	0	3237.453	0	95.3	4	28.5	4	-1E+10	1	-1E+10	1	-1E+10	1	-1E+10	1	-1E+10	1	-1E+10	1
4902642	14	C	11/07/2024	03:20	-131.604	45.413	0	3290.30	0	1.5770	0	34.6600	4	27.750	0	3238.235	0	95.3	4	28.5	4	-1E+10	1	-1E+10	1	-1E+10	1	-1E+10	1	-1E+10	1	-1E+10	1
4902642	14	C	11/07/2024	03:20	-131.604	45.413	0	3291.20	0	1.5770	0	34.6590	4	27.749	0	3239.113	0	95.3	4	28.4	4	-1E+10	1	-1E+10	1	-1E+10	1	-1E+10	1	-1E+10	1	-1E+10	1
4902642	14	C	11/07/2024	03:20	-131.604	45.413	0	3292.50	0	1.5770	0	34.6590	4	27.749	0	3240.383	0	95.3	4	28.4	4	-1E+10	1	-1E+10	1	-1E+10	1	-1E+10	1	-1E+10	1	-1E+10	1
4902642	14	C	11/07/2024	03:20	-131.604	45.413	0	3293.80	0	1.5770	0	34.6590	4	27.749	0	3241.653	0	95.3	4	28.4	4	-1E+10	1	-1E+10	1	-1E+10	1	-1E+10	1	-1E+10	1	-1E+10	1
4902642	14	C	11/07/2024	03:20	-131.604	45.413	0	3294.70	0	1.5770	0	34.6590	4	27.749	0	3242.532	0	95.3	4	28.4	4	-1E+10	1	-1E+10	1	-1E+10	1	-1E+10	1	-1E+10	1	-1E+10	1
4902642	14	C	11/07/2024	03:20	-131.604	45.413	0	3295.50	0	1.5770	0	34.6600	4	27.750	0	3243.313	0	95.3	4	28.4	4	-1E+10	1	-1E+10	1	-1E+10	1	-1E+10	1	-1E+10	1	-1E+10	1
4902642	14	C	11/07/2024	03:20	-131.604	45.413	0	3296.40	0	1.5770	0	34.6590	4	27.749	0	3244.192	0	95.3	4	28.4	4	-1E+10	1	-1E+10	1	-1E+10	1	-1E+10	1	-1E+10	1	-1E+10	1
4902642	14	C	11/07/2024	03:20	-131.604	45.413	0	3297.60	0	1.5770	0	34.6590	4	27.749	0	3245.365	0	95.3	4	28.4	4	-1E+10	1	-1E+10	1	-1E+10	1	-1E+10	1	-1E+10	1	-1E+10	1
4902642	14	C	11/07/2024	03:20	-131.604	45.413	0	3298.90	0	1.5780	0	34.6590	4	27.749	0	3246.634	0	95.2	4	28.4	4	-1E+10	1	-1E+10	1	-1E+10	1	-1E+10	1	-1E+10	1	-1E+10	1
4902642	14	C	11/07/2024	03:20	-131.604	45.413	0	3299.70	0	1.5770	0	34.6600	4	27.750	0	3247.416	0	95.3	4	28.4	4	-1E+10	1	-1E+10	1	-1E+10	1	-1E+10	1	-1E+10	1	-1E+10	1
4902642	14	C	11/07/2024	03:20	-131.604	45.413	0	3300.50	0	1.5780	0	34.6590	4	27.749	0	3248.197	0	95.3	4	28.4	4	-1E+10	1	-1E+10	1	-1E+10	1	-1E+10	1	-1E+10	1	-1E+10	1
4902642	14	C	11/07/2024	03:20	-131.604	45.413	0	3301.60	0	1.5780	0	34.6600	4	27.750	0	3249.272	0	95.3	4	28.4	4	-1E+10	1	-1E+10	1	-1E+10	1	-1E+10	1	-1E+10	1	-1E+10	1
4902642	14	C	11/07/2024	03:20	-131.604	45.413	0	3302.50	0	1.5780	0	34.6590	4	27.749	0	3250.150	0	95.3	4	28.4	4	-1E+10	1	-1E+10	1	-1E+10	1	-1E+10	1	-1E+10	1	-1E+10	1
4902642	14	C	11/07/2024	03:20	-131.604	45.413	0	3303.40	0	1.5770	0	34.6600	4	27.750	0	3251.029	0	95.3	4	28.4	4	-1E+10	1	-1E+10	1	-1E+10	1	-1E+10	1	-1E+10	1	-1E+10	1
4902642	14	C	11/07/2024	03:20	-131.604	45.413	0	3304.60	0	1.5770	0	34.6600	4	27.750	0	3252.202	0	95.4	4	28.5	4	-1E+10	1	-1E+10	1	-1E+10	1	-1E+10	1	-1E+10	1	-1E+10	1
4902642	14	C	11/07/2024	03:20	-131.604	45.413	0	3305.40	0	1.5770	0	34.6590	4	27.749	0	3252.983	0	95.3	4	28.5	4	-1E+10	1	-1E+10	1	-1E+10	1	-1E+10	1	-1E+10	1	-1E+10	1
4902642	14	C	11/07/2024	03:20	-131.604	45.413	0																										
4902642	15	C	11/17/2024	04:02	-131.698	45.537	0	1.00	0	13.9170	0	32.6210	0	24.367	0	0.992	0	230.0	4	89.4	4	-1E+10	1	-1E+10	1	-1E+10	1	-1E+10	1	-1E+10	1	-1E+10	1
4902642	15	C	11/17/2024	04:02	-131.698	45.537	0	1.20	0	13.9143	0	32.6227	0	24.369	0	1.190	0	230.0	4	89.4	4	-1E+10	1	-1E+10	1	-1E+10	1	-1E+10	1	-1E+10	1	-1E+10	1
4902642	15	C	11/17/2024	04:02	-131.698	45.537	0	1.30	0	13.9125	0	32.6245	0	24.371	0	1.289	0	230.0	4	89.3	4	-1E+10	1	-1E+10	1	-1E+10	1	-1E+10	1	-1E+10	1	-1E+10	1
4902642	15	C	11/17/2024	04:02	-131.698	45.537	0	1.40	0	13.9143	0	32.6223	0	24.369	0	1.389	0	230.0	4	89.3	4	-1E+10	1	-1E+10	1	-1E+10	1	-1E+10	1	-1E+10	1	-1E+10	1
4902642	15	C	11/17/2024	04:02	-131.698	45.537	0	1.50	0	13.9130	0	32.6250	0	24.371	0	1.488	0	230.1	4	89.4	4	-1E+10	1	-1E+10	1	-1E+10	1	-1E+10	1	-1E+10	1	-1E+10	1
4902642	15	C	11/17/2024	04:02	-131.698	45.537	0	2.00	0	13.9170	0	32.6260	0	24.371	0	1.984	0	229.9	4	89.3	4	-1E+10	1	-1E+10	1	-1E+10	1	-1E+10	1	-1E+10	1	-1E+10	1
4902642	15	C	11/17/2024	04:02	-131.698	45.537	0	2.30	0	13.9170	0	32.6280	0	24.372	0	2.281	0	229.9	4	89.3	4	-1E+10	1	-1E+10	1	-1E+10	1	-1E+10	1	-1E+10	1	-1E+10	1
4902642	15	C	11/17/2024	04:02	-131.698	45.537	0	3.30	0	13.9230	0	32.6270	0	24.370	0	3.273	0	229.8	4	89.3	4	-1E+10	1	-1E+10	1	-1E+10	1	-1E+10	1	-1E+10	1	-1E+10	1
4902642	15	C	11/17/2024	04:02	-131.698	45.537	0	4.50	0	13.9290	0	32.6240	0	24.367	0	4.463	0	229.8	4	89.3	4	-1E+10	1	-1E+10	1	-1E+10	1	-1E+10	1	-1E+10	1	-1E+10	1
4902642	15	C	11/17/2024	04:02	-131.698	45.537	0	5.50	0	13.9290	0	32.6240	0	24.367	0	5.455	0	229.8	4	89.3	4	-1E+10	1	-1E+10	1	-1E+10	1	-1E+10	1	-1E+10	1	-1E+10	1
4902642	15	C	11/17/2024	04:02	-131.698	45.537	0	6.70	0	13.9300	0	32.6230	0	24.366	0	6.645	0	229.7	4	89.3	4	-1E+10	1	-1E+10	1	-1E+10	1	-1E+10	1	-1E+10	1	-1E+10	1
4902642	15	C	11/17/2024	04:02	-131.698	45.537	0	7.30	0	13.9300	0	32.6240	0	24.367	0	7.240	0	229.7	4	89.3	4	-1E+10	1	-1E+10	1	-1E+10	1	-1E+10	1	-1E+10	1	-1E+10	1
4902642	15	C	11/17/2024	04:02	-131.698	45.537	0	8.40	0	13.9300	0	32.6230	0	24.366	0	8.331	0	229.8	4	89.3	4	-1E+10	1	-1E+10	1	-1E+10	1	-1E+10	1	-1E+10	1	-1E+10	1
4902642	15	C	11/17/2024	04:02	-131.698	45.537	0	9.30	0	13.9310	0	32.6240	0	24.367	0	9.224	0	229.8	4	89.3	4	-1E+10	1	-1E+10	1	-1E+10	1	-1E+10	1	-1E+10	1	-1E+10	1
4902642	15	C	11/17/2024	04:02	-131.698	45.537	0	14.50	0	13.9320	0	32.6230	0	24.366	0	14.381	0	229.7	4	89.3	4	-1E+10	1	-1E+10	1	-1E+10	1	-1E+10	1	-1E+10	1	-1E+10	1
4902642	15	C	11/17/2024	04:02	-131.698	45.537	0	24.70	0	13.9340	0	32.6240	0	24.367	0	24.497	0	229.6	4	89.2	4	-1E+10	1	-1E+10	1	-1E+10	1	-1E+10	1	-1E+10	1	-1E+10	1
4902642	15	C	11/17/2024	04:02	-131.698	45.537	0	34.90	0	13.9350	0	32.6230	0	24.366	0	34.612	0	229.5	4	89.2	4	-1E+10	1	-1E+10	1	-1E+10	1	-1E+10	1	-1E+10	1	-1E+10	1
4902642	15	C	11/17/2024	04:02	-131.698	45.537	0	44.80	0	13.9370	0	32.6230	0	24.366	0	44.429	0	229.4	4	89.2	4	-1E+10	1	-1E+10	1	-1E+10	1	-1E+10	1	-1E+10	1	-1E+10	1
4902642	15	C	11/17/2024	04:02	-131.698	45.537	0	55.80	0	13.9360	0	32.6220	0	24.365	0	55.337	0	230.1	4	89.4	4	-1E+10	1	-1E+10	1	-1E+10	1	-1E+10	1	-1E+10	1	-1E+10	1
4902642	15	C	11/17/2024	04:02	-131.698	45.537	0	64.40	0	13.2060	0	32.6340	0	24.522	0	63.864	0	234.2	4	89.7	4	-1E+10	1	-1E+10	1	-1E+10	1	-1E+10	1	-1E+10	1	-1E+10	1
4902642	15	C	11/17/2024	04:02	-131.698	45.537	0	75.20	0	10.8130	0	32.6740	0	25.000	0	74.572	0	240.6	4	87.7	4	-1E+10	1	-1E+10	1	-1E+10	1	-1E+10	1	-1E+10	1	-1E+10	1
4902642	15	C	11/17/2024	04:02	-131.698	45.537	0	84.70	0	10.3080	0	32.6720	0	25.085	0	83.991	0	237.1	4	85.5	4	-1E+10	1	-1E+10	1	-1E+10	1	-1E+10	1	-1E+10	1	-1E+10	1
4902642	15	C	11/17/2024	04:02	-131.698	45.537	0	94.50	0	9.8540	0	32.6900	0	25.175	0	93.707	0	233.9	4	83.5	4	-1E+10	1	-1E+10	1	-1E+10	1	-1E+10	1	-1E+10	1	-1E+10	1
4902642	15	C	11/17/2024	04:02	-131.698	45.537	0	104.90	0	9.6270	0	32.7190	0	25.235	0	104.017	0	231.1	4	82.1	4	-1E+10	1	-1E+10	1	-1E+10	1	-1E+10	1	-1E+10	1	-1E+10	1
4902642	15	C	11/17/2024	04:02	-131.698	45.537	0	115.20	0	9.4990	0	32.7470	0	25.278	0	114.227	0	225.3	4	79.9	4	-1E+10	1	-1E+10	1	-1E+10	1	-1E+10	1	-1E+10	1	-1E+10	1
4902642	15	C	11/17/2024	04:02	-131.698	45.537	0	125.70	0	9.2470	0	32.8510	0	25.399	0	124.636	0	214.5	4	75.7	4	-1E+10	1	-1E+10	1	-1E+10	1	-1E+10	1	-1E+10	1	-1E+10	1
4902642	15	C	11/17/2024	04:02	-131.698	45.537	0	134.90	0	8.7780	0	33.0280	0	25.611	0	133.755	0	204.6	4	71.5	4	-1E+10	1	-1E+10	1	-1E+10	1	-1E+10	1	-1E+10	1	-1E+10	1
4902642	15	C	11/17/2024	04:02	-131.698	45.537	0	144.80	0	8.2290	0	33.2130	0	25.839	0	143.567	0	197.6	4	68.3	4	-1E+10	1	-1E+10	1	-1E+10	1	-1E+10	1	-1E+10	1	-1E+10	1
4902642	15	C	11/17/2024	04:02	-131.698	45.537	0	155.10	0	7.8540	0	33.3550	0	26.006	0	153.776	0	194.6	4	66.8	4	-1E+10	1	-1E+10	1	-1E+10	1	-1E+10	1	-1E+10	1	-1E+10	1
4902642	15	C	11/17/2024	04:02	-131.698	45.537	0	165.00	0	7.6670	0	33.4530	0	26.110	0	163.587	0	192.5	4	65.8	4	-1E+10	1	-1E+10	1	-1E+10	1	-1E+10	1	-1E+10	1	-1E+10	1
4902642	15	C	11/17/2024	04:02	-131.698	45.537	0	175.00	0	7.5090	0	33.5540	0	26.212	0	173.497	0	189.6	4	64.7	4	-1E+10	1	-1E+10	1	-1E+10	1	-1E+10	1	-1E+10	1	-1E+10	1
4902642	15	C	11/17/2024	04:02	-131.698	45.537	0	185.50	0	7.3320	0	33.6310	0	26.297	0	183.902	0	186.6	4	63.4	4	-1E+10	1	-1E+10	1	-1E+10	1	-1E+10	1	-1E+10	1	-1E+10	1
4902642	15	C	11/17/2024	04:02	-131.698	45.537	0	194.70	0	7.2090	0	33.6870	0	26.359	0	193.019	0	181.7	4	61.6	4	-1E+10	1	-1E+10	1	-1E+10	1	-1E+10	1	-1E+10	1	-1E+10	1
4902642	15	C	11/17/2024	04:02	-131.698	45.537	0	209.60	0	7.0190	0	33.7410	0	26.427	0	207.783	0	174.6	4	59.0	4	-1E+10	1	-1E+10	1	-1E+10	1	-1E+10	1	-1E+10	1	-1E+10	1
4902642	15	C	11/17/2024	04:02	-131.698	45.537	0	229.90	0	6.6500	0	33.7720	0	26.501	0	227.896	0	157.6	4	52.8	4	-1E+10	1	-1E+10	1	-1E+10	1	-1E+10	1	-1E+10	1	-1E+10	1
4902642	15	C	11/17/2024	04:02	-131.698	45.537	0	249.90	0	6.3040	0	33.7940	0	26.564	0	247.709	0	140.1	4	46.6	4	-1E+10	1	-1E+10	1	-1E+10	1	-1E+10	1	-1E+10	1	-1E+10	1
4902642	15	C	11/17/2024	04:02	-131.698	45.537	0	270.20	0	5.9380	0	33.8080	0	26.621	0	267.818	0	123.2	4	40.6	4	-1E+10	1	-1E+10	1	-1E+10	1	-1E+10	1	-1E+10	1	-1E+10	1
4902642	15	C	11/17/2024	04:02	-131.698	45.537	0	289.40	0	5.6680	0	33.8170	0	26.662	0	286.836	0	110.5	4	36.2	4	-1E+10	1	-1E+10	1	-1E+10	1	-1E+10	1	-1E+10	1	-1E+10	1
4902642	15	C	11/17/2024	04:02	-131.698	45.537	0	309.70	0	5.4830	0	33.8340	0	26.698	0	306.941	0	97.0	4	31.7	4	-1E+10	1	-1E+10	1	-1E+10	1	-1E+10	1	-1E+10	1	-1E+10	1
4902642	15	C	11/17/2024	04:02	-131.698	45.537	0	329.70	0	5.3150	0	33.8560	0	26.735	0	326.747	0	86.3	4	28.0	4	-1E+10	1	-1E+10	1	-1E+10	1	-1E+10	1	-1E+10	1	-1E+10	1
4902642	15	C	11/17/2024	04:02	-131.698	45.537	0	349.60	0	5.2090	0	33.8800	0	26.767	0	346.452	0	79.2	4	25.7	4	-1E+10	1	-1E+10	1	-1E+10	1	-1E+10	1	-1E+10	1	-1E+10	1
4902642	15	C	11/17/2024	04:02	-131.698	45.537	0	370.50	0	5.0820	0	33.8940	0	26.792	0	367.145	0	72.9	4	23.6	4	-1E+10	1	-1E+10	1	-1E+10	1	-1E+10	1	-1E+10	1	-1E+10	1
4902642	15	C	11/17/2024	04:02	-131.698	45.537	0	389.50	0	4.9560	0	33.9090	0	26.819	0	385.956	0	68.2	4	22.0	4	-1E+10	1	-1E+10	1	-1E+10	1	-1E+10	1	-1E+10	1	-1E+10	1
4902642	15	C	11/17/2024	04:02	-131.698	45.537	0	409.80	0	4.8620	0	33.9240	0	26.841	0	406.051	0	63.5	4	20.4	4	-1E+10	1	-1E+10	1	-1E+10	1	-1E+10	1	-1E+10	1	-1E+10	1
4902642	15	C	11/17/2024	04:02	-131.698	45.537	0	429.80	0	4.7640	0	33.9410	0	26.866	0	425.847	0	58.6	4	18.8	4	-1E+10	1	-1E+10	1	-1E+10	1	-1E+10	1	-1E+10	1	-1E+10	1
4902642	15	C	11/17/2024	04:02	-131.698	45.537	0	449.80	0	4.6900	0	33.9600	0	26.889	0	445.642	0	52.0	4	16.7	4	-1E+10	1	-1E+10	1	-1E+10	1	-1E+10	1	-1E+10	1	-1E+10	1
4902642	15	C	11/17/2024	04:02	-131.698	45.537	0	469.70	0	4.6390	0	33.9800	0	26.911	0	465.336	0	45.3	4	14.5	4	-1E+10	1	-1E+10	1	-1E+10	1	-1E+10	1	-1E+10	1	-1E+10	1
4902642	15	C	11/17/2024	04:02	-131.698	45.537	0	489.60	0	4.5940	0	33.9990	0	26.931	0	485.028	0	40.7	4	13.0	4	-1E+10	1	-1E+10	1	-1E+10	1	-1E+10	1	-1E+10	1	-1E+10	1
4902642	15	C	11/17/2024	04:02	-131.698	45.537	0	509.60	0	4.4970	0	34.0170	0	26.956	0	504.817	0	36.4	4	11.6	4	-1E+10	1	-1E+10	1	-1E+10	1	-1E+10	1	-1E+10	1	-1E+10	1
4902642	15	C	11/17/2024	04:02	-131.698	45.537	0	530.20	0	4.4570	0	34.0430	0	26.981	0	525.197	0	30.7	4	9.8	4	-1E+10	1	-1E+10	1	-1E+10	1	-1E+10	1	-1E+10	1	-1E+10	1
4902642	15	C	11/17/2024	04:02	-131.698	45.537	0	549.60	0	4.4090	0	34.0610	0	27.001	0	544.389	0	27.2	4	8.7	4	-1E+10	1	-1E+10	1	-1E+10	1	-1E+10	1	-1E+10	1	-1E+10	1
4902642	15	C	11/17/2024	04:02	-131.698	45.537	0	569.60	0	4.3630	0	34.0790	0	27.020	0	564.172	0	23.8	4	7.6	4	-1E+10	1	-1E+10	1	-1E+10	1	-1E+10	1	-1E+10	1	-1E+10	1
4902642	15	C	11/17/2024	04:02	-131.698	45.537	0	589.50	0	4.3580	0	34.1050	0	27.042	0	583.855	0	19.4	4	6.2	4	-1E+10	1	-1E+10	1	-1E+10	1	-1E+10	1	-1E+10	1	-1E+10	1
4902642	15	C	11/17/2024	04:02	-131.698	45.537	0	609.50	0	4.3060	0	34.1230	0	27.061	0	603.634	0	17.5	4	5.6	4	-1E+10	1	-1E+10	1	-1E+10	1	-1E+10	1	-1E+10	1	-1E+10	1
4902642	15	C	11/17/2024	04:02	-131.698	45.537	0	629.70	0	4.2370	0	34.1350	0	27.078	0	623.609	0	15.3	4	4.8	4	-1E+10	1	-1E+10	1	-1E+10	1	-1E+10	1	-1E+10	1	-1E+10	1
4902642	15	C	11/17/2024	04:02	-131.698	45.537	0	650.00	0	4.2370	0	34.1580	0	27.097	0	643.682	0	12.7	4	4.0	4	-1E+10	1	-1E+10	1	-1E+10	1	-1E+10	1	-1E+10	1	-1E+10	1
4902642	15	C	11/17/2024	04:02	-131.698	45.537	0	669.80	0	4.1830	0	34.1790	0	27.119	0	663.258	0	10.9	4	3.5	4	-1E+10	1	-1E+10	1	-1E+10	1	-1E+10	1	-1E+10	1	-1E+10	1
4902642	15	C	11/17/2024	04:02	-131.698	45.537	0	689.70	0	4.1430	0	34.1980	0	27.139	0	682.931	0	9.6	4	3.0	4	-1E+10	1	-1E+10	1	-1E+10	1	-1E+10	1	-1E+10	1	-1E+10	1
4902642	15	C	11/17/2024	04:02	-131.698	45.537	0	709.90	0	4.1280	0	34.2130	0	27.152	0	702.898	0	8.6	4	2.7	4	-1E+10	1	-1E+10	1	-1E+10	1	-1E+10	1	-1E+10	1	-1E+10	1
4902642	15	C	11/17/2024	04:02	-131.698	45.537	0	730.10	0	4.1170	0	34.2320	0	27.169	0	722.864	0	7.7	4	2.4	4	-1E+10	1	-1E+10	1	-1E+10	1	-1E+10	1	-1E+10	1	-1E+10	1
4902642	15	C	11/17/2024	04:02	-131.698	45.537	0	749.60	0	4.0850	0	34.2460	0	27.183	0	742.136	0	7.1	4	2.2	4	-1E+10	1	-1E+10	1	-1E+10	1	-1E+10	1	-1E+10	1	-1E+10	1
4902642	15	C	11/17/2024	04:02	-131.698	45.537	0	769.80	0	4.0340	0	34.2590	0	27.199	0	762.098	0	6.6	4	2.1	4	-1E+10	1	-1E+10	1	-1E+10	1	-1E+10	1	-1E+10	1	-1E+10	1
4902642	15	C	11/17/2024	04:02	-131.698	45.537	0	789.90	0	4.0020	0	34.2690	0	27.211	0	781.960	0	6.3	4	2.0	4	-1E+10	1	-1E+10	1	-1E+10	1	-1E+10	1	-1E+10	1	-1E+10	1
4902642	15	C	11/17/2024	04:02	-131.698	45.537	0	809.90	0	3.9770	0	34.2830	0	27.224	0	801.720	0	5.9	4	1.9	4	-1E+10	1	-1E+10	1	-1E+10	1	-1E+10	1	-1E+10	1	-1E+10	1
4902642	15	C	11/17/2024	04:02	-131.698	45.537	0	829.60	0	3.9730	0	34.2990	0	27.238	0	821.183	0	5.6	4	1.8	4	-1E+10	1	-1E+10	1	-1E+10	1	-1E+10	1	-1E+10	1	-1E+10	1
4902642	15	C	11/17/2024	04:02	-131.698	45.537	0	848.90	0	3.8940	0	34.3040	0	27.250	0	840.248	0	5.4	4	1.7	4	-1E+10	1	-1E+10	1	-1E+10	1	-1E+10	1	-1E+10	1	-1E+10	1
4902642	15	C	11/17/2024	04:02	-131.698	45.537	0	870.10	0	3.8040	0	34.3160	0	27.268	0	861.188	0	5.3	4	1.7	4	-1E+10	1	-1E+10	1	-1E+10	1	-1E+10	1	-1E+10	1	-1E+10	1
4902642	15	C	11/17/2024	04:02	-131.698	45.537	0	890.00	0	3.7460	0	34.3280	0	27.284	0	880.843	0	5.2	4	1.6	4	-1E+10	1	-1E+10	1	-1E+10	1	-1E+10	1	-1E+10	1	-1E+10	1
4902642	15	C	11/17/2024	04:02	-131.698	45.537	0	910.20	0	3.7250	0	34.3430	0	27.298	0	900.791	0	5.2	4	1.6	4	-1E+10	1	-1E+10	1	-1E+10	1	-1E+10	1	-1E+10	1	-1E+10	1
4902642	15	C	11/17/2024	04:02	-131.698	45.537	0	929.60	0	3.7080	0	34.3490	0	27.305	0	919.948	0	5.3	4	1.7	4	-1E+10	1	-1E+10	1	-1E+10	1	-1E+10	1	-1E+10	1	-1E+10	1
4902642	15	C	11/17/2024	04:02	-131.698	45.537	0	949.70	0	3.6780	0	34.3580	0	27.315	0	939.794	0	5.4	4	1.7	4	-1E+10	1	-1E+10	1	-1E+10	1	-1E+10	1	-1E+10	1	-1E+10	1
4902642	15	C	11/17/2024	04:02	-131.698	45.537	0	969.90	0	3.6100	0	34.3670	0	27.329	0	959.737	0	5.6	4	1.8	4	-1E+10	1	-1E+10	1	-1E+10	1	-1E+10	1	-1E+10	1	-1E+10	1
4902642	15	C	11/17/2024	04:02	-131.698	45.537	0	989.90	0	3.5710	0	34.3790	0	27.342	0	979.481	0	5.9	4	1.8	4	-1E+10	1	-1E+10	1	-1E+10	1	-1E+10	1	-1E+10	1	-1E+10	1
4902642	15	C	11/17/2024	04:02	-131.698	45.537	0	1009.70	0	3.5280	0	34.3850	0	27.351	0	999.025	0	6.1	4	1.9	4	-1E+10	1	-1E+10	1	-1E+10	1	-1E+10	1	-1E+10	1	-1E+10	1
4902642	15	C	11/17/2024	04:02	-131.698	45.537	0	1029.80	0	3.4750	0	34.3910	0	27.361	0	1018.864	0	6.3	4	2.0	4	-1E+10	1	-1E+10	1	-1E+10	1	-1E+10	1	-1E+10	1	-1E+10	1
4902642	15	C	11/17/2024	04:02	-131.698	45.537	0	1049.90	0	3.4420	0	34.3990	0	27.371	0	1038.701	0	6.8	4	2.1	4	-1E+10	1	-1E+10	1	-1E+10	1	-1E+10	1	-1E+10	1	-1E+10	1
4902642	15	C	11/17/2024	04:02	-131.698	45.537	0	1069.70	0	3.3910	0	34.4120	0	27.386	0	1058.240	0	7.6	4	2.4	4	-1E+10	1	-1E+10	1	-1E+10	1	-1E+10	1	-1E+10	1	-1E+10	1
4902642	15	C	11/17/2024	04:02	-131.698	45.537	0	1089.70	0	3.3440	0	34.4220	0	27.399	0	1077.974	0	8.2	4	2.6	4	-1E+10	1	-1E+10	1	-1E+10	1	-1E+10	1	-1E+10	1	-1E+10	1
4902642	15	C	11/17/2024	04:02	-131.698	45.537	0	1109.90	0	3.2990	0	34.4290	0	27.409	0	1097.904	0	8.8	4	2.7	4	-1E+10	1	-1E+10	1	-1E+10	1	-1E+10	1	-1E+10	1	-1E+10	1
4902642	15	C	11/17/2024	04:02	-131.698	45.537	0	1129.50	0	3.2530	0	34.4340	0	27.417	0	1117.240	0	9.2	4	2.9	4	-1E+10	1	-1E+10	1	-1E+10	1	-1E+10	1	-1E+10	1	-1E+10	1
4902642	15	C	11/17/2024	04:02	-131.698	45.537	0	1149.60	0	3.2140	0	34.4380	0	27.424	0	1137.067	0	9.5	4	3.0	4	-1E+10	1	-1E+10	1	-1E+10	1	-1E+10	1	-1E+10	1	-1E+10	1
4902642	15	C	11/17/2024	04:02	-131.698	45.537	0	1169.80	0	3.1590	0	34.4440	0	27.434	0	1156.992	0	10.0	4	3.1	4	-1E+10	1	-1E+10	1	-1E+10	1	-1E+10	1	-1E+10	1	-1E+10	1
4902642	15	C	11/17/2024	04:02	-131.698	45.537	0	1188.90	0	3.1150	0	34.4480	0	27.442	0	1175.829	0	10.4	4	3.2	4	-1E+10	1	-1E+10	1	-1E+10	1	-1E+10	1	-1E+10	1	-1E+10	1
4902642	15	C	11/17/2024	04:02	-131.698	45.537	0	1209.80	0	3.0580	0	34.4540	0	27.452	0	1196.440	0	11.1	4	3.4	4	-1E+10	1	-1E+10	1	-1E+10	1	-1E+10	1	-1E+10	1	-1E+10	1
4902642	15	C	11/17/2024	04:02	-131.698	45.537	0	1229.80	0	3.0130	0	34.4590	0	27.460	0	1216.161	0	11.7	4	3.6	4	-1E+10	1	-1E+10	1	-1E+10	1	-1E+10	1	-1E+10	1	-1E+10	1
4902642	15	C	11/17/2024	04:02	-131.698	45.537	0	1250.50	0	2.9730	0	34.4640	0	27.468	0	1236.571	0	12.2	4	3.8	4	-1E+10	1	-1E+10	1	-1E+10	1	-1E+10	1	-1E+10	1	-1E+10	1
4902642	15	C	11/17/2024	04:02	-131.698	45.537	0	1269.90	0	2.9510	0	34.4670	0	27.472	0	1255.697	0	12.6	4	3.9	4	-1E+10	1	-1E+10	1	-1E+10	1	-1E+10	1	-1E+10	1	-1E+10	1
4902642	15	C	11/17/2024	04:02	-131.698	45.537	0	1289.90	0	2.9210	0	34.4690	0	27.476	0	1275.413	0	13.0	4	4.0	4	-1E+10	1	-1E+10	1	-1E+10	1	-1E+10	1	-1E+10	1	-1E+10	1
4902642	15	C	11/17/2024	04:02	-131.698	45.537	0	1309.80	0	2.8900	0	34.4720	0	27.482	0	1295.028	0	13.5	4	4.2	4	-1E+10	1	-1E+10	1	-1E+10	1	-1E+10	1	-1E+10	1	-1E+10	1
4902642	15	C	11/17/2024	04:02	-131.698	45.537	0	1329.50	0	2.8500	0	34.4760	0	27.489	0	1314.445	0	14.3	4	4.4	4	-1E+10	1	-1E+10	1	-1E+10	1	-1E+10	1	-1E+10	1	-1E+10	1
4902642	15	C	11/17/2024	04:02	-131.698	45.537	0	1349.70	0	2.8070	0	34.4810	0	27.496	0	1334.352	0	15.1	4	4.6	4	-1E+10	1	-1E+10	1	-1E+10	1	-1E+10	1	-1E+10	1	-1E+10	1
4902642	15	C	11/17/2024	04:02	-131.698	45.537	0	1370.30	0	2.7610	0	34.4860	0	27.505	0	1354.652	0	16.0	4	4.9	4	-1E+10	1	-1E+10	1	-1E+10	1	-1E+10	1	-1E+10	1	-1E+10	1
4902642	15	C	11/17/2024	04:02	-131.698	45.537	0	1389.60	0	2.7180	0	34.4910	0	27.512	0	1373.668	0	16.9	4	5.2	4	-1E+10	1	-1E+10	1	-1E+10	1	-1E+10	1	-1E+10	1	-1E+10	1
4902642	15	C	11/17/2024	04:02	-131.698	45.537	0	1409.70	0	2.6860	0	34.4950	0	27.518	0	1393.471	0	17.7	4	5.4	4	-1E+10	1	-1E+10	1	-1E+10	1	-1E+10	1	-1E+10	1	-1E+10	1
4902642	15	C	11/17/2024	04:02	-131.698	45.537	0	1429.40	0	2.6520	0	34.4990	0	27.525	0	1412.879	0	18.6	4	5.7	4	-1E+10	1	-1E+10	1	-1E+10	1	-1E+10	1	-1E+10	1	-1E+10	1
4902642	15	C	11/17/2024	04:02	-131.698	45.537	0	1449.30	0	2.6230	0	34.5030	0	27.531	0	1432.481	0	19.5	4	6.0	4	-1E+10	1	-1E+10	1	-1E+10	1	-1E+10	1	-1E+10	1	-1E+10	1
4902642	15	C	11/17/2024	04:02	-131.698	45.537	0	1469.50	0	2.5960	0	34.5060	0	27.535	0	1452.377	0	20.4	4	6.2	4	-1E+10	1	-1E+10	1	-1E+10	1	-1E+10	1	-1E+10	1	-1E+10	1
4902642	15	C	11/17/2024	04:02	-131.698	45.537	0	1489.80	0	2.5650	0	34.5110	0	27.542	0	1472.370	0	21.6	4	6.6	4	-1E+10	1	-1E+10	1	-1E+10	1	-1E+10	1	-1E+10	1	-1E+10	1
4902642	15	C	11/17/2024	04:02	-131.698	45.537	0	1509.90	0	2.5190	0	34.5170	0	27.551	0	1492.164	0	23.3	4	7.1	4	-1E+10	1	-1E+10	1	-1E+10	1	-1E+10	1	-1E+10	1	-1E+10	1
4902642	15	C	11/17/2024	04:02	-131.698	45.537	0	1529.70	0	2.4870	0	34.5220	0	27.558	0	1511.661	0	24.2	4	7.4	4	-1E+10	1	-1E+10	1	-1E+10	1	-1E+10	1	-1E+10	1	-1E+10	1
4902642	15	C	11/17/2024	04:02	-131.698	45.537	0	1550.60	0	2.4690	0	34.5260	0	27.562	0	1532.239	0	25.4	4	7.8	4	-1E+10	1	-1E+10	1	-1E+10	1	-1E+10	1	-1E+10	1	-1E+10	1
4902642	15	C	11/17/2024	04:02	-131.698	45.537	0	1569.90	0	2.4400	0	34.5300	0	27.568	0	1551.239	0	26.7	4	8.1	4	-1E+10	1	-1E+10	1	-1E+10	1	-1E+10	1	-1E+10	1	-1E+10	1
4902642	15	C	11/17/2024	04:02	-131.698	45.537	0	1589.70	0	2.4060	0	34.5340	0	27.574	0	1570.731	0	27.8	4	8.5	4	-1E+10	1	-1E+10	1	-1E+10	1	-1E+10	1	-1E+10	1	-1E+10	1
4902642	15	C	11/17/2024	04:02	-131.698	45.537	0	1609.80	0	2.3740	0	34.5370	0	27.579	0	1590.515	0	29.1	4	8.9	4	-1E+10	1	-1E+10	1	-1E+10	1	-1E+10	1	-1E+10	1	-1E+10	1
4902642	15	C	11/17/2024	04:02	-131.698	45.537	0	1629.70	0	2.3420	0	34.5410	0	27.585	0	1610.101	0	30.4	4	9.2	4	-1E+10	1	-1E+10	1	-1E+10	1	-1E+10	1	-1E+10	1	-1E+10	1
4902642	15	C	11/17/2024	04:02	-131.698	45.537	0	1649.50	0	2.3080	0	34.5450	0	27.591	0	1629.587	0	31.7	4	9.6	4	-1E+10	1	-1E+10	1	-1E+10	1	-1E+10	1	-1E+10	1	-1E+10	1
4902642	15	C	11/17/2024	04:02	-131.698	45.537	0	1669.50	0	2.2750	0	34.5490	0	27.597	0	1649.268	0	33.1	4	10.0	4	-1E+10	1	-1E+10	1	-1E+10	1	-1E+10	1	-1E+10	1	-1E+10	1
4902642	15	C	11/17/2024	04:02	-131.698	45.537	0	1689.30	0	2.2490	0	34.5520	0	27.602	0	1668.750	0	34.3	4	10.4	4	-1E+10	1	-1E+10	1	-1E+10	1	-1E+10	1	-1E+10	1	-1E+10	1
4902642	15	C	11/17/2024	04:02	-131.698	45.537	0	1709.50	0	2.2250	0	34.5560	0	27.607	0	1688.624	0	35.4	4	10.7	4	-1E+10	1	-1E+10	1	-1E+10	1	-1E+10	1	-1E+10	1	-1E+10	1
4902642	15	C	11/17/2024	04:02	-131.698	45.537	0	1729.50	0	2.2040	0	34.5590	0	27.611	0	1708.299	0	36.4	4	11.0	4	-1E+10	1	-1E+10	1	-1E+10	1	-1E+10	1	-1E+10	1	-1E+10	1
4902642	15	C	11/17/2024	04:02	-131.698	45.537	0	1749.50	0	2.1860	0	34.5610	0	27.615	0	1727.973	0	37.4	4	11.3	4	-1E+10	1	-1E+10	1	-1E+10	1	-1E+10	1	-1E+10	1	-1E+10	1
4902642	15	C	11/17/2024	04:02	-131.698	45.537	0	1769.70	0	2.1690	0	34.5630	0	27.618	0	1747.841	0	38.3	4	11.6	4	-1E+10	1	-1E+10	1	-1E+10	1	-1E+10	1	-1E+10	1	-1E+10	1
4902642	15	C	11/17/2024	04:02	-131.698	45.537	0	1790.20	0	2.1470	0	34.5650	0	27.621	0	1768.002	0	39.3	4	11.9	4	-1E+10	1	-1E+10	1	-1E+10	1	-1E+10	1	-1E+10	1	-1E+10	1
4902642	15	C	11/17/2024	04:02	-131.698	45.537	0	1809.50	0	2.1270	0	34.5680	0	27.625	0	1786.982	0	40.3	4	12.2	4	-1E+10	1	-1E+10	1	-1E+10	1	-1E+10	1	-1E+10	1	-1E+10	1
4902642	15	C	11/17/2024	04:02	-131.698	45.537	0	1829.50	0	2.1100	0	34.5700	0	27.628	0	1806.648	0	41.2	4	12.4	4	-1E+10	1	-1E+10	1	-1E+10	1	-1E+10	1	-1E+10	1	-1E+10	1
4902642	15	C	11/17/2024	04:02	-131.698	45.537	0	1849.60	0	2.0950	0	34.5720	0	27.631	0	1826.411	0	42.1	4	12.7	4	-1E+10	1	-1E+10	1	-1E+10	1	-1E+10	1	-1E+10	1	-1E+10	1
4902642	15	C	11/17/2024	04:02	-131.698	45.537	0	1870.30	0	2.0770	0	34.5750	0	27.635	0	1846.762	0	43.3	4	13.1	4	-1E+10	1	-1E+10	1	-1E+10	1	-1E+10	1	-1E+10	1	-1E+10	1
4902642	15	C	11/17/2024	04:02	-131.698	45.537	0	1889.80	0	2.0620	0	34.5770	0	27.638	0	1865.931	0	44.4	4	13.4	4	-1E+10	1	-1E+10	1	-1E+10	1	-1E+10	1	-1E+10	1	-1E+10	1
4902642	15	C	11/17/2024	04:02	-131.698	45.537	0	1909.90	0	2.0330	0	34.5820	0	27.644	0	1885.688	0	46.3	4	14.0	4	-1E+10	1	-1E+10	1	-1E+10	1	-1E+10	1	-1E+10	1	-1E+10	1
4902642	15	C	11/17/2024	04:02	-131.698	45.537	0	1929.40	0	2.0130	0	34.5850	0	27.648	0	1904.853	0	47.4	4	14.3	4	-1E+10	1	-1E+10	1	-1E+10	1	-1E+10	1	-1E+10	1	-1E+10	1
4902642	15	C	11/17/2024	04:02	-131.698	45.537	0	1949.50	0	2.0000	0	34.5870	0	27.651	0	1924.607	0	48.3	4	14.6	4	-1E+10	1	-1E+10	1	-1E+10	1	-1E+10	1	-1E+10	1	-1E+10	1
4902642	15	C	11/17/2024	04:02	-131.698	45.537	0	1969.70	0	1.9830	0	34.5890	0	27.654	0	1944.457	0	49.4	4	14.9	4	-1E+10	1	-1E+10	1	-1E+10	1	-1E+10	1	-1E+10	1	-1E+10	1
4902642	15	C	11/17/2024	04:02	-131.698	45.537	0	1989.70	0	1.9670	0	34.5920	0	27.658	0	1964.108	0	50.4	4	15.2	4	-1E+10	1	-1E+10	1	-1E+10	1	-1E+10	1	-1E+10	1	-1E+10	1
4902642	15	C	11/17/2024	04:02	-131.698	45.537	0	2009.00	0	1.9560	0	34.5940	4	27.660	0	1983.070	0	51.1	4	15.4	4	-1E+10	1	-1E+10	1	-1E+10	1	-1E+10	1	-1E+10	1	-1E+10	1
4902642	15	C	11/17/2024	04:02	-131.698	45.537	0	2029.70	0	1.9460	0	34.5950	4	27.662	0	2003.406	0	51.7	4	15.6	4	-1E+10	1	-1E+10	1	-1E+10	1	-1E+10	1	-1E+10	1	-1E+10	1
4902642	15	C	11/17/2024	04:02	-131.698	45.537	0	2049.80	0	1.9350	0	34.5960	4	27.664	0	2023.150	0	52.4	4	15.8	4	-1E+10	1	-1E+10	1	-1E+10	1	-1E+10	1	-1E+10	1	-1E+10	1
4902642	15	C	11/17/2024	04:02	-131.698	45.537	0	2069.90	0	1.9250	0	34.5980	4	27.666	0	2042.893	0	53.2	4	16.0	4	-1E+10	1	-1E+10	1	-1E+10	1	-1E+10	1	-1E+10	1	-1E+10	1
4902642	15	C	11/17/2024	04:02	-131.698	45.537	0	2089.80	0	1.9140	0	34.6000	4	27.669	0	2062.437	0	54.1	4	16.3	4	-1E+10	1	-1E+10	1	-1E+10	1	-1E+10	1	-1E+10	1	-1E+10	1
4902642	15	C	11/17/2024	04:02	-131.698	45.537	0	2110.60	0	1.9030	0	34.6020	4	27.672	0	2082.863	0	55.0	4	16.5	4	-1E+10	1	-1E+10	1	-1E+10	1	-1E+10	1	-1E+10	1	-1E+10	1
4902642	15	C	11/17/2024	04:02	-131.698	45.537	0	2130.00	0	1.8980	0	34.6030	4	27.673	0	2101.913	0	55.4	4	16.7	4	-1E+10	1	-1E+10	1	-1E+10	1	-1E+10	1	-1E+10	1	-1E+10	1
4902642	15	C	11/17/2024	04:02	-131.698	45.537	0	2150.00	0	1.8920	0	34.6040	4	27.674	0	2121.550	0	56.1	4	16.9	4	-1E+10	1	-1E+10	1	-1E+10	1	-1E+10	1	-1E+10	1	-1E+10	1
4902642	15	C	11/17/2024	04:02	-131.698	45.537	0	2169.80	0	1.8840	0	34.6060	4	27.677	0	2140.989	0	56.9	4	17.1	4	-1E+10	1	-1E+10	1	-1E+10	1	-1E+10	1	-1E+10	1	-1E+10	1
4902642	15	C	11/17/2024	04:02	-131.698	45.537	0	2189.80	0	1.8760	0	34.6080	4	27.679	0	2160.622	0	57.6	4	17.3	4	-1E+10	1	-1E+10	1	-1E+10	1	-1E+10	1	-1E+10	1	-1E+10	1
4902642	15	C	11/17/2024	04:02	-131.698	45.537	0	2210.00	0	1.8710	0	34.6090	4	27.680	0	2180.450	0	58.2	4	17.5	4	-1E+10	1	-1E+10	1	-1E+10	1	-1E+10	1	-1E+10	1	-1E+10	1
4902642	15	C	11/17/2024	04:02	-131.698	45.537	0	2229.80	0	1.8660	0	34.6100	4	27.681	0	2199.884	0	58.8	4	17.7	4	-1E+10	1	-1E+10	1	-1E+10	1	-1E+10	1	-1E+10	1	-1E+10	1
4902642	15	C	11/17/2024	04:02	-131.698	45.537	0	2249.70	0	1.8610	0	34.6110	4	27.683	0	2219.413	0	59.3	4	17.8	4	-1E+10	1	-1E+10	1	-1E+10	1	-1E+10	1	-1E+10	1	-1E+10	1
4902642	15	C	11/17/2024	04:02	-131.698	45.537	0	2269.50	0	1.8570	0	34.6120	4	27.684	0	2238.843	0	59.8	4	18.0	4	-1E+10	1	-1E+10	1	-1E+10	1	-1E+10	1	-1E+10	1	-1E+10	1
4902642	15	C	11/17/2024	04:02	-131.698	45.537	0	2289.40	0	1.8530	0	34.6130	4	27.685	0	2258.370	0	60.3	4	18.1	4	-1E+10	1	-1E+10	1	-1E+10	1	-1E+10	1	-1E+10	1	-1E+10	1
4902642	15	C	11/17/2024	04:02	-131.698	45.537	0	2310.30	0	1.8500	0	34.6140	4	27.686	0	2278.875	0	60.7	4	18.2	4	-1E+10	1	-1E+10	1	-1E+10	1	-1E+10	1	-1E+10	1	-1E+10	1
4902642	15	C	11/17/2024	04:02	-131.698	45.537	0	2329.80	0	1.8460	0	34.6150	4	27.688	0	2298.006	0	61.2	4	18.4	4	-1E+10	1	-1E+10	1	-1E+10	1	-1E+10	1	-1E+10	1	-1E+10	1
4902642	15	C	11/17/2024	04:02	-131.698	45.537	0	2349.90	0	1.8410	0	34.6160	4	27.689	0	2317.723	0	61.8	4	18.6	4	-1E+10	1	-1E+10	1	-1E+10	1	-1E+10	1	-1E+10	1	-1E+10	1
4902642	15	C	11/17/2024	04:02	-131.698	45.537	0	2369.90	0	1.8370	0	34.6170	4	27.690	0	2337.340	0	62.3	4	18.7	4	-1E+10	1	-1E+10	1	-1E+10	1	-1E+10	1	-1E+10	1	-1E+10	1
4902642	15	C	11/17/2024	04:02	-131.698	45.537	0	2389.60	0	1.8310	0	34.6180	4	27.692	0	2356.661	0	63.0	4	18.9	4	-1E+10	1	-1E+10	1	-1E+10	1	-1E+10	1	-1E+10	1	-1E+10	1
4902642	15	C	11/17/2024	04:02	-131.698	45.537	0	2410.10	0	1.8230	0	34.6190	4	27.693	0	2376.765	0	63.7	4	19.1	4	-1E+10	1	-1E+10	1	-1E+10	1	-1E+10	1	-1E+10	1	-1E+10	1
4902642	15	C	11/17/2024	04:02	-131.698	45.537	0	2430.80	0	1.8180	0	34.6200	4	27.694	0	2397.063	0	64.3	4	19.3	4	-1E+10	1	-1E+10	1	-1E+10	1	-1E+10	1	-1E+10	1	-1E+10	1
4902642	15	C	11/17/2024	04:02	-131.698	45.537	0	2450.00	0	1.8140	0	34.6210	4	27.696	0	2415.889	0	64.7	4	19.4	4	-1E+10	1	-1E+10	1	-1E+10	1	-1E+10	1	-1E+10	1	-1E+10	1
4902642	15	C	11/17/2024	04:02	-131.698	45.537	0	2470.50	0	1.8100	0	34.6210	4	27.696	0	2435.987	0	65.2	4	19.6	4	-1E+10	1	-1E+10	1	-1E+10	1	-1E+10	1	-1E+10	1	-1E+10	1
4902642	15	C	11/17/2024	04:02	-131.698	45.537	0	2490.20	0	1.8080	0	34.6220	4	27.697	0	2455.300	0	65.5	4	19.7	4	-1E+10	1	-1E+10	1	-1E+10	1	-1E+10	1	-1E+10	1	-1E+10	1
4902642	15	C	11/17/2024	04:02	-131.698	45.537	0	2510.10	0	1.8040	0	34.6230	4	27.698	0	2474.806	0	66.0	4	19.8	4	-1E+10	1	-1E+10	1	-1E+10	1	-1E+10	1	-1E+10	1	-1E+10	1
4902642	15	C	11/17/2024	04:02	-131.698	45.537	0	2530.10	0	1.8000	0	34.6240	4	27.700	0	2494.409	0	66.6	4	20.0	4	-1E+10	1	-1E+10	1	-1E+10	1	-1E+10	1	-1E+10	1	-1E+10	1
4902642	15	C	11/17/2024	04:02	-131.698	45.537	0	2549.90	0	1.7960	0	34.6240	4	27.700	0	2513.814	0	67.2	4	20.2	4	-1E+10	1	-1E+10	1	-1E+10	1	-1E+10	1	-1E+10	1	-1E+10	1
4902642	15	C	11/17/2024	04:02	-131.698	45.537	0	2569.70	0	1.7890	0	34.6250	4	27.701	0	2533.217	0	67.8	4	20.4	4	-1E+10	1	-1E+10	1	-1E+10	1	-1E+10	1	-1E+10	1	-1E+10	1
4902642	15	C	11/17/2024	04:02	-131.698	45.537	0	2589.80	0	1.7830	0	34.6260	4	27.703	0	2552.913	0	68.4	4	20.5	4	-1E+10	1	-1E+10	1	-1E+10	1	-1E+10	1	-1E+10	1	-1E+10	1
4902642	15	C	11/17/2024	04:02	-131.698	45.537	0	2610.30	0	1.7770	0	34.6270	4	27.704	0	2572.999	0	69.0	4	20.7	4	-1E+10	1	-1E+10	1	-1E+10	1	-1E+10	1	-1E+10	1	-1E+10	1
4902642	15	C	11/17/2024	04:02	-131.698	45.537	0	2630.10	0	1.7680	0	34.6270	4	27.705	0	2592.397	0	69.6	4	20.9	4	-1E+10	1	-1E+10	1	-1E+10	1	-1E+10	1	-1E+10	1	-1E+10	1
4902642	15	C	11/17/2024	04:02	-131.698	45.537	0	2650.20	0	1.7640	0	34.6280	4	27.706	0	2612.087	0	70.1	4	21.0	4	-1E+10	1	-1E+10	1	-1E+10	1	-1E+10	1	-1E+10	1	-1E+10	1
4902642	15	C	11/17/2024	04:02	-131.698	45.537	0	2670.30	0	1.7580	0	34.6290	4	27.708	0	2631.775	0	70.8	4	21.2	4	-1E+10	1	-1E+10	1	-1E+10	1	-1E+10	1	-1E+10	1	-1E+10	1
4902642	15	C	11/17/2024	04:02	-131.698	45.537	0	2690.20	0	1.7510	0	34.6300	4	27.709	0	2651.266	0	71.7	4	21.5	4	-1E+10	1	-1E+10	1	-1E+10	1	-1E+10	1	-1E+10	1	-1E+10	1
4902642	15	C	11/17/2024	04:02	-131.698	45.537	0	2710.10	0	1.7470	0	34.6310	4	27.710	0	2670.755	0	72.4	4	21.7	4	-1E+10	1	-1E+10	1	-1E+10	1	-1E+10	1	-1E+10	1	-1E+10	1
4902642	15	C	11/17/2024	04:02	-131.698	45.537	0	2730.20	0	1.7420	0	34.6320	4	27.712	0	2690.437	0	73.1	4	21.9	4	-1E+10	1	-1E+10	1	-1E+10	1	-1E+10	1	-1E+10	1	-1E+10	1
4902642	15	C	11/17/2024	04:02	-131.698	45.537	0	2750.40	0	1.7320	0	34.6330	4	27.713	0	2710.216	0	74.0	4	22.2	4	-1E+10	1	-1E+10	1	-1E+10	1	-1E+10	1	-1E+10	1	-1E+10	1
4902642	15	C	11/17/2024	04:02	-131.698	45.537	0	2770.30	0	1.7230	0	34.6340	4	27.715	0	2729.700	0	75.0	4	22.5	4	-1E+10	1	-1E+10	1	-1E+10	1	-1E+10	1	-1E+10	1	-1E+10	1
4902642	15	C	11/17/2024	04:02	-131.698	45.537	0	2790.10	0	1.7100	0	34.6350	4	27.717	0	2749.084	0	75.9	4	22.7	4	-1E+10	1	-1E+10	1	-1E+10	1	-1E+10	1	-1E+10	1	-1E+10	1
4902642	15	C	11/17/2024	04:02	-131.698	45.537	0	2810.80	0	1.7050	0	34.6360	4	27.718	0	2769.347	0	76.8	4	23.0	4	-1E+10	1	-1E+10	1	-1E+10	1	-1E+10	1	-1E+10	1	-1E+10	1
4902642	15	C	11/17/2024	04:02	-131.698	45.537	0	2829.90	0	1.6940	0	34.6370	4	27.720	0	2788.042	0	77.9	4	23.3	4	-1E+10	1	-1E+10	1	-1E+10	1	-1E+10	1	-1E+10	1	-1E+10	1
4902642	15	C	11/17/2024	04:02	-131.698	45.537	0	2849.90	0	1.6850	0	34.6390	4	27.722	0	2807.616	0	78.8	4	23.6	4	-1E+10	1	-1E+10	1	-1E+10	1	-1E+10	1	-1E+10	1	-1E+10	1
4902642	15	C	11/17/2024	04:02	-131.698	45.537	0	2870.00	0	1.6780	0	34.6400	4	27.723	0	2827.287	0	79.9	4	23.9	4	-1E+10	1	-1E+10	1	-1E+10	1	-1E+10	1	-1E+10	1	-1E+10	1
4902642	15	C	11/17/2024	04:02	-131.698	45.537	0	2889.50	0	1.6680	0	34.6410	4	27.725	0	2846.369	0	81.0	4	24.2	4	-1E+10	1	-1E+10	1	-1E+10	1	-1E+10	1	-1E+10	1	-1E+10	1
4902642	15	C	11/17/2024	04:02	-131.698	45.537	0	2909.90	0	1.6610	0	34.6420	4	27.727	0	2866.329	0	81.8	4	24.5	4	-1E+10	1	-1E+10	1	-1E+10	1	-1E+10	1	-1E+10	1	-1E+10	1
4902642	15	C	11/17/2024	04:02	-131.698	45.537	0	2930.10	0	1.6580	0	34.6430	4	27.728	0	2886.092	0	82.3	4	24.6	4	-1E+10	1	-1E+10	1	-1E+10	1	-1E+10	1	-1E+10	1	-1E+10	1
4902642	15	C	11/17/2024	04:02	-131.698	45.537	0	2950.30	0	1.6520	0	34.6440	4	27.729	0	2905.853	0	83.3	4	24.9	4	-1E+10	1	-1E+10	1	-1E+10	1	-1E+10	1	-1E+10	1	-1E+10	1
4902642	15	C	11/17/2024	04:02	-131.698	45.537	0	2970.20	0	1.6450	0	34.6450	4	27.731	0	2925.319	0	84.3	4	25.2	4	-1E+10	1	-1E+10	1	-1E+10	1	-1E+10	1	-1E+10	1	-1E+10	1
4902642	15	C	11/17/2024	04:02	-131.698	45.537	0	2989.70	0	1.6400	0	34.6470	4	27.733	0	2944.392	0	85.2	4	25.5	4	-1E+10	1	-1E+10	1	-1E+10	1	-1E+10	1	-1E+10	1	-1E+10	1
4902642	15	C	11/17/2024	04:02	-131.698	45.537	0	3009.80	0	1.6310	0	34.6480	4	27.734	0	2964.050	0	86.3	4	25.8	4	-1E+10	1	-1E+10	1	-1E+10	1	-1E+10	1	-1E+10	1	-1E+10	1
4902642	15	C	11/17/2024	04:02	-131.698	45.537	0	3030.40	0	1.6260	0	34.6490	4	27.735	0	2984.195	0	87.0	4	26.0	4	-1E+10	1	-1E+10	1	-1E+10	1	-1E+10	1	-1E+10	1	-1E+10	1
4902642	15	C	11/17/2024	04:02	-131.698	45.537	0	3049.80	0	1.6200	0	34.6500	4	27.737	0	3003.165	0	87.8	4	26.2	4	-1E+10	1	-1E+10	1	-1E+10	1	-1E+10	1	-1E+10	1	-1E+10	1
4902642	15	C	11/17/2024	04:02	-131.698	45.537	0	3070.10	0	1.6170	0	34.6510	4	27.738	0	3023.014	0	88.2	4	26.4	4	-1E+10	1	-1E+10	1	-1E+10	1	-1E+10	1	-1E+10	1	-1E+10	1
4902642	15	C	11/17/2024	04:02	-131.698	45.537	0	3090.20	0	1.6160	0	34.6510	4	27.738	0	3042.665	0	88.7	4	26.5	4	-1E+10	1	-1E+10	1	-1E+10	1	-1E+10	1	-1E+10	1	-1E+10	1
4902642	15	C	11/17/2024	04:02	-131.698	45.537	0	3109.90	0	1.6140	0	34.6520	4	27.739	0	3061.923	0	89.3	4	26.7	4	-1E+10	1	-1E+10	1	-1E+10	1	-1E+10	1	-1E+10	1	-1E+10	1
4902642	15	C	11/17/2024	04:02	-131.698	45.537	0	3129.80	0	1.6080	0	34.6530	4	27.741	0	3081.375	0	90.1	4	26.9	4	-1E+10	1	-1E+10	1	-1E+10	1	-1E+10	1	-1E+10	1	-1E+10	1
4902642	15	C	11/17/2024	04:02	-131.698	45.537	0	3149.80	0	1.6050	0	34.6540	4	27.742	0	3100.923	0	90.5	4	27.0	4	-1E+10	1	-1E+10	1	-1E+10	1	-1E+10	1	-1E+10	1	-1E+10	1
4902642	15	C	11/17/2024	04:02	-131.698	45.537	0	3169.70	0	1.6040	0	34.6540	4	27.742	0	3120.371	0	91.0	4	27.2	4	-1E+10	1	-1E+10	1	-1E+10	1	-1E+10	1	-1E+10	1	-1E+10	1
4902642	15	C	11/17/2024	04:02	-131.698	45.537	0	3189.80	0	1.5980	0	34.6550	4	27.743	0	3140.013	0	92.0	4	27.5	4	-1E+10	1	-1E+10	1	-1E+10	1	-1E+10	1	-1E+10	1	-1E+10	1
4902642	15	C	11/17/2024	04:02	-131.698	45.537	0	3210.00	0	1.5890	0	34.6560	4	27.745	0	3159.751	0	93.4	4	27.9	4	-1E+10	1	-1E+10	1	-1E+10	1	-1E+10	1	-1E+10	1	-1E+10	1
4902642	15	C	11/17/2024	04:02	-131.698	45.537	0	3229.70	0	1.5810	0	34.6570	4	27.746	0	3178.999	0	94.4	4	28.2	4	-1E+10	1	-1E+10	1	-1E+10	1	-1E+10	1	-1E+10	1	-1E+10	1
4902642	15	C	11/17/2024	04:02	-131.698	45.537	0	3249.70	0	1.5750	0	34.6590	4	27.749	0	3198.538	0	95.2	4	28.4	4	-1E+10	1	-1E+10	1	-1E+10	1	-1E+10	1	-1E+10	1	-1E+10	1
4902642	15	C	11/17/2024	04:02	-131.698	45.537	0	3262.40	0	1.5730	0	34.6590	4	27.749	0	3210.945	0	95.8	4	28.6	4	-1E+10	1	-1E+10	1	-1E+10	1	-1E+10	1	-1E+10	1	-1E+10	1
4902642	15	C	11/17/2024	04:02	-131.698	45.537	0	3265.50	0	1.5720	0	34.6590	4	27.749	0	3213.973	0	95.9	4	28.6	4	-1E+10	1	-1E+10	1	-1E+10	1	-1E+10	1	-1E+10	1	-1E+10	1
4902642	15	C	11/17/2024	04:02	-131.698	45.537	0	3266.40	0	1.5720	0	34.6600	4	27.750	0	3214.852	0	96.0	4	28.6	4	-1E+10	1	-1E+10	1	-1E+10	1	-1E+10	1	-1E+10	1	-1E+10	1
4902642	15	C	11/17/2024	04:02	-131.698	45.537	0	3267.30	0	1.5720	0	34.6590	4	27.749	0	3215.731	0	96.1	4	28.7	4	-1E+10	1	-1E+10	1	-1E+10	1	-1E+10	1	-1E+10	1	-1E+10	1
4902642	15	C	11/17/2024	04:02	-131.698	45.537	0	3268.60	0	1.5710	0	34.6600	4	27.750	0	3217.001	0	96.2	4	28.7	4	-1E+10	1	-1E+10	1	-1E+10	1	-1E+10	1	-1E+10	1	-1E+10	1
4902642	15	C	11/17/2024	04:02	-131.698	45.537	0	3269.90	0	1.5710	0	34.6600	4	27.750	0	3218.271	0	96.3	4	28.7	4	-1E+10	1	-1E+10	1	-1E+10	1	-1E+10	1	-1E+10	1	-1E+10	1
4902642	15	C	11/17/2024	04:02	-131.698	45.537	0	3270.90	0	1.5710	0	34.6600	4	27.750	0	3219.248	0	96.4	4	28.8	4	-1E+10	1	-1E+10	1	-1E+10	1	-1E+10	1	-1E+10	1	-1E+10	1
4902642	15	C	11/17/2024	04:02	-131.698	45.537	0	3271.80	0	1.5700	0	34.6600	4	27.750	0	3220.127	0	96.4	4	28.8	4	-1E+10	1	-1E+10	1	-1E+10	1	-1E+10	1	-1E+10	1	-1E+10	1
4902642	15	C	11/17/2024	04:02	-131.698	45.537	0	3272.60	0	1.5700	0	34.6600	4	27.750	0	3220.909	0	96.5	4	28.8	4	-1E+10	1	-1E+10	1	-1E+10	1	-1E+10	1	-1E+10	1	-1E+10	1
4902642	15	C	11/17/2024	04:02	-131.698	45.537	0	3273.60	0	1.5680	0	34.6600	4	27.750	0	3221.885	0	96.6	4	28.8	4	-1E+10	1	-1E+10	1	-1E+10	1	-1E+10	1	-1E+10	1	-1E+10	1
4902642	15	C	11/17/2024	04:02	-131.698	45.537	0	3274.50	0	1.5670	0	34.6600	4	27.750	0	3222.764	0	96.6	4	28.8	4	-1E+10	1	-1E+10	1	-1E+10	1	-1E+10	1	-1E+10	1	-1E+10	1
4902642	15	C	11/17/2024	04:02	-131.698	45.537	0	3275.40	0	1.5660	0	34.6610	4	27.751	0	3223.643	0	96.7	4	28.9	4	-1E+10	1	-1E+10	1	-1E+10	1	-1E+10	1	-1E+10	1	-1E+10	1
4902642	15	C	11/17/2024	04:02	-131.698	45.537	0	3276.30	0	1.5660	0	34.6600	4	27.750	0	3224.523	0	96.8	4	28.9	4	-1E+10	1	-1E+10	1	-1E+10	1	-1E+10	1	-1E+10	1	-1E+10	1
4902642	15	C	11/17/2024	04:02	-131.698	45.537	0	3277.20	0	1.5660	0	34.6610	4	27.751	0	3225.402	0	96.8	4	28.9	4	-1E+10	1	-1E+10	1	-1E+10	1	-1E+10	1	-1E+10	1	-1E+10	1
4902642	15	C	11/17/2024	04:02	-131.698	45.537	0	3278.50	0	1.5650	0	34.6610	4	27.751	0	3226.672	0	96.9	4	28.9	4	-1E+10	1	-1E+10	1	-1E+10	1	-1E+10	1	-1E+10	1	-1E+10	1
4902642	15	C	11/17/2024	04:02	-131.698	45.537	0	3280.00	0	1.5640	0	34.6610	4	27.751	0	3228.137	0	97.0	4	28.9	4	-1E+10	1	-1E+10	1	-1E+10	1	-1E+10	1	-1E+10	1	-1E+10	1
4902642	15	C	11/17/2024	04:02	-131.698	45.537	0	3280.80	0	1.5630	0	34.6610	4	27.751	0	3228.918	0	97.0	4	28.9	4	-1E+10	1	-1E+10	1	-1E+10	1	-1E+10	1	-1E+10	1	-1E+10	1
4902642	15	C	11/17/2024	04:02	-131.698	45.537	0	3281.80	0	1.5630	0	34.6610	4	27.751	0	3229.895	0	97.1	4	29.0	4	-1E+10	1	-1E+10	1	-1E+10	1	-1E+10	1	-1E+10	1	-1E+10	1
4902642	15	C	11/17/2024	04:02	-131.698	45.537	0	3282.80	0	1.5630	0	34.6610	4	27.751	0	3230.872	0	97.2	4	29.0	4	-1E+10	1	-1E+10	1	-1E+10	1	-1E+10	1	-1E+10	1	-1E+10	1
4902642	15	C	11/17/2024	04:02	-131.698	45.537	0	3283.50	0	1.5620	0	34.6610	4	27.751	0	3231.556	0	97.2	4	29.0	4	-1E+10	1	-1E+10	1	-1E+10	1	-1E+10	1	-1E+10	1	-1E+10	1
4902642	15	C	11/17/2024	04:02	-131.698	45.537	0	3284.50	0	1.5620	0	34.6610	4	27.751	0	3232.532	0	97.3	4	29.0	4	-1E+10	1	-1E+10	1	-1E+10	1	-1E+10	1	-1E+10	1	-1E+10	1
4902642	15	C	11/17/2024	04:02	-131.698	45.537	0	3285.50	0	1.5610	0	34.6610	4	27.751	0	3233.509	0	97.3	4	29.0	4	-1E+10	1	-1E+10	1	-1E+10	1	-1E+10	1	-1E+10	1	-1E+10	1
4902642	15	C	11/17/2024	04:02	-131.698	45.537	0	3286.30	0	1.5610	0	34.6620	4	27.752	0	3234.291	0	97.3	4	29.0	4	-1E+10	1	-1E+10	1	-1E+10	1	-1E+10	1	-1E+10	1	-1E+10	1
4902642	15	C	11/17/2024	04:02	-131.698	45.537	0	3287.30	0	1.5610	0	34.6620	4	27.752	0	3235.267	0	97.3	4	29.0	4	-1E+10	1	-1E+10	1	-1E+10	1	-1E+10	1	-1E+10	1	-1E+10	1
4902642	15	C	11/17/2024	04:02	-131.698	45.537	0	3288.20	0	1.5600	0	34.6620	4	27.752	0	3236.146	0	97.4	4	29.0	4	-1E+10	1	-1E+10	1	-1E+10	1	-1E+10	1	-1E+10	1	-1E+10	1
4902642	15	C	11/17/2024	04:02	-131.698	45.537	0	3289.50	0	1.5590	0	34.6620	4	27.752	0	3237.416	0	97.4	4	29.0	4	-1E+10	1	-1E+10	1	-1E+10	1	-1E+10	1	-1E+10	1	-1E+10	1
4902642	15	C	11/17/2024	04:02	-131.698	45.537	0	3290.90	0	1.5590	0	34.6620	4	27.752	0	3238.783	0	97.3	4	29.0	4	-1E+10	1	-1E+10	1	-1E+10	1	-1E+10	1	-1E+10	1	-1E+10	1
4902642	15	C	11/17/2024	04:02	-131.698	45.537	0	3291.80	0	1.5590	0	34.6620	4	27.752	0	3239.663	0	97.4	4	29.1	4	-1E+10	1	-1E+10	1	-1E+10	1	-1E+10	1	-1E+10	1	-1E+10	1
4902642	15	C	11/17/2024	04:02	-131.698	45.537	0	3292.70	0	1.5590	0	34.6620	4	27.752	0	3240.542	0	97.4	4	29.1	4	-1E+10	1	-1E+10	1	-1E+10	1	-1E+10	1	-1E+10	1	-1E+10	1
4902642	15	C	11/17/2024	04:02	-131.698	45.537	0	3293.70	0	1.5600	0	34.6620	4	27.752	0	3241.518	0	97.5	4	29.1	4	-1E+10	1	-1E+10	1	-1E+10	1	-1E+10	1	-1E+10	1	-1E+10	1
4902642	15	C	11/17/2024	04:02	-131.698	45.537	0	3294.60	0	1.5590	0	34.6620	4	27.752	0	3242.397	0	97.5	4	29.1	4	-1E+10	1	-1E+10	1	-1E+10	1	-1E+10	1	-1E+10	1	-1E+10	1
4902642	15	C	11/17/2024	04:02	-131.698	45.537	0	3295.50	0	1.5590	0	34.6620	4	27.752	0	3243.276	0	97.4	4	29.1	4	-1E+10	1	-1E+10	1	-1E+10	1	-1E+10	1	-1E+10	1	-1E+10	1
4902642	15	C	11/17/2024	04:02	-131.698	45.537	0	3296.40	0	1.5590	0	34.6620	4	27.752	0	3244.155	0	97.5	4	29.1	4	-1E+10	1	-1E+10	1	-1E+10	1	-1E+10	1	-1E+10	1	-1E+10	1
4902642	15	C	11/17/2024	04:02	-131.698	45.537	0	3297.40	0	1.5590	0	34.6620	4	27.752	0	3245.132	0	97.5	4	29.1	4	-1E+10	1	-1E+10	1	-1E+10	1	-1E+10	1	-1E+10	1	-1E+10	1
4902642	15	C	11/17/2024	04:02	-131.698	45.537	0	3298.40	0	1.5590	0	34.6620	4	27.752	0	3246.109	0	97.6	4	29.1	4	-1E+10	1	-1E+10	1	-1E+10	1	-1E+10	1	-1E+10	1	-1E+10	1
4902642	15	C	11/17/2024	04:02	-131.698	45.537	0	3299.30	0	1.5590	0	34.6620	4	27.752	0	3246.988	0	97.6	4	29.1	4	-1E+10	1	-1E+10	1	-1E+10	1	-1E+10	1	-1E+10	1	-1E+10	1
4902642	15	C	11/17/2024	04:02	-131.698	45.537	0	3300.30	0	1.5590	0	34.6620	4	27.752	0	3247.965	0	97.5	4	29.1	4	-1E+10	1	-1E+10	1	-1E+10	1	-1E+10	1	-1E+10	1	-1E+10	1
4902642	15	C	11/17/2024	04:02	-131.698	45.537	0	3301.20	0	1.5590	0	34.6620	4	27.752	0	3248.844	0	97.6	4	29.1	4	-1E+10	1	-1E+10	1	-1E+10	1	-1E+10	1	-1E+10	1	-1E+10	1
4902642	15	C	11/17/2024	04:02	-131.698	45.537	0	3302.50	0	1.5590	0	34.6620	4	27.752	0	3250.113	0	97.7	4	29.1	4	-1E+10	1	-1E+10	1	-1E+10	1	-1E+10	1	-1E+10	1	-1E+10	1
4902642	15	C	11/17/2024	04:02	-131.698	45.537	0	3303.80	0	1.5580	0	34.6630	4	27.753	0	3251.383	0	97.7	4	29.1	4	-1E+10	1	-1E+10	1	-1E+10	1	-1E+10	1	-1E+10	1	-1E+10	1
4902642	15	C	11/17/2024	04:02	-131.698	45.537	0	3305.30	0	1.5570	0	34.6620	4	27.753	0	3252.848	0	97.7	4	29.1	4	-1E+10	1	-1E+10	1	-1E+10	1	-1E+10	1	-1E+10	1	-1E+10	1
4902642	15	C	11/17/2024	04:02	-131.698	45.537	0	3306.40	0	1.5570	0	34.6620	4	27.753	0	3253.922	0	97.6	4	29.1	4	-1E+10	1	-1E+10	1	-1E+10	1	-1E+10	1	-1E+10	1	-1E+10	1
4902642	15	C	11/17/2024	04:02	-131.698	45.537	0	3307.50	0	1.5580	0	34.6620	4	27.753	0	3254.997	0	97.7	4	29.1	4	-1E+10	1	-1E+10	1	-1E+10	1	-1E+10	1	-1E+10	1	-1E+10	1
4902642	15	C	11/17/2024	04:02	-131.698	45.537	0	3308.60	0	1.5570	0	34.6620	4	27.753	0	3256.071	0	97.7	4	29.1	4	-1E+10	1	-1E+10	1	-1E+10	1	-1E+10	1	-1E+10	1	-1E+10	1
4902642	15	C	11/17/2024	04:02	-131.698	45.537	0	3309.70	0	1.5570	0	34.6620	4	27.753	0	3257.145	0	97.6	4	29.1	4	-1E+10	1	-1E+10	1	-1E+10	1	-1E+10	1	-1E+10	1	-1E+10	1
4902642	15	C	11/17/2024	04:02	-131.698	45.537	0	3310.50	0	1.5580	0	34.6620	4	27.753	0	3257.927	0	97.6	4	29.1	4	-1E+10	1	-1E+10	1	-1E+10	1	-1E+10	1	-1E+10	1	-1E+10	1
4902642	15	C	11/17/2024	04:02	-131.698	45.537	0	3311.50	0	1.5580	0	34.6620	4	27.753	0	3258.903	0	97.6	4	29.1	4	-1E+10	1	-1E+10	1	-1E+10	1	-1E+10	1	-1E+10	1	-1E+10	1
4902642	15	C	11/17/2024	04:02	-131.698	45.537	0	3312.60	0	1.5580	0	34.6620	4	27.753	0	3259.978	0	97.6	4	29.1	4	-1E+10	1	-1E+10	1	-1E+10	1	-1E+10	1	-1E+10	1	-1E+10	1
4902642	15	C	11/17/2024	04:02	-131.698	45.537	0	3313.50	0	1.5580	0	34.6630	4	27.753	0	3260.857	0	97.6	4	29.1	4	-1E+10	1	-1E+10	1	-1E+10	1	-1E+10	1	-1E+10	1	-1E+10	1
4902642	15	C	11/17/2024	04:02	-131.698	45.537	0	3314.80	0	1.5580	0	34.6620	4	27.753	0	3262.126	0	97.7	4	29.1	4	-1E+10	1	-1E+10	1	-1E+10	1	-1E+10	1	-1E+10	1	-1E+10	1
4902642	15	C	11/17/2024	04:02	-131.698	45.537	0	3315.20	0	1.5580	0	34.6620	4	27.753	0	3262.517	0	97.6	4	29.1	4	-1E+10	1	-1E+10	1	-1E+10	1	-1E+10	1	-1E+10	1	-1E+10	1
4902642	15	C	11/17/2024	04:02	-131.698	45.537	0																										
4902642	16	C	11/27/2024	02:53	-131.780	45.663	0	1.00	0	11.8075	0	32.5645	0	24.734	0	0.992	0	236.5	4	87.9	4	-1E+10	1	-1E+10	1	-1E+10	1	-1E+10	1	-1E+10	1	-1E+10	1
4902642	16	C	11/27/2024	02:53	-131.780	45.663	0	1.10	0	11.8015	0	32.5677	0	24.738	0	1.091	0	236.4	4	87.9	4	-1E+10	1	-1E+10	1	-1E+10	1	-1E+10	1	-1E+10	1	-1E+10	1
4902642	16	C	11/27/2024	02:53	-131.780	45.663	0	1.20	0	11.8010	0	32.5707	0	24.740	0	1.190	0	236.4	4	87.9	4	-1E+10	1	-1E+10	1	-1E+10	1	-1E+10	1	-1E+10	1	-1E+10	1
4902642	16	C	11/27/2024	02:53	-131.780	45.663	0	1.30	0	11.8030	0	32.5690	0	24.739	0	1.289	0	-1e10	1	-1e10	1	-1E+10	1	-1E+10	1	-1E+10	1	-1E+10	1	-1E+10	1	-1E+10	1
4902642	16	C	11/27/2024	02:53	-131.780	45.663	0	1.40	0	11.8030	0	32.5680	0	24.738	0	1.389	0	236.2	4	87.8	4	-1E+10	1	-1E+10	1	-1E+10	1	-1E+10	1	-1E+10	1	-1E+10	1
4902642	16	C	11/27/2024	02:53	-131.780	45.663	0	2.70	0	11.8020	0	32.5700	0	24.740	0	2.678	0	236.0	4	87.8	4	-1E+10	1	-1E+10	1	-1E+10	1	-1E+10	1	-1E+10	1	-1E+10	1
4902642	16	C	11/27/2024	02:53	-131.780	45.663	0	3.60	0	11.8030	0	32.5690	0	24.739	0	3.571	0	236.1	4	87.8	4	-1E+10	1	-1E+10	1	-1E+10	1	-1E+10	1	-1E+10	1	-1E+10	1
4902642	16	C	11/27/2024	02:53	-131.780	45.663	0	4.70	0	11.8050	0	32.5710	0	24.740	0	4.662	0	236.0	4	87.7	4	-1E+10	1	-1E+10	1	-1E+10	1	-1E+10	1	-1E+10	1	-1E+10	1
4902642	16	C	11/27/2024	02:53	-131.780	45.663	0	5.70	0	11.8070	0	32.5680	0	24.737	0	5.653	0	236.0	4	87.8	4	-1E+10	1	-1E+10	1	-1E+10	1	-1E+10	1	-1E+10	1	-1E+10	1
4902642	16	C	11/27/2024	02:53	-131.780	45.663	0	6.90	0	11.8070	0	32.5680	0	24.737	0	6.843	0	236.0	4	87.8	4	-1E+10	1	-1E+10	1	-1E+10	1	-1E+10	1	-1E+10	1	-1E+10	1
4902642	16	C	11/27/2024	02:53	-131.780	45.663	0	8.00	0	11.8160	0	32.5680	0	24.736	0	7.934	0	236.0	4	87.8	4	-1E+10	1	-1E+10	1	-1E+10	1	-1E+10	1	-1E+10	1	-1E+10	1
4902642	16	C	11/27/2024	02:53	-131.780	45.663	0	8.80	0	11.8170	0	32.5680	0	24.735	0	8.728	0	236.0	4	87.8	4	-1E+10	1	-1E+10	1	-1E+10	1	-1E+10	1	-1E+10	1	-1E+10	1
4902642	16	C	11/27/2024	02:53	-131.780	45.663	0	9.80	0	11.8170	0	32.5680	0	24.735	0	9.720	0	235.9	4	87.7	4	-1E+10	1	-1E+10	1	-1E+10	1	-1E+10	1	-1E+10	1	-1E+10	1
4902642	16	C	11/27/2024	02:53	-131.780	45.663	0	14.80	0	11.8160	0	32.5680	0	24.736	0	14.678	0	235.8	4	87.7	4	-1E+10	1	-1E+10	1	-1E+10	1	-1E+10	1	-1E+10	1	-1E+10	1
4902642	16	C	11/27/2024	02:53	-131.780	45.663	0	24.80	0	11.8170	0	32.5680	0	24.736	0	24.596	0	235.7	4	87.7	4	-1E+10	1	-1E+10	1	-1E+10	1	-1E+10	1	-1E+10	1	-1E+10	1
4902642	16	C	11/27/2024	02:53	-131.780	45.663	0	35.00	0	11.8180	0	32.5680	0	24.736	0	34.711	0	235.6	4	87.6	4	-1E+10	1	-1E+10	1	-1E+10	1	-1E+10	1	-1E+10	1	-1E+10	1
4902642	16	C	11/27/2024	02:53	-131.780	45.663	0	44.90	0	11.8180	0	32.5680	0	24.736	0	44.528	0	235.3	4	87.5	4	-1E+10	1	-1E+10	1	-1E+10	1	-1E+10	1	-1E+10	1	-1E+10	1
4902642	16	C	11/27/2024	02:53	-131.780	45.663	0	55.10	0	11.8200	0	32.5680	0	24.736	0	54.642	0	234.7	4	87.3	4	-1E+10	1	-1E+10	1	-1E+10	1	-1E+10	1	-1E+10	1	-1E+10	1
4902642	16	C	11/27/2024	02:53	-131.780	45.663	0	64.90	0	11.8230	0	32.5680	0	24.736	0	64.359	0	233.4	4	86.8	4	-1E+10	1	-1E+10	1	-1E+10	1	-1E+10	1	-1E+10	1	-1E+10	1
4902642	16	C	11/27/2024	02:53	-131.780	45.663	0	75.40	0	11.4630	0	32.5900	0	24.819	0	74.770	0	229.0	4	84.6	4	-1E+10	1	-1E+10	1	-1E+10	1	-1E+10	1	-1E+10	1	-1E+10	1
4902642	16	C	11/27/2024	02:53	-131.780	45.663	0	84.30	0	9.6680	0	32.7270	0	25.234	0	83.594	0	228.8	4	81.4	4	-1E+10	1	-1E+10	1	-1E+10	1	-1E+10	1	-1E+10	1	-1E+10	1
4902642	16	C	11/27/2024	02:53	-131.780	45.663	0	95.00	0	9.2750	0	32.7810	0	25.340	0	94.201	0	221.0	4	78.0	4	-1E+10	1	-1E+10	1	-1E+10	1	-1E+10	1	-1E+10	1	-1E+10	1
4902642	16	C	11/27/2024	02:53	-131.780	45.663	0	104.80	0	8.9250	0	32.9710	0	25.543	0	103.917	0	208.7	4	73.2	4	-1E+10	1	-1E+10	1	-1E+10	1	-1E+10	1	-1E+10	1	-1E+10	1
4902642	16	C	11/27/2024	02:53	-131.780	45.663	0	114.80	0	8.4640	0	33.1300	0	25.739	0	113.829	0	203.0	4	70.5	4	-1E+10	1	-1E+10	1	-1E+10	1	-1E+10	1	-1E+10	1	-1E+10	1
4902642	16	C	11/27/2024	02:53	-131.780	45.663	0	125.70	0	8.0930	0	33.2930	0	25.922	0	124.634	0	197.9	4	68.3	4	-1E+10	1	-1E+10	1	-1E+10	1	-1E+10	1	-1E+10	1	-1E+10	1
4902642	16	C	11/27/2024	02:53	-131.780	45.663	0	135.20	0	7.7860	0	33.4120	0	26.060	0	134.050	0	193.9	4	66.5	4	-1E+10	1	-1E+10	1	-1E+10	1	-1E+10	1	-1E+10	1	-1E+10	1
4902642	16	C	11/27/2024	02:53	-131.780	45.663	0	144.90	0	7.6730	0	33.4660	0	26.119	0	143.665	0	191.7	4	65.6	4	-1E+10	1	-1E+10	1	-1E+10	1	-1E+10	1	-1E+10	1	-1E+10	1
4902642	16	C	11/27/2024	02:53	-131.780	45.663	0	154.90	0	7.5250	0	33.5800	0	26.230	0	153.576	0	189.6	4	64.7	4	-1E+10	1	-1E+10	1	-1E+10	1	-1E+10	1	-1E+10	1	-1E+10	1
4902642	16	C	11/27/2024	02:53	-131.780	45.663	0	164.90	0	7.3300	0	33.6380	0	26.303	0	163.486	0	182.8	4	62.1	4	-1E+10	1	-1E+10	1	-1E+10	1	-1E+10	1	-1E+10	1	-1E+10	1
4902642	16	C	11/27/2024	02:53	-131.780	45.663	0	174.70	0	7.2060	0	33.7000	0	26.369	0	173.198	0	177.1	4	60.1	4	-1E+10	1	-1E+10	1	-1E+10	1	-1E+10	1	-1E+10	1	-1E+10	1
4902642	16	C	11/27/2024	02:53	-131.780	45.663	0	184.70	0	7.1140	0	33.7320	0	26.407	0	183.108	0	173.4	4	58.7	4	-1E+10	1	-1E+10	1	-1E+10	1	-1E+10	1	-1E+10	1	-1E+10	1
4902642	16	C	11/27/2024	02:53	-131.780	45.663	0	194.50	0	7.0170	0	33.7570	0	26.440	0	192.819	0	167.2	4	56.5	4	-1E+10	1	-1E+10	1	-1E+10	1	-1E+10	1	-1E+10	1	-1E+10	1
4902642	16	C	11/27/2024	02:53	-131.780	45.663	0	210.20	0	6.6620	0	33.7840	0	26.509	0	208.375	0	156.1	4	52.3	4	-1E+10	1	-1E+10	1	-1E+10	1	-1E+10	1	-1E+10	1	-1E+10	1
4902642	16	C	11/27/2024	02:53	-131.780	45.663	0	229.80	0	6.3500	0	33.7920	0	26.556	0	227.794	0	145.4	4	48.4	4	-1E+10	1	-1E+10	1	-1E+10	1	-1E+10	1	-1E+10	1	-1E+10	1
4902642	16	C	11/27/2024	02:53	-131.780	45.663	0	249.50	0	6.1220	0	33.8000	0	26.592	0	247.310	0	130.9	4	43.3	4	-1E+10	1	-1E+10	1	-1E+10	1	-1E+10	1	-1E+10	1	-1E+10	1
4902642	16	C	11/27/2024	02:53	-131.780	45.663	0	269.70	0	5.8580	0	33.8120	0	26.635	0	267.320	0	116.3	4	38.3	4	-1E+10	1	-1E+10	1	-1E+10	1	-1E+10	1	-1E+10	1	-1E+10	1
4902642	16	C	11/27/2024	02:53	-131.780	45.663	0	289.70	0	5.5640	0	33.8260	0	26.681	0	287.129	0	100.7	4	32.9	4	-1E+10	1	-1E+10	1	-1E+10	1	-1E+10	1	-1E+10	1	-1E+10	1
4902642	16	C	11/27/2024	02:53	-131.780	45.663	0	309.30	0	5.3590	0	33.8470	0	26.723	0	306.541	0	89.3	4	29.0	4	-1E+10	1	-1E+10	1	-1E+10	1	-1E+10	1	-1E+10	1	-1E+10	1
4902642	16	C	11/27/2024	02:53	-131.780	45.663	0	330.10	0	5.2040	0	33.8600	0	26.751	0	327.139	0	83.1	4	26.9	4	-1E+10	1	-1E+10	1	-1E+10	1	-1E+10	1	-1E+10	1	-1E+10	1
4902642	16	C	11/27/2024	02:53	-131.780	45.663	0	349.70	0	5.0730	0	33.8730	0	26.777	0	346.547	0	77.4	4	25.0	4	-1E+10	1	-1E+10	1	-1E+10	1	-1E+10	1	-1E+10	1	-1E+10	1
4902642	16	C	11/27/2024	02:53	-131.780	45.663	0	369.70	0	4.9790	0	33.8940	0	26.804	0	366.349	0	71.9	4	23.2	4	-1E+10	1	-1E+10	1	-1E+10	1	-1E+10	1	-1E+10	1	-1E+10	1
4902642	16	C	11/27/2024	02:53	-131.780	45.663	0	389.70	0	4.9070	0	33.9100	0	26.825	0	386.149	0	67.0	4	21.6	4	-1E+10	1	-1E+10	1	-1E+10	1	-1E+10	1	-1E+10	1	-1E+10	1
4902642	16	C	11/27/2024	02:53	-131.780	45.663	0	409.80	0	4.8130	0	33.9300	0	26.852	0	406.046	0	60.9	4	19.6	4	-1E+10	1	-1E+10	1	-1E+10	1	-1E+10	1	-1E+10	1	-1E+10	1
4902642	16	C	11/27/2024	02:53	-131.780	45.663	0	429.70	0	4.7160	0	33.9500	0	26.878	0	425.744	0	55.4	4	17.8	4	-1E+10	1	-1E+10	1	-1E+10	1	-1E+10	1	-1E+10	1	-1E+10	1
4902642	16	C	11/27/2024	02:53	-131.780	45.663	0	449.30	0	4.6130	0	33.9720	0	26.907	0	445.142	0	49.9	4	16.0	4	-1E+10	1	-1E+10	1	-1E+10	1	-1E+10	1	-1E+10	1	-1E+10	1
4902642	16	C	11/27/2024	02:53	-131.780	45.663	0	470.00	0	4.5120	0	33.9970	0	26.938	0	465.627	0	44.0	4	14.0	4	-1E+10	1	-1E+10	1	-1E+10	1	-1E+10	1	-1E+10	1	-1E+10	1
4902642	16	C	11/27/2024	02:53	-131.780	45.663	0	490.00	0	4.4450	0	34.0170	0	26.962	0	485.418	0	38.0	4	12.1	4	-1E+10	1	-1E+10	1	-1E+10	1	-1E+10	1	-1E+10	1	-1E+10	1
4902642	16	C	11/27/2024	02:53	-131.780	45.663	0	509.70	0	4.3880	0	34.0400	0	26.986	0	504.910	0	32.3	4	10.3	4	-1E+10	1	-1E+10	1	-1E+10	1	-1E+10	1	-1E+10	1	-1E+10	1
4902642	16	C	11/27/2024	02:53	-131.780	45.663	0	529.50	0	4.3680	0	34.0610	0	27.005	0	524.499	0	27.6	4	8.8	4	-1E+10	1	-1E+10	1	-1E+10	1	-1E+10	1	-1E+10	1	-1E+10	1
4902642	16	C	11/27/2024	02:53	-131.780	45.663	0	549.30	0	4.2920	0	34.0770	0	27.026	0	544.086	0	25.0	4	7.9	4	-1E+10	1	-1E+10	1	-1E+10	1	-1E+10	1	-1E+10	1	-1E+10	1
4902642	16	C	11/27/2024	02:53	-131.780	45.663	0	569.60	0	4.2900	0	34.0990	0	27.044	0	564.166	0	20.5	4	6.5	4	-1E+10	1	-1E+10	1	-1E+10	1	-1E+10	1	-1E+10	1	-1E+10	1
4902642	16	C	11/27/2024	02:53	-131.780	45.663	0	589.80	0	4.2720	0	34.1190	0	27.062	0	584.144	0	17.3	4	5.5	4	-1E+10	1	-1E+10	1	-1E+10	1	-1E+10	1	-1E+10	1	-1E+10	1
4902642	16	C	11/27/2024	02:53	-131.780	45.663	0	609.60	0	4.2410	0	34.1420	0	27.083	0	603.726	0	14.6	4	4.6	4	-1E+10	1	-1E+10	1	-1E+10	1	-1E+10	1	-1E+10	1	-1E+10	1
4902642	16	C	11/27/2024	02:53	-131.780	45.663	0	629.80	0	4.2260	0	34.1600	0	27.099	0	623.701	0	12.7	4	4.0	4	-1E+10	1	-1E+10	1	-1E+10	1	-1E+10	1	-1E+10	1	-1E+10	1
4902642	16	C	11/27/2024	02:53	-131.780	45.663	0	649.70	0	4.1960	0	34.1770	0	27.116	0	643.378	0	11.4	4	3.6	4	-1E+10	1	-1E+10	1	-1E+10	1	-1E+10	1	-1E+10	1	-1E+10	1
4902642	16	C	11/27/2024	02:53	-131.780	45.663	0	669.40	0	4.1020	0	34.1880	0	27.135	0	662.855	0	10.5	4	3.3	4	-1E+10	1	-1E+10	1	-1E+10	1	-1E+10	1	-1E+10	1	-1E+10	1
4902642	16	C	11/27/2024	02:53	-131.780	45.663	0	689.70	0	4.0590	0	34.2070	0	27.155	0	682.923	0	9.4	4	3.0	4	-1E+10	1	-1E+10	1	-1E+10	1	-1E+10	1	-1E+10	1	-1E+10	1
4902642	16	C	11/27/2024	02:53	-131.780	45.663	0	710.00	0	4.0310	0	34.2200	0	27.168	0	702.989	0	8.2	4	2.6	4	-1E+10	1	-1E+10	1	-1E+10	1	-1E+10	1	-1E+10	1	-1E+10	1
4902642	16	C	11/27/2024	02:53	-131.780	45.663	0	730.00	0	4.0190	0	34.2400	0	27.185	0	722.757	0	7.3	4	2.3	4	-1E+10	1	-1E+10	1	-1E+10	1	-1E+10	1	-1E+10	1	-1E+10	1
4902642	16	C	11/27/2024	02:53	-131.780	45.663	0	749.50	0	3.9730	0	34.2540	0	27.201	0	742.029	0	6.7	4	2.1	4	-1E+10	1	-1E+10	1	-1E+10	1	-1E+10	1	-1E+10	1	-1E+10	1
4902642	16	C	11/27/2024	02:53	-131.780	45.663	0	769.60	0	3.9720	0	34.2750	0	27.218	0	761.892	0	6.0	4	1.9	4	-1E+10	1	-1E+10	1	-1E+10	1	-1E+10	1	-1E+10	1	-1E+10	1
4902642	16	C	11/27/2024	02:53	-131.780	45.663	0	789.20	0	3.9430	0	34.2870	0	27.231	0	781.259	0	5.7	4	1.8	4	-1E+10	1	-1E+10	1	-1E+10	1	-1E+10	1	-1E+10	1	-1E+10	1
4902642	16	C	11/27/2024	02:53	-131.780	45.663	0	809.60	0	3.8740	0	34.3030	0	27.251	0	801.414	0	5.4	4	1.7	4	-1E+10	1	-1E+10	1	-1E+10	1	-1E+10	1	-1E+10	1	-1E+10	1
4902642	16	C	11/27/2024	02:53	-131.780	45.663	0	829.70	0	3.8180	0	34.3160	0	27.267	0	821.272	0	5.3	4	1.7	4	-1E+10	1	-1E+10	1	-1E+10	1	-1E+10	1	-1E+10	1	-1E+10	1
4902642	16	C	11/27/2024	02:53	-131.780	45.663	0	849.70	0	3.7710	0	34.3270	0	27.280	0	841.028	0	5.2	4	1.6	4	-1E+10	1	-1E+10	1	-1E+10	1	-1E+10	1	-1E+10	1	-1E+10	1
4902642	16	C	11/27/2024	02:53	-131.780	45.663	0	869.50	0	3.7420	0	34.3400	0	27.294	0	860.586	0	5.2	4	1.6	4	-1E+10	1	-1E+10	1	-1E+10	1	-1E+10	1	-1E+10	1	-1E+10	1
4902642	16	C	11/27/2024	02:53	-131.780	45.663	0	890.40	0	3.7110	0	34.3530	0	27.307	0	881.227	0	5.3	4	1.7	4	-1E+10	1	-1E+10	1	-1E+10	1	-1E+10	1	-1E+10	1	-1E+10	1
4902642	16	C	11/27/2024	02:53	-131.780	45.663	0	909.50	0	3.6620	0	34.3610	0	27.319	0	900.089	0	5.4	4	1.7	4	-1E+10	1	-1E+10	1	-1E+10	1	-1E+10	1	-1E+10	1	-1E+10	1
4902642	16	C	11/27/2024	02:53	-131.780	45.663	0	929.70	0	3.6190	0	34.3670	0	27.328	0	920.036	0	5.6	4	1.8	4	-1E+10	1	-1E+10	1	-1E+10	1	-1E+10	1	-1E+10	1	-1E+10	1
4902642	16	C	11/27/2024	02:53	-131.780	45.663	0	949.70	0	3.5800	0	34.3770	0	27.340	0	939.783	0	5.9	4	1.8	4	-1E+10	1	-1E+10	1	-1E+10	1	-1E+10	1	-1E+10	1	-1E+10	1
4902642	16	C	11/27/2024	02:53	-131.780	45.663	0	969.50	0	3.5310	0	34.3850	0	27.351	0	959.331	0	6.1	4	1.9	4	-1E+10	1	-1E+10	1	-1E+10	1	-1E+10	1	-1E+10	1	-1E+10	1
4902642	16	C	11/27/2024	02:53	-131.780	45.663	0	989.80	0	3.4790	0	34.3920	0	27.362	0	979.371	0	6.4	4	2.0	4	-1E+10	1	-1E+10	1	-1E+10	1	-1E+10	1	-1E+10	1	-1E+10	1
4902642	16	C	11/27/2024	02:53	-131.780	45.663	0	1010.00	0	3.4330	0	34.4020	0	27.374	0	999.310	0	6.9	4	2.2	4	-1E+10	1	-1E+10	1	-1E+10	1	-1E+10	1	-1E+10	1	-1E+10	1
4902642	16	C	11/27/2024	02:53	-131.780	45.663	0	1030.20	0	3.3850	0	34.4120	0	27.387	0	1019.247	0	7.4	4	2.3	4	-1E+10	1	-1E+10	1	-1E+10	1	-1E+10	1	-1E+10	1	-1E+10	1
4902642	16	C	11/27/2024	02:53	-131.780	45.663	0	1049.90	0	3.3510	0	34.4190	0	27.396	0	1038.689	0	8.0	4	2.5	4	-1E+10	1	-1E+10	1	-1E+10	1	-1E+10	1	-1E+10	1	-1E+10	1
4902642	16	C	11/27/2024	02:53	-131.780	45.663	0	1070.10	0	3.3110	0	34.4260	0	27.405	0	1058.622	0	8.5	4	2.6	4	-1E+10	1	-1E+10	1	-1E+10	1	-1E+10	1	-1E+10	1	-1E+10	1
4902642	16	C	11/27/2024	02:53	-131.780	45.663	0	1089.80	0	3.2710	0	34.4310	0	27.413	0	1078.060	0	8.9	4	2.8	4	-1E+10	1	-1E+10	1	-1E+10	1	-1E+10	1	-1E+10	1	-1E+10	1
4902642	16	C	11/27/2024	02:53	-131.780	45.663	0	1109.60	0	3.2340	0	34.4360	0	27.421	0	1097.595	0	9.3	4	2.9	4	-1E+10	1	-1E+10	1	-1E+10	1	-1E+10	1	-1E+10	1	-1E+10	1
4902642	16	C	11/27/2024	02:53	-131.780	45.663	0	1129.30	0	3.1920	0	34.4410	0	27.429	0	1117.030	0	9.7	4	3.0	4	-1E+10	1	-1E+10	1	-1E+10	1	-1E+10	1	-1E+10	1	-1E+10	1
4902642	16	C	11/27/2024	02:53	-131.780	45.663	0	1149.80	0	3.1490	0	34.4450	0	27.436	0	1137.252	0	10.1	4	3.1	4	-1E+10	1	-1E+10	1	-1E+10	1	-1E+10	1	-1E+10	1	-1E+10	1
4902642	16	C	11/27/2024	02:53	-131.780	45.663	0	1169.60	0	3.1070	0	34.4500	0	27.444	0	1156.781	0	10.6	4	3.3	4	-1E+10	1	-1E+10	1	-1E+10	1	-1E+10	1	-1E+10	1	-1E+10	1
4902642	16	C	11/27/2024	02:53	-131.780	45.663	0	1189.90	0	3.0630	0	34.4540	0	27.451	0	1176.802	0	11.1	4	3.4	4	-1E+10	1	-1E+10	1	-1E+10	1	-1E+10	1	-1E+10	1	-1E+10	1
4902642	16	C	11/27/2024	02:53	-131.780	45.663	0	1210.10	0	3.0030	0	34.4600	0	27.461	0	1196.722	0	11.9	4	3.7	4	-1E+10	1	-1E+10	1	-1E+10	1	-1E+10	1	-1E+10	1	-1E+10	1
4902642	16	C	11/27/2024	02:53	-131.780	45.663	0	1230.00	0	2.9550	0	34.4650	0	27.470	0	1216.344	0	12.6	4	3.9	4	-1E+10	1	-1E+10	1	-1E+10	1	-1E+10	1	-1E+10	1	-1E+10	1
4902642	16	C	11/27/2024	02:53	-131.780	45.663	0	1249.90	0	2.9030	0	34.4700	0	27.479	0	1235.965	0	13.2	4	4.1	4	-1E+10	1	-1E+10	1	-1E+10	1	-1E+10	1	-1E+10	1	-1E+10	1
4902642	16	C	11/27/2024	02:53	-131.780	45.663	0	1270.50	0	2.8660	0	34.4740	0	27.485	0	1256.274	0	13.8	4	4.2	4	-1E+10	1	-1E+10	1	-1E+10	1	-1E+10	1	-1E+10	1	-1E+10	1
4902642	16	C	11/27/2024	02:53	-131.780	45.663	0	1289.40	0	2.8360	0	34.4770	0	27.490	0	1274.905	0	14.4	4	4.4	4	-1E+10	1	-1E+10	1	-1E+10	1	-1E+10	1	-1E+10	1	-1E+10	1
4902642	16	C	11/27/2024	02:53	-131.780	45.663	0	1309.60	0	2.8080	0	34.4810	0	27.496	0	1294.816	0	15.0	4	4.6	4	-1E+10	1	-1E+10	1	-1E+10	1	-1E+10	1	-1E+10	1	-1E+10	1
4902642	16	C	11/27/2024	02:53	-131.780	45.663	0	1329.80	0	2.7690	0	34.4860	0	27.504	0	1314.725	0	15.9	4	4.9	4	-1E+10	1	-1E+10	1	-1E+10	1	-1E+10	1	-1E+10	1	-1E+10	1
4902642	16	C	11/27/2024	02:53	-131.780	45.663	0	1350.00	0	2.7340	0	34.4910	0	27.511	0	1334.632	0	16.8	4	5.2	4	-1E+10	1	-1E+10	1	-1E+10	1	-1E+10	1	-1E+10	1	-1E+10	1
4902642	16	C	11/27/2024	02:53	-131.780	45.663	0	1369.80	0	2.7120	0	34.4940	0	27.515	0	1354.143	0	17.4	4	5.3	4	-1E+10	1	-1E+10	1	-1E+10	1	-1E+10	1	-1E+10	1	-1E+10	1
4902642	16	C	11/27/2024	02:53	-131.780	45.663	0	1389.60	0	2.6880	0	34.4970	0	27.520	0	1373.652	0	18.2	4	5.6	4	-1E+10	1	-1E+10	1	-1E+10	1	-1E+10	1	-1E+10	1	-1E+10	1
4902642	16	C	11/27/2024	02:53	-131.780	45.663	0	1409.90	0	2.6490	0	34.5020	0	27.527	0	1393.652	0	19.2	4	5.9	4	-1E+10	1	-1E+10	1	-1E+10	1	-1E+10	1	-1E+10	1	-1E+10	1
4902642	16	C	11/27/2024	02:53	-131.780	45.663	0	1429.80	0	2.6190	0	34.5060	0	27.533	0	1413.256	0	20.2	4	6.2	4	-1E+10	1	-1E+10	1	-1E+10	1	-1E+10	1	-1E+10	1	-1E+10	1
4902642	16	C	11/27/2024	02:53	-131.780	45.663	0	1449.60	0	2.5900	0	34.5110	0	27.540	0	1432.760	0	21.2	4	6.5	4	-1E+10	1	-1E+10	1	-1E+10	1	-1E+10	1	-1E+10	1	-1E+10	1
4902642	16	C	11/27/2024	02:53	-131.780	45.663	0	1469.70	0	2.5690	0	34.5140	0	27.544	0	1452.558	0	21.9	4	6.7	4	-1E+10	1	-1E+10	1	-1E+10	1	-1E+10	1	-1E+10	1	-1E+10	1
4902642	16	C	11/27/2024	02:53	-131.780	45.663	0	1490.00	0	2.5360	0	34.5170	0	27.549	0	1472.550	0	23.0	4	7.0	4	-1E+10	1	-1E+10	1	-1E+10	1	-1E+10	1	-1E+10	1	-1E+10	1
4902642	16	C	11/27/2024	02:53	-131.780	45.663	0	1509.80	0	2.5090	0	34.5210	0	27.555	0	1492.048	0	24.1	4	7.3	4	-1E+10	1	-1E+10	1	-1E+10	1	-1E+10	1	-1E+10	1	-1E+10	1
4902642	16	C	11/27/2024	02:53	-131.780	45.663	0	1529.80	0	2.4860	0	34.5250	0	27.560	0	1511.742	0	25.1	4	7.6	4	-1E+10	1	-1E+10	1	-1E+10	1	-1E+10	1	-1E+10	1	-1E+10	1
4902642	16	C	11/27/2024	02:53	-131.780	45.663	0	1550.30	0	2.4590	0	34.5290	0	27.566	0	1531.926	0	26.1	4	8.0	4	-1E+10	1	-1E+10	1	-1E+10	1	-1E+10	1	-1E+10	1	-1E+10	1
4902642	16	C	11/27/2024	02:53	-131.780	45.663	0	1569.70	0	2.4310	0	34.5310	0	27.570	0	1551.024	0	26.9	4	8.2	4	-1E+10	1	-1E+10	1	-1E+10	1	-1E+10	1	-1E+10	1	-1E+10	1
4902642	16	C	11/27/2024	02:53	-131.780	45.663	0	1589.40	0	2.4100	0	34.5340	0	27.574	0	1570.417	0	27.9	4	8.5	4	-1E+10	1	-1E+10	1	-1E+10	1	-1E+10	1	-1E+10	1	-1E+10	1
4902642	16	C	11/27/2024	02:53	-131.780	45.663	0	1609.90	0	2.3680	0	34.5390	0	27.582	0	1590.595	0	29.6	4	9.0	4	-1E+10	1	-1E+10	1	-1E+10	1	-1E+10	1	-1E+10	1	-1E+10	1
4902642	16	C	11/27/2024	02:53	-131.780	45.663	0	1629.50	0	2.3380	0	34.5430	0	27.587	0	1609.886	0	31.0	4	9.4	4	-1E+10	1	-1E+10	1	-1E+10	1	-1E+10	1	-1E+10	1	-1E+10	1
4902642	16	C	11/27/2024	02:53	-131.780	45.663	0	1649.70	0	2.3120	0	34.5460	0	27.592	0	1629.765	0	31.9	4	9.7	4	-1E+10	1	-1E+10	1	-1E+10	1	-1E+10	1	-1E+10	1	-1E+10	1
4902642	16	C	11/27/2024	02:53	-131.780	45.663	0	1670.10	0	2.2900	0	34.5490	0	27.596	0	1649.839	0	32.9	4	10.0	4	-1E+10	1	-1E+10	1	-1E+10	1	-1E+10	1	-1E+10	1	-1E+10	1
4902642	16	C	11/27/2024	02:53	-131.780	45.663	0	1690.00	0	2.2740	0	34.5510	0	27.599	0	1669.419	0	33.9	4	10.3	4	-1E+10	1	-1E+10	1	-1E+10	1	-1E+10	1	-1E+10	1	-1E+10	1
4902642	16	C	11/27/2024	02:53	-131.780	45.663	0	1709.90	0	2.2480	0	34.5550	0	27.605	0	1688.998	0	35.1	4	10.6	4	-1E+10	1	-1E+10	1	-1E+10	1	-1E+10	1	-1E+10	1	-1E+10	1
4902642	16	C	11/27/2024	02:53	-131.780	45.663	0	1729.50	0	2.2230	0	34.5580	0	27.609	0	1708.279	0	36.3	4	11.0	4	-1E+10	1	-1E+10	1	-1E+10	1	-1E+10	1	-1E+10	1	-1E+10	1
4902642	16	C	11/27/2024	02:53	-131.780	45.663	0	1749.60	0	2.1930	0	34.5610	0	27.614	0	1728.051	0	37.6	4	11.4	4	-1E+10	1	-1E+10	1	-1E+10	1	-1E+10	1	-1E+10	1	-1E+10	1
4902642	16	C	11/27/2024	02:53	-131.780	45.663	0	1770.50	0	2.1710	0	34.5650	0	27.619	0	1748.607	0	38.8	4	11.8	4	-1E+10	1	-1E+10	1	-1E+10	1	-1E+10	1	-1E+10	1	-1E+10	1
4902642	16	C	11/27/2024	02:53	-131.780	45.663	0	1789.50	0	2.1520	0	34.5670	0	27.622	0	1767.294	0	39.9	4	12.1	4	-1E+10	1	-1E+10	1	-1E+10	1	-1E+10	1	-1E+10	1	-1E+10	1
4902642	16	C	11/27/2024	02:53	-131.780	45.663	0	1809.40	0	2.1220	0	34.5700	0	27.627	0	1786.863	0	41.2	4	12.5	4	-1E+10	1	-1E+10	1	-1E+10	1	-1E+10	1	-1E+10	1	-1E+10	1
4902642	16	C	11/27/2024	02:53	-131.780	45.663	0	1829.50	0	2.0940	0	34.5740	0	27.633	0	1806.627	0	42.4	4	12.8	4	-1E+10	1	-1E+10	1	-1E+10	1	-1E+10	1	-1E+10	1	-1E+10	1
4902642	16	C	11/27/2024	02:53	-131.780	45.663	0	1850.20	0	2.0700	0	34.5760	0	27.636	0	1826.979	0	43.3	4	13.1	4	-1E+10	1	-1E+10	1	-1E+10	1	-1E+10	1	-1E+10	1	-1E+10	1
4902642	16	C	11/27/2024	02:53	-131.780	45.663	0	1869.60	0	2.0570	0	34.5770	0	27.638	0	1846.052	0	44.0	4	13.3	4	-1E+10	1	-1E+10	1	-1E+10	1	-1E+10	1	-1E+10	1	-1E+10	1
4902642	16	C	11/27/2024	02:53	-131.780	45.663	0	1889.50	0	2.0380	0	34.5790	0	27.641	0	1865.614	0	45.2	4	13.7	4	-1E+10	1	-1E+10	1	-1E+10	1	-1E+10	1	-1E+10	1	-1E+10	1
4902642	16	C	11/27/2024	02:53	-131.780	45.663	0	1909.90	0	2.0130	0	34.5820	0	27.646	0	1885.666	0	46.3	4	14.0	4	-1E+10	1	-1E+10	1	-1E+10	1	-1E+10	1	-1E+10	1	-1E+10	1
4902642	16	C	11/27/2024	02:53	-131.780	45.663	0	1930.00	0	1.9980	0	34.5840	0	27.649	0	1905.421	0	47.1	4	14.2	4	-1E+10	1	-1E+10	1	-1E+10	1	-1E+10	1	-1E+10	1	-1E+10	1
4902642	16	C	11/27/2024	02:53	-131.780	45.663	0	1949.90	0	1.9900	0	34.5860	0	27.651	0	1924.977	0	47.7	4	14.4	4	-1E+10	1	-1E+10	1	-1E+10	1	-1E+10	1	-1E+10	1	-1E+10	1
4902642	16	C	11/27/2024	02:53	-131.780	45.663	0	1969.90	0	1.9850	0	34.5870	0	27.652	0	1944.631	0	48.2	4	14.5	4	-1E+10	1	-1E+10	1	-1E+10	1	-1E+10	1	-1E+10	1	-1E+10	1
4902642	16	C	11/27/2024	02:53	-131.780	45.663	0	1989.60	0	1.9730	0	34.5890	0	27.655	0	1963.987	0	49.1	4	14.8	4	-1E+10	1	-1E+10	1	-1E+10	1	-1E+10	1	-1E+10	1	-1E+10	1
4902642	16	C	11/27/2024	02:53	-131.780	45.663	0	2009.60	0	1.9640	0	34.5910	4	27.657	0	1983.637	0	50.0	4	15.1	4	-1E+10	1	-1E+10	1	-1E+10	1	-1E+10	1	-1E+10	1	-1E+10	1
4902642	16	C	11/27/2024	02:53	-131.780	45.663	0	2029.90	0	1.9510	0	34.5930	4	27.660	0	2003.579	0	50.9	4	15.3	4	-1E+10	1	-1E+10	1	-1E+10	1	-1E+10	1	-1E+10	1	-1E+10	1
4902642	16	C	11/27/2024	02:53	-131.780	45.663	0	2049.80	0	1.9440	0	34.5950	4	27.662	0	2023.127	0	51.5	4	15.5	4	-1E+10	1	-1E+10	1	-1E+10	1	-1E+10	1	-1E+10	1	-1E+10	1
4902642	16	C	11/27/2024	02:53	-131.780	45.663	0	2070.20	0	1.9360	0	34.5960	4	27.664	0	2043.164	0	52.1	4	15.7	4	-1E+10	1	-1E+10	1	-1E+10	1	-1E+10	1	-1E+10	1	-1E+10	1
4902642	16	C	11/27/2024	02:53	-131.780	45.663	0	2090.90	0	1.9280	0	34.5980	4	27.666	0	2063.493	0	52.8	4	15.9	4	-1E+10	1	-1E+10	1	-1E+10	1	-1E+10	1	-1E+10	1	-1E+10	1
4902642	16	C	11/27/2024	02:53	-131.780	45.663	0	2110.20	0	1.9210	0	34.5990	4	27.668	0	2082.446	0	53.7	4	16.1	4	-1E+10	1	-1E+10	1	-1E+10	1	-1E+10	1	-1E+10	1	-1E+10	1
4902642	16	C	11/27/2024	02:53	-131.780	45.663	0	2130.00	0	1.9090	0	34.6010	4	27.670	0	2101.888	0	54.7	4	16.4	4	-1E+10	1	-1E+10	1	-1E+10	1	-1E+10	1	-1E+10	1	-1E+10	1
4902642	16	C	11/27/2024	02:53	-131.780	45.663	0	2150.00	0	1.8970	0	34.6030	4	27.673	0	2121.525	0	55.7	4	16.7	4	-1E+10	1	-1E+10	1	-1E+10	1	-1E+10	1	-1E+10	1	-1E+10	1
4902642	16	C	11/27/2024	02:53	-131.780	45.663	0	2170.20	0	1.8880	0	34.6050	4	27.675	0	2141.357	0	56.5	4	17.0	4	-1E+10	1	-1E+10	1	-1E+10	1	-1E+10	1	-1E+10	1	-1E+10	1
4902642	16	C	11/27/2024	02:53	-131.780	45.663	0	2189.70	0	1.8800	0	34.6070	4	27.678	0	2160.499	0	57.3	4	17.2	4	-1E+10	1	-1E+10	1	-1E+10	1	-1E+10	1	-1E+10	1	-1E+10	1
4902642	16	C	11/27/2024	02:53	-131.780	45.663	0	2209.60	0	1.8720	0	34.6080	4	27.679	0	2180.032	0	58.0	4	17.4	4	-1E+10	1	-1E+10	1	-1E+10	1	-1E+10	1	-1E+10	1	-1E+10	1
4902642	16	C	11/27/2024	02:53	-131.780	45.663	0	2230.00	0	1.8660	0	34.6100	4	27.681	0	2200.054	0	58.7	4	17.6	4	-1E+10	1	-1E+10	1	-1E+10	1	-1E+10	1	-1E+10	1	-1E+10	1
4902642	16	C	11/27/2024	02:53	-131.780	45.663	0	2250.20	0	1.8600	0	34.6110	4	27.683	0	2219.878	0	59.4	4	17.8	4	-1E+10	1	-1E+10	1	-1E+10	1	-1E+10	1	-1E+10	1	-1E+10	1
4902642	16	C	11/27/2024	02:53	-131.780	45.663	0	2270.10	0	1.8530	0	34.6120	4	27.684	0	2239.406	0	60.1	4	18.1	4	-1E+10	1	-1E+10	1	-1E+10	1	-1E+10	1	-1E+10	1	-1E+10	1
4902642	16	C	11/27/2024	02:53	-131.780	45.663	0	2290.30	0	1.8480	0	34.6140	4	27.686	0	2259.227	0	60.7	4	18.2	4	-1E+10	1	-1E+10	1	-1E+10	1	-1E+10	1	-1E+10	1	-1E+10	1
4902642	16	C	11/27/2024	02:53	-131.780	45.663	0	2309.70	0	1.8430	0	34.6150	4	27.688	0	2278.260	0	61.3	4	18.4	4	-1E+10	1	-1E+10	1	-1E+10	1	-1E+10	1	-1E+10	1	-1E+10	1
4902642	16	C	11/27/2024	02:53	-131.780	45.663	0	2329.70	0	1.8360	0	34.6160	4	27.689	0	2297.881	0	62.0	4	18.6	4	-1E+10	1	-1E+10	1	-1E+10	1	-1E+10	1	-1E+10	1	-1E+10	1
4902642	16	C	11/27/2024	02:53	-131.780	45.663	0	2349.90	0	1.8310	0	34.6170	4	27.690	0	2317.696	0	62.5	4	18.8	4	-1E+10	1	-1E+10	1	-1E+10	1	-1E+10	1	-1E+10	1	-1E+10	1
4902642	16	C	11/27/2024	02:53	-131.780	45.663	0	2369.90	0	1.8270	0	34.6180	4	27.692	0	2337.313	0	63.0	4	18.9	4	-1E+10	1	-1E+10	1	-1E+10	1	-1E+10	1	-1E+10	1	-1E+10	1
4902642	16	C	11/27/2024	02:53	-131.780	45.663	0	2390.20	0	1.8240	0	34.6190	4	27.693	0	2357.222	0	63.4	4	19.0	4	-1E+10	1	-1E+10	1	-1E+10	1	-1E+10	1	-1E+10	1	-1E+10	1
4902642	16	C	11/27/2024	02:53	-131.780	45.663	0	2410.40	0	1.8210	0	34.6190	4	27.693	0	2377.032	0	63.8	4	19.2	4	-1E+10	1	-1E+10	1	-1E+10	1	-1E+10	1	-1E+10	1	-1E+10	1
4902642	16	C	11/27/2024	02:53	-131.780	45.663	0	2429.80	0	1.8160	0	34.6200	4	27.695	0	2396.055	0	64.4	4	19.3	4	-1E+10	1	-1E+10	1	-1E+10	1	-1E+10	1	-1E+10	1	-1E+10	1
4902642	16	C	11/27/2024	02:53	-131.780	45.663	0	2450.00	0	1.8120	0	34.6210	4	27.696	0	2415.861	0	64.9	4	19.5	4	-1E+10	1	-1E+10	1	-1E+10	1	-1E+10	1	-1E+10	1	-1E+10	1
4902642	16	C	11/27/2024	02:53	-131.780	45.663	0	2470.10	0	1.8080	0	34.6220	4	27.697	0	2435.567	0	65.5	4	19.7	4	-1E+10	1	-1E+10	1	-1E+10	1	-1E+10	1	-1E+10	1	-1E+10	1
4902642	16	C	11/27/2024	02:53	-131.780	45.663	0	2490.10	0	1.8030	0	34.6230	4	27.698	0	2455.173	0	66.1	4	19.8	4	-1E+10	1	-1E+10	1	-1E+10	1	-1E+10	1	-1E+10	1	-1E+10	1
4902642	16	C	11/27/2024	02:53	-131.780	45.663	0	2510.20	0	1.7990	0	34.6240	4	27.700	0	2474.875	0	66.6	4	20.0	4	-1E+10	1	-1E+10	1	-1E+10	1	-1E+10	1	-1E+10	1	-1E+10	1
4902642	16	C	11/27/2024	02:53	-131.780	45.663	0	2530.00	0	1.7930	0	34.6240	4	27.700	0	2494.282	0	67.2	4	20.2	4	-1E+10	1	-1E+10	1	-1E+10	1	-1E+10	1	-1E+10	1	-1E+10	1
4902642	16	C	11/27/2024	02:53	-131.780	45.663	0	2550.10	0	1.7880	0	34.6250	4	27.701	0	2513.981	0	67.7	4	20.3	4	-1E+10	1	-1E+10	1	-1E+10	1	-1E+10	1	-1E+10	1	-1E+10	1
4902642	16	C	11/27/2024	02:53	-131.780	45.663	0	2569.90	0	1.7850	0	34.6260	4	27.703	0	2533.384	0	68.1	4	20.4	4	-1E+10	1	-1E+10	1	-1E+10	1	-1E+10	1	-1E+10	1	-1E+10	1
4902642	16	C	11/27/2024	02:53	-131.780	45.663	0	2589.90	0	1.7840	0	34.6260	4	27.703	0	2552.981	0	68.5	4	20.6	4	-1E+10	1	-1E+10	1	-1E+10	1	-1E+10	1	-1E+10	1	-1E+10	1
4902642	16	C	11/27/2024	02:53	-131.780	45.663	0	2609.70	0	1.7770	0	34.6270	4	27.704	0	2572.381	0	69.5	4	20.8	4	-1E+10	1	-1E+10	1	-1E+10	1	-1E+10	1	-1E+10	1	-1E+10	1
4902642	16	C	11/27/2024	02:53	-131.780	45.663	0	2629.90	0	1.7660	0	34.6290	4	27.707	0	2592.170	0	70.3	4	21.1	4	-1E+10	1	-1E+10	1	-1E+10	1	-1E+10	1	-1E+10	1	-1E+10	1
4902642	16	C	11/27/2024	02:53	-131.780	45.663	0	2650.70	0	1.7630	0	34.6300	4	27.708	0	2612.546	0	70.8	4	21.2	4	-1E+10	1	-1E+10	1	-1E+10	1	-1E+10	1	-1E+10	1	-1E+10	1
4902642	16	C	11/27/2024	02:53	-131.780	45.663	0	2669.90	0	1.7550	0	34.6300	4	27.709	0	2631.353	0	71.5	4	21.4	4	-1E+10	1	-1E+10	1	-1E+10	1	-1E+10	1	-1E+10	1	-1E+10	1
4902642	16	C	11/27/2024	02:53	-131.780	45.663	0	2690.10	0	1.7470	0	34.6310	4	27.710	0	2651.137	0	72.1	4	21.6	4	-1E+10	1	-1E+10	1	-1E+10	1	-1E+10	1	-1E+10	1	-1E+10	1
4902642	16	C	11/27/2024	02:53	-131.780	45.663	0	2710.10	0	1.7420	0	34.6320	4	27.711	0	2670.724	0	72.6	4	21.8	4	-1E+10	1	-1E+10	1	-1E+10	1	-1E+10	1	-1E+10	1	-1E+10	1
4902642	16	C	11/27/2024	02:53	-131.780	45.663	0	2729.90	0	1.7390	0	34.6320	4	27.712	0	2690.112	0	73.3	4	22.0	4	-1E+10	1	-1E+10	1	-1E+10	1	-1E+10	1	-1E+10	1	-1E+10	1
4902642	16	C	11/27/2024	02:53	-131.780	45.663	0	2749.70	0	1.7260	0	34.6330	4	27.714	0	2709.500	0	74.7	4	22.4	4	-1E+10	1	-1E+10	1	-1E+10	1	-1E+10	1	-1E+10	1	-1E+10	1
4902642	16	C	11/27/2024	02:53	-131.780	45.663	0	2770.00	0	1.7150	0	34.6350	4	27.716	0	2729.375	0	75.5	4	22.6	4	-1E+10	1	-1E+10	1	-1E+10	1	-1E+10	1	-1E+10	1	-1E+10	1
4902642	16	C	11/27/2024	02:53	-131.780	45.663	0	2790.10	0	1.7120	0	34.6350	4	27.716	0	2749.052	0	76.0	4	22.8	4	-1E+10	1	-1E+10	1	-1E+10	1	-1E+10	1	-1E+10	1	-1E+10	1
4902642	16	C	11/27/2024	02:53	-131.780	45.663	0	2809.80	0	1.7030	0	34.6360	4	27.718	0	2768.336	0	76.9	4	23.0	4	-1E+10	1	-1E+10	1	-1E+10	1	-1E+10	1	-1E+10	1	-1E+10	1
4902642	16	C	11/27/2024	02:53	-131.780	45.663	0	2829.70	0	1.6980	0	34.6370	4	27.719	0	2787.814	0	77.7	4	23.2	4	-1E+10	1	-1E+10	1	-1E+10	1	-1E+10	1	-1E+10	1	-1E+10	1
4902642	16	C	11/27/2024	02:53	-131.780	45.663	0	2849.70	0	1.6890	0	34.6380	4	27.721	0	2807.388	0	78.8	4	23.6	4	-1E+10	1	-1E+10	1	-1E+10	1	-1E+10	1	-1E+10	1	-1E+10	1
4902642	16	C	11/27/2024	02:53	-131.780	45.663	0	2869.70	0	1.6790	0	34.6400	4	27.723	0	2826.961	0	79.9	4	23.9	4	-1E+10	1	-1E+10	1	-1E+10	1	-1E+10	1	-1E+10	1	-1E+10	1
4902642	16	C	11/27/2024	02:53	-131.780	45.663	0	2890.00	0	1.6720	0	34.6410	4	27.725	0	2846.825	0	81.0	4	24.2	4	-1E+10	1	-1E+10	1	-1E+10	1	-1E+10	1	-1E+10	1	-1E+10	1
4902642	16	C	11/27/2024	02:53	-131.780	45.663	0	2910.60	0	1.6610	0	34.6430	4	27.727	0	2866.981	0	82.1	4	24.6	4	-1E+10	1	-1E+10	1	-1E+10	1	-1E+10	1	-1E+10	1	-1E+10	1
4902642	16	C	11/27/2024	02:53	-131.780	45.663	0	2930.30	0	1.6540	0	34.6440	4	27.729	0	2886.254	0	82.9	4	24.8	4	-1E+10	1	-1E+10	1	-1E+10	1	-1E+10	1	-1E+10	1	-1E+10	1
4902642	16	C	11/27/2024	02:53	-131.780	45.663	0	2950.40	0	1.6480	0	34.6450	4	27.730	0	2905.917	0	83.7	4	25.0	4	-1E+10	1	-1E+10	1	-1E+10	1	-1E+10	1	-1E+10	1	-1E+10	1
4902642	16	C	11/27/2024	02:53	-131.780	45.663	0	2970.30	0	1.6430	0	34.6460	4	27.731	0	2925.383	0	84.3	4	25.2	4	-1E+10	1	-1E+10	1	-1E+10	1	-1E+10	1	-1E+10	1	-1E+10	1
4902642	16	C	11/27/2024	02:53	-131.780	45.663	0	2990.10	0	1.6390	0	34.6460	4	27.732	0	2944.749	0	85.1	4	25.4	4	-1E+10	1	-1E+10	1	-1E+10	1	-1E+10	1	-1E+10	1	-1E+10	1
4902642	16	C	11/27/2024	02:53	-131.780	45.663	0	3010.50	0	1.6360	0	34.6470	4	27.733	0	2964.700	0	85.5	4	25.6	4	-1E+10	1	-1E+10	1	-1E+10	1	-1E+10	1	-1E+10	1	-1E+10	1
4902642	16	C	11/27/2024	02:53	-131.780	45.663	0	3029.90	0	1.6330	0	34.6480	4	27.734	0	2983.672	0	86.2	4	25.8	4	-1E+10	1	-1E+10	1	-1E+10	1	-1E+10	1	-1E+10	1	-1E+10	1
4902642	16	C	11/27/2024	02:53	-131.780	45.663	0	3049.90	0	1.6290	0	34.6490	4	27.735	0	3003.228	0	86.8	4	25.9	4	-1E+10	1	-1E+10	1	-1E+10	1	-1E+10	1	-1E+10	1	-1E+10	1
4902642	16	C	11/27/2024	02:53	-131.780	45.663	0	3070.00	0	1.6250	0	34.6490	4	27.736	0	3022.881	0	87.5	4	26.1	4	-1E+10	1	-1E+10	1	-1E+10	1	-1E+10	1	-1E+10	1	-1E+10	1
4902642	16	C	11/27/2024	02:53	-131.780	45.663	0	3089.80	0	1.6230	0	34.6500	4	27.737	0	3042.238	0	87.8	4	26.2	4	-1E+10	1	-1E+10	1	-1E+10	1	-1E+10	1	-1E+10	1	-1E+10	1
4902642	16	C	11/27/2024	02:53	-131.780	45.663	0	3109.50	0	1.6210	0	34.6500	4	27.737	0	3061.496	0	88.2	4	26.4	4	-1E+10	1	-1E+10	1	-1E+10	1	-1E+10	1	-1E+10	1	-1E+10	1
4902642	16	C	11/27/2024	02:53	-131.780	45.663	0	3130.30	0	1.6190	0	34.6510	4	27.738	0	3081.828	0	88.7	4	26.5	4	-1E+10	1	-1E+10	1	-1E+10	1	-1E+10	1	-1E+10	1	-1E+10	1
4902642	16	C	11/27/2024	02:53	-131.780	45.663	0	3149.80	0	1.6190	0	34.6510	4	27.738	0	3100.887	0	88.9	4	26.6	4	-1E+10	1	-1E+10	1	-1E+10	1	-1E+10	1	-1E+10	1	-1E+10	1
4902642	16	C	11/27/2024	02:53	-131.780	45.663	0	3170.00	0	1.6180	0	34.6520	4	27.739	0	3120.628	0	89.4	4	26.7	4	-1E+10	1	-1E+10	1	-1E+10	1	-1E+10	1	-1E+10	1	-1E+10	1
4902642	16	C	11/27/2024	02:53	-131.780	45.663	0	3186.80	0	1.6150	0	34.6520	4	27.740	0	3137.045	0	89.8	4	26.8	4	-1E+10	1	-1E+10	1	-1E+10	1	-1E+10	1	-1E+10	1	-1E+10	1
4902642	16	C	11/27/2024	02:53	-131.780	45.663	0	3194.50	0	1.6150	0	34.6530	4	27.741	0	3144.569	0	90.1	4	26.9	4	-1E+10	1	-1E+10	1	-1E+10	1	-1E+10	1	-1E+10	1	-1E+10	1
4902642	16	C	11/27/2024	02:53	-131.780	45.663	0	3195.90	0	1.6150	0	34.6530	4	27.741	0	3145.937	0	90.1	4	26.9	4	-1E+10	1	-1E+10	1	-1E+10	1	-1E+10	1	-1E+10	1	-1E+10	1
4902642	16	C	11/27/2024	02:53	-131.780	45.663	0	3196.90	0	1.6150	0	34.6530	4	27.741	0	3146.914	0	90.2	4	26.9	4	-1E+10	1	-1E+10	1	-1E+10	1	-1E+10	1	-1E+10	1	-1E+10	1
4902642	16	C	11/27/2024	02:53	-131.780	45.663	0	3197.80	0	1.6150	0	34.6530	4	27.741	0	3147.794	0	90.2	4	27.0	4	-1E+10	1	-1E+10	1	-1E+10	1	-1E+10	1	-1E+10	1	-1E+10	1
4902642	16	C	11/27/2024	02:53	-131.780	45.663	0	3198.70	0	1.6140	0	34.6530	4	27.741	0	3148.673	0	90.3	4	27.0	4	-1E+10	1	-1E+10	1	-1E+10	1	-1E+10	1	-1E+10	1	-1E+10	1
4902642	16	C	11/27/2024	02:53	-131.780	45.663	0	3199.70	0	1.6140	0	34.6530	4	27.741	0	3149.650	0	90.4	4	27.0	4	-1E+10	1	-1E+10	1	-1E+10	1	-1E+10	1	-1E+10	1	-1E+10	1
4902642	16	C	11/27/2024	02:53	-131.780	45.663	0	3200.50	0	1.6130	0	34.6530	4	27.741	0	3150.432	0	90.4	4	27.0	4	-1E+10	1	-1E+10	1	-1E+10	1	-1E+10	1	-1E+10	1	-1E+10	1
4902642	16	C	11/27/2024	02:53	-131.780	45.663	0	3201.40	0	1.6130	0	34.6530	4	27.741	0	3151.311	0	90.5	4	27.0	4	-1E+10	1	-1E+10	1	-1E+10	1	-1E+10	1	-1E+10	1	-1E+10	1
4902642	16	C	11/27/2024	02:53	-131.780	45.663	0	3202.30	0	1.6130	0	34.6530	4	27.741	0	3152.191	0	90.5	4	27.0	4	-1E+10	1	-1E+10	1	-1E+10	1	-1E+10	1	-1E+10	1	-1E+10	1
4902642	16	C	11/27/2024	02:53	-131.780	45.663	0	3203.30	0	1.6140	0	34.6530	4	27.741	0	3153.168	0	90.6	4	27.1	4	-1E+10	1	-1E+10	1	-1E+10	1	-1E+10	1	-1E+10	1	-1E+10	1
4902642	16	C	11/27/2024	02:53	-131.780	45.663	0	3204.20	0	1.6130	0	34.6530	4	27.741	0	3154.047	0	90.7	4	27.1	4	-1E+10	1	-1E+10	1	-1E+10	1	-1E+10	1	-1E+10	1	-1E+10	1
4902642	16	C	11/27/2024	02:53	-131.780	45.663	0	3205.10	0	1.6120	0	34.6530	4	27.741	0	3154.927	0	90.7	4	27.1	4	-1E+10	1	-1E+10	1	-1E+10	1	-1E+10	1	-1E+10	1	-1E+10	1
4902642	16	C	11/27/2024	02:53	-131.780	45.663	0	3206.50	0	1.6100	0	34.6540	4	27.742	0	3156.295	0	90.9	4	27.2	4	-1E+10	1	-1E+10	1	-1E+10	1	-1E+10	1	-1E+10	1	-1E+10	1
4902642	16	C	11/27/2024	02:53	-131.780	45.663	0	3208.00	0	1.6090	0	34.6540	4	27.742	0	3157.760	0	91.0	4	27.2	4	-1E+10	1	-1E+10	1	-1E+10	1	-1E+10	1	-1E+10	1	-1E+10	1
4902642	16	C	11/27/2024	02:53	-131.780	45.663	0	3208.90	0	1.6090	0	34.6540	4	27.742	0	3158.640	0	91.0	4	27.2	4	-1E+10	1	-1E+10	1	-1E+10	1	-1E+10	1	-1E+10	1	-1E+10	1
4902642	16	C	11/27/2024	02:53	-131.780	45.663	0	3209.80	0	1.6090	0	34.6540	4	27.742	0	3159.519	0	91.1	4	27.2	4	-1E+10	1	-1E+10	1	-1E+10	1	-1E+10	1	-1E+10	1	-1E+10	1
4902642	16	C	11/27/2024	02:53	-131.780	45.663	0	3210.70	0	1.6080	0	34.6540	4	27.742	0	3160.399	0	91.2	4	27.2	4	-1E+10	1	-1E+10	1	-1E+10	1	-1E+10	1	-1E+10	1	-1E+10	1
4902642	16	C	11/27/2024	02:53	-131.780	45.663	0	3211.70	0	1.6080	0	34.6540	4	27.742	0	3161.376	0	91.2	4	27.2	4	-1E+10	1	-1E+10	1	-1E+10	1	-1E+10	1	-1E+10	1	-1E+10	1
4902642	16	C	11/27/2024	02:53	-131.780	45.663	0	3212.60	0	1.6080	0	34.6540	4	27.742	0	3162.255	0	91.3	4	27.3	4	-1E+10	1	-1E+10	1	-1E+10	1	-1E+10	1	-1E+10	1	-1E+10	1
4902642	16	C	11/27/2024	02:53	-131.780	45.663	0	3213.50	0	1.6080	0	34.6540	4	27.742	0	3163.134	0	91.4	4	27.3	4	-1E+10	1	-1E+10	1	-1E+10	1	-1E+10	1	-1E+10	1	-1E+10	1
4902642	16	C	11/27/2024	02:53	-131.780	45.663	0	3214.40	0	1.6080	0	34.6540	4	27.742	0	3164.014	0	91.5	4	27.3	4	-1E+10	1	-1E+10	1	-1E+10	1	-1E+10	1	-1E+10	1	-1E+10	1
4902642	16	C	11/27/2024	02:53	-131.780	45.663	0	3215.40	0	1.6080	0	34.6540	4	27.742	0	3164.991	0	91.6	4	27.4	4	-1E+10	1	-1E+10	1	-1E+10	1	-1E+10	1	-1E+10	1	-1E+10	1
4902642	16	C	11/27/2024	02:53	-131.780	45.663	0	3216.30	0	1.6050	0	34.6550	4	27.743	0	3165.870	0	91.7	4	27.4	4	-1E+10	1	-1E+10	1	-1E+10	1	-1E+10	1	-1E+10	1	-1E+10	1
4902642	16	C	11/27/2024	02:53	-131.780	45.663	0	3217.20	0	1.6040	0	34.6550	4	27.743	0	3166.749	0	91.8	4	27.4	4	-1E+10	1	-1E+10	1	-1E+10	1	-1E+10	1	-1E+10	1	-1E+10	1
4902642	16	C	11/27/2024	02:53	-131.780	45.663	0	3218.20	0	1.6030	0	34.6550	4	27.743	0	3167.726	0	91.8	4	27.4	4	-1E+10	1	-1E+10	1	-1E+10	1	-1E+10	1	-1E+10	1	-1E+10	1
4902642	16	C	11/27/2024	02:53	-131.780	45.663	0	3219.10	0	1.6020	0	34.6550	4	27.743	0	3168.606	0	91.9	4	27.4	4	-1E+10	1	-1E+10	1	-1E+10	1	-1E+10	1	-1E+10	1	-1E+10	1
4902642	16	C	11/27/2024	02:53	-131.780	45.663	0	3220.50	0	1.6010	0	34.6550	4	27.743	0	3169.974	0	91.9	4	27.5	4	-1E+10	1	-1E+10	1	-1E+10	1	-1E+10	1	-1E+10	1	-1E+10	1
4902642	16	C	11/27/2024	02:53	-131.780	45.663	0	3221.90	0	1.6000	0	34.6550	4	27.743	0	3171.341	0	92.0	4	27.5	4	-1E+10	1	-1E+10	1	-1E+10	1	-1E+10	1	-1E+10	1	-1E+10	1
4902642	16	C	11/27/2024	02:53	-131.780	45.663	0	3222.90	0	1.5990	0	34.6550	4	27.744	0	3172.318	0	92.0	4	27.5	4	-1E+10	1	-1E+10	1	-1E+10	1	-1E+10	1	-1E+10	1	-1E+10	1
4902642	16	C	11/27/2024	02:53	-131.780	45.663	0	3223.80	0	1.5990	0	34.6560	4	27.744	0	3173.198	0	92.0	4	27.5	4	-1E+10	1	-1E+10	1	-1E+10	1	-1E+10	1	-1E+10	1	-1E+10	1
4902642	16	C	11/27/2024	02:53	-131.780	45.663	0	3224.80	0	1.5990	0	34.6550	4	27.744	0	3174.175	0	92.1	4	27.5	4	-1E+10	1	-1E+10	1	-1E+10	1	-1E+10	1	-1E+10	1	-1E+10	1
4902642	16	C	11/27/2024	02:53	-131.780	45.663	0	3225.70	0	1.5990	0	34.6560	4	27.744	0	3175.054	0	92.1	4	27.5	4	-1E+10	1	-1E+10	1	-1E+10	1	-1E+10	1	-1E+10	1	-1E+10	1
4902642	16	C	11/27/2024	02:53	-131.780	45.663	0	3226.60	0	1.5990	0	34.6550	4	27.744	0	3175.934	0	92.1	4	27.5	4	-1E+10	1	-1E+10	1	-1E+10	1	-1E+10	1	-1E+10	1	-1E+10	1
4902642	16	C	11/27/2024	02:53	-131.780	45.663	0	3227.60	0	1.5980	0	34.6560	4	27.744	0	3176.911	0	92.2	4	27.5	4	-1E+10	1	-1E+10	1	-1E+10	1	-1E+10	1	-1E+10	1	-1E+10	1
4902642	16	C	11/27/2024	02:53	-131.780	45.663	0	3228.50	0	1.5990	0	34.6560	4	27.744	0	3177.790	0	92.2	4	27.5	4	-1E+10	1	-1E+10	1	-1E+10	1	-1E+10	1	-1E+10	1	-1E+10	1
4902642	16	C	11/27/2024	02:53	-131.780	45.663	0	3229.40	0	1.5990	0	34.6560	4	27.744	0	3178.669	0	92.3	4	27.6	4	-1E+10	1	-1E+10	1	-1E+10	1	-1E+10	1	-1E+10	1	-1E+10	1
4902642	16	C	11/27/2024	02:53	-131.780	45.663	0	3230.30	0	1.5990	0	34.6560	4	27.744	0	3179.548	0	92.3	4	27.6	4	-1E+10	1	-1E+10	1	-1E+10	1	-1E+10	1	-1E+10	1	-1E+10	1
4902642	16	C	11/27/2024	02:53	-131.780	45.663	0	3231.20	0	1.5980	0	34.6560	4	27.744	0	3180.428	0	92.3	4	27.6	4	-1E+10	1	-1E+10	1	-1E+10	1	-1E+10	1	-1E+10	1	-1E+10	1
4902642	16	C	11/27/2024	02:53	-131.780	45.663	0	3232.60	0	1.5980	0	34.6560	4	27.744	0	3181.796	0	92.4	4	27.6	4	-1E+10	1	-1E+10	1	-1E+10	1	-1E+10	1	-1E+10	1	-1E+10	1
4902642	16	C	11/27/2024	02:53	-131.780	45.663	0	3233.40	0	1.5970	0	34.6560	4	27.745	0	3182.577	0	92.4	4	27.6	4	-1E+10	1	-1E+10	1	-1E+10	1	-1E+10	1	-1E+10	1	-1E+10	1
4902642	16	C	11/27/2024	02:53	-131.780	45.663	0	3234.50	0	1.5970	0	34.6560	4	27.745	0	3183.652	0	92.5	4	27.6	4	-1E+10	1	-1E+10	1	-1E+10	1	-1E+10	1	-1E+10	1	-1E+10	1
4902642	16	C	11/27/2024	02:53	-131.780	45.663	0	3235.60	0	1.5960	0	34.6560	4	27.745	0	3184.726	0	92.5	4	27.6	4	-1E+10	1	-1E+10	1	-1E+10	1	-1E+10	1	-1E+10	1	-1E+10	1
4902642	16	C	11/27/2024	02:53	-131.780	45.663	0	3236.30	0	1.5970	0	34.6560	4	27.745	0	3185.410	0	92.6	4	27.7	4	-1E+10	1	-1E+10	1	-1E+10	1	-1E+10	1	-1E+10	1	-1E+10	1
4902642	16	C	11/27/2024	02:53	-131.780	45.663	0	3237.40	0	1.5960	0	34.6560	4	27.745	0	3186.485	0	92.6	4	27.7	4	-1E+10	1	-1E+10	1	-1E+10	1	-1E+10	1	-1E+10	1	-1E+10	1
4902642	16	C	11/27/2024	02:53	-131.780	45.663	0	3238.60	0	1.5960	0	34.6560	4	27.745	0	3187.657	0	92.7	4	27.7	4	-1E+10	1	-1E+10	1	-1E+10	1	-1E+10	1	-1E+10	1	-1E+10	1
4902642	16	C	11/27/2024	02:53	-131.780	45.663	0	3239.50	0	1.5950	0	34.6560	4	27.745	0	3188.536	0	92.7	4	27.7	4	-1E+10	1	-1E+10	1	-1E+10	1	-1E+10	1	-1E+10	1	-1E+10	1
4902642	16	C	11/27/2024	02:53	-131.780	45.663	0	3240.50	0	1.5930	0	34.6560	4	27.745	0	3189.513	0	92.7	4	27.7	4	-1E+10	1	-1E+10	1	-1E+10	1	-1E+10	1	-1E+10	1	-1E+10	1
4902642	16	C	11/27/2024	02:53	-131.780	45.663	0	3241.50	0	1.5930	0	34.6560	4	27.745	0	3190.490	0	92.8	4	27.7	4	-1E+10	1	-1E+10	1	-1E+10	1	-1E+10	1	-1E+10	1	-1E+10	1
4902642	16	C	11/27/2024	02:53	-131.780	45.663	0	3242.60	0	1.5920	0	34.6570	4	27.746	0	3191.565	0	92.8	4	27.7	4	-1E+10	1	-1E+10	1	-1E+10	1	-1E+10	1	-1E+10	1	-1E+10	1
4902642	16	C	11/27/2024	02:53	-131.780	45.663	0	3243.50	0	1.5920	0	34.6570	4	27.746	0	3192.444	0	92.8	4	27.7	4	-1E+10	1	-1E+10	1	-1E+10	1	-1E+10	1	-1E+10	1	-1E+10	1
4902642	16	C	11/27/2024	02:53	-131.780	45.663	0																										
4902642	18	C	12/17/2024	12:03	-132.027	45.874	0	0.60	0	11.1300	0	32.5200	0	24.822	0	0.595	0	240.7	4	88.2	4	-1E+10	1	-1E+10	1	-1E+10	1	-1E+10	1	-1E+10	1	-1E+10	1
4902642	18	C	12/17/2024	12:03	-132.027	45.874	0	0.70	0	11.1277	0	32.5193	0	24.822	0	0.694	0	240.6	4	88.2	4	-1E+10	1	-1E+10	1	-1E+10	1	-1E+10	1	-1E+10	1	-1E+10	1
4902642	18	C	12/17/2024	12:03	-132.027	45.874	0	0.90	0	11.1274	0	32.5192	0	24.822	0	0.893	0	240.7	4	88.2	4	-1E+10	1	-1E+10	1	-1E+10	1	-1E+10	1	-1E+10	1	-1E+10	1
4902642	18	C	12/17/2024	12:03	-132.027	45.874	0	1.00	0	11.1270	0	32.5160	0	24.820	0	0.992	0	240.3	4	88.1	4	-1E+10	1	-1E+10	1	-1E+10	1	-1E+10	1	-1E+10	1	-1E+10	1
4902642	18	C	12/17/2024	12:03	-132.027	45.874	0	1.60	0	11.1230	0	32.5190	0	24.823	0	1.587	0	240.4	4	88.1	4	-1E+10	1	-1E+10	1	-1E+10	1	-1E+10	1	-1E+10	1	-1E+10	1
4902642	18	C	12/17/2024	12:03	-132.027	45.874	0	2.80	0	11.1240	0	32.5200	0	24.823	0	2.777	0	240.4	4	88.1	4	-1E+10	1	-1E+10	1	-1E+10	1	-1E+10	1	-1E+10	1	-1E+10	1
4902642	18	C	12/17/2024	12:03	-132.027	45.874	0	3.70	0	11.1240	0	32.5200	0	24.823	0	3.670	0	240.4	4	88.1	4	-1E+10	1	-1E+10	1	-1E+10	1	-1E+10	1	-1E+10	1	-1E+10	1
4902642	18	C	12/17/2024	12:03	-132.027	45.874	0	4.70	0	11.1250	0	32.5200	0	24.823	0	4.661	0	240.3	4	88.1	4	-1E+10	1	-1E+10	1	-1E+10	1	-1E+10	1	-1E+10	1	-1E+10	1
4902642	18	C	12/17/2024	12:03	-132.027	45.874	0	5.50	0	11.1260	0	32.5200	0	24.823	0	5.455	0	240.3	4	88.1	4	-1E+10	1	-1E+10	1	-1E+10	1	-1E+10	1	-1E+10	1	-1E+10	1
4902642	18	C	12/17/2024	12:03	-132.027	45.874	0	6.40	0	11.1260	0	32.5210	0	24.824	0	6.347	0	240.3	4	88.1	4	-1E+10	1	-1E+10	1	-1E+10	1	-1E+10	1	-1E+10	1	-1E+10	1
4902642	18	C	12/17/2024	12:03	-132.027	45.874	0	7.60	0	11.1260	0	32.5200	0	24.823	0	7.538	0	240.3	4	88.1	4	-1E+10	1	-1E+10	1	-1E+10	1	-1E+10	1	-1E+10	1	-1E+10	1
4902642	18	C	12/17/2024	12:03	-132.027	45.874	0	9.00	0	11.1250	0	32.5200	0	24.823	0	8.926	0	240.3	4	88.1	4	-1E+10	1	-1E+10	1	-1E+10	1	-1E+10	1	-1E+10	1	-1E+10	1
4902642	18	C	12/17/2024	12:03	-132.027	45.874	0	9.90	0	11.1260	0	32.5200	0	24.823	0	9.819	0	240.3	4	88.0	4	-1E+10	1	-1E+10	1	-1E+10	1	-1E+10	1	-1E+10	1	-1E+10	1
4902642	18	C	12/17/2024	12:03	-132.027	45.874	0	14.80	0	11.1240	0	32.5190	0	24.823	0	14.678	0	240.2	4	88.0	4	-1E+10	1	-1E+10	1	-1E+10	1	-1E+10	1	-1E+10	1	-1E+10	1
4902642	18	C	12/17/2024	12:03	-132.027	45.874	0	24.70	0	11.1380	0	32.5250	0	24.825	0	24.496	0	239.9	4	87.9	4	-1E+10	1	-1E+10	1	-1E+10	1	-1E+10	1	-1E+10	1	-1E+10	1
4902642	18	C	12/17/2024	12:03	-132.027	45.874	0	35.00	0	11.1580	0	32.5340	0	24.829	0	34.710	0	239.7	4	87.9	4	-1E+10	1	-1E+10	1	-1E+10	1	-1E+10	1	-1E+10	1	-1E+10	1
4902642	18	C	12/17/2024	12:03	-132.027	45.874	0	45.20	0	11.1630	0	32.5350	0	24.829	0	44.825	0	239.3	4	87.8	4	-1E+10	1	-1E+10	1	-1E+10	1	-1E+10	1	-1E+10	1	-1E+10	1
4902642	18	C	12/17/2024	12:03	-132.027	45.874	0	54.80	0	11.1660	0	32.5360	0	24.830	0	54.344	0	238.6	4	87.5	4	-1E+10	1	-1E+10	1	-1E+10	1	-1E+10	1	-1E+10	1	-1E+10	1
4902642	18	C	12/17/2024	12:03	-132.027	45.874	0	64.30	0	11.1740	0	32.5390	0	24.831	0	63.763	0	236.5	4	86.8	4	-1E+10	1	-1E+10	1	-1E+10	1	-1E+10	1	-1E+10	1	-1E+10	1
4902642	18	C	12/17/2024	12:03	-132.027	45.874	0	74.90	0	10.7900	0	32.5990	0	24.945	0	74.273	0	231.5	4	84.3	4	-1E+10	1	-1E+10	1	-1E+10	1	-1E+10	1	-1E+10	1	-1E+10	1
4902642	18	C	12/17/2024	12:03	-132.027	45.874	0	84.80	0	9.4030	0	32.7550	0	25.299	0	84.088	0	231.0	4	81.7	4	-1E+10	1	-1E+10	1	-1E+10	1	-1E+10	1	-1E+10	1	-1E+10	1
4902642	18	C	12/17/2024	12:03	-132.027	45.874	0	94.20	0	9.1480	0	32.7880	0	25.365	0	93.406	0	228.3	4	80.3	4	-1E+10	1	-1E+10	1	-1E+10	1	-1E+10	1	-1E+10	1	-1E+10	1
4902642	18	C	12/17/2024	12:03	-132.027	45.874	0	104.80	0	8.9230	0	32.8820	0	25.474	0	103.915	0	220.6	4	77.3	4	-1E+10	1	-1E+10	1	-1E+10	1	-1E+10	1	-1E+10	1	-1E+10	1
4902642	18	C	12/17/2024	12:03	-132.027	45.874	0	115.00	0	8.7650	0	33.0090	0	25.598	0	114.026	0	210.1	4	73.4	4	-1E+10	1	-1E+10	1	-1E+10	1	-1E+10	1	-1E+10	1	-1E+10	1
4902642	18	C	12/17/2024	12:03	-132.027	45.874	0	124.70	0	8.4700	0	33.2750	0	25.851	0	123.640	0	201.0	4	69.9	4	-1E+10	1	-1E+10	1	-1E+10	1	-1E+10	1	-1E+10	1	-1E+10	1
4902642	18	C	12/17/2024	12:03	-132.027	45.874	0	134.80	0	7.8960	0	33.4520	0	26.076	0	133.651	0	196.2	4	67.5	4	-1E+10	1	-1E+10	1	-1E+10	1	-1E+10	1	-1E+10	1	-1E+10	1
4902642	18	C	12/17/2024	12:03	-132.027	45.874	0	144.80	0	7.4800	0	33.5460	0	26.209	0	143.563	0	194.1	4	66.2	4	-1E+10	1	-1E+10	1	-1E+10	1	-1E+10	1	-1E+10	1	-1E+10	1
4902642	18	C	12/17/2024	12:03	-132.027	45.874	0	154.60	0	7.2560	0	33.6020	0	26.285	0	153.275	0	188.9	4	64.1	4	-1E+10	1	-1E+10	1	-1E+10	1	-1E+10	1	-1E+10	1	-1E+10	1
4902642	18	C	12/17/2024	12:03	-132.027	45.874	0	164.60	0	7.0530	0	33.6470	0	26.348	0	163.186	0	180.7	4	61.0	4	-1E+10	1	-1E+10	1	-1E+10	1	-1E+10	1	-1E+10	1	-1E+10	1
4902642	18	C	12/17/2024	12:03	-132.027	45.874	0	174.70	0	6.8350	0	33.6810	0	26.404	0	173.195	0	169.7	4	57.1	4	-1E+10	1	-1E+10	1	-1E+10	1	-1E+10	1	-1E+10	1	-1E+10	1
4902642	18	C	12/17/2024	12:03	-132.027	45.874	0	184.80	0	6.7560	0	33.7140	0	26.441	0	183.203	0	164.7	4	55.3	4	-1E+10	1	-1E+10	1	-1E+10	1	-1E+10	1	-1E+10	1	-1E+10	1
4902642	18	C	12/17/2024	12:03	-132.027	45.874	0	195.10	0	6.6700	0	33.7530	0	26.483	0	193.409	0	152.5	4	51.1	4	-1E+10	1	-1E+10	1	-1E+10	1	-1E+10	1	-1E+10	1	-1E+10	1
4902642	18	C	12/17/2024	12:03	-132.027	45.874	0	209.80	0	6.5630	0	33.7750	0	26.515	0	207.975	0	142.2	4	47.6	4	-1E+10	1	-1E+10	1	-1E+10	1	-1E+10	1	-1E+10	1	-1E+10	1
4902642	18	C	12/17/2024	12:03	-132.027	45.874	0	230.40	0	6.3230	0	33.8040	0	26.569	0	228.384	0	119.6	4	39.8	4	-1E+10	1	-1E+10	1	-1E+10	1	-1E+10	1	-1E+10	1	-1E+10	1
4902642	18	C	12/17/2024	12:03	-132.027	45.874	0	249.90	0	6.1590	0	33.8270	0	26.609	0	247.702	0	104.4	4	34.6	4	-1E+10	1	-1E+10	1	-1E+10	1	-1E+10	1	-1E+10	1	-1E+10	1
4902642	18	C	12/17/2024	12:03	-132.027	45.874	0	269.60	0	6.2270	0	33.8890	0	26.649	0	267.216	0	85.0	4	28.2	4	-1E+10	1	-1E+10	1	-1E+10	1	-1E+10	1	-1E+10	1	-1E+10	1
4902642	18	C	12/17/2024	12:03	-132.027	45.874	0	289.40	0	5.8520	0	33.8710	0	26.682	0	286.827	0	93.8	4	30.9	4	-1E+10	1	-1E+10	1	-1E+10	1	-1E+10	1	-1E+10	1	-1E+10	1
4902642	18	C	12/17/2024	12:03	-132.027	45.874	0	309.50	0	5.5150	0	33.8510	0	26.707	0	306.733	0	91.3	4	29.8	4	-1E+10	1	-1E+10	1	-1E+10	1	-1E+10	1	-1E+10	1	-1E+10	1
4902642	18	C	12/17/2024	12:03	-132.027	45.874	0	329.60	0	5.3300	0	33.8590	0	26.736	0	326.638	0	86.3	4	28.1	4	-1E+10	1	-1E+10	1	-1E+10	1	-1E+10	1	-1E+10	1	-1E+10	1
4902642	18	C	12/17/2024	12:03	-132.027	45.874	0	350.40	0	5.1760	0	33.8690	0	26.762	0	347.233	0	79.3	4	25.7	4	-1E+10	1	-1E+10	1	-1E+10	1	-1E+10	1	-1E+10	1	-1E+10	1
4902642	18	C	12/17/2024	12:03	-132.027	45.874	0	369.90	0	5.0770	0	33.8890	0	26.789	0	366.540	0	73.2	4	23.7	4	-1E+10	1	-1E+10	1	-1E+10	1	-1E+10	1	-1E+10	1	-1E+10	1
4902642	18	C	12/17/2024	12:03	-132.027	45.874	0	389.60	0	4.9250	0	33.9060	0	26.820	0	386.043	0	67.1	4	21.6	4	-1E+10	1	-1E+10	1	-1E+10	1	-1E+10	1	-1E+10	1	-1E+10	1
4902642	18	C	12/17/2024	12:03	-132.027	45.874	0	409.70	0	4.7770	0	33.9250	0	26.852	0	405.939	0	62.3	4	20.0	4	-1E+10	1	-1E+10	1	-1E+10	1	-1E+10	1	-1E+10	1	-1E+10	1
4902642	18	C	12/17/2024	12:03	-132.027	45.874	0	430.00	0	4.6560	0	33.9380	0	26.875	0	426.032	0	55.9	4	17.9	4	-1E+10	1	-1E+10	1	-1E+10	1	-1E+10	1	-1E+10	1	-1E+10	1
4902642	18	C	12/17/2024	12:03	-132.027	45.874	0	450.10	0	4.5460	0	33.9560	0	26.902	0	445.925	0	48.4	4	15.5	4	-1E+10	1	-1E+10	1	-1E+10	1	-1E+10	1	-1E+10	1	-1E+10	1
4902642	18	C	12/17/2024	12:03	-132.027	45.874	0	469.70	0	4.4920	0	33.9920	0	26.936	0	465.321	0	40.9	4	13.0	4	-1E+10	1	-1E+10	1	-1E+10	1	-1E+10	1	-1E+10	1	-1E+10	1
4902642	18	C	12/17/2024	12:03	-132.027	45.874	0	489.60	0	4.4410	0	34.0180	0	26.963	0	485.013	0	36.5	4	11.6	4	-1E+10	1	-1E+10	1	-1E+10	1	-1E+10	1	-1E+10	1	-1E+10	1
4902642	18	C	12/17/2024	12:03	-132.027	45.874	0	509.70	0	4.3900	0	34.0360	0	26.983	0	504.900	0	32.7	4	10.4	4	-1E+10	1	-1E+10	1	-1E+10	1	-1E+10	1	-1E+10	1	-1E+10	1
4902642	18	C	12/17/2024	12:03	-132.027	45.874	0	529.80	0	4.3310	0	34.0550	0	27.004	0	524.785	0	29.3	4	9.3	4	-1E+10	1	-1E+10	1	-1E+10	1	-1E+10	1	-1E+10	1	-1E+10	1
4902642	18	C	12/17/2024	12:03	-132.027	45.874	0	550.30	0	4.2840	0	34.0730	0	27.024	0	545.064	0	26.6	4	8.4	4	-1E+10	1	-1E+10	1	-1E+10	1	-1E+10	1	-1E+10	1	-1E+10	1
4902642	18	C	12/17/2024	12:03	-132.027	45.874	0	569.90	0	4.2290	0	34.0890	0	27.042	0	564.451	0	24.6	4	7.8	4	-1E+10	1	-1E+10	1	-1E+10	1	-1E+10	1	-1E+10	1	-1E+10	1
4902642	18	C	12/17/2024	12:03	-132.027	45.874	0	589.80	0	4.1690	0	34.0990	0	27.057	0	584.133	0	22.7	4	7.2	4	-1E+10	1	-1E+10	1	-1E+10	1	-1E+10	1	-1E+10	1	-1E+10	1
4902642	18	C	12/17/2024	12:03	-132.027	45.874	0	609.50	0	4.1220	0	34.1150	0	27.074	0	603.615	0	19.8	4	6.3	4	-1E+10	1	-1E+10	1	-1E+10	1	-1E+10	1	-1E+10	1	-1E+10	1
4902642	18	C	12/17/2024	12:03	-132.027	45.874	0	629.50	0	4.0640	0	34.1380	0	27.099	0	623.392	0	16.8	4	5.3	4	-1E+10	1	-1E+10	1	-1E+10	1	-1E+10	1	-1E+10	1	-1E+10	1
4902642	18	C	12/17/2024	12:03	-132.027	45.874	0	649.60	0	4.0080	0	34.1540	0	27.117	0	643.266	0	14.9	4	4.7	4	-1E+10	1	-1E+10	1	-1E+10	1	-1E+10	1	-1E+10	1	-1E+10	1
4902642	18	C	12/17/2024	12:03	-132.027	45.874	0	670.10	0	3.9460	0	34.1730	0	27.139	0	663.534	0	12.7	4	4.0	4	-1E+10	1	-1E+10	1	-1E+10	1	-1E+10	1	-1E+10	1	-1E+10	1
4902642	18	C	12/17/2024	12:03	-132.027	45.874	0	689.70	0	3.8980	0	34.1890	0	27.157	0	682.910	0	11.4	4	3.6	4	-1E+10	1	-1E+10	1	-1E+10	1	-1E+10	1	-1E+10	1	-1E+10	1
4902642	18	C	12/17/2024	12:03	-132.027	45.874	0	709.60	0	3.8730	0	34.2030	0	27.170	0	702.580	0	10.3	4	3.3	4	-1E+10	1	-1E+10	1	-1E+10	1	-1E+10	1	-1E+10	1	-1E+10	1
4902642	18	C	12/17/2024	12:03	-132.027	45.874	0	729.40	0	3.8360	0	34.2150	0	27.184	0	722.150	0	9.5	4	3.0	4	-1E+10	1	-1E+10	1	-1E+10	1	-1E+10	1	-1E+10	1	-1E+10	1
4902642	18	C	12/17/2024	12:03	-132.027	45.874	0	749.70	0	3.8430	0	34.2340	0	27.198	0	742.212	0	8.2	4	2.6	4	-1E+10	1	-1E+10	1	-1E+10	1	-1E+10	1	-1E+10	1	-1E+10	1
4902642	18	C	12/17/2024	12:03	-132.027	45.874	0	769.90	0	3.8230	0	34.2520	0	27.215	0	762.173	0	7.2	4	2.3	4	-1E+10	1	-1E+10	1	-1E+10	1	-1E+10	1	-1E+10	1	-1E+10	1
4902642	18	C	12/17/2024	12:03	-132.027	45.874	0	789.60	0	3.8010	0	34.2770	0	27.237	0	781.639	0	6.3	4	2.0	4	-1E+10	1	-1E+10	1	-1E+10	1	-1E+10	1	-1E+10	1	-1E+10	1
4902642	18	C	12/17/2024	12:03	-132.027	45.874	0	809.80	0	3.7570	0	34.2880	0	27.250	0	801.596	0	5.9	4	1.9	4	-1E+10	1	-1E+10	1	-1E+10	1	-1E+10	1	-1E+10	1	-1E+10	1
4902642	18	C	12/17/2024	12:03	-132.027	45.874	0	830.00	0	3.7380	0	34.3080	0	27.268	0	821.552	0	5.5	4	1.7	4	-1E+10	1	-1E+10	1	-1E+10	1	-1E+10	1	-1E+10	1	-1E+10	1
4902642	18	C	12/17/2024	12:03	-132.027	45.874	0	849.90	0	3.6690	0	34.3200	0	27.285	0	841.210	0	5.4	4	1.7	4	-1E+10	1	-1E+10	1	-1E+10	1	-1E+10	1	-1E+10	1	-1E+10	1
4902642	18	C	12/17/2024	12:03	-132.027	45.874	0	869.10	0	3.6200	0	34.3320	0	27.299	0	860.174	0	5.4	4	1.7	4	-1E+10	1	-1E+10	1	-1E+10	1	-1E+10	1	-1E+10	1	-1E+10	1
4902642	18	C	12/17/2024	12:03	-132.027	45.874	0	889.60	0	3.6000	0	34.3510	0	27.317	0	880.420	0	5.4	4	1.7	4	-1E+10	1	-1E+10	1	-1E+10	1	-1E+10	1	-1E+10	1	-1E+10	1
4902642	18	C	12/17/2024	12:03	-132.027	45.874	0	909.30	0	3.5390	0	34.3590	0	27.329	0	899.874	0	5.5	4	1.7	4	-1E+10	1	-1E+10	1	-1E+10	1	-1E+10	1	-1E+10	1	-1E+10	1
4902642	18	C	12/17/2024	12:03	-132.027	45.874	0	929.30	0	3.4750	0	34.3650	0	27.340	0	919.623	0	5.8	4	1.8	4	-1E+10	1	-1E+10	1	-1E+10	1	-1E+10	1	-1E+10	1	-1E+10	1
4902642	18	C	12/17/2024	12:03	-132.027	45.874	0	949.30	0	3.5200	0	34.3810	0	27.349	0	939.370	0	6.2	4	1.9	4	-1E+10	1	-1E+10	1	-1E+10	1	-1E+10	1	-1E+10	1	-1E+10	1
4902642	18	C	12/17/2024	12:03	-132.027	45.874	0	970.20	0	3.4910	0	34.3960	0	27.363	0	960.004	0	6.7	4	2.1	4	-1E+10	1	-1E+10	1	-1E+10	1	-1E+10	1	-1E+10	1	-1E+10	1
4902642	18	C	12/17/2024	12:03	-132.027	45.874	0	989.40	0	3.4610	0	34.4050	0	27.374	0	978.957	0	7.1	4	2.2	4	-1E+10	1	-1E+10	1	-1E+10	1	-1E+10	1	-1E+10	1	-1E+10	1
4902642	18	C	12/17/2024	12:03	-132.027	45.874	0	1009.50	0	3.4180	0	34.4120	0	27.383	0	998.797	0	7.3	4	2.3	4	-1E+10	1	-1E+10	1	-1E+10	1	-1E+10	1	-1E+10	1	-1E+10	1
4902642	18	C	12/17/2024	12:03	-132.027	45.874	0	1029.80	0	3.3890	0	34.4130	0	27.387	0	1018.832	0	7.5	4	2.3	4	-1E+10	1	-1E+10	1	-1E+10	1	-1E+10	1	-1E+10	1	-1E+10	1
4902642	18	C	12/17/2024	12:03	-132.027	45.874	0	1049.70	0	3.3420	0	34.4190	0	27.397	0	1038.471	0	7.9	4	2.5	4	-1E+10	1	-1E+10	1	-1E+10	1	-1E+10	1	-1E+10	1	-1E+10	1
4902642	18	C	12/17/2024	12:03	-132.027	45.874	0	1069.90	0	3.2980	0	34.4270	0	27.407	0	1058.404	0	8.5	4	2.6	4	-1E+10	1	-1E+10	1	-1E+10	1	-1E+10	1	-1E+10	1	-1E+10	1
4902642	18	C	12/17/2024	12:03	-132.027	45.874	0	1089.40	0	3.2700	0	34.4310	0	27.413	0	1077.645	0	8.8	4	2.7	4	-1E+10	1	-1E+10	1	-1E+10	1	-1E+10	1	-1E+10	1	-1E+10	1
4902642	18	C	12/17/2024	12:03	-132.027	45.874	0	1109.40	0	3.2390	0	34.4350	0	27.419	0	1097.377	0	9.2	4	2.9	4	-1E+10	1	-1E+10	1	-1E+10	1	-1E+10	1	-1E+10	1	-1E+10	1
4902642	18	C	12/17/2024	12:03	-132.027	45.874	0	1129.40	0	3.2010	0	34.4400	0	27.427	0	1117.107	0	9.6	4	3.0	4	-1E+10	1	-1E+10	1	-1E+10	1	-1E+10	1	-1E+10	1	-1E+10	1
4902642	18	C	12/17/2024	12:03	-132.027	45.874	0	1149.50	0	3.1610	0	34.4440	0	27.434	0	1136.933	0	10.0	4	3.1	4	-1E+10	1	-1E+10	1	-1E+10	1	-1E+10	1	-1E+10	1	-1E+10	1
4902642	18	C	12/17/2024	12:03	-132.027	45.874	0	1170.50	0	3.1180	0	34.4480	0	27.441	0	1157.646	0	10.4	4	3.2	4	-1E+10	1	-1E+10	1	-1E+10	1	-1E+10	1	-1E+10	1	-1E+10	1
4902642	18	C	12/17/2024	12:03	-132.027	45.874	0	1190.80	0	3.0710	0	34.4530	0	27.450	0	1177.666	0	10.9	4	3.4	4	-1E+10	1	-1E+10	1	-1E+10	1	-1E+10	1	-1E+10	1	-1E+10	1
4902642	18	C	12/17/2024	12:03	-132.027	45.874	0	1209.80	0	3.0260	0	34.4570	0	27.457	0	1196.403	0	11.4	4	3.5	4	-1E+10	1	-1E+10	1	-1E+10	1	-1E+10	1	-1E+10	1	-1E+10	1
4902642	18	C	12/17/2024	12:03	-132.027	45.874	0	1230.10	0	2.9930	0	34.4600	0	27.462	0	1216.419	0	11.7	4	3.6	4	-1E+10	1	-1E+10	1	-1E+10	1	-1E+10	1	-1E+10	1	-1E+10	1
4902642	18	C	12/17/2024	12:03	-132.027	45.874	0	1250.00	0	2.9530	0	34.4640	0	27.469	0	1236.040	0	12.3	4	3.8	4	-1E+10	1	-1E+10	1	-1E+10	1	-1E+10	1	-1E+10	1	-1E+10	1
4902642	18	C	12/17/2024	12:03	-132.027	45.874	0	1269.80	0	2.9220	0	34.4670	0	27.475	0	1255.559	0	12.7	4	3.9	4	-1E+10	1	-1E+10	1	-1E+10	1	-1E+10	1	-1E+10	1	-1E+10	1
4902642	18	C	12/17/2024	12:03	-132.027	45.874	0	1290.00	0	2.8900	0	34.4710	0	27.481	0	1275.472	0	13.3	4	4.1	4	-1E+10	1	-1E+10	1	-1E+10	1	-1E+10	1	-1E+10	1	-1E+10	1
4902642	18	C	12/17/2024	12:03	-132.027	45.874	0	1310.50	0	2.8340	0	34.4770	0	27.491	0	1295.678	0	14.3	4	4.4	4	-1E+10	1	-1E+10	1	-1E+10	1	-1E+10	1	-1E+10	1	-1E+10	1
4902642	18	C	12/17/2024	12:03	-132.027	45.874	0	1329.80	0	2.7890	0	34.4830	0	27.499	0	1314.699	0	15.3	4	4.7	4	-1E+10	1	-1E+10	1	-1E+10	1	-1E+10	1	-1E+10	1	-1E+10	1
4902642	18	C	12/17/2024	12:03	-132.027	45.874	0	1350.10	0	2.7530	0	34.4880	0	27.507	0	1334.705	0	16.1	4	4.9	4	-1E+10	1	-1E+10	1	-1E+10	1	-1E+10	1	-1E+10	1	-1E+10	1
4902642	18	C	12/17/2024	12:03	-132.027	45.874	0	1370.10	0	2.7330	0	34.4920	0	27.512	0	1354.412	0	16.9	4	5.2	4	-1E+10	1	-1E+10	1	-1E+10	1	-1E+10	1	-1E+10	1	-1E+10	1
4902642	18	C	12/17/2024	12:03	-132.027	45.874	0	1390.10	0	2.7050	0	34.4960	0	27.518	0	1374.118	0	17.7	4	5.4	4	-1E+10	1	-1E+10	1	-1E+10	1	-1E+10	1	-1E+10	1	-1E+10	1
4902642	18	C	12/17/2024	12:03	-132.027	45.874	0	1409.90	0	2.6720	0	34.4990	0	27.523	0	1393.625	0	18.5	4	5.7	4	-1E+10	1	-1E+10	1	-1E+10	1	-1E+10	1	-1E+10	1	-1E+10	1
4902642	18	C	12/17/2024	12:03	-132.027	45.874	0	1430.50	0	2.6310	0	34.5050	0	27.531	0	1413.918	0	19.8	4	6.0	4	-1E+10	1	-1E+10	1	-1E+10	1	-1E+10	1	-1E+10	1	-1E+10	1
4902642	18	C	12/17/2024	12:03	-132.027	45.874	0	1450.00	0	2.6060	0	34.5090	0	27.537	0	1433.126	0	20.6	4	6.3	4	-1E+10	1	-1E+10	1	-1E+10	1	-1E+10	1	-1E+10	1	-1E+10	1
4902642	18	C	12/17/2024	12:03	-132.027	45.874	0	1469.80	0	2.5750	0	34.5120	0	27.542	0	1452.628	0	21.7	4	6.6	4	-1E+10	1	-1E+10	1	-1E+10	1	-1E+10	1	-1E+10	1	-1E+10	1
4902642	18	C	12/17/2024	12:03	-132.027	45.874	0	1489.90	0	2.5370	0	34.5170	0	27.549	0	1472.423	0	22.8	4	7.0	4	-1E+10	1	-1E+10	1	-1E+10	1	-1E+10	1	-1E+10	1	-1E+10	1
4902642	18	C	12/17/2024	12:03	-132.027	45.874	0	1510.00	0	2.5060	0	34.5200	0	27.554	0	1492.216	0	23.9	4	7.3	4	-1E+10	1	-1E+10	1	-1E+10	1	-1E+10	1	-1E+10	1	-1E+10	1
4902642	18	C	12/17/2024	12:03	-132.027	45.874	0	1530.00	0	2.4690	0	34.5260	0	27.562	0	1511.909	0	25.4	4	7.8	4	-1E+10	1	-1E+10	1	-1E+10	1	-1E+10	1	-1E+10	1	-1E+10	1
4902642	18	C	12/17/2024	12:03	-132.027	45.874	0	1550.80	0	2.4390	0	34.5300	0	27.568	0	1532.388	0	26.6	4	8.1	4	-1E+10	1	-1E+10	1	-1E+10	1	-1E+10	1	-1E+10	1	-1E+10	1
4902642	18	C	12/17/2024	12:03	-132.027	45.874	0	1570.20	0	2.4160	0	34.5340	0	27.573	0	1551.486	0	27.6	4	8.4	4	-1E+10	1	-1E+10	1	-1E+10	1	-1E+10	1	-1E+10	1	-1E+10	1
4902642	18	C	12/17/2024	12:03	-132.027	45.874	0	1590.10	0	2.3940	0	34.5360	0	27.577	0	1571.075	0	28.5	4	8.7	4	-1E+10	1	-1E+10	1	-1E+10	1	-1E+10	1	-1E+10	1	-1E+10	1
4902642	18	C	12/17/2024	12:03	-132.027	45.874	0	1609.90	0	2.3630	0	34.5390	0	27.582	0	1590.564	0	29.4	4	9.0	4	-1E+10	1	-1E+10	1	-1E+10	1	-1E+10	1	-1E+10	1	-1E+10	1
4902642	18	C	12/17/2024	12:03	-132.027	45.874	0	1629.90	0	2.3460	0	34.5410	0	27.585	0	1610.248	0	30.3	4	9.2	4	-1E+10	1	-1E+10	1	-1E+10	1	-1E+10	1	-1E+10	1	-1E+10	1
4902642	18	C	12/17/2024	12:03	-132.027	45.874	0	1649.70	0	2.3060	0	34.5440	0	27.591	0	1629.733	0	31.3	4	9.5	4	-1E+10	1	-1E+10	1	-1E+10	1	-1E+10	1	-1E+10	1	-1E+10	1
4902642	18	C	12/17/2024	12:03	-132.027	45.874	0	1669.90	0	2.2600	0	34.5470	0	27.597	0	1649.610	0	32.5	4	9.9	4	-1E+10	1	-1E+10	1	-1E+10	1	-1E+10	1	-1E+10	1	-1E+10	1
4902642	18	C	12/17/2024	12:03	-132.027	45.874	0	1689.90	0	2.2300	0	34.5500	0	27.602	0	1669.288	0	33.6	4	10.2	4	-1E+10	1	-1E+10	1	-1E+10	1	-1E+10	1	-1E+10	1	-1E+10	1
4902642	18	C	12/17/2024	12:03	-132.027	45.874	0	1710.30	0	2.1990	0	34.5540	0	27.608	0	1689.358	0	35.0	4	10.6	4	-1E+10	1	-1E+10	1	-1E+10	1	-1E+10	1	-1E+10	1	-1E+10	1
4902642	18	C	12/17/2024	12:03	-132.027	45.874	0	1729.90	0	2.1620	0	34.5580	0	27.614	0	1708.640	0	36.6	4	11.1	4	-1E+10	1	-1E+10	1	-1E+10	1	-1E+10	1	-1E+10	1	-1E+10	1
4902642	18	C	12/17/2024	12:03	-132.027	45.874	0	1750.00	0	2.1410	0	34.5620	0	27.619	0	1728.411	0	37.6	4	11.4	4	-1E+10	1	-1E+10	1	-1E+10	1	-1E+10	1	-1E+10	1	-1E+10	1
4902642	18	C	12/17/2024	12:03	-132.027	45.874	0	1770.30	0	2.1250	0	34.5640	0	27.622	0	1748.377	0	38.7	4	11.7	4	-1E+10	1	-1E+10	1	-1E+10	1	-1E+10	1	-1E+10	1	-1E+10	1
4902642	18	C	12/17/2024	12:03	-132.027	45.874	0	1790.30	0	2.1090	0	34.5670	0	27.626	0	1768.046	0	39.9	4	12.1	4	-1E+10	1	-1E+10	1	-1E+10	1	-1E+10	1	-1E+10	1	-1E+10	1
4902642	18	C	12/17/2024	12:03	-132.027	45.874	0	1810.20	0	2.0920	0	34.5700	0	27.630	0	1787.615	0	41.3	4	12.5	4	-1E+10	1	-1E+10	1	-1E+10	1	-1E+10	1	-1E+10	1	-1E+10	1
4902642	18	C	12/17/2024	12:03	-132.027	45.874	0	1830.00	0	2.0730	0	34.5730	0	27.634	0	1807.084	0	42.4	4	12.8	4	-1E+10	1	-1E+10	1	-1E+10	1	-1E+10	1	-1E+10	1	-1E+10	1
4902642	18	C	12/17/2024	12:03	-132.027	45.874	0	1850.10	0	2.0560	0	34.5750	0	27.637	0	1826.846	0	43.2	4	13.1	4	-1E+10	1	-1E+10	1	-1E+10	1	-1E+10	1	-1E+10	1	-1E+10	1
4902642	18	C	12/17/2024	12:03	-132.027	45.874	0	1869.90	0	2.0460	0	34.5770	0	27.639	0	1846.311	0	44.0	4	13.3	4	-1E+10	1	-1E+10	1	-1E+10	1	-1E+10	1	-1E+10	1	-1E+10	1
4902642	18	C	12/17/2024	12:03	-132.027	45.874	0	1890.40	0	2.0360	0	34.5790	0	27.642	0	1866.462	0	44.7	4	13.5	4	-1E+10	1	-1E+10	1	-1E+10	1	-1E+10	1	-1E+10	1	-1E+10	1
4902642	18	C	12/17/2024	12:03	-132.027	45.874	0	1910.10	0	2.0270	0	34.5800	0	27.643	0	1885.826	0	45.3	4	13.7	4	-1E+10	1	-1E+10	1	-1E+10	1	-1E+10	1	-1E+10	1	-1E+10	1
4902642	18	C	12/17/2024	12:03	-132.027	45.874	0	1929.90	0	2.0140	0	34.5820	0	27.646	0	1905.285	0	46.3	4	14.0	4	-1E+10	1	-1E+10	1	-1E+10	1	-1E+10	1	-1E+10	1	-1E+10	1
4902642	18	C	12/17/2024	12:03	-132.027	45.874	0	1949.90	0	1.9990	0	34.5850	0	27.650	0	1924.940	0	47.3	4	14.3	4	-1E+10	1	-1E+10	1	-1E+10	1	-1E+10	1	-1E+10	1	-1E+10	1
4902642	18	C	12/17/2024	12:03	-132.027	45.874	0	1969.80	0	1.9830	0	34.5880	0	27.653	0	1944.494	0	48.5	4	14.6	4	-1E+10	1	-1E+10	1	-1E+10	1	-1E+10	1	-1E+10	1	-1E+10	1
4902642	18	C	12/17/2024	12:03	-132.027	45.874	0	1990.00	0	1.9680	0	34.5900	0	27.656	0	1964.342	0	49.6	4	15.0	4	-1E+10	1	-1E+10	1	-1E+10	1	-1E+10	1	-1E+10	1	-1E+10	1
4902642	18	C	12/17/2024	12:03	-132.027	45.874	0	2010.00	0	1.9550	0	34.5920	4	27.659	0	1983.991	0	50.6	4	15.2	4	-1E+10	1	-1E+10	1	-1E+10	1	-1E+10	1	-1E+10	1	-1E+10	1
4902642	18	C	12/17/2024	12:03	-132.027	45.874	0	2030.10	0	1.9440	0	34.5940	4	27.662	0	2003.736	0	51.4	4	15.5	4	-1E+10	1	-1E+10	1	-1E+10	1	-1E+10	1	-1E+10	1	-1E+10	1
4902642	18	C	12/17/2024	12:03	-132.027	45.874	0	2049.70	0	1.9310	0	34.5970	4	27.665	0	2022.989	0	52.3	4	15.8	4	-1E+10	1	-1E+10	1	-1E+10	1	-1E+10	1	-1E+10	1	-1E+10	1
4902642	18	C	12/17/2024	12:03	-132.027	45.874	0	2069.70	0	1.9200	0	34.5980	4	27.667	0	2042.633	0	53.0	4	16.0	4	-1E+10	1	-1E+10	1	-1E+10	1	-1E+10	1	-1E+10	1	-1E+10	1
4902642	18	C	12/17/2024	12:03	-132.027	45.874	0	2089.90	0	1.9080	0	34.6000	4	27.669	0	2062.471	0	53.8	4	16.2	4	-1E+10	1	-1E+10	1	-1E+10	1	-1E+10	1	-1E+10	1	-1E+10	1
4902642	18	C	12/17/2024	12:03	-132.027	45.874	0	2110.30	0	1.9010	0	34.6020	4	27.672	0	2082.504	0	54.5	4	16.4	4	-1E+10	1	-1E+10	1	-1E+10	1	-1E+10	1	-1E+10	1	-1E+10	1
4902642	18	C	12/17/2024	12:03	-132.027	45.874	0	2129.90	0	1.8910	0	34.6030	4	27.673	0	2101.749	0	55.3	4	16.6	4	-1E+10	1	-1E+10	1	-1E+10	1	-1E+10	1	-1E+10	1	-1E+10	1
4902642	18	C	12/17/2024	12:03	-132.027	45.874	0	2150.00	0	1.8810	0	34.6050	4	27.676	0	2121.484	0	56.1	4	16.9	4	-1E+10	1	-1E+10	1	-1E+10	1	-1E+10	1	-1E+10	1	-1E+10	1
4902642	18	C	12/17/2024	12:03	-132.027	45.874	0	2170.00	0	1.8740	0	34.6070	4	27.678	0	2141.118	0	56.8	4	17.1	4	-1E+10	1	-1E+10	1	-1E+10	1	-1E+10	1	-1E+10	1	-1E+10	1
4902642	18	C	12/17/2024	12:03	-132.027	45.874	0	2190.00	0	1.8680	0	34.6080	4	27.679	0	2160.751	0	57.3	4	17.2	4	-1E+10	1	-1E+10	1	-1E+10	1	-1E+10	1	-1E+10	1	-1E+10	1
4902642	18	C	12/17/2024	12:03	-132.027	45.874	0	2210.40	0	1.8640	0	34.6090	4	27.681	0	2180.775	0	57.8	4	17.4	4	-1E+10	1	-1E+10	1	-1E+10	1	-1E+10	1	-1E+10	1	-1E+10	1
4902642	18	C	12/17/2024	12:03	-132.027	45.874	0	2230.00	0	1.8600	0	34.6100	4	27.682	0	2200.011	0	58.3	4	17.5	4	-1E+10	1	-1E+10	1	-1E+10	1	-1E+10	1	-1E+10	1	-1E+10	1
4902642	18	C	12/17/2024	12:03	-132.027	45.874	0	2250.10	0	1.8540	0	34.6110	4	27.683	0	2219.737	0	58.9	4	17.7	4	-1E+10	1	-1E+10	1	-1E+10	1	-1E+10	1	-1E+10	1	-1E+10	1
4902642	18	C	12/17/2024	12:03	-132.027	45.874	0	2270.40	0	1.8490	0	34.6120	4	27.685	0	2239.657	0	59.5	4	17.9	4	-1E+10	1	-1E+10	1	-1E+10	1	-1E+10	1	-1E+10	1	-1E+10	1
4902642	18	C	12/17/2024	12:03	-132.027	45.874	0	2290.00	0	1.8430	0	34.6130	4	27.686	0	2258.888	0	60.1	4	18.1	4	-1E+10	1	-1E+10	1	-1E+10	1	-1E+10	1	-1E+10	1	-1E+10	1
4902642	18	C	12/17/2024	12:03	-132.027	45.874	0	2309.90	0	1.8350	0	34.6140	4	27.688	0	2278.412	0	60.9	4	18.3	4	-1E+10	1	-1E+10	1	-1E+10	1	-1E+10	1	-1E+10	1	-1E+10	1
4902642	18	C	12/17/2024	12:03	-132.027	45.874	0	2329.80	0	1.8290	0	34.6150	4	27.689	0	2297.934	0	61.5	4	18.5	4	-1E+10	1	-1E+10	1	-1E+10	1	-1E+10	1	-1E+10	1	-1E+10	1
4902642	18	C	12/17/2024	12:03	-132.027	45.874	0	2349.70	0	1.8210	0	34.6160	4	27.690	0	2317.454	0	62.5	4	18.8	4	-1E+10	1	-1E+10	1	-1E+10	1	-1E+10	1	-1E+10	1	-1E+10	1
4902642	18	C	12/17/2024	12:03	-132.027	45.874	0	2369.80	0	1.8110	0	34.6180	4	27.693	0	2337.169	0	63.3	4	19.0	4	-1E+10	1	-1E+10	1	-1E+10	1	-1E+10	1	-1E+10	1	-1E+10	1
4902642	18	C	12/17/2024	12:03	-132.027	45.874	0	2389.50	0	1.8050	0	34.6190	4	27.694	0	2356.490	0	63.9	4	19.2	4	-1E+10	1	-1E+10	1	-1E+10	1	-1E+10	1	-1E+10	1	-1E+10	1
4902642	18	C	12/17/2024	12:03	-132.027	45.874	0	2410.10	0	1.8000	0	34.6200	4	27.696	0	2376.691	0	64.6	4	19.4	4	-1E+10	1	-1E+10	1	-1E+10	1	-1E+10	1	-1E+10	1	-1E+10	1
4902642	18	C	12/17/2024	12:03	-132.027	45.874	0	2429.80	0	1.7950	0	34.6210	4	27.697	0	2396.008	0	65.2	4	19.6	4	-1E+10	1	-1E+10	1	-1E+10	1	-1E+10	1	-1E+10	1	-1E+10	1
4902642	18	C	12/17/2024	12:03	-132.027	45.874	0	2450.10	0	1.7870	0	34.6220	4	27.698	0	2415.912	0	66.0	4	19.8	4	-1E+10	1	-1E+10	1	-1E+10	1	-1E+10	1	-1E+10	1	-1E+10	1
4902642	18	C	12/17/2024	12:03	-132.027	45.874	0	2470.00	0	1.7800	0	34.6230	4	27.700	0	2435.421	0	66.9	4	20.1	4	-1E+10	1	-1E+10	1	-1E+10	1	-1E+10	1	-1E+10	1	-1E+10	1
4902642	18	C	12/17/2024	12:03	-132.027	45.874	0	2489.90	0	1.7750	0	34.6240	4	27.701	0	2454.929	0	67.5	4	20.2	4	-1E+10	1	-1E+10	1	-1E+10	1	-1E+10	1	-1E+10	1	-1E+10	1
4902642	18	C	12/17/2024	12:03	-132.027	45.874	0	2510.30	0	1.7690	0	34.6250	4	27.702	0	2474.925	0	68.2	4	20.5	4	-1E+10	1	-1E+10	1	-1E+10	1	-1E+10	1	-1E+10	1	-1E+10	1
4902642	18	C	12/17/2024	12:03	-132.027	45.874	0	2530.50	0	1.7590	0	34.6260	4	27.704	0	2494.724	0	69.1	4	20.7	4	-1E+10	1	-1E+10	1	-1E+10	1	-1E+10	1	-1E+10	1	-1E+10	1
4902642	18	C	12/17/2024	12:03	-132.027	45.874	0	2549.80	0	1.7510	0	34.6280	4	27.706	0	2513.638	0	70.0	4	21.0	4	-1E+10	1	-1E+10	1	-1E+10	1	-1E+10	1	-1E+10	1	-1E+10	1
4902642	18	C	12/17/2024	12:03	-132.027	45.874	0	2570.00	0	1.7440	0	34.6280	4	27.707	0	2533.433	0	70.8	4	21.2	4	-1E+10	1	-1E+10	1	-1E+10	1	-1E+10	1	-1E+10	1	-1E+10	1
4902642	18	C	12/17/2024	12:03	-132.027	45.874	0	2589.80	0	1.7370	0	34.6300	4	27.709	0	2552.834	0	71.5	4	21.4	4	-1E+10	1	-1E+10	1	-1E+10	1	-1E+10	1	-1E+10	1	-1E+10	1
4902642	18	C	12/17/2024	12:03	-132.027	45.874	0	2609.60	0	1.7330	0	34.6300	4	27.710	0	2572.233	0	71.9	4	21.5	4	-1E+10	1	-1E+10	1	-1E+10	1	-1E+10	1	-1E+10	1	-1E+10	1
4902642	18	C	12/17/2024	12:03	-132.027	45.874	0	2629.50	0	1.7290	0	34.6310	4	27.711	0	2591.728	0	72.5	4	21.7	4	-1E+10	1	-1E+10	1	-1E+10	1	-1E+10	1	-1E+10	1	-1E+10	1
4902642	18	C	12/17/2024	12:03	-132.027	45.874	0	2650.00	0	1.7250	0	34.6320	4	27.712	0	2611.810	0	73.0	4	21.9	4	-1E+10	1	-1E+10	1	-1E+10	1	-1E+10	1	-1E+10	1	-1E+10	1
4902642	18	C	12/17/2024	12:03	-132.027	45.874	0	2670.10	0	1.7200	0	34.6320	4	27.713	0	2631.497	0	73.7	4	22.1	4	-1E+10	1	-1E+10	1	-1E+10	1	-1E+10	1	-1E+10	1	-1E+10	1
4902642	18	C	12/17/2024	12:03	-132.027	45.874	0	2689.90	0	1.7150	0	34.6330	4	27.714	0	2650.889	0	74.3	4	22.3	4	-1E+10	1	-1E+10	1	-1E+10	1	-1E+10	1	-1E+10	1	-1E+10	1
4902642	18	C	12/17/2024	12:03	-132.027	45.874	0	2709.80	0	1.7100	0	34.6340	4	27.715	0	2670.378	0	75.0	4	22.5	4	-1E+10	1	-1E+10	1	-1E+10	1	-1E+10	1	-1E+10	1	-1E+10	1
4902642	18	C	12/17/2024	12:03	-132.027	45.874	0	2729.60	0	1.7030	0	34.6350	4	27.717	0	2689.766	0	75.8	4	22.7	4	-1E+10	1	-1E+10	1	-1E+10	1	-1E+10	1	-1E+10	1	-1E+10	1
4902642	18	C	12/17/2024	12:03	-132.027	45.874	0	2750.30	0	1.7000	0	34.6360	4	27.718	0	2710.034	0	76.4	4	22.9	4	-1E+10	1	-1E+10	1	-1E+10	1	-1E+10	1	-1E+10	1	-1E+10	1
4902642	18	C	12/17/2024	12:03	-132.027	45.874	0	2769.70	0	1.6950	0	34.6360	4	27.718	0	2729.028	0	77.0	4	23.1	4	-1E+10	1	-1E+10	1	-1E+10	1	-1E+10	1	-1E+10	1	-1E+10	1
4902642	18	C	12/17/2024	12:03	-132.027	45.874	0	2789.90	0	1.6890	0	34.6370	4	27.720	0	2748.802	0	77.7	4	23.2	4	-1E+10	1	-1E+10	1	-1E+10	1	-1E+10	1	-1E+10	1	-1E+10	1
4902642	18	C	12/17/2024	12:03	-132.027	45.874	0	2810.10	0	1.6830	0	34.6380	4	27.721	0	2768.576	0	78.3	4	23.4	4	-1E+10	1	-1E+10	1	-1E+10	1	-1E+10	1	-1E+10	1	-1E+10	1
4902642	18	C	12/17/2024	12:03	-132.027	45.874	0	2829.90	0	1.6790	0	34.6390	4	27.722	0	2787.955	0	78.9	4	23.6	4	-1E+10	1	-1E+10	1	-1E+10	1	-1E+10	1	-1E+10	1	-1E+10	1
4902642	18	C	12/17/2024	12:03	-132.027	45.874	0	2850.00	0	1.6770	0	34.6390	4	27.723	0	2807.627	0	79.4	4	23.8	4	-1E+10	1	-1E+10	1	-1E+10	1	-1E+10	1	-1E+10	1	-1E+10	1
4902642	18	C	12/17/2024	12:03	-132.027	45.874	0	2869.90	0	1.6740	0	34.6400	4	27.724	0	2827.101	0	80.0	4	23.9	4	-1E+10	1	-1E+10	1	-1E+10	1	-1E+10	1	-1E+10	1	-1E+10	1
4902642	18	C	12/17/2024	12:03	-132.027	45.874	0	2889.80	0	1.6700	0	34.6410	4	27.725	0	2846.574	0	80.6	4	24.1	4	-1E+10	1	-1E+10	1	-1E+10	1	-1E+10	1	-1E+10	1	-1E+10	1
4902642	18	C	12/17/2024	12:03	-132.027	45.874	0	2909.80	0	1.6660	0	34.6410	4	27.725	0	2866.142	0	81.3	4	24.3	4	-1E+10	1	-1E+10	1	-1E+10	1	-1E+10	1	-1E+10	1	-1E+10	1
4902642	18	C	12/17/2024	12:03	-132.027	45.874	0	2930.20	0	1.6600	0	34.6430	4	27.728	0	2886.100	0	82.1	4	24.6	4	-1E+10	1	-1E+10	1	-1E+10	1	-1E+10	1	-1E+10	1	-1E+10	1
4902642	18	C	12/17/2024	12:03	-132.027	45.874	0	2950.40	0	1.6550	0	34.6440	4	27.729	0	2905.861	0	82.8	4	24.8	4	-1E+10	1	-1E+10	1	-1E+10	1	-1E+10	1	-1E+10	1	-1E+10	1
4902642	18	C	12/17/2024	12:03	-132.027	45.874	0	2969.70	0	1.6510	0	34.6440	4	27.729	0	2924.739	0	83.5	4	25.0	4	-1E+10	1	-1E+10	1	-1E+10	1	-1E+10	1	-1E+10	1	-1E+10	1
4902642	18	C	12/17/2024	12:03	-132.027	45.874	0	2989.80	0	1.6470	0	34.6450	4	27.731	0	2944.398	0	84.0	4	25.1	4	-1E+10	1	-1E+10	1	-1E+10	1	-1E+10	1	-1E+10	1	-1E+10	1
4902642	18	C	12/17/2024	12:03	-132.027	45.874	0	3009.90	0	1.6440	0	34.6460	4	27.732	0	2964.056	0	84.7	4	25.3	4	-1E+10	1	-1E+10	1	-1E+10	1	-1E+10	1	-1E+10	1	-1E+10	1
4902642	18	C	12/17/2024	12:03	-132.027	45.874	0	3030.00	0	1.6370	0	34.6470	4	27.733	0	2983.711	0	85.7	4	25.6	4	-1E+10	1	-1E+10	1	-1E+10	1	-1E+10	1	-1E+10	1	-1E+10	1
4902642	18	C	12/17/2024	12:03	-132.027	45.874	0	3049.90	0	1.6300	0	34.6480	4	27.735	0	3003.170	0	86.6	4	25.9	4	-1E+10	1	-1E+10	1	-1E+10	1	-1E+10	1	-1E+10	1	-1E+10	1
4902642	18	C	12/17/2024	12:03	-132.027	45.874	0	3069.90	0	1.6250	0	34.6490	4	27.736	0	3022.724	0	87.4	4	26.1	4	-1E+10	1	-1E+10	1	-1E+10	1	-1E+10	1	-1E+10	1	-1E+10	1
4902642	18	C	12/17/2024	12:03	-132.027	45.874	0	3089.80	0	1.6200	0	34.6500	4	27.737	0	3042.179	0	88.3	4	26.4	4	-1E+10	1	-1E+10	1	-1E+10	1	-1E+10	1	-1E+10	1	-1E+10	1
4902642	18	C	12/17/2024	12:03	-132.027	45.874	0	3109.80	0	1.6130	0	34.6510	4	27.739	0	3061.730	0	89.2	4	26.6	4	-1E+10	1	-1E+10	1	-1E+10	1	-1E+10	1	-1E+10	1	-1E+10	1
4902642	18	C	12/17/2024	12:03	-132.027	45.874	0	3130.30	0	1.6090	0	34.6520	4	27.740	0	3081.768	0	89.8	4	26.8	4	-1E+10	1	-1E+10	1	-1E+10	1	-1E+10	1	-1E+10	1	-1E+10	1
4902642	18	C	12/17/2024	12:03	-132.027	45.874	0	3150.10	0	1.6060	0	34.6530	4	27.741	0	3101.119	0	90.4	4	27.0	4	-1E+10	1	-1E+10	1	-1E+10	1	-1E+10	1	-1E+10	1	-1E+10	1
4902642	18	C	12/17/2024	12:03	-132.027	45.874	0	3170.20	0	1.6040	0	34.6530	4	27.741	0	3120.763	0	90.8	4	27.1	4	-1E+10	1	-1E+10	1	-1E+10	1	-1E+10	1	-1E+10	1	-1E+10	1
4902642	18	C	12/17/2024	12:03	-132.027	45.874	0	3190.00	0	1.6040	0	34.6540	4	27.742	0	3140.111	0	91.2	4	27.2	4	-1E+10	1	-1E+10	1	-1E+10	1	-1E+10	1	-1E+10	1	-1E+10	1
4902642	18	C	12/17/2024	12:03	-132.027	45.874	0	3209.70	0	1.5980	0	34.6540	4	27.743	0	3159.360	0	92.0	4	27.5	4	-1E+10	1	-1E+10	1	-1E+10	1	-1E+10	1	-1E+10	1	-1E+10	1
4902642	18	C	12/17/2024	12:03	-132.027	45.874	0	3230.00	0	1.5940	0	34.6550	4	27.744	0	3179.193	0	92.6	4	27.7	4	-1E+10	1	-1E+10	1	-1E+10	1	-1E+10	1	-1E+10	1	-1E+10	1
4902642	18	C	12/17/2024	12:03	-132.027	45.874	0	3249.70	0	1.5910	0	34.6560	4	27.745	0	3198.439	0	93.3	4	27.8	4	-1E+10	1	-1E+10	1	-1E+10	1	-1E+10	1	-1E+10	1	-1E+10	1
4902642	18	C	12/17/2024	12:03	-132.027	45.874	0	3269.80	0	1.5880	0	34.6570	4	27.746	0	3218.073	0	93.8	4	28.0	4	-1E+10	1	-1E+10	1	-1E+10	1	-1E+10	1	-1E+10	1	-1E+10	1
4902642	18	C	12/17/2024	12:03	-132.027	45.874	0	3290.00	0	1.5860	0	34.6570	4	27.746	0	3237.804	0	94.3	4	28.1	4	-1E+10	1	-1E+10	1	-1E+10	1	-1E+10	1	-1E+10	1	-1E+10	1
4902642	18	C	12/17/2024	12:03	-132.027	45.874	0	3309.90	0	1.5840	0	34.6580	4	27.748	0	3257.239	0	94.7	4	28.3	4	-1E+10	1	-1E+10	1	-1E+10	1	-1E+10	1	-1E+10	1	-1E+10	1
4902642	18	C	12/17/2024	12:03	-132.027	45.874	0	3329.70	0	1.5810	0	34.6580	4	27.748	0	3276.576	0	95.2	4	28.4	4	-1E+10	1	-1E+10	1	-1E+10	1	-1E+10	1	-1E+10	1	-1E+10	1
4902642	18	C	12/17/2024	12:03	-132.027	45.874	0	3349.80	0	1.5790	0	34.6590	4	27.749	0	3296.203	0	95.5	4	28.5	4	-1E+10	1	-1E+10	1	-1E+10	1	-1E+10	1	-1E+10	1	-1E+10	1
4902642	18	C	12/17/2024	12:03	-132.027	45.874	0	3370.20	0	1.5770	0	34.6600	4	27.750	0	3316.122	0	95.8	4	28.6	4	-1E+10	1	-1E+10	1	-1E+10	1	-1E+10	1	-1E+10	1	-1E+10	1
4902642	18	C	12/17/2024	12:03	-132.027	45.874	0	3389.70	0	1.5770	0	34.6600	4	27.750	0	3335.160	0	95.9	4	28.6	4	-1E+10	1	-1E+10	1	-1E+10	1	-1E+10	1	-1E+10	1	-1E+10	1
4902642	18	C	12/17/2024	12:03	-132.027	45.874	0	3410.60	0	1.5780	0	34.6600	4	27.750	0	3355.563	0	95.8	4	28.6	4	-1E+10	1	-1E+10	1	-1E+10	1	-1E+10	1	-1E+10	1	-1E+10	1
4902642	18	C	12/17/2024	12:03	-132.027	45.874	0	3421.30	0	1.5780	0	34.6600	4	27.750	0	3366.008	0	95.1	4	28.4	4	-1E+10	1	-1E+10	1	-1E+10	1	-1E+10	1	-1E+10	1	-1E+10	1
4902642	18	C	12/17/2024	12:03	-132.027	45.874	0																										
4902642	19	C	12/27/2024	09:59	-132.127	45.972	0	0.80	0	10.8503	0	32.5180	0	24.870	0	0.793	0	240.8	4	87.7	4	-1E+10	1	-1E+10	1	-1E+10	1	-1E+10	1	-1E+10	1	-1E+10	1
4902642	19	C	12/27/2024	09:59	-132.127	45.972	0	0.90	0	10.8550	0	32.5190	0	24.870	0	0.893	0	240.6	4	87.7	4	-1E+10	1	-1E+10	1	-1E+10	1	-1E+10	1	-1E+10	1	-1E+10	1
4902642	19	C	12/27/2024	09:59	-132.127	45.972	0	1.00	0	10.8558	0	32.5182	0	24.869	0	0.992	0	240.6	4	87.7	4	-1E+10	1	-1E+10	1	-1E+10	1	-1E+10	1	-1E+10	1	-1E+10	1
4902642	19	C	12/27/2024	09:59	-132.127	45.972	0	1.50	0	10.8600	0	32.5140	0	24.865	0	1.488	0	240.3	4	87.6	4	-1E+10	1	-1E+10	1	-1E+10	1	-1E+10	1	-1E+10	1	-1E+10	1
4902642	19	C	12/27/2024	09:59	-132.127	45.972	0	2.60	0	10.8590	0	32.5140	0	24.865	0	2.579	0	240.4	4	87.6	4	-1E+10	1	-1E+10	1	-1E+10	1	-1E+10	1	-1E+10	1	-1E+10	1
4902642	19	C	12/27/2024	09:59	-132.127	45.972	0	3.60	0	10.8580	0	32.5160	0	24.867	0	3.570	0	240.3	4	87.6	4	-1E+10	1	-1E+10	1	-1E+10	1	-1E+10	1	-1E+10	1	-1E+10	1
4902642	19	C	12/27/2024	09:59	-132.127	45.972	0	4.60	0	10.8610	0	32.5150	0	24.866	0	4.562	0	240.2	4	87.5	4	-1E+10	1	-1E+10	1	-1E+10	1	-1E+10	1	-1E+10	1	-1E+10	1
4902642	19	C	12/27/2024	09:59	-132.127	45.972	0	5.40	0	10.8600	0	32.5160	0	24.867	0	5.356	0	240.3	4	87.6	4	-1E+10	1	-1E+10	1	-1E+10	1	-1E+10	1	-1E+10	1	-1E+10	1
4902642	19	C	12/27/2024	09:59	-132.127	45.972	0	6.50	0	10.8610	0	32.5160	0	24.867	0	6.447	0	240.2	4	87.5	4	-1E+10	1	-1E+10	1	-1E+10	1	-1E+10	1	-1E+10	1	-1E+10	1
4902642	19	C	12/27/2024	09:59	-132.127	45.972	0	7.70	0	10.8630	0	32.5160	0	24.866	0	7.637	0	240.3	4	87.6	4	-1E+10	1	-1E+10	1	-1E+10	1	-1E+10	1	-1E+10	1	-1E+10	1
4902642	19	C	12/27/2024	09:59	-132.127	45.972	0	8.70	0	10.8630	0	32.5160	0	24.866	0	8.628	0	240.3	4	87.6	4	-1E+10	1	-1E+10	1	-1E+10	1	-1E+10	1	-1E+10	1	-1E+10	1
4902642	19	C	12/27/2024	09:59	-132.127	45.972	0	9.70	0	10.8650	0	32.5160	0	24.866	0	9.620	0	240.2	4	87.5	4	-1E+10	1	-1E+10	1	-1E+10	1	-1E+10	1	-1E+10	1	-1E+10	1
4902642	19	C	12/27/2024	09:59	-132.127	45.972	0	14.50	0	10.8660	0	32.5160	0	24.866	0	14.381	0	240.1	4	87.5	4	-1E+10	1	-1E+10	1	-1E+10	1	-1E+10	1	-1E+10	1	-1E+10	1
4902642	19	C	12/27/2024	09:59	-132.127	45.972	0	25.00	0	10.8660	0	32.5160	0	24.866	0	24.793	0	240.0	4	87.5	4	-1E+10	1	-1E+10	1	-1E+10	1	-1E+10	1	-1E+10	1	-1E+10	1
4902642	19	C	12/27/2024	09:59	-132.127	45.972	0	35.30	0	10.8650	0	32.5150	0	24.866	0	35.007	0	239.8	4	87.4	4	-1E+10	1	-1E+10	1	-1E+10	1	-1E+10	1	-1E+10	1	-1E+10	1
4902642	19	C	12/27/2024	09:59	-132.127	45.972	0	45.60	0	10.8670	0	32.5150	0	24.866	0	45.221	0	239.6	4	87.3	4	-1E+10	1	-1E+10	1	-1E+10	1	-1E+10	1	-1E+10	1	-1E+10	1
4902642	19	C	12/27/2024	09:59	-132.127	45.972	0	55.10	0	10.8690	0	32.5160	0	24.866	0	54.641	0	239.2	4	87.2	4	-1E+10	1	-1E+10	1	-1E+10	1	-1E+10	1	-1E+10	1	-1E+10	1
4902642	19	C	12/27/2024	09:59	-132.127	45.972	0	65.20	0	10.8680	0	32.5160	0	24.867	0	64.655	0	238.2	4	86.8	4	-1E+10	1	-1E+10	1	-1E+10	1	-1E+10	1	-1E+10	1	-1E+10	1
4902642	19	C	12/27/2024	09:59	-132.127	45.972	0	75.10	0	10.8380	0	32.5200	0	24.875	0	74.470	0	235.4	4	85.7	4	-1E+10	1	-1E+10	1	-1E+10	1	-1E+10	1	-1E+10	1	-1E+10	1
4902642	19	C	12/27/2024	09:59	-132.127	45.972	0	85.00	0	10.3270	0	32.5950	0	25.022	0	84.285	0	229.4	4	82.7	4	-1E+10	1	-1E+10	1	-1E+10	1	-1E+10	1	-1E+10	1	-1E+10	1
4902642	19	C	12/27/2024	09:59	-132.127	45.972	0	95.10	0	8.9910	0	32.8110	0	25.408	0	94.298	0	223.8	4	78.5	4	-1E+10	1	-1E+10	1	-1E+10	1	-1E+10	1	-1E+10	1	-1E+10	1
4902642	19	C	12/27/2024	09:59	-132.127	45.972	0	104.90	0	8.6850	0	33.0060	0	25.608	0	104.013	0	214.2	4	74.7	4	-1E+10	1	-1E+10	1	-1E+10	1	-1E+10	1	-1E+10	1	-1E+10	1
4902642	19	C	12/27/2024	09:59	-132.127	45.972	0	115.20	0	8.5910	0	33.2560	0	25.818	0	114.223	0	202.6	4	70.6	4	-1E+10	1	-1E+10	1	-1E+10	1	-1E+10	1	-1E+10	1	-1E+10	1
4902642	19	C	12/27/2024	09:59	-132.127	45.972	0	124.70	0	8.3570	0	33.3770	0	25.948	0	123.639	0	198.7	4	69.0	4	-1E+10	1	-1E+10	1	-1E+10	1	-1E+10	1	-1E+10	1	-1E+10	1
4902642	19	C	12/27/2024	09:59	-132.127	45.972	0	134.90	0	7.8300	0	33.4690	0	26.098	0	133.749	0	197.2	4	67.7	4	-1E+10	1	-1E+10	1	-1E+10	1	-1E+10	1	-1E+10	1	-1E+10	1
4902642	19	C	12/27/2024	09:59	-132.127	45.972	0	144.90	0	7.5790	0	33.5690	0	26.213	0	143.660	0	193.6	4	66.1	4	-1E+10	1	-1E+10	1	-1E+10	1	-1E+10	1	-1E+10	1	-1E+10	1
4902642	19	C	12/27/2024	09:59	-132.127	45.972	0	154.90	0	7.2550	0	33.6130	0	26.293	0	153.571	0	190.6	4	64.7	4	-1E+10	1	-1E+10	1	-1E+10	1	-1E+10	1	-1E+10	1	-1E+10	1
4902642	19	C	12/27/2024	09:59	-132.127	45.972	0	165.10	0	7.0830	0	33.6520	0	26.348	0	163.680	0	185.8	4	62.8	4	-1E+10	1	-1E+10	1	-1E+10	1	-1E+10	1	-1E+10	1	-1E+10	1
4902642	19	C	12/27/2024	09:59	-132.127	45.972	0	175.20	0	6.9600	0	33.6840	0	26.390	0	173.689	0	179.1	4	60.4	4	-1E+10	1	-1E+10	1	-1E+10	1	-1E+10	1	-1E+10	1	-1E+10	1
4902642	19	C	12/27/2024	09:59	-132.127	45.972	0	185.20	0	6.8280	0	33.7230	0	26.439	0	183.598	0	169.2	4	56.9	4	-1E+10	1	-1E+10	1	-1E+10	1	-1E+10	1	-1E+10	1	-1E+10	1
4902642	19	C	12/27/2024	09:59	-132.127	45.972	0	193.90	0	6.6560	0	33.7500	0	26.483	0	192.219	0	161.0	4	54.0	4	-1E+10	1	-1E+10	1	-1E+10	1	-1E+10	1	-1E+10	1	-1E+10	1
4902642	19	C	12/27/2024	09:59	-132.127	45.972	0	209.70	0	6.4950	0	33.7720	0	26.522	0	207.874	0	150.1	4	50.1	4	-1E+10	1	-1E+10	1	-1E+10	1	-1E+10	1	-1E+10	1	-1E+10	1
4902642	19	C	12/27/2024	09:59	-132.127	45.972	0	229.90	0	6.2090	0	33.8020	0	26.582	0	227.886	0	124.5	4	41.3	4	-1E+10	1	-1E+10	1	-1E+10	1	-1E+10	1	-1E+10	1	-1E+10	1
4902642	19	C	12/27/2024	09:59	-132.127	45.972	0	249.60	0	6.1600	0	33.8380	0	26.617	0	247.402	0	102.9	4	34.1	4	-1E+10	1	-1E+10	1	-1E+10	1	-1E+10	1	-1E+10	1	-1E+10	1
4902642	19	C	12/27/2024	09:59	-132.127	45.972	0	269.70	0	5.9560	0	33.8520	0	26.654	0	267.312	0	94.4	4	31.1	4	-1E+10	1	-1E+10	1	-1E+10	1	-1E+10	1	-1E+10	1	-1E+10	1
4902642	19	C	12/27/2024	09:59	-132.127	45.972	0	289.90	0	5.7090	0	33.8540	0	26.686	0	287.319	0	88.4	4	29.0	4	-1E+10	1	-1E+10	1	-1E+10	1	-1E+10	1	-1E+10	1	-1E+10	1
4902642	19	C	12/27/2024	09:59	-132.127	45.972	0	309.70	0	5.5010	0	33.8700	0	26.724	0	306.928	0	79.2	4	25.9	4	-1E+10	1	-1E+10	1	-1E+10	1	-1E+10	1	-1E+10	1	-1E+10	1
4902642	19	C	12/27/2024	09:59	-132.127	45.972	0	329.70	0	5.3990	0	33.8880	0	26.751	0	326.734	0	70.8	4	23.0	4	-1E+10	1	-1E+10	1	-1E+10	1	-1E+10	1	-1E+10	1	-1E+10	1
4902642	19	C	12/27/2024	09:59	-132.127	45.972	0	350.00	0	5.3140	0	33.9140	0	26.781	0	346.834	0	62.6	4	20.4	4	-1E+10	1	-1E+10	1	-1E+10	1	-1E+10	1	-1E+10	1	-1E+10	1
4902642	19	C	12/27/2024	09:59	-132.127	45.972	0	370.40	0	5.2060	0	33.9330	0	26.809	0	367.031	0	56.0	4	18.2	4	-1E+10	1	-1E+10	1	-1E+10	1	-1E+10	1	-1E+10	1	-1E+10	1
4902642	19	C	12/27/2024	09:59	-132.127	45.972	0	390.00	0	5.0890	0	33.9570	0	26.842	0	386.435	0	49.4	4	16.0	4	-1E+10	1	-1E+10	1	-1E+10	1	-1E+10	1	-1E+10	1	-1E+10	1
4902642	19	C	12/27/2024	09:59	-132.127	45.972	0	410.00	0	4.9430	0	33.9760	0	26.874	0	406.233	0	45.1	4	14.5	4	-1E+10	1	-1E+10	1	-1E+10	1	-1E+10	1	-1E+10	1	-1E+10	1
4902642	19	C	12/27/2024	09:59	-132.127	45.972	0	430.00	0	4.7420	0	33.9830	0	26.902	0	426.028	0	46.0	4	14.8	4	-1E+10	1	-1E+10	1	-1E+10	1	-1E+10	1	-1E+10	1	-1E+10	1
4902642	19	C	12/27/2024	09:59	-132.127	45.972	0	449.50	0	4.5650	0	33.9930	0	26.929	0	445.327	0	42.5	4	13.6	4	-1E+10	1	-1E+10	1	-1E+10	1	-1E+10	1	-1E+10	1	-1E+10	1
4902642	19	C	12/27/2024	09:59	-132.127	45.972	0	470.00	0	4.4340	0	34.0140	0	26.960	0	465.614	0	38.3	4	12.2	4	-1E+10	1	-1E+10	1	-1E+10	1	-1E+10	1	-1E+10	1	-1E+10	1
4902642	19	C	12/27/2024	09:59	-132.127	45.972	0	489.60	0	4.3710	0	34.0330	0	26.982	0	485.008	0	34.1	4	10.8	4	-1E+10	1	-1E+10	1	-1E+10	1	-1E+10	1	-1E+10	1	-1E+10	1
4902642	19	C	12/27/2024	09:59	-132.127	45.972	0	509.70	0	4.3200	0	34.0550	0	27.005	0	504.895	0	29.0	4	9.2	4	-1E+10	1	-1E+10	1	-1E+10	1	-1E+10	1	-1E+10	1	-1E+10	1
4902642	19	C	12/27/2024	09:59	-132.127	45.972	0	529.90	0	4.2730	0	34.0770	0	27.028	0	524.879	0	25.9	4	8.2	4	-1E+10	1	-1E+10	1	-1E+10	1	-1E+10	1	-1E+10	1	-1E+10	1
4902642	19	C	12/27/2024	09:59	-132.127	45.972	0	550.00	0	4.2150	0	34.0930	0	27.047	0	544.763	0	23.4	4	7.4	4	-1E+10	1	-1E+10	1	-1E+10	1	-1E+10	1	-1E+10	1	-1E+10	1
4902642	19	C	12/27/2024	09:59	-132.127	45.972	0	570.10	0	4.1570	0	34.1110	0	27.067	0	564.644	0	20.5	4	6.5	4	-1E+10	1	-1E+10	1	-1E+10	1	-1E+10	1	-1E+10	1	-1E+10	1
4902642	19	C	12/27/2024	09:59	-132.127	45.972	0	590.30	0	4.0800	0	34.1320	0	27.092	0	584.622	0	17.8	4	5.6	4	-1E+10	1	-1E+10	1	-1E+10	1	-1E+10	1	-1E+10	1	-1E+10	1
4902642	19	C	12/27/2024	09:59	-132.127	45.972	0	609.80	0	4.0340	0	34.1510	0	27.112	0	603.906	0	15.4	4	4.9	4	-1E+10	1	-1E+10	1	-1E+10	1	-1E+10	1	-1E+10	1	-1E+10	1
4902642	19	C	12/27/2024	09:59	-132.127	45.972	0	630.00	0	4.0070	0	34.1640	0	27.125	0	623.881	0	14.0	4	4.4	4	-1E+10	1	-1E+10	1	-1E+10	1	-1E+10	1	-1E+10	1	-1E+10	1
4902642	19	C	12/27/2024	09:59	-132.127	45.972	0	649.60	0	3.9730	0	34.1720	0	27.135	0	643.260	0	12.9	4	4.1	4	-1E+10	1	-1E+10	1	-1E+10	1	-1E+10	1	-1E+10	1	-1E+10	1
4902642	19	C	12/27/2024	09:59	-132.127	45.972	0	669.70	0	3.9380	0	34.1890	0	27.152	0	663.132	0	11.4	4	3.6	4	-1E+10	1	-1E+10	1	-1E+10	1	-1E+10	1	-1E+10	1	-1E+10	1
4902642	19	C	12/27/2024	09:59	-132.127	45.972	0	690.10	0	3.8790	0	34.2000	0	27.167	0	683.299	0	10.9	4	3.4	4	-1E+10	1	-1E+10	1	-1E+10	1	-1E+10	1	-1E+10	1	-1E+10	1
4902642	19	C	12/27/2024	09:59	-132.127	45.972	0	710.60	0	3.8280	0	34.2080	0	27.179	0	703.562	0	10.3	4	3.3	4	-1E+10	1	-1E+10	1	-1E+10	1	-1E+10	1	-1E+10	1	-1E+10	1
4902642	19	C	12/27/2024	09:59	-132.127	45.972	0	729.80	0	3.7820	0	34.2230	0	27.195	0	722.539	0	9.5	4	3.0	4	-1E+10	1	-1E+10	1	-1E+10	1	-1E+10	1	-1E+10	1	-1E+10	1
4902642	19	C	12/27/2024	09:59	-132.127	45.972	0	749.80	0	3.7360	0	34.2310	0	27.207	0	742.304	0	8.9	4	2.8	4	-1E+10	1	-1E+10	1	-1E+10	1	-1E+10	1	-1E+10	1	-1E+10	1
4902642	19	C	12/27/2024	09:59	-132.127	45.972	0	770.00	0	3.7150	0	34.2450	0	27.220	0	762.265	0	8.0	4	2.5	4	-1E+10	1	-1E+10	1	-1E+10	1	-1E+10	1	-1E+10	1	-1E+10	1
4902642	19	C	12/27/2024	09:59	-132.127	45.972	0	789.70	0	3.7470	0	34.2680	0	27.235	0	781.731	0	6.7	4	2.1	4	-1E+10	1	-1E+10	1	-1E+10	1	-1E+10	1	-1E+10	1	-1E+10	1
4902642	19	C	12/27/2024	09:59	-132.127	45.972	0	809.40	0	3.7550	0	34.2860	0	27.249	0	801.194	0	6.0	4	1.9	4	-1E+10	1	-1E+10	1	-1E+10	1	-1E+10	1	-1E+10	1	-1E+10	1
4902642	19	C	12/27/2024	09:59	-132.127	45.972	0	829.80	0	3.7880	0	34.3070	0	27.263	0	821.347	0	5.4	4	1.7	4	-1E+10	1	-1E+10	1	-1E+10	1	-1E+10	1	-1E+10	1	-1E+10	1
4902642	19	C	12/27/2024	09:59	-132.127	45.972	0	849.80	0	3.7390	0	34.3200	0	27.278	0	841.103	0	5.3	4	1.7	4	-1E+10	1	-1E+10	1	-1E+10	1	-1E+10	1	-1E+10	1	-1E+10	1
4902642	19	C	12/27/2024	09:59	-132.127	45.972	0	869.70	0	3.7210	0	34.3350	0	27.292	0	860.759	0	5.2	4	1.6	4	-1E+10	1	-1E+10	1	-1E+10	1	-1E+10	1	-1E+10	1	-1E+10	1
4902642	19	C	12/27/2024	09:59	-132.127	45.972	0	890.30	0	3.6700	0	34.3460	0	27.306	0	881.103	0	5.3	4	1.7	4	-1E+10	1	-1E+10	1	-1E+10	1	-1E+10	1	-1E+10	1	-1E+10	1
4902642	19	C	12/27/2024	09:59	-132.127	45.972	0	909.50	0	3.6030	0	34.3600	0	27.324	0	900.064	0	5.5	4	1.7	4	-1E+10	1	-1E+10	1	-1E+10	1	-1E+10	1	-1E+10	1	-1E+10	1
4902642	19	C	12/27/2024	09:59	-132.127	45.972	0	929.60	0	3.5840	0	34.3700	0	27.334	0	919.911	0	5.7	4	1.8	4	-1E+10	1	-1E+10	1	-1E+10	1	-1E+10	1	-1E+10	1	-1E+10	1
4902642	19	C	12/27/2024	09:59	-132.127	45.972	0	950.10	0	3.5730	0	34.3820	0	27.344	0	940.151	0	6.1	4	1.9	4	-1E+10	1	-1E+10	1	-1E+10	1	-1E+10	1	-1E+10	1	-1E+10	1
4902642	19	C	12/27/2024	09:59	-132.127	45.972	0	969.70	0	3.5400	0	34.3890	0	27.353	0	959.501	0	6.4	4	2.0	4	-1E+10	1	-1E+10	1	-1E+10	1	-1E+10	1	-1E+10	1	-1E+10	1
4902642	19	C	12/27/2024	09:59	-132.127	45.972	0	989.50	0	3.5090	0	34.3970	0	27.363	0	979.047	0	6.7	4	2.1	4	-1E+10	1	-1E+10	1	-1E+10	1	-1E+10	1	-1E+10	1	-1E+10	1
4902642	19	C	12/27/2024	09:59	-132.127	45.972	0	1009.40	0	3.4530	0	34.4030	0	27.373	0	998.689	0	7.0	4	2.2	4	-1E+10	1	-1E+10	1	-1E+10	1	-1E+10	1	-1E+10	1	-1E+10	1
4902642	19	C	12/27/2024	09:59	-132.127	45.972	0	1029.60	0	3.4100	0	34.4100	0	27.383	0	1018.626	0	7.3	4	2.3	4	-1E+10	1	-1E+10	1	-1E+10	1	-1E+10	1	-1E+10	1	-1E+10	1
4902642	19	C	12/27/2024	09:59	-132.127	45.972	0	1049.80	0	3.3820	0	34.4150	0	27.390	0	1038.561	0	7.7	4	2.4	4	-1E+10	1	-1E+10	1	-1E+10	1	-1E+10	1	-1E+10	1	-1E+10	1
4902642	19	C	12/27/2024	09:59	-132.127	45.972	0	1069.80	0	3.3550	0	34.4200	0	27.396	0	1058.296	0	8.0	4	2.5	4	-1E+10	1	-1E+10	1	-1E+10	1	-1E+10	1	-1E+10	1	-1E+10	1
4902642	19	C	12/27/2024	09:59	-132.127	45.972	0	1089.80	0	3.3110	0	34.4250	0	27.404	0	1078.030	0	8.4	4	2.6	4	-1E+10	1	-1E+10	1	-1E+10	1	-1E+10	1	-1E+10	1	-1E+10	1
4902642	19	C	12/27/2024	09:59	-132.127	45.972	0	1109.50	0	3.2740	0	34.4300	0	27.412	0	1097.465	0	8.8	4	2.7	4	-1E+10	1	-1E+10	1	-1E+10	1	-1E+10	1	-1E+10	1	-1E+10	1
4902642	19	C	12/27/2024	09:59	-132.127	45.972	0	1129.50	0	3.2300	0	34.4340	0	27.419	0	1117.195	0	9.1	4	2.8	4	-1E+10	1	-1E+10	1	-1E+10	1	-1E+10	1	-1E+10	1	-1E+10	1
4902642	19	C	12/27/2024	09:59	-132.127	45.972	0	1149.70	0	3.1890	0	34.4390	0	27.427	0	1137.120	0	9.5	4	3.0	4	-1E+10	1	-1E+10	1	-1E+10	1	-1E+10	1	-1E+10	1	-1E+10	1
4902642	19	C	12/27/2024	09:59	-132.127	45.972	0	1169.90	0	3.1510	0	34.4430	0	27.434	0	1157.044	0	9.9	4	3.1	4	-1E+10	1	-1E+10	1	-1E+10	1	-1E+10	1	-1E+10	1	-1E+10	1
4902642	19	C	12/27/2024	09:59	-132.127	45.972	0	1190.00	0	3.0990	0	34.4470	0	27.442	0	1176.867	0	10.4	4	3.2	4	-1E+10	1	-1E+10	1	-1E+10	1	-1E+10	1	-1E+10	1	-1E+10	1
4902642	19	C	12/27/2024	09:59	-132.127	45.972	0	1209.70	0	3.0460	0	34.4530	0	27.452	0	1196.293	0	11.1	4	3.4	4	-1E+10	1	-1E+10	1	-1E+10	1	-1E+10	1	-1E+10	1	-1E+10	1
4902642	19	C	12/27/2024	09:59	-132.127	45.972	0	1229.40	0	2.9940	0	34.4590	0	27.462	0	1215.718	0	11.7	4	3.6	4	-1E+10	1	-1E+10	1	-1E+10	1	-1E+10	1	-1E+10	1	-1E+10	1
4902642	19	C	12/27/2024	09:59	-132.127	45.972	0	1249.60	0	2.9590	0	34.4640	0	27.469	0	1235.634	0	12.2	4	3.8	4	-1E+10	1	-1E+10	1	-1E+10	1	-1E+10	1	-1E+10	1	-1E+10	1
4902642	19	C	12/27/2024	09:59	-132.127	45.972	0	1270.00	0	2.9310	0	34.4690	0	27.475	0	1255.745	0	12.8	4	3.9	4	-1E+10	1	-1E+10	1	-1E+10	1	-1E+10	1	-1E+10	1	-1E+10	1
4902642	19	C	12/27/2024	09:59	-132.127	45.972	0	1289.70	0	2.9060	0	34.4730	0	27.481	0	1275.164	0	13.5	4	4.1	4	-1E+10	1	-1E+10	1	-1E+10	1	-1E+10	1	-1E+10	1	-1E+10	1
4902642	19	C	12/27/2024	09:59	-132.127	45.972	0	1310.20	0	2.8590	0	34.4800	0	27.491	0	1295.370	0	14.5	4	4.5	4	-1E+10	1	-1E+10	1	-1E+10	1	-1E+10	1	-1E+10	1	-1E+10	1
4902642	19	C	12/27/2024	09:59	-132.127	45.972	0	1329.70	0	2.8190	0	34.4840	0	27.498	0	1314.589	0	15.2	4	4.7	4	-1E+10	1	-1E+10	1	-1E+10	1	-1E+10	1	-1E+10	1	-1E+10	1
4902642	19	C	12/27/2024	09:59	-132.127	45.972	0	1349.60	0	2.7730	0	34.4880	0	27.505	0	1334.200	0	15.9	4	4.9	4	-1E+10	1	-1E+10	1	-1E+10	1	-1E+10	1	-1E+10	1	-1E+10	1
4902642	19	C	12/27/2024	09:59	-132.127	45.972	0	1369.40	0	2.7380	0	34.4910	0	27.511	0	1353.710	0	16.5	4	5.1	4	-1E+10	1	-1E+10	1	-1E+10	1	-1E+10	1	-1E+10	1	-1E+10	1
4902642	19	C	12/27/2024	09:59	-132.127	45.972	0	1389.40	0	2.7080	0	34.4940	0	27.516	0	1373.416	0	17.4	4	5.3	4	-1E+10	1	-1E+10	1	-1E+10	1	-1E+10	1	-1E+10	1	-1E+10	1
4902642	19	C	12/27/2024	09:59	-132.127	45.972	0	1410.20	0	2.6670	0	34.4980	0	27.523	0	1393.908	0	18.2	4	5.6	4	-1E+10	1	-1E+10	1	-1E+10	1	-1E+10	1	-1E+10	1	-1E+10	1
4902642	19	C	12/27/2024	09:59	-132.127	45.972	0	1429.50	0	2.6090	0	34.5030	0	27.532	0	1412.921	0	19.6	4	6.0	4	-1E+10	1	-1E+10	1	-1E+10	1	-1E+10	1	-1E+10	1	-1E+10	1
4902642	19	C	12/27/2024	09:59	-132.127	45.972	0	1449.40	0	2.5550	0	34.5090	0	27.541	0	1432.522	0	21.0	4	6.4	4	-1E+10	1	-1E+10	1	-1E+10	1	-1E+10	1	-1E+10	1	-1E+10	1
4902642	19	C	12/27/2024	09:59	-132.127	45.972	0	1469.40	0	2.5030	0	34.5140	0	27.549	0	1452.221	0	22.2	4	6.8	4	-1E+10	1	-1E+10	1	-1E+10	1	-1E+10	1	-1E+10	1	-1E+10	1
4902642	19	C	12/27/2024	09:59	-132.127	45.972	0	1489.90	0	2.4690	0	34.5180	0	27.556	0	1472.410	0	23.3	4	7.1	4	-1E+10	1	-1E+10	1	-1E+10	1	-1E+10	1	-1E+10	1	-1E+10	1
4902642	19	C	12/27/2024	09:59	-132.127	45.972	0	1509.60	0	2.4430	0	34.5220	0	27.561	0	1491.809	0	24.3	4	7.4	4	-1E+10	1	-1E+10	1	-1E+10	1	-1E+10	1	-1E+10	1	-1E+10	1
4902642	19	C	12/27/2024	09:59	-132.127	45.972	0	1529.80	0	2.4210	0	34.5260	0	27.566	0	1511.699	0	25.7	4	7.8	4	-1E+10	1	-1E+10	1	-1E+10	1	-1E+10	1	-1E+10	1	-1E+10	1
4902642	19	C	12/27/2024	09:59	-132.127	45.972	0	1549.90	0	2.3980	0	34.5300	0	27.571	0	1531.488	0	26.8	4	8.1	4	-1E+10	1	-1E+10	1	-1E+10	1	-1E+10	1	-1E+10	1	-1E+10	1
4902642	19	C	12/27/2024	09:59	-132.127	45.972	0	1569.60	0	2.3750	0	34.5330	0	27.576	0	1550.882	0	27.6	4	8.4	4	-1E+10	1	-1E+10	1	-1E+10	1	-1E+10	1	-1E+10	1	-1E+10	1
4902642	19	C	12/27/2024	09:59	-132.127	45.972	0	1589.70	0	2.3490	0	34.5350	0	27.580	0	1570.668	0	28.3	4	8.6	4	-1E+10	1	-1E+10	1	-1E+10	1	-1E+10	1	-1E+10	1	-1E+10	1
4902642	19	C	12/27/2024	09:59	-132.127	45.972	0	1609.70	0	2.3260	0	34.5380	0	27.584	0	1590.353	0	29.4	4	8.9	4	-1E+10	1	-1E+10	1	-1E+10	1	-1E+10	1	-1E+10	1	-1E+10	1
4902642	19	C	12/27/2024	09:59	-132.127	45.972	0	1630.30	0	2.2970	0	34.5410	0	27.589	0	1610.627	0	30.4	4	9.2	4	-1E+10	1	-1E+10	1	-1E+10	1	-1E+10	1	-1E+10	1	-1E+10	1
4902642	19	C	12/27/2024	09:59	-132.127	45.972	0	1649.60	0	2.2650	0	34.5450	0	27.595	0	1629.620	0	31.7	4	9.6	4	-1E+10	1	-1E+10	1	-1E+10	1	-1E+10	1	-1E+10	1	-1E+10	1
4902642	19	C	12/27/2024	09:59	-132.127	45.972	0	1669.70	0	2.2440	0	34.5480	0	27.599	0	1649.398	0	32.7	4	9.9	4	-1E+10	1	-1E+10	1	-1E+10	1	-1E+10	1	-1E+10	1	-1E+10	1
4902642	19	C	12/27/2024	09:59	-132.127	45.972	0	1689.70	0	2.2150	0	34.5520	0	27.605	0	1669.077	0	34.2	4	10.4	4	-1E+10	1	-1E+10	1	-1E+10	1	-1E+10	1	-1E+10	1	-1E+10	1
4902642	19	C	12/27/2024	09:59	-132.127	45.972	0	1709.90	0	2.1900	0	34.5550	0	27.609	0	1688.950	0	35.5	4	10.8	4	-1E+10	1	-1E+10	1	-1E+10	1	-1E+10	1	-1E+10	1	-1E+10	1
4902642	19	C	12/27/2024	09:59	-132.127	45.972	0	1729.90	0	2.1610	0	34.5590	0	27.615	0	1708.624	0	36.9	4	11.2	4	-1E+10	1	-1E+10	1	-1E+10	1	-1E+10	1	-1E+10	1	-1E+10	1
4902642	19	C	12/27/2024	09:59	-132.127	45.972	0	1749.70	0	2.1380	0	34.5630	0	27.620	0	1728.100	0	38.2	4	11.6	4	-1E+10	1	-1E+10	1	-1E+10	1	-1E+10	1	-1E+10	1	-1E+10	1
4902642	19	C	12/27/2024	09:59	-132.127	45.972	0	1769.60	0	2.1140	0	34.5660	0	27.624	0	1747.672	0	39.5	4	11.9	4	-1E+10	1	-1E+10	1	-1E+10	1	-1E+10	1	-1E+10	1	-1E+10	1
4902642	19	C	12/27/2024	09:59	-132.127	45.972	0	1789.60	0	2.0930	0	34.5690	0	27.629	0	1767.341	0	40.7	4	12.3	4	-1E+10	1	-1E+10	1	-1E+10	1	-1E+10	1	-1E+10	1	-1E+10	1
4902642	19	C	12/27/2024	09:59	-132.127	45.972	0	1809.60	0	2.0740	0	34.5720	0	27.633	0	1787.009	0	41.8	4	12.6	4	-1E+10	1	-1E+10	1	-1E+10	1	-1E+10	1	-1E+10	1	-1E+10	1
4902642	19	C	12/27/2024	09:59	-132.127	45.972	0	1829.60	0	2.0600	0	34.5740	0	27.635	0	1806.674	0	42.8	4	12.9	4	-1E+10	1	-1E+10	1	-1E+10	1	-1E+10	1	-1E+10	1	-1E+10	1
4902642	19	C	12/27/2024	09:59	-132.127	45.972	0	1849.90	0	2.0400	0	34.5770	0	27.639	0	1826.632	0	44.1	4	13.3	4	-1E+10	1	-1E+10	1	-1E+10	1	-1E+10	1	-1E+10	1	-1E+10	1
4902642	19	C	12/27/2024	09:59	-132.127	45.972	0	1870.70	0	2.0210	0	34.5800	0	27.643	0	1847.080	0	45.2	4	13.6	4	-1E+10	1	-1E+10	1	-1E+10	1	-1E+10	1	-1E+10	1	-1E+10	1
4902642	19	C	12/27/2024	09:59	-132.127	45.972	0	1889.40	0	2.0110	0	34.5820	0	27.646	0	1865.462	0	45.9	4	13.9	4	-1E+10	1	-1E+10	1	-1E+10	1	-1E+10	1	-1E+10	1	-1E+10	1
4902642	19	C	12/27/2024	09:59	-132.127	45.972	0	1909.50	0	2.0040	0	34.5830	0	27.647	0	1885.219	0	46.5	4	14.0	4	-1E+10	1	-1E+10	1	-1E+10	1	-1E+10	1	-1E+10	1	-1E+10	1
4902642	19	C	12/27/2024	09:59	-132.127	45.972	0	1930.40	0	1.9910	0	34.5850	0	27.650	0	1905.760	0	47.6	4	14.3	4	-1E+10	1	-1E+10	1	-1E+10	1	-1E+10	1	-1E+10	1	-1E+10	1
4902642	19	C	12/27/2024	09:59	-132.127	45.972	0	1949.70	0	1.9780	0	34.5880	0	27.654	0	1924.726	0	48.5	4	14.6	4	-1E+10	1	-1E+10	1	-1E+10	1	-1E+10	1	-1E+10	1	-1E+10	1
4902642	19	C	12/27/2024	09:59	-132.127	45.972	0	1969.80	0	1.9640	0	34.5900	0	27.656	0	1944.477	0	49.4	4	14.9	4	-1E+10	1	-1E+10	1	-1E+10	1	-1E+10	1	-1E+10	1	-1E+10	1
4902642	19	C	12/27/2024	09:59	-132.127	45.972	0	1989.80	0	1.9590	0	34.5910	0	27.658	0	1964.128	0	50.0	4	15.1	4	-1E+10	1	-1E+10	1	-1E+10	1	-1E+10	1	-1E+10	1	-1E+10	1
4902642	19	C	12/27/2024	09:59	-132.127	45.972	0	2009.50	0	1.9480	0	34.5930	4	27.660	0	1983.482	0	50.8	4	15.3	4	-1E+10	1	-1E+10	1	-1E+10	1	-1E+10	1	-1E+10	1	-1E+10	1
4902642	19	C	12/27/2024	09:59	-132.127	45.972	0	2029.70	0	1.9410	0	34.5950	4	27.663	0	2003.325	0	51.5	4	15.5	4	-1E+10	1	-1E+10	1	-1E+10	1	-1E+10	1	-1E+10	1	-1E+10	1
4902642	19	C	12/27/2024	09:59	-132.127	45.972	0	2050.50	0	1.9330	0	34.5960	4	27.664	0	2023.756	0	52.3	4	15.8	4	-1E+10	1	-1E+10	1	-1E+10	1	-1E+10	1	-1E+10	1	-1E+10	1
4902642	19	C	12/27/2024	09:59	-132.127	45.972	0	2069.70	0	1.9250	0	34.5980	4	27.666	0	2042.614	0	53.0	4	16.0	4	-1E+10	1	-1E+10	1	-1E+10	1	-1E+10	1	-1E+10	1	-1E+10	1
4902642	19	C	12/27/2024	09:59	-132.127	45.972	0	2089.60	0	1.9140	0	34.6000	4	27.669	0	2062.158	0	54.0	4	16.2	4	-1E+10	1	-1E+10	1	-1E+10	1	-1E+10	1	-1E+10	1	-1E+10	1
4902642	19	C	12/27/2024	09:59	-132.127	45.972	0	2109.50	0	1.9040	0	34.6020	4	27.671	0	2081.699	0	54.8	4	16.5	4	-1E+10	1	-1E+10	1	-1E+10	1	-1E+10	1	-1E+10	1	-1E+10	1
4902642	19	C	12/27/2024	09:59	-132.127	45.972	0	2129.70	0	1.8940	0	34.6030	4	27.673	0	2101.534	0	55.7	4	16.8	4	-1E+10	1	-1E+10	1	-1E+10	1	-1E+10	1	-1E+10	1	-1E+10	1
4902642	19	C	12/27/2024	09:59	-132.127	45.972	0	2149.60	0	1.8850	0	34.6050	4	27.676	0	2121.072	0	56.4	4	17.0	4	-1E+10	1	-1E+10	1	-1E+10	1	-1E+10	1	-1E+10	1	-1E+10	1
4902642	19	C	12/27/2024	09:59	-132.127	45.972	0	2169.80	0	1.8800	0	34.6060	4	27.677	0	2140.903	0	57.2	4	17.2	4	-1E+10	1	-1E+10	1	-1E+10	1	-1E+10	1	-1E+10	1	-1E+10	1
4902642	19	C	12/27/2024	09:59	-132.127	45.972	0	2189.80	0	1.8700	0	34.6080	4	27.679	0	2160.535	0	57.9	4	17.4	4	-1E+10	1	-1E+10	1	-1E+10	1	-1E+10	1	-1E+10	1	-1E+10	1
4902642	19	C	12/27/2024	09:59	-132.127	45.972	0	2209.70	0	1.8630	0	34.6090	4	27.681	0	2180.068	0	58.5	4	17.6	4	-1E+10	1	-1E+10	1	-1E+10	1	-1E+10	1	-1E+10	1	-1E+10	1
4902642	19	C	12/27/2024	09:59	-132.127	45.972	0	2229.70	0	1.8580	0	34.6100	4	27.682	0	2199.697	0	58.9	4	17.7	4	-1E+10	1	-1E+10	1	-1E+10	1	-1E+10	1	-1E+10	1	-1E+10	1
4902642	19	C	12/27/2024	09:59	-132.127	45.972	0	2249.90	0	1.8510	0	34.6110	4	27.684	0	2219.521	0	59.3	4	17.8	4	-1E+10	1	-1E+10	1	-1E+10	1	-1E+10	1	-1E+10	1	-1E+10	1
4902642	19	C	12/27/2024	09:59	-132.127	45.972	0	2269.30	0	1.8440	0	34.6120	4	27.685	0	2238.557	0	59.8	4	18.0	4	-1E+10	1	-1E+10	1	-1E+10	1	-1E+10	1	-1E+10	1	-1E+10	1
4902642	19	C	12/27/2024	09:59	-132.127	45.972	0	2289.80	0	1.8350	0	34.6130	4	27.687	0	2258.672	0	60.7	4	18.2	4	-1E+10	1	-1E+10	1	-1E+10	1	-1E+10	1	-1E+10	1	-1E+10	1
4902642	19	C	12/27/2024	09:59	-132.127	45.972	0	2310.10	0	1.8240	0	34.6150	4	27.689	0	2278.588	0	61.6	4	18.5	4	-1E+10	1	-1E+10	1	-1E+10	1	-1E+10	1	-1E+10	1	-1E+10	1
4902642	19	C	12/27/2024	09:59	-132.127	45.972	0	2329.80	0	1.8160	0	34.6160	4	27.691	0	2297.913	0	62.4	4	18.7	4	-1E+10	1	-1E+10	1	-1E+10	1	-1E+10	1	-1E+10	1	-1E+10	1
4902642	19	C	12/27/2024	09:59	-132.127	45.972	0	2349.60	0	1.8090	0	34.6170	4	27.692	0	2317.336	0	63.1	4	18.9	4	-1E+10	1	-1E+10	1	-1E+10	1	-1E+10	1	-1E+10	1	-1E+10	1
4902642	19	C	12/27/2024	09:59	-132.127	45.972	0	2369.70	0	1.8010	0	34.6180	4	27.694	0	2337.050	0	64.0	4	19.2	4	-1E+10	1	-1E+10	1	-1E+10	1	-1E+10	1	-1E+10	1	-1E+10	1
4902642	19	C	12/27/2024	09:59	-132.127	45.972	0	2390.60	0	1.7920	0	34.6200	4	27.696	0	2357.547	0	64.9	4	19.5	4	-1E+10	1	-1E+10	1	-1E+10	1	-1E+10	1	-1E+10	1	-1E+10	1
4902642	19	C	12/27/2024	09:59	-132.127	45.972	0	2409.80	0	1.7840	0	34.6210	4	27.698	0	2376.376	0	65.8	4	19.7	4	-1E+10	1	-1E+10	1	-1E+10	1	-1E+10	1	-1E+10	1	-1E+10	1
4902642	19	C	12/27/2024	09:59	-132.127	45.972	0	2429.80	0	1.7740	0	34.6220	4	27.699	0	2395.987	0	66.7	4	20.0	4	-1E+10	1	-1E+10	1	-1E+10	1	-1E+10	1	-1E+10	1	-1E+10	1
4902642	19	C	12/27/2024	09:59	-132.127	45.972	0	2450.00	0	1.7650	0	34.6230	4	27.701	0	2415.792	0	67.6	4	20.3	4	-1E+10	1	-1E+10	1	-1E+10	1	-1E+10	1	-1E+10	1	-1E+10	1
4902642	19	C	12/27/2024	09:59	-132.127	45.972	0	2469.80	0	1.7590	0	34.6240	4	27.702	0	2435.203	0	68.2	4	20.5	4	-1E+10	1	-1E+10	1	-1E+10	1	-1E+10	1	-1E+10	1	-1E+10	1
4902642	19	C	12/27/2024	09:59	-132.127	45.972	0	2489.40	0	1.7560	0	34.6250	4	27.703	0	2454.417	0	68.6	4	20.6	4	-1E+10	1	-1E+10	1	-1E+10	1	-1E+10	1	-1E+10	1	-1E+10	1
4902642	19	C	12/27/2024	09:59	-132.127	45.972	0	2509.40	0	1.7540	0	34.6260	4	27.704	0	2474.021	0	68.9	4	20.7	4	-1E+10	1	-1E+10	1	-1E+10	1	-1E+10	1	-1E+10	1	-1E+10	1
4902642	19	C	12/27/2024	09:59	-132.127	45.972	0	2529.30	0	1.7520	0	34.6260	4	27.705	0	2493.525	0	69.2	4	20.8	4	-1E+10	1	-1E+10	1	-1E+10	1	-1E+10	1	-1E+10	1	-1E+10	1
4902642	19	C	12/27/2024	09:59	-132.127	45.972	0	2549.60	0	1.7490	0	34.6260	4	27.705	0	2513.419	0	69.6	4	20.9	4	-1E+10	1	-1E+10	1	-1E+10	1	-1E+10	1	-1E+10	1	-1E+10	1
4902642	19	C	12/27/2024	09:59	-132.127	45.972	0	2570.10	0	1.7480	0	34.6270	4	27.706	0	2533.508	0	69.9	4	21.0	4	-1E+10	1	-1E+10	1	-1E+10	1	-1E+10	1	-1E+10	1	-1E+10	1
4902642	19	C	12/27/2024	09:59	-132.127	45.972	0	2589.80	0	1.7460	0	34.6270	4	27.706	0	2552.811	0	70.3	4	21.1	4	-1E+10	1	-1E+10	1	-1E+10	1	-1E+10	1	-1E+10	1	-1E+10	1
4902642	19	C	12/27/2024	09:59	-132.127	45.972	0	2609.70	0	1.7440	0	34.6280	4	27.707	0	2572.307	0	70.7	4	21.2	4	-1E+10	1	-1E+10	1	-1E+10	1	-1E+10	1	-1E+10	1	-1E+10	1
4902642	19	C	12/27/2024	09:59	-132.127	45.972	0	2630.00	0	1.7410	0	34.6280	4	27.708	0	2592.195	0	71.1	4	21.3	4	-1E+10	1	-1E+10	1	-1E+10	1	-1E+10	1	-1E+10	1	-1E+10	1
4902642	19	C	12/27/2024	09:59	-132.127	45.972	0	2650.00	0	1.7370	0	34.6290	4	27.709	0	2611.786	0	71.6	4	21.5	4	-1E+10	1	-1E+10	1	-1E+10	1	-1E+10	1	-1E+10	1	-1E+10	1
4902642	19	C	12/27/2024	09:59	-132.127	45.972	0	2670.30	0	1.7320	0	34.6290	4	27.709	0	2631.669	0	72.2	4	21.6	4	-1E+10	1	-1E+10	1	-1E+10	1	-1E+10	1	-1E+10	1	-1E+10	1
4902642	19	C	12/27/2024	09:59	-132.127	45.972	0	2689.80	0	1.7280	0	34.6300	4	27.711	0	2650.767	0	72.8	4	21.8	4	-1E+10	1	-1E+10	1	-1E+10	1	-1E+10	1	-1E+10	1	-1E+10	1
4902642	19	C	12/27/2024	09:59	-132.127	45.972	0	2709.50	0	1.7230	0	34.6310	4	27.712	0	2670.060	0	73.5	4	22.0	4	-1E+10	1	-1E+10	1	-1E+10	1	-1E+10	1	-1E+10	1	-1E+10	1
4902642	19	C	12/27/2024	09:59	-132.127	45.972	0	2729.40	0	1.7150	0	34.6320	4	27.713	0	2689.546	0	74.6	4	22.3	4	-1E+10	1	-1E+10	1	-1E+10	1	-1E+10	1	-1E+10	1	-1E+10	1
4902642	19	C	12/27/2024	09:59	-132.127	45.972	0	2750.30	0	1.6980	0	34.6340	4	27.716	0	2710.010	0	76.1	4	22.8	4	-1E+10	1	-1E+10	1	-1E+10	1	-1E+10	1	-1E+10	1	-1E+10	1
4902642	19	C	12/27/2024	09:59	-132.127	45.972	0	2769.50	0	1.6940	0	34.6350	4	27.718	0	2728.807	0	76.6	4	22.9	4	-1E+10	1	-1E+10	1	-1E+10	1	-1E+10	1	-1E+10	1	-1E+10	1
4902642	19	C	12/27/2024	09:59	-132.127	45.972	0	2789.60	0	1.6910	0	34.6360	4	27.719	0	2748.484	0	77.2	4	23.1	4	-1E+10	1	-1E+10	1	-1E+10	1	-1E+10	1	-1E+10	1	-1E+10	1
4902642	19	C	12/27/2024	09:59	-132.127	45.972	0	2809.70	0	1.6880	0	34.6370	4	27.720	0	2768.159	0	77.8	4	23.3	4	-1E+10	1	-1E+10	1	-1E+10	1	-1E+10	1	-1E+10	1	-1E+10	1
4902642	19	C	12/27/2024	09:59	-132.127	45.972	0	2829.70	0	1.6820	0	34.6380	4	27.721	0	2787.734	0	78.4	4	23.5	4	-1E+10	1	-1E+10	1	-1E+10	1	-1E+10	1	-1E+10	1	-1E+10	1
4902642	19	C	12/27/2024	09:59	-132.127	45.972	0	2849.70	0	1.6780	0	34.6380	4	27.722	0	2807.308	0	79.1	4	23.7	4	-1E+10	1	-1E+10	1	-1E+10	1	-1E+10	1	-1E+10	1	-1E+10	1
4902642	19	C	12/27/2024	09:59	-132.127	45.972	0	2870.30	0	1.6740	0	34.6390	4	27.723	0	2827.467	0	79.6	4	23.8	4	-1E+10	1	-1E+10	1	-1E+10	1	-1E+10	1	-1E+10	1	-1E+10	1
4902642	19	C	12/27/2024	09:59	-132.127	45.972	0	2889.70	0	1.6710	0	34.6400	4	27.724	0	2846.450	0	80.1	4	24.0	4	-1E+10	1	-1E+10	1	-1E+10	1	-1E+10	1	-1E+10	1	-1E+10	1
4902642	19	C	12/27/2024	09:59	-132.127	45.972	0	2909.50	0	1.6690	0	34.6400	4	27.724	0	2865.823	0	80.6	4	24.1	4	-1E+10	1	-1E+10	1	-1E+10	1	-1E+10	1	-1E+10	1	-1E+10	1
4902642	19	C	12/27/2024	09:59	-132.127	45.972	0	2929.40	0	1.6660	0	34.6410	4	27.726	0	2885.291	0	81.1	4	24.3	4	-1E+10	1	-1E+10	1	-1E+10	1	-1E+10	1	-1E+10	1	-1E+10	1
4902642	19	C	12/27/2024	09:59	-132.127	45.972	0	2949.40	0	1.6610	0	34.6420	4	27.727	0	2904.856	0	81.8	4	24.5	4	-1E+10	1	-1E+10	1	-1E+10	1	-1E+10	1	-1E+10	1	-1E+10	1
4902642	19	C	12/27/2024	09:59	-132.127	45.972	0	2969.60	0	1.6570	0	34.6420	4	27.727	0	2924.615	0	82.4	4	24.7	4	-1E+10	1	-1E+10	1	-1E+10	1	-1E+10	1	-1E+10	1	-1E+10	1
4902642	19	C	12/27/2024	09:59	-132.127	45.972	0	2989.20	0	1.6540	0	34.6430	4	27.728	0	2943.785	0	82.9	4	24.8	4	-1E+10	1	-1E+10	1	-1E+10	1	-1E+10	1	-1E+10	1	-1E+10	1
4902642	19	C	12/27/2024	09:59	-132.127	45.972	0	3009.80	0	1.6530	0	34.6440	4	27.729	0	2963.931	0	83.4	4	24.9	4	-1E+10	1	-1E+10	1	-1E+10	1	-1E+10	1	-1E+10	1	-1E+10	1
4902642	19	C	12/27/2024	09:59	-132.127	45.972	0	3030.00	0	1.6490	0	34.6450	4	27.731	0	2983.684	0	84.0	4	25.1	4	-1E+10	1	-1E+10	1	-1E+10	1	-1E+10	1	-1E+10	1	-1E+10	1
4902642	19	C	12/27/2024	09:59	-132.127	45.972	0	3050.40	0	1.6430	0	34.6460	4	27.732	0	3003.631	0	85.0	4	25.4	4	-1E+10	1	-1E+10	1	-1E+10	1	-1E+10	1	-1E+10	1	-1E+10	1
4902642	19	C	12/27/2024	09:59	-132.127	45.972	0	3069.80	0	1.6390	0	34.6470	4	27.733	0	3022.599	0	85.5	4	25.6	4	-1E+10	1	-1E+10	1	-1E+10	1	-1E+10	1	-1E+10	1	-1E+10	1
4902642	19	C	12/27/2024	09:59	-132.127	45.972	0	3089.80	0	1.6350	0	34.6470	4	27.734	0	3042.151	0	86.2	4	25.8	4	-1E+10	1	-1E+10	1	-1E+10	1	-1E+10	1	-1E+10	1	-1E+10	1
4902642	19	C	12/27/2024	09:59	-132.127	45.972	0	3110.30	0	1.6330	0	34.6480	4	27.735	0	3062.191	0	86.7	4	25.9	4	-1E+10	1	-1E+10	1	-1E+10	1	-1E+10	1	-1E+10	1	-1E+10	1
4902642	19	C	12/27/2024	09:59	-132.127	45.972	0	3130.20	0	1.6260	0	34.6490	4	27.736	0	3081.642	0	87.7	4	26.2	4	-1E+10	1	-1E+10	1	-1E+10	1	-1E+10	1	-1E+10	1	-1E+10	1
4902642	19	C	12/27/2024	09:59	-132.127	45.972	0	3150.30	0	1.6230	0	34.6500	4	27.737	0	3101.287	0	88.4	4	26.4	4	-1E+10	1	-1E+10	1	-1E+10	1	-1E+10	1	-1E+10	1	-1E+10	1
4902642	19	C	12/27/2024	09:59	-132.127	45.972	0	3170.00	0	1.6190	0	34.6500	4	27.738	0	3120.539	0	89.1	4	26.6	4	-1E+10	1	-1E+10	1	-1E+10	1	-1E+10	1	-1E+10	1	-1E+10	1
4902642	19	C	12/27/2024	09:59	-132.127	45.972	0	3190.10	0	1.6130	0	34.6510	4	27.739	0	3140.180	0	90.1	4	26.9	4	-1E+10	1	-1E+10	1	-1E+10	1	-1E+10	1	-1E+10	1	-1E+10	1
4902642	19	C	12/27/2024	09:59	-132.127	45.972	0	3210.80	0	1.6070	0	34.6530	4	27.741	0	3160.406	0	91.0	4	27.2	4	-1E+10	1	-1E+10	1	-1E+10	1	-1E+10	1	-1E+10	1	-1E+10	1
4902642	19	C	12/27/2024	09:59	-132.127	45.972	0	3230.20	0	1.6050	0	34.6530	4	27.742	0	3179.360	0	91.5	4	27.3	4	-1E+10	1	-1E+10	1	-1E+10	1	-1E+10	1	-1E+10	1	-1E+10	1
4902642	19	C	12/27/2024	09:59	-132.127	45.972	0	3250.30	0	1.5980	0	34.6540	4	27.743	0	3198.996	0	92.7	4	27.7	4	-1E+10	1	-1E+10	1	-1E+10	1	-1E+10	1	-1E+10	1	-1E+10	1
4902642	19	C	12/27/2024	09:59	-132.127	45.972	0	3270.00	0	1.5910	0	34.6550	4	27.744	0	3218.240	0	93.6	4	27.9	4	-1E+10	1	-1E+10	1	-1E+10	1	-1E+10	1	-1E+10	1	-1E+10	1
4902642	19	C	12/27/2024	09:59	-132.127	45.972	0	3290.00	0	1.5870	0	34.6560	4	27.746	0	3237.774	0	94.4	4	28.2	4	-1E+10	1	-1E+10	1	-1E+10	1	-1E+10	1	-1E+10	1	-1E+10	1
4902642	19	C	12/27/2024	09:59	-132.127	45.972	0	3310.10	0	1.5830	0	34.6570	4	27.747	0	3257.405	0	95.0	4	28.4	4	-1E+10	1	-1E+10	1	-1E+10	1	-1E+10	1	-1E+10	1	-1E+10	1
4902642	19	C	12/27/2024	09:59	-132.127	45.972	0	3330.20	0	1.5790	0	34.6580	4	27.748	0	3277.034	0	95.6	4	28.5	4	-1E+10	1	-1E+10	1	-1E+10	1	-1E+10	1	-1E+10	1	-1E+10	1
4902642	19	C	12/27/2024	09:59	-132.127	45.972	0	3350.30	0	1.5760	0	34.6590	4	27.749	0	3296.661	0	96.3	4	28.7	4	-1E+10	1	-1E+10	1	-1E+10	1	-1E+10	1	-1E+10	1	-1E+10	1
4902642	19	C	12/27/2024	09:59	-132.127	45.972	0	3369.80	0	1.5720	0	34.6600	4	27.750	0	3315.701	0	96.7	4	28.9	4	-1E+10	1	-1E+10	1	-1E+10	1	-1E+10	1	-1E+10	1	-1E+10	1
4902642	19	C	12/27/2024	09:59	-132.127	45.972	0	3390.00	0	1.5690	0	34.6610	4	27.752	0	3335.422	0	97.0	4	29.0	4	-1E+10	1	-1E+10	1	-1E+10	1	-1E+10	1	-1E+10	1	-1E+10	1
4902642	19	C	12/27/2024	09:59	-132.127	45.972	0	3411.10	0	1.5700	0	34.6610	4	27.752	0	3356.021	0	96.8	4	28.9	4	-1E+10	1	-1E+10	1	-1E+10	1	-1E+10	1	-1E+10	1	-1E+10	1
4902642	19	C	12/27/2024	09:59	-132.127	45.972	0																										
4902642	20	C	01/06/2025	10:30	-132.212	46.050	0	0.90	0	10.5810	0	32.5040	0	24.906	0	0.893	0	243.3	4	88.1	4	-1E+10	1	-1E+10	1	-1E+10	1	-1E+10	1	-1E+10	1	-1E+10	1
4902642	20	C	01/06/2025	10:30	-132.212	46.050	0	1.00	0	10.5840	0	32.5050	0	24.906	0	0.992	0	243.3	4	88.1	4	-1E+10	1	-1E+10	1	-1E+10	1	-1E+10	1	-1E+10	1	-1E+10	1
4902642	20	C	01/06/2025	10:30	-132.212	46.050	0	1.50	0	10.5880	0	32.5030	0	24.904	0	1.488	0	243.2	4	88.1	4	-1E+10	1	-1E+10	1	-1E+10	1	-1E+10	1	-1E+10	1	-1E+10	1
4902642	20	C	01/06/2025	10:30	-132.212	46.050	0	2.50	0	10.5870	0	32.5040	0	24.905	0	2.479	0	242.6	4	87.9	4	-1E+10	1	-1E+10	1	-1E+10	1	-1E+10	1	-1E+10	1	-1E+10	1
4902642	20	C	01/06/2025	10:30	-132.212	46.050	0	3.50	0	10.5880	0	32.5040	0	24.905	0	3.471	0	242.6	4	87.9	4	-1E+10	1	-1E+10	1	-1E+10	1	-1E+10	1	-1E+10	1	-1E+10	1
4902642	20	C	01/06/2025	10:30	-132.212	46.050	0	4.50	0	10.5880	0	32.5040	0	24.905	0	4.463	0	242.5	4	87.9	4	-1E+10	1	-1E+10	1	-1E+10	1	-1E+10	1	-1E+10	1	-1E+10	1
4902642	20	C	01/06/2025	10:30	-132.212	46.050	0	5.50	0	10.5880	0	32.5050	0	24.905	0	5.455	0	242.5	4	87.9	4	-1E+10	1	-1E+10	1	-1E+10	1	-1E+10	1	-1E+10	1	-1E+10	1
4902642	20	C	01/06/2025	10:30	-132.212	46.050	0	6.70	0	10.5880	0	32.5060	0	24.906	0	6.645	0	242.5	4	87.9	4	-1E+10	1	-1E+10	1	-1E+10	1	-1E+10	1	-1E+10	1	-1E+10	1
4902642	20	C	01/06/2025	10:30	-132.212	46.050	0	7.50	0	10.5880	0	32.5060	0	24.906	0	7.438	0	242.5	4	87.8	4	-1E+10	1	-1E+10	1	-1E+10	1	-1E+10	1	-1E+10	1	-1E+10	1
4902642	20	C	01/06/2025	10:30	-132.212	46.050	0	8.60	0	10.5870	0	32.5070	0	24.907	0	8.529	0	242.6	4	87.9	4	-1E+10	1	-1E+10	1	-1E+10	1	-1E+10	1	-1E+10	1	-1E+10	1
4902642	20	C	01/06/2025	10:30	-132.212	46.050	0	9.70	0	10.5880	0	32.5060	0	24.906	0	9.620	0	242.5	4	87.9	4	-1E+10	1	-1E+10	1	-1E+10	1	-1E+10	1	-1E+10	1	-1E+10	1
4902642	20	C	01/06/2025	10:30	-132.212	46.050	0	15.60	0	10.5880	0	32.5060	0	24.906	0	15.471	0	242.4	4	87.8	4	-1E+10	1	-1E+10	1	-1E+10	1	-1E+10	1	-1E+10	1	-1E+10	1
4902642	20	C	01/06/2025	10:30	-132.212	46.050	0	24.80	0	10.5910	0	32.5040	0	24.905	0	24.595	0	242.1	4	87.7	4	-1E+10	1	-1E+10	1	-1E+10	1	-1E+10	1	-1E+10	1	-1E+10	1
4902642	20	C	01/06/2025	10:30	-132.212	46.050	0	34.80	0	10.5960	0	32.5000	0	24.901	0	34.511	0	241.9	4	87.6	4	-1E+10	1	-1E+10	1	-1E+10	1	-1E+10	1	-1E+10	1	-1E+10	1
4902642	20	C	01/06/2025	10:30	-132.212	46.050	0	45.00	0	10.5990	0	32.4940	0	24.896	0	44.626	0	241.5	4	87.5	4	-1E+10	1	-1E+10	1	-1E+10	1	-1E+10	1	-1E+10	1	-1E+10	1
4902642	20	C	01/06/2025	10:30	-132.212	46.050	0	55.40	0	10.6050	0	32.4840	0	24.887	0	54.938	0	240.8	4	87.2	4	-1E+10	1	-1E+10	1	-1E+10	1	-1E+10	1	-1E+10	1	-1E+10	1
4902642	20	C	01/06/2025	10:30	-132.212	46.050	0	64.60	0	10.6060	0	32.4720	0	24.878	0	64.059	0	239.7	4	86.8	4	-1E+10	1	-1E+10	1	-1E+10	1	-1E+10	1	-1E+10	1	-1E+10	1
4902642	20	C	01/06/2025	10:30	-132.212	46.050	0	75.30	0	10.5990	0	32.4970	0	24.899	0	74.668	0	235.9	4	85.5	4	-1E+10	1	-1E+10	1	-1E+10	1	-1E+10	1	-1E+10	1	-1E+10	1
4902642	20	C	01/06/2025	10:30	-132.212	46.050	0	84.80	0	9.9350	0	32.5880	0	25.082	0	84.086	0	226.1	4	80.8	4	-1E+10	1	-1E+10	1	-1E+10	1	-1E+10	1	-1E+10	1	-1E+10	1
4902642	20	C	01/06/2025	10:30	-132.212	46.050	0	95.40	0	8.7110	0	32.8810	0	25.506	0	94.595	0	213.9	4	74.6	4	-1E+10	1	-1E+10	1	-1E+10	1	-1E+10	1	-1E+10	1	-1E+10	1
4902642	20	C	01/06/2025	10:30	-132.212	46.050	0	104.90	0	8.2150	0	33.0200	0	25.689	0	104.012	0	204.6	4	70.6	4	-1E+10	1	-1E+10	1	-1E+10	1	-1E+10	1	-1E+10	1	-1E+10	1
4902642	20	C	01/06/2025	10:30	-132.212	46.050	0	115.20	0	8.0550	0	33.2810	0	25.918	0	114.222	0	200.9	4	69.2	4	-1E+10	1	-1E+10	1	-1E+10	1	-1E+10	1	-1E+10	1	-1E+10	1
4902642	20	C	01/06/2025	10:30	-132.212	46.050	0	125.00	0	8.0170	0	33.4650	0	26.068	0	123.936	0	199.2	4	68.7	4	-1E+10	1	-1E+10	1	-1E+10	1	-1E+10	1	-1E+10	1	-1E+10	1
4902642	20	C	01/06/2025	10:30	-132.212	46.050	0	134.60	0	7.8740	0	33.5370	0	26.146	0	133.451	0	197.0	4	67.7	4	-1E+10	1	-1E+10	1	-1E+10	1	-1E+10	1	-1E+10	1	-1E+10	1
4902642	20	C	01/06/2025	10:30	-132.212	46.050	0	144.70	0	7.5940	0	33.5850	0	26.224	0	143.461	0	194.4	4	66.5	4	-1E+10	1	-1E+10	1	-1E+10	1	-1E+10	1	-1E+10	1	-1E+10	1
4902642	20	C	01/06/2025	10:30	-132.212	46.050	0	155.50	0	7.2840	0	33.6300	0	26.303	0	154.165	0	190.5	4	64.7	4	-1E+10	1	-1E+10	1	-1E+10	1	-1E+10	1	-1E+10	1	-1E+10	1
4902642	20	C	01/06/2025	10:30	-132.212	46.050	0	165.00	0	7.0970	0	33.6740	0	26.363	0	163.579	0	185.4	4	62.7	4	-1E+10	1	-1E+10	1	-1E+10	1	-1E+10	1	-1E+10	1	-1E+10	1
4902642	20	C	01/06/2025	10:30	-132.212	46.050	0	175.10	0	6.9650	0	33.7140	0	26.413	0	173.588	0	179.3	4	60.5	4	-1E+10	1	-1E+10	1	-1E+10	1	-1E+10	1	-1E+10	1	-1E+10	1
4902642	20	C	01/06/2025	10:30	-132.212	46.050	0	185.10	0	6.8370	0	33.7260	0	26.440	0	183.497	0	173.7	4	58.4	4	-1E+10	1	-1E+10	1	-1E+10	1	-1E+10	1	-1E+10	1	-1E+10	1
4902642	20	C	01/06/2025	10:30	-132.212	46.050	0	194.60	0	6.7570	0	33.7560	0	26.474	0	192.911	0	166.8	4	56.0	4	-1E+10	1	-1E+10	1	-1E+10	1	-1E+10	1	-1E+10	1	-1E+10	1
4902642	20	C	01/06/2025	10:30	-132.212	46.050	0	209.40	0	6.5390	0	33.7790	0	26.521	0	207.575	0	153.1	4	51.2	4	-1E+10	1	-1E+10	1	-1E+10	1	-1E+10	1	-1E+10	1	-1E+10	1
4902642	20	C	01/06/2025	10:30	-132.212	46.050	0	229.50	0	6.2490	0	33.7950	0	26.572	0	227.489	0	137.6	4	45.7	4	-1E+10	1	-1E+10	1	-1E+10	1	-1E+10	1	-1E+10	1	-1E+10	1
4902642	20	C	01/06/2025	10:30	-132.212	46.050	0	250.00	0	5.9720	0	33.8010	0	26.612	0	247.797	0	127.7	4	42.1	4	-1E+10	1	-1E+10	1	-1E+10	1	-1E+10	1	-1E+10	1	-1E+10	1
4902642	20	C	01/06/2025	10:30	-132.212	46.050	0	269.50	0	5.6740	0	33.8140	0	26.659	0	267.112	0	111.1	4	36.4	4	-1E+10	1	-1E+10	1	-1E+10	1	-1E+10	1	-1E+10	1	-1E+10	1
4902642	20	C	01/06/2025	10:30	-132.212	46.050	0	289.60	0	5.5630	0	33.8380	0	26.691	0	287.020	0	95.3	4	31.2	4	-1E+10	1	-1E+10	1	-1E+10	1	-1E+10	1	-1E+10	1	-1E+10	1
4902642	20	C	01/06/2025	10:30	-132.212	46.050	0	309.40	0	5.3280	0	33.8520	0	26.730	0	306.629	0	84.8	4	27.6	4	-1E+10	1	-1E+10	1	-1E+10	1	-1E+10	1	-1E+10	1	-1E+10	1
4902642	20	C	01/06/2025	10:30	-132.212	46.050	0	329.80	0	5.2440	0	33.8820	0	26.764	0	326.830	0	69.7	4	22.6	4	-1E+10	1	-1E+10	1	-1E+10	1	-1E+10	1	-1E+10	1	-1E+10	1
4902642	20	C	01/06/2025	10:30	-132.212	46.050	0	350.10	0	5.3790	0	33.9500	0	26.802	0	346.931	0	52.6	4	17.1	4	-1E+10	1	-1E+10	1	-1E+10	1	-1E+10	1	-1E+10	1	-1E+10	1
4902642	20	C	01/06/2025	10:30	-132.212	46.050	0	370.00	0	5.4440	0	33.9880	0	26.825	0	366.633	0	45.9	4	15.0	4	-1E+10	1	-1E+10	1	-1E+10	1	-1E+10	1	-1E+10	1	-1E+10	1
4902642	20	C	01/06/2025	10:30	-132.212	46.050	0	389.80	0	5.2280	0	33.9840	0	26.847	0	386.234	0	45.8	4	14.9	4	-1E+10	1	-1E+10	1	-1E+10	1	-1E+10	1	-1E+10	1	-1E+10	1
4902642	20	C	01/06/2025	10:30	-132.212	46.050	0	409.80	0	5.0050	0	33.9810	0	26.871	0	406.032	0	43.8	4	14.1	4	-1E+10	1	-1E+10	1	-1E+10	1	-1E+10	1	-1E+10	1	-1E+10	1
4902642	20	C	01/06/2025	10:30	-132.212	46.050	0	429.70	0	4.8930	0	33.9970	0	26.896	0	425.728	0	39.9	4	12.8	4	-1E+10	1	-1E+10	1	-1E+10	1	-1E+10	1	-1E+10	1	-1E+10	1
4902642	20	C	01/06/2025	10:30	-132.212	46.050	0	450.50	0	4.8120	0	34.0150	0	26.920	0	446.314	0	35.8	4	11.5	4	-1E+10	1	-1E+10	1	-1E+10	1	-1E+10	1	-1E+10	1	-1E+10	1
4902642	20	C	01/06/2025	10:30	-132.212	46.050	0	469.70	0	4.7480	0	34.0320	0	26.940	0	465.314	0	32.6	4	10.5	4	-1E+10	1	-1E+10	1	-1E+10	1	-1E+10	1	-1E+10	1	-1E+10	1
4902642	20	C	01/06/2025	10:30	-132.212	46.050	0	489.20	0	4.7060	0	34.0480	0	26.958	0	484.609	0	29.0	4	9.3	4	-1E+10	1	-1E+10	1	-1E+10	1	-1E+10	1	-1E+10	1	-1E+10	1
4902642	20	C	01/06/2025	10:30	-132.212	46.050	0	509.60	0	4.6370	0	34.0660	0	26.980	0	504.793	0	25.2	4	8.1	4	-1E+10	1	-1E+10	1	-1E+10	1	-1E+10	1	-1E+10	1	-1E+10	1
4902642	20	C	01/06/2025	10:30	-132.212	46.050	0	530.30	0	4.6150	0	34.0940	0	27.005	0	525.271	0	20.6	4	6.6	4	-1E+10	1	-1E+10	1	-1E+10	1	-1E+10	1	-1E+10	1	-1E+10	1
4902642	20	C	01/06/2025	10:30	-132.212	46.050	0	549.60	0	4.5500	0	34.1120	0	27.026	0	544.363	0	18.8	4	6.0	4	-1E+10	1	-1E+10	1	-1E+10	1	-1E+10	1	-1E+10	1	-1E+10	1
4902642	20	C	01/06/2025	10:30	-132.212	46.050	0	570.00	0	4.4370	0	34.1180	0	27.043	0	564.541	0	18.4	4	5.9	4	-1E+10	1	-1E+10	1	-1E+10	1	-1E+10	1	-1E+10	1	-1E+10	1
4902642	20	C	01/06/2025	10:30	-132.212	46.050	0	589.90	0	4.4000	0	34.1290	0	27.056	0	584.223	0	16.5	4	5.3	4	-1E+10	1	-1E+10	1	-1E+10	1	-1E+10	1	-1E+10	1	-1E+10	1
4902642	20	C	01/06/2025	10:30	-132.212	46.050	0	609.70	0	4.3660	0	34.1410	0	27.069	0	603.803	0	15.9	4	5.1	4	-1E+10	1	-1E+10	1	-1E+10	1	-1E+10	1	-1E+10	1	-1E+10	1
4902642	20	C	01/06/2025	10:30	-132.212	46.050	0	629.80	0	4.1600	0	34.1450	0	27.094	0	623.679	0	16.7	4	5.3	4	-1E+10	1	-1E+10	1	-1E+10	1	-1E+10	1	-1E+10	1	-1E+10	1
4902642	20	C	01/06/2025	10:30	-132.212	46.050	0	649.80	0	4.0190	0	34.1560	0	27.118	0	643.453	0	15.7	4	5.0	4	-1E+10	1	-1E+10	1	-1E+10	1	-1E+10	1	-1E+10	1	-1E+10	1
4902642	20	C	01/06/2025	10:30	-132.212	46.050	0	669.90	0	3.9640	0	34.1700	0	27.135	0	663.325	0	13.8	4	4.3	4	-1E+10	1	-1E+10	1	-1E+10	1	-1E+10	1	-1E+10	1	-1E+10	1
4902642	20	C	01/06/2025	10:30	-132.212	46.050	0	689.90	0	3.9120	0	34.1890	0	27.155	0	683.096	0	11.6	4	3.6	4	-1E+10	1	-1E+10	1	-1E+10	1	-1E+10	1	-1E+10	1	-1E+10	1
4902642	20	C	01/06/2025	10:30	-132.212	46.050	0	709.20	0	3.8590	0	34.2070	0	27.175	0	702.173	0	10.3	4	3.2	4	-1E+10	1	-1E+10	1	-1E+10	1	-1E+10	1	-1E+10	1	-1E+10	1
4902642	20	C	01/06/2025	10:30	-132.212	46.050	0	729.80	0	3.7880	0	34.2210	0	27.193	0	722.534	0	9.5	4	3.0	4	-1E+10	1	-1E+10	1	-1E+10	1	-1E+10	1	-1E+10	1	-1E+10	1
4902642	20	C	01/06/2025	10:30	-132.212	46.050	0	749.50	0	3.7440	0	34.2330	0	27.207	0	742.002	0	8.9	4	2.8	4	-1E+10	1	-1E+10	1	-1E+10	1	-1E+10	1	-1E+10	1	-1E+10	1
4902642	20	C	01/06/2025	10:30	-132.212	46.050	0	769.80	0	3.6910	0	34.2510	0	27.227	0	762.062	0	8.0	4	2.5	4	-1E+10	1	-1E+10	1	-1E+10	1	-1E+10	1	-1E+10	1	-1E+10	1
4902642	20	C	01/06/2025	10:30	-132.212	46.050	0	790.20	0	3.6510	0	34.2630	0	27.241	0	782.219	0	7.4	4	2.3	4	-1E+10	1	-1E+10	1	-1E+10	1	-1E+10	1	-1E+10	1	-1E+10	1
4902642	20	C	01/06/2025	10:30	-132.212	46.050	0	809.90	0	3.6230	0	34.2750	0	27.253	0	801.682	0	6.9	4	2.2	4	-1E+10	1	-1E+10	1	-1E+10	1	-1E+10	1	-1E+10	1	-1E+10	1
4902642	20	C	01/06/2025	10:30	-132.212	46.050	0	829.80	0	3.6250	0	34.2870	0	27.263	0	821.341	0	6.3	4	2.0	4	-1E+10	1	-1E+10	1	-1E+10	1	-1E+10	1	-1E+10	1	-1E+10	1
4902642	20	C	01/06/2025	10:30	-132.212	46.050	0	849.80	0	3.6490	0	34.3050	0	27.275	0	841.097	0	5.9	4	1.8	4	-1E+10	1	-1E+10	1	-1E+10	1	-1E+10	1	-1E+10	1	-1E+10	1
4902642	20	C	01/06/2025	10:30	-132.212	46.050	0	869.70	0	3.6190	0	34.3080	0	27.280	0	860.752	0	5.7	4	1.8	4	-1E+10	1	-1E+10	1	-1E+10	1	-1E+10	1	-1E+10	1	-1E+10	1
4902642	20	C	01/06/2025	10:30	-132.212	46.050	0	889.80	0	3.6260	0	34.3250	0	27.293	0	880.603	0	5.4	4	1.7	4	-1E+10	1	-1E+10	1	-1E+10	1	-1E+10	1	-1E+10	1	-1E+10	1
4902642	20	C	01/06/2025	10:30	-132.212	46.050	0	909.90	0	3.6140	0	34.3350	0	27.303	0	900.452	0	5.4	4	1.7	4	-1E+10	1	-1E+10	1	-1E+10	1	-1E+10	1	-1E+10	1	-1E+10	1
4902642	20	C	01/06/2025	10:30	-132.212	46.050	0	929.90	0	3.5670	0	34.3470	0	27.317	0	920.201	0	5.5	4	1.7	4	-1E+10	1	-1E+10	1	-1E+10	1	-1E+10	1	-1E+10	1	-1E+10	1
4902642	20	C	01/06/2025	10:30	-132.212	46.050	0	949.70	0	3.4890	0	34.3510	0	27.328	0	939.750	0	5.6	4	1.8	4	-1E+10	1	-1E+10	1	-1E+10	1	-1E+10	1	-1E+10	1	-1E+10	1
4902642	20	C	01/06/2025	10:30	-132.212	46.050	0	968.90	0	3.4970	0	34.3720	0	27.344	0	958.705	0	5.9	4	1.9	4	-1E+10	1	-1E+10	1	-1E+10	1	-1E+10	1	-1E+10	1	-1E+10	1
4902642	20	C	01/06/2025	10:30	-132.212	46.050	0	989.70	0	3.5020	0	34.3870	0	27.355	0	979.237	0	6.4	4	2.0	4	-1E+10	1	-1E+10	1	-1E+10	1	-1E+10	1	-1E+10	1	-1E+10	1
4902642	20	C	01/06/2025	10:30	-132.212	46.050	0	1009.90	0	3.4770	0	34.4000	0	27.368	0	999.176	0	6.9	4	2.1	4	-1E+10	1	-1E+10	1	-1E+10	1	-1E+10	1	-1E+10	1	-1E+10	1
4902642	20	C	01/06/2025	10:30	-132.212	46.050	0	1030.00	0	3.4470	0	34.4060	0	27.376	0	1019.013	0	7.2	4	2.3	4	-1E+10	1	-1E+10	1	-1E+10	1	-1E+10	1	-1E+10	1	-1E+10	1
4902642	20	C	01/06/2025	10:30	-132.212	46.050	0	1050.00	0	3.3970	0	34.4130	0	27.387	0	1038.750	0	7.6	4	2.4	4	-1E+10	1	-1E+10	1	-1E+10	1	-1E+10	1	-1E+10	1	-1E+10	1
4902642	20	C	01/06/2025	10:30	-132.212	46.050	0	1070.00	0	3.3340	0	34.4220	0	27.400	0	1058.486	0	8.2	4	2.5	4	-1E+10	1	-1E+10	1	-1E+10	1	-1E+10	1	-1E+10	1	-1E+10	1
4902642	20	C	01/06/2025	10:30	-132.212	46.050	0	1089.90	0	3.2890	0	34.4280	0	27.409	0	1078.120	0	8.6	4	2.7	4	-1E+10	1	-1E+10	1	-1E+10	1	-1E+10	1	-1E+10	1	-1E+10	1
4902642	20	C	01/06/2025	10:30	-132.212	46.050	0	1109.60	0	3.2380	0	34.4330	0	27.418	0	1097.556	0	9.0	4	2.8	4	-1E+10	1	-1E+10	1	-1E+10	1	-1E+10	1	-1E+10	1	-1E+10	1
4902642	20	C	01/06/2025	10:30	-132.212	46.050	0	1129.80	0	3.1890	0	34.4380	0	27.426	0	1117.483	0	9.4	4	2.9	4	-1E+10	1	-1E+10	1	-1E+10	1	-1E+10	1	-1E+10	1	-1E+10	1
4902642	20	C	01/06/2025	10:30	-132.212	46.050	0	1150.00	0	3.1380	0	34.4430	0	27.435	0	1137.408	0	9.9	4	3.1	4	-1E+10	1	-1E+10	1	-1E+10	1	-1E+10	1	-1E+10	1	-1E+10	1
4902642	20	C	01/06/2025	10:30	-132.212	46.050	0	1170.50	0	3.0930	0	34.4480	0	27.443	0	1157.627	0	10.2	4	3.2	4	-1E+10	1	-1E+10	1	-1E+10	1	-1E+10	1	-1E+10	1	-1E+10	1
4902642	20	C	01/06/2025	10:30	-132.212	46.050	0	1189.40	0	3.0450	0	34.4530	0	27.452	0	1176.267	0	10.7	4	3.3	4	-1E+10	1	-1E+10	1	-1E+10	1	-1E+10	1	-1E+10	1	-1E+10	1
4902642	20	C	01/06/2025	10:30	-132.212	46.050	0	1209.50	0	3.0110	0	34.4580	0	27.459	0	1196.088	0	11.3	4	3.5	4	-1E+10	1	-1E+10	1	-1E+10	1	-1E+10	1	-1E+10	1	-1E+10	1
4902642	20	C	01/06/2025	10:30	-132.212	46.050	0	1230.00	0	2.9670	0	34.4630	0	27.467	0	1216.301	0	12.0	4	3.7	4	-1E+10	1	-1E+10	1	-1E+10	1	-1E+10	1	-1E+10	1	-1E+10	1
4902642	20	C	01/06/2025	10:30	-132.212	46.050	0	1249.90	0	2.9320	0	34.4670	0	27.474	0	1235.921	0	12.5	4	3.9	4	-1E+10	1	-1E+10	1	-1E+10	1	-1E+10	1	-1E+10	1	-1E+10	1
4902642	20	C	01/06/2025	10:30	-132.212	46.050	0	1269.80	0	2.8930	0	34.4710	0	27.480	0	1255.539	0	13.2	4	4.1	4	-1E+10	1	-1E+10	1	-1E+10	1	-1E+10	1	-1E+10	1	-1E+10	1
4902642	20	C	01/06/2025	10:30	-132.212	46.050	0	1289.80	0	2.8560	0	34.4750	0	27.487	0	1275.254	0	13.9	4	4.3	4	-1E+10	1	-1E+10	1	-1E+10	1	-1E+10	1	-1E+10	1	-1E+10	1
4902642	20	C	01/06/2025	10:30	-132.212	46.050	0	1309.80	0	2.8220	0	34.4800	0	27.494	0	1294.967	0	14.6	4	4.5	4	-1E+10	1	-1E+10	1	-1E+10	1	-1E+10	1	-1E+10	1	-1E+10	1
4902642	20	C	01/06/2025	10:30	-132.212	46.050	0	1330.00	0	2.7930	0	34.4830	0	27.499	0	1314.875	0	15.3	4	4.7	4	-1E+10	1	-1E+10	1	-1E+10	1	-1E+10	1	-1E+10	1	-1E+10	1
4902642	20	C	01/06/2025	10:30	-132.212	46.050	0	1349.70	0	2.7600	0	34.4880	0	27.506	0	1334.289	0	16.3	4	5.0	4	-1E+10	1	-1E+10	1	-1E+10	1	-1E+10	1	-1E+10	1	-1E+10	1
4902642	20	C	01/06/2025	10:30	-132.212	46.050	0	1370.40	0	2.7270	0	34.4930	0	27.513	0	1354.686	0	17.2	4	5.3	4	-1E+10	1	-1E+10	1	-1E+10	1	-1E+10	1	-1E+10	1	-1E+10	1
4902642	20	C	01/06/2025	10:30	-132.212	46.050	0	1389.70	0	2.6940	0	34.4970	0	27.519	0	1373.702	0	18.2	4	5.6	4	-1E+10	1	-1E+10	1	-1E+10	1	-1E+10	1	-1E+10	1	-1E+10	1
4902642	20	C	01/06/2025	10:30	-132.212	46.050	0	1409.60	0	2.6500	0	34.5030	0	27.528	0	1393.307	0	19.2	4	5.9	4	-1E+10	1	-1E+10	1	-1E+10	1	-1E+10	1	-1E+10	1	-1E+10	1
4902642	20	C	01/06/2025	10:30	-132.212	46.050	0	1430.00	0	2.6130	0	34.5060	0	27.534	0	1413.403	0	20.2	4	6.2	4	-1E+10	1	-1E+10	1	-1E+10	1	-1E+10	1	-1E+10	1	-1E+10	1
4902642	20	C	01/06/2025	10:30	-132.212	46.050	0	1450.10	0	2.5750	0	34.5110	0	27.541	0	1433.201	0	21.4	4	6.5	4	-1E+10	1	-1E+10	1	-1E+10	1	-1E+10	1	-1E+10	1	-1E+10	1
4902642	20	C	01/06/2025	10:30	-132.212	46.050	0	1469.80	0	2.5390	0	34.5150	0	27.547	0	1452.604	0	22.6	4	6.9	4	-1E+10	1	-1E+10	1	-1E+10	1	-1E+10	1	-1E+10	1	-1E+10	1
4902642	20	C	01/06/2025	10:30	-132.212	46.050	0	1489.80	0	2.5050	0	34.5190	0	27.553	0	1472.301	0	23.6	4	7.2	4	-1E+10	1	-1E+10	1	-1E+10	1	-1E+10	1	-1E+10	1	-1E+10	1
4902642	20	C	01/06/2025	10:30	-132.212	46.050	0	1510.80	0	2.4750	0	34.5230	0	27.559	0	1492.980	0	24.5	4	7.5	4	-1E+10	1	-1E+10	1	-1E+10	1	-1E+10	1	-1E+10	1	-1E+10	1
4902642	20	C	01/06/2025	10:30	-132.212	46.050	0	1529.70	0	2.4480	0	34.5260	0	27.564	0	1511.589	0	25.4	4	7.7	4	-1E+10	1	-1E+10	1	-1E+10	1	-1E+10	1	-1E+10	1	-1E+10	1
4902642	20	C	01/06/2025	10:30	-132.212	46.050	0	1549.90	0	2.4230	0	34.5290	0	27.569	0	1531.477	0	26.3	4	8.0	4	-1E+10	1	-1E+10	1	-1E+10	1	-1E+10	1	-1E+10	1	-1E+10	1
4902642	20	C	01/06/2025	10:30	-132.212	46.050	0	1569.80	0	2.3930	0	34.5310	0	27.573	0	1551.068	0	27.3	4	8.3	4	-1E+10	1	-1E+10	1	-1E+10	1	-1E+10	1	-1E+10	1	-1E+10	1
4902642	20	C	01/06/2025	10:30	-132.212	46.050	0	1589.70	0	2.3610	0	34.5350	0	27.579	0	1570.656	0	28.3	4	8.6	4	-1E+10	1	-1E+10	1	-1E+10	1	-1E+10	1	-1E+10	1	-1E+10	1
4902642	20	C	01/06/2025	10:30	-132.212	46.050	0	1610.00	0	2.3300	0	34.5390	0	27.585	0	1590.637	0	29.7	4	9.0	4	-1E+10	1	-1E+10	1	-1E+10	1	-1E+10	1	-1E+10	1	-1E+10	1
4902642	20	C	01/06/2025	10:30	-132.212	46.050	0	1629.90	0	2.2970	0	34.5430	0	27.591	0	1610.222	0	31.2	4	9.5	4	-1E+10	1	-1E+10	1	-1E+10	1	-1E+10	1	-1E+10	1	-1E+10	1
4902642	20	C	01/06/2025	10:30	-132.212	46.050	0	1649.80	0	2.2640	0	34.5470	0	27.597	0	1629.805	0	32.8	4	10.0	4	-1E+10	1	-1E+10	1	-1E+10	1	-1E+10	1	-1E+10	1	-1E+10	1
4902642	20	C	01/06/2025	10:30	-132.212	46.050	0	1669.80	0	2.2270	0	34.5520	0	27.604	0	1649.485	0	34.4	4	10.4	4	-1E+10	1	-1E+10	1	-1E+10	1	-1E+10	1	-1E+10	1	-1E+10	1
4902642	20	C	01/06/2025	10:30	-132.212	46.050	0	1689.70	0	2.1950	0	34.5560	0	27.610	0	1669.065	0	35.7	4	10.8	4	-1E+10	1	-1E+10	1	-1E+10	1	-1E+10	1	-1E+10	1	-1E+10	1
4902642	20	C	01/06/2025	10:30	-132.212	46.050	0	1710.40	0	2.1740	0	34.5590	0	27.614	0	1689.429	0	36.8	4	11.1	4	-1E+10	1	-1E+10	1	-1E+10	1	-1E+10	1	-1E+10	1	-1E+10	1
4902642	20	C	01/06/2025	10:30	-132.212	46.050	0	1729.90	0	2.1520	0	34.5620	0	27.618	0	1708.612	0	37.9	4	11.5	4	-1E+10	1	-1E+10	1	-1E+10	1	-1E+10	1	-1E+10	1	-1E+10	1
4902642	20	C	01/06/2025	10:30	-132.212	46.050	0	1749.60	0	2.1290	0	34.5650	0	27.622	0	1727.989	0	39.1	4	11.8	4	-1E+10	1	-1E+10	1	-1E+10	1	-1E+10	1	-1E+10	1	-1E+10	1
4902642	20	C	01/06/2025	10:30	-132.212	46.050	0	1769.30	0	2.1090	0	34.5670	0	27.626	0	1747.365	0	39.9	4	12.1	4	-1E+10	1	-1E+10	1	-1E+10	1	-1E+10	1	-1E+10	1	-1E+10	1
4902642	20	C	01/06/2025	10:30	-132.212	46.050	0	1790.20	0	2.0890	0	34.5700	0	27.630	0	1767.919	0	40.9	4	12.4	4	-1E+10	1	-1E+10	1	-1E+10	1	-1E+10	1	-1E+10	1	-1E+10	1
4902642	20	C	01/06/2025	10:30	-132.212	46.050	0	1809.50	0	2.0780	0	34.5720	0	27.632	0	1786.898	0	41.7	4	12.6	4	-1E+10	1	-1E+10	1	-1E+10	1	-1E+10	1	-1E+10	1	-1E+10	1
4902642	20	C	01/06/2025	10:30	-132.212	46.050	0	1829.80	0	2.0640	0	34.5740	0	27.635	0	1806.858	0	42.6	4	12.9	4	-1E+10	1	-1E+10	1	-1E+10	1	-1E+10	1	-1E+10	1	-1E+10	1
4902642	20	C	01/06/2025	10:30	-132.212	46.050	0	1850.00	0	2.0490	0	34.5760	0	27.638	0	1826.718	0	43.7	4	13.2	4	-1E+10	1	-1E+10	1	-1E+10	1	-1E+10	1	-1E+10	1	-1E+10	1
4902642	20	C	01/06/2025	10:30	-132.212	46.050	0	1869.90	0	2.0330	0	34.5780	0	27.641	0	1846.281	0	44.7	4	13.5	4	-1E+10	1	-1E+10	1	-1E+10	1	-1E+10	1	-1E+10	1	-1E+10	1
4902642	20	C	01/06/2025	10:30	-132.212	46.050	0	1889.90	0	2.0210	0	34.5800	0	27.644	0	1865.941	0	45.5	4	13.7	4	-1E+10	1	-1E+10	1	-1E+10	1	-1E+10	1	-1E+10	1	-1E+10	1
4902642	20	C	01/06/2025	10:30	-132.212	46.050	0	1909.90	0	2.0110	0	34.5820	0	27.646	0	1885.598	0	46.1	4	13.9	4	-1E+10	1	-1E+10	1	-1E+10	1	-1E+10	1	-1E+10	1	-1E+10	1
4902642	20	C	01/06/2025	10:30	-132.212	46.050	0	1930.00	0	2.0020	0	34.5840	0	27.648	0	1905.353	0	47.0	4	14.2	4	-1E+10	1	-1E+10	1	-1E+10	1	-1E+10	1	-1E+10	1	-1E+10	1
4902642	20	C	01/06/2025	10:30	-132.212	46.050	0	1949.80	0	1.9900	0	34.5860	0	27.651	0	1924.811	0	47.9	4	14.4	4	-1E+10	1	-1E+10	1	-1E+10	1	-1E+10	1	-1E+10	1	-1E+10	1
4902642	20	C	01/06/2025	10:30	-132.212	46.050	0	1969.70	0	1.9840	0	34.5870	0	27.653	0	1944.365	0	48.4	4	14.6	4	-1E+10	1	-1E+10	1	-1E+10	1	-1E+10	1	-1E+10	1	-1E+10	1
4902642	20	C	01/06/2025	10:30	-132.212	46.050	0	1989.90	0	1.9770	0	34.5890	0	27.655	0	1964.212	0	49.0	4	14.8	4	-1E+10	1	-1E+10	1	-1E+10	1	-1E+10	1	-1E+10	1	-1E+10	1
4902642	20	C	01/06/2025	10:30	-132.212	46.050	0	2009.60	0	1.9680	0	34.5900	4	27.656	0	1983.566	0	49.8	4	15.0	4	-1E+10	1	-1E+10	1	-1E+10	1	-1E+10	1	-1E+10	1	-1E+10	1
4902642	20	C	01/06/2025	10:30	-132.212	46.050	0	2029.80	0	1.9550	0	34.5920	4	27.659	0	2003.409	0	50.8	4	15.3	4	-1E+10	1	-1E+10	1	-1E+10	1	-1E+10	1	-1E+10	1	-1E+10	1
4902642	20	C	01/06/2025	10:30	-132.212	46.050	0	2050.00	0	1.9420	0	34.5950	4	27.663	0	2023.251	0	51.7	4	15.6	4	-1E+10	1	-1E+10	1	-1E+10	1	-1E+10	1	-1E+10	1	-1E+10	1
4902642	20	C	01/06/2025	10:30	-132.212	46.050	0	2069.70	0	1.9310	0	34.5970	4	27.665	0	2042.600	0	52.6	4	15.8	4	-1E+10	1	-1E+10	1	-1E+10	1	-1E+10	1	-1E+10	1	-1E+10	1
4902642	20	C	01/06/2025	10:30	-132.212	46.050	0	2089.70	0	1.9170	0	34.5990	4	27.668	0	2062.241	0	53.7	4	16.2	4	-1E+10	1	-1E+10	1	-1E+10	1	-1E+10	1	-1E+10	1	-1E+10	1
4902642	20	C	01/06/2025	10:30	-132.212	46.050	0	2109.00	0	1.9060	0	34.6010	4	27.671	0	2081.194	0	54.6	4	16.4	4	-1E+10	1	-1E+10	1	-1E+10	1	-1E+10	1	-1E+10	1	-1E+10	1
4902642	20	C	01/06/2025	10:30	-132.212	46.050	0	2129.60	0	1.8950	0	34.6030	4	27.673	0	2101.421	0	55.4	4	16.7	4	-1E+10	1	-1E+10	1	-1E+10	1	-1E+10	1	-1E+10	1	-1E+10	1
4902642	20	C	01/06/2025	10:30	-132.212	46.050	0	2149.60	0	1.8880	0	34.6050	4	27.675	0	2121.057	0	56.3	4	16.9	4	-1E+10	1	-1E+10	1	-1E+10	1	-1E+10	1	-1E+10	1	-1E+10	1
4902642	20	C	01/06/2025	10:30	-132.212	46.050	0	2170.10	0	1.8810	0	34.6060	4	27.677	0	2141.182	0	57.0	4	17.1	4	-1E+10	1	-1E+10	1	-1E+10	1	-1E+10	1	-1E+10	1	-1E+10	1
4902642	20	C	01/06/2025	10:30	-132.212	46.050	0	2189.70	0	1.8730	0	34.6080	4	27.679	0	2160.422	0	57.7	4	17.3	4	-1E+10	1	-1E+10	1	-1E+10	1	-1E+10	1	-1E+10	1	-1E+10	1
4902642	20	C	01/06/2025	10:30	-132.212	46.050	0	2210.10	0	1.8670	0	34.6090	4	27.680	0	2180.445	0	58.3	4	17.5	4	-1E+10	1	-1E+10	1	-1E+10	1	-1E+10	1	-1E+10	1	-1E+10	1
4902642	20	C	01/06/2025	10:30	-132.212	46.050	0	2229.80	0	1.8620	0	34.6100	4	27.682	0	2199.780	0	58.9	4	17.7	4	-1E+10	1	-1E+10	1	-1E+10	1	-1E+10	1	-1E+10	1	-1E+10	1
4902642	20	C	01/06/2025	10:30	-132.212	46.050	0	2249.70	0	1.8560	0	34.6110	4	27.683	0	2219.308	0	59.5	4	17.9	4	-1E+10	1	-1E+10	1	-1E+10	1	-1E+10	1	-1E+10	1	-1E+10	1
4902642	20	C	01/06/2025	10:30	-132.212	46.050	0	2270.00	0	1.8500	0	34.6120	4	27.685	0	2239.228	0	60.1	4	18.0	4	-1E+10	1	-1E+10	1	-1E+10	1	-1E+10	1	-1E+10	1	-1E+10	1
4902642	20	C	01/06/2025	10:30	-132.212	46.050	0	2290.10	0	1.8420	0	34.6140	4	27.687	0	2258.950	0	60.8	4	18.3	4	-1E+10	1	-1E+10	1	-1E+10	1	-1E+10	1	-1E+10	1	-1E+10	1
4902642	20	C	01/06/2025	10:30	-132.212	46.050	0	2310.60	0	1.8360	0	34.6150	4	27.688	0	2279.062	0	61.4	4	18.5	4	-1E+10	1	-1E+10	1	-1E+10	1	-1E+10	1	-1E+10	1	-1E+10	1
4902642	20	C	01/06/2025	10:30	-132.212	46.050	0	2329.90	0	1.8310	0	34.6160	4	27.690	0	2297.995	0	62.0	4	18.6	4	-1E+10	1	-1E+10	1	-1E+10	1	-1E+10	1	-1E+10	1	-1E+10	1
4902642	20	C	01/06/2025	10:30	-132.212	46.050	0	2349.80	0	1.8270	0	34.6170	4	27.691	0	2317.515	0	62.4	4	18.8	4	-1E+10	1	-1E+10	1	-1E+10	1	-1E+10	1	-1E+10	1	-1E+10	1
4902642	20	C	01/06/2025	10:30	-132.212	46.050	0	2370.00	0	1.8230	0	34.6170	4	27.691	0	2337.328	0	63.0	4	18.9	4	-1E+10	1	-1E+10	1	-1E+10	1	-1E+10	1	-1E+10	1	-1E+10	1
4902642	20	C	01/06/2025	10:30	-132.212	46.050	0	2389.80	0	1.8170	0	34.6190	4	27.693	0	2356.746	0	63.6	4	19.1	4	-1E+10	1	-1E+10	1	-1E+10	1	-1E+10	1	-1E+10	1	-1E+10	1
4902642	20	C	01/06/2025	10:30	-132.212	46.050	0	2409.80	0	1.8110	0	34.6190	4	27.694	0	2376.359	0	64.3	4	19.3	4	-1E+10	1	-1E+10	1	-1E+10	1	-1E+10	1	-1E+10	1	-1E+10	1
4902642	20	C	01/06/2025	10:30	-132.212	46.050	0	2429.70	0	1.8040	0	34.6210	4	27.696	0	2395.871	0	65.0	4	19.5	4	-1E+10	1	-1E+10	1	-1E+10	1	-1E+10	1	-1E+10	1	-1E+10	1
4902642	20	C	01/06/2025	10:30	-132.212	46.050	0	2449.50	0	1.7990	0	34.6220	4	27.697	0	2415.284	0	65.6	4	19.7	4	-1E+10	1	-1E+10	1	-1E+10	1	-1E+10	1	-1E+10	1	-1E+10	1
4902642	20	C	01/06/2025	10:30	-132.212	46.050	0	2469.50	0	1.7950	0	34.6220	4	27.698	0	2434.892	0	66.1	4	19.8	4	-1E+10	1	-1E+10	1	-1E+10	1	-1E+10	1	-1E+10	1	-1E+10	1
4902642	20	C	01/06/2025	10:30	-132.212	46.050	0	2490.10	0	1.7860	0	34.6240	4	27.700	0	2455.086	0	66.9	4	20.1	4	-1E+10	1	-1E+10	1	-1E+10	1	-1E+10	1	-1E+10	1	-1E+10	1
4902642	20	C	01/06/2025	10:30	-132.212	46.050	0	2509.70	0	1.7800	0	34.6240	4	27.701	0	2474.297	0	67.4	4	20.2	4	-1E+10	1	-1E+10	1	-1E+10	1	-1E+10	1	-1E+10	1	-1E+10	1
4902642	20	C	01/06/2025	10:30	-132.212	46.050	0	2529.80	0	1.7760	0	34.6250	4	27.702	0	2493.997	0	68.0	4	20.4	4	-1E+10	1	-1E+10	1	-1E+10	1	-1E+10	1	-1E+10	1	-1E+10	1
4902642	20	C	01/06/2025	10:30	-132.212	46.050	0	2549.80	0	1.7720	0	34.6260	4	27.703	0	2513.597	0	68.6	4	20.6	4	-1E+10	1	-1E+10	1	-1E+10	1	-1E+10	1	-1E+10	1	-1E+10	1
4902642	20	C	01/06/2025	10:30	-132.212	46.050	0	2569.90	0	1.7640	0	34.6270	4	27.705	0	2533.294	0	69.3	4	20.8	4	-1E+10	1	-1E+10	1	-1E+10	1	-1E+10	1	-1E+10	1	-1E+10	1
4902642	20	C	01/06/2025	10:30	-132.212	46.050	0	2590.00	0	1.7580	0	34.6280	4	27.706	0	2552.988	0	70.0	4	21.0	4	-1E+10	1	-1E+10	1	-1E+10	1	-1E+10	1	-1E+10	1	-1E+10	1
4902642	20	C	01/06/2025	10:30	-132.212	46.050	0	2609.80	0	1.7530	0	34.6280	4	27.707	0	2572.387	0	70.6	4	21.2	4	-1E+10	1	-1E+10	1	-1E+10	1	-1E+10	1	-1E+10	1	-1E+10	1
4902642	20	C	01/06/2025	10:30	-132.212	46.050	0	2630.40	0	1.7470	0	34.6290	4	27.708	0	2592.568	0	71.3	4	21.4	4	-1E+10	1	-1E+10	1	-1E+10	1	-1E+10	1	-1E+10	1	-1E+10	1
4902642	20	C	01/06/2025	10:30	-132.212	46.050	0	2650.10	0	1.7400	0	34.6300	4	27.710	0	2611.865	0	72.1	4	21.6	4	-1E+10	1	-1E+10	1	-1E+10	1	-1E+10	1	-1E+10	1	-1E+10	1
4902642	20	C	01/06/2025	10:30	-132.212	46.050	0	2670.50	0	1.7300	0	34.6310	4	27.711	0	2631.846	0	73.0	4	21.9	4	-1E+10	1	-1E+10	1	-1E+10	1	-1E+10	1	-1E+10	1	-1E+10	1
4902642	20	C	01/06/2025	10:30	-132.212	46.050	0	2690.00	0	1.7230	0	34.6320	4	27.713	0	2650.944	0	73.8	4	22.1	4	-1E+10	1	-1E+10	1	-1E+10	1	-1E+10	1	-1E+10	1	-1E+10	1
4902642	20	C	01/06/2025	10:30	-132.212	46.050	0	2710.50	0	1.7180	0	34.6330	4	27.714	0	2671.020	0	74.4	4	22.3	4	-1E+10	1	-1E+10	1	-1E+10	1	-1E+10	1	-1E+10	1	-1E+10	1
4902642	20	C	01/06/2025	10:30	-132.212	46.050	0	2729.90	0	1.7120	0	34.6340	4	27.715	0	2690.016	0	75.2	4	22.5	4	-1E+10	1	-1E+10	1	-1E+10	1	-1E+10	1	-1E+10	1	-1E+10	1
4902642	20	C	01/06/2025	10:30	-132.212	46.050	0	2749.90	0	1.7050	0	34.6350	4	27.717	0	2709.599	0	75.9	4	22.7	4	-1E+10	1	-1E+10	1	-1E+10	1	-1E+10	1	-1E+10	1	-1E+10	1
4902642	20	C	01/06/2025	10:30	-132.212	46.050	0	2770.00	0	1.6990	0	34.6360	4	27.718	0	2729.277	0	76.5	4	22.9	4	-1E+10	1	-1E+10	1	-1E+10	1	-1E+10	1	-1E+10	1	-1E+10	1
4902642	20	C	01/06/2025	10:30	-132.212	46.050	0	2790.10	0	1.6970	0	34.6360	4	27.718	0	2748.954	0	77.0	4	23.1	4	-1E+10	1	-1E+10	1	-1E+10	1	-1E+10	1	-1E+10	1	-1E+10	1
4902642	20	C	01/06/2025	10:30	-132.212	46.050	0	2810.60	0	1.6920	0	34.6370	4	27.720	0	2769.020	0	77.6	4	23.2	4	-1E+10	1	-1E+10	1	-1E+10	1	-1E+10	1	-1E+10	1	-1E+10	1
4902642	20	C	01/06/2025	10:30	-132.212	46.050	0	2830.10	0	1.6890	0	34.6380	4	27.721	0	2788.106	0	78.1	4	23.4	4	-1E+10	1	-1E+10	1	-1E+10	1	-1E+10	1	-1E+10	1	-1E+10	1
4902642	20	C	01/06/2025	10:30	-132.212	46.050	0	2850.20	0	1.6850	0	34.6390	4	27.722	0	2807.777	0	78.7	4	23.6	4	-1E+10	1	-1E+10	1	-1E+10	1	-1E+10	1	-1E+10	1	-1E+10	1
4902642	20	C	01/06/2025	10:30	-132.212	46.050	0	2870.20	0	1.6810	0	34.6390	4	27.722	0	2827.349	0	79.2	4	23.7	4	-1E+10	1	-1E+10	1	-1E+10	1	-1E+10	1	-1E+10	1	-1E+10	1
4902642	20	C	01/06/2025	10:30	-132.212	46.050	0	2889.90	0	1.6790	0	34.6400	4	27.724	0	2846.625	0	79.7	4	23.9	4	-1E+10	1	-1E+10	1	-1E+10	1	-1E+10	1	-1E+10	1	-1E+10	1
4902642	20	C	01/06/2025	10:30	-132.212	46.050	0	2910.00	0	1.6740	0	34.6410	4	27.725	0	2866.291	0	80.3	4	24.0	4	-1E+10	1	-1E+10	1	-1E+10	1	-1E+10	1	-1E+10	1	-1E+10	1
4902642	20	C	01/06/2025	10:30	-132.212	46.050	0	2930.70	0	1.6720	0	34.6410	4	27.725	0	2886.542	0	80.8	4	24.2	4	-1E+10	1	-1E+10	1	-1E+10	1	-1E+10	1	-1E+10	1	-1E+10	1
4902642	20	C	01/06/2025	10:30	-132.212	46.050	0	2950.20	0	1.6680	0	34.6420	4	27.726	0	2905.618	0	81.4	4	24.3	4	-1E+10	1	-1E+10	1	-1E+10	1	-1E+10	1	-1E+10	1	-1E+10	1
4902642	20	C	01/06/2025	10:30	-132.212	46.050	0	2970.30	0	1.6650	0	34.6420	4	27.727	0	2925.279	0	81.9	4	24.5	4	-1E+10	1	-1E+10	1	-1E+10	1	-1E+10	1	-1E+10	1	-1E+10	1
4902642	20	C	01/06/2025	10:30	-132.212	46.050	0	2990.10	0	1.6600	0	34.6430	4	27.728	0	2944.644	0	82.7	4	24.7	4	-1E+10	1	-1E+10	1	-1E+10	1	-1E+10	1	-1E+10	1	-1E+10	1
4902642	20	C	01/06/2025	10:30	-132.212	46.050	0	3010.10	0	1.6550	0	34.6440	4	27.729	0	2964.203	0	83.4	4	25.0	4	-1E+10	1	-1E+10	1	-1E+10	1	-1E+10	1	-1E+10	1	-1E+10	1
4902642	20	C	01/06/2025	10:30	-132.212	46.050	0	3030.30	0	1.6500	0	34.6450	4	27.731	0	2983.957	0	84.3	4	25.2	4	-1E+10	1	-1E+10	1	-1E+10	1	-1E+10	1	-1E+10	1	-1E+10	1
4902642	20	C	01/06/2025	10:30	-132.212	46.050	0	3050.10	0	1.6430	0	34.6460	4	27.732	0	3003.317	0	85.2	4	25.5	4	-1E+10	1	-1E+10	1	-1E+10	1	-1E+10	1	-1E+10	1	-1E+10	1
4902642	20	C	01/06/2025	10:30	-132.212	46.050	0	3069.80	0	1.6380	0	34.6470	4	27.733	0	3022.577	0	86.0	4	25.7	4	-1E+10	1	-1E+10	1	-1E+10	1	-1E+10	1	-1E+10	1	-1E+10	1
4902642	20	C	01/06/2025	10:30	-132.212	46.050	0	3090.10	0	1.6330	0	34.6480	4	27.735	0	3042.423	0	86.5	4	25.9	4	-1E+10	1	-1E+10	1	-1E+10	1	-1E+10	1	-1E+10	1	-1E+10	1
4902642	20	C	01/06/2025	10:30	-132.212	46.050	0	3110.20	0	1.6310	0	34.6490	4	27.736	0	3062.071	0	87.1	4	26.0	4	-1E+10	1	-1E+10	1	-1E+10	1	-1E+10	1	-1E+10	1	-1E+10	1
4902642	20	C	01/06/2025	10:30	-132.212	46.050	0	3130.30	0	1.6250	0	34.6490	4	27.736	0	3081.718	0	88.1	4	26.3	4	-1E+10	1	-1E+10	1	-1E+10	1	-1E+10	1	-1E+10	1	-1E+10	1
4902642	20	C	01/06/2025	10:30	-132.212	46.050	0	3150.10	0	1.6190	0	34.6510	4	27.738	0	3101.069	0	89.0	4	26.6	4	-1E+10	1	-1E+10	1	-1E+10	1	-1E+10	1	-1E+10	1	-1E+10	1
4902642	20	C	01/06/2025	10:30	-132.212	46.050	0	3170.00	0	1.6120	0	34.6520	4	27.740	0	3120.517	0	90.0	4	26.9	4	-1E+10	1	-1E+10	1	-1E+10	1	-1E+10	1	-1E+10	1	-1E+10	1
4902642	20	C	01/06/2025	10:30	-132.212	46.050	0	3190.10	0	1.6060	0	34.6530	4	27.741	0	3140.158	0	90.8	4	27.1	4	-1E+10	1	-1E+10	1	-1E+10	1	-1E+10	1	-1E+10	1	-1E+10	1
4902642	20	C	01/06/2025	10:30	-132.212	46.050	0	3210.00	0	1.6030	0	34.6530	4	27.742	0	3159.602	0	91.6	4	27.4	4	-1E+10	1	-1E+10	1	-1E+10	1	-1E+10	1	-1E+10	1	-1E+10	1
4902642	20	C	01/06/2025	10:30	-132.212	46.050	0	3229.70	0	1.5950	0	34.6540	4	27.743	0	3178.849	0	92.7	4	27.7	4	-1E+10	1	-1E+10	1	-1E+10	1	-1E+10	1	-1E+10	1	-1E+10	1
4902642	20	C	01/06/2025	10:30	-132.212	46.050	0	3250.20	0	1.5890	0	34.6560	4	27.745	0	3198.875	0	93.7	4	28.0	4	-1E+10	1	-1E+10	1	-1E+10	1	-1E+10	1	-1E+10	1	-1E+10	1
4902642	20	C	01/06/2025	10:30	-132.212	46.050	0	3270.10	0	1.5810	0	34.6570	4	27.747	0	3218.314	0	94.9	4	28.3	4	-1E+10	1	-1E+10	1	-1E+10	1	-1E+10	1	-1E+10	1	-1E+10	1
4902642	20	C	01/06/2025	10:30	-132.212	46.050	0	3290.10	0	1.5750	0	34.6580	4	27.748	0	3237.849	0	95.7	4	28.6	4	-1E+10	1	-1E+10	1	-1E+10	1	-1E+10	1	-1E+10	1	-1E+10	1
4902642	20	C	01/06/2025	10:30	-132.212	46.050	0	3309.80	0	1.5700	0	34.6590	4	27.749	0	3257.089	0	96.3	4	28.8	4	-1E+10	1	-1E+10	1	-1E+10	1	-1E+10	1	-1E+10	1	-1E+10	1
4902642	20	C	01/06/2025	10:30	-132.212	46.050	0	3330.00	0	1.5680	0	34.6600	4	27.750	0	3276.815	0	96.8	4	28.9	4	-1E+10	1	-1E+10	1	-1E+10	1	-1E+10	1	-1E+10	1	-1E+10	1
4902642	20	C	01/06/2025	10:30	-132.212	46.050	0	3350.30	0	1.5650	0	34.6610	4	27.752	0	3296.638	0	97.3	4	29.0	4	-1E+10	1	-1E+10	1	-1E+10	1	-1E+10	1	-1E+10	1	-1E+10	1
4902642	20	C	01/06/2025	10:30	-132.212	46.050	0	3369.70	0	1.5630	0	34.6610	4	27.752	0	3315.580	0	97.6	4	29.1	4	-1E+10	1	-1E+10	1	-1E+10	1	-1E+10	1	-1E+10	1	-1E+10	1
4902642	20	C	01/06/2025	10:30	-132.212	46.050	0	3390.00	0	1.5630	0	34.6610	4	27.752	0	3335.399	0	97.6	4	29.1	4	-1E+10	1	-1E+10	1	-1E+10	1	-1E+10	1	-1E+10	1	-1E+10	1
4902642	20	C	01/06/2025	10:30	-132.212	46.050	0	3408.40	0	1.5650	0	34.6620	4	27.753	0	3353.361	0	97.3	4	29.0	4	-1E+10	1	-1E+10	1	-1E+10	1	-1E+10	1	-1E+10	1	-1E+10	1
4902642	20	C	01/06/2025	10:30	-132.212	46.050	0																										
4902642	21	C	01/16/2025	09:58	-132.186	46.061	0	0.60	0	10.3360	0	32.4880	0	24.935	0	0.595	0	248.0	4	89.4	4	-1E+10	1	-1E+10	1	-1E+10	1	-1E+10	1	-1E+10	1	-1E+10	1
4902642	21	C	01/16/2025	09:58	-132.186	46.061	0	0.70	0	10.3298	0	32.4900	0	24.938	0	0.694	0	248.0	4	89.3	4	-1E+10	1	-1E+10	1	-1E+10	1	-1E+10	1	-1E+10	1	-1E+10	1
4902642	21	C	01/16/2025	09:58	-132.186	46.061	0	0.80	0	10.3333	0	32.4873	0	24.935	0	0.793	0	248.0	4	89.3	4	-1E+10	1	-1E+10	1	-1E+10	1	-1E+10	1	-1E+10	1	-1E+10	1
4902642	21	C	01/16/2025	09:58	-132.186	46.061	0	0.90	0	10.3320	0	32.4890	0	24.937	0	0.893	0	-1e10	1	-1e10	1	-1E+10	1	-1E+10	1	-1E+10	1	-1E+10	1	-1E+10	1	-1E+10	1
4902642	21	C	01/16/2025	09:58	-132.186	46.061	0	1.00	0	10.3300	0	32.4950	0	24.942	0	0.992	0	247.8	4	89.3	4	-1E+10	1	-1E+10	1	-1E+10	1	-1E+10	1	-1E+10	1	-1E+10	1
4902642	21	C	01/16/2025	09:58	-132.186	46.061	0	1.40	0	10.3380	0	32.4900	0	24.936	0	1.388	0	247.6	4	89.2	4	-1E+10	1	-1E+10	1	-1E+10	1	-1E+10	1	-1E+10	1	-1E+10	1
4902642	21	C	01/16/2025	09:58	-132.186	46.061	0	2.10	0	10.3420	0	32.4870	0	24.933	0	2.083	0	247.6	4	89.2	4	-1E+10	1	-1E+10	1	-1E+10	1	-1E+10	1	-1E+10	1	-1E+10	1
4902642	21	C	01/16/2025	09:58	-132.186	46.061	0	3.10	0	10.3410	0	32.4880	0	24.934	0	3.075	0	247.6	4	89.2	4	-1E+10	1	-1E+10	1	-1E+10	1	-1E+10	1	-1E+10	1	-1E+10	1
4902642	21	C	01/16/2025	09:58	-132.186	46.061	0	4.10	0	10.3390	0	32.4880	0	24.935	0	4.066	0	247.5	4	89.2	4	-1E+10	1	-1E+10	1	-1E+10	1	-1E+10	1	-1E+10	1	-1E+10	1
4902642	21	C	01/16/2025	09:58	-132.186	46.061	0	5.20	0	10.3420	0	32.4880	0	24.934	0	5.157	0	247.5	4	89.2	4	-1E+10	1	-1E+10	1	-1E+10	1	-1E+10	1	-1E+10	1	-1E+10	1
4902642	21	C	01/16/2025	09:58	-132.186	46.061	0	6.10	0	10.3420	0	32.4870	0	24.933	0	6.050	0	247.5	4	89.2	4	-1E+10	1	-1E+10	1	-1E+10	1	-1E+10	1	-1E+10	1	-1E+10	1
4902642	21	C	01/16/2025	09:58	-132.186	46.061	0	7.20	0	10.3410	0	32.4880	0	24.934	0	7.141	0	247.6	4	89.2	4	-1E+10	1	-1E+10	1	-1E+10	1	-1E+10	1	-1E+10	1	-1E+10	1
4902642	21	C	01/16/2025	09:58	-132.186	46.061	0	8.30	0	10.3430	0	32.4880	0	24.934	0	8.232	0	247.5	4	89.2	4	-1E+10	1	-1E+10	1	-1E+10	1	-1E+10	1	-1E+10	1	-1E+10	1
4902642	21	C	01/16/2025	09:58	-132.186	46.061	0	9.50	0	10.3410	0	32.4870	0	24.934	0	9.422	0	247.5	4	89.2	4	-1E+10	1	-1E+10	1	-1E+10	1	-1E+10	1	-1E+10	1	-1E+10	1
4902642	21	C	01/16/2025	09:58	-132.186	46.061	0	14.30	0	10.3390	0	32.4880	0	24.935	0	14.182	0	247.4	4	89.1	4	-1E+10	1	-1E+10	1	-1E+10	1	-1E+10	1	-1E+10	1	-1E+10	1
4902642	21	C	01/16/2025	09:58	-132.186	46.061	0	25.10	0	10.3430	0	32.4880	0	24.934	0	24.892	0	247.2	4	89.1	4	-1E+10	1	-1E+10	1	-1E+10	1	-1E+10	1	-1E+10	1	-1E+10	1
4902642	21	C	01/16/2025	09:58	-132.186	46.061	0	33.90	0	10.3440	0	32.4880	0	24.934	0	33.619	0	247.1	4	89.0	4	-1E+10	1	-1E+10	1	-1E+10	1	-1E+10	1	-1E+10	1	-1E+10	1
4902642	21	C	01/16/2025	09:58	-132.186	46.061	0	44.80	0	10.3480	0	32.4880	0	24.934	0	44.427	0	246.9	4	89.0	4	-1E+10	1	-1E+10	1	-1E+10	1	-1E+10	1	-1E+10	1	-1E+10	1
4902642	21	C	01/16/2025	09:58	-132.186	46.061	0	54.80	0	10.3560	0	32.4880	0	24.933	0	54.343	0	246.6	4	88.9	4	-1E+10	1	-1E+10	1	-1E+10	1	-1E+10	1	-1E+10	1	-1E+10	1
4902642	21	C	01/16/2025	09:58	-132.186	46.061	0	65.10	0	10.3600	0	32.4890	0	24.933	0	64.555	0	246.0	4	88.7	4	-1E+10	1	-1E+10	1	-1E+10	1	-1E+10	1	-1E+10	1	-1E+10	1
4902642	21	C	01/16/2025	09:58	-132.186	46.061	0	75.20	0	10.3640	0	32.4900	0	24.933	0	74.569	0	244.7	4	88.2	4	-1E+10	1	-1E+10	1	-1E+10	1	-1E+10	1	-1E+10	1	-1E+10	1
4902642	21	C	01/16/2025	09:58	-132.186	46.061	0	85.40	0	10.3510	0	32.4950	0	24.940	0	84.681	0	239.9	4	86.4	4	-1E+10	1	-1E+10	1	-1E+10	1	-1E+10	1	-1E+10	1	-1E+10	1
4902642	21	C	01/16/2025	09:58	-132.186	46.061	0	94.70	0	9.8000	0	32.6270	0	25.135	0	93.901	0	230.3	4	82.1	4	-1E+10	1	-1E+10	1	-1E+10	1	-1E+10	1	-1E+10	1	-1E+10	1
4902642	21	C	01/16/2025	09:58	-132.186	46.061	0	105.50	0	8.9240	0	32.8340	0	25.436	0	104.607	0	222.2	4	77.8	4	-1E+10	1	-1E+10	1	-1E+10	1	-1E+10	1	-1E+10	1	-1E+10	1
4902642	21	C	01/16/2025	09:58	-132.186	46.061	0	114.90	0	8.5700	0	33.0030	0	25.623	0	113.924	0	212.9	4	74.1	4	-1E+10	1	-1E+10	1	-1E+10	1	-1E+10	1	-1E+10	1	-1E+10	1
4902642	21	C	01/16/2025	09:58	-132.186	46.061	0	125.50	0	8.3200	0	33.2590	0	25.861	0	124.431	0	201.2	4	69.7	4	-1E+10	1	-1E+10	1	-1E+10	1	-1E+10	1	-1E+10	1	-1E+10	1
4902642	21	C	01/16/2025	09:58	-132.186	46.061	0	135.00	0	8.0440	0	33.4960	0	26.089	0	133.847	0	195.0	4	67.3	4	-1E+10	1	-1E+10	1	-1E+10	1	-1E+10	1	-1E+10	1	-1E+10	1
4902642	21	C	01/16/2025	09:58	-132.186	46.061	0	144.60	0	7.8800	0	33.5600	0	26.163	0	143.362	0	192.1	4	66.1	4	-1E+10	1	-1E+10	1	-1E+10	1	-1E+10	1	-1E+10	1	-1E+10	1
4902642	21	C	01/16/2025	09:58	-132.186	46.061	0	154.70	0	7.6120	0	33.6400	0	26.264	0	153.372	0	189.7	4	64.9	4	-1E+10	1	-1E+10	1	-1E+10	1	-1E+10	1	-1E+10	1	-1E+10	1
4902642	21	C	01/16/2025	09:58	-132.186	46.061	0	165.00	0	7.4570	0	33.6880	0	26.324	0	163.579	0	185.9	4	63.4	4	-1E+10	1	-1E+10	1	-1E+10	1	-1E+10	1	-1E+10	1	-1E+10	1
4902642	21	C	01/16/2025	09:58	-132.186	46.061	0	175.10	0	7.3490	0	33.7260	0	26.369	0	173.588	0	180.9	4	61.6	4	-1E+10	1	-1E+10	1	-1E+10	1	-1E+10	1	-1E+10	1	-1E+10	1
4902642	21	C	01/16/2025	09:58	-132.186	46.061	0	184.80	0	7.1860	0	33.7540	0	26.414	0	183.200	0	174.1	4	59.0	4	-1E+10	1	-1E+10	1	-1E+10	1	-1E+10	1	-1E+10	1	-1E+10	1
4902642	21	C	01/16/2025	09:58	-132.186	46.061	0	194.70	0	7.0110	0	33.7730	0	26.453	0	193.010	0	167.1	4	56.5	4	-1E+10	1	-1E+10	1	-1E+10	1	-1E+10	1	-1E+10	1	-1E+10	1
4902642	21	C	01/16/2025	09:58	-132.186	46.061	0	210.10	0	6.7050	0	33.7910	0	26.509	0	208.268	0	156.0	4	52.4	4	-1E+10	1	-1E+10	1	-1E+10	1	-1E+10	1	-1E+10	1	-1E+10	1
4902642	21	C	01/16/2025	09:58	-132.186	46.061	0	229.50	0	6.4390	0	33.8100	0	26.559	0	227.488	0	134.5	4	44.8	4	-1E+10	1	-1E+10	1	-1E+10	1	-1E+10	1	-1E+10	1	-1E+10	1
4902642	21	C	01/16/2025	09:58	-132.186	46.061	0	250.00	0	6.1170	0	33.8320	0	26.618	0	247.796	0	113.3	4	37.5	4	-1E+10	1	-1E+10	1	-1E+10	1	-1E+10	1	-1E+10	1	-1E+10	1
4902642	21	C	01/16/2025	09:58	-132.186	46.061	0	269.60	0	6.0270	0	33.8590	0	26.651	0	267.211	0	92.6	4	30.6	4	-1E+10	1	-1E+10	1	-1E+10	1	-1E+10	1	-1E+10	1	-1E+10	1
4902642	21	C	01/16/2025	09:58	-132.186	46.061	0	289.70	0	6.0680	0	33.9040	0	26.681	0	287.119	0	76.8	4	25.4	4	-1E+10	1	-1E+10	1	-1E+10	1	-1E+10	1	-1E+10	1	-1E+10	1
4902642	21	C	01/16/2025	09:58	-132.186	46.061	0	309.70	0	6.0060	0	33.9260	0	26.707	0	306.926	0	67.9	4	22.5	4	-1E+10	1	-1E+10	1	-1E+10	1	-1E+10	1	-1E+10	1	-1E+10	1
4902642	21	C	01/16/2025	09:58	-132.186	46.061	0	330.00	0	5.9120	0	33.9430	0	26.732	0	327.028	0	63.1	4	20.8	4	-1E+10	1	-1E+10	1	-1E+10	1	-1E+10	1	-1E+10	1	-1E+10	1
4902642	21	C	01/16/2025	09:58	-132.186	46.061	0	349.90	0	5.6750	0	33.9370	0	26.757	0	346.732	0	62.5	4	20.5	4	-1E+10	1	-1E+10	1	-1E+10	1	-1E+10	1	-1E+10	1	-1E+10	1
4902642	21	C	01/16/2025	09:58	-132.186	46.061	0	369.90	0	5.4410	0	33.9320	0	26.781	0	366.533	0	61.8	4	20.1	4	-1E+10	1	-1E+10	1	-1E+10	1	-1E+10	1	-1E+10	1	-1E+10	1
4902642	21	C	01/16/2025	09:58	-132.186	46.061	0	390.00	0	5.0970	0	33.9220	0	26.813	0	386.432	0	59.5	4	19.3	4	-1E+10	1	-1E+10	1	-1E+10	1	-1E+10	1	-1E+10	1	-1E+10	1
4902642	21	C	01/16/2025	09:58	-132.186	46.061	0	410.30	0	4.9280	0	33.9450	0	26.851	0	406.526	0	52.0	4	16.8	4	-1E+10	1	-1E+10	1	-1E+10	1	-1E+10	1	-1E+10	1	-1E+10	1
4902642	21	C	01/16/2025	09:58	-132.186	46.061	0	429.50	0	4.8450	0	33.9660	0	26.877	0	425.530	0	46.4	4	14.9	4	-1E+10	1	-1E+10	1	-1E+10	1	-1E+10	1	-1E+10	1	-1E+10	1
4902642	21	C	01/16/2025	09:58	-132.186	46.061	0	449.60	0	4.8000	0	33.9880	0	26.899	0	445.423	0	41.0	4	13.2	4	-1E+10	1	-1E+10	1	-1E+10	1	-1E+10	1	-1E+10	1	-1E+10	1
4902642	21	C	01/16/2025	09:58	-132.186	46.061	0	470.20	0	4.7880	0	34.0210	0	26.927	0	465.808	0	33.9	4	10.9	4	-1E+10	1	-1E+10	1	-1E+10	1	-1E+10	1	-1E+10	1	-1E+10	1
4902642	21	C	01/16/2025	09:58	-132.186	46.061	0	489.50	0	4.7150	0	34.0480	0	26.957	0	484.905	0	28.9	4	9.3	4	-1E+10	1	-1E+10	1	-1E+10	1	-1E+10	1	-1E+10	1	-1E+10	1
4902642	21	C	01/16/2025	09:58	-132.186	46.061	0	509.70	0	4.6690	0	34.0680	0	26.978	0	504.891	0	25.3	4	8.1	4	-1E+10	1	-1E+10	1	-1E+10	1	-1E+10	1	-1E+10	1	-1E+10	1
4902642	21	C	01/16/2025	09:58	-132.186	46.061	0	529.80	0	4.6370	0	34.0830	0	26.994	0	524.776	0	22.5	4	7.2	4	-1E+10	1	-1E+10	1	-1E+10	1	-1E+10	1	-1E+10	1	-1E+10	1
4902642	21	C	01/16/2025	09:58	-132.186	46.061	0	549.60	0	4.6020	0	34.1030	0	27.013	0	544.362	0	19.2	4	6.2	4	-1E+10	1	-1E+10	1	-1E+10	1	-1E+10	1	-1E+10	1	-1E+10	1
4902642	21	C	01/16/2025	09:58	-132.186	46.061	0	569.50	0	4.5420	0	34.1240	0	27.037	0	564.046	0	16.6	4	5.3	4	-1E+10	1	-1E+10	1	-1E+10	1	-1E+10	1	-1E+10	1	-1E+10	1
4902642	21	C	01/16/2025	09:58	-132.186	46.061	0	589.50	0	4.4830	0	34.1410	0	27.057	0	583.826	0	14.6	4	4.7	4	-1E+10	1	-1E+10	1	-1E+10	1	-1E+10	1	-1E+10	1	-1E+10	1
4902642	21	C	01/16/2025	09:58	-132.186	46.061	0	609.40	0	4.4520	0	34.1570	0	27.073	0	603.506	0	13.1	4	4.2	4	-1E+10	1	-1E+10	1	-1E+10	1	-1E+10	1	-1E+10	1	-1E+10	1
4902642	21	C	01/16/2025	09:58	-132.186	46.061	0	629.40	0	4.4270	0	34.1710	0	27.087	0	623.283	0	11.7	4	3.7	4	-1E+10	1	-1E+10	1	-1E+10	1	-1E+10	1	-1E+10	1	-1E+10	1
4902642	21	C	01/16/2025	09:58	-132.186	46.061	0	649.50	0	4.3320	0	34.1890	0	27.112	0	643.156	0	10.5	4	3.3	4	-1E+10	1	-1E+10	1	-1E+10	1	-1E+10	1	-1E+10	1	-1E+10	1
4902642	21	C	01/16/2025	09:58	-132.186	46.061	0	669.60	0	4.2270	0	34.1970	0	27.129	0	663.028	0	10.1	4	3.2	4	-1E+10	1	-1E+10	1	-1E+10	1	-1E+10	1	-1E+10	1	-1E+10	1
4902642	21	C	01/16/2025	09:58	-132.186	46.061	0	689.80	0	4.1910	0	34.2040	0	27.139	0	682.997	0	9.6	4	3.0	4	-1E+10	1	-1E+10	1	-1E+10	1	-1E+10	1	-1E+10	1	-1E+10	1
4902642	21	C	01/16/2025	09:58	-132.186	46.061	0	709.70	0	4.1660	0	34.2130	0	27.148	0	702.667	0	9.0	4	2.9	4	-1E+10	1	-1E+10	1	-1E+10	1	-1E+10	1	-1E+10	1	-1E+10	1
4902642	21	C	01/16/2025	09:58	-132.186	46.061	0	729.50	0	4.1310	0	34.2190	0	27.157	0	722.236	0	8.7	4	2.8	4	-1E+10	1	-1E+10	1	-1E+10	1	-1E+10	1	-1E+10	1	-1E+10	1
4902642	21	C	01/16/2025	09:58	-132.186	46.061	0	749.50	0	4.0660	0	34.2330	0	27.175	0	742.002	0	8.1	4	2.5	4	-1E+10	1	-1E+10	1	-1E+10	1	-1E+10	1	-1E+10	1	-1E+10	1
4902642	21	C	01/16/2025	09:58	-132.186	46.061	0	769.80	0	3.9880	0	34.2440	0	27.192	0	762.061	0	7.7	4	2.4	4	-1E+10	1	-1E+10	1	-1E+10	1	-1E+10	1	-1E+10	1	-1E+10	1
4902642	21	C	01/16/2025	09:58	-132.186	46.061	0	790.70	0	3.8770	0	34.2500	0	27.208	0	782.712	0	7.6	4	2.4	4	-1E+10	1	-1E+10	1	-1E+10	1	-1E+10	1	-1E+10	1	-1E+10	1
4902642	21	C	01/16/2025	09:58	-132.186	46.061	0	809.60	0	3.7990	0	34.2550	0	27.220	0	801.385	0	7.4	4	2.3	4	-1E+10	1	-1E+10	1	-1E+10	1	-1E+10	1	-1E+10	1	-1E+10	1
4902642	21	C	01/16/2025	09:58	-132.186	46.061	0	829.60	0	3.7170	0	34.2630	0	27.235	0	821.143	0	7.2	4	2.3	4	-1E+10	1	-1E+10	1	-1E+10	1	-1E+10	1	-1E+10	1	-1E+10	1
4902642	21	C	01/16/2025	09:58	-132.186	46.061	0	850.00	0	3.6580	0	34.2740	0	27.249	0	841.294	0	6.8	4	2.1	4	-1E+10	1	-1E+10	1	-1E+10	1	-1E+10	1	-1E+10	1	-1E+10	1
4902642	21	C	01/16/2025	09:58	-132.186	46.061	0	869.70	0	3.5910	0	34.2890	0	27.268	0	860.751	0	6.4	4	2.0	4	-1E+10	1	-1E+10	1	-1E+10	1	-1E+10	1	-1E+10	1	-1E+10	1
4902642	21	C	01/16/2025	09:58	-132.186	46.061	0	889.50	0	3.5450	0	34.3030	0	27.284	0	880.306	0	6.1	4	1.9	4	-1E+10	1	-1E+10	1	-1E+10	1	-1E+10	1	-1E+10	1	-1E+10	1
4902642	21	C	01/16/2025	09:58	-132.186	46.061	0	909.60	0	3.5150	0	34.3150	0	27.296	0	900.155	0	5.8	4	1.8	4	-1E+10	1	-1E+10	1	-1E+10	1	-1E+10	1	-1E+10	1	-1E+10	1
4902642	21	C	01/16/2025	09:58	-132.186	46.061	0	929.70	0	3.4860	0	34.3310	0	27.312	0	920.002	0	5.6	4	1.8	4	-1E+10	1	-1E+10	1	-1E+10	1	-1E+10	1	-1E+10	1	-1E+10	1
4902642	21	C	01/16/2025	09:58	-132.186	46.061	0	950.20	0	3.4340	0	34.3410	0	27.325	0	940.242	0	5.6	4	1.7	4	-1E+10	1	-1E+10	1	-1E+10	1	-1E+10	1	-1E+10	1	-1E+10	1
4902642	21	C	01/16/2025	09:58	-132.186	46.061	0	969.70	0	3.4180	0	34.3500	0	27.334	0	959.493	0	5.6	4	1.8	4	-1E+10	1	-1E+10	1	-1E+10	1	-1E+10	1	-1E+10	1	-1E+10	1
4902642	21	C	01/16/2025	09:58	-132.186	46.061	0	989.90	0	3.4240	0	34.3660	0	27.346	0	979.434	0	5.9	4	1.8	4	-1E+10	1	-1E+10	1	-1E+10	1	-1E+10	1	-1E+10	1	-1E+10	1
4902642	21	C	01/16/2025	09:58	-132.186	46.061	0	1009.70	0	3.4100	0	34.3880	0	27.365	0	998.977	0	6.5	4	2.0	4	-1E+10	1	-1E+10	1	-1E+10	1	-1E+10	1	-1E+10	1	-1E+10	1
4902642	21	C	01/16/2025	09:58	-132.186	46.061	0	1029.90	0	3.4160	0	34.4050	0	27.378	0	1018.914	0	7.1	4	2.2	4	-1E+10	1	-1E+10	1	-1E+10	1	-1E+10	1	-1E+10	1	-1E+10	1
4902642	21	C	01/16/2025	09:58	-132.186	46.061	0	1050.30	0	3.3880	0	34.4140	0	27.388	0	1039.045	0	7.6	4	2.4	4	-1E+10	1	-1E+10	1	-1E+10	1	-1E+10	1	-1E+10	1	-1E+10	1
4902642	21	C	01/16/2025	09:58	-132.186	46.061	0	1069.80	0	3.3460	0	34.4200	0	27.397	0	1058.287	0	7.9	4	2.5	4	-1E+10	1	-1E+10	1	-1E+10	1	-1E+10	1	-1E+10	1	-1E+10	1
4902642	21	C	01/16/2025	09:58	-132.186	46.061	0	1089.80	0	3.3150	0	34.4240	0	27.403	0	1078.021	0	8.2	4	2.5	4	-1E+10	1	-1E+10	1	-1E+10	1	-1E+10	1	-1E+10	1	-1E+10	1
4902642	21	C	01/16/2025	09:58	-132.186	46.061	0	1109.50	0	3.2890	0	34.4260	0	27.407	0	1097.456	0	8.4	4	2.6	4	-1E+10	1	-1E+10	1	-1E+10	1	-1E+10	1	-1E+10	1	-1E+10	1
4902642	21	C	01/16/2025	09:58	-132.186	46.061	0	1130.40	0	3.2160	0	34.4320	0	27.419	0	1118.074	0	8.7	4	2.7	4	-1E+10	1	-1E+10	1	-1E+10	1	-1E+10	1	-1E+10	1	-1E+10	1
4902642	21	C	01/16/2025	09:58	-132.186	46.061	0	1149.90	0	3.1760	0	34.4360	0	27.426	0	1137.308	0	9.1	4	2.8	4	-1E+10	1	-1E+10	1	-1E+10	1	-1E+10	1	-1E+10	1	-1E+10	1
4902642	21	C	01/16/2025	09:58	-132.186	46.061	0	1169.80	0	3.1290	0	34.4420	0	27.435	0	1156.936	0	9.6	4	3.0	4	-1E+10	1	-1E+10	1	-1E+10	1	-1E+10	1	-1E+10	1	-1E+10	1
4902642	21	C	01/16/2025	09:58	-132.186	46.061	0	1189.60	0	3.0850	0	34.4480	0	27.444	0	1176.463	0	10.1	4	3.1	4	-1E+10	1	-1E+10	1	-1E+10	1	-1E+10	1	-1E+10	1	-1E+10	1
4902642	21	C	01/16/2025	09:58	-132.186	46.061	0	1209.40	0	3.0610	0	34.4510	0	27.449	0	1195.988	0	10.4	4	3.2	4	-1E+10	1	-1E+10	1	-1E+10	1	-1E+10	1	-1E+10	1	-1E+10	1
4902642	21	C	01/16/2025	09:58	-132.186	46.061	0	1229.60	0	3.0360	0	34.4540	0	27.454	0	1215.905	0	10.8	4	3.4	4	-1E+10	1	-1E+10	1	-1E+10	1	-1E+10	1	-1E+10	1	-1E+10	1
4902642	21	C	01/16/2025	09:58	-132.186	46.061	0	1249.70	0	3.0020	0	34.4580	0	27.460	0	1235.722	0	11.4	4	3.5	4	-1E+10	1	-1E+10	1	-1E+10	1	-1E+10	1	-1E+10	1	-1E+10	1
4902642	21	C	01/16/2025	09:58	-132.186	46.061	0	1268.90	0	2.9690	0	34.4630	0	27.467	0	1254.650	0	12.2	4	3.8	4	-1E+10	1	-1E+10	1	-1E+10	1	-1E+10	1	-1E+10	1	-1E+10	1
4902642	21	C	01/16/2025	09:58	-132.186	46.061	0	1289.90	0	2.9100	0	34.4710	0	27.479	0	1275.351	0	13.2	4	4.1	4	-1E+10	1	-1E+10	1	-1E+10	1	-1E+10	1	-1E+10	1	-1E+10	1
4902642	21	C	01/16/2025	09:58	-132.186	46.061	0	1309.70	0	2.8680	0	34.4760	0	27.487	0	1294.867	0	14.0	4	4.3	4	-1E+10	1	-1E+10	1	-1E+10	1	-1E+10	1	-1E+10	1	-1E+10	1
4902642	21	C	01/16/2025	09:58	-132.186	46.061	0	1329.40	0	2.8190	0	34.4810	0	27.495	0	1314.282	0	14.9	4	4.6	4	-1E+10	1	-1E+10	1	-1E+10	1	-1E+10	1	-1E+10	1	-1E+10	1
4902642	21	C	01/16/2025	09:58	-132.186	46.061	0	1349.60	0	2.7790	0	34.4870	0	27.504	0	1334.189	0	15.9	4	4.9	4	-1E+10	1	-1E+10	1	-1E+10	1	-1E+10	1	-1E+10	1	-1E+10	1
4902642	21	C	01/16/2025	09:58	-132.186	46.061	0	1369.90	0	2.7390	0	34.4920	0	27.511	0	1354.192	0	16.9	4	5.2	4	-1E+10	1	-1E+10	1	-1E+10	1	-1E+10	1	-1E+10	1	-1E+10	1
4902642	21	C	01/16/2025	09:58	-132.186	46.061	0	1389.90	0	2.6940	0	34.4970	0	27.519	0	1373.897	0	18.0	4	5.5	4	-1E+10	1	-1E+10	1	-1E+10	1	-1E+10	1	-1E+10	1	-1E+10	1
4902642	21	C	01/16/2025	09:58	-132.186	46.061	0	1409.60	0	2.6530	0	34.5010	0	27.526	0	1393.306	0	18.9	4	5.8	4	-1E+10	1	-1E+10	1	-1E+10	1	-1E+10	1	-1E+10	1	-1E+10	1
4902642	21	C	01/16/2025	09:58	-132.186	46.061	0	1429.60	0	2.6140	0	34.5050	0	27.533	0	1413.007	0	19.8	4	6.1	4	-1E+10	1	-1E+10	1	-1E+10	1	-1E+10	1	-1E+10	1	-1E+10	1
4902642	21	C	01/16/2025	09:58	-132.186	46.061	0	1449.70	0	2.5640	0	34.5090	0	27.540	0	1432.806	0	21.0	4	6.4	4	-1E+10	1	-1E+10	1	-1E+10	1	-1E+10	1	-1E+10	1	-1E+10	1
4902642	21	C	01/16/2025	09:58	-132.186	46.061	0	1469.70	0	2.5230	0	34.5140	0	27.548	0	1452.504	0	22.1	4	6.8	4	-1E+10	1	-1E+10	1	-1E+10	1	-1E+10	1	-1E+10	1	-1E+10	1
4902642	21	C	01/16/2025	09:58	-132.186	46.061	0	1489.50	0	2.4970	0	34.5170	0	27.553	0	1472.004	0	23.0	4	7.0	4	-1E+10	1	-1E+10	1	-1E+10	1	-1E+10	1	-1E+10	1	-1E+10	1
4902642	21	C	01/16/2025	09:58	-132.186	46.061	0	1509.80	0	2.4660	0	34.5210	0	27.558	0	1491.994	0	24.1	4	7.4	4	-1E+10	1	-1E+10	1	-1E+10	1	-1E+10	1	-1E+10	1	-1E+10	1
4902642	21	C	01/16/2025	09:58	-132.186	46.061	0	1530.60	0	2.4310	0	34.5250	0	27.565	0	1512.474	0	25.3	4	7.7	4	-1E+10	1	-1E+10	1	-1E+10	1	-1E+10	1	-1E+10	1	-1E+10	1
4902642	21	C	01/16/2025	09:58	-132.186	46.061	0	1549.60	0	2.3970	0	34.5280	0	27.570	0	1531.180	0	26.4	4	8.0	4	-1E+10	1	-1E+10	1	-1E+10	1	-1E+10	1	-1E+10	1	-1E+10	1
4902642	21	C	01/16/2025	09:58	-132.186	46.061	0	1569.50	0	2.3600	0	34.5330	0	27.577	0	1550.771	0	28.1	4	8.6	4	-1E+10	1	-1E+10	1	-1E+10	1	-1E+10	1	-1E+10	1	-1E+10	1
4902642	21	C	01/16/2025	09:58	-132.186	46.061	0	1589.70	0	2.3250	0	34.5400	0	27.586	0	1570.655	0	29.8	4	9.1	4	-1E+10	1	-1E+10	1	-1E+10	1	-1E+10	1	-1E+10	1	-1E+10	1
4902642	21	C	01/16/2025	09:58	-132.186	46.061	0	1609.80	0	2.2950	0	34.5420	0	27.590	0	1590.438	0	30.9	4	9.4	4	-1E+10	1	-1E+10	1	-1E+10	1	-1E+10	1	-1E+10	1	-1E+10	1
4902642	21	C	01/16/2025	09:58	-132.186	46.061	0	1629.60	0	2.2670	0	34.5470	0	27.596	0	1609.925	0	32.3	4	9.8	4	-1E+10	1	-1E+10	1	-1E+10	1	-1E+10	1	-1E+10	1	-1E+10	1
4902642	21	C	01/16/2025	09:58	-132.186	46.061	0	1649.70	0	2.2440	0	34.5500	0	27.601	0	1629.705	0	33.2	4	10.1	4	-1E+10	1	-1E+10	1	-1E+10	1	-1E+10	1	-1E+10	1	-1E+10	1
4902642	21	C	01/16/2025	09:58	-132.186	46.061	0	1669.50	0	2.2280	0	34.5520	0	27.604	0	1649.188	0	34.2	4	10.4	4	-1E+10	1	-1E+10	1	-1E+10	1	-1E+10	1	-1E+10	1	-1E+10	1
4902642	21	C	01/16/2025	09:58	-132.186	46.061	0	1690.50	0	2.2050	0	34.5550	0	27.608	0	1669.850	0	35.3	4	10.7	4	-1E+10	1	-1E+10	1	-1E+10	1	-1E+10	1	-1E+10	1	-1E+10	1
4902642	21	C	01/16/2025	09:58	-132.186	46.061	0	1709.80	0	2.1840	0	34.5580	0	27.612	0	1688.837	0	36.6	4	11.1	4	-1E+10	1	-1E+10	1	-1E+10	1	-1E+10	1	-1E+10	1	-1E+10	1
4902642	21	C	01/16/2025	09:58	-132.186	46.061	0	1729.90	0	2.1640	0	34.5610	0	27.616	0	1708.610	0	37.5	4	11.4	4	-1E+10	1	-1E+10	1	-1E+10	1	-1E+10	1	-1E+10	1	-1E+10	1
4902642	21	C	01/16/2025	09:58	-132.186	46.061	0	1750.00	0	2.1390	0	34.5640	0	27.621	0	1728.381	0	38.7	4	11.7	4	-1E+10	1	-1E+10	1	-1E+10	1	-1E+10	1	-1E+10	1	-1E+10	1
4902642	21	C	01/16/2025	09:58	-132.186	46.061	0	1769.90	0	2.1230	0	34.5660	0	27.624	0	1747.953	0	39.7	4	12.0	4	-1E+10	1	-1E+10	1	-1E+10	1	-1E+10	1	-1E+10	1	-1E+10	1
4902642	21	C	01/16/2025	09:58	-132.186	46.061	0	1789.60	0	2.1070	0	34.5690	0	27.627	0	1767.327	0	40.7	4	12.3	4	-1E+10	1	-1E+10	1	-1E+10	1	-1E+10	1	-1E+10	1	-1E+10	1
4902642	21	C	01/16/2025	09:58	-132.186	46.061	0	1809.60	0	2.0870	0	34.5710	0	27.631	0	1786.994	0	41.6	4	12.6	4	-1E+10	1	-1E+10	1	-1E+10	1	-1E+10	1	-1E+10	1	-1E+10	1
4902642	21	C	01/16/2025	09:58	-132.186	46.061	0	1829.40	0	2.0710	0	34.5730	0	27.634	0	1806.462	0	42.4	4	12.8	4	-1E+10	1	-1E+10	1	-1E+10	1	-1E+10	1	-1E+10	1	-1E+10	1
4902642	21	C	01/16/2025	09:58	-132.186	46.061	0	1849.80	0	2.0570	0	34.5750	0	27.637	0	1826.519	0	43.1	4	13.0	4	-1E+10	1	-1E+10	1	-1E+10	1	-1E+10	1	-1E+10	1	-1E+10	1
4902642	21	C	01/16/2025	09:58	-132.186	46.061	0	1869.40	0	2.0490	0	34.5770	0	27.639	0	1845.787	0	43.6	4	13.2	4	-1E+10	1	-1E+10	1	-1E+10	1	-1E+10	1	-1E+10	1	-1E+10	1
4902642	21	C	01/16/2025	09:58	-132.186	46.061	0	1889.80	0	2.0390	0	34.5780	0	27.641	0	1865.840	0	44.4	4	13.4	4	-1E+10	1	-1E+10	1	-1E+10	1	-1E+10	1	-1E+10	1	-1E+10	1
4902642	21	C	01/16/2025	09:58	-132.186	46.061	0	1910.10	0	2.0300	0	34.5800	0	27.643	0	1885.793	0	45.2	4	13.6	4	-1E+10	1	-1E+10	1	-1E+10	1	-1E+10	1	-1E+10	1	-1E+10	1
4902642	21	C	01/16/2025	09:58	-132.186	46.061	0	1929.70	0	2.0180	0	34.5820	0	27.646	0	1905.056	0	46.0	4	13.9	4	-1E+10	1	-1E+10	1	-1E+10	1	-1E+10	1	-1E+10	1	-1E+10	1
4902642	21	C	01/16/2025	09:58	-132.186	46.061	0	1949.80	0	2.0070	0	34.5840	0	27.648	0	1924.808	0	46.7	4	14.1	4	-1E+10	1	-1E+10	1	-1E+10	1	-1E+10	1	-1E+10	1	-1E+10	1
4902642	21	C	01/16/2025	09:58	-132.186	46.061	0	1969.80	0	1.9990	0	34.5850	0	27.650	0	1944.461	0	47.4	4	14.3	4	-1E+10	1	-1E+10	1	-1E+10	1	-1E+10	1	-1E+10	1	-1E+10	1
4902642	21	C	01/16/2025	09:58	-132.186	46.061	0	1989.80	0	1.9900	0	34.5870	0	27.652	0	1964.111	0	48.1	4	14.5	4	-1E+10	1	-1E+10	1	-1E+10	1	-1E+10	1	-1E+10	1	-1E+10	1
4902642	21	C	01/16/2025	09:58	-132.186	46.061	0	2009.70	0	1.9800	0	34.5890	4	27.655	0	1983.662	0	48.9	4	14.7	4	-1E+10	1	-1E+10	1	-1E+10	1	-1E+10	1	-1E+10	1	-1E+10	1
4902642	21	C	01/16/2025	09:58	-132.186	46.061	0	2029.60	0	1.9690	0	34.5900	4	27.656	0	2003.211	0	49.7	4	15.0	4	-1E+10	1	-1E+10	1	-1E+10	1	-1E+10	1	-1E+10	1	-1E+10	1
4902642	21	C	01/16/2025	09:58	-132.186	46.061	0	2049.60	0	1.9600	0	34.5920	4	27.659	0	2022.856	0	50.6	4	15.2	4	-1E+10	1	-1E+10	1	-1E+10	1	-1E+10	1	-1E+10	1	-1E+10	1
4902642	21	C	01/16/2025	09:58	-132.186	46.061	0	2069.70	0	1.9490	0	34.5940	4	27.661	0	2042.597	0	51.5	4	15.5	4	-1E+10	1	-1E+10	1	-1E+10	1	-1E+10	1	-1E+10	1	-1E+10	1
4902642	21	C	01/16/2025	09:58	-132.186	46.061	0	2090.60	0	1.9380	0	34.5960	4	27.664	0	2063.123	0	52.4	4	15.8	4	-1E+10	1	-1E+10	1	-1E+10	1	-1E+10	1	-1E+10	1	-1E+10	1
4902642	21	C	01/16/2025	09:58	-132.186	46.061	0	2109.60	0	1.9260	0	34.5980	4	27.667	0	2081.781	0	53.5	4	16.1	4	-1E+10	1	-1E+10	1	-1E+10	1	-1E+10	1	-1E+10	1	-1E+10	1
4902642	21	C	01/16/2025	09:58	-132.186	46.061	0	2129.80	0	1.9100	0	34.6010	4	27.670	0	2101.615	0	54.7	4	16.5	4	-1E+10	1	-1E+10	1	-1E+10	1	-1E+10	1	-1E+10	1	-1E+10	1
4902642	21	C	01/16/2025	09:58	-132.186	46.061	0	2149.90	0	1.8990	0	34.6030	4	27.673	0	2121.349	0	55.4	4	16.7	4	-1E+10	1	-1E+10	1	-1E+10	1	-1E+10	1	-1E+10	1	-1E+10	1
4902642	21	C	01/16/2025	09:58	-132.186	46.061	0	2169.50	0	1.8920	0	34.6040	4	27.674	0	2140.591	0	56.1	4	16.9	4	-1E+10	1	-1E+10	1	-1E+10	1	-1E+10	1	-1E+10	1	-1E+10	1
4902642	21	C	01/16/2025	09:58	-132.186	46.061	0	2189.50	0	1.8850	0	34.6060	4	27.677	0	2160.223	0	56.8	4	17.1	4	-1E+10	1	-1E+10	1	-1E+10	1	-1E+10	1	-1E+10	1	-1E+10	1
4902642	21	C	01/16/2025	09:58	-132.186	46.061	0	2209.50	0	1.8730	0	34.6080	4	27.679	0	2179.854	0	57.7	4	17.4	4	-1E+10	1	-1E+10	1	-1E+10	1	-1E+10	1	-1E+10	1	-1E+10	1
4902642	21	C	01/16/2025	09:58	-132.186	46.061	0	2229.10	0	1.8680	0	34.6090	4	27.681	0	2199.090	0	58.3	4	17.5	4	-1E+10	1	-1E+10	1	-1E+10	1	-1E+10	1	-1E+10	1	-1E+10	1
4902642	21	C	01/16/2025	09:58	-132.186	46.061	0	2249.80	0	1.8590	0	34.6110	4	27.683	0	2219.404	0	59.1	4	17.7	4	-1E+10	1	-1E+10	1	-1E+10	1	-1E+10	1	-1E+10	1	-1E+10	1
4902642	21	C	01/16/2025	09:58	-132.186	46.061	0	2269.50	0	1.8540	0	34.6120	4	27.684	0	2238.735	0	59.6	4	17.9	4	-1E+10	1	-1E+10	1	-1E+10	1	-1E+10	1	-1E+10	1	-1E+10	1
4902642	21	C	01/16/2025	09:58	-132.186	46.061	0	2289.60	0	1.8480	0	34.6130	4	27.686	0	2258.457	0	60.2	4	18.1	4	-1E+10	1	-1E+10	1	-1E+10	1	-1E+10	1	-1E+10	1	-1E+10	1
4902642	21	C	01/16/2025	09:58	-132.186	46.061	0	2309.50	0	1.8440	0	34.6140	4	27.687	0	2277.980	0	60.8	4	18.3	4	-1E+10	1	-1E+10	1	-1E+10	1	-1E+10	1	-1E+10	1	-1E+10	1
4902642	21	C	01/16/2025	09:58	-132.186	46.061	0	2329.50	0	1.8370	0	34.6150	4	27.688	0	2297.600	0	61.3	4	18.4	4	-1E+10	1	-1E+10	1	-1E+10	1	-1E+10	1	-1E+10	1	-1E+10	1
4902642	21	C	01/16/2025	09:58	-132.186	46.061	0	2349.70	0	1.8310	0	34.6160	4	27.690	0	2317.414	0	62.2	4	18.7	4	-1E+10	1	-1E+10	1	-1E+10	1	-1E+10	1	-1E+10	1	-1E+10	1
4902642	21	C	01/16/2025	09:58	-132.186	46.061	0	2370.30	0	1.8220	0	34.6170	4	27.691	0	2337.619	0	62.9	4	18.9	4	-1E+10	1	-1E+10	1	-1E+10	1	-1E+10	1	-1E+10	1	-1E+10	1
4902642	21	C	01/16/2025	09:58	-132.186	46.061	0	2389.70	0	1.8150	0	34.6180	4	27.693	0	2356.645	0	63.6	4	19.1	4	-1E+10	1	-1E+10	1	-1E+10	1	-1E+10	1	-1E+10	1	-1E+10	1
4902642	21	C	01/16/2025	09:58	-132.186	46.061	0	2409.80	0	1.8080	0	34.6190	4	27.694	0	2376.356	0	64.2	4	19.3	4	-1E+10	1	-1E+10	1	-1E+10	1	-1E+10	1	-1E+10	1	-1E+10	1
4902642	21	C	01/16/2025	09:58	-132.186	46.061	0	2429.40	0	1.8030	0	34.6200	4	27.695	0	2395.575	0	64.9	4	19.5	4	-1E+10	1	-1E+10	1	-1E+10	1	-1E+10	1	-1E+10	1	-1E+10	1
4902642	21	C	01/16/2025	09:58	-132.186	46.061	0	2449.60	0	1.7960	0	34.6220	4	27.698	0	2415.380	0	65.7	4	19.7	4	-1E+10	1	-1E+10	1	-1E+10	1	-1E+10	1	-1E+10	1	-1E+10	1
4902642	21	C	01/16/2025	09:58	-132.186	46.061	0	2469.60	0	1.7890	0	34.6230	4	27.699	0	2434.987	0	66.4	4	19.9	4	-1E+10	1	-1E+10	1	-1E+10	1	-1E+10	1	-1E+10	1	-1E+10	1
4902642	21	C	01/16/2025	09:58	-132.186	46.061	0	2489.70	0	1.7820	0	34.6240	4	27.701	0	2454.691	0	67.2	4	20.1	4	-1E+10	1	-1E+10	1	-1E+10	1	-1E+10	1	-1E+10	1	-1E+10	1
4902642	21	C	01/16/2025	09:58	-132.186	46.061	0	2510.50	0	1.7720	0	34.6250	4	27.702	0	2475.079	0	68.1	4	20.4	4	-1E+10	1	-1E+10	1	-1E+10	1	-1E+10	1	-1E+10	1	-1E+10	1
4902642	21	C	01/16/2025	09:58	-132.186	46.061	0	2529.50	0	1.7650	0	34.6260	4	27.704	0	2493.700	0	68.9	4	20.7	4	-1E+10	1	-1E+10	1	-1E+10	1	-1E+10	1	-1E+10	1	-1E+10	1
4902642	21	C	01/16/2025	09:58	-132.186	46.061	0	2549.80	0	1.7560	0	34.6270	4	27.705	0	2513.595	0	69.7	4	20.9	4	-1E+10	1	-1E+10	1	-1E+10	1	-1E+10	1	-1E+10	1	-1E+10	1
4902642	21	C	01/16/2025	09:58	-132.186	46.061	0	2569.80	0	1.7480	0	34.6280	4	27.707	0	2533.193	0	70.4	4	21.1	4	-1E+10	1	-1E+10	1	-1E+10	1	-1E+10	1	-1E+10	1	-1E+10	1
4902642	21	C	01/16/2025	09:58	-132.186	46.061	0	2589.80	0	1.7440	0	34.6290	4	27.708	0	2552.790	0	70.9	4	21.2	4	-1E+10	1	-1E+10	1	-1E+10	1	-1E+10	1	-1E+10	1	-1E+10	1
4902642	21	C	01/16/2025	09:58	-132.186	46.061	0	2609.90	0	1.7410	0	34.6290	4	27.708	0	2572.482	0	71.4	4	21.4	4	-1E+10	1	-1E+10	1	-1E+10	1	-1E+10	1	-1E+10	1	-1E+10	1
4902642	21	C	01/16/2025	09:58	-132.186	46.061	0	2629.80	0	1.7350	0	34.6300	4	27.710	0	2591.977	0	72.1	4	21.6	4	-1E+10	1	-1E+10	1	-1E+10	1	-1E+10	1	-1E+10	1	-1E+10	1
4902642	21	C	01/16/2025	09:58	-132.186	46.061	0	2649.90	0	1.7280	0	34.6310	4	27.711	0	2611.666	0	72.9	4	21.8	4	-1E+10	1	-1E+10	1	-1E+10	1	-1E+10	1	-1E+10	1	-1E+10	1
4902642	21	C	01/16/2025	09:58	-132.186	46.061	0	2669.60	0	1.7200	0	34.6320	4	27.713	0	2630.962	0	73.6	4	22.0	4	-1E+10	1	-1E+10	1	-1E+10	1	-1E+10	1	-1E+10	1	-1E+10	1
4902642	21	C	01/16/2025	09:58	-132.186	46.061	0	2689.40	0	1.7130	0	34.6330	4	27.714	0	2650.354	0	74.6	4	22.4	4	-1E+10	1	-1E+10	1	-1E+10	1	-1E+10	1	-1E+10	1	-1E+10	1
4902642	21	C	01/16/2025	09:58	-132.186	46.061	0	2709.50	0	1.7030	0	34.6350	4	27.717	0	2670.038	0	75.7	4	22.7	4	-1E+10	1	-1E+10	1	-1E+10	1	-1E+10	1	-1E+10	1	-1E+10	1
4902642	21	C	01/16/2025	09:58	-132.186	46.061	0	2729.80	0	1.7000	0	34.6350	4	27.717	0	2689.916	0	76.2	4	22.8	4	-1E+10	1	-1E+10	1	-1E+10	1	-1E+10	1	-1E+10	1	-1E+10	1
4902642	21	C	01/16/2025	09:58	-132.186	46.061	0	2750.60	0	1.6970	0	34.6360	4	27.718	0	2710.281	0	76.8	4	23.0	4	-1E+10	1	-1E+10	1	-1E+10	1	-1E+10	1	-1E+10	1	-1E+10	1
4902642	21	C	01/16/2025	09:58	-132.186	46.061	0	2769.60	0	1.6910	0	34.6370	4	27.719	0	2728.883	0	77.5	4	23.2	4	-1E+10	1	-1E+10	1	-1E+10	1	-1E+10	1	-1E+10	1	-1E+10	1
4902642	21	C	01/16/2025	09:58	-132.186	46.061	0	2789.50	0	1.6840	0	34.6380	4	27.721	0	2748.364	0	78.1	4	23.4	4	-1E+10	1	-1E+10	1	-1E+10	1	-1E+10	1	-1E+10	1	-1E+10	1
4902642	21	C	01/16/2025	09:58	-132.186	46.061	0	2809.80	0	1.6790	0	34.6380	4	27.721	0	2768.234	0	78.6	4	23.5	4	-1E+10	1	-1E+10	1	-1E+10	1	-1E+10	1	-1E+10	1	-1E+10	1
4902642	21	C	01/16/2025	09:58	-132.186	46.061	0	2829.80	0	1.6750	0	34.6390	4	27.723	0	2787.810	0	79.2	4	23.7	4	-1E+10	1	-1E+10	1	-1E+10	1	-1E+10	1	-1E+10	1	-1E+10	1
4902642	21	C	01/16/2025	09:58	-132.186	46.061	0	2849.10	0	1.6740	0	34.6390	4	27.723	0	2806.698	0	79.6	4	23.8	4	-1E+10	1	-1E+10	1	-1E+10	1	-1E+10	1	-1E+10	1	-1E+10	1
4902642	21	C	01/16/2025	09:58	-132.186	46.061	0	2869.70	0	1.6700	0	34.6400	4	27.724	0	2826.857	0	80.3	4	24.0	4	-1E+10	1	-1E+10	1	-1E+10	1	-1E+10	1	-1E+10	1	-1E+10	1
4902642	21	C	01/16/2025	09:58	-132.186	46.061	0	2889.90	0	1.6650	0	34.6410	4	27.725	0	2846.622	0	80.9	4	24.2	4	-1E+10	1	-1E+10	1	-1E+10	1	-1E+10	1	-1E+10	1	-1E+10	1
4902642	21	C	01/16/2025	09:58	-132.186	46.061	0	2909.70	0	1.6600	0	34.6420	4	27.727	0	2865.995	0	81.6	4	24.4	4	-1E+10	1	-1E+10	1	-1E+10	1	-1E+10	1	-1E+10	1	-1E+10	1
4902642	21	C	01/16/2025	09:58	-132.186	46.061	0	2929.80	0	1.6550	0	34.6420	4	27.727	0	2885.659	0	82.3	4	24.6	4	-1E+10	1	-1E+10	1	-1E+10	1	-1E+10	1	-1E+10	1	-1E+10	1
4902642	21	C	01/16/2025	09:58	-132.186	46.061	0	2949.80	0	1.6500	0	34.6430	4	27.728	0	2905.224	0	83.0	4	24.8	4	-1E+10	1	-1E+10	1	-1E+10	1	-1E+10	1	-1E+10	1	-1E+10	1
4902642	21	C	01/16/2025	09:58	-132.186	46.061	0	2969.70	0	1.6470	0	34.6440	4	27.730	0	2924.689	0	83.5	4	25.0	4	-1E+10	1	-1E+10	1	-1E+10	1	-1E+10	1	-1E+10	1	-1E+10	1
4902642	21	C	01/16/2025	09:58	-132.186	46.061	0	2989.70	0	1.6460	0	34.6440	4	27.730	0	2944.250	0	83.9	4	25.1	4	-1E+10	1	-1E+10	1	-1E+10	1	-1E+10	1	-1E+10	1	-1E+10	1
4902642	21	C	01/16/2025	09:58	-132.186	46.061	0	3009.40	0	1.6440	0	34.6450	4	27.731	0	2963.516	0	84.4	4	25.2	4	-1E+10	1	-1E+10	1	-1E+10	1	-1E+10	1	-1E+10	1	-1E+10	1
4902642	21	C	01/16/2025	09:58	-132.186	46.061	0	3029.30	0	1.6400	0	34.6460	4	27.732	0	2982.975	0	85.1	4	25.4	4	-1E+10	1	-1E+10	1	-1E+10	1	-1E+10	1	-1E+10	1	-1E+10	1
4902642	21	C	01/16/2025	09:58	-132.186	46.061	0	3050.20	0	1.6360	0	34.6470	4	27.733	0	3003.411	0	85.8	4	25.6	4	-1E+10	1	-1E+10	1	-1E+10	1	-1E+10	1	-1E+10	1	-1E+10	1
4902642	21	C	01/16/2025	09:58	-132.186	46.061	0	3069.50	0	1.6350	0	34.6470	4	27.734	0	3022.281	0	86.1	4	25.7	4	-1E+10	1	-1E+10	1	-1E+10	1	-1E+10	1	-1E+10	1	-1E+10	1
4902642	21	C	01/16/2025	09:58	-132.186	46.061	0	3089.90	0	1.6330	0	34.6480	4	27.735	0	3042.224	0	86.7	4	25.9	4	-1E+10	1	-1E+10	1	-1E+10	1	-1E+10	1	-1E+10	1	-1E+10	1
4902642	21	C	01/16/2025	09:58	-132.186	46.061	0	3110.50	0	1.6280	0	34.6490	4	27.736	0	3062.361	0	87.4	4	26.1	4	-1E+10	1	-1E+10	1	-1E+10	1	-1E+10	1	-1E+10	1	-1E+10	1
4902642	21	C	01/16/2025	09:58	-132.186	46.061	0	3130.70	0	1.6260	0	34.6490	4	27.736	0	3082.105	0	87.9	4	26.3	4	-1E+10	1	-1E+10	1	-1E+10	1	-1E+10	1	-1E+10	1	-1E+10	1
4902642	21	C	01/16/2025	09:58	-132.186	46.061	0	3150.10	0	1.6220	0	34.6500	4	27.737	0	3101.066	0	88.6	4	26.5	4	-1E+10	1	-1E+10	1	-1E+10	1	-1E+10	1	-1E+10	1	-1E+10	1
4902642	21	C	01/16/2025	09:58	-132.186	46.061	0	3170.40	0	1.6180	0	34.6510	4	27.739	0	3120.904	0	89.3	4	26.7	4	-1E+10	1	-1E+10	1	-1E+10	1	-1E+10	1	-1E+10	1	-1E+10	1
4902642	21	C	01/16/2025	09:58	-132.186	46.061	0	3190.40	0	1.6120	0	34.6520	4	27.740	0	3140.448	0	90.3	4	27.0	4	-1E+10	1	-1E+10	1	-1E+10	1	-1E+10	1	-1E+10	1	-1E+10	1
4902642	21	C	01/16/2025	09:58	-132.186	46.061	0	3210.00	0	1.6070	0	34.6530	4	27.741	0	3159.599	0	91.2	4	27.2	4	-1E+10	1	-1E+10	1	-1E+10	1	-1E+10	1	-1E+10	1	-1E+10	1
4902642	21	C	01/16/2025	09:58	-132.186	46.061	0	3230.00	0	1.5970	0	34.6550	4	27.744	0	3179.138	0	92.6	4	27.6	4	-1E+10	1	-1E+10	1	-1E+10	1	-1E+10	1	-1E+10	1	-1E+10	1
4902642	21	C	01/16/2025	09:58	-132.186	46.061	0	3250.10	0	1.5890	0	34.6560	4	27.745	0	3198.774	0	93.5	4	27.9	4	-1E+10	1	-1E+10	1	-1E+10	1	-1E+10	1	-1E+10	1	-1E+10	1
4902642	21	C	01/16/2025	09:58	-132.186	46.061	0	3269.90	0	1.5860	0	34.6570	4	27.746	0	3218.115	0	94.1	4	28.1	4	-1E+10	1	-1E+10	1	-1E+10	1	-1E+10	1	-1E+10	1	-1E+10	1
4902642	21	C	01/16/2025	09:58	-132.186	46.061	0	3289.70	0	1.5810	0	34.6580	4	27.748	0	3237.455	0	94.9	4	28.3	4	-1E+10	1	-1E+10	1	-1E+10	1	-1E+10	1	-1E+10	1	-1E+10	1
4902642	21	C	01/16/2025	09:58	-132.186	46.061	0	3309.80	0	1.5780	0	34.6590	4	27.749	0	3257.085	0	95.5	4	28.5	4	-1E+10	1	-1E+10	1	-1E+10	1	-1E+10	1	-1E+10	1	-1E+10	1
4902642	21	C	01/16/2025	09:58	-132.186	46.061	0	3330.50	0	1.5760	0	34.6600	4	27.750	0	3277.300	0	95.9	4	28.6	4	-1E+10	1	-1E+10	1	-1E+10	1	-1E+10	1	-1E+10	1	-1E+10	1
4902642	21	C	01/16/2025	09:58	-132.186	46.061	0	3350.20	0	1.5710	0	34.6600	4	27.750	0	3296.537	0	96.2	4	28.7	4	-1E+10	1	-1E+10	1	-1E+10	1	-1E+10	1	-1E+10	1	-1E+10	1
4902642	21	C	01/16/2025	09:58	-132.186	46.061	0	3365.10	0	1.5710	0	34.6610	4	27.751	0	3311.085	0	95.2	4	28.4	4	-1E+10	1	-1E+10	1	-1E+10	1	-1E+10	1	-1E+10	1	-1E+10	1
4902642	21	C	01/16/2025	09:58	-132.186	46.061	0																										
4902642	22	C	01/26/2025	13:25	-132.171	46.117	0	0.30	0	10.1185	0	32.4980	0	24.979	0	0.298	0	250.1	4	89.7	4	-1E+10	1	-1E+10	1	-1E+10	1	-1E+10	1	-1E+10	1	-1E+10	1
4902642	22	C	01/26/2025	13:25	-132.171	46.117	0	0.40	0	10.1202	0	32.4976	0	24.979	0	0.397	0	250.0	4	89.7	4	-1E+10	1	-1E+10	1	-1E+10	1	-1E+10	1	-1E+10	1	-1E+10	1
4902642	22	C	01/26/2025	13:25	-132.171	46.117	0	0.50	0	10.1205	0	32.4970	0	24.978	0	0.496	0	250.1	4	89.7	4	-1E+10	1	-1E+10	1	-1E+10	1	-1E+10	1	-1E+10	1	-1E+10	1
4902642	22	C	01/26/2025	13:25	-132.171	46.117	0	0.60	0	10.1210	0	32.5010	0	24.981	0	0.595	0	249.9	4	89.6	4	-1E+10	1	-1E+10	1	-1E+10	1	-1E+10	1	-1E+10	1	-1E+10	1
4902642	22	C	01/26/2025	13:25	-132.171	46.117	0	1.30	0	10.1280	0	32.4950	0	24.976	0	1.289	0	249.8	4	89.6	4	-1E+10	1	-1E+10	1	-1E+10	1	-1E+10	1	-1E+10	1	-1E+10	1
4902642	22	C	01/26/2025	13:25	-132.171	46.117	0	2.40	0	10.1260	0	32.4960	0	24.977	0	2.380	0	249.8	4	89.6	4	-1E+10	1	-1E+10	1	-1E+10	1	-1E+10	1	-1E+10	1	-1E+10	1
4902642	22	C	01/26/2025	13:25	-132.171	46.117	0	3.60	0	10.1230	0	32.4990	0	24.980	0	3.570	0	249.8	4	89.6	4	-1E+10	1	-1E+10	1	-1E+10	1	-1E+10	1	-1E+10	1	-1E+10	1
4902642	22	C	01/26/2025	13:25	-132.171	46.117	0	4.50	0	10.1260	0	32.4950	0	24.976	0	4.463	0	249.7	4	89.6	4	-1E+10	1	-1E+10	1	-1E+10	1	-1E+10	1	-1E+10	1	-1E+10	1
4902642	22	C	01/26/2025	13:25	-132.171	46.117	0	5.50	0	10.1280	0	32.4970	0	24.977	0	5.455	0	249.7	4	89.6	4	-1E+10	1	-1E+10	1	-1E+10	1	-1E+10	1	-1E+10	1	-1E+10	1
4902642	22	C	01/26/2025	13:25	-132.171	46.117	0	6.60	0	10.1320	0	32.4980	0	24.977	0	6.546	0	249.6	4	89.5	4	-1E+10	1	-1E+10	1	-1E+10	1	-1E+10	1	-1E+10	1	-1E+10	1
4902642	22	C	01/26/2025	13:25	-132.171	46.117	0	7.40	0	10.1290	0	32.4980	0	24.978	0	7.339	0	249.6	4	89.5	4	-1E+10	1	-1E+10	1	-1E+10	1	-1E+10	1	-1E+10	1	-1E+10	1
4902642	22	C	01/26/2025	13:25	-132.171	46.117	0	8.10	0	10.1330	0	32.4970	0	24.976	0	8.033	0	249.6	4	89.5	4	-1E+10	1	-1E+10	1	-1E+10	1	-1E+10	1	-1E+10	1	-1E+10	1
4902642	22	C	01/26/2025	13:25	-132.171	46.117	0	9.40	0	10.1350	0	32.4960	0	24.975	0	9.323	0	249.6	4	89.5	4	-1E+10	1	-1E+10	1	-1E+10	1	-1E+10	1	-1E+10	1	-1E+10	1
4902642	22	C	01/26/2025	13:25	-132.171	46.117	0	15.20	0	10.1330	0	32.4970	0	24.977	0	15.075	0	249.5	4	89.5	4	-1E+10	1	-1E+10	1	-1E+10	1	-1E+10	1	-1E+10	1	-1E+10	1
4902642	22	C	01/26/2025	13:25	-132.171	46.117	0	25.10	0	10.1360	0	32.4970	0	24.976	0	24.892	0	249.4	4	89.5	4	-1E+10	1	-1E+10	1	-1E+10	1	-1E+10	1	-1E+10	1	-1E+10	1
4902642	22	C	01/26/2025	13:25	-132.171	46.117	0	35.00	0	10.1390	0	32.4970	0	24.976	0	34.709	0	249.3	4	89.4	4	-1E+10	1	-1E+10	1	-1E+10	1	-1E+10	1	-1E+10	1	-1E+10	1
4902642	22	C	01/26/2025	13:25	-132.171	46.117	0	44.60	0	10.1400	0	32.4970	0	24.976	0	44.229	0	249.1	4	89.4	4	-1E+10	1	-1E+10	1	-1E+10	1	-1E+10	1	-1E+10	1	-1E+10	1
4902642	22	C	01/26/2025	13:25	-132.171	46.117	0	54.70	0	10.1410	0	32.4970	0	24.976	0	54.243	0	248.8	4	89.3	4	-1E+10	1	-1E+10	1	-1E+10	1	-1E+10	1	-1E+10	1	-1E+10	1
4902642	22	C	01/26/2025	13:25	-132.171	46.117	0	65.10	0	10.1430	0	32.4970	0	24.976	0	64.555	0	248.5	4	89.2	4	-1E+10	1	-1E+10	1	-1E+10	1	-1E+10	1	-1E+10	1	-1E+10	1
4902642	22	C	01/26/2025	13:25	-132.171	46.117	0	74.80	0	10.1440	0	32.4970	0	24.976	0	74.172	0	247.7	4	88.9	4	-1E+10	1	-1E+10	1	-1E+10	1	-1E+10	1	-1E+10	1	-1E+10	1
4902642	22	C	01/26/2025	13:25	-132.171	46.117	0	85.30	0	10.1460	0	32.4980	0	24.976	0	84.581	0	244.0	4	87.6	4	-1E+10	1	-1E+10	1	-1E+10	1	-1E+10	1	-1E+10	1	-1E+10	1
4902642	22	C	01/26/2025	13:25	-132.171	46.117	0	94.50	0	9.8480	0	32.5820	0	25.092	0	93.702	0	232.6	4	83.0	4	-1E+10	1	-1E+10	1	-1E+10	1	-1E+10	1	-1E+10	1	-1E+10	1
4902642	22	C	01/26/2025	13:25	-132.171	46.117	0	104.80	0	8.8520	0	32.8170	0	25.434	0	103.912	0	222.2	4	77.7	4	-1E+10	1	-1E+10	1	-1E+10	1	-1E+10	1	-1E+10	1	-1E+10	1
4902642	22	C	01/26/2025	13:25	-132.171	46.117	0	114.60	0	8.5100	0	33.0460	0	25.666	0	113.626	0	209.2	4	72.7	4	-1E+10	1	-1E+10	1	-1E+10	1	-1E+10	1	-1E+10	1	-1E+10	1
4902642	22	C	01/26/2025	13:25	-132.171	46.117	0	124.70	0	8.2440	0	33.4020	0	25.985	0	123.638	0	198.4	4	68.7	4	-1E+10	1	-1E+10	1	-1E+10	1	-1E+10	1	-1E+10	1	-1E+10	1
4902642	22	C	01/26/2025	13:25	-132.171	46.117	0	134.70	0	8.0680	0	33.4980	0	26.087	0	133.549	0	195.3	4	67.4	4	-1E+10	1	-1E+10	1	-1E+10	1	-1E+10	1	-1E+10	1	-1E+10	1
4902642	22	C	01/26/2025	13:25	-132.171	46.117	0	145.00	0	7.8410	0	33.5670	0	26.174	0	143.758	0	193.7	4	66.6	4	-1E+10	1	-1E+10	1	-1E+10	1	-1E+10	1	-1E+10	1	-1E+10	1
4902642	22	C	01/26/2025	13:25	-132.171	46.117	0	154.80	0	7.5510	0	33.6300	0	26.265	0	153.470	0	191.7	4	65.5	4	-1E+10	1	-1E+10	1	-1E+10	1	-1E+10	1	-1E+10	1	-1E+10	1
4902642	22	C	01/26/2025	13:25	-132.171	46.117	0	165.00	0	7.3290	0	33.6790	0	26.335	0	163.578	0	187.5	4	63.8	4	-1E+10	1	-1E+10	1	-1E+10	1	-1E+10	1	-1E+10	1	-1E+10	1
4902642	22	C	01/26/2025	13:25	-132.171	46.117	0	175.20	0	7.2000	0	33.7340	0	26.397	0	173.686	0	181.3	4	61.5	4	-1E+10	1	-1E+10	1	-1E+10	1	-1E+10	1	-1E+10	1	-1E+10	1
4902642	22	C	01/26/2025	13:25	-132.171	46.117	0	184.80	0	7.0710	0	33.7650	0	26.439	0	183.199	0	175.3	4	59.3	4	-1E+10	1	-1E+10	1	-1E+10	1	-1E+10	1	-1E+10	1	-1E+10	1
4902642	22	C	01/26/2025	13:25	-132.171	46.117	0	195.00	0	6.9240	0	33.7750	0	26.467	0	193.306	0	169.1	4	57.0	4	-1E+10	1	-1E+10	1	-1E+10	1	-1E+10	1	-1E+10	1	-1E+10	1
4902642	22	C	01/26/2025	13:25	-132.171	46.117	0	210.80	0	6.7280	0	33.7980	0	26.511	0	208.961	0	154.6	4	51.9	4	-1E+10	1	-1E+10	1	-1E+10	1	-1E+10	1	-1E+10	1	-1E+10	1
4902642	22	C	01/26/2025	13:25	-132.171	46.117	0	229.70	0	6.5200	0	33.8170	0	26.554	0	227.685	0	135.6	4	45.3	4	-1E+10	1	-1E+10	1	-1E+10	1	-1E+10	1	-1E+10	1	-1E+10	1
4902642	22	C	01/26/2025	13:25	-132.171	46.117	0	250.00	0	6.2850	0	33.8350	0	26.599	0	247.795	0	117.8	4	39.2	4	-1E+10	1	-1E+10	1	-1E+10	1	-1E+10	1	-1E+10	1	-1E+10	1
4902642	22	C	01/26/2025	13:25	-132.171	46.117	0	270.30	0	6.1920	0	33.8660	0	26.635	0	267.903	0	95.0	4	31.5	4	-1E+10	1	-1E+10	1	-1E+10	1	-1E+10	1	-1E+10	1	-1E+10	1
4902642	22	C	01/26/2025	13:25	-132.171	46.117	0	289.90	0	6.1340	0	33.9060	0	26.675	0	287.316	0	77.0	4	25.5	4	-1E+10	1	-1E+10	1	-1E+10	1	-1E+10	1	-1E+10	1	-1E+10	1
4902642	22	C	01/26/2025	13:25	-132.171	46.117	0	310.00	0	6.0690	0	33.9280	0	26.700	0	307.221	0	68.8	4	22.8	4	-1E+10	1	-1E+10	1	-1E+10	1	-1E+10	1	-1E+10	1	-1E+10	1
4902642	22	C	01/26/2025	13:25	-132.171	46.117	0	330.20	0	5.9210	0	33.9420	0	26.730	0	327.224	0	63.1	4	20.8	4	-1E+10	1	-1E+10	1	-1E+10	1	-1E+10	1	-1E+10	1	-1E+10	1
4902642	22	C	01/26/2025	13:25	-132.171	46.117	0	350.20	0	5.7210	0	33.9520	0	26.763	0	347.027	0	56.3	4	18.5	4	-1E+10	1	-1E+10	1	-1E+10	1	-1E+10	1	-1E+10	1	-1E+10	1
4902642	22	C	01/26/2025	13:25	-132.171	46.117	0	370.00	0	5.5770	0	33.9740	0	26.798	0	366.631	0	49.8	4	16.3	4	-1E+10	1	-1E+10	1	-1E+10	1	-1E+10	1	-1E+10	1	-1E+10	1
4902642	22	C	01/26/2025	13:25	-132.171	46.117	0	390.20	0	5.4600	0	33.9900	0	26.825	0	386.628	0	45.6	4	14.9	4	-1E+10	1	-1E+10	1	-1E+10	1	-1E+10	1	-1E+10	1	-1E+10	1
4902642	22	C	01/26/2025	13:25	-132.171	46.117	0	410.30	0	5.2780	0	33.9930	0	26.849	0	406.524	0	43.8	4	14.2	4	-1E+10	1	-1E+10	1	-1E+10	1	-1E+10	1	-1E+10	1	-1E+10	1
4902642	22	C	01/26/2025	13:25	-132.171	46.117	0	430.20	0	5.0210	0	33.9900	0	26.876	0	426.221	0	42.4	4	13.7	4	-1E+10	1	-1E+10	1	-1E+10	1	-1E+10	1	-1E+10	1	-1E+10	1
4902642	22	C	01/26/2025	13:25	-132.171	46.117	0	450.60	0	4.8750	0	34.0040	0	26.904	0	446.410	0	39.1	4	12.6	4	-1E+10	1	-1E+10	1	-1E+10	1	-1E+10	1	-1E+10	1	-1E+10	1
4902642	22	C	01/26/2025	13:25	-132.171	46.117	0	469.80	0	4.7510	0	34.0140	0	26.926	0	465.410	0	37.0	4	11.9	4	-1E+10	1	-1E+10	1	-1E+10	1	-1E+10	1	-1E+10	1	-1E+10	1
4902642	22	C	01/26/2025	13:25	-132.171	46.117	0	490.00	0	4.6480	0	34.0270	0	26.948	0	485.398	0	33.5	4	10.7	4	-1E+10	1	-1E+10	1	-1E+10	1	-1E+10	1	-1E+10	1	-1E+10	1
4902642	22	C	01/26/2025	13:25	-132.171	46.117	0	510.20	0	4.6040	0	34.0480	0	26.969	0	505.383	0	29.0	4	9.3	4	-1E+10	1	-1E+10	1	-1E+10	1	-1E+10	1	-1E+10	1	-1E+10	1
4902642	22	C	01/26/2025	13:25	-132.171	46.117	0	530.30	0	4.5570	0	34.0690	0	26.991	0	525.268	0	24.9	4	8.0	4	-1E+10	1	-1E+10	1	-1E+10	1	-1E+10	1	-1E+10	1	-1E+10	1
4902642	22	C	01/26/2025	13:25	-132.171	46.117	0	550.20	0	4.5440	0	34.0940	0	27.013	0	544.953	0	20.4	4	6.5	4	-1E+10	1	-1E+10	1	-1E+10	1	-1E+10	1	-1E+10	1	-1E+10	1
4902642	22	C	01/26/2025	13:25	-132.171	46.117	0	570.10	0	4.5530	0	34.1220	0	27.034	0	564.636	0	16.9	4	5.4	4	-1E+10	1	-1E+10	1	-1E+10	1	-1E+10	1	-1E+10	1	-1E+10	1
4902642	22	C	01/26/2025	13:25	-132.171	46.117	0	590.00	0	4.5320	0	34.1380	0	27.049	0	584.318	0	15.1	4	4.8	4	-1E+10	1	-1E+10	1	-1E+10	1	-1E+10	1	-1E+10	1	-1E+10	1
4902642	22	C	01/26/2025	13:25	-132.171	46.117	0	610.70	0	4.4710	0	34.1590	0	27.073	0	604.788	0	12.6	4	4.0	4	-1E+10	1	-1E+10	1	-1E+10	1	-1E+10	1	-1E+10	1	-1E+10	1
4902642	22	C	01/26/2025	13:25	-132.171	46.117	0	630.00	0	4.4180	0	34.1820	0	27.097	0	623.873	0	10.9	4	3.5	4	-1E+10	1	-1E+10	1	-1E+10	1	-1E+10	1	-1E+10	1	-1E+10	1
4902642	22	C	01/26/2025	13:25	-132.171	46.117	0	649.90	0	4.3560	0	34.2000	0	27.118	0	643.548	0	9.6	4	3.1	4	-1E+10	1	-1E+10	1	-1E+10	1	-1E+10	1	-1E+10	1	-1E+10	1
4902642	22	C	01/26/2025	13:25	-132.171	46.117	0	670.10	0	4.2750	0	34.2120	0	27.136	0	663.519	0	9.0	4	2.9	4	-1E+10	1	-1E+10	1	-1E+10	1	-1E+10	1	-1E+10	1	-1E+10	1
4902642	22	C	01/26/2025	13:25	-132.171	46.117	0	690.00	0	4.2020	0	34.2220	0	27.152	0	683.191	0	8.4	4	2.7	4	-1E+10	1	-1E+10	1	-1E+10	1	-1E+10	1	-1E+10	1	-1E+10	1
4902642	22	C	01/26/2025	13:25	-132.171	46.117	0	710.00	0	4.1180	0	34.2350	0	27.171	0	702.960	0	8.0	4	2.5	4	-1E+10	1	-1E+10	1	-1E+10	1	-1E+10	1	-1E+10	1	-1E+10	1
4902642	22	C	01/26/2025	13:25	-132.171	46.117	0	730.00	0	4.0580	0	34.2420	0	27.183	0	722.727	0	7.7	4	2.4	4	-1E+10	1	-1E+10	1	-1E+10	1	-1E+10	1	-1E+10	1	-1E+10	1
4902642	22	C	01/26/2025	13:25	-132.171	46.117	0	750.30	0	3.9920	0	34.2490	0	27.195	0	742.788	0	7.5	4	2.4	4	-1E+10	1	-1E+10	1	-1E+10	1	-1E+10	1	-1E+10	1	-1E+10	1
4902642	22	C	01/26/2025	13:25	-132.171	46.117	0	770.30	0	3.9530	0	34.2520	0	27.202	0	762.552	0	7.5	4	2.4	4	-1E+10	1	-1E+10	1	-1E+10	1	-1E+10	1	-1E+10	1	-1E+10	1
4902642	22	C	01/26/2025	13:25	-132.171	46.117	0	790.10	0	3.8720	0	34.2540	0	27.212	0	782.115	0	7.4	4	2.3	4	-1E+10	1	-1E+10	1	-1E+10	1	-1E+10	1	-1E+10	1	-1E+10	1
4902642	22	C	01/26/2025	13:25	-132.171	46.117	0	809.80	0	3.7920	0	34.2600	0	27.225	0	801.579	0	7.2	4	2.3	4	-1E+10	1	-1E+10	1	-1E+10	1	-1E+10	1	-1E+10	1	-1E+10	1
4902642	22	C	01/26/2025	13:25	-132.171	46.117	0	830.10	0	3.7140	0	34.2680	0	27.239	0	821.632	0	7.0	4	2.2	4	-1E+10	1	-1E+10	1	-1E+10	1	-1E+10	1	-1E+10	1	-1E+10	1
4902642	22	C	01/26/2025	13:25	-132.171	46.117	0	850.70	0	3.6560	0	34.2800	0	27.254	0	841.981	0	6.6	4	2.1	4	-1E+10	1	-1E+10	1	-1E+10	1	-1E+10	1	-1E+10	1	-1E+10	1
4902642	22	C	01/26/2025	13:25	-132.171	46.117	0	869.90	0	3.5940	0	34.2920	0	27.270	0	860.945	0	6.4	4	2.0	4	-1E+10	1	-1E+10	1	-1E+10	1	-1E+10	1	-1E+10	1	-1E+10	1
4902642	22	C	01/26/2025	13:25	-132.171	46.117	0	889.90	0	3.5400	0	34.3060	0	27.286	0	880.697	0	6.1	4	1.9	4	-1E+10	1	-1E+10	1	-1E+10	1	-1E+10	1	-1E+10	1	-1E+10	1
4902642	22	C	01/26/2025	13:25	-132.171	46.117	0	910.10	0	3.4960	0	34.3190	0	27.301	0	900.644	0	5.8	4	1.8	4	-1E+10	1	-1E+10	1	-1E+10	1	-1E+10	1	-1E+10	1	-1E+10	1
4902642	22	C	01/26/2025	13:25	-132.171	46.117	0	930.20	0	3.4840	0	34.3330	0	27.314	0	920.491	0	5.6	4	1.8	4	-1E+10	1	-1E+10	1	-1E+10	1	-1E+10	1	-1E+10	1	-1E+10	1
4902642	22	C	01/26/2025	13:25	-132.171	46.117	0	950.60	0	3.4450	0	34.3430	0	27.325	0	940.632	0	5.6	4	1.8	4	-1E+10	1	-1E+10	1	-1E+10	1	-1E+10	1	-1E+10	1	-1E+10	1
4902642	22	C	01/26/2025	13:25	-132.171	46.117	0	969.80	0	3.4450	0	34.3610	0	27.340	0	959.587	0	5.7	4	1.8	4	-1E+10	1	-1E+10	1	-1E+10	1	-1E+10	1	-1E+10	1	-1E+10	1
4902642	22	C	01/26/2025	13:25	-132.171	46.117	0	990.40	0	3.3990	0	34.3720	0	27.353	0	979.922	0	5.9	4	1.8	4	-1E+10	1	-1E+10	1	-1E+10	1	-1E+10	1	-1E+10	1	-1E+10	1
4902642	22	C	01/26/2025	13:25	-132.171	46.117	0	1009.50	0	3.4240	0	34.3870	0	27.363	0	998.775	0	6.3	4	2.0	4	-1E+10	1	-1E+10	1	-1E+10	1	-1E+10	1	-1E+10	1	-1E+10	1
4902642	22	C	01/26/2025	13:25	-132.171	46.117	0	1029.90	0	3.4240	0	34.3990	0	27.373	0	1018.908	0	6.8	4	2.1	4	-1E+10	1	-1E+10	1	-1E+10	1	-1E+10	1	-1E+10	1	-1E+10	1
4902642	22	C	01/26/2025	13:25	-132.171	46.117	0	1050.30	0	3.3940	0	34.4100	0	27.384	0	1039.040	0	7.4	4	2.3	4	-1E+10	1	-1E+10	1	-1E+10	1	-1E+10	1	-1E+10	1	-1E+10	1
4902642	22	C	01/26/2025	13:25	-132.171	46.117	0	1070.30	0	3.3500	0	34.4200	0	27.397	0	1058.775	0	7.9	4	2.5	4	-1E+10	1	-1E+10	1	-1E+10	1	-1E+10	1	-1E+10	1	-1E+10	1
4902642	22	C	01/26/2025	13:25	-132.171	46.117	0	1090.50	0	3.3150	0	34.4240	0	27.403	0	1078.706	0	8.3	4	2.6	4	-1E+10	1	-1E+10	1	-1E+10	1	-1E+10	1	-1E+10	1	-1E+10	1
4902642	22	C	01/26/2025	13:25	-132.171	46.117	0	1110.30	0	3.2530	0	34.4320	0	27.416	0	1098.240	0	8.8	4	2.7	4	-1E+10	1	-1E+10	1	-1E+10	1	-1E+10	1	-1E+10	1	-1E+10	1
4902642	22	C	01/26/2025	13:25	-132.171	46.117	0	1130.30	0	3.2250	0	34.4350	0	27.421	0	1117.969	0	9.0	4	2.8	4	-1E+10	1	-1E+10	1	-1E+10	1	-1E+10	1	-1E+10	1	-1E+10	1
4902642	22	C	01/26/2025	13:25	-132.171	46.117	0	1150.10	0	3.1730	0	34.4380	0	27.428	0	1137.500	0	9.2	4	2.9	4	-1E+10	1	-1E+10	1	-1E+10	1	-1E+10	1	-1E+10	1	-1E+10	1
4902642	22	C	01/26/2025	13:25	-132.171	46.117	0	1170.00	0	3.1180	0	34.4450	0	27.439	0	1157.127	0	9.9	4	3.1	4	-1E+10	1	-1E+10	1	-1E+10	1	-1E+10	1	-1E+10	1	-1E+10	1
4902642	22	C	01/26/2025	13:25	-132.171	46.117	0	1189.80	0	3.0700	0	34.4500	0	27.447	0	1176.654	0	10.4	4	3.2	4	-1E+10	1	-1E+10	1	-1E+10	1	-1E+10	1	-1E+10	1	-1E+10	1
4902642	22	C	01/26/2025	13:25	-132.171	46.117	0	1209.80	0	3.0320	0	34.4550	0	27.455	0	1196.376	0	10.9	4	3.4	4	-1E+10	1	-1E+10	1	-1E+10	1	-1E+10	1	-1E+10	1	-1E+10	1
4902642	22	C	01/26/2025	13:25	-132.171	46.117	0	1229.70	0	3.0030	0	34.4590	0	27.461	0	1215.998	0	11.3	4	3.5	4	-1E+10	1	-1E+10	1	-1E+10	1	-1E+10	1	-1E+10	1	-1E+10	1
4902642	22	C	01/26/2025	13:25	-132.171	46.117	0	1250.50	0	2.9640	0	34.4640	0	27.468	0	1236.505	0	12.0	4	3.7	4	-1E+10	1	-1E+10	1	-1E+10	1	-1E+10	1	-1E+10	1	-1E+10	1
4902642	22	C	01/26/2025	13:25	-132.171	46.117	0	1270.00	0	2.9240	0	34.4690	0	27.476	0	1255.728	0	12.7	4	3.9	4	-1E+10	1	-1E+10	1	-1E+10	1	-1E+10	1	-1E+10	1	-1E+10	1
4902642	22	C	01/26/2025	13:25	-132.171	46.117	0	1290.00	0	2.8740	0	34.4750	0	27.485	0	1275.443	0	13.7	4	4.2	4	-1E+10	1	-1E+10	1	-1E+10	1	-1E+10	1	-1E+10	1	-1E+10	1
4902642	22	C	01/26/2025	13:25	-132.171	46.117	0	1310.10	0	2.8420	0	34.4790	0	27.492	0	1295.255	0	14.2	4	4.4	4	-1E+10	1	-1E+10	1	-1E+10	1	-1E+10	1	-1E+10	1	-1E+10	1
4902642	22	C	01/26/2025	13:25	-132.171	46.117	0	1329.80	0	2.8010	0	34.4840	0	27.499	0	1314.670	0	15.3	4	4.7	4	-1E+10	1	-1E+10	1	-1E+10	1	-1E+10	1	-1E+10	1	-1E+10	1
4902642	22	C	01/26/2025	13:25	-132.171	46.117	0	1349.70	0	2.7420	0	34.4900	0	27.509	0	1334.280	0	16.4	4	5.0	4	-1E+10	1	-1E+10	1	-1E+10	1	-1E+10	1	-1E+10	1	-1E+10	1
4902642	22	C	01/26/2025	13:25	-132.171	46.117	0	1369.70	0	2.7050	0	34.4940	0	27.516	0	1353.988	0	17.3	4	5.3	4	-1E+10	1	-1E+10	1	-1E+10	1	-1E+10	1	-1E+10	1	-1E+10	1
4902642	22	C	01/26/2025	13:25	-132.171	46.117	0	1389.80	0	2.6720	0	34.4990	0	27.523	0	1373.792	0	18.2	4	5.6	4	-1E+10	1	-1E+10	1	-1E+10	1	-1E+10	1	-1E+10	1	-1E+10	1
4902642	22	C	01/26/2025	13:25	-132.171	46.117	0	1410.00	0	2.6280	0	34.5030	0	27.530	0	1393.692	0	19.3	4	5.9	4	-1E+10	1	-1E+10	1	-1E+10	1	-1E+10	1	-1E+10	1	-1E+10	1
4902642	22	C	01/26/2025	13:25	-132.171	46.117	0	1430.20	0	2.5900	0	34.5070	0	27.536	0	1413.591	0	20.2	4	6.2	4	-1E+10	1	-1E+10	1	-1E+10	1	-1E+10	1	-1E+10	1	-1E+10	1
4902642	22	C	01/26/2025	13:25	-132.171	46.117	0	1449.80	0	2.5550	0	34.5110	0	27.543	0	1432.897	0	21.2	4	6.5	4	-1E+10	1	-1E+10	1	-1E+10	1	-1E+10	1	-1E+10	1	-1E+10	1
4902642	22	C	01/26/2025	13:25	-132.171	46.117	0	1469.90	0	2.5150	0	34.5160	0	27.550	0	1452.694	0	22.4	4	6.8	4	-1E+10	1	-1E+10	1	-1E+10	1	-1E+10	1	-1E+10	1	-1E+10	1
4902642	22	C	01/26/2025	13:25	-132.171	46.117	0	1490.30	0	2.4880	0	34.5190	0	27.555	0	1472.784	0	23.3	4	7.1	4	-1E+10	1	-1E+10	1	-1E+10	1	-1E+10	1	-1E+10	1	-1E+10	1
4902642	22	C	01/26/2025	13:25	-132.171	46.117	0	1511.00	0	2.4610	0	34.5220	0	27.560	0	1493.167	0	24.1	4	7.3	4	-1E+10	1	-1E+10	1	-1E+10	1	-1E+10	1	-1E+10	1	-1E+10	1
4902642	22	C	01/26/2025	13:25	-132.171	46.117	0	1530.10	0	2.4330	0	34.5250	0	27.564	0	1511.974	0	25.2	4	7.7	4	-1E+10	1	-1E+10	1	-1E+10	1	-1E+10	1	-1E+10	1	-1E+10	1
4902642	22	C	01/26/2025	13:25	-132.171	46.117	0	1550.00	0	2.4100	0	34.5290	0	27.570	0	1531.566	0	26.1	4	8.0	4	-1E+10	1	-1E+10	1	-1E+10	1	-1E+10	1	-1E+10	1	-1E+10	1
4902642	22	C	01/26/2025	13:25	-132.171	46.117	0	1570.00	0	2.3900	0	34.5310	0	27.573	0	1551.255	0	27.0	4	8.2	4	-1E+10	1	-1E+10	1	-1E+10	1	-1E+10	1	-1E+10	1	-1E+10	1
4902642	22	C	01/26/2025	13:25	-132.171	46.117	0	1590.10	0	2.3630	0	34.5350	0	27.579	0	1571.040	0	28.3	4	8.6	4	-1E+10	1	-1E+10	1	-1E+10	1	-1E+10	1	-1E+10	1	-1E+10	1
4902642	22	C	01/26/2025	13:25	-132.171	46.117	0	1610.10	0	2.3380	0	34.5390	0	27.584	0	1590.726	0	29.5	4	9.0	4	-1E+10	1	-1E+10	1	-1E+10	1	-1E+10	1	-1E+10	1	-1E+10	1
4902642	22	C	01/26/2025	13:25	-132.171	46.117	0	1629.70	0	2.3080	0	34.5430	0	27.590	0	1610.015	0	30.9	4	9.4	4	-1E+10	1	-1E+10	1	-1E+10	1	-1E+10	1	-1E+10	1	-1E+10	1
4902642	22	C	01/26/2025	13:25	-132.171	46.117	0	1650.40	0	2.2720	0	34.5470	0	27.596	0	1630.386	0	32.1	4	9.7	4	-1E+10	1	-1E+10	1	-1E+10	1	-1E+10	1	-1E+10	1	-1E+10	1
4902642	22	C	01/26/2025	13:25	-132.171	46.117	0	1669.70	0	2.2480	0	34.5500	0	27.600	0	1649.376	0	33.2	4	10.1	4	-1E+10	1	-1E+10	1	-1E+10	1	-1E+10	1	-1E+10	1	-1E+10	1
4902642	22	C	01/26/2025	13:25	-132.171	46.117	0	1689.70	0	2.2200	0	34.5530	0	27.605	0	1669.054	0	34.3	4	10.4	4	-1E+10	1	-1E+10	1	-1E+10	1	-1E+10	1	-1E+10	1	-1E+10	1
4902642	22	C	01/26/2025	13:25	-132.171	46.117	0	1709.80	0	2.1940	0	34.5560	0	27.610	0	1688.829	0	35.6	4	10.8	4	-1E+10	1	-1E+10	1	-1E+10	1	-1E+10	1	-1E+10	1	-1E+10	1
4902642	22	C	01/26/2025	13:25	-132.171	46.117	0	1729.90	0	2.1700	0	34.5590	0	27.614	0	1708.601	0	36.6	4	11.1	4	-1E+10	1	-1E+10	1	-1E+10	1	-1E+10	1	-1E+10	1	-1E+10	1
4902642	22	C	01/26/2025	13:25	-132.171	46.117	0	1749.80	0	2.1580	0	34.5610	0	27.617	0	1728.175	0	37.4	4	11.3	4	-1E+10	1	-1E+10	1	-1E+10	1	-1E+10	1	-1E+10	1	-1E+10	1
4902642	22	C	01/26/2025	13:25	-132.171	46.117	0	1769.90	0	2.1420	0	34.5630	0	27.620	0	1747.944	0	38.3	4	11.6	4	-1E+10	1	-1E+10	1	-1E+10	1	-1E+10	1	-1E+10	1	-1E+10	1
4902642	22	C	01/26/2025	13:25	-132.171	46.117	0	1789.70	0	2.1220	0	34.5660	0	27.624	0	1767.416	0	39.5	4	11.9	4	-1E+10	1	-1E+10	1	-1E+10	1	-1E+10	1	-1E+10	1	-1E+10	1
4902642	22	C	01/26/2025	13:25	-132.171	46.117	0	1809.80	0	2.1070	0	34.5690	0	27.628	0	1787.182	0	40.4	4	12.2	4	-1E+10	1	-1E+10	1	-1E+10	1	-1E+10	1	-1E+10	1	-1E+10	1
4902642	22	C	01/26/2025	13:25	-132.171	46.117	0	1830.00	0	2.0900	0	34.5710	0	27.631	0	1807.043	0	41.5	4	12.5	4	-1E+10	1	-1E+10	1	-1E+10	1	-1E+10	1	-1E+10	1	-1E+10	1
4902642	22	C	01/26/2025	13:25	-132.171	46.117	0	1850.10	0	2.0710	0	34.5740	0	27.635	0	1826.805	0	42.4	4	12.8	4	-1E+10	1	-1E+10	1	-1E+10	1	-1E+10	1	-1E+10	1	-1E+10	1
4902642	22	C	01/26/2025	13:25	-132.171	46.117	0	1870.30	0	2.0550	0	34.5760	0	27.638	0	1846.663	0	43.4	4	13.1	4	-1E+10	1	-1E+10	1	-1E+10	1	-1E+10	1	-1E+10	1	-1E+10	1
4902642	22	C	01/26/2025	13:25	-132.171	46.117	0	1890.20	0	2.0430	0	34.5780	0	27.640	0	1866.224	0	44.1	4	13.3	4	-1E+10	1	-1E+10	1	-1E+10	1	-1E+10	1	-1E+10	1	-1E+10	1
4902642	22	C	01/26/2025	13:25	-132.171	46.117	0	1910.10	0	2.0300	0	34.5800	0	27.643	0	1885.783	0	45.1	4	13.6	4	-1E+10	1	-1E+10	1	-1E+10	1	-1E+10	1	-1E+10	1	-1E+10	1
4902642	22	C	01/26/2025	13:25	-132.171	46.117	0	1930.10	0	2.0190	0	34.5820	0	27.646	0	1905.439	0	45.8	4	13.8	4	-1E+10	1	-1E+10	1	-1E+10	1	-1E+10	1	-1E+10	1	-1E+10	1
4902642	22	C	01/26/2025	13:25	-132.171	46.117	0	1950.20	0	2.0080	0	34.5840	0	27.648	0	1925.192	0	46.8	4	14.1	4	-1E+10	1	-1E+10	1	-1E+10	1	-1E+10	1	-1E+10	1	-1E+10	1
4902642	22	C	01/26/2025	13:25	-132.171	46.117	0	1970.00	0	1.9920	0	34.5860	0	27.651	0	1944.647	0	47.9	4	14.4	4	-1E+10	1	-1E+10	1	-1E+10	1	-1E+10	1	-1E+10	1	-1E+10	1
4902642	22	C	01/26/2025	13:25	-132.171	46.117	0	1990.50	0	1.9820	0	34.5880	0	27.654	0	1964.789	0	48.6	4	14.7	4	-1E+10	1	-1E+10	1	-1E+10	1	-1E+10	1	-1E+10	1	-1E+10	1
4902642	22	C	01/26/2025	13:25	-132.171	46.117	0	2009.80	0	1.9680	0	34.5910	4	27.657	0	1983.750	0	49.6	4	14.9	4	-1E+10	1	-1E+10	1	-1E+10	1	-1E+10	1	-1E+10	1	-1E+10	1
4902642	22	C	01/26/2025	13:25	-132.171	46.117	0	2029.60	0	1.9610	0	34.5920	4	27.659	0	2003.200	0	50.1	4	15.1	4	-1E+10	1	-1E+10	1	-1E+10	1	-1E+10	1	-1E+10	1	-1E+10	1
4902642	22	C	01/26/2025	13:25	-132.171	46.117	0	2049.90	0	1.9520	0	34.5940	4	27.661	0	2023.140	0	51.1	4	15.4	4	-1E+10	1	-1E+10	1	-1E+10	1	-1E+10	1	-1E+10	1	-1E+10	1
4902642	22	C	01/26/2025	13:25	-132.171	46.117	0	2070.10	0	1.9380	0	34.5960	4	27.664	0	2042.980	0	52.2	4	15.7	4	-1E+10	1	-1E+10	1	-1E+10	1	-1E+10	1	-1E+10	1	-1E+10	1
4902642	22	C	01/26/2025	13:25	-132.171	46.117	0	2089.90	0	1.9250	0	34.5980	4	27.667	0	2062.425	0	53.2	4	16.0	4	-1E+10	1	-1E+10	1	-1E+10	1	-1E+10	1	-1E+10	1	-1E+10	1
4902642	22	C	01/26/2025	13:25	-132.171	46.117	0	2109.80	0	1.9150	0	34.6000	4	27.669	0	2081.966	0	53.8	4	16.2	4	-1E+10	1	-1E+10	1	-1E+10	1	-1E+10	1	-1E+10	1	-1E+10	1
4902642	22	C	01/26/2025	13:25	-132.171	46.117	0	2130.10	0	1.9070	0	34.6020	4	27.671	0	2101.899	0	54.4	4	16.4	4	-1E+10	1	-1E+10	1	-1E+10	1	-1E+10	1	-1E+10	1	-1E+10	1
4902642	22	C	01/26/2025	13:25	-132.171	46.117	0	2150.00	0	1.8990	0	34.6030	4	27.673	0	2121.436	0	55.1	4	16.6	4	-1E+10	1	-1E+10	1	-1E+10	1	-1E+10	1	-1E+10	1	-1E+10	1
4902642	22	C	01/26/2025	13:25	-132.171	46.117	0	2170.30	0	1.8900	0	34.6050	4	27.675	0	2141.365	0	55.7	4	16.8	4	-1E+10	1	-1E+10	1	-1E+10	1	-1E+10	1	-1E+10	1	-1E+10	1
4902642	22	C	01/26/2025	13:25	-132.171	46.117	0	2189.90	0	1.8780	0	34.6050	4	27.676	0	2160.605	0	55.9	4	16.8	4	-1E+10	1	-1E+10	1	-1E+10	1	-1E+10	1	-1E+10	1	-1E+10	1
4902642	22	C	01/26/2025	13:25	-132.171	46.117	0	2209.80	0	1.8710	0	34.6070	4	27.679	0	2180.137	0	57.0	4	17.1	4	-1E+10	1	-1E+10	1	-1E+10	1	-1E+10	1	-1E+10	1	-1E+10	1
4902642	22	C	01/26/2025	13:25	-132.171	46.117	0	2229.90	0	1.8650	0	34.6080	4	27.680	0	2199.864	0	57.9	4	17.4	4	-1E+10	1	-1E+10	1	-1E+10	1	-1E+10	1	-1E+10	1	-1E+10	1
4902642	22	C	01/26/2025	13:25	-132.171	46.117	0	2249.80	0	1.8580	0	34.6100	4	27.682	0	2219.393	0	58.8	4	17.7	4	-1E+10	1	-1E+10	1	-1E+10	1	-1E+10	1	-1E+10	1	-1E+10	1
4902642	22	C	01/26/2025	13:25	-132.171	46.117	0	2270.30	0	1.8520	0	34.6110	4	27.684	0	2239.509	0	59.3	4	17.8	4	-1E+10	1	-1E+10	1	-1E+10	1	-1E+10	1	-1E+10	1	-1E+10	1
4902642	22	C	01/26/2025	13:25	-132.171	46.117	0	2290.00	0	1.8450	0	34.6130	4	27.686	0	2258.838	0	60.0	4	18.0	4	-1E+10	1	-1E+10	1	-1E+10	1	-1E+10	1	-1E+10	1	-1E+10	1
4902642	22	C	01/26/2025	13:25	-132.171	46.117	0	2310.00	0	1.8390	0	34.6140	4	27.687	0	2278.459	0	60.9	4	18.3	4	-1E+10	1	-1E+10	1	-1E+10	1	-1E+10	1	-1E+10	1	-1E+10	1
4902642	22	C	01/26/2025	13:25	-132.171	46.117	0	2330.30	0	1.8320	0	34.6150	4	27.689	0	2298.373	0	61.5	4	18.5	4	-1E+10	1	-1E+10	1	-1E+10	1	-1E+10	1	-1E+10	1	-1E+10	1
4902642	22	C	01/26/2025	13:25	-132.171	46.117	0	2350.10	0	1.8230	0	34.6160	4	27.690	0	2317.795	0	61.9	4	18.6	4	-1E+10	1	-1E+10	1	-1E+10	1	-1E+10	1	-1E+10	1	-1E+10	1
4902642	22	C	01/26/2025	13:25	-132.171	46.117	0	2369.80	0	1.8110	0	34.6170	4	27.692	0	2337.117	0	62.5	4	18.8	4	-1E+10	1	-1E+10	1	-1E+10	1	-1E+10	1	-1E+10	1	-1E+10	1
4902642	22	C	01/26/2025	13:25	-132.171	46.117	0	2389.70	0	1.8040	0	34.6180	4	27.694	0	2356.633	0	63.2	4	19.0	4	-1E+10	1	-1E+10	1	-1E+10	1	-1E+10	1	-1E+10	1	-1E+10	1
4902642	22	C	01/26/2025	13:25	-132.171	46.117	0	2410.00	0	1.7980	0	34.6190	4	27.695	0	2376.540	0	64.0	4	19.2	4	-1E+10	1	-1E+10	1	-1E+10	1	-1E+10	1	-1E+10	1	-1E+10	1
4902642	22	C	01/26/2025	13:25	-132.171	46.117	0	2430.10	0	1.7940	0	34.6200	4	27.696	0	2396.249	0	64.8	4	19.4	4	-1E+10	1	-1E+10	1	-1E+10	1	-1E+10	1	-1E+10	1	-1E+10	1
4902642	22	C	01/26/2025	13:25	-132.171	46.117	0	2449.70	0	1.7840	0	34.6210	4	27.698	0	2415.466	0	65.6	4	19.7	4	-1E+10	1	-1E+10	1	-1E+10	1	-1E+10	1	-1E+10	1	-1E+10	1
4902642	22	C	01/26/2025	13:25	-132.171	46.117	0	2469.70	0	1.7750	0	34.6220	4	27.699	0	2435.073	0	66.5	4	19.9	4	-1E+10	1	-1E+10	1	-1E+10	1	-1E+10	1	-1E+10	1	-1E+10	1
4902642	22	C	01/26/2025	13:25	-132.171	46.117	0	2489.90	0	1.7660	0	34.6240	4	27.702	0	2454.874	0	67.4	4	20.2	4	-1E+10	1	-1E+10	1	-1E+10	1	-1E+10	1	-1E+10	1	-1E+10	1
4902642	22	C	01/26/2025	13:25	-132.171	46.117	0	2509.90	0	1.7580	0	34.6250	4	27.703	0	2474.478	0	68.3	4	20.5	4	-1E+10	1	-1E+10	1	-1E+10	1	-1E+10	1	-1E+10	1	-1E+10	1
4902642	22	C	01/26/2025	13:25	-132.171	46.117	0	2530.20	0	1.7480	0	34.6260	4	27.705	0	2494.374	0	69.3	4	20.8	4	-1E+10	1	-1E+10	1	-1E+10	1	-1E+10	1	-1E+10	1	-1E+10	1
4902642	22	C	01/26/2025	13:25	-132.171	46.117	0	2549.80	0	1.7410	0	34.6260	4	27.706	0	2513.582	0	70.1	4	21.0	4	-1E+10	1	-1E+10	1	-1E+10	1	-1E+10	1	-1E+10	1	-1E+10	1
4902642	22	C	01/26/2025	13:25	-132.171	46.117	0	2569.80	0	1.7310	0	34.6270	4	27.707	0	2533.180	0	70.9	4	21.2	4	-1E+10	1	-1E+10	1	-1E+10	1	-1E+10	1	-1E+10	1	-1E+10	1
4902642	22	C	01/26/2025	13:25	-132.171	46.117	0	2589.90	0	1.7260	0	34.6280	4	27.709	0	2552.874	0	71.8	4	21.5	4	-1E+10	1	-1E+10	1	-1E+10	1	-1E+10	1	-1E+10	1	-1E+10	1
4902642	22	C	01/26/2025	13:25	-132.171	46.117	0	2609.70	0	1.7200	0	34.6300	4	27.711	0	2572.273	0	72.5	4	21.7	4	-1E+10	1	-1E+10	1	-1E+10	1	-1E+10	1	-1E+10	1	-1E+10	1
4902642	22	C	01/26/2025	13:25	-132.171	46.117	0	2629.60	0	1.7160	0	34.6300	4	27.711	0	2591.768	0	73.1	4	21.9	4	-1E+10	1	-1E+10	1	-1E+10	1	-1E+10	1	-1E+10	1	-1E+10	1
4902642	22	C	01/26/2025	13:25	-132.171	46.117	0	2649.80	0	1.7110	0	34.6310	4	27.712	0	2611.555	0	73.6	4	22.0	4	-1E+10	1	-1E+10	1	-1E+10	1	-1E+10	1	-1E+10	1	-1E+10	1
4902642	22	C	01/26/2025	13:25	-132.171	46.117	0	2669.80	0	1.7100	0	34.6320	4	27.713	0	2631.145	0	74.0	4	22.1	4	-1E+10	1	-1E+10	1	-1E+10	1	-1E+10	1	-1E+10	1	-1E+10	1
4902642	22	C	01/26/2025	13:25	-132.171	46.117	0	2690.40	0	1.7050	0	34.6320	4	27.714	0	2651.320	0	74.8	4	22.4	4	-1E+10	1	-1E+10	1	-1E+10	1	-1E+10	1	-1E+10	1	-1E+10	1
4902642	22	C	01/26/2025	13:25	-132.171	46.117	0	2710.10	0	1.6990	0	34.6340	4	27.716	0	2670.612	0	75.5	4	22.6	4	-1E+10	1	-1E+10	1	-1E+10	1	-1E+10	1	-1E+10	1	-1E+10	1
4902642	22	C	01/26/2025	13:25	-132.171	46.117	0	2729.90	0	1.6960	0	34.6350	4	27.717	0	2690.000	0	76.0	4	22.7	4	-1E+10	1	-1E+10	1	-1E+10	1	-1E+10	1	-1E+10	1	-1E+10	1
4902642	22	C	01/26/2025	13:25	-132.171	46.117	0	2749.90	0	1.6930	0	34.6350	4	27.718	0	2709.582	0	76.6	4	22.9	4	-1E+10	1	-1E+10	1	-1E+10	1	-1E+10	1	-1E+10	1	-1E+10	1
4902642	22	C	01/26/2025	13:25	-132.171	46.117	0	2770.20	0	1.6880	0	34.6360	4	27.719	0	2729.456	0	77.3	4	23.1	4	-1E+10	1	-1E+10	1	-1E+10	1	-1E+10	1	-1E+10	1	-1E+10	1
4902642	22	C	01/26/2025	13:25	-132.171	46.117	0	2790.20	0	1.6840	0	34.6370	4	27.720	0	2749.035	0	77.9	4	23.3	4	-1E+10	1	-1E+10	1	-1E+10	1	-1E+10	1	-1E+10	1	-1E+10	1
4902642	22	C	01/26/2025	13:25	-132.171	46.117	0	2809.90	0	1.6760	0	34.6380	4	27.722	0	2768.318	0	78.7	4	23.6	4	-1E+10	1	-1E+10	1	-1E+10	1	-1E+10	1	-1E+10	1	-1E+10	1
4902642	22	C	01/26/2025	13:25	-132.171	46.117	0	2829.60	0	1.6730	0	34.6380	4	27.722	0	2787.600	0	79.1	4	23.7	4	-1E+10	1	-1E+10	1	-1E+10	1	-1E+10	1	-1E+10	1	-1E+10	1
4902642	22	C	01/26/2025	13:25	-132.171	46.117	0	2850.10	0	1.6710	0	34.6390	4	27.723	0	2807.662	0	79.6	4	23.8	4	-1E+10	1	-1E+10	1	-1E+10	1	-1E+10	1	-1E+10	1	-1E+10	1
4902642	22	C	01/26/2025	13:25	-132.171	46.117	0	2870.40	0	1.6680	0	34.6400	4	27.724	0	2827.527	0	80.1	4	24.0	4	-1E+10	1	-1E+10	1	-1E+10	1	-1E+10	1	-1E+10	1	-1E+10	1
4902642	22	C	01/26/2025	13:25	-132.171	46.117	0	2889.80	0	1.6650	0	34.6400	4	27.725	0	2846.510	0	80.7	4	24.1	4	-1E+10	1	-1E+10	1	-1E+10	1	-1E+10	1	-1E+10	1	-1E+10	1
4902642	22	C	01/26/2025	13:25	-132.171	46.117	0	2910.20	0	1.6620	0	34.6410	4	27.726	0	2866.469	0	81.2	4	24.3	4	-1E+10	1	-1E+10	1	-1E+10	1	-1E+10	1	-1E+10	1	-1E+10	1
4902642	22	C	01/26/2025	13:25	-132.171	46.117	0	2929.90	0	1.6570	0	34.6420	4	27.727	0	2885.742	0	82.0	4	24.5	4	-1E+10	1	-1E+10	1	-1E+10	1	-1E+10	1	-1E+10	1	-1E+10	1
4902642	22	C	01/26/2025	13:25	-132.171	46.117	0	2949.60	0	1.6540	0	34.6430	4	27.728	0	2905.013	0	82.7	4	24.7	4	-1E+10	1	-1E+10	1	-1E+10	1	-1E+10	1	-1E+10	1	-1E+10	1
4902642	22	C	01/26/2025	13:25	-132.171	46.117	0	2969.60	0	1.6510	0	34.6440	4	27.729	0	2924.576	0	83.2	4	24.9	4	-1E+10	1	-1E+10	1	-1E+10	1	-1E+10	1	-1E+10	1	-1E+10	1
4902642	22	C	01/26/2025	13:25	-132.171	46.117	0	2990.00	0	1.6470	0	34.6450	4	27.731	0	2944.528	0	83.7	4	25.0	4	-1E+10	1	-1E+10	1	-1E+10	1	-1E+10	1	-1E+10	1	-1E+10	1
4902642	22	C	01/26/2025	13:25	-132.171	46.117	0	3010.70	0	1.6440	0	34.6450	4	27.731	0	2964.772	0	84.4	4	25.2	4	-1E+10	1	-1E+10	1	-1E+10	1	-1E+10	1	-1E+10	1	-1E+10	1
4902642	22	C	01/26/2025	13:25	-132.171	46.117	0	3029.80	0	1.6390	0	34.6460	4	27.732	0	2983.449	0	85.0	4	25.4	4	-1E+10	1	-1E+10	1	-1E+10	1	-1E+10	1	-1E+10	1	-1E+10	1
4902642	22	C	01/26/2025	13:25	-132.171	46.117	0	3049.80	0	1.6370	0	34.6470	4	27.733	0	3003.005	0	85.4	4	25.5	4	-1E+10	1	-1E+10	1	-1E+10	1	-1E+10	1	-1E+10	1	-1E+10	1
4902642	22	C	01/26/2025	13:25	-132.171	46.117	0	3069.80	0	1.6370	0	34.6470	4	27.733	0	3022.559	0	85.7	4	25.6	4	-1E+10	1	-1E+10	1	-1E+10	1	-1E+10	1	-1E+10	1	-1E+10	1
4902642	22	C	01/26/2025	13:25	-132.171	46.117	0	3089.60	0	1.6350	0	34.6480	4	27.734	0	3041.915	0	86.4	4	25.8	4	-1E+10	1	-1E+10	1	-1E+10	1	-1E+10	1	-1E+10	1	-1E+10	1
4902642	22	C	01/26/2025	13:25	-132.171	46.117	0	3109.70	0	1.6310	0	34.6490	4	27.736	0	3061.563	0	87.0	4	26.0	4	-1E+10	1	-1E+10	1	-1E+10	1	-1E+10	1	-1E+10	1	-1E+10	1
4902642	22	C	01/26/2025	13:25	-132.171	46.117	0	3130.00	0	1.6280	0	34.6490	4	27.736	0	3081.405	0	87.6	4	26.2	4	-1E+10	1	-1E+10	1	-1E+10	1	-1E+10	1	-1E+10	1	-1E+10	1
4902642	22	C	01/26/2025	13:25	-132.171	46.117	0	3150.00	0	1.6220	0	34.6500	4	27.737	0	3100.952	0	88.8	4	26.5	4	-1E+10	1	-1E+10	1	-1E+10	1	-1E+10	1	-1E+10	1	-1E+10	1
4902642	22	C	01/26/2025	13:25	-132.171	46.117	0	3170.00	0	1.6120	0	34.6510	4	27.739	0	3120.497	0	89.9	4	26.9	4	-1E+10	1	-1E+10	1	-1E+10	1	-1E+10	1	-1E+10	1	-1E+10	1
4902642	22	C	01/26/2025	13:25	-132.171	46.117	0	3189.60	0	1.6060	0	34.6530	4	27.741	0	3139.650	0	90.9	4	27.2	4	-1E+10	1	-1E+10	1	-1E+10	1	-1E+10	1	-1E+10	1	-1E+10	1
4902642	22	C	01/26/2025	13:25	-132.171	46.117	0	3209.60	0	1.5980	0	34.6540	4	27.743	0	3159.192	0	92.0	4	27.5	4	-1E+10	1	-1E+10	1	-1E+10	1	-1E+10	1	-1E+10	1	-1E+10	1
4902642	22	C	01/26/2025	13:25	-132.171	46.117	0	3229.60	0	1.5940	0	34.6550	4	27.744	0	3178.732	0	92.7	4	27.7	4	-1E+10	1	-1E+10	1	-1E+10	1	-1E+10	1	-1E+10	1	-1E+10	1
4902642	22	C	01/26/2025	13:25	-132.171	46.117	0	3250.30	0	1.5880	0	34.6560	4	27.745	0	3198.953	0	93.8	4	28.0	4	-1E+10	1	-1E+10	1	-1E+10	1	-1E+10	1	-1E+10	1	-1E+10	1
4902642	22	C	01/26/2025	13:25	-132.171	46.117	0	3270.00	0	1.5820	0	34.6570	4	27.747	0	3218.197	0	94.7	4	28.3	4	-1E+10	1	-1E+10	1	-1E+10	1	-1E+10	1	-1E+10	1	-1E+10	1
4902642	22	C	01/26/2025	13:25	-132.171	46.117	0	3290.20	0	1.5760	0	34.6580	4	27.748	0	3237.927	0	95.6	4	28.5	4	-1E+10	1	-1E+10	1	-1E+10	1	-1E+10	1	-1E+10	1	-1E+10	1
4902642	22	C	01/26/2025	13:25	-132.171	46.117	0	3310.00	0	1.5720	0	34.6590	4	27.749	0	3257.264	0	96.3	4	28.7	4	-1E+10	1	-1E+10	1	-1E+10	1	-1E+10	1	-1E+10	1	-1E+10	1
4902642	22	C	01/26/2025	13:25	-132.171	46.117	0	3330.00	0	1.5650	0	34.6600	4	27.751	0	3276.795	0	97.3	4	29.0	4	-1E+10	1	-1E+10	1	-1E+10	1	-1E+10	1	-1E+10	1	-1E+10	1
4902642	22	C	01/26/2025	13:25	-132.171	46.117	0	3350.20	0	1.5610	0	34.6610	4	27.752	0	3296.520	0	97.8	4	29.2	4	-1E+10	1	-1E+10	1	-1E+10	1	-1E+10	1	-1E+10	1	-1E+10	1
4902642	22	C	01/26/2025	13:25	-132.171	46.117	0	3370.00	0	1.5610	0	34.6610	4	27.752	0	3315.852	0	98.1	4	29.3	4	-1E+10	1	-1E+10	1	-1E+10	1	-1E+10	1	-1E+10	1	-1E+10	1
4902642	22	C	01/26/2025	13:25	-132.171	46.117	0	3389.10	0	1.5580	0	34.6620	4	27.753	0	3334.500	0	98.4	4	29.4	4	-1E+10	1	-1E+10	1	-1E+10	1	-1E+10	1	-1E+10	1	-1E+10	1
4902642	22	C	01/26/2025	13:25	-132.171	46.117	0																										
4902642	23	C	02/05/2025	10:28	-132.093	46.143	0	0.50	0	9.7643	0	32.5290	0	25.062	0	0.496	0	249.1	4	88.7	4	-1E+10	1	-1E+10	1	-1E+10	1	-1E+10	1	-1E+10	1	-1E+10	1
4902642	23	C	02/05/2025	10:28	-132.093	46.143	0	0.60	0	9.7850	0	32.5490	0	25.074	0	0.595	0	249.3	4	88.8	4	-1E+10	1	-1E+10	1	-1E+10	1	-1E+10	1	-1E+10	1	-1E+10	1
4902642	23	C	02/05/2025	10:28	-132.093	46.143	0	0.70	0	9.7886	0	32.5471	0	25.072	0	0.694	0	249.3	4	88.8	4	-1E+10	1	-1E+10	1	-1E+10	1	-1E+10	1	-1E+10	1	-1E+10	1
4902642	23	C	02/05/2025	10:28	-132.093	46.143	0	1.40	0	9.8140	0	32.5340	0	25.058	0	1.388	0	248.9	4	88.7	4	-1E+10	1	-1E+10	1	-1E+10	1	-1E+10	1	-1E+10	1	-1E+10	1
4902642	23	C	02/05/2025	10:28	-132.093	46.143	0	2.50	0	9.8260	0	32.5270	0	25.051	0	2.479	0	248.8	4	88.7	4	-1E+10	1	-1E+10	1	-1E+10	1	-1E+10	1	-1E+10	1	-1E+10	1
4902642	23	C	02/05/2025	10:28	-132.093	46.143	0	3.60	0	9.8270	0	32.5280	0	25.051	0	3.570	0	248.7	4	88.6	4	-1E+10	1	-1E+10	1	-1E+10	1	-1E+10	1	-1E+10	1	-1E+10	1
4902642	23	C	02/05/2025	10:28	-132.093	46.143	0	4.60	0	9.8320	0	32.5250	0	25.048	0	4.562	0	248.8	4	88.7	4	-1E+10	1	-1E+10	1	-1E+10	1	-1E+10	1	-1E+10	1	-1E+10	1
4902642	23	C	02/05/2025	10:28	-132.093	46.143	0	5.40	0	9.8320	0	32.5250	0	25.048	0	5.356	0	248.7	4	88.7	4	-1E+10	1	-1E+10	1	-1E+10	1	-1E+10	1	-1E+10	1	-1E+10	1
4902642	23	C	02/05/2025	10:28	-132.093	46.143	0	6.40	0	9.8300	0	32.5250	0	25.048	0	6.347	0	248.6	4	88.6	4	-1E+10	1	-1E+10	1	-1E+10	1	-1E+10	1	-1E+10	1	-1E+10	1
4902642	23	C	02/05/2025	10:28	-132.093	46.143	0	7.40	0	9.8270	0	32.5270	0	25.050	0	7.339	0	248.7	4	88.6	4	-1E+10	1	-1E+10	1	-1E+10	1	-1E+10	1	-1E+10	1	-1E+10	1
4902642	23	C	02/05/2025	10:28	-132.093	46.143	0	8.20	0	9.8260	0	32.5250	0	25.049	0	8.132	0	248.7	4	88.6	4	-1E+10	1	-1E+10	1	-1E+10	1	-1E+10	1	-1E+10	1	-1E+10	1
4902642	23	C	02/05/2025	10:28	-132.093	46.143	0	9.40	0	9.8310	0	32.5250	0	25.048	0	9.323	0	248.7	4	88.6	4	-1E+10	1	-1E+10	1	-1E+10	1	-1E+10	1	-1E+10	1	-1E+10	1
4902642	23	C	02/05/2025	10:28	-132.093	46.143	0	14.70	0	9.8310	0	32.5250	0	25.048	0	14.579	0	248.6	4	88.6	4	-1E+10	1	-1E+10	1	-1E+10	1	-1E+10	1	-1E+10	1	-1E+10	1
4902642	23	C	02/05/2025	10:28	-132.093	46.143	0	24.90	0	9.8320	0	32.5240	0	25.048	0	24.694	0	248.4	4	88.6	4	-1E+10	1	-1E+10	1	-1E+10	1	-1E+10	1	-1E+10	1	-1E+10	1
4902642	23	C	02/05/2025	10:28	-132.093	46.143	0	34.70	0	9.8310	0	32.5250	0	25.049	0	34.412	0	248.3	4	88.5	4	-1E+10	1	-1E+10	1	-1E+10	1	-1E+10	1	-1E+10	1	-1E+10	1
4902642	23	C	02/05/2025	10:28	-132.093	46.143	0	44.80	0	9.8340	0	32.5250	0	25.048	0	44.427	0	248.0	4	88.4	4	-1E+10	1	-1E+10	1	-1E+10	1	-1E+10	1	-1E+10	1	-1E+10	1
4902642	23	C	02/05/2025	10:28	-132.093	46.143	0	54.80	0	9.8370	0	32.5250	0	25.048	0	54.342	0	247.6	4	88.3	4	-1E+10	1	-1E+10	1	-1E+10	1	-1E+10	1	-1E+10	1	-1E+10	1
4902642	23	C	02/05/2025	10:28	-132.093	46.143	0	64.70	0	9.8380	0	32.5250	0	25.048	0	64.158	0	247.1	4	88.1	4	-1E+10	1	-1E+10	1	-1E+10	1	-1E+10	1	-1E+10	1	-1E+10	1
4902642	23	C	02/05/2025	10:28	-132.093	46.143	0	74.90	0	9.8380	0	32.5250	0	25.048	0	74.271	0	246.0	4	87.7	4	-1E+10	1	-1E+10	1	-1E+10	1	-1E+10	1	-1E+10	1	-1E+10	1
4902642	23	C	02/05/2025	10:28	-132.093	46.143	0	85.20	0	9.8390	0	32.5250	0	25.048	0	84.482	0	242.0	4	86.3	4	-1E+10	1	-1E+10	1	-1E+10	1	-1E+10	1	-1E+10	1	-1E+10	1
4902642	23	C	02/05/2025	10:28	-132.093	46.143	0	94.80	0	9.7190	0	32.5870	0	25.117	0	93.999	0	228.2	4	81.2	4	-1E+10	1	-1E+10	1	-1E+10	1	-1E+10	1	-1E+10	1	-1E+10	1
4902642	23	C	02/05/2025	10:28	-132.093	46.143	0	105.00	0	8.8830	0	32.9800	0	25.557	0	104.110	0	211.8	4	74.2	4	-1E+10	1	-1E+10	1	-1E+10	1	-1E+10	1	-1E+10	1	-1E+10	1
4902642	23	C	02/05/2025	10:28	-132.093	46.143	0	115.00	0	8.6110	0	33.1840	0	25.759	0	114.023	0	205.0	4	71.5	4	-1E+10	1	-1E+10	1	-1E+10	1	-1E+10	1	-1E+10	1	-1E+10	1
4902642	23	C	02/05/2025	10:28	-132.093	46.143	0	124.50	0	8.3730	0	33.2990	0	25.885	0	123.439	0	200.0	4	69.4	4	-1E+10	1	-1E+10	1	-1E+10	1	-1E+10	1	-1E+10	1	-1E+10	1
4902642	23	C	02/05/2025	10:28	-132.093	46.143	0	135.00	0	8.1560	0	33.4720	0	26.053	0	133.846	0	194.8	4	67.4	4	-1E+10	1	-1E+10	1	-1E+10	1	-1E+10	1	-1E+10	1	-1E+10	1
4902642	23	C	02/05/2025	10:28	-132.093	46.143	0	145.10	0	7.8470	0	33.5810	0	26.184	0	143.856	0	192.2	4	66.1	4	-1E+10	1	-1E+10	1	-1E+10	1	-1E+10	1	-1E+10	1	-1E+10	1
4902642	23	C	02/05/2025	10:28	-132.093	46.143	0	154.60	0	7.6300	0	33.6370	0	26.260	0	153.271	0	188.7	4	64.6	4	-1E+10	1	-1E+10	1	-1E+10	1	-1E+10	1	-1E+10	1	-1E+10	1
4902642	23	C	02/05/2025	10:28	-132.093	46.143	0	164.70	0	7.4340	0	33.6910	0	26.330	0	163.281	0	184.9	4	63.0	4	-1E+10	1	-1E+10	1	-1E+10	1	-1E+10	1	-1E+10	1	-1E+10	1
4902642	23	C	02/05/2025	10:28	-132.093	46.143	0	174.80	0	7.2730	0	33.7350	0	26.387	0	173.289	0	179.7	4	61.1	4	-1E+10	1	-1E+10	1	-1E+10	1	-1E+10	1	-1E+10	1	-1E+10	1
4902642	23	C	02/05/2025	10:28	-132.093	46.143	0	185.00	0	7.1100	0	33.7670	0	26.435	0	183.397	0	175.4	4	59.4	4	-1E+10	1	-1E+10	1	-1E+10	1	-1E+10	1	-1E+10	1	-1E+10	1
4902642	23	C	02/05/2025	10:28	-132.093	46.143	0	195.00	0	7.0270	0	33.7790	0	26.456	0	193.305	0	172.0	4	58.1	4	-1E+10	1	-1E+10	1	-1E+10	1	-1E+10	1	-1E+10	1	-1E+10	1
4902642	23	C	02/05/2025	10:28	-132.093	46.143	0	210.00	0	6.8610	0	33.7930	0	26.490	0	208.168	0	161.3	4	54.3	4	-1E+10	1	-1E+10	1	-1E+10	1	-1E+10	1	-1E+10	1	-1E+10	1
4902642	23	C	02/05/2025	10:28	-132.093	46.143	0	230.10	0	6.5300	0	33.8110	0	26.548	0	228.081	0	144.9	4	48.4	4	-1E+10	1	-1E+10	1	-1E+10	1	-1E+10	1	-1E+10	1	-1E+10	1
4902642	23	C	02/05/2025	10:28	-132.093	46.143	0	250.00	0	6.3150	0	33.8210	0	26.584	0	247.795	0	125.7	4	41.8	4	-1E+10	1	-1E+10	1	-1E+10	1	-1E+10	1	-1E+10	1	-1E+10	1
4902642	23	C	02/05/2025	10:28	-132.093	46.143	0	269.60	0	6.1140	0	33.8490	0	26.632	0	267.209	0	101.0	4	33.4	4	-1E+10	1	-1E+10	1	-1E+10	1	-1E+10	1	-1E+10	1	-1E+10	1
4902642	23	C	02/05/2025	10:28	-132.093	46.143	0	289.60	0	5.9080	0	33.8780	0	26.681	0	287.018	0	85.0	4	28.0	4	-1E+10	1	-1E+10	1	-1E+10	1	-1E+10	1	-1E+10	1	-1E+10	1
4902642	23	C	02/05/2025	10:28	-132.093	46.143	0	309.70	0	5.8770	0	33.9090	0	26.709	0	306.924	0	72.2	4	23.8	4	-1E+10	1	-1E+10	1	-1E+10	1	-1E+10	1	-1E+10	1	-1E+10	1
4902642	23	C	02/05/2025	10:28	-132.093	46.143	0	330.50	0	5.7050	0	33.9130	0	26.734	0	327.521	0	69.2	4	22.7	4	-1E+10	1	-1E+10	1	-1E+10	1	-1E+10	1	-1E+10	1	-1E+10	1
4902642	23	C	02/05/2025	10:28	-132.093	46.143	0	349.90	0	5.6880	0	33.9410	0	26.758	0	346.730	0	59.6	4	19.5	4	-1E+10	1	-1E+10	1	-1E+10	1	-1E+10	1	-1E+10	1	-1E+10	1
4902642	23	C	02/05/2025	10:28	-132.093	46.143	0	369.90	0	5.5430	0	33.9520	0	26.785	0	366.531	0	54.5	4	17.8	4	-1E+10	1	-1E+10	1	-1E+10	1	-1E+10	1	-1E+10	1	-1E+10	1
4902642	23	C	02/05/2025	10:28	-132.093	46.143	0	389.60	0	5.4220	0	33.9750	0	26.817	0	386.033	0	48.2	4	15.7	4	-1E+10	1	-1E+10	1	-1E+10	1	-1E+10	1	-1E+10	1	-1E+10	1
4902642	23	C	02/05/2025	10:28	-132.093	46.143	0	409.50	0	5.2270	0	33.9770	0	26.842	0	405.731	0	46.3	4	15.0	4	-1E+10	1	-1E+10	1	-1E+10	1	-1E+10	1	-1E+10	1	-1E+10	1
4902642	23	C	02/05/2025	10:28	-132.093	46.143	0	429.40	0	5.0060	0	33.9860	0	26.875	0	425.428	0	42.4	4	13.7	4	-1E+10	1	-1E+10	1	-1E+10	1	-1E+10	1	-1E+10	1	-1E+10	1
4902642	23	C	02/05/2025	10:28	-132.093	46.143	0	450.40	0	4.8520	0	34.0020	0	26.905	0	446.211	0	39.2	4	12.6	4	-1E+10	1	-1E+10	1	-1E+10	1	-1E+10	1	-1E+10	1	-1E+10	1
4902642	23	C	02/05/2025	10:28	-132.093	46.143	0	470.00	0	4.7800	0	34.0130	0	26.922	0	465.607	0	36.6	4	11.8	4	-1E+10	1	-1E+10	1	-1E+10	1	-1E+10	1	-1E+10	1	-1E+10	1
4902642	23	C	02/05/2025	10:28	-132.093	46.143	0	489.70	0	4.7230	0	34.0250	0	26.938	0	485.100	0	34.2	4	11.0	4	-1E+10	1	-1E+10	1	-1E+10	1	-1E+10	1	-1E+10	1	-1E+10	1
4902642	23	C	02/05/2025	10:28	-132.093	46.143	0	509.60	0	4.6820	0	34.0360	0	26.951	0	504.788	0	31.3	4	10.0	4	-1E+10	1	-1E+10	1	-1E+10	1	-1E+10	1	-1E+10	1	-1E+10	1
4902642	23	C	02/05/2025	10:28	-132.093	46.143	0	529.80	0	4.6320	0	34.0540	0	26.971	0	524.772	0	27.4	4	8.8	4	-1E+10	1	-1E+10	1	-1E+10	1	-1E+10	1	-1E+10	1	-1E+10	1
4902642	23	C	02/05/2025	10:28	-132.093	46.143	0	549.80	0	4.5450	0	34.0750	0	26.997	0	544.556	0	23.9	4	7.6	4	-1E+10	1	-1E+10	1	-1E+10	1	-1E+10	1	-1E+10	1	-1E+10	1
4902642	23	C	02/05/2025	10:28	-132.093	46.143	0	569.10	0	4.4970	0	34.0930	0	27.017	0	563.646	0	20.0	4	6.4	4	-1E+10	1	-1E+10	1	-1E+10	1	-1E+10	1	-1E+10	1	-1E+10	1
4902642	23	C	02/05/2025	10:28	-132.093	46.143	0	589.80	0	4.4710	0	34.1310	0	27.050	0	584.119	0	15.6	4	5.0	4	-1E+10	1	-1E+10	1	-1E+10	1	-1E+10	1	-1E+10	1	-1E+10	1
4902642	23	C	02/05/2025	10:28	-132.093	46.143	0	610.00	0	4.3970	0	34.1540	0	27.076	0	604.095	0	13.9	4	4.4	4	-1E+10	1	-1E+10	1	-1E+10	1	-1E+10	1	-1E+10	1	-1E+10	1
4902642	23	C	02/05/2025	10:28	-132.093	46.143	0	629.80	0	4.2610	0	34.1650	0	27.100	0	623.673	0	12.9	4	4.1	4	-1E+10	1	-1E+10	1	-1E+10	1	-1E+10	1	-1E+10	1	-1E+10	1
4902642	23	C	02/05/2025	10:28	-132.093	46.143	0	649.70	0	4.2240	0	34.1830	0	27.118	0	643.349	0	11.2	4	3.6	4	-1E+10	1	-1E+10	1	-1E+10	1	-1E+10	1	-1E+10	1	-1E+10	1
4902642	23	C	02/05/2025	10:28	-132.093	46.143	0	669.80	0	4.2040	0	34.1980	0	27.132	0	663.221	0	9.9	4	3.2	4	-1E+10	1	-1E+10	1	-1E+10	1	-1E+10	1	-1E+10	1	-1E+10	1
4902642	23	C	02/05/2025	10:28	-132.093	46.143	0	690.70	0	4.1590	0	34.2150	0	27.151	0	683.881	0	8.8	4	2.8	4	-1E+10	1	-1E+10	1	-1E+10	1	-1E+10	1	-1E+10	1	-1E+10	1
4902642	23	C	02/05/2025	10:28	-132.093	46.143	0	710.00	0	4.0790	0	34.2330	0	27.173	0	702.958	0	8.0	4	2.5	4	-1E+10	1	-1E+10	1	-1E+10	1	-1E+10	1	-1E+10	1	-1E+10	1
4902642	23	C	02/05/2025	10:28	-132.093	46.143	0	729.90	0	4.0310	0	34.2430	0	27.186	0	722.626	0	7.6	4	2.4	4	-1E+10	1	-1E+10	1	-1E+10	1	-1E+10	1	-1E+10	1	-1E+10	1
4902642	23	C	02/05/2025	10:28	-132.093	46.143	0	749.70	0	3.9660	0	34.2520	0	27.200	0	742.194	0	7.4	4	2.3	4	-1E+10	1	-1E+10	1	-1E+10	1	-1E+10	1	-1E+10	1	-1E+10	1
4902642	23	C	02/05/2025	10:28	-132.093	46.143	0	769.60	0	3.8430	0	34.2540	0	27.214	0	761.858	0	7.4	4	2.3	4	-1E+10	1	-1E+10	1	-1E+10	1	-1E+10	1	-1E+10	1	-1E+10	1
4902642	23	C	02/05/2025	10:28	-132.093	46.143	0	789.80	0	3.7470	0	34.2640	0	27.232	0	781.817	0	7.1	4	2.2	4	-1E+10	1	-1E+10	1	-1E+10	1	-1E+10	1	-1E+10	1	-1E+10	1
4902642	23	C	02/05/2025	10:28	-132.093	46.143	0	809.80	0	3.6730	0	34.2750	0	27.248	0	801.577	0	6.8	4	2.1	4	-1E+10	1	-1E+10	1	-1E+10	1	-1E+10	1	-1E+10	1	-1E+10	1
4902642	23	C	02/05/2025	10:28	-132.093	46.143	0	829.90	0	3.6220	0	34.2850	0	27.261	0	821.433	0	6.5	4	2.0	4	-1E+10	1	-1E+10	1	-1E+10	1	-1E+10	1	-1E+10	1	-1E+10	1
4902642	23	C	02/05/2025	10:28	-132.093	46.143	0	849.90	0	3.5790	0	34.2950	0	27.274	0	841.189	0	6.2	4	1.9	4	-1E+10	1	-1E+10	1	-1E+10	1	-1E+10	1	-1E+10	1	-1E+10	1
4902642	23	C	02/05/2025	10:28	-132.093	46.143	0	870.20	0	3.5340	0	34.3070	0	27.288	0	861.239	0	6.0	4	1.9	4	-1E+10	1	-1E+10	1	-1E+10	1	-1E+10	1	-1E+10	1	-1E+10	1
4902642	23	C	02/05/2025	10:28	-132.093	46.143	0	889.40	0	3.5010	0	34.3170	0	27.299	0	880.201	0	5.9	4	1.8	4	-1E+10	1	-1E+10	1	-1E+10	1	-1E+10	1	-1E+10	1	-1E+10	1
4902642	23	C	02/05/2025	10:28	-132.093	46.143	0	909.60	0	3.4670	0	34.3270	0	27.310	0	900.148	0	5.7	4	1.8	4	-1E+10	1	-1E+10	1	-1E+10	1	-1E+10	1	-1E+10	1	-1E+10	1
4902642	23	C	02/05/2025	10:28	-132.093	46.143	0	929.70	0	3.4510	0	34.3350	0	27.318	0	919.995	0	5.6	4	1.8	4	-1E+10	1	-1E+10	1	-1E+10	1	-1E+10	1	-1E+10	1	-1E+10	1
4902642	23	C	02/05/2025	10:28	-132.093	46.143	0	949.60	0	3.4280	0	34.3440	0	27.328	0	939.643	0	5.6	4	1.8	4	-1E+10	1	-1E+10	1	-1E+10	1	-1E+10	1	-1E+10	1	-1E+10	1
4902642	23	C	02/05/2025	10:28	-132.093	46.143	0	969.50	0	3.4030	0	34.3520	0	27.337	0	959.289	0	5.6	4	1.8	4	-1E+10	1	-1E+10	1	-1E+10	1	-1E+10	1	-1E+10	1	-1E+10	1
4902642	23	C	02/05/2025	10:28	-132.093	46.143	0	989.70	0	3.3760	0	34.3600	0	27.346	0	979.229	0	5.7	4	1.8	4	-1E+10	1	-1E+10	1	-1E+10	1	-1E+10	1	-1E+10	1	-1E+10	1
4902642	23	C	02/05/2025	10:28	-132.093	46.143	0	1010.30	0	3.3550	0	34.3720	0	27.358	0	999.562	0	6.0	4	1.9	4	-1E+10	1	-1E+10	1	-1E+10	1	-1E+10	1	-1E+10	1	-1E+10	1
4902642	23	C	02/05/2025	10:28	-132.093	46.143	0	1029.60	0	3.3630	0	34.3870	0	27.369	0	1018.610	0	6.6	4	2.1	4	-1E+10	1	-1E+10	1	-1E+10	1	-1E+10	1	-1E+10	1	-1E+10	1
4902642	23	C	02/05/2025	10:28	-132.093	46.143	0	1049.50	0	3.4000	0	34.4100	0	27.384	0	1038.248	0	7.4	4	2.3	4	-1E+10	1	-1E+10	1	-1E+10	1	-1E+10	1	-1E+10	1	-1E+10	1
4902642	23	C	02/05/2025	10:28	-132.093	46.143	0	1069.60	0	3.3590	0	34.4170	0	27.393	0	1058.082	0	7.9	4	2.4	4	-1E+10	1	-1E+10	1	-1E+10	1	-1E+10	1	-1E+10	1	-1E+10	1
4902642	23	C	02/05/2025	10:28	-132.093	46.143	0	1089.60	0	3.3160	0	34.4240	0	27.403	0	1077.815	0	8.3	4	2.6	4	-1E+10	1	-1E+10	1	-1E+10	1	-1E+10	1	-1E+10	1	-1E+10	1
4902642	23	C	02/05/2025	10:28	-132.093	46.143	0	1109.90	0	3.2690	0	34.4290	0	27.412	0	1097.843	0	8.6	4	2.7	4	-1E+10	1	-1E+10	1	-1E+10	1	-1E+10	1	-1E+10	1	-1E+10	1
4902642	23	C	02/05/2025	10:28	-132.093	46.143	0	1129.70	0	3.2170	0	34.4340	0	27.421	0	1117.375	0	9.0	4	2.8	4	-1E+10	1	-1E+10	1	-1E+10	1	-1E+10	1	-1E+10	1	-1E+10	1
4902642	23	C	02/05/2025	10:28	-132.093	46.143	0	1149.70	0	3.1740	0	34.4380	0	27.428	0	1137.102	0	9.3	4	2.9	4	-1E+10	1	-1E+10	1	-1E+10	1	-1E+10	1	-1E+10	1	-1E+10	1
4902642	23	C	02/05/2025	10:28	-132.093	46.143	0	1170.00	0	3.1440	0	34.4420	0	27.434	0	1157.124	0	9.6	4	3.0	4	-1E+10	1	-1E+10	1	-1E+10	1	-1E+10	1	-1E+10	1	-1E+10	1
4902642	23	C	02/05/2025	10:28	-132.093	46.143	0	1189.60	0	3.1130	0	34.4450	0	27.439	0	1176.454	0	10.0	4	3.1	4	-1E+10	1	-1E+10	1	-1E+10	1	-1E+10	1	-1E+10	1	-1E+10	1
4902642	23	C	02/05/2025	10:28	-132.093	46.143	0	1209.70	0	3.0740	0	34.4490	0	27.446	0	1196.274	0	10.4	4	3.2	4	-1E+10	1	-1E+10	1	-1E+10	1	-1E+10	1	-1E+10	1	-1E+10	1
4902642	23	C	02/05/2025	10:28	-132.093	46.143	0	1229.90	0	3.0420	0	34.4530	0	27.452	0	1216.192	0	10.9	4	3.4	4	-1E+10	1	-1E+10	1	-1E+10	1	-1E+10	1	-1E+10	1	-1E+10	1
4902642	23	C	02/05/2025	10:28	-132.093	46.143	0	1249.10	0	3.0030	0	34.4580	0	27.460	0	1235.122	0	11.4	4	3.5	4	-1E+10	1	-1E+10	1	-1E+10	1	-1E+10	1	-1E+10	1	-1E+10	1
4902642	23	C	02/05/2025	10:28	-132.093	46.143	0	1269.70	0	2.9490	0	34.4630	0	27.469	0	1255.430	0	12.2	4	3.7	4	-1E+10	1	-1E+10	1	-1E+10	1	-1E+10	1	-1E+10	1	-1E+10	1
4902642	23	C	02/05/2025	10:28	-132.093	46.143	0	1289.60	0	2.9130	0	34.4690	0	27.477	0	1275.046	0	13.0	4	4.0	4	-1E+10	1	-1E+10	1	-1E+10	1	-1E+10	1	-1E+10	1	-1E+10	1
4902642	23	C	02/05/2025	10:28	-132.093	46.143	0	1309.60	0	2.8550	0	34.4760	0	27.488	0	1294.759	0	13.8	4	4.3	4	-1E+10	1	-1E+10	1	-1E+10	1	-1E+10	1	-1E+10	1	-1E+10	1
4902642	23	C	02/05/2025	10:28	-132.093	46.143	0	1329.70	0	2.8230	0	34.4790	0	27.493	0	1314.568	0	14.4	4	4.4	4	-1E+10	1	-1E+10	1	-1E+10	1	-1E+10	1	-1E+10	1	-1E+10	1
4902642	23	C	02/05/2025	10:28	-132.093	46.143	0	1350.10	0	2.7810	0	34.4840	0	27.501	0	1334.671	0	15.2	4	4.7	4	-1E+10	1	-1E+10	1	-1E+10	1	-1E+10	1	-1E+10	1	-1E+10	1
4902642	23	C	02/05/2025	10:28	-132.093	46.143	0	1370.00	0	2.7510	0	34.4880	0	27.507	0	1354.280	0	16.0	4	4.9	4	-1E+10	1	-1E+10	1	-1E+10	1	-1E+10	1	-1E+10	1	-1E+10	1
4902642	23	C	02/05/2025	10:28	-132.093	46.143	0	1390.30	0	2.7200	0	34.4920	0	27.513	0	1374.281	0	17.0	4	5.2	4	-1E+10	1	-1E+10	1	-1E+10	1	-1E+10	1	-1E+10	1	-1E+10	1
4902642	23	C	02/05/2025	10:28	-132.093	46.143	0	1409.60	0	2.6850	0	34.4960	0	27.519	0	1393.295	0	17.8	4	5.5	4	-1E+10	1	-1E+10	1	-1E+10	1	-1E+10	1	-1E+10	1	-1E+10	1
4902642	23	C	02/05/2025	10:28	-132.093	46.143	0	1429.90	0	2.6460	0	34.5010	0	27.527	0	1413.292	0	18.9	4	5.8	4	-1E+10	1	-1E+10	1	-1E+10	1	-1E+10	1	-1E+10	1	-1E+10	1
4902642	23	C	02/05/2025	10:28	-132.093	46.143	0	1450.30	0	2.6070	0	34.5060	0	27.534	0	1433.386	0	20.1	4	6.2	4	-1E+10	1	-1E+10	1	-1E+10	1	-1E+10	1	-1E+10	1	-1E+10	1
4902642	23	C	02/05/2025	10:28	-132.093	46.143	0	1469.90	0	2.5600	0	34.5110	0	27.542	0	1452.690	0	21.4	4	6.5	4	-1E+10	1	-1E+10	1	-1E+10	1	-1E+10	1	-1E+10	1	-1E+10	1
4902642	23	C	02/05/2025	10:28	-132.093	46.143	0	1489.90	0	2.5140	0	34.5160	0	27.550	0	1472.386	0	22.8	4	6.9	4	-1E+10	1	-1E+10	1	-1E+10	1	-1E+10	1	-1E+10	1	-1E+10	1
4902642	23	C	02/05/2025	10:28	-132.093	46.143	0	1509.80	0	2.4810	0	34.5200	0	27.556	0	1491.982	0	23.7	4	7.2	4	-1E+10	1	-1E+10	1	-1E+10	1	-1E+10	1	-1E+10	1	-1E+10	1
4902642	23	C	02/05/2025	10:28	-132.093	46.143	0	1529.30	0	2.4570	0	34.5230	0	27.561	0	1511.182	0	24.8	4	7.6	4	-1E+10	1	-1E+10	1	-1E+10	1	-1E+10	1	-1E+10	1	-1E+10	1
4902642	23	C	02/05/2025	10:28	-132.093	46.143	0	1549.90	0	2.4170	0	34.5280	0	27.568	0	1531.464	0	26.2	4	8.0	4	-1E+10	1	-1E+10	1	-1E+10	1	-1E+10	1	-1E+10	1	-1E+10	1
4902642	23	C	02/05/2025	10:28	-132.093	46.143	0	1570.00	0	2.3830	0	34.5330	0	27.575	0	1551.251	0	27.5	4	8.4	4	-1E+10	1	-1E+10	1	-1E+10	1	-1E+10	1	-1E+10	1	-1E+10	1
4902642	23	C	02/05/2025	10:28	-132.093	46.143	0	1589.90	0	2.3600	0	34.5360	0	27.580	0	1570.840	0	28.4	4	8.6	4	-1E+10	1	-1E+10	1	-1E+10	1	-1E+10	1	-1E+10	1	-1E+10	1
4902642	23	C	02/05/2025	10:28	-132.093	46.143	0	1610.00	0	2.3350	0	34.5380	0	27.583	0	1590.623	0	29.5	4	9.0	4	-1E+10	1	-1E+10	1	-1E+10	1	-1E+10	1	-1E+10	1	-1E+10	1
4902642	23	C	02/05/2025	10:28	-132.093	46.143	0	1629.80	0	2.3040	0	34.5420	0	27.589	0	1610.110	0	30.6	4	9.3	4	-1E+10	1	-1E+10	1	-1E+10	1	-1E+10	1	-1E+10	1	-1E+10	1
4902642	23	C	02/05/2025	10:28	-132.093	46.143	0	1649.60	0	2.2770	0	34.5450	0	27.594	0	1629.594	0	31.8	4	9.7	4	-1E+10	1	-1E+10	1	-1E+10	1	-1E+10	1	-1E+10	1	-1E+10	1
4902642	23	C	02/05/2025	10:28	-132.093	46.143	0	1669.80	0	2.2450	0	34.5480	0	27.599	0	1649.471	0	32.6	4	9.9	4	-1E+10	1	-1E+10	1	-1E+10	1	-1E+10	1	-1E+10	1	-1E+10	1
4902642	23	C	02/05/2025	10:28	-132.093	46.143	0	1690.00	0	2.2210	0	34.5510	0	27.603	0	1669.345	0	33.5	4	10.2	4	-1E+10	1	-1E+10	1	-1E+10	1	-1E+10	1	-1E+10	1	-1E+10	1
4902642	23	C	02/05/2025	10:28	-132.093	46.143	0	1709.90	0	2.2050	0	34.5530	0	27.606	0	1688.923	0	34.2	4	10.4	4	-1E+10	1	-1E+10	1	-1E+10	1	-1E+10	1	-1E+10	1	-1E+10	1
4902642	23	C	02/05/2025	10:28	-132.093	46.143	0	1729.80	0	2.1720	0	34.5560	0	27.612	0	1708.499	0	35.4	4	10.7	4	-1E+10	1	-1E+10	1	-1E+10	1	-1E+10	1	-1E+10	1	-1E+10	1
4902642	23	C	02/05/2025	10:28	-132.093	46.143	0	1749.60	0	2.1560	0	34.5590	0	27.615	0	1727.974	0	36.5	4	11.0	4	-1E+10	1	-1E+10	1	-1E+10	1	-1E+10	1	-1E+10	1	-1E+10	1
4902642	23	C	02/05/2025	10:28	-132.093	46.143	0	1770.50	0	2.1360	0	34.5610	0	27.619	0	1748.530	0	37.3	4	11.3	4	-1E+10	1	-1E+10	1	-1E+10	1	-1E+10	1	-1E+10	1	-1E+10	1
4902642	23	C	02/05/2025	10:28	-132.093	46.143	0	1790.00	0	2.1080	0	34.5640	0	27.623	0	1767.707	0	38.2	4	11.6	4	-1E+10	1	-1E+10	1	-1E+10	1	-1E+10	1	-1E+10	1	-1E+10	1
4902642	23	C	02/05/2025	10:28	-132.093	46.143	0	1809.70	0	2.0970	0	34.5660	0	27.626	0	1787.079	0	39.0	4	11.8	4	-1E+10	1	-1E+10	1	-1E+10	1	-1E+10	1	-1E+10	1	-1E+10	1
4902642	23	C	02/05/2025	10:28	-132.093	46.143	0	1829.70	0	2.0790	0	34.5690	0	27.630	0	1806.744	0	40.0	4	12.1	4	-1E+10	1	-1E+10	1	-1E+10	1	-1E+10	1	-1E+10	1	-1E+10	1
4902642	23	C	02/05/2025	10:28	-132.093	46.143	0	1849.90	0	2.0660	0	34.5700	0	27.632	0	1826.604	0	40.8	4	12.3	4	-1E+10	1	-1E+10	1	-1E+10	1	-1E+10	1	-1E+10	1	-1E+10	1
4902642	23	C	02/05/2025	10:28	-132.093	46.143	0	1870.00	0	2.0500	0	34.5730	0	27.636	0	1846.363	0	41.7	4	12.6	4	-1E+10	1	-1E+10	1	-1E+10	1	-1E+10	1	-1E+10	1	-1E+10	1
4902642	23	C	02/05/2025	10:28	-132.093	46.143	0	1890.30	0	2.0300	0	34.5750	0	27.639	0	1866.318	0	43.0	4	13.0	4	-1E+10	1	-1E+10	1	-1E+10	1	-1E+10	1	-1E+10	1	-1E+10	1
4902642	23	C	02/05/2025	10:28	-132.093	46.143	0	1909.90	0	2.0140	0	34.5780	0	27.643	0	1885.582	0	44.0	4	13.3	4	-1E+10	1	-1E+10	1	-1E+10	1	-1E+10	1	-1E+10	1	-1E+10	1
4902642	23	C	02/05/2025	10:28	-132.093	46.143	0	1929.90	0	1.9990	0	34.5810	0	27.646	0	1905.238	0	45.1	4	13.6	4	-1E+10	1	-1E+10	1	-1E+10	1	-1E+10	1	-1E+10	1	-1E+10	1
4902642	23	C	02/05/2025	10:28	-132.093	46.143	0	1949.60	0	1.9840	0	34.5830	0	27.649	0	1924.597	0	46.0	4	13.9	4	-1E+10	1	-1E+10	1	-1E+10	1	-1E+10	1	-1E+10	1	-1E+10	1
4902642	23	C	02/05/2025	10:28	-132.093	46.143	0	1969.40	0	1.9740	0	34.5840	0	27.651	0	1944.053	0	46.6	4	14.0	4	-1E+10	1	-1E+10	1	-1E+10	1	-1E+10	1	-1E+10	1	-1E+10	1
4902642	23	C	02/05/2025	10:28	-132.093	46.143	0	1989.70	0	1.9640	0	34.5860	0	27.653	0	1963.998	0	47.5	4	14.3	4	-1E+10	1	-1E+10	1	-1E+10	1	-1E+10	1	-1E+10	1	-1E+10	1
4902642	23	C	02/05/2025	10:28	-132.093	46.143	0	2009.70	0	1.9560	0	34.5880	4	27.656	0	1983.647	0	48.1	4	14.5	4	-1E+10	1	-1E+10	1	-1E+10	1	-1E+10	1	-1E+10	1	-1E+10	1
4902642	23	C	02/05/2025	10:28	-132.093	46.143	0	2028.90	0	1.9490	0	34.5890	4	27.657	0	2002.508	0	48.8	4	14.7	4	-1E+10	1	-1E+10	1	-1E+10	1	-1E+10	1	-1E+10	1	-1E+10	1
4902642	23	C	02/05/2025	10:28	-132.093	46.143	0	2049.80	0	1.9350	0	34.5920	4	27.661	0	2023.037	0	50.0	4	15.1	4	-1E+10	1	-1E+10	1	-1E+10	1	-1E+10	1	-1E+10	1	-1E+10	1
4902642	23	C	02/05/2025	10:28	-132.093	46.143	0	2069.60	0	1.9210	0	34.5940	4	27.664	0	2042.484	0	50.9	4	15.3	4	-1E+10	1	-1E+10	1	-1E+10	1	-1E+10	1	-1E+10	1	-1E+10	1
4902642	23	C	02/05/2025	10:28	-132.093	46.143	0	2089.90	0	1.9130	0	34.5960	4	27.666	0	2062.420	0	51.8	4	15.6	4	-1E+10	1	-1E+10	1	-1E+10	1	-1E+10	1	-1E+10	1	-1E+10	1
4902642	23	C	02/05/2025	10:28	-132.093	46.143	0	2109.80	0	1.9030	0	34.5980	4	27.668	0	2081.961	0	52.5	4	15.8	4	-1E+10	1	-1E+10	1	-1E+10	1	-1E+10	1	-1E+10	1	-1E+10	1
4902642	23	C	02/05/2025	10:28	-132.093	46.143	0	2129.40	0	1.8980	0	34.5990	4	27.670	0	2101.206	0	53.1	4	16.0	4	-1E+10	1	-1E+10	1	-1E+10	1	-1E+10	1	-1E+10	1	-1E+10	1
4902642	23	C	02/05/2025	10:28	-132.093	46.143	0	2149.40	0	1.8890	0	34.6000	4	27.671	0	2120.842	0	54.1	4	16.3	4	-1E+10	1	-1E+10	1	-1E+10	1	-1E+10	1	-1E+10	1	-1E+10	1
4902642	23	C	02/05/2025	10:28	-132.093	46.143	0	2169.40	0	1.8790	0	34.6020	4	27.674	0	2140.476	0	55.0	4	16.5	4	-1E+10	1	-1E+10	1	-1E+10	1	-1E+10	1	-1E+10	1	-1E+10	1
4902642	23	C	02/05/2025	10:28	-132.093	46.143	0	2189.50	0	1.8730	0	34.6040	4	27.676	0	2160.207	0	55.7	4	16.7	4	-1E+10	1	-1E+10	1	-1E+10	1	-1E+10	1	-1E+10	1	-1E+10	1
4902642	23	C	02/05/2025	10:28	-132.093	46.143	0	2209.70	0	1.8670	0	34.6050	4	27.677	0	2180.034	0	56.6	4	17.0	4	-1E+10	1	-1E+10	1	-1E+10	1	-1E+10	1	-1E+10	1	-1E+10	1
4902642	23	C	02/05/2025	10:28	-132.093	46.143	0	2229.80	0	1.8600	0	34.6070	4	27.680	0	2199.761	0	57.3	4	17.2	4	-1E+10	1	-1E+10	1	-1E+10	1	-1E+10	1	-1E+10	1	-1E+10	1
4902642	23	C	02/05/2025	10:28	-132.093	46.143	0	2249.00	0	1.8550	0	34.6080	4	27.681	0	2218.602	0	58.0	4	17.4	4	-1E+10	1	-1E+10	1	-1E+10	1	-1E+10	1	-1E+10	1	-1E+10	1
4902642	23	C	02/05/2025	10:28	-132.093	46.143	0	2269.90	0	1.8470	0	34.6090	4	27.682	0	2239.111	0	58.7	4	17.6	4	-1E+10	1	-1E+10	1	-1E+10	1	-1E+10	1	-1E+10	1	-1E+10	1
4902642	23	C	02/05/2025	10:28	-132.093	46.143	0	2289.80	0	1.8360	0	34.6110	4	27.685	0	2258.636	0	59.6	4	17.9	4	-1E+10	1	-1E+10	1	-1E+10	1	-1E+10	1	-1E+10	1	-1E+10	1
4902642	23	C	02/05/2025	10:28	-132.093	46.143	0	2309.70	0	1.8290	0	34.6120	4	27.686	0	2278.159	0	60.5	4	18.2	4	-1E+10	1	-1E+10	1	-1E+10	1	-1E+10	1	-1E+10	1	-1E+10	1
4902642	23	C	02/05/2025	10:28	-132.093	46.143	0	2329.70	0	1.8200	0	34.6140	4	27.689	0	2297.779	0	61.4	4	18.4	4	-1E+10	1	-1E+10	1	-1E+10	1	-1E+10	1	-1E+10	1	-1E+10	1
4902642	23	C	02/05/2025	10:28	-132.093	46.143	0	2349.90	0	1.8130	0	34.6160	4	27.691	0	2317.593	0	62.2	4	18.7	4	-1E+10	1	-1E+10	1	-1E+10	1	-1E+10	1	-1E+10	1	-1E+10	1
4902642	23	C	02/05/2025	10:28	-132.093	46.143	0	2369.70	0	1.8090	0	34.6170	4	27.692	0	2337.013	0	62.9	4	18.9	4	-1E+10	1	-1E+10	1	-1E+10	1	-1E+10	1	-1E+10	1	-1E+10	1
4902642	23	C	02/05/2025	10:28	-132.093	46.143	0	2389.30	0	1.8030	0	34.6180	4	27.694	0	2356.235	0	63.6	4	19.1	4	-1E+10	1	-1E+10	1	-1E+10	1	-1E+10	1	-1E+10	1	-1E+10	1
4902642	23	C	02/05/2025	10:28	-132.093	46.143	0	2409.90	0	1.7950	0	34.6190	4	27.695	0	2376.436	0	64.4	4	19.3	4	-1E+10	1	-1E+10	1	-1E+10	1	-1E+10	1	-1E+10	1	-1E+10	1
4902642	23	C	02/05/2025	10:28	-132.093	46.143	0	2429.70	0	1.7850	0	34.6200	4	27.697	0	2395.851	0	65.2	4	19.6	4	-1E+10	1	-1E+10	1	-1E+10	1	-1E+10	1	-1E+10	1	-1E+10	1
4902642	23	C	02/05/2025	10:28	-132.093	46.143	0	2449.80	0	1.7810	0	34.6210	4	27.698	0	2415.558	0	66.0	4	19.8	4	-1E+10	1	-1E+10	1	-1E+10	1	-1E+10	1	-1E+10	1	-1E+10	1
4902642	23	C	02/05/2025	10:28	-132.093	46.143	0	2469.60	0	1.7720	0	34.6220	4	27.700	0	2434.969	0	66.8	4	20.0	4	-1E+10	1	-1E+10	1	-1E+10	1	-1E+10	1	-1E+10	1	-1E+10	1
4902642	23	C	02/05/2025	10:28	-132.093	46.143	0	2490.00	0	1.7650	0	34.6240	4	27.702	0	2454.966	0	67.6	4	20.3	4	-1E+10	1	-1E+10	1	-1E+10	1	-1E+10	1	-1E+10	1	-1E+10	1
4902642	23	C	02/05/2025	10:28	-132.093	46.143	0	2509.50	0	1.7590	0	34.6250	4	27.703	0	2474.080	0	68.4	4	20.5	4	-1E+10	1	-1E+10	1	-1E+10	1	-1E+10	1	-1E+10	1	-1E+10	1
4902642	23	C	02/05/2025	10:28	-132.093	46.143	0	2529.70	0	1.7520	0	34.6260	4	27.705	0	2493.878	0	69.2	4	20.7	4	-1E+10	1	-1E+10	1	-1E+10	1	-1E+10	1	-1E+10	1	-1E+10	1
4902642	23	C	02/05/2025	10:28	-132.093	46.143	0	2550.00	0	1.7480	0	34.6270	4	27.706	0	2513.772	0	69.8	4	20.9	4	-1E+10	1	-1E+10	1	-1E+10	1	-1E+10	1	-1E+10	1	-1E+10	1
4902642	23	C	02/05/2025	10:28	-132.093	46.143	0	2569.90	0	1.7410	0	34.6280	4	27.707	0	2533.272	0	70.6	4	21.2	4	-1E+10	1	-1E+10	1	-1E+10	1	-1E+10	1	-1E+10	1	-1E+10	1
4902642	23	C	02/05/2025	10:28	-132.093	46.143	0	2590.10	0	1.7330	0	34.6280	4	27.708	0	2553.064	0	71.4	4	21.4	4	-1E+10	1	-1E+10	1	-1E+10	1	-1E+10	1	-1E+10	1	-1E+10	1
4902642	23	C	02/05/2025	10:28	-132.093	46.143	0	2609.40	0	1.7270	0	34.6300	4	27.710	0	2571.973	0	72.1	4	21.6	4	-1E+10	1	-1E+10	1	-1E+10	1	-1E+10	1	-1E+10	1	-1E+10	1
4902642	23	C	02/05/2025	10:28	-132.093	46.143	0	2629.60	0	1.7210	0	34.6310	4	27.712	0	2591.762	0	72.8	4	21.8	4	-1E+10	1	-1E+10	1	-1E+10	1	-1E+10	1	-1E+10	1	-1E+10	1
4902642	23	C	02/05/2025	10:28	-132.093	46.143	0	2649.90	0	1.7150	0	34.6310	4	27.712	0	2611.647	0	73.6	4	22.0	4	-1E+10	1	-1E+10	1	-1E+10	1	-1E+10	1	-1E+10	1	-1E+10	1
4902642	23	C	02/05/2025	10:28	-132.093	46.143	0	2670.10	0	1.7080	0	34.6320	4	27.714	0	2631.432	0	74.4	4	22.3	4	-1E+10	1	-1E+10	1	-1E+10	1	-1E+10	1	-1E+10	1	-1E+10	1
4902642	23	C	02/05/2025	10:28	-132.093	46.143	0	2690.10	0	1.7030	0	34.6340	4	27.716	0	2651.019	0	75.3	4	22.5	4	-1E+10	1	-1E+10	1	-1E+10	1	-1E+10	1	-1E+10	1	-1E+10	1
4902642	23	C	02/05/2025	10:28	-132.093	46.143	0	2710.40	0	1.6940	0	34.6350	4	27.717	0	2670.899	0	76.2	4	22.8	4	-1E+10	1	-1E+10	1	-1E+10	1	-1E+10	1	-1E+10	1	-1E+10	1
4902642	23	C	02/05/2025	10:28	-132.093	46.143	0	2730.40	0	1.6890	0	34.6360	4	27.719	0	2690.483	0	76.8	4	23.0	4	-1E+10	1	-1E+10	1	-1E+10	1	-1E+10	1	-1E+10	1	-1E+10	1
4902642	23	C	02/05/2025	10:28	-132.093	46.143	0	2749.80	0	1.6840	0	34.6370	4	27.720	0	2709.477	0	77.5	4	23.2	4	-1E+10	1	-1E+10	1	-1E+10	1	-1E+10	1	-1E+10	1	-1E+10	1
4902642	23	C	02/05/2025	10:28	-132.093	46.143	0	2770.10	0	1.6800	0	34.6380	4	27.721	0	2729.352	0	78.2	4	23.4	4	-1E+10	1	-1E+10	1	-1E+10	1	-1E+10	1	-1E+10	1	-1E+10	1
4902642	23	C	02/05/2025	10:28	-132.093	46.143	0	2789.70	0	1.6750	0	34.6380	4	27.722	0	2748.539	0	78.7	4	23.6	4	-1E+10	1	-1E+10	1	-1E+10	1	-1E+10	1	-1E+10	1	-1E+10	1
4902642	23	C	02/05/2025	10:28	-132.093	46.143	0	2810.00	0	1.6720	0	34.6390	4	27.723	0	2768.409	0	79.3	4	23.7	4	-1E+10	1	-1E+10	1	-1E+10	1	-1E+10	1	-1E+10	1	-1E+10	1
4902642	23	C	02/05/2025	10:28	-132.093	46.143	0	2829.80	0	1.6680	0	34.6400	4	27.724	0	2787.788	0	79.8	4	23.9	4	-1E+10	1	-1E+10	1	-1E+10	1	-1E+10	1	-1E+10	1	-1E+10	1
4902642	23	C	02/05/2025	10:28	-132.093	46.143	0	2849.80	0	1.6660	0	34.6400	4	27.724	0	2807.362	0	80.2	4	24.0	4	-1E+10	1	-1E+10	1	-1E+10	1	-1E+10	1	-1E+10	1	-1E+10	1
4902642	23	C	02/05/2025	10:28	-132.093	46.143	0	2869.50	0	1.6620	0	34.6410	4	27.725	0	2826.640	0	80.9	4	24.2	4	-1E+10	1	-1E+10	1	-1E+10	1	-1E+10	1	-1E+10	1	-1E+10	1
4902642	23	C	02/05/2025	10:28	-132.093	46.143	0	2889.70	0	1.6590	0	34.6420	4	27.727	0	2846.405	0	81.4	4	24.4	4	-1E+10	1	-1E+10	1	-1E+10	1	-1E+10	1	-1E+10	1	-1E+10	1
4902642	23	C	02/05/2025	10:28	-132.093	46.143	0	2909.80	0	1.6560	0	34.6420	4	27.727	0	2866.071	0	81.9	4	24.5	4	-1E+10	1	-1E+10	1	-1E+10	1	-1E+10	1	-1E+10	1	-1E+10	1
4902642	23	C	02/05/2025	10:28	-132.093	46.143	0	2930.10	0	1.6550	0	34.6430	4	27.728	0	2885.931	0	82.3	4	24.6	4	-1E+10	1	-1E+10	1	-1E+10	1	-1E+10	1	-1E+10	1	-1E+10	1
4902642	23	C	02/05/2025	10:28	-132.093	46.143	0	2950.30	0	1.6510	0	34.6430	4	27.728	0	2905.691	0	82.9	4	24.8	4	-1E+10	1	-1E+10	1	-1E+10	1	-1E+10	1	-1E+10	1	-1E+10	1
4902642	23	C	02/05/2025	10:28	-132.093	46.143	0	2970.20	0	1.6470	0	34.6440	4	27.730	0	2925.156	0	83.6	4	25.0	4	-1E+10	1	-1E+10	1	-1E+10	1	-1E+10	1	-1E+10	1	-1E+10	1
4902642	23	C	02/05/2025	10:28	-132.093	46.143	0	2990.30	0	1.6420	0	34.6450	4	27.731	0	2944.814	0	84.3	4	25.2	4	-1E+10	1	-1E+10	1	-1E+10	1	-1E+10	1	-1E+10	1	-1E+10	1
4902642	23	C	02/05/2025	10:28	-132.093	46.143	0	3009.90	0	1.6390	0	34.6460	4	27.732	0	2963.982	0	84.9	4	25.4	4	-1E+10	1	-1E+10	1	-1E+10	1	-1E+10	1	-1E+10	1	-1E+10	1
4902642	23	C	02/05/2025	10:28	-132.093	46.143	0	3029.60	0	1.6350	0	34.6460	4	27.732	0	2983.246	0	85.6	4	25.6	4	-1E+10	1	-1E+10	1	-1E+10	1	-1E+10	1	-1E+10	1	-1E+10	1
4902642	23	C	02/05/2025	10:28	-132.093	46.143	0	3050.40	0	1.6280	0	34.6480	4	27.735	0	3003.584	0	86.6	4	25.9	4	-1E+10	1	-1E+10	1	-1E+10	1	-1E+10	1	-1E+10	1	-1E+10	1
4902642	23	C	02/05/2025	10:28	-132.093	46.143	0	3069.80	0	1.6250	0	34.6480	4	27.735	0	3022.551	0	87.2	4	26.0	4	-1E+10	1	-1E+10	1	-1E+10	1	-1E+10	1	-1E+10	1	-1E+10	1
4902642	23	C	02/05/2025	10:28	-132.093	46.143	0	3089.90	0	1.6210	0	34.6490	4	27.736	0	3042.201	0	87.8	4	26.2	4	-1E+10	1	-1E+10	1	-1E+10	1	-1E+10	1	-1E+10	1	-1E+10	1
4902642	23	C	02/05/2025	10:28	-132.093	46.143	0	3109.90	0	1.6170	0	34.6500	4	27.737	0	3061.751	0	88.6	4	26.5	4	-1E+10	1	-1E+10	1	-1E+10	1	-1E+10	1	-1E+10	1	-1E+10	1
4902642	23	C	02/05/2025	10:28	-132.093	46.143	0	3130.00	0	1.6140	0	34.6510	4	27.739	0	3081.398	0	89.1	4	26.6	4	-1E+10	1	-1E+10	1	-1E+10	1	-1E+10	1	-1E+10	1	-1E+10	1
4902642	23	C	02/05/2025	10:28	-132.093	46.143	0	3150.30	0	1.6100	0	34.6520	4	27.740	0	3101.238	0	90.0	4	26.9	4	-1E+10	1	-1E+10	1	-1E+10	1	-1E+10	1	-1E+10	1	-1E+10	1
4902642	23	C	02/05/2025	10:28	-132.093	46.143	0	3170.20	0	1.6040	0	34.6530	4	27.741	0	3120.685	0	90.7	4	27.1	4	-1E+10	1	-1E+10	1	-1E+10	1	-1E+10	1	-1E+10	1	-1E+10	1
4902642	23	C	02/05/2025	10:28	-132.093	46.143	0	3189.70	0	1.6010	0	34.6530	4	27.742	0	3139.740	0	91.4	4	27.3	4	-1E+10	1	-1E+10	1	-1E+10	1	-1E+10	1	-1E+10	1	-1E+10	1
4902642	23	C	02/05/2025	10:28	-132.093	46.143	0	3210.00	0	1.5970	0	34.6540	4	27.743	0	3159.575	0	92.0	4	27.5	4	-1E+10	1	-1E+10	1	-1E+10	1	-1E+10	1	-1E+10	1	-1E+10	1
4902642	23	C	02/05/2025	10:28	-132.093	46.143	0	3230.10	0	1.5930	0	34.6550	4	27.744	0	3179.212	0	92.9	4	27.7	4	-1E+10	1	-1E+10	1	-1E+10	1	-1E+10	1	-1E+10	1	-1E+10	1
4902642	23	C	02/05/2025	10:28	-132.093	46.143	0	3250.50	0	1.5880	0	34.6560	4	27.745	0	3199.141	0	93.5	4	27.9	4	-1E+10	1	-1E+10	1	-1E+10	1	-1E+10	1	-1E+10	1	-1E+10	1
4902642	23	C	02/05/2025	10:28	-132.093	46.143	0	3270.30	0	1.5850	0	34.6570	4	27.746	0	3218.482	0	94.1	4	28.1	4	-1E+10	1	-1E+10	1	-1E+10	1	-1E+10	1	-1E+10	1	-1E+10	1
4902642	23	C	02/05/2025	10:28	-132.093	46.143	0	3290.20	0	1.5820	0	34.6570	4	27.747	0	3237.919	0	94.7	4	28.3	4	-1E+10	1	-1E+10	1	-1E+10	1	-1E+10	1	-1E+10	1	-1E+10	1
4902642	23	C	02/05/2025	10:28	-132.093	46.143	0	3309.90	0	1.5800	0	34.6580	4	27.748	0	3257.158	0	95.2	4	28.4	4	-1E+10	1	-1E+10	1	-1E+10	1	-1E+10	1	-1E+10	1	-1E+10	1
4902642	23	C	02/05/2025	10:28	-132.093	46.143	0	3329.70	0	1.5770	0	34.6590	4	27.749	0	3276.494	0	95.7	4	28.6	4	-1E+10	1	-1E+10	1	-1E+10	1	-1E+10	1	-1E+10	1	-1E+10	1
4902642	23	C	02/05/2025	10:28	-132.093	46.143	0	3349.90	0	1.5720	0	34.6600	4	27.750	0	3296.219	0	96.5	4	28.8	4	-1E+10	1	-1E+10	1	-1E+10	1	-1E+10	1	-1E+10	1	-1E+10	1
4902642	23	C	02/05/2025	10:28	-132.093	46.143	0	3370.10	0	1.5680	0	34.6600	4	27.751	0	3315.942	0	97.2	4	29.0	4	-1E+10	1	-1E+10	1	-1E+10	1	-1E+10	1	-1E+10	1	-1E+10	1
4902642	23	C	02/05/2025	10:28	-132.093	46.143	0	3390.00	0	1.5640	0	34.6610	4	27.752	0	3335.370	0	97.7	4	29.2	4	-1E+10	1	-1E+10	1	-1E+10	1	-1E+10	1	-1E+10	1	-1E+10	1
4902642	23	C	02/05/2025	10:28	-132.093	46.143	0	3409.00	0	1.5620	0	34.6620	4	27.753	0	3353.918	0	97.7	4	29.1	4	-1E+10	1	-1E+10	1	-1E+10	1	-1E+10	1	-1E+10	1	-1E+10	1
4902642	23	C	02/05/2025	10:28	-132.093	46.143	0																										
4902642	24	C	02/15/2025	10:52	-131.956	46.178	0	0.50	0	9.4820	0	32.5090	0	25.092	0	0.496	0	251.4	4	88.9	4	-1E+10	1	-1E+10	1	-1E+10	1	-1E+10	1	-1E+10	1	-1E+10	1
4902642	24	C	02/15/2025	10:52	-131.956	46.178	0	0.70	0	9.4790	0	32.5110	0	25.094	0	0.694	0	251.5	4	89.0	4	-1E+10	1	-1E+10	1	-1E+10	1	-1E+10	1	-1E+10	1	-1E+10	1
4902642	24	C	02/15/2025	10:52	-131.956	46.178	0	0.80	0	9.4750	0	32.5080	0	25.093	0	0.793	0	251.1	4	88.8	4	-1E+10	1	-1E+10	1	-1E+10	1	-1E+10	1	-1E+10	1	-1E+10	1
4902642	24	C	02/15/2025	10:52	-131.956	46.178	0	0.90	0	9.4749	0	32.5082	0	25.093	0	0.893	0	-1e10	1	-1e10	1	-1E+10	1	-1E+10	1	-1E+10	1	-1E+10	1	-1E+10	1	-1E+10	1
4902642	24	C	02/15/2025	10:52	-131.956	46.178	0	1.10	0	9.4746	0	32.5088	0	25.093	0	1.091	0	-1e10	1	-1e10	1	-1E+10	1	-1E+10	1	-1E+10	1	-1E+10	1	-1E+10	1	-1E+10	1
4902642	24	C	02/15/2025	10:52	-131.956	46.178	0	1.30	0	9.4744	0	32.5092	0	25.094	0	1.289	0	-1e10	1	-1e10	1	-1E+10	1	-1E+10	1	-1E+10	1	-1E+10	1	-1E+10	1	-1E+10	1
4902642	24	C	02/15/2025	10:52	-131.956	46.178	0	1.60	0	9.4740	0	32.5100	0	25.094	0	1.587	0	251.3	4	88.9	4	-1E+10	1	-1E+10	1	-1E+10	1	-1E+10	1	-1E+10	1	-1E+10	1
4902642	24	C	02/15/2025	10:52	-131.956	46.178	0	3.00	0	9.4750	0	32.5090	0	25.093	0	2.975	0	251.2	4	88.8	4	-1E+10	1	-1E+10	1	-1E+10	1	-1E+10	1	-1E+10	1	-1E+10	1
4902642	24	C	02/15/2025	10:52	-131.956	46.178	0	3.70	0	9.4750	0	32.5090	0	25.093	0	3.670	0	251.3	4	88.9	4	-1E+10	1	-1E+10	1	-1E+10	1	-1E+10	1	-1E+10	1	-1E+10	1
4902642	24	C	02/15/2025	10:52	-131.956	46.178	0	4.40	0	9.4740	0	32.5090	0	25.094	0	4.364	0	251.2	4	88.8	4	-1E+10	1	-1E+10	1	-1E+10	1	-1E+10	1	-1E+10	1	-1E+10	1
4902642	24	C	02/15/2025	10:52	-131.956	46.178	0	5.60	0	9.4780	0	32.5110	0	25.095	0	5.554	0	251.1	4	88.8	4	-1E+10	1	-1E+10	1	-1E+10	1	-1E+10	1	-1E+10	1	-1E+10	1
4902642	24	C	02/15/2025	10:52	-131.956	46.178	0	6.50	0	9.4740	0	32.5100	0	25.094	0	6.446	0	251.3	4	88.9	4	-1E+10	1	-1E+10	1	-1E+10	1	-1E+10	1	-1E+10	1	-1E+10	1
4902642	24	C	02/15/2025	10:52	-131.956	46.178	0	7.70	0	9.4750	0	32.5090	0	25.094	0	7.637	0	251.2	4	88.9	4	-1E+10	1	-1E+10	1	-1E+10	1	-1E+10	1	-1E+10	1	-1E+10	1
4902642	24	C	02/15/2025	10:52	-131.956	46.178	0	8.60	0	9.4740	0	32.5100	0	25.094	0	8.529	0	251.1	4	88.8	4	-1E+10	1	-1E+10	1	-1E+10	1	-1E+10	1	-1E+10	1	-1E+10	1
4902642	24	C	02/15/2025	10:52	-131.956	46.178	0	9.60	0	9.4790	0	32.5090	0	25.093	0	9.521	0	251.2	4	88.8	4	-1E+10	1	-1E+10	1	-1E+10	1	-1E+10	1	-1E+10	1	-1E+10	1
4902642	24	C	02/15/2025	10:52	-131.956	46.178	0	14.80	0	9.4750	0	32.5100	0	25.094	0	14.678	0	251.0	4	88.8	4	-1E+10	1	-1E+10	1	-1E+10	1	-1E+10	1	-1E+10	1	-1E+10	1
4902642	24	C	02/15/2025	10:52	-131.956	46.178	0	24.70	0	9.4770	0	32.5080	0	25.093	0	24.495	0	250.9	4	88.7	4	-1E+10	1	-1E+10	1	-1E+10	1	-1E+10	1	-1E+10	1	-1E+10	1
4902642	24	C	02/15/2025	10:52	-131.956	46.178	0	34.90	0	9.4800	0	32.5080	0	25.092	0	34.610	0	250.7	4	88.7	4	-1E+10	1	-1E+10	1	-1E+10	1	-1E+10	1	-1E+10	1	-1E+10	1
4902642	24	C	02/15/2025	10:52	-131.956	46.178	0	45.10	0	9.4830	0	32.5150	0	25.098	0	44.724	0	250.3	4	88.5	4	-1E+10	1	-1E+10	1	-1E+10	1	-1E+10	1	-1E+10	1	-1E+10	1
4902642	24	C	02/15/2025	10:52	-131.956	46.178	0	55.00	0	9.4860	0	32.5150	0	25.097	0	54.540	0	250.1	4	88.5	4	-1E+10	1	-1E+10	1	-1E+10	1	-1E+10	1	-1E+10	1	-1E+10	1
4902642	24	C	02/15/2025	10:52	-131.956	46.178	0	64.90	0	9.4830	0	32.5150	0	25.098	0	64.356	0	249.5	4	88.3	4	-1E+10	1	-1E+10	1	-1E+10	1	-1E+10	1	-1E+10	1	-1E+10	1
4902642	24	C	02/15/2025	10:52	-131.956	46.178	0	74.70	0	9.4740	0	32.5160	0	25.100	0	74.072	0	248.8	4	88.0	4	-1E+10	1	-1E+10	1	-1E+10	1	-1E+10	1	-1E+10	1	-1E+10	1
4902642	24	C	02/15/2025	10:52	-131.956	46.178	0	84.90	0	9.4640	0	32.5160	0	25.102	0	84.184	0	247.3	4	87.4	4	-1E+10	1	-1E+10	1	-1E+10	1	-1E+10	1	-1E+10	1	-1E+10	1
4902642	24	C	02/15/2025	10:52	-131.956	46.178	0	95.20	0	9.4600	0	32.5150	0	25.102	0	94.395	0	241.4	4	85.3	4	-1E+10	1	-1E+10	1	-1E+10	1	-1E+10	1	-1E+10	1	-1E+10	1
4902642	24	C	02/15/2025	10:52	-131.956	46.178	0	104.60	0	9.0760	0	32.7540	0	25.350	0	103.713	0	225.7	4	79.3	4	-1E+10	1	-1E+10	1	-1E+10	1	-1E+10	1	-1E+10	1	-1E+10	1
4902642	24	C	02/15/2025	10:52	-131.956	46.178	0	114.80	0	8.7300	0	32.9660	0	25.570	0	113.824	0	214.4	4	74.9	4	-1E+10	1	-1E+10	1	-1E+10	1	-1E+10	1	-1E+10	1	-1E+10	1
4902642	24	C	02/15/2025	10:52	-131.956	46.178	0	124.80	0	8.6460	0	33.1420	0	25.721	0	123.736	0	204.4	4	71.3	4	-1E+10	1	-1E+10	1	-1E+10	1	-1E+10	1	-1E+10	1	-1E+10	1
4902642	24	C	02/15/2025	10:52	-131.956	46.178	0	134.40	0	8.3660	0	33.3480	0	25.925	0	133.251	0	197.1	4	68.4	4	-1E+10	1	-1E+10	1	-1E+10	1	-1E+10	1	-1E+10	1	-1E+10	1
4902642	24	C	02/15/2025	10:52	-131.956	46.178	0	145.00	0	8.0820	0	33.4980	0	26.085	0	143.757	0	194.4	4	67.1	4	-1E+10	1	-1E+10	1	-1E+10	1	-1E+10	1	-1E+10	1	-1E+10	1
4902642	24	C	02/15/2025	10:52	-131.956	46.178	0	154.80	0	7.8780	0	33.5680	0	26.170	0	153.469	0	192.2	4	66.1	4	-1E+10	1	-1E+10	1	-1E+10	1	-1E+10	1	-1E+10	1	-1E+10	1
4902642	24	C	02/15/2025	10:52	-131.956	46.178	0	164.90	0	7.6830	0	33.6220	0	26.240	0	163.478	0	190.3	4	65.2	4	-1E+10	1	-1E+10	1	-1E+10	1	-1E+10	1	-1E+10	1	-1E+10	1
4902642	24	C	02/15/2025	10:52	-131.956	46.178	0	175.10	0	7.5140	0	33.6590	0	26.294	0	173.586	0	187.7	4	64.1	4	-1E+10	1	-1E+10	1	-1E+10	1	-1E+10	1	-1E+10	1	-1E+10	1
4902642	24	C	02/15/2025	10:52	-131.956	46.178	0	185.10	0	7.3850	0	33.6930	0	26.339	0	183.495	0	184.7	4	62.9	4	-1E+10	1	-1E+10	1	-1E+10	1	-1E+10	1	-1E+10	1	-1E+10	1
4902642	24	C	02/15/2025	10:52	-131.956	46.178	0	194.60	0	7.2490	0	33.7330	0	26.389	0	192.908	0	180.6	4	61.3	4	-1E+10	1	-1E+10	1	-1E+10	1	-1E+10	1	-1E+10	1	-1E+10	1
4902642	24	C	02/15/2025	10:52	-131.956	46.178	0	209.50	0	7.1050	0	33.7640	0	26.434	0	207.671	0	173.5	4	58.7	4	-1E+10	1	-1E+10	1	-1E+10	1	-1E+10	1	-1E+10	1	-1E+10	1
4902642	24	C	02/15/2025	10:52	-131.956	46.178	0	229.80	0	6.8310	0	33.7940	0	26.495	0	227.783	0	162.2	4	54.6	4	-1E+10	1	-1E+10	1	-1E+10	1	-1E+10	1	-1E+10	1	-1E+10	1
4902642	24	C	02/15/2025	10:52	-131.956	46.178	0	250.00	0	6.5380	0	33.8060	0	26.543	0	247.794	0	144.4	4	48.3	4	-1E+10	1	-1E+10	1	-1E+10	1	-1E+10	1	-1E+10	1	-1E+10	1
4902642	24	C	02/15/2025	10:52	-131.956	46.178	0	270.00	0	6.3220	0	33.8270	0	26.588	0	267.604	0	120.1	4	40.0	4	-1E+10	1	-1E+10	1	-1E+10	1	-1E+10	1	-1E+10	1	-1E+10	1
4902642	24	C	02/15/2025	10:52	-131.956	46.178	0	289.80	0	6.0750	0	33.8500	0	26.638	0	287.215	0	99.6	4	33.0	4	-1E+10	1	-1E+10	1	-1E+10	1	-1E+10	1	-1E+10	1	-1E+10	1
4902642	24	C	02/15/2025	10:52	-131.956	46.178	0	309.10	0	5.8560	0	33.8750	0	26.685	0	306.328	0	84.5	4	27.8	4	-1E+10	1	-1E+10	1	-1E+10	1	-1E+10	1	-1E+10	1	-1E+10	1
4902642	24	C	02/15/2025	10:52	-131.956	46.178	0	329.90	0	5.7350	0	33.9010	0	26.721	0	326.926	0	74.6	4	24.5	4	-1E+10	1	-1E+10	1	-1E+10	1	-1E+10	1	-1E+10	1	-1E+10	1
4902642	24	C	02/15/2025	10:52	-131.956	46.178	0	349.90	0	5.4850	0	33.9050	0	26.754	0	346.728	0	69.9	4	22.8	4	-1E+10	1	-1E+10	1	-1E+10	1	-1E+10	1	-1E+10	1	-1E+10	1
4902642	24	C	02/15/2025	10:52	-131.956	46.178	0	370.40	0	5.3110	0	33.9140	0	26.782	0	367.025	0	63.6	4	20.7	4	-1E+10	1	-1E+10	1	-1E+10	1	-1E+10	1	-1E+10	1	-1E+10	1
4902642	24	C	02/15/2025	10:52	-131.956	46.178	0	389.50	0	5.2270	0	33.9380	0	26.811	0	385.933	0	55.1	4	17.9	4	-1E+10	1	-1E+10	1	-1E+10	1	-1E+10	1	-1E+10	1	-1E+10	1
4902642	24	C	02/15/2025	10:52	-131.956	46.178	0	409.50	0	5.1560	0	33.9630	0	26.839	0	405.730	0	48.9	4	15.8	4	-1E+10	1	-1E+10	1	-1E+10	1	-1E+10	1	-1E+10	1	-1E+10	1
4902642	24	C	02/15/2025	10:52	-131.956	46.178	0	429.70	0	5.0690	0	33.9830	0	26.865	0	425.723	0	43.7	4	14.1	4	-1E+10	1	-1E+10	1	-1E+10	1	-1E+10	1	-1E+10	1	-1E+10	1
4902642	24	C	02/15/2025	10:52	-131.956	46.178	0	449.80	0	4.9530	0	33.9960	0	26.889	0	445.616	0	40.1	4	12.9	4	-1E+10	1	-1E+10	1	-1E+10	1	-1E+10	1	-1E+10	1	-1E+10	1
4902642	24	C	02/15/2025	10:52	-131.956	46.178	0	469.70	0	4.8120	0	34.0120	0	26.917	0	465.308	0	36.2	4	11.7	4	-1E+10	1	-1E+10	1	-1E+10	1	-1E+10	1	-1E+10	1	-1E+10	1
4902642	24	C	02/15/2025	10:52	-131.956	46.178	0	489.80	0	4.7300	0	34.0320	0	26.943	0	485.197	0	31.9	4	10.2	4	-1E+10	1	-1E+10	1	-1E+10	1	-1E+10	1	-1E+10	1	-1E+10	1
4902642	24	C	02/15/2025	10:52	-131.956	46.178	0	509.80	0	4.6470	0	34.0530	0	26.968	0	504.985	0	27.9	4	8.9	4	-1E+10	1	-1E+10	1	-1E+10	1	-1E+10	1	-1E+10	1	-1E+10	1
4902642	24	C	02/15/2025	10:52	-131.956	46.178	0	529.80	0	4.5830	0	34.0690	0	26.988	0	524.770	0	25.0	4	8.0	4	-1E+10	1	-1E+10	1	-1E+10	1	-1E+10	1	-1E+10	1	-1E+10	1
4902642	24	C	02/15/2025	10:52	-131.956	46.178	0	549.90	0	4.5210	0	34.0860	0	27.009	0	544.653	0	21.8	4	7.0	4	-1E+10	1	-1E+10	1	-1E+10	1	-1E+10	1	-1E+10	1	-1E+10	1
4902642	24	C	02/15/2025	10:52	-131.956	46.178	0	569.70	0	4.4830	0	34.1110	0	27.033	0	564.238	0	18.0	4	5.8	4	-1E+10	1	-1E+10	1	-1E+10	1	-1E+10	1	-1E+10	1	-1E+10	1
4902642	24	C	02/15/2025	10:52	-131.956	46.178	0	590.20	0	4.4030	0	34.1340	0	27.060	0	584.512	0	15.7	4	5.0	4	-1E+10	1	-1E+10	1	-1E+10	1	-1E+10	1	-1E+10	1	-1E+10	1
4902642	24	C	02/15/2025	10:52	-131.956	46.178	0	610.20	0	4.3460	0	34.1520	0	27.080	0	604.291	0	14.3	4	4.5	4	-1E+10	1	-1E+10	1	-1E+10	1	-1E+10	1	-1E+10	1	-1E+10	1
4902642	24	C	02/15/2025	10:52	-131.956	46.178	0	629.80	0	4.2640	0	34.1660	0	27.100	0	623.671	0	12.7	4	4.0	4	-1E+10	1	-1E+10	1	-1E+10	1	-1E+10	1	-1E+10	1	-1E+10	1
4902642	24	C	02/15/2025	10:52	-131.956	46.178	0	649.60	0	4.2580	0	34.1830	0	27.115	0	643.248	0	11.0	4	3.5	4	-1E+10	1	-1E+10	1	-1E+10	1	-1E+10	1	-1E+10	1	-1E+10	1
4902642	24	C	02/15/2025	10:52	-131.956	46.178	0	669.60	0	4.2410	0	34.1980	0	27.128	0	663.021	0	9.9	4	3.1	4	-1E+10	1	-1E+10	1	-1E+10	1	-1E+10	1	-1E+10	1	-1E+10	1
4902642	24	C	02/15/2025	10:52	-131.956	46.178	0	689.50	0	4.1610	0	34.2100	0	27.146	0	682.693	0	9.4	4	3.0	4	-1E+10	1	-1E+10	1	-1E+10	1	-1E+10	1	-1E+10	1	-1E+10	1
4902642	24	C	02/15/2025	10:52	-131.956	46.178	0	709.70	0	4.0950	0	34.2170	0	27.159	0	702.659	0	8.8	4	2.8	4	-1E+10	1	-1E+10	1	-1E+10	1	-1E+10	1	-1E+10	1	-1E+10	1
4902642	24	C	02/15/2025	10:52	-131.956	46.178	0	730.50	0	4.0460	0	34.2340	0	27.178	0	723.217	0	8.0	4	2.5	4	-1E+10	1	-1E+10	1	-1E+10	1	-1E+10	1	-1E+10	1	-1E+10	1
4902642	24	C	02/15/2025	10:52	-131.956	46.178	0	749.80	0	3.9950	0	34.2430	0	27.190	0	742.290	0	7.8	4	2.5	4	-1E+10	1	-1E+10	1	-1E+10	1	-1E+10	1	-1E+10	1	-1E+10	1
4902642	24	C	02/15/2025	10:52	-131.956	46.178	0	770.00	0	3.8990	0	34.2460	0	27.202	0	762.251	0	7.8	4	2.5	4	-1E+10	1	-1E+10	1	-1E+10	1	-1E+10	1	-1E+10	1	-1E+10	1
4902642	24	C	02/15/2025	10:52	-131.956	46.178	0	790.10	0	3.8120	0	34.2520	0	27.216	0	782.111	0	7.6	4	2.4	4	-1E+10	1	-1E+10	1	-1E+10	1	-1E+10	1	-1E+10	1	-1E+10	1
4902642	24	C	02/15/2025	10:52	-131.956	46.178	0	809.70	0	3.7400	0	34.2590	0	27.229	0	801.475	0	7.3	4	2.3	4	-1E+10	1	-1E+10	1	-1E+10	1	-1E+10	1	-1E+10	1	-1E+10	1
4902642	24	C	02/15/2025	10:52	-131.956	46.178	0	829.40	0	3.6860	0	34.2680	0	27.242	0	820.936	0	7.0	4	2.2	4	-1E+10	1	-1E+10	1	-1E+10	1	-1E+10	1	-1E+10	1	-1E+10	1
4902642	24	C	02/15/2025	10:52	-131.956	46.178	0	849.40	0	3.6330	0	34.2790	0	27.256	0	840.692	0	6.7	4	2.1	4	-1E+10	1	-1E+10	1	-1E+10	1	-1E+10	1	-1E+10	1	-1E+10	1
4902642	24	C	02/15/2025	10:52	-131.956	46.178	0	869.80	0	3.6040	0	34.2900	0	27.267	0	860.841	0	6.3	4	2.0	4	-1E+10	1	-1E+10	1	-1E+10	1	-1E+10	1	-1E+10	1	-1E+10	1
4902642	24	C	02/15/2025	10:52	-131.956	46.178	0	890.00	0	3.5760	0	34.3020	0	27.280	0	880.790	0	6.1	4	1.9	4	-1E+10	1	-1E+10	1	-1E+10	1	-1E+10	1	-1E+10	1	-1E+10	1
4902642	24	C	02/15/2025	10:52	-131.956	46.178	0	910.00	0	3.5570	0	34.3150	0	27.292	0	900.540	0	5.8	4	1.8	4	-1E+10	1	-1E+10	1	-1E+10	1	-1E+10	1	-1E+10	1	-1E+10	1
4902642	24	C	02/15/2025	10:52	-131.956	46.178	0	929.80	0	3.5360	0	34.3260	0	27.303	0	920.091	0	5.6	4	1.8	4	-1E+10	1	-1E+10	1	-1E+10	1	-1E+10	1	-1E+10	1	-1E+10	1
4902642	24	C	02/15/2025	10:52	-131.956	46.178	0	949.70	0	3.4750	0	34.3340	0	27.315	0	939.739	0	5.6	4	1.8	4	-1E+10	1	-1E+10	1	-1E+10	1	-1E+10	1	-1E+10	1	-1E+10	1
4902642	24	C	02/15/2025	10:52	-131.956	46.178	0	969.80	0	3.4920	0	34.3480	0	27.325	0	959.582	0	5.6	4	1.7	4	-1E+10	1	-1E+10	1	-1E+10	1	-1E+10	1	-1E+10	1	-1E+10	1
4902642	24	C	02/15/2025	10:52	-131.956	46.178	0	990.00	0	3.4660	0	34.3590	0	27.337	0	979.522	0	5.7	4	1.8	4	-1E+10	1	-1E+10	1	-1E+10	1	-1E+10	1	-1E+10	1	-1E+10	1
4902642	24	C	02/15/2025	10:52	-131.956	46.178	0	1009.90	0	3.4700	0	34.3780	0	27.351	0	999.164	0	6.1	4	1.9	4	-1E+10	1	-1E+10	1	-1E+10	1	-1E+10	1	-1E+10	1	-1E+10	1
4902642	24	C	02/15/2025	10:52	-131.956	46.178	0	1030.60	0	3.4610	0	34.3910	0	27.363	0	1019.593	0	6.5	4	2.0	4	-1E+10	1	-1E+10	1	-1E+10	1	-1E+10	1	-1E+10	1	-1E+10	1
4902642	24	C	02/15/2025	10:52	-131.956	46.178	0	1049.90	0	3.4270	0	34.4010	0	27.374	0	1038.639	0	7.0	4	2.2	4	-1E+10	1	-1E+10	1	-1E+10	1	-1E+10	1	-1E+10	1	-1E+10	1
4902642	24	C	02/15/2025	10:52	-131.956	46.178	0	1069.80	0	3.3820	0	34.4130	0	27.388	0	1058.276	0	7.6	4	2.4	4	-1E+10	1	-1E+10	1	-1E+10	1	-1E+10	1	-1E+10	1	-1E+10	1
4902642	24	C	02/15/2025	10:52	-131.956	46.178	0	1089.60	0	3.3360	0	34.4210	0	27.399	0	1077.812	0	8.0	4	2.5	4	-1E+10	1	-1E+10	1	-1E+10	1	-1E+10	1	-1E+10	1	-1E+10	1
4902642	24	C	02/15/2025	10:52	-131.956	46.178	0	1108.80	0	3.2980	0	34.4240	0	27.405	0	1096.754	0	8.2	4	2.6	4	-1E+10	1	-1E+10	1	-1E+10	1	-1E+10	1	-1E+10	1	-1E+10	1
4902642	24	C	02/15/2025	10:52	-131.956	46.178	0	1129.70	0	3.2610	0	34.4290	0	27.413	0	1117.371	0	8.6	4	2.7	4	-1E+10	1	-1E+10	1	-1E+10	1	-1E+10	1	-1E+10	1	-1E+10	1
4902642	24	C	02/15/2025	10:52	-131.956	46.178	0	1149.50	0	3.2170	0	34.4330	0	27.420	0	1136.902	0	8.9	4	2.8	4	-1E+10	1	-1E+10	1	-1E+10	1	-1E+10	1	-1E+10	1	-1E+10	1
4902642	24	C	02/15/2025	10:52	-131.956	46.178	0	1169.90	0	3.1730	0	34.4380	0	27.428	0	1157.022	0	9.4	4	2.9	4	-1E+10	1	-1E+10	1	-1E+10	1	-1E+10	1	-1E+10	1	-1E+10	1
4902642	24	C	02/15/2025	10:52	-131.956	46.178	0	1189.90	0	3.1100	0	34.4450	0	27.440	0	1176.746	0	10.0	4	3.1	4	-1E+10	1	-1E+10	1	-1E+10	1	-1E+10	1	-1E+10	1	-1E+10	1
4902642	24	C	02/15/2025	10:52	-131.956	46.178	0	1209.80	0	3.0630	0	34.4500	0	27.448	0	1196.369	0	10.5	4	3.2	4	-1E+10	1	-1E+10	1	-1E+10	1	-1E+10	1	-1E+10	1	-1E+10	1
4902642	24	C	02/15/2025	10:52	-131.956	46.178	0	1229.70	0	3.0300	0	34.4540	0	27.454	0	1215.991	0	11.0	4	3.4	4	-1E+10	1	-1E+10	1	-1E+10	1	-1E+10	1	-1E+10	1	-1E+10	1
4902642	24	C	02/15/2025	10:52	-131.956	46.178	0	1249.60	0	2.9910	0	34.4590	0	27.462	0	1235.610	0	11.5	4	3.6	4	-1E+10	1	-1E+10	1	-1E+10	1	-1E+10	1	-1E+10	1	-1E+10	1
4902642	24	C	02/15/2025	10:52	-131.956	46.178	0	1269.80	0	2.9570	0	34.4630	0	27.468	0	1255.524	0	12.0	4	3.7	4	-1E+10	1	-1E+10	1	-1E+10	1	-1E+10	1	-1E+10	1	-1E+10	1
4902642	24	C	02/15/2025	10:52	-131.956	46.178	0	1290.10	0	2.9300	0	34.4670	0	27.474	0	1275.534	0	12.5	4	3.9	4	-1E+10	1	-1E+10	1	-1E+10	1	-1E+10	1	-1E+10	1	-1E+10	1
4902642	24	C	02/15/2025	10:52	-131.956	46.178	0	1309.70	0	2.9010	0	34.4710	0	27.480	0	1294.853	0	13.1	4	4.0	4	-1E+10	1	-1E+10	1	-1E+10	1	-1E+10	1	-1E+10	1	-1E+10	1
4902642	24	C	02/15/2025	10:52	-131.956	46.178	0	1330.20	0	2.8690	0	34.4740	0	27.485	0	1315.057	0	13.8	4	4.2	4	-1E+10	1	-1E+10	1	-1E+10	1	-1E+10	1	-1E+10	1	-1E+10	1
4902642	24	C	02/15/2025	10:52	-131.956	46.178	0	1349.70	0	2.8350	0	34.4790	0	27.492	0	1334.273	0	14.4	4	4.4	4	-1E+10	1	-1E+10	1	-1E+10	1	-1E+10	1	-1E+10	1	-1E+10	1
4902642	24	C	02/15/2025	10:52	-131.956	46.178	0	1369.80	0	2.8070	0	34.4820	0	27.497	0	1354.079	0	15.1	4	4.6	4	-1E+10	1	-1E+10	1	-1E+10	1	-1E+10	1	-1E+10	1	-1E+10	1
4902642	24	C	02/15/2025	10:52	-131.956	46.178	0	1389.70	0	2.7680	0	34.4860	0	27.504	0	1373.685	0	15.8	4	4.8	4	-1E+10	1	-1E+10	1	-1E+10	1	-1E+10	1	-1E+10	1	-1E+10	1
4902642	24	C	02/15/2025	10:52	-131.956	46.178	0	1409.80	0	2.7390	0	34.4890	0	27.509	0	1393.488	0	16.6	4	5.1	4	-1E+10	1	-1E+10	1	-1E+10	1	-1E+10	1	-1E+10	1	-1E+10	1
4902642	24	C	02/15/2025	10:52	-131.956	46.178	0	1430.50	0	2.6920	0	34.4960	0	27.519	0	1413.879	0	17.7	4	5.4	4	-1E+10	1	-1E+10	1	-1E+10	1	-1E+10	1	-1E+10	1	-1E+10	1
4902642	24	C	02/15/2025	10:52	-131.956	46.178	0	1450.00	0	2.6590	0	34.5000	0	27.525	0	1433.086	0	18.6	4	5.7	4	-1E+10	1	-1E+10	1	-1E+10	1	-1E+10	1	-1E+10	1	-1E+10	1
4902642	24	C	02/15/2025	10:52	-131.956	46.178	0	1470.00	0	2.6250	0	34.5040	0	27.531	0	1452.784	0	19.5	4	6.0	4	-1E+10	1	-1E+10	1	-1E+10	1	-1E+10	1	-1E+10	1	-1E+10	1
4902642	24	C	02/15/2025	10:52	-131.956	46.178	0	1489.70	0	2.6010	0	34.5070	0	27.536	0	1472.185	0	20.2	4	6.2	4	-1E+10	1	-1E+10	1	-1E+10	1	-1E+10	1	-1E+10	1	-1E+10	1
4902642	24	C	02/15/2025	10:52	-131.956	46.178	0	1509.90	0	2.5680	0	34.5110	0	27.542	0	1492.076	0	21.2	4	6.5	4	-1E+10	1	-1E+10	1	-1E+10	1	-1E+10	1	-1E+10	1	-1E+10	1
4902642	24	C	02/15/2025	10:52	-131.956	46.178	0	1529.70	0	2.5420	0	34.5140	0	27.547	0	1511.571	0	22.1	4	6.8	4	-1E+10	1	-1E+10	1	-1E+10	1	-1E+10	1	-1E+10	1	-1E+10	1
4902642	24	C	02/15/2025	10:52	-131.956	46.178	0	1549.60	0	2.5090	0	34.5180	0	27.553	0	1531.164	0	23.2	4	7.1	4	-1E+10	1	-1E+10	1	-1E+10	1	-1E+10	1	-1E+10	1	-1E+10	1
4902642	24	C	02/15/2025	10:52	-131.956	46.178	0	1569.70	0	2.4750	0	34.5220	0	27.559	0	1550.951	0	24.4	4	7.4	4	-1E+10	1	-1E+10	1	-1E+10	1	-1E+10	1	-1E+10	1	-1E+10	1
4902642	24	C	02/15/2025	10:52	-131.956	46.178	0	1589.60	0	2.4420	0	34.5260	0	27.565	0	1570.539	0	25.5	4	7.8	4	-1E+10	1	-1E+10	1	-1E+10	1	-1E+10	1	-1E+10	1	-1E+10	1
4902642	24	C	02/15/2025	10:52	-131.956	46.178	0	1609.50	0	2.4070	0	34.5300	0	27.571	0	1590.126	0	26.7	4	8.1	4	-1E+10	1	-1E+10	1	-1E+10	1	-1E+10	1	-1E+10	1	-1E+10	1
4902642	24	C	02/15/2025	10:52	-131.956	46.178	0	1629.50	0	2.3790	0	34.5330	0	27.576	0	1609.809	0	27.7	4	8.4	4	-1E+10	1	-1E+10	1	-1E+10	1	-1E+10	1	-1E+10	1	-1E+10	1
4902642	24	C	02/15/2025	10:52	-131.956	46.178	0	1649.50	0	2.3400	0	34.5370	0	27.582	0	1629.491	0	29.1	4	8.9	4	-1E+10	1	-1E+10	1	-1E+10	1	-1E+10	1	-1E+10	1	-1E+10	1
4902642	24	C	02/15/2025	10:52	-131.956	46.178	0	1669.50	0	2.3070	0	34.5420	0	27.589	0	1649.170	0	30.4	4	9.2	4	-1E+10	1	-1E+10	1	-1E+10	1	-1E+10	1	-1E+10	1	-1E+10	1
4902642	24	C	02/15/2025	10:52	-131.956	46.178	0	1690.20	0	2.2870	0	34.5440	0	27.593	0	1669.537	0	31.3	4	9.5	4	-1E+10	1	-1E+10	1	-1E+10	1	-1E+10	1	-1E+10	1	-1E+10	1
4902642	24	C	02/15/2025	10:52	-131.956	46.178	0	1709.70	0	2.2560	0	34.5470	0	27.598	0	1688.721	0	32.4	4	9.8	4	-1E+10	1	-1E+10	1	-1E+10	1	-1E+10	1	-1E+10	1	-1E+10	1
4902642	24	C	02/15/2025	10:52	-131.956	46.178	0	1729.80	0	2.2130	0	34.5510	0	27.604	0	1708.493	0	34.0	4	10.3	4	-1E+10	1	-1E+10	1	-1E+10	1	-1E+10	1	-1E+10	1	-1E+10	1
4902642	24	C	02/15/2025	10:52	-131.956	46.178	0	1749.80	0	2.1760	0	34.5560	0	27.611	0	1728.166	0	35.6	4	10.8	4	-1E+10	1	-1E+10	1	-1E+10	1	-1E+10	1	-1E+10	1	-1E+10	1
4902642	24	C	02/15/2025	10:52	-131.956	46.178	0	1769.70	0	2.1540	0	34.5590	0	27.616	0	1747.738	0	36.6	4	11.1	4	-1E+10	1	-1E+10	1	-1E+10	1	-1E+10	1	-1E+10	1	-1E+10	1
4902642	24	C	02/15/2025	10:52	-131.956	46.178	0	1790.00	0	2.1300	0	34.5620	0	27.620	0	1767.701	0	37.6	4	11.4	4	-1E+10	1	-1E+10	1	-1E+10	1	-1E+10	1	-1E+10	1	-1E+10	1
4902642	24	C	02/15/2025	10:52	-131.956	46.178	0	1809.70	0	2.1080	0	34.5640	0	27.624	0	1787.073	0	38.3	4	11.6	4	-1E+10	1	-1E+10	1	-1E+10	1	-1E+10	1	-1E+10	1	-1E+10	1
4902642	24	C	02/15/2025	10:52	-131.956	46.178	0	1829.00	0	2.0920	0	34.5670	0	27.627	0	1806.050	0	39.7	4	12.0	4	-1E+10	1	-1E+10	1	-1E+10	1	-1E+10	1	-1E+10	1	-1E+10	1
4902642	24	C	02/15/2025	10:52	-131.956	46.178	0	1849.90	0	2.0750	0	34.5690	0	27.630	0	1826.598	0	40.5	4	12.2	4	-1E+10	1	-1E+10	1	-1E+10	1	-1E+10	1	-1E+10	1	-1E+10	1
4902642	24	C	02/15/2025	10:52	-131.956	46.178	0	1869.70	0	2.0540	0	34.5720	0	27.634	0	1846.062	0	41.7	4	12.6	4	-1E+10	1	-1E+10	1	-1E+10	1	-1E+10	1	-1E+10	1	-1E+10	1
4902642	24	C	02/15/2025	10:52	-131.956	46.178	0	1889.50	0	2.0430	0	34.5750	0	27.638	0	1865.525	0	42.7	4	12.9	4	-1E+10	1	-1E+10	1	-1E+10	1	-1E+10	1	-1E+10	1	-1E+10	1
4902642	24	C	02/15/2025	10:52	-131.956	46.178	0	1909.70	0	2.0340	0	34.5770	0	27.640	0	1885.379	0	43.5	4	13.1	4	-1E+10	1	-1E+10	1	-1E+10	1	-1E+10	1	-1E+10	1	-1E+10	1
4902642	24	C	02/15/2025	10:52	-131.956	46.178	0	1929.90	0	2.0140	0	34.5790	0	27.644	0	1905.232	0	44.5	4	13.4	4	-1E+10	1	-1E+10	1	-1E+10	1	-1E+10	1	-1E+10	1	-1E+10	1
4902642	24	C	02/15/2025	10:52	-131.956	46.178	0	1949.90	0	1.9970	0	34.5810	0	27.647	0	1924.886	0	45.5	4	13.7	4	-1E+10	1	-1E+10	1	-1E+10	1	-1E+10	1	-1E+10	1	-1E+10	1
4902642	24	C	02/15/2025	10:52	-131.956	46.178	0	1969.70	0	1.9860	0	34.5830	0	27.649	0	1944.342	0	46.3	4	14.0	4	-1E+10	1	-1E+10	1	-1E+10	1	-1E+10	1	-1E+10	1	-1E+10	1
4902642	24	C	02/15/2025	10:52	-131.956	46.178	0	1989.50	0	1.9750	0	34.5850	0	27.652	0	1963.795	0	47.3	4	14.2	4	-1E+10	1	-1E+10	1	-1E+10	1	-1E+10	1	-1E+10	1	-1E+10	1
4902642	24	C	02/15/2025	10:52	-131.956	46.178	0	2009.60	0	1.9640	0	34.5870	4	27.654	0	1983.542	0	48.3	4	14.6	4	-1E+10	1	-1E+10	1	-1E+10	1	-1E+10	1	-1E+10	1	-1E+10	1
4902642	24	C	02/15/2025	10:52	-131.956	46.178	0	2029.80	0	1.9530	0	34.5900	4	27.658	0	2003.386	0	49.3	4	14.9	4	-1E+10	1	-1E+10	1	-1E+10	1	-1E+10	1	-1E+10	1	-1E+10	1
4902642	24	C	02/15/2025	10:52	-131.956	46.178	0	2049.60	0	1.9410	0	34.5920	4	27.660	0	2022.834	0	50.0	4	15.1	4	-1E+10	1	-1E+10	1	-1E+10	1	-1E+10	1	-1E+10	1	-1E+10	1
4902642	24	C	02/15/2025	10:52	-131.956	46.178	0	2069.50	0	1.9300	0	34.5940	4	27.663	0	2042.379	0	51.1	4	15.4	4	-1E+10	1	-1E+10	1	-1E+10	1	-1E+10	1	-1E+10	1	-1E+10	1
4902642	24	C	02/15/2025	10:52	-131.956	46.178	0	2089.60	0	1.9160	0	34.5970	4	27.666	0	2062.119	0	52.3	4	15.7	4	-1E+10	1	-1E+10	1	-1E+10	1	-1E+10	1	-1E+10	1	-1E+10	1
4902642	24	C	02/15/2025	10:52	-131.956	46.178	0	2109.60	0	1.9010	0	34.5990	4	27.669	0	2081.758	0	53.4	4	16.1	4	-1E+10	1	-1E+10	1	-1E+10	1	-1E+10	1	-1E+10	1	-1E+10	1
4902642	24	C	02/15/2025	10:52	-131.956	46.178	0	2130.50	0	1.8920	0	34.6010	4	27.672	0	2102.279	0	54.2	4	16.3	4	-1E+10	1	-1E+10	1	-1E+10	1	-1E+10	1	-1E+10	1	-1E+10	1
4902642	24	C	02/15/2025	10:52	-131.956	46.178	0	2149.80	0	1.8880	0	34.6020	4	27.673	0	2121.228	0	54.8	4	16.5	4	-1E+10	1	-1E+10	1	-1E+10	1	-1E+10	1	-1E+10	1	-1E+10	1
4902642	24	C	02/15/2025	10:52	-131.956	46.178	0	2169.70	0	1.8860	0	34.6030	4	27.674	0	2140.764	0	55.3	4	16.6	4	-1E+10	1	-1E+10	1	-1E+10	1	-1E+10	1	-1E+10	1	-1E+10	1
4902642	24	C	02/15/2025	10:52	-131.956	46.178	0	2189.80	0	1.8790	0	34.6050	4	27.676	0	2160.494	0	56.2	4	16.9	4	-1E+10	1	-1E+10	1	-1E+10	1	-1E+10	1	-1E+10	1	-1E+10	1
4902642	24	C	02/15/2025	10:52	-131.956	46.178	0	2210.30	0	1.8710	0	34.6060	4	27.678	0	2180.616	0	56.8	4	17.1	4	-1E+10	1	-1E+10	1	-1E+10	1	-1E+10	1	-1E+10	1	-1E+10	1
4902642	24	C	02/15/2025	10:52	-131.956	46.178	0	2229.80	0	1.8630	0	34.6080	4	27.680	0	2199.754	0	57.7	4	17.3	4	-1E+10	1	-1E+10	1	-1E+10	1	-1E+10	1	-1E+10	1	-1E+10	1
4902642	24	C	02/15/2025	10:52	-131.956	46.178	0	2250.40	0	1.8530	0	34.6090	4	27.682	0	2219.969	0	58.3	4	17.5	4	-1E+10	1	-1E+10	1	-1E+10	1	-1E+10	1	-1E+10	1	-1E+10	1
4902642	24	C	02/15/2025	10:52	-131.956	46.178	0	2270.40	0	1.8450	0	34.6110	4	27.684	0	2239.594	0	59.3	4	17.8	4	-1E+10	1	-1E+10	1	-1E+10	1	-1E+10	1	-1E+10	1	-1E+10	1
4902642	24	C	02/15/2025	10:52	-131.956	46.178	0	2289.90	0	1.8340	0	34.6130	4	27.687	0	2258.727	0	60.3	4	18.1	4	-1E+10	1	-1E+10	1	-1E+10	1	-1E+10	1	-1E+10	1	-1E+10	1
4902642	24	C	02/15/2025	10:52	-131.956	46.178	0	2309.70	0	1.8250	0	34.6140	4	27.688	0	2278.152	0	61.2	4	18.4	4	-1E+10	1	-1E+10	1	-1E+10	1	-1E+10	1	-1E+10	1	-1E+10	1
4902642	24	C	02/15/2025	10:52	-131.956	46.178	0	2330.30	0	1.8170	0	34.6160	4	27.691	0	2298.360	0	62.0	4	18.6	4	-1E+10	1	-1E+10	1	-1E+10	1	-1E+10	1	-1E+10	1	-1E+10	1
4902642	24	C	02/15/2025	10:52	-131.956	46.178	0	2350.00	0	1.8080	0	34.6170	4	27.692	0	2317.684	0	62.7	4	18.8	4	-1E+10	1	-1E+10	1	-1E+10	1	-1E+10	1	-1E+10	1	-1E+10	1
4902642	24	C	02/15/2025	10:52	-131.956	46.178	0	2369.90	0	1.8000	0	34.6180	4	27.694	0	2337.202	0	63.7	4	19.1	4	-1E+10	1	-1E+10	1	-1E+10	1	-1E+10	1	-1E+10	1	-1E+10	1
4902642	24	C	02/15/2025	10:52	-131.956	46.178	0	2389.50	0	1.7900	0	34.6200	4	27.696	0	2356.424	0	64.6	4	19.4	4	-1E+10	1	-1E+10	1	-1E+10	1	-1E+10	1	-1E+10	1	-1E+10	1
4902642	24	C	02/15/2025	10:52	-131.956	46.178	0	2409.80	0	1.7840	0	34.6210	4	27.698	0	2376.330	0	65.5	4	19.6	4	-1E+10	1	-1E+10	1	-1E+10	1	-1E+10	1	-1E+10	1	-1E+10	1
4902642	24	C	02/15/2025	10:52	-131.956	46.178	0	2430.20	0	1.7750	0	34.6220	4	27.699	0	2396.333	0	66.5	4	19.9	4	-1E+10	1	-1E+10	1	-1E+10	1	-1E+10	1	-1E+10	1	-1E+10	1
4902642	24	C	02/15/2025	10:52	-131.956	46.178	0	2450.30	0	1.7680	0	34.6240	4	27.701	0	2416.040	0	67.3	4	20.2	4	-1E+10	1	-1E+10	1	-1E+10	1	-1E+10	1	-1E+10	1	-1E+10	1
4902642	24	C	02/15/2025	10:52	-131.956	46.178	0	2469.90	0	1.7620	0	34.6240	4	27.702	0	2435.255	0	68.0	4	20.4	4	-1E+10	1	-1E+10	1	-1E+10	1	-1E+10	1	-1E+10	1	-1E+10	1
4902642	24	C	02/15/2025	10:52	-131.956	46.178	0	2490.20	0	1.7540	0	34.6250	4	27.703	0	2455.154	0	68.8	4	20.6	4	-1E+10	1	-1E+10	1	-1E+10	1	-1E+10	1	-1E+10	1	-1E+10	1
4902642	24	C	02/15/2025	10:52	-131.956	46.178	0	2509.80	0	1.7470	0	34.6260	4	27.705	0	2474.366	0	69.5	4	20.8	4	-1E+10	1	-1E+10	1	-1E+10	1	-1E+10	1	-1E+10	1	-1E+10	1
4902642	24	C	02/15/2025	10:52	-131.956	46.178	0	2530.10	0	1.7370	0	34.6280	4	27.707	0	2494.262	0	70.7	4	21.2	4	-1E+10	1	-1E+10	1	-1E+10	1	-1E+10	1	-1E+10	1	-1E+10	1
4902642	24	C	02/15/2025	10:52	-131.956	46.178	0	2550.20	0	1.7260	0	34.6290	4	27.709	0	2513.959	0	71.7	4	21.5	4	-1E+10	1	-1E+10	1	-1E+10	1	-1E+10	1	-1E+10	1	-1E+10	1
4902642	24	C	02/15/2025	10:52	-131.956	46.178	0	2569.90	0	1.7220	0	34.6300	4	27.710	0	2533.264	0	72.2	4	21.6	4	-1E+10	1	-1E+10	1	-1E+10	1	-1E+10	1	-1E+10	1	-1E+10	1
4902642	24	C	02/15/2025	10:52	-131.956	46.178	0	2590.00	0	1.7170	0	34.6310	4	27.712	0	2552.958	0	73.0	4	21.9	4	-1E+10	1	-1E+10	1	-1E+10	1	-1E+10	1	-1E+10	1	-1E+10	1
4902642	24	C	02/15/2025	10:52	-131.956	46.178	0	2609.70	0	1.7080	0	34.6320	4	27.713	0	2572.259	0	73.9	4	22.1	4	-1E+10	1	-1E+10	1	-1E+10	1	-1E+10	1	-1E+10	1	-1E+10	1
4902642	24	C	02/15/2025	10:52	-131.956	46.178	0	2629.70	0	1.7040	0	34.6330	4	27.714	0	2591.851	0	74.6	4	22.3	4	-1E+10	1	-1E+10	1	-1E+10	1	-1E+10	1	-1E+10	1	-1E+10	1
4902642	24	C	02/15/2025	10:52	-131.956	46.178	0	2649.70	0	1.6970	0	34.6340	4	27.716	0	2611.442	0	75.4	4	22.6	4	-1E+10	1	-1E+10	1	-1E+10	1	-1E+10	1	-1E+10	1	-1E+10	1
4902642	24	C	02/15/2025	10:52	-131.956	46.178	0	2669.80	0	1.6930	0	34.6350	4	27.717	0	2631.130	0	75.9	4	22.7	4	-1E+10	1	-1E+10	1	-1E+10	1	-1E+10	1	-1E+10	1	-1E+10	1
4902642	24	C	02/15/2025	10:52	-131.956	46.178	0	2689.90	0	1.6880	0	34.6350	4	27.718	0	2650.815	0	76.6	4	22.9	4	-1E+10	1	-1E+10	1	-1E+10	1	-1E+10	1	-1E+10	1	-1E+10	1
4902642	24	C	02/15/2025	10:52	-131.956	46.178	0	2709.80	0	1.6820	0	34.6360	4	27.719	0	2670.303	0	77.3	4	23.1	4	-1E+10	1	-1E+10	1	-1E+10	1	-1E+10	1	-1E+10	1	-1E+10	1
4902642	24	C	02/15/2025	10:52	-131.956	46.178	0	2729.80	0	1.6810	0	34.6370	4	27.720	0	2689.887	0	77.7	4	23.2	4	-1E+10	1	-1E+10	1	-1E+10	1	-1E+10	1	-1E+10	1	-1E+10	1
4902642	24	C	02/15/2025	10:52	-131.956	46.178	0	2749.70	0	1.6770	0	34.6380	4	27.721	0	2709.371	0	78.2	4	23.4	4	-1E+10	1	-1E+10	1	-1E+10	1	-1E+10	1	-1E+10	1	-1E+10	1
4902642	24	C	02/15/2025	10:52	-131.956	46.178	0	2769.90	0	1.6730	0	34.6380	4	27.722	0	2729.147	0	78.9	4	23.6	4	-1E+10	1	-1E+10	1	-1E+10	1	-1E+10	1	-1E+10	1	-1E+10	1
4902642	24	C	02/15/2025	10:52	-131.956	46.178	0	2790.00	0	1.6660	0	34.6390	4	27.723	0	2748.823	0	79.8	4	23.9	4	-1E+10	1	-1E+10	1	-1E+10	1	-1E+10	1	-1E+10	1	-1E+10	1
4902642	24	C	02/15/2025	10:52	-131.956	46.178	0	2810.00	0	1.6590	0	34.6410	4	27.725	0	2768.400	0	80.7	4	24.1	4	-1E+10	1	-1E+10	1	-1E+10	1	-1E+10	1	-1E+10	1	-1E+10	1
4902642	24	C	02/15/2025	10:52	-131.956	46.178	0	2830.30	0	1.6540	0	34.6420	4	27.727	0	2788.269	0	81.3	4	24.3	4	-1E+10	1	-1E+10	1	-1E+10	1	-1E+10	1	-1E+10	1	-1E+10	1
4902642	24	C	02/15/2025	10:52	-131.956	46.178	0	2850.20	0	1.6520	0	34.6420	4	27.727	0	2807.744	0	81.8	4	24.5	4	-1E+10	1	-1E+10	1	-1E+10	1	-1E+10	1	-1E+10	1	-1E+10	1
4902642	24	C	02/15/2025	10:52	-131.956	46.178	0	2870.00	0	1.6470	0	34.6430	4	27.728	0	2827.120	0	82.5	4	24.7	4	-1E+10	1	-1E+10	1	-1E+10	1	-1E+10	1	-1E+10	1	-1E+10	1
4902642	24	C	02/15/2025	10:52	-131.956	46.178	0	2890.00	0	1.6420	0	34.6440	4	27.729	0	2846.689	0	83.2	4	24.9	4	-1E+10	1	-1E+10	1	-1E+10	1	-1E+10	1	-1E+10	1	-1E+10	1
4902642	24	C	02/15/2025	10:52	-131.956	46.178	0	2909.90	0	1.6390	0	34.6450	4	27.731	0	2866.159	0	83.8	4	25.0	4	-1E+10	1	-1E+10	1	-1E+10	1	-1E+10	1	-1E+10	1	-1E+10	1
4902642	24	C	02/15/2025	10:52	-131.956	46.178	0	2930.10	0	1.6360	0	34.6450	4	27.731	0	2885.921	0	84.3	4	25.2	4	-1E+10	1	-1E+10	1	-1E+10	1	-1E+10	1	-1E+10	1	-1E+10	1
4902642	24	C	02/15/2025	10:52	-131.956	46.178	0	2949.80	0	1.6350	0	34.6460	4	27.732	0	2905.192	0	84.6	4	25.3	4	-1E+10	1	-1E+10	1	-1E+10	1	-1E+10	1	-1E+10	1	-1E+10	1
4902642	24	C	02/15/2025	10:52	-131.956	46.178	0	2969.80	0	1.6330	0	34.6460	4	27.732	0	2924.755	0	85.1	4	25.4	4	-1E+10	1	-1E+10	1	-1E+10	1	-1E+10	1	-1E+10	1	-1E+10	1
4902642	24	C	02/15/2025	10:52	-131.956	46.178	0	2990.20	0	1.6270	0	34.6470	4	27.734	0	2944.707	0	86.0	4	25.7	4	-1E+10	1	-1E+10	1	-1E+10	1	-1E+10	1	-1E+10	1	-1E+10	1
4902642	24	C	02/15/2025	10:52	-131.956	46.178	0	3009.90	0	1.6240	0	34.6480	4	27.735	0	2963.973	0	86.5	4	25.8	4	-1E+10	1	-1E+10	1	-1E+10	1	-1E+10	1	-1E+10	1	-1E+10	1
4902642	24	C	02/15/2025	10:52	-131.956	46.178	0	3029.70	0	1.6230	0	34.6480	4	27.735	0	2983.334	0	86.8	4	26.0	4	-1E+10	1	-1E+10	1	-1E+10	1	-1E+10	1	-1E+10	1	-1E+10	1
4902642	24	C	02/15/2025	10:52	-131.956	46.178	0	3049.80	0	1.6200	0	34.6490	4	27.736	0	3002.988	0	87.6	4	26.2	4	-1E+10	1	-1E+10	1	-1E+10	1	-1E+10	1	-1E+10	1	-1E+10	1
4902642	24	C	02/15/2025	10:52	-131.956	46.178	0	3070.10	0	1.6130	0	34.6500	4	27.737	0	3022.835	0	88.5	4	26.4	4	-1E+10	1	-1E+10	1	-1E+10	1	-1E+10	1	-1E+10	1	-1E+10	1
4902642	24	C	02/15/2025	10:52	-131.956	46.178	0	3090.00	0	1.6110	0	34.6510	4	27.739	0	3042.289	0	89.0	4	26.6	4	-1E+10	1	-1E+10	1	-1E+10	1	-1E+10	1	-1E+10	1	-1E+10	1
4902642	24	C	02/15/2025	10:52	-131.956	46.178	0	3110.10	0	1.6070	0	34.6510	4	27.739	0	3061.937	0	89.9	4	26.9	4	-1E+10	1	-1E+10	1	-1E+10	1	-1E+10	1	-1E+10	1	-1E+10	1
4902642	24	C	02/15/2025	10:52	-131.956	46.178	0	3129.90	0	1.6020	0	34.6520	4	27.740	0	3081.290	0	90.5	4	27.0	4	-1E+10	1	-1E+10	1	-1E+10	1	-1E+10	1	-1E+10	1	-1E+10	1
4902642	24	C	02/15/2025	10:52	-131.956	46.178	0	3149.80	0	1.6000	0	34.6530	4	27.741	0	3100.739	0	90.9	4	27.1	4	-1E+10	1	-1E+10	1	-1E+10	1	-1E+10	1	-1E+10	1	-1E+10	1
4902642	24	C	02/15/2025	10:52	-131.956	46.178	0	3169.90	0	1.6000	0	34.6530	4	27.741	0	3120.382	0	91.2	4	27.2	4	-1E+10	1	-1E+10	1	-1E+10	1	-1E+10	1	-1E+10	1	-1E+10	1
4902642	24	C	02/15/2025	10:52	-131.956	46.178	0	3190.20	0	1.5970	0	34.6540	4	27.743	0	3140.218	0	92.0	4	27.5	4	-1E+10	1	-1E+10	1	-1E+10	1	-1E+10	1	-1E+10	1	-1E+10	1
4902642	24	C	02/15/2025	10:52	-131.956	46.178	0	3209.90	0	1.5900	0	34.6550	4	27.744	0	3159.467	0	92.8	4	27.7	4	-1E+10	1	-1E+10	1	-1E+10	1	-1E+10	1	-1E+10	1	-1E+10	1
4902642	24	C	02/15/2025	10:52	-131.956	46.178	0	3229.80	0	1.5870	0	34.6560	4	27.745	0	3178.909	0	93.4	4	27.9	4	-1E+10	1	-1E+10	1	-1E+10	1	-1E+10	1	-1E+10	1	-1E+10	1
4902642	24	C	02/15/2025	10:52	-131.956	46.178	0	3250.20	0	1.5820	0	34.6570	4	27.746	0	3198.837	0	94.2	4	28.1	4	-1E+10	1	-1E+10	1	-1E+10	1	-1E+10	1	-1E+10	1	-1E+10	1
4902642	24	C	02/15/2025	10:52	-131.956	46.178	0	3270.20	0	1.5790	0	34.6580	4	27.748	0	3218.374	0	94.7	4	28.3	4	-1E+10	1	-1E+10	1	-1E+10	1	-1E+10	1	-1E+10	1	-1E+10	1
4902642	24	C	02/15/2025	10:52	-131.956	46.178	0	3289.80	0	1.5780	0	34.6580	4	27.748	0	3237.518	0	95.0	4	28.4	4	-1E+10	1	-1E+10	1	-1E+10	1	-1E+10	1	-1E+10	1	-1E+10	1
4902642	24	C	02/15/2025	10:52	-131.956	46.178	0	3309.70	0	1.5770	0	34.6580	4	27.748	0	3256.953	0	95.2	4	28.4	4	-1E+10	1	-1E+10	1	-1E+10	1	-1E+10	1	-1E+10	1	-1E+10	1
4902642	24	C	02/15/2025	10:52	-131.956	46.178	0	3330.20	0	1.5760	0	34.6590	4	27.749	0	3276.972	0	95.4	4	28.5	4	-1E+10	1	-1E+10	1	-1E+10	1	-1E+10	1	-1E+10	1	-1E+10	1
4902642	24	C	02/15/2025	10:52	-131.956	46.178	0	3350.60	0	1.5760	0	34.6590	4	27.749	0	3296.892	0	95.1	4	28.4	4	-1E+10	1	-1E+10	1	-1E+10	1	-1E+10	1	-1E+10	1	-1E+10	1
4902642	24	C	02/15/2025	10:52	-131.956	46.178	0	3360.70	0	1.5770	0	34.6590	4	27.749	0	3306.753	0	94.3	4	28.1	4	-1E+10	1	-1E+10	1	-1E+10	1	-1E+10	1	-1E+10	1	-1E+10	1
4902642	24	C	02/15/2025	10:52	-131.956	46.178	0																										
4902642	25	C	02/25/2025	11:49	-131.874	46.207	0	0.60	0	9.6780	0	32.5110	0	25.062	0	0.595	0	250.7	4	89.1	4	-1E+10	1	-1E+10	1	-1E+10	1	-1E+10	1	-1E+10	1	-1E+10	1
4902642	25	C	02/25/2025	11:49	-131.874	46.207	0	0.70	0	9.6815	0	32.5088	0	25.060	0	0.694	0	250.6	4	89.0	4	-1E+10	1	-1E+10	1	-1E+10	1	-1E+10	1	-1E+10	1	-1E+10	1
4902642	25	C	02/25/2025	11:49	-131.874	46.207	0	0.80	0	9.6793	0	32.5100	0	25.061	0	0.793	0	250.7	4	89.1	4	-1E+10	1	-1E+10	1	-1E+10	1	-1E+10	1	-1E+10	1	-1E+10	1
4902642	25	C	02/25/2025	11:49	-131.874	46.207	0	0.90	0	9.6810	0	32.5090	0	25.060	0	0.893	0	-1e10	1	-1e10	1	-1E+10	1	-1E+10	1	-1E+10	1	-1E+10	1	-1E+10	1	-1E+10	1
4902642	25	C	02/25/2025	11:49	-131.874	46.207	0	1.00	0	9.6820	0	32.5110	0	25.062	0	0.992	0	250.4	4	88.9	4	-1E+10	1	-1E+10	1	-1E+10	1	-1E+10	1	-1E+10	1	-1E+10	1
4902642	25	C	02/25/2025	11:49	-131.874	46.207	0	1.70	0	9.6800	0	32.5140	0	25.064	0	1.686	0	250.3	4	88.9	4	-1E+10	1	-1E+10	1	-1E+10	1	-1E+10	1	-1E+10	1	-1E+10	1
4902642	25	C	02/25/2025	11:49	-131.874	46.207	0	2.60	0	9.6840	0	32.5120	0	25.062	0	2.579	0	250.3	4	88.9	4	-1E+10	1	-1E+10	1	-1E+10	1	-1E+10	1	-1E+10	1	-1E+10	1
4902642	25	C	02/25/2025	11:49	-131.874	46.207	0	3.80	0	9.6890	0	32.5090	0	25.059	0	3.769	0	250.2	4	88.9	4	-1E+10	1	-1E+10	1	-1E+10	1	-1E+10	1	-1E+10	1	-1E+10	1
4902642	25	C	02/25/2025	11:49	-131.874	46.207	0	4.60	0	9.6880	0	32.5090	0	25.059	0	4.562	0	250.2	4	88.9	4	-1E+10	1	-1E+10	1	-1E+10	1	-1E+10	1	-1E+10	1	-1E+10	1
4902642	25	C	02/25/2025	11:49	-131.874	46.207	0	5.70	0	9.6890	0	32.5090	0	25.059	0	5.653	0	250.3	4	88.9	4	-1E+10	1	-1E+10	1	-1E+10	1	-1E+10	1	-1E+10	1	-1E+10	1
4902642	25	C	02/25/2025	11:49	-131.874	46.207	0	6.60	0	9.6890	0	32.5090	0	25.059	0	6.546	0	250.2	4	88.9	4	-1E+10	1	-1E+10	1	-1E+10	1	-1E+10	1	-1E+10	1	-1E+10	1
4902642	25	C	02/25/2025	11:49	-131.874	46.207	0	7.40	0	9.6890	0	32.5090	0	25.059	0	7.339	0	250.2	4	88.9	4	-1E+10	1	-1E+10	1	-1E+10	1	-1E+10	1	-1E+10	1	-1E+10	1
4902642	25	C	02/25/2025	11:49	-131.874	46.207	0	8.40	0	9.6890	0	32.5090	0	25.059	0	8.331	0	250.1	4	88.9	4	-1E+10	1	-1E+10	1	-1E+10	1	-1E+10	1	-1E+10	1	-1E+10	1
4902642	25	C	02/25/2025	11:49	-131.874	46.207	0	9.40	0	9.6880	0	32.5090	0	25.059	0	9.322	0	250.1	4	88.9	4	-1E+10	1	-1E+10	1	-1E+10	1	-1E+10	1	-1E+10	1	-1E+10	1
4902642	25	C	02/25/2025	11:49	-131.874	46.207	0	14.50	0	9.6890	0	32.5090	0	25.059	0	14.380	0	250.1	4	88.8	4	-1E+10	1	-1E+10	1	-1E+10	1	-1E+10	1	-1E+10	1	-1E+10	1
4902642	25	C	02/25/2025	11:49	-131.874	46.207	0	24.90	0	9.6890	0	32.5090	0	25.059	0	24.694	0	249.9	4	88.8	4	-1E+10	1	-1E+10	1	-1E+10	1	-1E+10	1	-1E+10	1	-1E+10	1
4902642	25	C	02/25/2025	11:49	-131.874	46.207	0	34.60	0	9.6900	0	32.5080	0	25.059	0	34.312	0	249.7	4	88.7	4	-1E+10	1	-1E+10	1	-1E+10	1	-1E+10	1	-1E+10	1	-1E+10	1
4902642	25	C	02/25/2025	11:49	-131.874	46.207	0	44.70	0	9.6930	0	32.5090	0	25.059	0	44.327	0	249.4	4	88.6	4	-1E+10	1	-1E+10	1	-1E+10	1	-1E+10	1	-1E+10	1	-1E+10	1
4902642	25	C	02/25/2025	11:49	-131.874	46.207	0	55.10	0	9.6920	0	32.5090	0	25.059	0	54.639	0	249.0	4	88.5	4	-1E+10	1	-1E+10	1	-1E+10	1	-1E+10	1	-1E+10	1	-1E+10	1
4902642	25	C	02/25/2025	11:49	-131.874	46.207	0	64.60	0	9.6950	0	32.5080	0	25.058	0	64.058	0	248.1	4	88.1	4	-1E+10	1	-1E+10	1	-1E+10	1	-1E+10	1	-1E+10	1	-1E+10	1
4902642	25	C	02/25/2025	11:49	-131.874	46.207	0	75.00	0	9.6910	0	32.5140	0	25.064	0	74.369	0	244.6	4	86.9	4	-1E+10	1	-1E+10	1	-1E+10	1	-1E+10	1	-1E+10	1	-1E+10	1
4902642	25	C	02/25/2025	11:49	-131.874	46.207	0	84.90	0	9.6600	0	32.5350	0	25.085	0	84.184	0	234.0	4	83.1	4	-1E+10	1	-1E+10	1	-1E+10	1	-1E+10	1	-1E+10	1	-1E+10	1
4902642	25	C	02/25/2025	11:49	-131.874	46.207	0	95.10	0	9.0400	0	32.8450	0	25.427	0	94.296	0	215.8	4	75.8	4	-1E+10	1	-1E+10	1	-1E+10	1	-1E+10	1	-1E+10	1	-1E+10	1
4902642	25	C	02/25/2025	11:49	-131.874	46.207	0	105.30	0	8.6290	0	33.0900	0	25.682	0	104.407	0	208.6	4	72.7	4	-1E+10	1	-1E+10	1	-1E+10	1	-1E+10	1	-1E+10	1	-1E+10	1
4902642	25	C	02/25/2025	11:49	-131.874	46.207	0	114.90	0	8.4770	0	33.2310	0	25.816	0	113.923	0	202.4	4	70.4	4	-1E+10	1	-1E+10	1	-1E+10	1	-1E+10	1	-1E+10	1	-1E+10	1
4902642	25	C	02/25/2025	11:49	-131.874	46.207	0	124.70	0	8.2840	0	33.3840	0	25.965	0	123.637	0	196.6	4	68.2	4	-1E+10	1	-1E+10	1	-1E+10	1	-1E+10	1	-1E+10	1	-1E+10	1
4902642	25	C	02/25/2025	11:49	-131.874	46.207	0	134.90	0	7.9870	0	33.5290	0	26.123	0	133.746	0	193.0	4	66.5	4	-1E+10	1	-1E+10	1	-1E+10	1	-1E+10	1	-1E+10	1	-1E+10	1
4902642	25	C	02/25/2025	11:49	-131.874	46.207	0	144.80	0	7.7640	0	33.6030	0	26.213	0	143.558	0	191.4	4	65.7	4	-1E+10	1	-1E+10	1	-1E+10	1	-1E+10	1	-1E+10	1	-1E+10	1
4902642	25	C	02/25/2025	11:49	-131.874	46.207	0	154.90	0	7.6630	0	33.6310	0	26.250	0	153.568	0	189.4	4	64.9	4	-1E+10	1	-1E+10	1	-1E+10	1	-1E+10	1	-1E+10	1	-1E+10	1
4902642	25	C	02/25/2025	11:49	-131.874	46.207	0	164.90	0	7.4880	0	33.6760	0	26.310	0	163.478	0	185.8	4	63.4	4	-1E+10	1	-1E+10	1	-1E+10	1	-1E+10	1	-1E+10	1	-1E+10	1
4902642	25	C	02/25/2025	11:49	-131.874	46.207	0	175.30	0	7.3030	0	33.7220	0	26.373	0	173.784	0	180.8	4	61.5	4	-1E+10	1	-1E+10	1	-1E+10	1	-1E+10	1	-1E+10	1	-1E+10	1
4902642	25	C	02/25/2025	11:49	-131.874	46.207	0	184.60	0	7.1900	0	33.7530	0	26.413	0	182.999	0	176.3	4	59.8	4	-1E+10	1	-1E+10	1	-1E+10	1	-1E+10	1	-1E+10	1	-1E+10	1
4902642	25	C	02/25/2025	11:49	-131.874	46.207	0	194.80	0	7.0610	0	33.7750	0	26.448	0	193.106	0	170.0	4	57.5	4	-1E+10	1	-1E+10	1	-1E+10	1	-1E+10	1	-1E+10	1	-1E+10	1
4902642	25	C	02/25/2025	11:49	-131.874	46.207	0	210.00	0	6.7490	0	33.7970	0	26.508	0	208.166	0	155.9	4	52.3	4	-1E+10	1	-1E+10	1	-1E+10	1	-1E+10	1	-1E+10	1	-1E+10	1
4902642	25	C	02/25/2025	11:49	-131.874	46.207	0	229.80	0	6.4150	0	33.8150	0	26.566	0	227.782	0	133.4	4	44.5	4	-1E+10	1	-1E+10	1	-1E+10	1	-1E+10	1	-1E+10	1	-1E+10	1
4902642	25	C	02/25/2025	11:49	-131.874	46.207	0	249.60	0	6.1700	0	33.8330	0	26.612	0	247.397	0	114.9	4	38.1	4	-1E+10	1	-1E+10	1	-1E+10	1	-1E+10	1	-1E+10	1	-1E+10	1
4902642	25	C	02/25/2025	11:49	-131.874	46.207	0	269.60	0	6.0410	0	33.8550	0	26.646	0	267.207	0	97.3	4	32.2	4	-1E+10	1	-1E+10	1	-1E+10	1	-1E+10	1	-1E+10	1	-1E+10	1
4902642	25	C	02/25/2025	11:49	-131.874	46.207	0	289.70	0	5.9200	0	33.8820	0	26.682	0	287.115	0	84.0	4	27.7	4	-1E+10	1	-1E+10	1	-1E+10	1	-1E+10	1	-1E+10	1	-1E+10	1
4902642	25	C	02/25/2025	11:49	-131.874	46.207	0	309.80	0	5.8570	0	33.9040	0	26.708	0	307.021	0	72.4	4	23.8	4	-1E+10	1	-1E+10	1	-1E+10	1	-1E+10	1	-1E+10	1	-1E+10	1
4902642	25	C	02/25/2025	11:49	-131.874	46.207	0	329.80	0	5.8040	0	33.9360	0	26.740	0	326.826	0	62.6	4	20.6	4	-1E+10	1	-1E+10	1	-1E+10	1	-1E+10	1	-1E+10	1	-1E+10	1
4902642	25	C	02/25/2025	11:49	-131.874	46.207	0	349.80	0	5.5890	0	33.9370	0	26.767	0	346.629	0	61.2	4	20.0	4	-1E+10	1	-1E+10	1	-1E+10	1	-1E+10	1	-1E+10	1	-1E+10	1
4902642	25	C	02/25/2025	11:49	-131.874	46.207	0	369.70	0	5.4140	0	33.9430	0	26.793	0	366.331	0	56.7	4	18.5	4	-1E+10	1	-1E+10	1	-1E+10	1	-1E+10	1	-1E+10	1	-1E+10	1
4902642	25	C	02/25/2025	11:49	-131.874	46.207	0	389.80	0	5.2180	0	33.9520	0	26.823	0	386.229	0	52.4	4	17.0	4	-1E+10	1	-1E+10	1	-1E+10	1	-1E+10	1	-1E+10	1	-1E+10	1
4902642	25	C	02/25/2025	11:49	-131.874	46.207	0	410.00	0	5.0120	0	33.9640	0	26.856	0	406.224	0	47.3	4	15.3	4	-1E+10	1	-1E+10	1	-1E+10	1	-1E+10	1	-1E+10	1	-1E+10	1
4902642	25	C	02/25/2025	11:49	-131.874	46.207	0	429.70	0	4.9610	0	33.9900	0	26.883	0	425.722	0	42.0	4	13.5	4	-1E+10	1	-1E+10	1	-1E+10	1	-1E+10	1	-1E+10	1	-1E+10	1
4902642	25	C	02/25/2025	11:49	-131.874	46.207	0	450.40	0	4.9140	0	33.9990	0	26.896	0	446.208	0	39.9	4	12.8	4	-1E+10	1	-1E+10	1	-1E+10	1	-1E+10	1	-1E+10	1	-1E+10	1
4902642	25	C	02/25/2025	11:49	-131.874	46.207	0	469.60	0	4.8150	0	34.0120	0	26.917	0	465.208	0	36.6	4	11.8	4	-1E+10	1	-1E+10	1	-1E+10	1	-1E+10	1	-1E+10	1	-1E+10	1
4902642	25	C	02/25/2025	11:49	-131.874	46.207	0	489.70	0	4.7150	0	34.0300	0	26.943	0	485.097	0	32.4	4	10.4	4	-1E+10	1	-1E+10	1	-1E+10	1	-1E+10	1	-1E+10	1	-1E+10	1
4902642	25	C	02/25/2025	11:49	-131.874	46.207	0	510.40	0	4.6500	0	34.0510	0	26.967	0	505.577	0	28.5	4	9.1	4	-1E+10	1	-1E+10	1	-1E+10	1	-1E+10	1	-1E+10	1	-1E+10	1
4902642	25	C	02/25/2025	11:49	-131.874	46.207	0	529.70	0	4.5840	0	34.0650	0	26.985	0	524.670	0	25.3	4	8.1	4	-1E+10	1	-1E+10	1	-1E+10	1	-1E+10	1	-1E+10	1	-1E+10	1
4902642	25	C	02/25/2025	11:49	-131.874	46.207	0	549.40	0	4.5130	0	34.0870	0	27.010	0	544.157	0	21.5	4	6.9	4	-1E+10	1	-1E+10	1	-1E+10	1	-1E+10	1	-1E+10	1	-1E+10	1
4902642	25	C	02/25/2025	11:49	-131.874	46.207	0	569.80	0	4.4730	0	34.1110	0	27.034	0	564.335	0	18.6	4	6.0	4	-1E+10	1	-1E+10	1	-1E+10	1	-1E+10	1	-1E+10	1	-1E+10	1
4902642	25	C	02/25/2025	11:49	-131.874	46.207	0	589.70	0	4.4230	0	34.1230	0	27.049	0	584.016	0	17.5	4	5.6	4	-1E+10	1	-1E+10	1	-1E+10	1	-1E+10	1	-1E+10	1	-1E+10	1
4902642	25	C	02/25/2025	11:49	-131.874	46.207	0	609.70	0	4.3380	0	34.1350	0	27.068	0	603.794	0	16.0	4	5.1	4	-1E+10	1	-1E+10	1	-1E+10	1	-1E+10	1	-1E+10	1	-1E+10	1
4902642	25	C	02/25/2025	11:49	-131.874	46.207	0	629.90	0	4.2760	0	34.1500	0	27.086	0	623.769	0	14.1	4	4.5	4	-1E+10	1	-1E+10	1	-1E+10	1	-1E+10	1	-1E+10	1	-1E+10	1
4902642	25	C	02/25/2025	11:49	-131.874	46.207	0	650.20	0	4.2690	0	34.1760	0	27.108	0	643.840	0	11.4	4	3.6	4	-1E+10	1	-1E+10	1	-1E+10	1	-1E+10	1	-1E+10	1	-1E+10	1
4902642	25	C	02/25/2025	11:49	-131.874	46.207	0	669.70	0	4.2170	0	34.1970	0	27.130	0	663.118	0	9.9	4	3.2	4	-1E+10	1	-1E+10	1	-1E+10	1	-1E+10	1	-1E+10	1	-1E+10	1
4902642	25	C	02/25/2025	11:49	-131.874	46.207	0	689.40	0	4.1290	0	34.2090	0	27.149	0	682.592	0	9.4	4	3.0	4	-1E+10	1	-1E+10	1	-1E+10	1	-1E+10	1	-1E+10	1	-1E+10	1
4902642	25	C	02/25/2025	11:49	-131.874	46.207	0	709.70	0	4.0380	0	34.2200	0	27.167	0	702.657	0	8.6	4	2.7	4	-1E+10	1	-1E+10	1	-1E+10	1	-1E+10	1	-1E+10	1	-1E+10	1
4902642	25	C	02/25/2025	11:49	-131.874	46.207	0	729.90	0	4.0050	0	34.2390	0	27.186	0	722.622	0	7.8	4	2.5	4	-1E+10	1	-1E+10	1	-1E+10	1	-1E+10	1	-1E+10	1	-1E+10	1
4902642	25	C	02/25/2025	11:49	-131.874	46.207	0	750.40	0	3.9450	0	34.2470	0	27.198	0	742.881	0	7.5	4	2.4	4	-1E+10	1	-1E+10	1	-1E+10	1	-1E+10	1	-1E+10	1	-1E+10	1
4902642	25	C	02/25/2025	11:49	-131.874	46.207	0	769.80	0	3.8780	0	34.2580	0	27.214	0	762.051	0	7.1	4	2.2	4	-1E+10	1	-1E+10	1	-1E+10	1	-1E+10	1	-1E+10	1	-1E+10	1
4902642	25	C	02/25/2025	11:49	-131.874	46.207	0	790.00	0	3.7920	0	34.2680	0	27.231	0	782.010	0	7.0	4	2.2	4	-1E+10	1	-1E+10	1	-1E+10	1	-1E+10	1	-1E+10	1	-1E+10	1
4902642	25	C	02/25/2025	11:49	-131.874	46.207	0	809.80	0	3.7010	0	34.2710	0	27.242	0	801.572	0	6.9	4	2.2	4	-1E+10	1	-1E+10	1	-1E+10	1	-1E+10	1	-1E+10	1	-1E+10	1
4902642	25	C	02/25/2025	11:49	-131.874	46.207	0	829.50	0	3.6410	0	34.2800	0	27.255	0	821.033	0	6.6	4	2.1	4	-1E+10	1	-1E+10	1	-1E+10	1	-1E+10	1	-1E+10	1	-1E+10	1
4902642	25	C	02/25/2025	11:49	-131.874	46.207	0	849.80	0	3.6150	0	34.2930	0	27.269	0	841.085	0	6.2	4	1.9	4	-1E+10	1	-1E+10	1	-1E+10	1	-1E+10	1	-1E+10	1	-1E+10	1
4902642	25	C	02/25/2025	11:49	-131.874	46.207	0	869.80	0	3.6020	0	34.3050	0	27.280	0	860.839	0	5.9	4	1.9	4	-1E+10	1	-1E+10	1	-1E+10	1	-1E+10	1	-1E+10	1	-1E+10	1
4902642	25	C	02/25/2025	11:49	-131.874	46.207	0	889.80	0	3.5540	0	34.3160	0	27.293	0	880.591	0	5.8	4	1.8	4	-1E+10	1	-1E+10	1	-1E+10	1	-1E+10	1	-1E+10	1	-1E+10	1
4902642	25	C	02/25/2025	11:49	-131.874	46.207	0	909.90	0	3.5320	0	34.3280	0	27.305	0	900.439	0	5.6	4	1.8	4	-1E+10	1	-1E+10	1	-1E+10	1	-1E+10	1	-1E+10	1	-1E+10	1
4902642	25	C	02/25/2025	11:49	-131.874	46.207	0	929.90	0	3.4850	0	34.3360	0	27.316	0	920.187	0	5.6	4	1.7	4	-1E+10	1	-1E+10	1	-1E+10	1	-1E+10	1	-1E+10	1	-1E+10	1
4902642	25	C	02/25/2025	11:49	-131.874	46.207	0	950.00	0	3.4870	0	34.3540	0	27.330	0	940.032	0	5.6	4	1.7	4	-1E+10	1	-1E+10	1	-1E+10	1	-1E+10	1	-1E+10	1	-1E+10	1
4902642	25	C	02/25/2025	11:49	-131.874	46.207	0	970.20	0	3.4630	0	34.3640	0	27.341	0	959.974	0	5.7	4	1.8	4	-1E+10	1	-1E+10	1	-1E+10	1	-1E+10	1	-1E+10	1	-1E+10	1
4902642	25	C	02/25/2025	11:49	-131.874	46.207	0	989.40	0	3.4480	0	34.3750	0	27.351	0	978.927	0	5.9	4	1.8	4	-1E+10	1	-1E+10	1	-1E+10	1	-1E+10	1	-1E+10	1	-1E+10	1
4902642	25	C	02/25/2025	11:49	-131.874	46.207	0	1009.50	0	3.4240	0	34.3830	0	27.360	0	998.766	0	6.2	4	1.9	4	-1E+10	1	-1E+10	1	-1E+10	1	-1E+10	1	-1E+10	1	-1E+10	1
4902642	25	C	02/25/2025	11:49	-131.874	46.207	0	1029.70	0	3.4200	0	34.3970	0	27.371	0	1018.702	0	6.7	4	2.1	4	-1E+10	1	-1E+10	1	-1E+10	1	-1E+10	1	-1E+10	1	-1E+10	1
4902642	25	C	02/25/2025	11:49	-131.874	46.207	0	1050.00	0	3.4110	0	34.4050	0	27.379	0	1038.735	0	7.0	4	2.2	4	-1E+10	1	-1E+10	1	-1E+10	1	-1E+10	1	-1E+10	1	-1E+10	1
4902642	25	C	02/25/2025	11:49	-131.874	46.207	0	1070.00	0	3.3830	0	34.4120	0	27.387	0	1058.470	0	7.5	4	2.3	4	-1E+10	1	-1E+10	1	-1E+10	1	-1E+10	1	-1E+10	1	-1E+10	1
4902642	25	C	02/25/2025	11:49	-131.874	46.207	0	1089.90	0	3.3300	0	34.4210	0	27.400	0	1078.105	0	8.0	4	2.5	4	-1E+10	1	-1E+10	1	-1E+10	1	-1E+10	1	-1E+10	1	-1E+10	1
4902642	25	C	02/25/2025	11:49	-131.874	46.207	0	1109.90	0	3.2780	0	34.4270	0	27.409	0	1097.836	0	8.5	4	2.6	4	-1E+10	1	-1E+10	1	-1E+10	1	-1E+10	1	-1E+10	1	-1E+10	1
4902642	25	C	02/25/2025	11:49	-131.874	46.207	0	1130.70	0	3.2270	0	34.4330	0	27.419	0	1118.355	0	8.9	4	2.8	4	-1E+10	1	-1E+10	1	-1E+10	1	-1E+10	1	-1E+10	1	-1E+10	1
4902642	25	C	02/25/2025	11:49	-131.874	46.207	0	1149.90	0	3.1830	0	34.4370	0	27.426	0	1137.293	0	9.2	4	2.9	4	-1E+10	1	-1E+10	1	-1E+10	1	-1E+10	1	-1E+10	1	-1E+10	1
4902642	25	C	02/25/2025	11:49	-131.874	46.207	0	1169.70	0	3.1370	0	34.4420	0	27.435	0	1156.821	0	9.7	4	3.0	4	-1E+10	1	-1E+10	1	-1E+10	1	-1E+10	1	-1E+10	1	-1E+10	1
4902642	25	C	02/25/2025	11:49	-131.874	46.207	0	1189.60	0	3.0960	0	34.4470	0	27.443	0	1176.447	0	10.1	4	3.1	4	-1E+10	1	-1E+10	1	-1E+10	1	-1E+10	1	-1E+10	1	-1E+10	1
4902642	25	C	02/25/2025	11:49	-131.874	46.207	0	1209.60	0	3.0560	0	34.4520	0	27.450	0	1196.169	0	10.7	4	3.3	4	-1E+10	1	-1E+10	1	-1E+10	1	-1E+10	1	-1E+10	1	-1E+10	1
4902642	25	C	02/25/2025	11:49	-131.874	46.207	0	1229.70	0	3.0130	0	34.4560	0	27.457	0	1215.987	0	11.2	4	3.5	4	-1E+10	1	-1E+10	1	-1E+10	1	-1E+10	1	-1E+10	1	-1E+10	1
4902642	25	C	02/25/2025	11:49	-131.874	46.207	0	1249.50	0	2.9820	0	34.4600	0	27.464	0	1235.509	0	11.8	4	3.6	4	-1E+10	1	-1E+10	1	-1E+10	1	-1E+10	1	-1E+10	1	-1E+10	1
4902642	25	C	02/25/2025	11:49	-131.874	46.207	0	1269.50	0	2.9250	0	34.4670	0	27.474	0	1255.225	0	12.7	4	3.9	4	-1E+10	1	-1E+10	1	-1E+10	1	-1E+10	1	-1E+10	1	-1E+10	1
4902642	25	C	02/25/2025	11:49	-131.874	46.207	0	1289.50	0	2.8860	0	34.4720	0	27.482	0	1274.940	0	13.4	4	4.1	4	-1E+10	1	-1E+10	1	-1E+10	1	-1E+10	1	-1E+10	1	-1E+10	1
4902642	25	C	02/25/2025	11:49	-131.874	46.207	0	1309.40	0	2.8460	0	34.4770	0	27.490	0	1294.554	0	14.1	4	4.3	4	-1E+10	1	-1E+10	1	-1E+10	1	-1E+10	1	-1E+10	1	-1E+10	1
4902642	25	C	02/25/2025	11:49	-131.874	46.207	0	1329.70	0	2.8080	0	34.4800	0	27.495	0	1314.560	0	14.8	4	4.5	4	-1E+10	1	-1E+10	1	-1E+10	1	-1E+10	1	-1E+10	1	-1E+10	1
4902642	25	C	02/25/2025	11:49	-131.874	46.207	0	1349.90	0	2.7830	0	34.4840	0	27.501	0	1334.467	0	15.3	4	4.7	4	-1E+10	1	-1E+10	1	-1E+10	1	-1E+10	1	-1E+10	1	-1E+10	1
4902642	25	C	02/25/2025	11:49	-131.874	46.207	0	1370.90	0	2.7590	0	34.4870	0	27.506	0	1355.159	0	16.0	4	4.9	4	-1E+10	1	-1E+10	1	-1E+10	1	-1E+10	1	-1E+10	1	-1E+10	1
4902642	25	C	02/25/2025	11:49	-131.874	46.207	0	1389.90	0	2.7220	0	34.4910	0	27.512	0	1373.879	0	16.8	4	5.2	4	-1E+10	1	-1E+10	1	-1E+10	1	-1E+10	1	-1E+10	1	-1E+10	1
4902642	25	C	02/25/2025	11:49	-131.874	46.207	0	1409.90	0	2.6890	0	34.4960	0	27.519	0	1393.582	0	17.7	4	5.4	4	-1E+10	1	-1E+10	1	-1E+10	1	-1E+10	1	-1E+10	1	-1E+10	1
4902642	25	C	02/25/2025	11:49	-131.874	46.207	0	1429.70	0	2.6600	0	34.5000	0	27.525	0	1413.087	0	18.5	4	5.7	4	-1E+10	1	-1E+10	1	-1E+10	1	-1E+10	1	-1E+10	1	-1E+10	1
4902642	25	C	02/25/2025	11:49	-131.874	46.207	0	1450.00	0	2.6230	0	34.5040	0	27.531	0	1433.082	0	19.6	4	6.0	4	-1E+10	1	-1E+10	1	-1E+10	1	-1E+10	1	-1E+10	1	-1E+10	1
4902642	25	C	02/25/2025	11:49	-131.874	46.207	0	1470.20	0	2.5870	0	34.5090	0	27.538	0	1452.977	0	20.7	4	6.3	4	-1E+10	1	-1E+10	1	-1E+10	1	-1E+10	1	-1E+10	1	-1E+10	1
4902642	25	C	02/25/2025	11:49	-131.874	46.207	0	1490.40	0	2.5500	0	34.5130	0	27.545	0	1472.870	0	21.8	4	6.7	4	-1E+10	1	-1E+10	1	-1E+10	1	-1E+10	1	-1E+10	1	-1E+10	1
4902642	25	C	02/25/2025	11:49	-131.874	46.207	0	1509.90	0	2.5210	0	34.5170	0	27.551	0	1492.072	0	22.7	4	6.9	4	-1E+10	1	-1E+10	1	-1E+10	1	-1E+10	1	-1E+10	1	-1E+10	1
4902642	25	C	02/25/2025	11:49	-131.874	46.207	0	1530.00	0	2.4930	0	34.5200	0	27.556	0	1511.863	0	23.7	4	7.2	4	-1E+10	1	-1E+10	1	-1E+10	1	-1E+10	1	-1E+10	1	-1E+10	1
4902642	25	C	02/25/2025	11:49	-131.874	46.207	0	1550.00	0	2.4660	0	34.5230	0	27.560	0	1531.553	0	24.5	4	7.5	4	-1E+10	1	-1E+10	1	-1E+10	1	-1E+10	1	-1E+10	1	-1E+10	1
4902642	25	C	02/25/2025	11:49	-131.874	46.207	0	1569.80	0	2.4380	0	34.5260	0	27.565	0	1551.045	0	25.5	4	7.8	4	-1E+10	1	-1E+10	1	-1E+10	1	-1E+10	1	-1E+10	1	-1E+10	1
4902642	25	C	02/25/2025	11:49	-131.874	46.207	0	1589.60	0	2.4080	0	34.5300	0	27.571	0	1570.535	0	26.5	4	8.1	4	-1E+10	1	-1E+10	1	-1E+10	1	-1E+10	1	-1E+10	1	-1E+10	1
4902642	25	C	02/25/2025	11:49	-131.874	46.207	0	1610.00	0	2.3820	0	34.5330	0	27.576	0	1590.614	0	27.6	4	8.4	4	-1E+10	1	-1E+10	1	-1E+10	1	-1E+10	1	-1E+10	1	-1E+10	1
4902642	25	C	02/25/2025	11:49	-131.874	46.207	0	1629.90	0	2.3450	0	34.5370	0	27.582	0	1610.199	0	28.8	4	8.8	4	-1E+10	1	-1E+10	1	-1E+10	1	-1E+10	1	-1E+10	1	-1E+10	1
4902642	25	C	02/25/2025	11:49	-131.874	46.207	0	1649.90	0	2.3150	0	34.5400	0	27.587	0	1629.880	0	30.0	4	9.1	4	-1E+10	1	-1E+10	1	-1E+10	1	-1E+10	1	-1E+10	1	-1E+10	1
4902642	25	C	02/25/2025	11:49	-131.874	46.207	0	1669.90	0	2.2820	0	34.5440	0	27.593	0	1649.560	0	31.1	4	9.4	4	-1E+10	1	-1E+10	1	-1E+10	1	-1E+10	1	-1E+10	1	-1E+10	1
4902642	25	C	02/25/2025	11:49	-131.874	46.207	0	1689.80	0	2.2490	0	34.5470	0	27.598	0	1669.139	0	32.4	4	9.8	4	-1E+10	1	-1E+10	1	-1E+10	1	-1E+10	1	-1E+10	1	-1E+10	1
4902642	25	C	02/25/2025	11:49	-131.874	46.207	0	1709.90	0	2.2120	0	34.5520	0	27.605	0	1688.913	0	33.8	4	10.2	4	-1E+10	1	-1E+10	1	-1E+10	1	-1E+10	1	-1E+10	1	-1E+10	1
4902642	25	C	02/25/2025	11:49	-131.874	46.207	0	1730.40	0	2.1950	0	34.5540	0	27.608	0	1709.079	0	34.5	4	10.5	4	-1E+10	1	-1E+10	1	-1E+10	1	-1E+10	1	-1E+10	1	-1E+10	1
4902642	25	C	02/25/2025	11:49	-131.874	46.207	0	1750.20	0	2.1660	0	34.5570	0	27.613	0	1728.554	0	35.7	4	10.8	4	-1E+10	1	-1E+10	1	-1E+10	1	-1E+10	1	-1E+10	1	-1E+10	1
4902642	25	C	02/25/2025	11:49	-131.874	46.207	0	1770.10	0	2.1440	0	34.5600	0	27.617	0	1748.126	0	36.7	4	11.1	4	-1E+10	1	-1E+10	1	-1E+10	1	-1E+10	1	-1E+10	1	-1E+10	1
4902642	25	C	02/25/2025	11:49	-131.874	46.207	0	1790.20	0	2.1250	0	34.5620	0	27.620	0	1767.893	0	37.7	4	11.4	4	-1E+10	1	-1E+10	1	-1E+10	1	-1E+10	1	-1E+10	1	-1E+10	1
4902642	25	C	02/25/2025	11:49	-131.874	46.207	0	1810.20	0	2.0980	0	34.5650	0	27.625	0	1787.560	0	38.8	4	11.7	4	-1E+10	1	-1E+10	1	-1E+10	1	-1E+10	1	-1E+10	1	-1E+10	1
4902642	25	C	02/25/2025	11:49	-131.874	46.207	0	1830.00	0	2.0850	0	34.5680	0	27.629	0	1807.028	0	39.6	4	12.0	4	-1E+10	1	-1E+10	1	-1E+10	1	-1E+10	1	-1E+10	1	-1E+10	1
4902642	25	C	02/25/2025	11:49	-131.874	46.207	0	1850.00	0	2.0740	0	34.5690	0	27.630	0	1826.691	0	40.6	4	12.3	4	-1E+10	1	-1E+10	1	-1E+10	1	-1E+10	1	-1E+10	1	-1E+10	1
4902642	25	C	02/25/2025	11:49	-131.874	46.207	0	1870.30	0	2.0560	0	34.5720	0	27.634	0	1846.647	0	41.9	4	12.6	4	-1E+10	1	-1E+10	1	-1E+10	1	-1E+10	1	-1E+10	1	-1E+10	1
4902642	25	C	02/25/2025	11:49	-131.874	46.207	0	1889.80	0	2.0400	0	34.5760	0	27.639	0	1865.815	0	42.9	4	13.0	4	-1E+10	1	-1E+10	1	-1E+10	1	-1E+10	1	-1E+10	1	-1E+10	1
4902642	25	C	02/25/2025	11:49	-131.874	46.207	0	1909.80	0	2.0240	0	34.5780	0	27.642	0	1885.473	0	44.0	4	13.3	4	-1E+10	1	-1E+10	1	-1E+10	1	-1E+10	1	-1E+10	1	-1E+10	1
4902642	25	C	02/25/2025	11:49	-131.874	46.207	0	1929.90	0	2.0130	0	34.5810	0	27.645	0	1905.227	0	45.2	4	13.6	4	-1E+10	1	-1E+10	1	-1E+10	1	-1E+10	1	-1E+10	1	-1E+10	1
4902642	25	C	02/25/2025	11:49	-131.874	46.207	0	1950.50	0	2.0020	0	34.5830	0	27.648	0	1925.470	0	46.2	4	13.9	4	-1E+10	1	-1E+10	1	-1E+10	1	-1E+10	1	-1E+10	1	-1E+10	1
4902642	25	C	02/25/2025	11:49	-131.874	46.207	0	1970.10	0	1.9890	0	34.5850	0	27.651	0	1944.729	0	47.1	4	14.2	4	-1E+10	1	-1E+10	1	-1E+10	1	-1E+10	1	-1E+10	1	-1E+10	1
4902642	25	C	02/25/2025	11:49	-131.874	46.207	0	1989.90	0	1.9760	0	34.5870	0	27.653	0	1964.183	0	47.8	4	14.4	4	-1E+10	1	-1E+10	1	-1E+10	1	-1E+10	1	-1E+10	1	-1E+10	1
4902642	25	C	02/25/2025	11:49	-131.874	46.207	0	2010.10	0	1.9680	0	34.5890	4	27.656	0	1984.028	0	48.8	4	14.7	4	-1E+10	1	-1E+10	1	-1E+10	1	-1E+10	1	-1E+10	1	-1E+10	1
4902642	25	C	02/25/2025	11:49	-131.874	46.207	0	2029.80	0	1.9530	0	34.5910	4	27.658	0	2003.380	0	49.7	4	15.0	4	-1E+10	1	-1E+10	1	-1E+10	1	-1E+10	1	-1E+10	1	-1E+10	1
4902642	25	C	02/25/2025	11:49	-131.874	46.207	0	2049.80	0	1.9380	0	34.5930	4	27.661	0	2023.025	0	50.6	4	15.2	4	-1E+10	1	-1E+10	1	-1E+10	1	-1E+10	1	-1E+10	1	-1E+10	1
4902642	25	C	02/25/2025	11:49	-131.874	46.207	0	2069.70	0	1.9280	0	34.5950	4	27.664	0	2042.570	0	51.3	4	15.4	4	-1E+10	1	-1E+10	1	-1E+10	1	-1E+10	1	-1E+10	1	-1E+10	1
4902642	25	C	02/25/2025	11:49	-131.874	46.207	0	2089.90	0	1.9210	0	34.5970	4	27.666	0	2062.408	0	52.1	4	15.7	4	-1E+10	1	-1E+10	1	-1E+10	1	-1E+10	1	-1E+10	1	-1E+10	1
4902642	25	C	02/25/2025	11:49	-131.874	46.207	0	2110.10	0	1.9130	0	34.5980	4	27.668	0	2082.244	0	52.8	4	15.9	4	-1E+10	1	-1E+10	1	-1E+10	1	-1E+10	1	-1E+10	1	-1E+10	1
4902642	25	C	02/25/2025	11:49	-131.874	46.207	0	2129.80	0	1.9060	0	34.5990	4	27.669	0	2101.587	0	53.4	4	16.1	4	-1E+10	1	-1E+10	1	-1E+10	1	-1E+10	1	-1E+10	1	-1E+10	1
4902642	25	C	02/25/2025	11:49	-131.874	46.207	0	2149.80	0	1.8940	0	34.6010	4	27.672	0	2121.222	0	54.0	4	16.2	4	-1E+10	1	-1E+10	1	-1E+10	1	-1E+10	1	-1E+10	1	-1E+10	1
4902642	25	C	02/25/2025	11:49	-131.874	46.207	0	2170.00	0	1.8820	0	34.6020	4	27.673	0	2141.053	0	54.8	4	16.5	4	-1E+10	1	-1E+10	1	-1E+10	1	-1E+10	1	-1E+10	1	-1E+10	1
4902642	25	C	02/25/2025	11:49	-131.874	46.207	0	2190.00	0	1.8770	0	34.6040	4	27.676	0	2160.685	0	55.4	4	16.7	4	-1E+10	1	-1E+10	1	-1E+10	1	-1E+10	1	-1E+10	1	-1E+10	1
4902642	25	C	02/25/2025	11:49	-131.874	46.207	0	2209.50	0	1.8710	0	34.6050	4	27.677	0	2179.825	0	56.2	4	16.9	4	-1E+10	1	-1E+10	1	-1E+10	1	-1E+10	1	-1E+10	1	-1E+10	1
4902642	25	C	02/25/2025	11:49	-131.874	46.207	0	2229.60	0	1.8630	0	34.6070	4	27.679	0	2199.551	0	56.9	4	17.1	4	-1E+10	1	-1E+10	1	-1E+10	1	-1E+10	1	-1E+10	1	-1E+10	1
4902642	25	C	02/25/2025	11:49	-131.874	46.207	0	2249.80	0	1.8580	0	34.6080	4	27.681	0	2219.375	0	57.6	4	17.3	4	-1E+10	1	-1E+10	1	-1E+10	1	-1E+10	1	-1E+10	1	-1E+10	1
4902642	25	C	02/25/2025	11:49	-131.874	46.207	0	2270.20	0	1.8520	0	34.6100	4	27.683	0	2239.392	0	58.4	4	17.6	4	-1E+10	1	-1E+10	1	-1E+10	1	-1E+10	1	-1E+10	1	-1E+10	1
4902642	25	C	02/25/2025	11:49	-131.874	46.207	0	2290.30	0	1.8430	0	34.6110	4	27.684	0	2259.113	0	59.2	4	17.8	4	-1E+10	1	-1E+10	1	-1E+10	1	-1E+10	1	-1E+10	1	-1E+10	1
4902642	25	C	02/25/2025	11:49	-131.874	46.207	0	2309.90	0	1.8340	0	34.6130	4	27.687	0	2278.342	0	60.2	4	18.1	4	-1E+10	1	-1E+10	1	-1E+10	1	-1E+10	1	-1E+10	1	-1E+10	1
4902642	25	C	02/25/2025	11:49	-131.874	46.207	0	2329.80	0	1.8290	0	34.6140	4	27.688	0	2297.864	0	61.0	4	18.3	4	-1E+10	1	-1E+10	1	-1E+10	1	-1E+10	1	-1E+10	1	-1E+10	1
4902642	25	C	02/25/2025	11:49	-131.874	46.207	0	2350.00	0	1.8260	0	34.6160	4	27.690	0	2317.678	0	61.8	4	18.6	4	-1E+10	1	-1E+10	1	-1E+10	1	-1E+10	1	-1E+10	1	-1E+10	1
4902642	25	C	02/25/2025	11:49	-131.874	46.207	0	2370.10	0	1.8170	0	34.6160	4	27.691	0	2337.392	0	62.6	4	18.8	4	-1E+10	1	-1E+10	1	-1E+10	1	-1E+10	1	-1E+10	1	-1E+10	1
4902642	25	C	02/25/2025	11:49	-131.874	46.207	0	2389.80	0	1.8060	0	34.6180	4	27.693	0	2356.712	0	63.7	4	19.1	4	-1E+10	1	-1E+10	1	-1E+10	1	-1E+10	1	-1E+10	1	-1E+10	1
4902642	25	C	02/25/2025	11:49	-131.874	46.207	0	2410.40	0	1.7980	0	34.6200	4	27.696	0	2376.912	0	64.5	4	19.4	4	-1E+10	1	-1E+10	1	-1E+10	1	-1E+10	1	-1E+10	1	-1E+10	1
4902642	25	C	02/25/2025	11:49	-131.874	46.207	0	2429.90	0	1.7900	0	34.6210	4	27.697	0	2396.033	0	65.4	4	19.6	4	-1E+10	1	-1E+10	1	-1E+10	1	-1E+10	1	-1E+10	1	-1E+10	1
4902642	25	C	02/25/2025	11:49	-131.874	46.207	0	2449.70	0	1.7830	0	34.6220	4	27.699	0	2415.445	0	66.0	4	19.8	4	-1E+10	1	-1E+10	1	-1E+10	1	-1E+10	1	-1E+10	1	-1E+10	1
4902642	25	C	02/25/2025	11:49	-131.874	46.207	0	2469.70	0	1.7770	0	34.6230	4	27.700	0	2435.053	0	66.7	4	20.0	4	-1E+10	1	-1E+10	1	-1E+10	1	-1E+10	1	-1E+10	1	-1E+10	1
4902642	25	C	02/25/2025	11:49	-131.874	46.207	0	2489.90	0	1.7690	0	34.6240	4	27.702	0	2454.854	0	67.4	4	20.2	4	-1E+10	1	-1E+10	1	-1E+10	1	-1E+10	1	-1E+10	1	-1E+10	1
4902642	25	C	02/25/2025	11:49	-131.874	46.207	0	2509.90	0	1.7640	0	34.6250	4	27.703	0	2474.457	0	68.1	4	20.4	4	-1E+10	1	-1E+10	1	-1E+10	1	-1E+10	1	-1E+10	1	-1E+10	1
4902642	25	C	02/25/2025	11:49	-131.874	46.207	0	2529.90	0	1.7560	0	34.6260	4	27.704	0	2494.059	0	69.0	4	20.7	4	-1E+10	1	-1E+10	1	-1E+10	1	-1E+10	1	-1E+10	1	-1E+10	1
4902642	25	C	02/25/2025	11:49	-131.874	46.207	0	2549.80	0	1.7510	0	34.6270	4	27.706	0	2513.561	0	69.7	4	20.9	4	-1E+10	1	-1E+10	1	-1E+10	1	-1E+10	1	-1E+10	1	-1E+10	1
4902642	25	C	02/25/2025	11:49	-131.874	46.207	0	2570.10	0	1.7440	0	34.6280	4	27.707	0	2533.453	0	70.6	4	21.2	4	-1E+10	1	-1E+10	1	-1E+10	1	-1E+10	1	-1E+10	1	-1E+10	1
4902642	25	C	02/25/2025	11:49	-131.874	46.207	0	2590.20	0	1.7370	0	34.6290	4	27.709	0	2553.147	0	71.5	4	21.4	4	-1E+10	1	-1E+10	1	-1E+10	1	-1E+10	1	-1E+10	1	-1E+10	1
4902642	25	C	02/25/2025	11:49	-131.874	46.207	0	2610.10	0	1.7270	0	34.6300	4	27.710	0	2572.644	0	72.5	4	21.7	4	-1E+10	1	-1E+10	1	-1E+10	1	-1E+10	1	-1E+10	1	-1E+10	1
4902642	25	C	02/25/2025	11:49	-131.874	46.207	0	2629.90	0	1.7210	0	34.6310	4	27.712	0	2592.040	0	73.1	4	21.9	4	-1E+10	1	-1E+10	1	-1E+10	1	-1E+10	1	-1E+10	1	-1E+10	1
4902642	25	C	02/25/2025	11:49	-131.874	46.207	0	2650.00	0	1.7150	0	34.6320	4	27.713	0	2611.729	0	73.8	4	22.1	4	-1E+10	1	-1E+10	1	-1E+10	1	-1E+10	1	-1E+10	1	-1E+10	1
4902642	25	C	02/25/2025	11:49	-131.874	46.207	0	2669.70	0	1.7070	0	34.6330	4	27.714	0	2631.025	0	74.6	4	22.3	4	-1E+10	1	-1E+10	1	-1E+10	1	-1E+10	1	-1E+10	1	-1E+10	1
4902642	25	C	02/25/2025	11:49	-131.874	46.207	0	2689.60	0	1.7010	0	34.6340	4	27.716	0	2650.514	0	75.3	4	22.5	4	-1E+10	1	-1E+10	1	-1E+10	1	-1E+10	1	-1E+10	1	-1E+10	1
4902642	25	C	02/25/2025	11:49	-131.874	46.207	0	2710.00	0	1.6950	0	34.6350	4	27.717	0	2670.491	0	76.0	4	22.7	4	-1E+10	1	-1E+10	1	-1E+10	1	-1E+10	1	-1E+10	1	-1E+10	1
4902642	25	C	02/25/2025	11:49	-131.874	46.207	0	2729.70	0	1.6920	0	34.6350	4	27.718	0	2689.782	0	76.5	4	22.9	4	-1E+10	1	-1E+10	1	-1E+10	1	-1E+10	1	-1E+10	1	-1E+10	1
4902642	25	C	02/25/2025	11:49	-131.874	46.207	0	2749.90	0	1.6880	0	34.6360	4	27.719	0	2709.559	0	77.1	4	23.1	4	-1E+10	1	-1E+10	1	-1E+10	1	-1E+10	1	-1E+10	1	-1E+10	1
4902642	25	C	02/25/2025	11:49	-131.874	46.207	0	2769.70	0	1.6850	0	34.6370	4	27.720	0	2728.944	0	77.6	4	23.2	4	-1E+10	1	-1E+10	1	-1E+10	1	-1E+10	1	-1E+10	1	-1E+10	1
4902642	25	C	02/25/2025	11:49	-131.874	46.207	0	2790.30	0	1.6810	0	34.6380	4	27.721	0	2749.110	0	78.2	4	23.4	4	-1E+10	1	-1E+10	1	-1E+10	1	-1E+10	1	-1E+10	1	-1E+10	1
4902642	25	C	02/25/2025	11:49	-131.874	46.207	0	2809.80	0	1.6780	0	34.6380	4	27.721	0	2768.197	0	78.7	4	23.6	4	-1E+10	1	-1E+10	1	-1E+10	1	-1E+10	1	-1E+10	1	-1E+10	1
4902642	25	C	02/25/2025	11:49	-131.874	46.207	0	2829.70	0	1.6740	0	34.6390	4	27.723	0	2787.674	0	79.4	4	23.8	4	-1E+10	1	-1E+10	1	-1E+10	1	-1E+10	1	-1E+10	1	-1E+10	1
4902642	25	C	02/25/2025	11:49	-131.874	46.207	0	2850.00	0	1.6680	0	34.6400	4	27.724	0	2807.541	0	80.1	4	24.0	4	-1E+10	1	-1E+10	1	-1E+10	1	-1E+10	1	-1E+10	1	-1E+10	1
4902642	25	C	02/25/2025	11:49	-131.874	46.207	0	2870.10	0	1.6640	0	34.6410	4	27.725	0	2827.210	0	80.8	4	24.2	4	-1E+10	1	-1E+10	1	-1E+10	1	-1E+10	1	-1E+10	1	-1E+10	1
4902642	25	C	02/25/2025	11:49	-131.874	46.207	0	2889.80	0	1.6610	0	34.6420	4	27.726	0	2846.486	0	81.2	4	24.3	4	-1E+10	1	-1E+10	1	-1E+10	1	-1E+10	1	-1E+10	1	-1E+10	1
4902642	25	C	02/25/2025	11:49	-131.874	46.207	0	2909.70	0	1.6580	0	34.6420	4	27.727	0	2865.956	0	81.8	4	24.5	4	-1E+10	1	-1E+10	1	-1E+10	1	-1E+10	1	-1E+10	1	-1E+10	1
4902642	25	C	02/25/2025	11:49	-131.874	46.207	0	2930.00	0	1.6530	0	34.6430	4	27.728	0	2885.816	0	82.5	4	24.7	4	-1E+10	1	-1E+10	1	-1E+10	1	-1E+10	1	-1E+10	1	-1E+10	1
4902642	25	C	02/25/2025	11:49	-131.874	46.207	0	2950.00	0	1.6470	0	34.6440	4	27.729	0	2905.380	0	83.4	4	24.9	4	-1E+10	1	-1E+10	1	-1E+10	1	-1E+10	1	-1E+10	1	-1E+10	1
4902642	25	C	02/25/2025	11:49	-131.874	46.207	0	2970.20	0	1.6420	0	34.6450	4	27.731	0	2925.138	0	84.1	4	25.1	4	-1E+10	1	-1E+10	1	-1E+10	1	-1E+10	1	-1E+10	1	-1E+10	1
4902642	25	C	02/25/2025	11:49	-131.874	46.207	0	2989.70	0	1.6390	0	34.6460	4	27.732	0	2944.210	0	84.7	4	25.3	4	-1E+10	1	-1E+10	1	-1E+10	1	-1E+10	1	-1E+10	1	-1E+10	1
4902642	25	C	02/25/2025	11:49	-131.874	46.207	0	3009.90	0	1.6340	0	34.6470	4	27.733	0	2963.965	0	85.5	4	25.6	4	-1E+10	1	-1E+10	1	-1E+10	1	-1E+10	1	-1E+10	1	-1E+10	1
4902642	25	C	02/25/2025	11:49	-131.874	46.207	0	3030.20	0	1.6300	0	34.6480	4	27.734	0	2983.815	0	86.3	4	25.8	4	-1E+10	1	-1E+10	1	-1E+10	1	-1E+10	1	-1E+10	1	-1E+10	1
4902642	25	C	02/25/2025	11:49	-131.874	46.207	0	3050.10	0	1.6240	0	34.6480	4	27.735	0	3003.273	0	87.2	4	26.0	4	-1E+10	1	-1E+10	1	-1E+10	1	-1E+10	1	-1E+10	1	-1E+10	1
4902642	25	C	02/25/2025	11:49	-131.874	46.207	0	3070.20	0	1.6200	0	34.6490	4	27.736	0	3022.925	0	87.7	4	26.2	4	-1E+10	1	-1E+10	1	-1E+10	1	-1E+10	1	-1E+10	1	-1E+10	1
4902642	25	C	02/25/2025	11:49	-131.874	46.207	0	3090.30	0	1.6180	0	34.6500	4	27.737	0	3042.574	0	88.2	4	26.4	4	-1E+10	1	-1E+10	1	-1E+10	1	-1E+10	1	-1E+10	1	-1E+10	1
4902642	25	C	02/25/2025	11:49	-131.874	46.207	0	3110.30	0	1.6140	0	34.6500	4	27.738	0	3062.125	0	89.1	4	26.6	4	-1E+10	1	-1E+10	1	-1E+10	1	-1E+10	1	-1E+10	1	-1E+10	1
4902642	25	C	02/25/2025	11:49	-131.874	46.207	0	3130.40	0	1.6050	0	34.6520	4	27.740	0	3081.771	0	90.3	4	27.0	4	-1E+10	1	-1E+10	1	-1E+10	1	-1E+10	1	-1E+10	1	-1E+10	1
4902642	25	C	02/25/2025	11:49	-131.874	46.207	0	3149.90	0	1.5990	0	34.6530	4	27.741	0	3100.829	0	91.1	4	27.2	4	-1E+10	1	-1E+10	1	-1E+10	1	-1E+10	1	-1E+10	1	-1E+10	1
4902642	25	C	02/25/2025	11:49	-131.874	46.207	0	3170.00	0	1.5940	0	34.6540	4	27.743	0	3120.471	0	91.9	4	27.4	4	-1E+10	1	-1E+10	1	-1E+10	1	-1E+10	1	-1E+10	1	-1E+10	1
4902642	25	C	02/25/2025	11:49	-131.874	46.207	0	3189.90	0	1.5880	0	34.6550	4	27.744	0	3139.917	0	92.9	4	27.7	4	-1E+10	1	-1E+10	1	-1E+10	1	-1E+10	1	-1E+10	1	-1E+10	1
4902642	25	C	02/25/2025	11:49	-131.874	46.207	0	3210.00	0	1.5830	0	34.6560	4	27.745	0	3159.556	0	93.5	4	27.9	4	-1E+10	1	-1E+10	1	-1E+10	1	-1E+10	1	-1E+10	1	-1E+10	1
4902642	25	C	02/25/2025	11:49	-131.874	46.207	0	3230.50	0	1.5810	0	34.6570	4	27.746	0	3179.584	0	94.0	4	28.1	4	-1E+10	1	-1E+10	1	-1E+10	1	-1E+10	1	-1E+10	1	-1E+10	1
4902642	25	C	02/25/2025	11:49	-131.874	46.207	0	3249.90	0	1.5800	0	34.6570	4	27.747	0	3198.536	0	94.2	4	28.1	4	-1E+10	1	-1E+10	1	-1E+10	1	-1E+10	1	-1E+10	1	-1E+10	1
4902642	25	C	02/25/2025	11:49	-131.874	46.207	0	3270.20	0	1.5800	0	34.6580	4	27.748	0	3218.365	0	94.5	4	28.2	4	-1E+10	1	-1E+10	1	-1E+10	1	-1E+10	1	-1E+10	1	-1E+10	1
4902642	25	C	02/25/2025	11:49	-131.874	46.207	0	3290.20	0	1.5790	0	34.6580	4	27.748	0	3237.900	0	94.8	4	28.3	4	-1E+10	1	-1E+10	1	-1E+10	1	-1E+10	1	-1E+10	1	-1E+10	1
4902642	25	C	02/25/2025	11:49	-131.874	46.207	0	3309.90	0	1.5780	0	34.6580	4	27.748	0	3257.139	0	95.0	4	28.4	4	-1E+10	1	-1E+10	1	-1E+10	1	-1E+10	1	-1E+10	1	-1E+10	1
4902642	25	C	02/25/2025	11:49	-131.874	46.207	0	3329.60	0	1.5770	0	34.6590	4	27.749	0	3276.377	0	95.4	4	28.5	4	-1E+10	1	-1E+10	1	-1E+10	1	-1E+10	1	-1E+10	1	-1E+10	1
4902642	25	C	02/25/2025	11:49	-131.874	46.207	0	3349.00	0	1.5770	0	34.6590	4	27.749	0	3295.321	0	95.4	4	28.5	4	-1E+10	1	-1E+10	1	-1E+10	1	-1E+10	1	-1E+10	1	-1E+10	1
4902642	25	C	02/25/2025	11:49	-131.874	46.207	0																										
4902642	26	C	03/07/2025	06:04	-131.806	46.275	0	0.50	0	9.4440	0	32.4240	0	25.032	0	0.496	0	254.8	4	90.0	4	-1E+10	1	-1E+10	1	-1E+10	1	-1E+10	1	-1E+10	1	-1E+10	1
4902642	26	C	03/07/2025	06:04	-131.806	46.275	0	0.60	0	9.4430	0	32.4248	0	25.033	0	0.595	0	254.8	4	90.0	4	-1E+10	1	-1E+10	1	-1E+10	1	-1E+10	1	-1E+10	1	-1E+10	1
4902642	26	C	03/07/2025	06:04	-131.806	46.275	0	0.70	0	9.4430	0	32.4247	0	25.033	0	0.694	0	-1e10	1	-1e10	1	-1E+10	1	-1E+10	1	-1E+10	1	-1E+10	1	-1E+10	1	-1E+10	1
4902642	26	C	03/07/2025	06:04	-131.806	46.275	0	0.80	0	9.4450	0	32.4250	0	25.033	0	0.793	0	254.5	4	89.9	4	-1E+10	1	-1E+10	1	-1E+10	1	-1E+10	1	-1E+10	1	-1E+10	1
4902642	26	C	03/07/2025	06:04	-131.806	46.275	0	1.50	0	9.4470	0	32.4230	0	25.031	0	1.488	0	254.5	4	89.9	4	-1E+10	1	-1E+10	1	-1E+10	1	-1E+10	1	-1E+10	1	-1E+10	1
4902642	26	C	03/07/2025	06:04	-131.806	46.275	0	2.70	0	9.4460	0	32.4230	0	25.031	0	2.678	0	254.4	4	89.9	4	-1E+10	1	-1E+10	1	-1E+10	1	-1E+10	1	-1E+10	1	-1E+10	1
4902642	26	C	03/07/2025	06:04	-131.806	46.275	0	3.70	0	9.4460	0	32.4240	0	25.032	0	3.670	0	254.5	4	89.9	4	-1E+10	1	-1E+10	1	-1E+10	1	-1E+10	1	-1E+10	1	-1E+10	1
4902642	26	C	03/07/2025	06:04	-131.806	46.275	0	4.70	0	9.4460	0	32.4250	0	25.032	0	4.661	0	254.4	4	89.8	4	-1E+10	1	-1E+10	1	-1E+10	1	-1E+10	1	-1E+10	1	-1E+10	1
4902642	26	C	03/07/2025	06:04	-131.806	46.275	0	5.60	0	9.4470	0	32.4240	0	25.032	0	5.554	0	254.3	4	89.8	4	-1E+10	1	-1E+10	1	-1E+10	1	-1E+10	1	-1E+10	1	-1E+10	1
4902642	26	C	03/07/2025	06:04	-131.806	46.275	0	6.60	0	9.4470	0	32.4240	0	25.032	0	6.546	0	254.4	4	89.9	4	-1E+10	1	-1E+10	1	-1E+10	1	-1E+10	1	-1E+10	1	-1E+10	1
4902642	26	C	03/07/2025	06:04	-131.806	46.275	0	7.70	0	9.4470	0	32.4240	0	25.032	0	7.636	0	254.4	4	89.8	4	-1E+10	1	-1E+10	1	-1E+10	1	-1E+10	1	-1E+10	1	-1E+10	1
4902642	26	C	03/07/2025	06:04	-131.806	46.275	0	8.40	0	9.4470	0	32.4250	0	25.032	0	8.331	0	254.3	4	89.8	4	-1E+10	1	-1E+10	1	-1E+10	1	-1E+10	1	-1E+10	1	-1E+10	1
4902642	26	C	03/07/2025	06:04	-131.806	46.275	0	9.60	0	9.4480	0	32.4240	0	25.031	0	9.521	0	254.4	4	89.8	4	-1E+10	1	-1E+10	1	-1E+10	1	-1E+10	1	-1E+10	1	-1E+10	1
4902642	26	C	03/07/2025	06:04	-131.806	46.275	0	15.00	0	9.4480	0	32.4240	0	25.032	0	14.876	0	254.2	4	89.8	4	-1E+10	1	-1E+10	1	-1E+10	1	-1E+10	1	-1E+10	1	-1E+10	1
4902642	26	C	03/07/2025	06:04	-131.806	46.275	0	25.00	0	9.4490	0	32.4240	0	25.032	0	24.793	0	254.0	4	89.7	4	-1E+10	1	-1E+10	1	-1E+10	1	-1E+10	1	-1E+10	1	-1E+10	1
4902642	26	C	03/07/2025	06:04	-131.806	46.275	0	35.10	0	9.4480	0	32.4240	0	25.032	0	34.808	0	253.2	4	89.4	4	-1E+10	1	-1E+10	1	-1E+10	1	-1E+10	1	-1E+10	1	-1E+10	1
4902642	26	C	03/07/2025	06:04	-131.806	46.275	0	44.80	0	9.4330	0	32.4230	0	25.034	0	44.426	0	252.1	4	89.0	4	-1E+10	1	-1E+10	1	-1E+10	1	-1E+10	1	-1E+10	1	-1E+10	1
4902642	26	C	03/07/2025	06:04	-131.806	46.275	0	54.50	0	9.4230	0	32.4220	0	25.035	0	54.044	0	251.6	4	88.8	4	-1E+10	1	-1E+10	1	-1E+10	1	-1E+10	1	-1E+10	1	-1E+10	1
4902642	26	C	03/07/2025	06:04	-131.806	46.275	0	64.80	0	9.4240	0	32.4210	0	25.034	0	64.256	0	250.9	4	88.6	4	-1E+10	1	-1E+10	1	-1E+10	1	-1E+10	1	-1E+10	1	-1E+10	1
4902642	26	C	03/07/2025	06:04	-131.806	46.275	0	74.90	0	9.4220	0	32.4220	0	25.035	0	74.270	0	249.4	4	88.1	4	-1E+10	1	-1E+10	1	-1E+10	1	-1E+10	1	-1E+10	1	-1E+10	1
4902642	26	C	03/07/2025	06:04	-131.806	46.275	0	85.10	0	9.4210	0	32.4230	0	25.036	0	84.382	0	244.8	4	86.4	4	-1E+10	1	-1E+10	1	-1E+10	1	-1E+10	1	-1E+10	1	-1E+10	1
4902642	26	C	03/07/2025	06:04	-131.806	46.275	0	94.90	0	9.2550	0	32.4950	0	25.119	0	94.097	0	229.6	4	80.8	4	-1E+10	1	-1E+10	1	-1E+10	1	-1E+10	1	-1E+10	1	-1E+10	1
4902642	26	C	03/07/2025	06:04	-131.806	46.275	0	105.50	0	8.4250	0	32.8940	0	25.559	0	104.605	0	213.9	4	74.1	4	-1E+10	1	-1E+10	1	-1E+10	1	-1E+10	1	-1E+10	1	-1E+10	1
4902642	26	C	03/07/2025	06:04	-131.806	46.275	0	114.90	0	8.4270	0	33.1680	0	25.774	0	113.922	0	204.1	4	70.9	4	-1E+10	1	-1E+10	1	-1E+10	1	-1E+10	1	-1E+10	1	-1E+10	1
4902642	26	C	03/07/2025	06:04	-131.806	46.275	0	124.70	0	8.3100	0	33.3650	0	25.946	0	123.636	0	197.3	4	68.4	4	-1E+10	1	-1E+10	1	-1E+10	1	-1E+10	1	-1E+10	1	-1E+10	1
4902642	26	C	03/07/2025	06:04	-131.806	46.275	0	134.90	0	8.0510	0	33.5010	0	26.091	0	133.746	0	193.3	4	66.7	4	-1E+10	1	-1E+10	1	-1E+10	1	-1E+10	1	-1E+10	1	-1E+10	1
4902642	26	C	03/07/2025	06:04	-131.806	46.275	0	145.00	0	7.8610	0	33.5800	0	26.181	0	143.756	0	190.8	4	65.6	4	-1E+10	1	-1E+10	1	-1E+10	1	-1E+10	1	-1E+10	1	-1E+10	1
4902642	26	C	03/07/2025	06:04	-131.806	46.275	0	155.00	0	7.6420	0	33.6380	0	26.259	0	153.666	0	187.1	4	64.0	4	-1E+10	1	-1E+10	1	-1E+10	1	-1E+10	1	-1E+10	1	-1E+10	1
4902642	26	C	03/07/2025	06:04	-131.806	46.275	0	164.80	0	7.4130	0	33.6890	0	26.331	0	163.378	0	183.1	4	62.4	4	-1E+10	1	-1E+10	1	-1E+10	1	-1E+10	1	-1E+10	1	-1E+10	1
4902642	26	C	03/07/2025	06:04	-131.806	46.275	0	175.00	0	7.2360	0	33.7290	0	26.388	0	173.486	0	178.8	4	60.7	4	-1E+10	1	-1E+10	1	-1E+10	1	-1E+10	1	-1E+10	1	-1E+10	1
4902642	26	C	03/07/2025	06:04	-131.806	46.275	0	185.30	0	7.0990	0	33.7520	0	26.425	0	183.692	0	173.6	4	58.8	4	-1E+10	1	-1E+10	1	-1E+10	1	-1E+10	1	-1E+10	1	-1E+10	1
4902642	26	C	03/07/2025	06:04	-131.806	46.275	0	194.90	0	6.9930	0	33.7690	0	26.453	0	193.204	0	168.3	4	56.8	4	-1E+10	1	-1E+10	1	-1E+10	1	-1E+10	1	-1E+10	1	-1E+10	1
4902642	26	C	03/07/2025	06:04	-131.806	46.275	0	209.60	0	6.7790	0	33.7920	0	26.500	0	207.769	0	158.5	4	53.3	4	-1E+10	1	-1E+10	1	-1E+10	1	-1E+10	1	-1E+10	1	-1E+10	1
4902642	26	C	03/07/2025	06:04	-131.806	46.275	0	229.80	0	6.5420	0	33.8080	0	26.544	0	227.781	0	144.4	4	48.3	4	-1E+10	1	-1E+10	1	-1E+10	1	-1E+10	1	-1E+10	1	-1E+10	1
4902642	26	C	03/07/2025	06:04	-131.806	46.275	0	249.00	0	6.3060	0	33.8170	0	26.582	0	246.801	0	127.4	4	42.3	4	-1E+10	1	-1E+10	1	-1E+10	1	-1E+10	1	-1E+10	1	-1E+10	1
4902642	26	C	03/07/2025	06:04	-131.806	46.275	0	269.70	0	6.0580	0	33.8400	0	26.632	0	267.305	0	105.4	4	34.9	4	-1E+10	1	-1E+10	1	-1E+10	1	-1E+10	1	-1E+10	1	-1E+10	1
4902642	26	C	03/07/2025	06:04	-131.806	46.275	0	289.30	0	5.8960	0	33.8710	0	26.677	0	286.717	0	91.3	4	30.1	4	-1E+10	1	-1E+10	1	-1E+10	1	-1E+10	1	-1E+10	1	-1E+10	1
4902642	26	C	03/07/2025	06:04	-131.806	46.275	0	309.40	0	5.5030	0	33.8550	0	26.712	0	306.623	0	86.2	4	28.2	4	-1E+10	1	-1E+10	1	-1E+10	1	-1E+10	1	-1E+10	1	-1E+10	1
4902642	26	C	03/07/2025	06:04	-131.806	46.275	0	330.20	0	5.3730	0	33.8740	0	26.743	0	327.220	0	76.1	4	24.8	4	-1E+10	1	-1E+10	1	-1E+10	1	-1E+10	1	-1E+10	1	-1E+10	1
4902642	26	C	03/07/2025	06:04	-131.806	46.275	0	349.70	0	5.3110	0	33.9050	0	26.775	0	346.527	0	68.0	4	22.1	4	-1E+10	1	-1E+10	1	-1E+10	1	-1E+10	1	-1E+10	1	-1E+10	1
4902642	26	C	03/07/2025	06:04	-131.806	46.275	0	370.20	0	5.0880	0	33.9050	0	26.801	0	366.823	0	65.5	4	21.2	4	-1E+10	1	-1E+10	1	-1E+10	1	-1E+10	1	-1E+10	1	-1E+10	1
4902642	26	C	03/07/2025	06:04	-131.806	46.275	0	389.70	0	5.0520	0	33.9220	0	26.818	0	386.127	0	61.7	4	19.9	4	-1E+10	1	-1E+10	1	-1E+10	1	-1E+10	1	-1E+10	1	-1E+10	1
4902642	26	C	03/07/2025	06:04	-131.806	46.275	0	410.00	0	4.8630	0	33.9230	0	26.841	0	406.221	0	58.6	4	18.9	4	-1E+10	1	-1E+10	1	-1E+10	1	-1E+10	1	-1E+10	1	-1E+10	1
4902642	26	C	03/07/2025	06:04	-131.806	46.275	0	429.90	0	4.8060	0	33.9480	0	26.867	0	425.917	0	51.2	4	16.4	4	-1E+10	1	-1E+10	1	-1E+10	1	-1E+10	1	-1E+10	1	-1E+10	1
4902642	26	C	03/07/2025	06:04	-131.806	46.275	0	449.80	0	4.8100	0	33.9840	0	26.895	0	445.612	0	44.1	4	14.2	4	-1E+10	1	-1E+10	1	-1E+10	1	-1E+10	1	-1E+10	1	-1E+10	1
4902642	26	C	03/07/2025	06:04	-131.806	46.275	0	469.60	0	4.6720	0	33.9930	0	26.918	0	465.205	0	42.1	4	13.5	4	-1E+10	1	-1E+10	1	-1E+10	1	-1E+10	1	-1E+10	1	-1E+10	1
4902642	26	C	03/07/2025	06:04	-131.806	46.275	0	489.80	0	4.6140	0	34.0130	0	26.940	0	485.193	0	37.7	4	12.1	4	-1E+10	1	-1E+10	1	-1E+10	1	-1E+10	1	-1E+10	1	-1E+10	1
4902642	26	C	03/07/2025	06:04	-131.806	46.275	0	510.60	0	4.4840	0	34.0250	0	26.964	0	505.772	0	35.7	4	11.4	4	-1E+10	1	-1E+10	1	-1E+10	1	-1E+10	1	-1E+10	1	-1E+10	1
4902642	26	C	03/07/2025	06:04	-131.806	46.275	0	529.80	0	4.4090	0	34.0400	0	26.984	0	524.766	0	32.5	4	10.4	4	-1E+10	1	-1E+10	1	-1E+10	1	-1E+10	1	-1E+10	1	-1E+10	1
4902642	26	C	03/07/2025	06:04	-131.806	46.275	0	549.90	0	4.3650	0	34.0600	0	27.005	0	544.649	0	28.4	4	9.0	4	-1E+10	1	-1E+10	1	-1E+10	1	-1E+10	1	-1E+10	1	-1E+10	1
4902642	26	C	03/07/2025	06:04	-131.806	46.275	0	570.50	0	4.3030	0	34.0790	0	27.026	0	565.024	0	25.3	4	8.0	4	-1E+10	1	-1E+10	1	-1E+10	1	-1E+10	1	-1E+10	1	-1E+10	1
4902642	26	C	03/07/2025	06:04	-131.806	46.275	0	589.80	0	4.2420	0	34.0970	0	27.047	0	584.111	0	22.4	4	7.1	4	-1E+10	1	-1E+10	1	-1E+10	1	-1E+10	1	-1E+10	1	-1E+10	1
4902642	26	C	03/07/2025	06:04	-131.806	46.275	0	610.00	0	4.1590	0	34.1170	0	27.072	0	604.087	0	19.1	4	6.0	4	-1E+10	1	-1E+10	1	-1E+10	1	-1E+10	1	-1E+10	1	-1E+10	1
4902642	26	C	03/07/2025	06:04	-131.806	46.275	0	630.90	0	4.1820	0	34.1450	0	27.092	0	624.753	0	15.4	4	4.9	4	-1E+10	1	-1E+10	1	-1E+10	1	-1E+10	1	-1E+10	1	-1E+10	1
4902642	26	C	03/07/2025	06:04	-131.806	46.275	0	650.20	0	4.2410	0	34.1730	0	27.108	0	643.836	0	12.0	4	3.8	4	-1E+10	1	-1E+10	1	-1E+10	1	-1E+10	1	-1E+10	1	-1E+10	1
4902642	26	C	03/07/2025	06:04	-131.806	46.275	0	670.10	0	4.1990	0	34.1900	0	27.126	0	663.509	0	10.9	4	3.5	4	-1E+10	1	-1E+10	1	-1E+10	1	-1E+10	1	-1E+10	1	-1E+10	1
4902642	26	C	03/07/2025	06:04	-131.806	46.275	0	689.80	0	4.0920	0	34.2000	0	27.146	0	682.983	0	10.3	4	3.3	4	-1E+10	1	-1E+10	1	-1E+10	1	-1E+10	1	-1E+10	1	-1E+10	1
4902642	26	C	03/07/2025	06:04	-131.806	46.275	0	709.60	0	4.0300	0	34.2180	0	27.166	0	702.554	0	8.8	4	2.8	4	-1E+10	1	-1E+10	1	-1E+10	1	-1E+10	1	-1E+10	1	-1E+10	1
4902642	26	C	03/07/2025	06:04	-131.806	46.275	0	729.70	0	3.9920	0	34.2350	0	27.184	0	722.420	0	8.1	4	2.6	4	-1E+10	1	-1E+10	1	-1E+10	1	-1E+10	1	-1E+10	1	-1E+10	1
4902642	26	C	03/07/2025	06:04	-131.806	46.275	0	749.90	0	3.9570	0	34.2420	0	27.193	0	742.382	0	7.8	4	2.5	4	-1E+10	1	-1E+10	1	-1E+10	1	-1E+10	1	-1E+10	1	-1E+10	1
4902642	26	C	03/07/2025	06:04	-131.806	46.275	0	770.00	0	3.9190	0	34.2510	0	27.204	0	762.244	0	7.4	4	2.3	4	-1E+10	1	-1E+10	1	-1E+10	1	-1E+10	1	-1E+10	1	-1E+10	1
4902642	26	C	03/07/2025	06:04	-131.806	46.275	0	790.60	0	3.8310	0	34.2600	0	27.221	0	782.598	0	7.2	4	2.3	4	-1E+10	1	-1E+10	1	-1E+10	1	-1E+10	1	-1E+10	1	-1E+10	1
4902642	26	C	03/07/2025	06:04	-131.806	46.275	0	810.00	0	3.7580	0	34.2680	0	27.234	0	801.764	0	7.0	4	2.2	4	-1E+10	1	-1E+10	1	-1E+10	1	-1E+10	1	-1E+10	1	-1E+10	1
4902642	26	C	03/07/2025	06:04	-131.806	46.275	0	830.10	0	3.6930	0	34.2740	0	27.246	0	821.621	0	6.8	4	2.1	4	-1E+10	1	-1E+10	1	-1E+10	1	-1E+10	1	-1E+10	1	-1E+10	1
4902642	26	C	03/07/2025	06:04	-131.806	46.275	0	850.20	0	3.6440	0	34.2830	0	27.258	0	841.475	0	6.5	4	2.0	4	-1E+10	1	-1E+10	1	-1E+10	1	-1E+10	1	-1E+10	1	-1E+10	1
4902642	26	C	03/07/2025	06:04	-131.806	46.275	0	870.00	0	3.5920	0	34.2950	0	27.272	0	861.031	0	6.3	4	2.0	4	-1E+10	1	-1E+10	1	-1E+10	1	-1E+10	1	-1E+10	1	-1E+10	1
4902642	26	C	03/07/2025	06:04	-131.806	46.275	0	890.10	0	3.5580	0	34.3050	0	27.284	0	880.881	0	6.0	4	1.9	4	-1E+10	1	-1E+10	1	-1E+10	1	-1E+10	1	-1E+10	1	-1E+10	1
4902642	26	C	03/07/2025	06:04	-131.806	46.275	0	910.10	0	3.5370	0	34.3180	0	27.296	0	900.631	0	5.7	4	1.8	4	-1E+10	1	-1E+10	1	-1E+10	1	-1E+10	1	-1E+10	1	-1E+10	1
4902642	26	C	03/07/2025	06:04	-131.806	46.275	0	930.20	0	3.5440	0	34.3390	0	27.313	0	920.478	0	5.5	4	1.7	4	-1E+10	1	-1E+10	1	-1E+10	1	-1E+10	1	-1E+10	1	-1E+10	1
4902642	26	C	03/07/2025	06:04	-131.806	46.275	0	950.00	0	3.5080	0	34.3530	0	27.327	0	940.026	0	5.5	4	1.7	4	-1E+10	1	-1E+10	1	-1E+10	1	-1E+10	1	-1E+10	1	-1E+10	1
4902642	26	C	03/07/2025	06:04	-131.806	46.275	0	970.10	0	3.4300	0	34.3590	0	27.340	0	959.869	0	5.6	4	1.8	4	-1E+10	1	-1E+10	1	-1E+10	1	-1E+10	1	-1E+10	1	-1E+10	1
4902642	26	C	03/07/2025	06:04	-131.806	46.275	0	989.90	0	3.3960	0	34.3680	0	27.350	0	979.414	0	5.8	4	1.8	4	-1E+10	1	-1E+10	1	-1E+10	1	-1E+10	1	-1E+10	1	-1E+10	1
4902642	26	C	03/07/2025	06:04	-131.806	46.275	0	1010.00	0	3.3830	0	34.3810	0	27.362	0	999.254	0	6.1	4	1.9	4	-1E+10	1	-1E+10	1	-1E+10	1	-1E+10	1	-1E+10	1	-1E+10	1
4902642	26	C	03/07/2025	06:04	-131.806	46.275	0	1030.20	0	3.3770	0	34.3960	0	27.375	0	1019.189	0	6.8	4	2.1	4	-1E+10	1	-1E+10	1	-1E+10	1	-1E+10	1	-1E+10	1	-1E+10	1
4902642	26	C	03/07/2025	06:04	-131.806	46.275	0	1050.10	0	3.3680	0	34.4130	0	27.389	0	1038.828	0	7.6	4	2.4	4	-1E+10	1	-1E+10	1	-1E+10	1	-1E+10	1	-1E+10	1	-1E+10	1
4902642	26	C	03/07/2025	06:04	-131.806	46.275	0	1070.60	0	3.3300	0	34.4220	0	27.400	0	1059.056	0	8.0	4	2.5	4	-1E+10	1	-1E+10	1	-1E+10	1	-1E+10	1	-1E+10	1	-1E+10	1
4902642	26	C	03/07/2025	06:04	-131.806	46.275	0	1089.70	0	3.2920	0	34.4260	0	27.407	0	1077.901	0	8.3	4	2.6	4	-1E+10	1	-1E+10	1	-1E+10	1	-1E+10	1	-1E+10	1	-1E+10	1
4902642	26	C	03/07/2025	06:04	-131.806	46.275	0	1109.50	0	3.2540	0	34.4290	0	27.413	0	1097.435	0	8.6	4	2.7	4	-1E+10	1	-1E+10	1	-1E+10	1	-1E+10	1	-1E+10	1	-1E+10	1
4902642	26	C	03/07/2025	06:04	-131.806	46.275	0	1129.60	0	3.2120	0	34.4340	0	27.421	0	1117.263	0	8.9	4	2.8	4	-1E+10	1	-1E+10	1	-1E+10	1	-1E+10	1	-1E+10	1	-1E+10	1
4902642	26	C	03/07/2025	06:04	-131.806	46.275	0	1149.80	0	3.1770	0	34.4380	0	27.428	0	1137.187	0	9.3	4	2.9	4	-1E+10	1	-1E+10	1	-1E+10	1	-1E+10	1	-1E+10	1	-1E+10	1
4902642	26	C	03/07/2025	06:04	-131.806	46.275	0	1169.90	0	3.1380	0	34.4430	0	27.435	0	1157.012	0	9.7	4	3.0	4	-1E+10	1	-1E+10	1	-1E+10	1	-1E+10	1	-1E+10	1	-1E+10	1
4902642	26	C	03/07/2025	06:04	-131.806	46.275	0	1190.00	0	3.1020	0	34.4470	0	27.442	0	1176.834	0	10.0	4	3.1	4	-1E+10	1	-1E+10	1	-1E+10	1	-1E+10	1	-1E+10	1	-1E+10	1
4902642	26	C	03/07/2025	06:04	-131.806	46.275	0	1209.90	0	3.0730	0	34.4500	0	27.447	0	1196.457	0	10.4	4	3.2	4	-1E+10	1	-1E+10	1	-1E+10	1	-1E+10	1	-1E+10	1	-1E+10	1
4902642	26	C	03/07/2025	06:04	-131.806	46.275	0	1229.80	0	3.0290	0	34.4550	0	27.455	0	1216.079	0	11.0	4	3.4	4	-1E+10	1	-1E+10	1	-1E+10	1	-1E+10	1	-1E+10	1	-1E+10	1
4902642	26	C	03/07/2025	06:04	-131.806	46.275	0	1250.30	0	2.9870	0	34.4600	0	27.463	0	1236.290	0	11.5	4	3.6	4	-1E+10	1	-1E+10	1	-1E+10	1	-1E+10	1	-1E+10	1	-1E+10	1
4902642	26	C	03/07/2025	06:04	-131.806	46.275	0	1269.90	0	2.9570	0	34.4640	0	27.469	0	1255.612	0	12.1	4	3.7	4	-1E+10	1	-1E+10	1	-1E+10	1	-1E+10	1	-1E+10	1	-1E+10	1
4902642	26	C	03/07/2025	06:04	-131.806	46.275	0	1290.10	0	2.9050	0	34.4700	0	27.479	0	1275.523	0	13.1	4	4.0	4	-1E+10	1	-1E+10	1	-1E+10	1	-1E+10	1	-1E+10	1	-1E+10	1
4902642	26	C	03/07/2025	06:04	-131.806	46.275	0	1310.20	0	2.8490	0	34.4760	0	27.489	0	1295.334	0	14.0	4	4.3	4	-1E+10	1	-1E+10	1	-1E+10	1	-1E+10	1	-1E+10	1	-1E+10	1
4902642	26	C	03/07/2025	06:04	-131.806	46.275	0	1329.90	0	2.7950	0	34.4820	0	27.498	0	1314.749	0	15.0	4	4.6	4	-1E+10	1	-1E+10	1	-1E+10	1	-1E+10	1	-1E+10	1	-1E+10	1
4902642	26	C	03/07/2025	06:04	-131.806	46.275	0	1349.70	0	2.7620	0	34.4870	0	27.505	0	1334.261	0	15.7	4	4.8	4	-1E+10	1	-1E+10	1	-1E+10	1	-1E+10	1	-1E+10	1	-1E+10	1
4902642	26	C	03/07/2025	06:04	-131.806	46.275	0	1369.60	0	2.7360	0	34.4900	0	27.510	0	1353.870	0	16.4	4	5.0	4	-1E+10	1	-1E+10	1	-1E+10	1	-1E+10	1	-1E+10	1	-1E+10	1
4902642	26	C	03/07/2025	06:04	-131.806	46.275	0	1390.20	0	2.7010	0	34.4950	0	27.517	0	1374.166	0	17.3	4	5.3	4	-1E+10	1	-1E+10	1	-1E+10	1	-1E+10	1	-1E+10	1	-1E+10	1
4902642	26	C	03/07/2025	06:04	-131.806	46.275	0	1409.80	0	2.6770	0	34.4980	0	27.522	0	1393.475	0	18.0	4	5.5	4	-1E+10	1	-1E+10	1	-1E+10	1	-1E+10	1	-1E+10	1	-1E+10	1
4902642	26	C	03/07/2025	06:04	-131.806	46.275	0	1430.10	0	2.6470	0	34.5020	0	27.528	0	1413.472	0	18.8	4	5.8	4	-1E+10	1	-1E+10	1	-1E+10	1	-1E+10	1	-1E+10	1	-1E+10	1
4902642	26	C	03/07/2025	06:04	-131.806	46.275	0	1449.80	0	2.6090	0	34.5060	0	27.534	0	1432.876	0	19.8	4	6.1	4	-1E+10	1	-1E+10	1	-1E+10	1	-1E+10	1	-1E+10	1	-1E+10	1
4902642	26	C	03/07/2025	06:04	-131.806	46.275	0	1469.50	0	2.5760	0	34.5100	0	27.540	0	1452.279	0	20.8	4	6.4	4	-1E+10	1	-1E+10	1	-1E+10	1	-1E+10	1	-1E+10	1	-1E+10	1
4902642	26	C	03/07/2025	06:04	-131.806	46.275	0	1489.70	0	2.5300	0	34.5150	0	27.548	0	1472.172	0	22.2	4	6.8	4	-1E+10	1	-1E+10	1	-1E+10	1	-1E+10	1	-1E+10	1	-1E+10	1
4902642	26	C	03/07/2025	06:04	-131.806	46.275	0	1509.90	0	2.4940	0	34.5190	0	27.555	0	1492.063	0	23.0	4	7.0	4	-1E+10	1	-1E+10	1	-1E+10	1	-1E+10	1	-1E+10	1	-1E+10	1
4902642	26	C	03/07/2025	06:04	-131.806	46.275	0	1529.90	0	2.4700	0	34.5210	0	27.558	0	1511.755	0	23.9	4	7.3	4	-1E+10	1	-1E+10	1	-1E+10	1	-1E+10	1	-1E+10	1	-1E+10	1
4902642	26	C	03/07/2025	06:04	-131.806	46.275	0	1550.00	0	2.4410	0	34.5250	0	27.564	0	1531.544	0	25.1	4	7.6	4	-1E+10	1	-1E+10	1	-1E+10	1	-1E+10	1	-1E+10	1	-1E+10	1
4902642	26	C	03/07/2025	06:04	-131.806	46.275	0	1570.00	0	2.4140	0	34.5290	0	27.570	0	1551.232	0	26.2	4	8.0	4	-1E+10	1	-1E+10	1	-1E+10	1	-1E+10	1	-1E+10	1	-1E+10	1
4902642	26	C	03/07/2025	06:04	-131.806	46.275	0	1589.70	0	2.3870	0	34.5320	0	27.574	0	1570.624	0	27.3	4	8.3	4	-1E+10	1	-1E+10	1	-1E+10	1	-1E+10	1	-1E+10	1	-1E+10	1
4902642	26	C	03/07/2025	06:04	-131.806	46.275	0	1609.70	0	2.3460	0	34.5360	0	27.581	0	1590.309	0	28.9	4	8.8	4	-1E+10	1	-1E+10	1	-1E+10	1	-1E+10	1	-1E+10	1	-1E+10	1
4902642	26	C	03/07/2025	06:04	-131.806	46.275	0	1629.70	0	2.3070	0	34.5410	0	27.588	0	1609.992	0	30.3	4	9.2	4	-1E+10	1	-1E+10	1	-1E+10	1	-1E+10	1	-1E+10	1	-1E+10	1
4902642	26	C	03/07/2025	06:04	-131.806	46.275	0	1650.40	0	2.2760	0	34.5450	0	27.594	0	1630.362	0	31.4	4	9.5	4	-1E+10	1	-1E+10	1	-1E+10	1	-1E+10	1	-1E+10	1	-1E+10	1
4902642	26	C	03/07/2025	06:04	-131.806	46.275	0	1670.10	0	2.2530	0	34.5470	0	27.598	0	1649.746	0	32.2	4	9.8	4	-1E+10	1	-1E+10	1	-1E+10	1	-1E+10	1	-1E+10	1	-1E+10	1
4902642	26	C	03/07/2025	06:04	-131.806	46.275	0	1690.10	0	2.2330	0	34.5500	0	27.602	0	1669.424	0	33.1	4	10.0	4	-1E+10	1	-1E+10	1	-1E+10	1	-1E+10	1	-1E+10	1	-1E+10	1
4902642	26	C	03/07/2025	06:04	-131.806	46.275	0	1710.20	0	2.2100	0	34.5530	0	27.606	0	1689.198	0	34.5	4	10.4	4	-1E+10	1	-1E+10	1	-1E+10	1	-1E+10	1	-1E+10	1	-1E+10	1
4902642	26	C	03/07/2025	06:04	-131.806	46.275	0	1730.30	0	2.1840	0	34.5570	0	27.611	0	1708.970	0	35.6	4	10.8	4	-1E+10	1	-1E+10	1	-1E+10	1	-1E+10	1	-1E+10	1	-1E+10	1
4902642	26	C	03/07/2025	06:04	-131.806	46.275	0	1750.20	0	2.1670	0	34.5590	0	27.615	0	1728.544	0	36.5	4	11.1	4	-1E+10	1	-1E+10	1	-1E+10	1	-1E+10	1	-1E+10	1	-1E+10	1
4902642	26	C	03/07/2025	06:04	-131.806	46.275	0	1770.00	0	2.1500	0	34.5610	0	27.618	0	1748.017	0	37.1	4	11.2	4	-1E+10	1	-1E+10	1	-1E+10	1	-1E+10	1	-1E+10	1	-1E+10	1
4902642	26	C	03/07/2025	06:04	-131.806	46.275	0	1789.90	0	2.1300	0	34.5630	0	27.621	0	1767.587	0	38.0	4	11.5	4	-1E+10	1	-1E+10	1	-1E+10	1	-1E+10	1	-1E+10	1	-1E+10	1
4902642	26	C	03/07/2025	06:04	-131.806	46.275	0	1810.00	0	2.1060	0	34.5660	0	27.625	0	1787.352	0	39.0	4	11.8	4	-1E+10	1	-1E+10	1	-1E+10	1	-1E+10	1	-1E+10	1	-1E+10	1
4902642	26	C	03/07/2025	06:04	-131.806	46.275	0	1829.90	0	2.0920	0	34.5680	0	27.628	0	1806.919	0	40.1	4	12.1	4	-1E+10	1	-1E+10	1	-1E+10	1	-1E+10	1	-1E+10	1	-1E+10	1
4902642	26	C	03/07/2025	06:04	-131.806	46.275	0	1850.10	0	2.0790	0	34.5720	0	27.632	0	1826.778	0	41.7	4	12.6	4	-1E+10	1	-1E+10	1	-1E+10	1	-1E+10	1	-1E+10	1	-1E+10	1
4902642	26	C	03/07/2025	06:04	-131.806	46.275	0	1869.90	0	2.0610	0	34.5750	0	27.636	0	1846.243	0	43.0	4	13.0	4	-1E+10	1	-1E+10	1	-1E+10	1	-1E+10	1	-1E+10	1	-1E+10	1
4902642	26	C	03/07/2025	06:04	-131.806	46.275	0	1890.00	0	2.0440	0	34.5780	0	27.640	0	1866.000	0	44.3	4	13.4	4	-1E+10	1	-1E+10	1	-1E+10	1	-1E+10	1	-1E+10	1	-1E+10	1
4902642	26	C	03/07/2025	06:04	-131.806	46.275	0	1909.90	0	2.0220	0	34.5810	0	27.644	0	1885.559	0	45.7	4	13.8	4	-1E+10	1	-1E+10	1	-1E+10	1	-1E+10	1	-1E+10	1	-1E+10	1
4902642	26	C	03/07/2025	06:04	-131.806	46.275	0	1930.00	0	2.0080	0	34.5830	0	27.647	0	1905.313	0	46.5	4	14.0	4	-1E+10	1	-1E+10	1	-1E+10	1	-1E+10	1	-1E+10	1	-1E+10	1
4902642	26	C	03/07/2025	06:04	-131.806	46.275	0	1949.80	0	1.9960	0	34.5850	0	27.650	0	1924.771	0	47.3	4	14.3	4	-1E+10	1	-1E+10	1	-1E+10	1	-1E+10	1	-1E+10	1	-1E+10	1
4902642	26	C	03/07/2025	06:04	-131.806	46.275	0	1969.90	0	1.9840	0	34.5870	0	27.653	0	1944.521	0	48.1	4	14.5	4	-1E+10	1	-1E+10	1	-1E+10	1	-1E+10	1	-1E+10	1	-1E+10	1
4902642	26	C	03/07/2025	06:04	-131.806	46.275	0	1990.00	0	1.9700	0	34.5900	0	27.656	0	1964.269	0	49.2	4	14.8	4	-1E+10	1	-1E+10	1	-1E+10	1	-1E+10	1	-1E+10	1	-1E+10	1
4902642	26	C	03/07/2025	06:04	-131.806	46.275	0	2010.50	0	1.9580	0	34.5920	4	27.659	0	1984.409	0	50.4	4	15.2	4	-1E+10	1	-1E+10	1	-1E+10	1	-1E+10	1	-1E+10	1	-1E+10	1
4902642	26	C	03/07/2025	06:04	-131.806	46.275	0	2030.00	0	1.9450	0	34.5940	4	27.661	0	2003.564	0	51.2	4	15.4	4	-1E+10	1	-1E+10	1	-1E+10	1	-1E+10	1	-1E+10	1	-1E+10	1
4902642	26	C	03/07/2025	06:04	-131.806	46.275	0	2050.20	0	1.9350	0	34.5960	4	27.664	0	2023.405	0	52.0	4	15.7	4	-1E+10	1	-1E+10	1	-1E+10	1	-1E+10	1	-1E+10	1	-1E+10	1
4902642	26	C	03/07/2025	06:04	-131.806	46.275	0	2070.20	0	1.9250	0	34.5980	4	27.666	0	2043.048	0	52.9	4	15.9	4	-1E+10	1	-1E+10	1	-1E+10	1	-1E+10	1	-1E+10	1	-1E+10	1
4902642	26	C	03/07/2025	06:04	-131.806	46.275	0	2090.00	0	1.9190	0	34.5990	4	27.668	0	2062.493	0	53.4	4	16.1	4	-1E+10	1	-1E+10	1	-1E+10	1	-1E+10	1	-1E+10	1	-1E+10	1
4902642	26	C	03/07/2025	06:04	-131.806	46.275	0	2109.80	0	1.9120	0	34.6010	4	27.670	0	2081.936	0	54.2	4	16.3	4	-1E+10	1	-1E+10	1	-1E+10	1	-1E+10	1	-1E+10	1	-1E+10	1
4902642	26	C	03/07/2025	06:04	-131.806	46.275	0	2129.80	0	1.9040	0	34.6020	4	27.672	0	2101.574	0	54.7	4	16.5	4	-1E+10	1	-1E+10	1	-1E+10	1	-1E+10	1	-1E+10	1	-1E+10	1
4902642	26	C	03/07/2025	06:04	-131.806	46.275	0	2149.80	0	1.8990	0	34.6030	4	27.673	0	2121.209	0	55.2	4	16.6	4	-1E+10	1	-1E+10	1	-1E+10	1	-1E+10	1	-1E+10	1	-1E+10	1
4902642	26	C	03/07/2025	06:04	-131.806	46.275	0	2169.60	0	1.8920	0	34.6040	4	27.674	0	2140.647	0	56.0	4	16.8	4	-1E+10	1	-1E+10	1	-1E+10	1	-1E+10	1	-1E+10	1	-1E+10	1
4902642	26	C	03/07/2025	06:04	-131.806	46.275	0	2189.60	0	1.8840	0	34.6060	4	27.677	0	2160.279	0	56.7	4	17.0	4	-1E+10	1	-1E+10	1	-1E+10	1	-1E+10	1	-1E+10	1	-1E+10	1
4902642	26	C	03/07/2025	06:04	-131.806	46.275	0	2209.80	0	1.8790	0	34.6070	4	27.678	0	2180.106	0	57.1	4	17.2	4	-1E+10	1	-1E+10	1	-1E+10	1	-1E+10	1	-1E+10	1	-1E+10	1
4902642	26	C	03/07/2025	06:04	-131.806	46.275	0	2230.20	0	1.8750	0	34.6080	4	27.679	0	2200.126	0	57.7	4	17.3	4	-1E+10	1	-1E+10	1	-1E+10	1	-1E+10	1	-1E+10	1	-1E+10	1
4902642	26	C	03/07/2025	06:04	-131.806	46.275	0	2250.20	0	1.8670	0	34.6100	4	27.682	0	2219.753	0	58.5	4	17.6	4	-1E+10	1	-1E+10	1	-1E+10	1	-1E+10	1	-1E+10	1	-1E+10	1
4902642	26	C	03/07/2025	06:04	-131.806	46.275	0	2270.00	0	1.8570	0	34.6110	4	27.683	0	2239.182	0	59.4	4	17.8	4	-1E+10	1	-1E+10	1	-1E+10	1	-1E+10	1	-1E+10	1	-1E+10	1
4902642	26	C	03/07/2025	06:04	-131.806	46.275	0	2290.10	0	1.8470	0	34.6130	4	27.686	0	2258.903	0	60.1	4	18.1	4	-1E+10	1	-1E+10	1	-1E+10	1	-1E+10	1	-1E+10	1	-1E+10	1
4902642	26	C	03/07/2025	06:04	-131.806	46.275	0	2309.90	0	1.8420	0	34.6140	4	27.687	0	2278.328	0	60.7	4	18.2	4	-1E+10	1	-1E+10	1	-1E+10	1	-1E+10	1	-1E+10	1	-1E+10	1
4902642	26	C	03/07/2025	06:04	-131.806	46.275	0	2330.00	0	1.8350	0	34.6150	4	27.688	0	2298.046	0	61.4	4	18.4	4	-1E+10	1	-1E+10	1	-1E+10	1	-1E+10	1	-1E+10	1	-1E+10	1
4902642	26	C	03/07/2025	06:04	-131.806	46.275	0	2349.90	0	1.8280	0	34.6160	4	27.690	0	2317.565	0	62.2	4	18.7	4	-1E+10	1	-1E+10	1	-1E+10	1	-1E+10	1	-1E+10	1	-1E+10	1
4902642	26	C	03/07/2025	06:04	-131.806	46.275	0	2369.60	0	1.8220	0	34.6170	4	27.691	0	2336.887	0	62.7	4	18.8	4	-1E+10	1	-1E+10	1	-1E+10	1	-1E+10	1	-1E+10	1	-1E+10	1
4902642	26	C	03/07/2025	06:04	-131.806	46.275	0	2390.30	0	1.8140	0	34.6180	4	27.693	0	2357.187	0	63.6	4	19.1	4	-1E+10	1	-1E+10	1	-1E+10	1	-1E+10	1	-1E+10	1	-1E+10	1
4902642	26	C	03/07/2025	06:04	-131.806	46.275	0	2410.10	0	1.8060	0	34.6200	4	27.695	0	2376.604	0	64.4	4	19.3	4	-1E+10	1	-1E+10	1	-1E+10	1	-1E+10	1	-1E+10	1	-1E+10	1
4902642	26	C	03/07/2025	06:04	-131.806	46.275	0	2429.90	0	1.7990	0	34.6210	4	27.697	0	2396.018	0	65.1	4	19.5	4	-1E+10	1	-1E+10	1	-1E+10	1	-1E+10	1	-1E+10	1	-1E+10	1
4902642	26	C	03/07/2025	06:04	-131.806	46.275	0	2450.00	0	1.7900	0	34.6220	4	27.698	0	2415.725	0	66.0	4	19.8	4	-1E+10	1	-1E+10	1	-1E+10	1	-1E+10	1	-1E+10	1	-1E+10	1
4902642	26	C	03/07/2025	06:04	-131.806	46.275	0	2470.20	0	1.7820	0	34.6230	4	27.700	0	2435.527	0	66.8	4	20.0	4	-1E+10	1	-1E+10	1	-1E+10	1	-1E+10	1	-1E+10	1	-1E+10	1
4902642	26	C	03/07/2025	06:04	-131.806	46.275	0	2490.20	0	1.7740	0	34.6240	4	27.701	0	2455.133	0	67.6	4	20.3	4	-1E+10	1	-1E+10	1	-1E+10	1	-1E+10	1	-1E+10	1	-1E+10	1
4902642	26	C	03/07/2025	06:04	-131.806	46.275	0	2510.80	0	1.7640	0	34.6250	4	27.703	0	2475.324	0	68.5	4	20.5	4	-1E+10	1	-1E+10	1	-1E+10	1	-1E+10	1	-1E+10	1	-1E+10	1
4902642	26	C	03/07/2025	06:04	-131.806	46.275	0	2530.00	0	1.7530	0	34.6260	4	27.705	0	2494.141	0	69.4	4	20.8	4	-1E+10	1	-1E+10	1	-1E+10	1	-1E+10	1	-1E+10	1	-1E+10	1
4902642	26	C	03/07/2025	06:04	-131.806	46.275	0	2549.60	0	1.7430	0	34.6270	4	27.706	0	2513.349	0	70.3	4	21.1	4	-1E+10	1	-1E+10	1	-1E+10	1	-1E+10	1	-1E+10	1	-1E+10	1
4902642	26	C	03/07/2025	06:04	-131.806	46.275	0	2569.70	0	1.7340	0	34.6290	4	27.709	0	2533.045	0	71.3	4	21.4	4	-1E+10	1	-1E+10	1	-1E+10	1	-1E+10	1	-1E+10	1	-1E+10	1
4902642	26	C	03/07/2025	06:04	-131.806	46.275	0	2589.70	0	1.7280	0	34.6300	4	27.710	0	2552.641	0	72.1	4	21.6	4	-1E+10	1	-1E+10	1	-1E+10	1	-1E+10	1	-1E+10	1	-1E+10	1
4902642	26	C	03/07/2025	06:04	-131.806	46.275	0	2609.80	0	1.7180	0	34.6310	4	27.712	0	2572.334	0	73.3	4	21.9	4	-1E+10	1	-1E+10	1	-1E+10	1	-1E+10	1	-1E+10	1	-1E+10	1
4902642	26	C	03/07/2025	06:04	-131.806	46.275	0	2630.00	0	1.7080	0	34.6330	4	27.714	0	2592.122	0	74.2	4	22.2	4	-1E+10	1	-1E+10	1	-1E+10	1	-1E+10	1	-1E+10	1	-1E+10	1
4902642	26	C	03/07/2025	06:04	-131.806	46.275	0	2650.30	0	1.7030	0	34.6330	4	27.715	0	2612.007	0	74.9	4	22.4	4	-1E+10	1	-1E+10	1	-1E+10	1	-1E+10	1	-1E+10	1	-1E+10	1
4902642	26	C	03/07/2025	06:04	-131.806	46.275	0	2670.30	0	1.6980	0	34.6340	4	27.716	0	2631.596	0	75.6	4	22.6	4	-1E+10	1	-1E+10	1	-1E+10	1	-1E+10	1	-1E+10	1	-1E+10	1
4902642	26	C	03/07/2025	06:04	-131.806	46.275	0	2689.90	0	1.6930	0	34.6350	4	27.717	0	2650.791	0	76.3	4	22.9	4	-1E+10	1	-1E+10	1	-1E+10	1	-1E+10	1	-1E+10	1	-1E+10	1
4902642	26	C	03/07/2025	06:04	-131.806	46.275	0	2709.90	0	1.6850	0	34.6360	4	27.719	0	2670.377	0	77.2	4	23.1	4	-1E+10	1	-1E+10	1	-1E+10	1	-1E+10	1	-1E+10	1	-1E+10	1
4902642	26	C	03/07/2025	06:04	-131.806	46.275	0	2729.80	0	1.6780	0	34.6370	4	27.720	0	2689.863	0	78.0	4	23.3	4	-1E+10	1	-1E+10	1	-1E+10	1	-1E+10	1	-1E+10	1	-1E+10	1
4902642	26	C	03/07/2025	06:04	-131.806	46.275	0	2749.80	0	1.6730	0	34.6380	4	27.721	0	2709.445	0	78.6	4	23.5	4	-1E+10	1	-1E+10	1	-1E+10	1	-1E+10	1	-1E+10	1	-1E+10	1
4902642	26	C	03/07/2025	06:04	-131.806	46.275	0	2770.50	0	1.6680	0	34.6390	4	27.723	0	2729.710	0	79.3	4	23.7	4	-1E+10	1	-1E+10	1	-1E+10	1	-1E+10	1	-1E+10	1	-1E+10	1
4902642	26	C	03/07/2025	06:04	-131.806	46.275	0	2790.00	0	1.6650	0	34.6400	4	27.724	0	2748.799	0	79.8	4	23.9	4	-1E+10	1	-1E+10	1	-1E+10	1	-1E+10	1	-1E+10	1	-1E+10	1
4902642	26	C	03/07/2025	06:04	-131.806	46.275	0	2809.90	0	1.6620	0	34.6400	4	27.724	0	2768.278	0	80.4	4	24.0	4	-1E+10	1	-1E+10	1	-1E+10	1	-1E+10	1	-1E+10	1	-1E+10	1
4902642	26	C	03/07/2025	06:04	-131.806	46.275	0	2829.80	0	1.6590	0	34.6410	4	27.725	0	2787.755	0	80.9	4	24.2	4	-1E+10	1	-1E+10	1	-1E+10	1	-1E+10	1	-1E+10	1	-1E+10	1
4902642	26	C	03/07/2025	06:04	-131.806	46.275	0	2849.90	0	1.6570	0	34.6420	4	27.726	0	2807.425	0	81.3	4	24.3	4	-1E+10	1	-1E+10	1	-1E+10	1	-1E+10	1	-1E+10	1	-1E+10	1
4902642	26	C	03/07/2025	06:04	-131.806	46.275	0	2869.70	0	1.6540	0	34.6420	4	27.727	0	2826.801	0	82.0	4	24.5	4	-1E+10	1	-1E+10	1	-1E+10	1	-1E+10	1	-1E+10	1	-1E+10	1
4902642	26	C	03/07/2025	06:04	-131.806	46.275	0	2890.00	0	1.6470	0	34.6430	4	27.728	0	2846.664	0	82.9	4	24.8	4	-1E+10	1	-1E+10	1	-1E+10	1	-1E+10	1	-1E+10	1	-1E+10	1
4902642	26	C	03/07/2025	06:04	-131.806	46.275	0	2909.60	0	1.6440	0	34.6440	4	27.729	0	2865.841	0	83.3	4	24.9	4	-1E+10	1	-1E+10	1	-1E+10	1	-1E+10	1	-1E+10	1	-1E+10	1
4902642	26	C	03/07/2025	06:04	-131.806	46.275	0	2929.50	0	1.6420	0	34.6450	4	27.730	0	2885.309	0	83.7	4	25.0	4	-1E+10	1	-1E+10	1	-1E+10	1	-1E+10	1	-1E+10	1	-1E+10	1
4902642	26	C	03/07/2025	06:04	-131.806	46.275	0	2950.30	0	1.6410	0	34.6450	4	27.731	0	2905.656	0	84.2	4	25.2	4	-1E+10	1	-1E+10	1	-1E+10	1	-1E+10	1	-1E+10	1	-1E+10	1
4902642	26	C	03/07/2025	06:04	-131.806	46.275	0	2969.90	0	1.6350	0	34.6460	4	27.732	0	2924.827	0	85.1	4	25.4	4	-1E+10	1	-1E+10	1	-1E+10	1	-1E+10	1	-1E+10	1	-1E+10	1
4902642	26	C	03/07/2025	06:04	-131.806	46.275	0	2989.60	0	1.6310	0	34.6470	4	27.733	0	2944.094	0	85.7	4	25.6	4	-1E+10	1	-1E+10	1	-1E+10	1	-1E+10	1	-1E+10	1	-1E+10	1
4902642	26	C	03/07/2025	06:04	-131.806	46.275	0	3009.80	0	1.6280	0	34.6480	4	27.734	0	2963.849	0	86.1	4	25.7	4	-1E+10	1	-1E+10	1	-1E+10	1	-1E+10	1	-1E+10	1	-1E+10	1
4902642	26	C	03/07/2025	06:04	-131.806	46.275	0	3029.50	0	1.6270	0	34.6480	4	27.735	0	2983.112	0	86.5	4	25.9	4	-1E+10	1	-1E+10	1	-1E+10	1	-1E+10	1	-1E+10	1	-1E+10	1
4902642	26	C	03/07/2025	06:04	-131.806	46.275	0	3049.70	0	1.6240	0	34.6490	4	27.736	0	3002.863	0	87.1	4	26.0	4	-1E+10	1	-1E+10	1	-1E+10	1	-1E+10	1	-1E+10	1	-1E+10	1
4902642	26	C	03/07/2025	06:04	-131.806	46.275	0	3069.90	0	1.6220	0	34.6490	4	27.736	0	3022.612	0	87.6	4	26.2	4	-1E+10	1	-1E+10	1	-1E+10	1	-1E+10	1	-1E+10	1	-1E+10	1
4902642	26	C	03/07/2025	06:04	-131.806	46.275	0	3090.20	0	1.6190	0	34.6500	4	27.737	0	3042.458	0	88.3	4	26.4	4	-1E+10	1	-1E+10	1	-1E+10	1	-1E+10	1	-1E+10	1	-1E+10	1
4902642	26	C	03/07/2025	06:04	-131.806	46.275	0	3110.30	0	1.6130	0	34.6510	4	27.739	0	3062.106	0	89.1	4	26.6	4	-1E+10	1	-1E+10	1	-1E+10	1	-1E+10	1	-1E+10	1	-1E+10	1
4902642	26	C	03/07/2025	06:04	-131.806	46.275	0	3130.00	0	1.6100	0	34.6520	4	27.740	0	3081.361	0	89.7	4	26.8	4	-1E+10	1	-1E+10	1	-1E+10	1	-1E+10	1	-1E+10	1	-1E+10	1
4902642	26	C	03/07/2025	06:04	-131.806	46.275	0	3149.60	0	1.6070	0	34.6520	4	27.740	0	3100.516	0	90.4	4	27.0	4	-1E+10	1	-1E+10	1	-1E+10	1	-1E+10	1	-1E+10	1	-1E+10	1
4902642	26	C	03/07/2025	06:04	-131.806	46.275	0	3170.40	0	1.5990	0	34.6540	4	27.742	0	3120.843	0	91.5	4	27.3	4	-1E+10	1	-1E+10	1	-1E+10	1	-1E+10	1	-1E+10	1	-1E+10	1
4902642	26	C	03/07/2025	06:04	-131.806	46.275	0	3190.00	0	1.5910	0	34.6550	4	27.744	0	3139.995	0	92.5	4	27.6	4	-1E+10	1	-1E+10	1	-1E+10	1	-1E+10	1	-1E+10	1	-1E+10	1
4902642	26	C	03/07/2025	06:04	-131.806	46.275	0	3209.90	0	1.5870	0	34.6560	4	27.745	0	3159.439	0	93.2	4	27.8	4	-1E+10	1	-1E+10	1	-1E+10	1	-1E+10	1	-1E+10	1	-1E+10	1
4902642	26	C	03/07/2025	06:04	-131.806	46.275	0	3229.80	0	1.5840	0	34.6570	4	27.746	0	3178.881	0	93.6	4	27.9	4	-1E+10	1	-1E+10	1	-1E+10	1	-1E+10	1	-1E+10	1	-1E+10	1
4902642	26	C	03/07/2025	06:04	-131.806	46.275	0	3250.20	0	1.5830	0	34.6570	4	27.746	0	3198.809	0	93.9	4	28.0	4	-1E+10	1	-1E+10	1	-1E+10	1	-1E+10	1	-1E+10	1	-1E+10	1
4902642	26	C	03/07/2025	06:04	-131.806	46.275	0	3270.00	0	1.5830	0	34.6570	4	27.747	0	3218.150	0	94.2	4	28.1	4	-1E+10	1	-1E+10	1	-1E+10	1	-1E+10	1	-1E+10	1	-1E+10	1
4902642	26	C	03/07/2025	06:04	-131.806	46.275	0	3288.60	0	1.5810	0	34.6580	4	27.748	0	3236.317	0	94.4	4	28.2	4	-1E+10	1	-1E+10	1	-1E+10	1	-1E+10	1	-1E+10	1	-1E+10	1
4902642	26	C	03/07/2025	06:04	-131.806	46.275	0	3297.50	0	1.5810	0	34.6590	4	27.748	0	3245.009	0	94.5	4	28.2	4	-1E+10	1	-1E+10	1	-1E+10	1	-1E+10	1	-1E+10	1	-1E+10	1
4902642	26	C	03/07/2025	06:04	-131.806	46.275	0	3298.30	0	1.5810	0	34.6590	4	27.748	0	3245.790	0	94.5	4	28.2	4	-1E+10	1	-1E+10	1	-1E+10	1	-1E+10	1	-1E+10	1	-1E+10	1
4902642	26	C	03/07/2025	06:04	-131.806	46.275	0	3299.50	0	1.5810	0	34.6590	4	27.749	0	3246.962	0	94.5	4	28.2	4	-1E+10	1	-1E+10	1	-1E+10	1	-1E+10	1	-1E+10	1	-1E+10	1
4902642	26	C	03/07/2025	06:04	-131.806	46.275	0	3300.80	0	1.5810	0	34.6590	4	27.749	0	3248.232	0	94.5	4	28.2	4	-1E+10	1	-1E+10	1	-1E+10	1	-1E+10	1	-1E+10	1	-1E+10	1
4902642	26	C	03/07/2025	06:04	-131.806	46.275	0	3301.60	0	1.5810	0	34.6580	4	27.748	0	3249.013	0	94.5	4	28.2	4	-1E+10	1	-1E+10	1	-1E+10	1	-1E+10	1	-1E+10	1	-1E+10	1
4902642	26	C	03/07/2025	06:04	-131.806	46.275	0	3302.40	0	1.5810	0	34.6590	4	27.749	0	3249.794	0	94.5	4	28.2	4	-1E+10	1	-1E+10	1	-1E+10	1	-1E+10	1	-1E+10	1	-1E+10	1
4902642	26	C	03/07/2025	06:04	-131.806	46.275	0	3303.30	0	1.5810	0	34.6590	4	27.749	0	3250.674	0	94.5	4	28.2	4	-1E+10	1	-1E+10	1	-1E+10	1	-1E+10	1	-1E+10	1	-1E+10	1
4902642	26	C	03/07/2025	06:04	-131.806	46.275	0	3304.50	0	1.5810	0	34.6580	4	27.748	0	3251.845	0	94.5	4	28.2	4	-1E+10	1	-1E+10	1	-1E+10	1	-1E+10	1	-1E+10	1	-1E+10	1
4902642	26	C	03/07/2025	06:04	-131.806	46.275	0	3305.70	0	1.5810	0	34.6590	4	27.749	0	3253.017	0	94.6	4	28.2	4	-1E+10	1	-1E+10	1	-1E+10	1	-1E+10	1	-1E+10	1	-1E+10	1
4902642	26	C	03/07/2025	06:04	-131.806	46.275	0	3306.50	0	1.5820	0	34.6580	4	27.748	0	3253.799	0	94.6	4	28.2	4	-1E+10	1	-1E+10	1	-1E+10	1	-1E+10	1	-1E+10	1	-1E+10	1
4902642	26	C	03/07/2025	06:04	-131.806	46.275	0	3307.30	0	1.5810	0	34.6590	4	27.749	0	3254.580	0	94.6	4	28.2	4	-1E+10	1	-1E+10	1	-1E+10	1	-1E+10	1	-1E+10	1	-1E+10	1
4902642	26	C	03/07/2025	06:04	-131.806	46.275	0	3308.50	0	1.5810	0	34.6590	4	27.749	0	3255.752	0	94.6	4	28.2	4	-1E+10	1	-1E+10	1	-1E+10	1	-1E+10	1	-1E+10	1	-1E+10	1
4902642	26	C	03/07/2025	06:04	-131.806	46.275	0	3309.80	0	1.5810	0	34.6590	4	27.749	0	3257.021	0	94.6	4	28.2	4	-1E+10	1	-1E+10	1	-1E+10	1	-1E+10	1	-1E+10	1	-1E+10	1
4902642	26	C	03/07/2025	06:04	-131.806	46.275	0	3310.60	0	1.5810	0	34.6580	4	27.748	0	3257.803	0	94.6	4	28.2	4	-1E+10	1	-1E+10	1	-1E+10	1	-1E+10	1	-1E+10	1	-1E+10	1
4902642	26	C	03/07/2025	06:04	-131.806	46.275	0	3311.40	0	1.5810	0	34.6590	4	27.749	0	3258.584	0	94.6	4	28.2	4	-1E+10	1	-1E+10	1	-1E+10	1	-1E+10	1	-1E+10	1	-1E+10	1
4902642	26	C	03/07/2025	06:04	-131.806	46.275	0	3312.30	0	1.5810	0	34.6590	4	27.749	0	3259.463	0	94.6	4	28.2	4	-1E+10	1	-1E+10	1	-1E+10	1	-1E+10	1	-1E+10	1	-1E+10	1
4902642	26	C	03/07/2025	06:04	-131.806	46.275	0	3313.50	0	1.5810	0	34.6590	4	27.749	0	3260.635	0	94.6	4	28.2	4	-1E+10	1	-1E+10	1	-1E+10	1	-1E+10	1	-1E+10	1	-1E+10	1
4902642	26	C	03/07/2025	06:04	-131.806	46.275	0	3314.80	0	1.5810	0	34.6590	4	27.749	0	3261.904	0	94.7	4	28.3	4	-1E+10	1	-1E+10	1	-1E+10	1	-1E+10	1	-1E+10	1	-1E+10	1
4902642	26	C	03/07/2025	06:04	-131.806	46.275	0	3315.60	0	1.5820	0	34.6580	4	27.748	0	3262.686	0	94.6	4	28.2	4	-1E+10	1	-1E+10	1	-1E+10	1	-1E+10	1	-1E+10	1	-1E+10	1
4902642	26	C	03/07/2025	06:04	-131.806	46.275	0	3316.50	0	1.5810	0	34.6590	4	27.749	0	3263.564	0	94.6	4	28.2	4	-1E+10	1	-1E+10	1	-1E+10	1	-1E+10	1	-1E+10	1	-1E+10	1
4902642	26	C	03/07/2025	06:04	-131.806	46.275	0	3317.30	0	1.5820	0	34.6590	4	27.749	0	3264.346	0	94.6	4	28.3	4	-1E+10	1	-1E+10	1	-1E+10	1	-1E+10	1	-1E+10	1	-1E+10	1
4902642	26	C	03/07/2025	06:04	-131.806	46.275	0	3318.50	0	1.5810	0	34.6590	4	27.749	0	3265.518	0	94.6	4	28.2	4	-1E+10	1	-1E+10	1	-1E+10	1	-1E+10	1	-1E+10	1	-1E+10	1
4902642	26	C	03/07/2025	06:04	-131.806	46.275	0	3319.90	0	1.5810	0	34.6590	4	27.749	0	3266.885	0	94.7	4	28.3	4	-1E+10	1	-1E+10	1	-1E+10	1	-1E+10	1	-1E+10	1	-1E+10	1
4902642	26	C	03/07/2025	06:04	-131.806	46.275	0	3320.70	0	1.5810	0	34.6590	4	27.749	0	3267.666	0	94.6	4	28.2	4	-1E+10	1	-1E+10	1	-1E+10	1	-1E+10	1	-1E+10	1	-1E+10	1
4902642	26	C	03/07/2025	06:04	-131.806	46.275	0	3321.50	0	1.5810	0	34.6590	4	27.749	0	3268.447	0	94.6	4	28.3	4	-1E+10	1	-1E+10	1	-1E+10	1	-1E+10	1	-1E+10	1	-1E+10	1
4902642	26	C	03/07/2025	06:04	-131.806	46.275	0	3322.40	0	1.5820	0	34.6590	4	27.749	0	3269.326	0	94.6	4	28.2	4	-1E+10	1	-1E+10	1	-1E+10	1	-1E+10	1	-1E+10	1	-1E+10	1
4902642	26	C	03/07/2025	06:04	-131.806	46.275	0	3323.20	0	1.5810	0	34.6590	4	27.749	0	3270.107	0	94.6	4	28.2	4	-1E+10	1	-1E+10	1	-1E+10	1	-1E+10	1	-1E+10	1	-1E+10	1
4902642	26	C	03/07/2025	06:04	-131.806	46.275	0	3324.50	0	1.5810	0	34.6590	4	27.749	0	3271.377	0	94.6	4	28.3	4	-1E+10	1	-1E+10	1	-1E+10	1	-1E+10	1	-1E+10	1	-1E+10	1
4902642	26	C	03/07/2025	06:04	-131.806	46.275	0	3325.80	0	1.5810	0	34.6590	4	27.749	0	3272.646	0	94.6	4	28.2	4	-1E+10	1	-1E+10	1	-1E+10	1	-1E+10	1	-1E+10	1	-1E+10	1
4902642	26	C	03/07/2025	06:04	-131.806	46.275	0	3326.70	0	1.5820	0	34.6590	4	27.749	0	3273.525	0	94.6	4	28.2	4	-1E+10	1	-1E+10	1	-1E+10	1	-1E+10	1	-1E+10	1	-1E+10	1
4902642	26	C	03/07/2025	06:04	-131.806	46.275	0	3327.60	0	1.5810	0	34.6590	4	27.749	0	3274.404	0	94.6	4	28.3	4	-1E+10	1	-1E+10	1	-1E+10	1	-1E+10	1	-1E+10	1	-1E+10	1
4902642	26	C	03/07/2025	06:04	-131.806	46.275	0	3328.30	0	1.5810	0	34.6590	4	27.749	0	3275.088	0	94.6	4	28.3	4	-1E+10	1	-1E+10	1	-1E+10	1	-1E+10	1	-1E+10	1	-1E+10	1
4902642	26	C	03/07/2025	06:04	-131.806	46.275	0	3329.20	0	1.5820	0	34.6590	4	27.749	0	3275.966	0	94.6	4	28.3	4	-1E+10	1	-1E+10	1	-1E+10	1	-1E+10	1	-1E+10	1	-1E+10	1
4902642	26	C	03/07/2025	06:04	-131.806	46.275	0	3330.50	0	1.5810	0	34.6590	4	27.749	0	3277.236	0	94.6	4	28.3	4	-1E+10	1	-1E+10	1	-1E+10	1	-1E+10	1	-1E+10	1	-1E+10	1
4902642	26	C	03/07/2025	06:04	-131.806	46.275	0	3331.80	0	1.5810	0	34.6590	4	27.749	0	3278.505	0	94.7	4	28.3	4	-1E+10	1	-1E+10	1	-1E+10	1	-1E+10	1	-1E+10	1	-1E+10	1
4902642	26	C	03/07/2025	06:04	-131.806	46.275	0	3332.70	0	1.5820	0	34.6590	4	27.749	0	3279.384	0	94.6	4	28.3	4	-1E+10	1	-1E+10	1	-1E+10	1	-1E+10	1	-1E+10	1	-1E+10	1
4902642	26	C	03/07/2025	06:04	-131.806	46.275	0	3333.50	0	1.5820	0	34.6590	4	27.749	0	3280.165	0	94.6	4	28.3	4	-1E+10	1	-1E+10	1	-1E+10	1	-1E+10	1	-1E+10	1	-1E+10	1
4902642	26	C	03/07/2025	06:04	-131.806	46.275	0	3334.40	0	1.5810	0	34.6590	4	27.749	0	3281.044	0	94.6	4	28.2	4	-1E+10	1	-1E+10	1	-1E+10	1	-1E+10	1	-1E+10	1	-1E+10	1
4902642	26	C	03/07/2025	06:04	-131.806	46.275	0	3335.30	0	1.5820	0	34.6590	4	27.749	0	3281.923	0	94.6	4	28.2	4	-1E+10	1	-1E+10	1	-1E+10	1	-1E+10	1	-1E+10	1	-1E+10	1
4902642	26	C	03/07/2025	06:04	-131.806	46.275	0	3336.50	0	1.5820	0	34.6590	4	27.749	0	3283.095	0	94.6	4	28.3	4	-1E+10	1	-1E+10	1	-1E+10	1	-1E+10	1	-1E+10	1	-1E+10	1
4902642	26	C	03/07/2025	06:04	-131.806	46.275	0	3337.80	0	1.5820	0	34.6590	4	27.749	0	3284.364	0	94.6	4	28.2	4	-1E+10	1	-1E+10	1	-1E+10	1	-1E+10	1	-1E+10	1	-1E+10	1
4902642	26	C	03/07/2025	06:04	-131.806	46.275	0	3338.60	0	1.5820	0	34.6590	4	27.749	0	3285.145	0	94.6	4	28.2	4	-1E+10	1	-1E+10	1	-1E+10	1	-1E+10	1	-1E+10	1	-1E+10	1
4902642	26	C	03/07/2025	06:04	-131.806	46.275	0	3339.40	0	1.5820	0	34.6590	4	27.749	0	3285.926	0	94.6	4	28.2	4	-1E+10	1	-1E+10	1	-1E+10	1	-1E+10	1	-1E+10	1	-1E+10	1
4902642	26	C	03/07/2025	06:04	-131.806	46.275	0	3340.60	0	1.5820	0	34.6590	4	27.749	0	3287.098	0	94.6	4	28.2	4	-1E+10	1	-1E+10	1	-1E+10	1	-1E+10	1	-1E+10	1	-1E+10	1
4902642	26	C	03/07/2025	06:04	-131.806	46.275	0	3341.50	0	1.5810	0	34.6590	4	27.749	0	3287.977	0	94.6	4	28.2	4	-1E+10	1	-1E+10	1	-1E+10	1	-1E+10	1	-1E+10	1	-1E+10	1
4902642	26	C	03/07/2025	06:04	-131.806	46.275	0	3342.50	0	1.5820	0	34.6590	4	27.749	0	3288.953	0	94.6	4	28.2	4	-1E+10	1	-1E+10	1	-1E+10	1	-1E+10	1	-1E+10	1	-1E+10	1
4902642	26	C	03/07/2025	06:04	-131.806	46.275	0	3343.50	0	1.5810	0	34.6590	4	27.749	0	3289.930	0	94.6	4	28.2	4	-1E+10	1	-1E+10	1	-1E+10	1	-1E+10	1	-1E+10	1	-1E+10	1
4902642	26	C	03/07/2025	06:04	-131.806	46.275	0	3344.70	0	1.5810	0	34.6590	4	27.749	0	3291.102	0	94.5	4	28.2	4	-1E+10	1	-1E+10	1	-1E+10	1	-1E+10	1	-1E+10	1	-1E+10	1
4902642	26	C	03/07/2025	06:04	-131.806	46.275	0	3345.60	0	1.5820	0	34.6590	4	27.749	0	3291.980	0	94.5	4	28.2	4	-1E+10	1	-1E+10	1	-1E+10	1	-1E+10	1	-1E+10	1	-1E+10	1
4902642	26	C	03/07/2025	06:04	-131.806	46.275	0	3346.70	0	1.5810	0	34.6590	4	27.749	0	3293.054	0	94.4	4	28.2	4	-1E+10	1	-1E+10	1	-1E+10	1	-1E+10	1	-1E+10	1	-1E+10	1
4902642	26	C	03/07/2025	06:04	-131.806	46.275	0	3347.30	0	1.5820	0	34.6590	4	27.749	0	3293.640	0	94.5	4	28.2	4	-1E+10	1	-1E+10	1	-1E+10	1	-1E+10	1	-1E+10	1	-1E+10	1
4902642	26	C	03/07/2025	06:04	-131.806	46.275	0																										
4902642	27	C	03/17/2025	02:21	-131.673	46.304	0	0.60	0	9.3287	0	32.4257	0	25.052	0	0.595	0	255.3	4	89.9	4	-1E+10	1	-1E+10	1	-1E+10	1	-1E+10	1	-1E+10	1	-1E+10	1
4902642	27	C	03/17/2025	02:21	-131.673	46.304	0	0.70	0	9.3288	0	32.4258	0	25.052	0	0.694	0	255.2	4	89.9	4	-1E+10	1	-1E+10	1	-1E+10	1	-1E+10	1	-1E+10	1	-1E+10	1
4902642	27	C	03/17/2025	02:21	-131.673	46.304	0	0.80	0	9.3270	0	32.4260	0	25.052	0	0.793	0	-1e10	1	-1e10	1	-1E+10	1	-1E+10	1	-1E+10	1	-1E+10	1	-1E+10	1	-1E+10	1
4902642	27	C	03/17/2025	02:21	-131.673	46.304	0	0.90	0	9.3370	0	32.4230	0	25.048	0	0.893	0	254.9	4	89.8	4	-1E+10	1	-1E+10	1	-1E+10	1	-1E+10	1	-1E+10	1	-1E+10	1
4902642	27	C	03/17/2025	02:21	-131.673	46.304	0	1.50	0	9.3360	0	32.4230	0	25.048	0	1.488	0	254.9	4	89.8	4	-1E+10	1	-1E+10	1	-1E+10	1	-1E+10	1	-1E+10	1	-1E+10	1
4902642	27	C	03/17/2025	02:21	-131.673	46.304	0	2.50	0	9.3360	0	32.4230	0	25.048	0	2.479	0	254.8	4	89.8	4	-1E+10	1	-1E+10	1	-1E+10	1	-1E+10	1	-1E+10	1	-1E+10	1
4902642	27	C	03/17/2025	02:21	-131.673	46.304	0	3.60	0	9.3370	0	32.4240	0	25.049	0	3.570	0	254.7	4	89.7	4	-1E+10	1	-1E+10	1	-1E+10	1	-1E+10	1	-1E+10	1	-1E+10	1
4902642	27	C	03/17/2025	02:21	-131.673	46.304	0	4.40	0	9.3360	0	32.4240	0	25.049	0	4.364	0	254.8	4	89.8	4	-1E+10	1	-1E+10	1	-1E+10	1	-1E+10	1	-1E+10	1	-1E+10	1
4902642	27	C	03/17/2025	02:21	-131.673	46.304	0	5.40	0	9.3350	0	32.4250	0	25.050	0	5.355	0	254.8	4	89.8	4	-1E+10	1	-1E+10	1	-1E+10	1	-1E+10	1	-1E+10	1	-1E+10	1
4902642	27	C	03/17/2025	02:21	-131.673	46.304	0	6.40	0	9.3330	0	32.4250	0	25.050	0	6.347	0	254.7	4	89.7	4	-1E+10	1	-1E+10	1	-1E+10	1	-1E+10	1	-1E+10	1	-1E+10	1
4902642	27	C	03/17/2025	02:21	-131.673	46.304	0	7.40	0	9.3320	0	32.4250	0	25.051	0	7.339	0	254.7	4	89.7	4	-1E+10	1	-1E+10	1	-1E+10	1	-1E+10	1	-1E+10	1	-1E+10	1
4902642	27	C	03/17/2025	02:21	-131.673	46.304	0	8.80	0	9.3340	0	32.4250	0	25.050	0	8.727	0	254.7	4	89.7	4	-1E+10	1	-1E+10	1	-1E+10	1	-1E+10	1	-1E+10	1	-1E+10	1
4902642	27	C	03/17/2025	02:21	-131.673	46.304	0	9.80	0	9.3370	0	32.4250	0	25.050	0	9.719	0	254.5	4	89.7	4	-1E+10	1	-1E+10	1	-1E+10	1	-1E+10	1	-1E+10	1	-1E+10	1
4902642	27	C	03/17/2025	02:21	-131.673	46.304	0	15.00	0	9.3370	0	32.4250	0	25.050	0	14.876	0	254.4	4	89.6	4	-1E+10	1	-1E+10	1	-1E+10	1	-1E+10	1	-1E+10	1	-1E+10	1
4902642	27	C	03/17/2025	02:21	-131.673	46.304	0	25.00	0	9.3270	0	32.4240	0	25.051	0	24.793	0	254.0	4	89.5	4	-1E+10	1	-1E+10	1	-1E+10	1	-1E+10	1	-1E+10	1	-1E+10	1
4902642	27	C	03/17/2025	02:21	-131.673	46.304	0	34.80	0	9.2810	0	32.4240	0	25.058	0	34.510	0	253.6	4	89.3	4	-1E+10	1	-1E+10	1	-1E+10	1	-1E+10	1	-1E+10	1	-1E+10	1
4902642	27	C	03/17/2025	02:21	-131.673	46.304	0	44.40	0	9.2710	0	32.4240	0	25.060	0	44.030	0	253.0	4	89.0	4	-1E+10	1	-1E+10	1	-1E+10	1	-1E+10	1	-1E+10	1	-1E+10	1
4902642	27	C	03/17/2025	02:21	-131.673	46.304	0	54.80	0	9.2690	0	32.4250	0	25.061	0	54.341	0	252.3	4	88.8	4	-1E+10	1	-1E+10	1	-1E+10	1	-1E+10	1	-1E+10	1	-1E+10	1
4902642	27	C	03/17/2025	02:21	-131.673	46.304	0	64.50	0	9.2690	0	32.4250	0	25.062	0	63.959	0	251.3	4	88.4	4	-1E+10	1	-1E+10	1	-1E+10	1	-1E+10	1	-1E+10	1	-1E+10	1
4902642	27	C	03/17/2025	02:21	-131.673	46.304	0	74.90	0	9.2710	0	32.4250	0	25.061	0	74.270	0	248.8	4	87.5	4	-1E+10	1	-1E+10	1	-1E+10	1	-1E+10	1	-1E+10	1	-1E+10	1
4902642	27	C	03/17/2025	02:21	-131.673	46.304	0	85.10	0	9.2720	0	32.4250	0	25.061	0	84.382	0	241.4	4	84.9	4	-1E+10	1	-1E+10	1	-1E+10	1	-1E+10	1	-1E+10	1	-1E+10	1
4902642	27	C	03/17/2025	02:21	-131.673	46.304	0	94.80	0	9.1270	0	32.5580	0	25.188	0	93.998	0	222.4	4	78.1	4	-1E+10	1	-1E+10	1	-1E+10	1	-1E+10	1	-1E+10	1	-1E+10	1
4902642	27	C	03/17/2025	02:21	-131.673	46.304	0	104.70	0	8.5770	0	32.9570	0	25.586	0	103.811	0	207.0	4	72.0	4	-1E+10	1	-1E+10	1	-1E+10	1	-1E+10	1	-1E+10	1	-1E+10	1
4902642	27	C	03/17/2025	02:21	-131.673	46.304	0	114.90	0	8.2640	0	33.2480	0	25.861	0	113.922	0	200.9	4	69.5	4	-1E+10	1	-1E+10	1	-1E+10	1	-1E+10	1	-1E+10	1	-1E+10	1
4902642	27	C	03/17/2025	02:21	-131.673	46.304	0	124.80	0	8.0770	0	33.4460	0	26.044	0	123.735	0	196.7	4	67.9	4	-1E+10	1	-1E+10	1	-1E+10	1	-1E+10	1	-1E+10	1	-1E+10	1
4902642	27	C	03/17/2025	02:21	-131.673	46.304	0	135.10	0	7.9300	0	33.5590	0	26.155	0	133.943	0	193.2	4	66.5	4	-1E+10	1	-1E+10	1	-1E+10	1	-1E+10	1	-1E+10	1	-1E+10	1
4902642	27	C	03/17/2025	02:21	-131.673	46.304	0	144.80	0	7.7320	0	33.6550	0	26.259	0	143.557	0	190.9	4	65.5	4	-1E+10	1	-1E+10	1	-1E+10	1	-1E+10	1	-1E+10	1	-1E+10	1
4902642	27	C	03/17/2025	02:21	-131.673	46.304	0	154.70	0	7.5950	0	33.6900	0	26.306	0	153.368	0	188.2	4	64.4	4	-1E+10	1	-1E+10	1	-1E+10	1	-1E+10	1	-1E+10	1	-1E+10	1
4902642	27	C	03/17/2025	02:21	-131.673	46.304	0	164.80	0	7.4490	0	33.7190	0	26.350	0	163.377	0	185.0	4	63.1	4	-1E+10	1	-1E+10	1	-1E+10	1	-1E+10	1	-1E+10	1	-1E+10	1
4902642	27	C	03/17/2025	02:21	-131.673	46.304	0	175.00	0	7.3190	0	33.7430	0	26.387	0	173.485	0	180.8	4	61.5	4	-1E+10	1	-1E+10	1	-1E+10	1	-1E+10	1	-1E+10	1	-1E+10	1
4902642	27	C	03/17/2025	02:21	-131.673	46.304	0	185.30	0	7.2170	0	33.7630	0	26.417	0	183.691	0	176.0	4	59.7	4	-1E+10	1	-1E+10	1	-1E+10	1	-1E+10	1	-1E+10	1	-1E+10	1
4902642	27	C	03/17/2025	02:21	-131.673	46.304	0	194.80	0	7.0570	0	33.7710	0	26.446	0	193.104	0	169.7	4	57.4	4	-1E+10	1	-1E+10	1	-1E+10	1	-1E+10	1	-1E+10	1	-1E+10	1
4902642	27	C	03/17/2025	02:21	-131.673	46.304	0	210.50	0	6.8230	0	33.7780	0	26.483	0	208.660	0	157.3	4	52.9	4	-1E+10	1	-1E+10	1	-1E+10	1	-1E+10	1	-1E+10	1	-1E+10	1
4902642	27	C	03/17/2025	02:21	-131.673	46.304	0	229.90	0	6.5120	0	33.7990	0	26.541	0	227.880	0	138.8	4	46.4	4	-1E+10	1	-1E+10	1	-1E+10	1	-1E+10	1	-1E+10	1	-1E+10	1
4902642	27	C	03/17/2025	02:21	-131.673	46.304	0	250.10	0	6.2660	0	33.8160	0	26.586	0	247.890	0	123.4	4	41.0	4	-1E+10	1	-1E+10	1	-1E+10	1	-1E+10	1	-1E+10	1	-1E+10	1
4902642	27	C	03/17/2025	02:21	-131.673	46.304	0	269.70	0	6.0430	0	33.8280	0	26.624	0	267.304	0	111.0	4	36.7	4	-1E+10	1	-1E+10	1	-1E+10	1	-1E+10	1	-1E+10	1	-1E+10	1
4902642	27	C	03/17/2025	02:21	-131.673	46.304	0	289.50	0	5.7890	0	33.8350	0	26.661	0	286.914	0	101.4	4	33.3	4	-1E+10	1	-1E+10	1	-1E+10	1	-1E+10	1	-1E+10	1	-1E+10	1
4902642	27	C	03/17/2025	02:21	-131.673	46.304	0	309.80	0	5.4960	0	33.8420	0	26.702	0	307.018	0	91.1	4	29.7	4	-1E+10	1	-1E+10	1	-1E+10	1	-1E+10	1	-1E+10	1	-1E+10	1
4902642	27	C	03/17/2025	02:21	-131.673	46.304	0	330.40	0	5.2700	0	33.8590	0	26.743	0	327.417	0	80.9	4	26.3	4	-1E+10	1	-1E+10	1	-1E+10	1	-1E+10	1	-1E+10	1	-1E+10	1
4902642	27	C	03/17/2025	02:21	-131.673	46.304	0	349.60	0	5.1500	0	33.8840	0	26.777	0	346.427	0	71.2	4	23.1	4	-1E+10	1	-1E+10	1	-1E+10	1	-1E+10	1	-1E+10	1	-1E+10	1
4902642	27	C	03/17/2025	02:21	-131.673	46.304	0	369.70	0	5.0050	0	33.9010	0	26.807	0	366.327	0	65.1	4	21.0	4	-1E+10	1	-1E+10	1	-1E+10	1	-1E+10	1	-1E+10	1	-1E+10	1
4902642	27	C	03/17/2025	02:21	-131.673	46.304	0	389.80	0	4.8530	0	33.9210	0	26.840	0	386.225	0	59.7	4	19.2	4	-1E+10	1	-1E+10	1	-1E+10	1	-1E+10	1	-1E+10	1	-1E+10	1
4902642	27	C	03/17/2025	02:21	-131.673	46.304	0	409.70	0	4.7660	0	33.9380	0	26.863	0	405.923	0	55.8	4	17.9	4	-1E+10	1	-1E+10	1	-1E+10	1	-1E+10	1	-1E+10	1	-1E+10	1
4902642	27	C	03/17/2025	02:21	-131.673	46.304	0	429.70	0	4.6920	0	33.9570	0	26.887	0	425.718	0	50.6	4	16.2	4	-1E+10	1	-1E+10	1	-1E+10	1	-1E+10	1	-1E+10	1	-1E+10	1
4902642	27	C	03/17/2025	02:21	-131.673	46.304	0	449.60	0	4.6220	0	33.9770	0	26.910	0	445.413	0	46.3	4	14.8	4	-1E+10	1	-1E+10	1	-1E+10	1	-1E+10	1	-1E+10	1	-1E+10	1
4902642	27	C	03/17/2025	02:21	-131.673	46.304	0	469.50	0	4.5800	0	33.9900	0	26.925	0	465.105	0	43.0	4	13.7	4	-1E+10	1	-1E+10	1	-1E+10	1	-1E+10	1	-1E+10	1	-1E+10	1
4902642	27	C	03/17/2025	02:21	-131.673	46.304	0	490.40	0	4.5070	0	34.0080	0	26.948	0	485.785	0	38.8	4	12.4	4	-1E+10	1	-1E+10	1	-1E+10	1	-1E+10	1	-1E+10	1	-1E+10	1
4902642	27	C	03/17/2025	02:21	-131.673	46.304	0	509.90	0	4.4490	0	34.0250	0	26.968	0	505.078	0	33.9	4	10.8	4	-1E+10	1	-1E+10	1	-1E+10	1	-1E+10	1	-1E+10	1	-1E+10	1
4902642	27	C	03/17/2025	02:21	-131.673	46.304	0	529.60	0	4.3630	0	34.0510	0	26.998	0	524.567	0	29.3	4	9.3	4	-1E+10	1	-1E+10	1	-1E+10	1	-1E+10	1	-1E+10	1	-1E+10	1
4902642	27	C	03/17/2025	02:21	-131.673	46.304	0	549.80	0	4.2990	0	34.0710	0	27.020	0	544.548	0	25.1	4	8.0	4	-1E+10	1	-1E+10	1	-1E+10	1	-1E+10	1	-1E+10	1	-1E+10	1
4902642	27	C	03/17/2025	02:21	-131.673	46.304	0	569.80	0	4.2430	0	34.0970	0	27.047	0	564.330	0	21.5	4	6.8	4	-1E+10	1	-1E+10	1	-1E+10	1	-1E+10	1	-1E+10	1	-1E+10	1
4902642	27	C	03/17/2025	02:21	-131.673	46.304	0	590.30	0	4.2240	0	34.1150	0	27.064	0	584.604	0	18.6	4	5.9	4	-1E+10	1	-1E+10	1	-1E+10	1	-1E+10	1	-1E+10	1	-1E+10	1
4902642	27	C	03/17/2025	02:21	-131.673	46.304	0	609.80	0	4.1990	0	34.1340	0	27.081	0	603.888	0	15.5	4	4.9	4	-1E+10	1	-1E+10	1	-1E+10	1	-1E+10	1	-1E+10	1	-1E+10	1
4902642	27	C	03/17/2025	02:21	-131.673	46.304	0	629.50	0	4.2120	0	34.1570	0	27.099	0	623.367	0	13.0	4	4.1	4	-1E+10	1	-1E+10	1	-1E+10	1	-1E+10	1	-1E+10	1	-1E+10	1
4902642	27	C	03/17/2025	02:21	-131.673	46.304	0	649.60	0	4.2060	0	34.1760	0	27.114	0	643.241	0	11.5	4	3.7	4	-1E+10	1	-1E+10	1	-1E+10	1	-1E+10	1	-1E+10	1	-1E+10	1
4902642	27	C	03/17/2025	02:21	-131.673	46.304	0	669.60	0	4.1830	0	34.1920	0	27.130	0	663.013	0	10.4	4	3.3	4	-1E+10	1	-1E+10	1	-1E+10	1	-1E+10	1	-1E+10	1	-1E+10	1
4902642	27	C	03/17/2025	02:21	-131.673	46.304	0	689.70	0	4.1150	0	34.2020	0	27.145	0	682.882	0	9.5	4	3.0	4	-1E+10	1	-1E+10	1	-1E+10	1	-1E+10	1	-1E+10	1	-1E+10	1
4902642	27	C	03/17/2025	02:21	-131.673	46.304	0	709.60	0	4.0840	0	34.2190	0	27.162	0	702.552	0	8.7	4	2.7	4	-1E+10	1	-1E+10	1	-1E+10	1	-1E+10	1	-1E+10	1	-1E+10	1
4902642	27	C	03/17/2025	02:21	-131.673	46.304	0	729.70	0	4.0200	0	34.2310	0	27.178	0	722.418	0	8.2	4	2.6	4	-1E+10	1	-1E+10	1	-1E+10	1	-1E+10	1	-1E+10	1	-1E+10	1
4902642	27	C	03/17/2025	02:21	-131.673	46.304	0	749.70	0	3.9680	0	34.2370	0	27.188	0	742.183	0	7.9	4	2.5	4	-1E+10	1	-1E+10	1	-1E+10	1	-1E+10	1	-1E+10	1	-1E+10	1
4902642	27	C	03/17/2025	02:21	-131.673	46.304	0	770.10	0	3.8990	0	34.2460	0	27.202	0	762.341	0	7.6	4	2.4	4	-1E+10	1	-1E+10	1	-1E+10	1	-1E+10	1	-1E+10	1	-1E+10	1
4902642	27	C	03/17/2025	02:21	-131.673	46.304	0	789.80	0	3.8180	0	34.2540	0	27.217	0	781.805	0	7.4	4	2.3	4	-1E+10	1	-1E+10	1	-1E+10	1	-1E+10	1	-1E+10	1	-1E+10	1
4902642	27	C	03/17/2025	02:21	-131.673	46.304	0	809.50	0	3.7580	0	34.2590	0	27.227	0	801.268	0	7.1	4	2.2	4	-1E+10	1	-1E+10	1	-1E+10	1	-1E+10	1	-1E+10	1	-1E+10	1
4902642	27	C	03/17/2025	02:21	-131.673	46.304	0	829.30	0	3.6910	0	34.2710	0	27.243	0	820.828	0	6.6	4	2.1	4	-1E+10	1	-1E+10	1	-1E+10	1	-1E+10	1	-1E+10	1	-1E+10	1
4902642	27	C	03/17/2025	02:21	-131.673	46.304	0	849.60	0	3.6580	0	34.2860	0	27.259	0	840.880	0	6.2	4	1.9	4	-1E+10	1	-1E+10	1	-1E+10	1	-1E+10	1	-1E+10	1	-1E+10	1
4902642	27	C	03/17/2025	02:21	-131.673	46.304	0	869.90	0	3.6280	0	34.3030	0	27.275	0	860.930	0	5.9	4	1.8	4	-1E+10	1	-1E+10	1	-1E+10	1	-1E+10	1	-1E+10	1	-1E+10	1
4902642	27	C	03/17/2025	02:21	-131.673	46.304	0	889.80	0	3.5760	0	34.3140	0	27.289	0	880.583	0	5.8	4	1.8	4	-1E+10	1	-1E+10	1	-1E+10	1	-1E+10	1	-1E+10	1	-1E+10	1
4902642	27	C	03/17/2025	02:21	-131.673	46.304	0	909.60	0	3.5280	0	34.3210	0	27.300	0	900.135	0	5.7	4	1.8	4	-1E+10	1	-1E+10	1	-1E+10	1	-1E+10	1	-1E+10	1	-1E+10	1
4902642	27	C	03/17/2025	02:21	-131.673	46.304	0	929.90	0	3.5180	0	34.3320	0	27.310	0	920.179	0	5.6	4	1.7	4	-1E+10	1	-1E+10	1	-1E+10	1	-1E+10	1	-1E+10	1	-1E+10	1
4902642	27	C	03/17/2025	02:21	-131.673	46.304	0	949.70	0	3.4980	0	34.3440	0	27.321	0	939.728	0	5.6	4	1.7	4	-1E+10	1	-1E+10	1	-1E+10	1	-1E+10	1	-1E+10	1	-1E+10	1
4902642	27	C	03/17/2025	02:21	-131.673	46.304	0	969.70	0	3.4500	0	34.3490	0	27.330	0	959.472	0	5.7	4	1.8	4	-1E+10	1	-1E+10	1	-1E+10	1	-1E+10	1	-1E+10	1	-1E+10	1
4902642	27	C	03/17/2025	02:21	-131.673	46.304	0	989.70	0	3.4250	0	34.3630	0	27.344	0	979.214	0	5.9	4	1.9	4	-1E+10	1	-1E+10	1	-1E+10	1	-1E+10	1	-1E+10	1	-1E+10	1
4902642	27	C	03/17/2025	02:21	-131.673	46.304	0	1009.30	0	3.4300	0	34.3810	0	27.358	0	998.560	0	6.3	4	2.0	4	-1E+10	1	-1E+10	1	-1E+10	1	-1E+10	1	-1E+10	1	-1E+10	1
4902642	27	C	03/17/2025	02:21	-131.673	46.304	0	1029.20	0	3.4000	0	34.3950	0	27.372	0	1018.200	0	6.7	4	2.1	4	-1E+10	1	-1E+10	1	-1E+10	1	-1E+10	1	-1E+10	1	-1E+10	1
4902642	27	C	03/17/2025	02:21	-131.673	46.304	0	1050.30	0	3.3660	0	34.4040	0	27.382	0	1039.022	0	7.3	4	2.3	4	-1E+10	1	-1E+10	1	-1E+10	1	-1E+10	1	-1E+10	1	-1E+10	1
4902642	27	C	03/17/2025	02:21	-131.673	46.304	0	1069.90	0	3.3570	0	34.4140	0	27.391	0	1058.362	0	7.8	4	2.4	4	-1E+10	1	-1E+10	1	-1E+10	1	-1E+10	1	-1E+10	1	-1E+10	1
4902642	27	C	03/17/2025	02:21	-131.673	46.304	0	1089.60	0	3.3100	0	34.4210	0	27.401	0	1077.799	0	8.2	4	2.6	4	-1E+10	1	-1E+10	1	-1E+10	1	-1E+10	1	-1E+10	1	-1E+10	1
4902642	27	C	03/17/2025	02:21	-131.673	46.304	0	1110.00	0	3.2590	0	34.4280	0	27.412	0	1097.925	0	8.7	4	2.7	4	-1E+10	1	-1E+10	1	-1E+10	1	-1E+10	1	-1E+10	1	-1E+10	1
4902642	27	C	03/17/2025	02:21	-131.673	46.304	0	1129.70	0	3.2110	0	34.4340	0	27.421	0	1117.358	0	9.2	4	2.8	4	-1E+10	1	-1E+10	1	-1E+10	1	-1E+10	1	-1E+10	1	-1E+10	1
4902642	27	C	03/17/2025	02:21	-131.673	46.304	0	1149.80	0	3.1690	0	34.4400	0	27.430	0	1137.184	0	9.6	4	3.0	4	-1E+10	1	-1E+10	1	-1E+10	1	-1E+10	1	-1E+10	1	-1E+10	1
4902642	27	C	03/17/2025	02:21	-131.673	46.304	0	1169.70	0	3.1290	0	34.4430	0	27.436	0	1156.811	0	9.9	4	3.1	4	-1E+10	1	-1E+10	1	-1E+10	1	-1E+10	1	-1E+10	1	-1E+10	1
4902642	27	C	03/17/2025	02:21	-131.673	46.304	0	1190.40	0	3.0970	0	34.4470	0	27.442	0	1177.225	0	10.3	4	3.2	4	-1E+10	1	-1E+10	1	-1E+10	1	-1E+10	1	-1E+10	1	-1E+10	1
4902642	27	C	03/17/2025	02:21	-131.673	46.304	0	1209.70	0	3.0670	0	34.4500	0	27.448	0	1196.257	0	10.8	4	3.3	4	-1E+10	1	-1E+10	1	-1E+10	1	-1E+10	1	-1E+10	1	-1E+10	1
4902642	27	C	03/17/2025	02:21	-131.673	46.304	0	1229.60	0	3.0360	0	34.4540	0	27.454	0	1215.878	0	11.3	4	3.5	4	-1E+10	1	-1E+10	1	-1E+10	1	-1E+10	1	-1E+10	1	-1E+10	1
4902642	27	C	03/17/2025	02:21	-131.673	46.304	0	1249.60	0	2.9970	0	34.4590	0	27.461	0	1235.596	0	12.0	4	3.7	4	-1E+10	1	-1E+10	1	-1E+10	1	-1E+10	1	-1E+10	1	-1E+10	1
4902642	27	C	03/17/2025	02:21	-131.673	46.304	0	1269.60	0	2.9550	0	34.4640	0	27.469	0	1255.312	0	12.7	4	3.9	4	-1E+10	1	-1E+10	1	-1E+10	1	-1E+10	1	-1E+10	1	-1E+10	1
4902642	27	C	03/17/2025	02:21	-131.673	46.304	0	1289.60	0	2.8980	0	34.4700	0	27.479	0	1275.027	0	13.7	4	4.2	4	-1E+10	1	-1E+10	1	-1E+10	1	-1E+10	1	-1E+10	1	-1E+10	1
4902642	27	C	03/17/2025	02:21	-131.673	46.304	0	1309.50	0	2.8400	0	34.4770	0	27.490	0	1294.641	0	14.5	4	4.4	4	-1E+10	1	-1E+10	1	-1E+10	1	-1E+10	1	-1E+10	1	-1E+10	1
4902642	27	C	03/17/2025	02:21	-131.673	46.304	0	1329.60	0	2.8080	0	34.4810	0	27.496	0	1314.450	0	15.1	4	4.6	4	-1E+10	1	-1E+10	1	-1E+10	1	-1E+10	1	-1E+10	1	-1E+10	1
4902642	27	C	03/17/2025	02:21	-131.673	46.304	0	1350.40	0	2.7740	0	34.4850	0	27.503	0	1334.947	0	15.9	4	4.9	4	-1E+10	1	-1E+10	1	-1E+10	1	-1E+10	1	-1E+10	1	-1E+10	1
4902642	27	C	03/17/2025	02:21	-131.673	46.304	0	1369.50	0	2.7500	0	34.4880	0	27.507	0	1353.767	0	16.6	4	5.1	4	-1E+10	1	-1E+10	1	-1E+10	1	-1E+10	1	-1E+10	1	-1E+10	1
4902642	27	C	03/17/2025	02:21	-131.673	46.304	0	1389.90	0	2.7080	0	34.4930	0	27.515	0	1373.867	0	17.7	4	5.4	4	-1E+10	1	-1E+10	1	-1E+10	1	-1E+10	1	-1E+10	1	-1E+10	1
4902642	27	C	03/17/2025	02:21	-131.673	46.304	0	1409.70	0	2.6670	0	34.4990	0	27.523	0	1393.373	0	18.7	4	5.7	4	-1E+10	1	-1E+10	1	-1E+10	1	-1E+10	1	-1E+10	1	-1E+10	1
4902642	27	C	03/17/2025	02:21	-131.673	46.304	0	1429.70	0	2.6390	0	34.5020	0	27.528	0	1413.074	0	19.5	4	6.0	4	-1E+10	1	-1E+10	1	-1E+10	1	-1E+10	1	-1E+10	1	-1E+10	1
4902642	27	C	03/17/2025	02:21	-131.673	46.304	0	1450.40	0	2.6060	0	34.5060	0	27.534	0	1433.463	0	20.5	4	6.3	4	-1E+10	1	-1E+10	1	-1E+10	1	-1E+10	1	-1E+10	1	-1E+10	1
4902642	27	C	03/17/2025	02:21	-131.673	46.304	0	1469.80	0	2.5790	0	34.5090	0	27.539	0	1452.570	0	21.4	4	6.5	4	-1E+10	1	-1E+10	1	-1E+10	1	-1E+10	1	-1E+10	1	-1E+10	1
4902642	27	C	03/17/2025	02:21	-131.673	46.304	0	1489.80	0	2.5460	0	34.5130	0	27.545	0	1472.266	0	22.6	4	6.9	4	-1E+10	1	-1E+10	1	-1E+10	1	-1E+10	1	-1E+10	1	-1E+10	1
4902642	27	C	03/17/2025	02:21	-131.673	46.304	0	1509.60	0	2.5060	0	34.5180	0	27.553	0	1491.763	0	23.7	4	7.2	4	-1E+10	1	-1E+10	1	-1E+10	1	-1E+10	1	-1E+10	1	-1E+10	1
4902642	27	C	03/17/2025	02:21	-131.673	46.304	0	1529.70	0	2.4730	0	34.5220	0	27.559	0	1511.554	0	24.7	4	7.5	4	-1E+10	1	-1E+10	1	-1E+10	1	-1E+10	1	-1E+10	1	-1E+10	1
4902642	27	C	03/17/2025	02:21	-131.673	46.304	0	1550.30	0	2.4520	0	34.5250	0	27.563	0	1531.835	0	25.7	4	7.8	4	-1E+10	1	-1E+10	1	-1E+10	1	-1E+10	1	-1E+10	1	-1E+10	1
4902642	27	C	03/17/2025	02:21	-131.673	46.304	0	1569.40	0	2.4210	0	34.5280	0	27.568	0	1550.637	0	26.9	4	8.2	4	-1E+10	1	-1E+10	1	-1E+10	1	-1E+10	1	-1E+10	1	-1E+10	1
4902642	27	C	03/17/2025	02:21	-131.673	46.304	0	1589.50	0	2.3820	0	34.5330	0	27.575	0	1570.423	0	28.3	4	8.6	4	-1E+10	1	-1E+10	1	-1E+10	1	-1E+10	1	-1E+10	1	-1E+10	1
4902642	27	C	03/17/2025	02:21	-131.673	46.304	0	1609.50	0	2.3370	0	34.5370	0	27.582	0	1590.108	0	29.6	4	9.0	4	-1E+10	1	-1E+10	1	-1E+10	1	-1E+10	1	-1E+10	1	-1E+10	1
4902642	27	C	03/17/2025	02:21	-131.673	46.304	0	1629.40	0	2.3110	0	34.5400	0	27.587	0	1609.692	0	30.6	4	9.3	4	-1E+10	1	-1E+10	1	-1E+10	1	-1E+10	1	-1E+10	1	-1E+10	1
4902642	27	C	03/17/2025	02:21	-131.673	46.304	0	1649.60	0	2.2850	0	34.5440	0	27.592	0	1629.570	0	31.5	4	9.6	4	-1E+10	1	-1E+10	1	-1E+10	1	-1E+10	1	-1E+10	1	-1E+10	1
4902642	27	C	03/17/2025	02:21	-131.673	46.304	0	1669.80	0	2.2670	0	34.5460	0	27.596	0	1649.446	0	32.2	4	9.8	4	-1E+10	1	-1E+10	1	-1E+10	1	-1E+10	1	-1E+10	1	-1E+10	1
4902642	27	C	03/17/2025	02:21	-131.673	46.304	0	1689.80	0	2.2520	0	34.5480	0	27.599	0	1669.124	0	33.0	4	10.0	4	-1E+10	1	-1E+10	1	-1E+10	1	-1E+10	1	-1E+10	1	-1E+10	1
4902642	27	C	03/17/2025	02:21	-131.673	46.304	0	1709.60	0	2.2290	0	34.5510	0	27.603	0	1688.603	0	34.0	4	10.3	4	-1E+10	1	-1E+10	1	-1E+10	1	-1E+10	1	-1E+10	1	-1E+10	1
4902642	27	C	03/17/2025	02:21	-131.673	46.304	0	1729.60	0	2.2120	0	34.5530	0	27.606	0	1708.277	0	35.2	4	10.7	4	-1E+10	1	-1E+10	1	-1E+10	1	-1E+10	1	-1E+10	1	-1E+10	1
4902642	27	C	03/17/2025	02:21	-131.673	46.304	0	1749.60	0	2.1870	0	34.5570	0	27.611	0	1727.949	0	36.4	4	11.0	4	-1E+10	1	-1E+10	1	-1E+10	1	-1E+10	1	-1E+10	1	-1E+10	1
4902642	27	C	03/17/2025	02:21	-131.673	46.304	0	1769.60	0	2.1670	0	34.5600	0	27.615	0	1747.619	0	37.2	4	11.3	4	-1E+10	1	-1E+10	1	-1E+10	1	-1E+10	1	-1E+10	1	-1E+10	1
4902642	27	C	03/17/2025	02:21	-131.673	46.304	0	1789.60	0	2.1480	0	34.5620	0	27.619	0	1767.287	0	38.0	4	11.5	4	-1E+10	1	-1E+10	1	-1E+10	1	-1E+10	1	-1E+10	1	-1E+10	1
4902642	27	C	03/17/2025	02:21	-131.673	46.304	0	1809.40	0	2.1300	0	34.5640	0	27.622	0	1786.757	0	39.0	4	11.8	4	-1E+10	1	-1E+10	1	-1E+10	1	-1E+10	1	-1E+10	1	-1E+10	1
4902642	27	C	03/17/2025	02:21	-131.673	46.304	0	1829.60	0	2.1040	0	34.5680	0	27.627	0	1806.619	0	40.7	4	12.3	4	-1E+10	1	-1E+10	1	-1E+10	1	-1E+10	1	-1E+10	1	-1E+10	1
4902642	27	C	03/17/2025	02:21	-131.673	46.304	0	1849.20	0	2.0810	0	34.5720	0	27.632	0	1825.888	0	41.9	4	12.7	4	-1E+10	1	-1E+10	1	-1E+10	1	-1E+10	1	-1E+10	1	-1E+10	1
4902642	27	C	03/17/2025	02:21	-131.673	46.304	0	1869.90	0	2.0690	0	34.5740	0	27.635	0	1846.238	0	42.7	4	12.9	4	-1E+10	1	-1E+10	1	-1E+10	1	-1E+10	1	-1E+10	1	-1E+10	1
4902642	27	C	03/17/2025	02:21	-131.673	46.304	0	1889.60	0	2.0580	0	34.5760	0	27.638	0	1865.602	0	43.4	4	13.1	4	-1E+10	1	-1E+10	1	-1E+10	1	-1E+10	1	-1E+10	1	-1E+10	1
4902642	27	C	03/17/2025	02:21	-131.673	46.304	0	1909.80	0	2.0460	0	34.5780	0	27.640	0	1885.456	0	44.3	4	13.4	4	-1E+10	1	-1E+10	1	-1E+10	1	-1E+10	1	-1E+10	1	-1E+10	1
4902642	27	C	03/17/2025	02:21	-131.673	46.304	0	1929.90	0	2.0320	0	34.5800	0	27.643	0	1905.210	0	45.2	4	13.7	4	-1E+10	1	-1E+10	1	-1E+10	1	-1E+10	1	-1E+10	1	-1E+10	1
4902642	27	C	03/17/2025	02:21	-131.673	46.304	0	1949.70	0	2.0170	0	34.5820	0	27.646	0	1924.667	0	46.3	4	14.0	4	-1E+10	1	-1E+10	1	-1E+10	1	-1E+10	1	-1E+10	1	-1E+10	1
4902642	27	C	03/17/2025	02:21	-131.673	46.304	0	1970.20	0	2.0010	0	34.5850	0	27.650	0	1944.810	0	47.4	4	14.3	4	-1E+10	1	-1E+10	1	-1E+10	1	-1E+10	1	-1E+10	1	-1E+10	1
4902642	27	C	03/17/2025	02:21	-131.673	46.304	0	1989.30	0	1.9860	0	34.5870	0	27.652	0	1963.576	0	48.4	4	14.6	4	-1E+10	1	-1E+10	1	-1E+10	1	-1E+10	1	-1E+10	1	-1E+10	1
4902642	27	C	03/17/2025	02:21	-131.673	46.304	0	2009.60	0	1.9710	0	34.5900	4	27.656	0	1983.519	0	49.4	4	14.9	4	-1E+10	1	-1E+10	1	-1E+10	1	-1E+10	1	-1E+10	1	-1E+10	1
4902642	27	C	03/17/2025	02:21	-131.673	46.304	0	2029.80	0	1.9580	0	34.5920	4	27.659	0	2003.362	0	50.5	4	15.2	4	-1E+10	1	-1E+10	1	-1E+10	1	-1E+10	1	-1E+10	1	-1E+10	1
4902642	27	C	03/17/2025	02:21	-131.673	46.304	0	2049.90	0	1.9430	0	34.5940	4	27.662	0	2023.105	0	51.4	4	15.5	4	-1E+10	1	-1E+10	1	-1E+10	1	-1E+10	1	-1E+10	1	-1E+10	1
4902642	27	C	03/17/2025	02:21	-131.673	46.304	0	2069.80	0	1.9350	0	34.5960	4	27.664	0	2042.650	0	52.2	4	15.7	4	-1E+10	1	-1E+10	1	-1E+10	1	-1E+10	1	-1E+10	1	-1E+10	1
4902642	27	C	03/17/2025	02:21	-131.673	46.304	0	2089.70	0	1.9240	0	34.5980	4	27.667	0	2062.193	0	53.1	4	16.0	4	-1E+10	1	-1E+10	1	-1E+10	1	-1E+10	1	-1E+10	1	-1E+10	1
4902642	27	C	03/17/2025	02:21	-131.673	46.304	0	2109.70	0	1.9160	0	34.5990	4	27.668	0	2081.832	0	53.9	4	16.2	4	-1E+10	1	-1E+10	1	-1E+10	1	-1E+10	1	-1E+10	1	-1E+10	1
4902642	27	C	03/17/2025	02:21	-131.673	46.304	0	2130.00	0	1.9050	0	34.6020	4	27.672	0	2101.764	0	54.8	4	16.5	4	-1E+10	1	-1E+10	1	-1E+10	1	-1E+10	1	-1E+10	1	-1E+10	1
4902642	27	C	03/17/2025	02:21	-131.673	46.304	0	2149.90	0	1.8940	0	34.6030	4	27.673	0	2121.301	0	55.7	4	16.8	4	-1E+10	1	-1E+10	1	-1E+10	1	-1E+10	1	-1E+10	1	-1E+10	1
4902642	27	C	03/17/2025	02:21	-131.673	46.304	0	2169.60	0	1.8850	0	34.6050	4	27.676	0	2140.641	0	56.5	4	17.0	4	-1E+10	1	-1E+10	1	-1E+10	1	-1E+10	1	-1E+10	1	-1E+10	1
4902642	27	C	03/17/2025	02:21	-131.673	46.304	0	2189.80	0	1.8770	0	34.6070	4	27.678	0	2160.469	0	57.3	4	17.2	4	-1E+10	1	-1E+10	1	-1E+10	1	-1E+10	1	-1E+10	1	-1E+10	1
4902642	27	C	03/17/2025	02:21	-131.673	46.304	0	2209.70	0	1.8700	0	34.6080	4	27.679	0	2180.001	0	57.9	4	17.4	4	-1E+10	1	-1E+10	1	-1E+10	1	-1E+10	1	-1E+10	1	-1E+10	1
4902642	27	C	03/17/2025	02:21	-131.673	46.304	0	2230.30	0	1.8630	0	34.6090	4	27.681	0	2200.219	0	58.6	4	17.6	4	-1E+10	1	-1E+10	1	-1E+10	1	-1E+10	1	-1E+10	1	-1E+10	1
4902642	27	C	03/17/2025	02:21	-131.673	46.304	0	2249.80	0	1.8500	0	34.6110	4	27.684	0	2219.355	0	59.7	4	17.9	4	-1E+10	1	-1E+10	1	-1E+10	1	-1E+10	1	-1E+10	1	-1E+10	1
4902642	27	C	03/17/2025	02:21	-131.673	46.304	0	2270.30	0	1.8380	0	34.6130	4	27.686	0	2239.470	0	60.6	4	18.2	4	-1E+10	1	-1E+10	1	-1E+10	1	-1E+10	1	-1E+10	1	-1E+10	1
4902642	27	C	03/17/2025	02:21	-131.673	46.304	0	2289.80	0	1.8310	0	34.6140	4	27.688	0	2258.602	0	61.2	4	18.4	4	-1E+10	1	-1E+10	1	-1E+10	1	-1E+10	1	-1E+10	1	-1E+10	1
4902642	27	C	03/17/2025	02:21	-131.673	46.304	0	2309.70	0	1.8250	0	34.6150	4	27.689	0	2278.126	0	62.0	4	18.6	4	-1E+10	1	-1E+10	1	-1E+10	1	-1E+10	1	-1E+10	1	-1E+10	1
4902642	27	C	03/17/2025	02:21	-131.673	46.304	0	2329.60	0	1.8140	0	34.6170	4	27.692	0	2297.647	0	63.0	4	18.9	4	-1E+10	1	-1E+10	1	-1E+10	1	-1E+10	1	-1E+10	1	-1E+10	1
4902642	27	C	03/17/2025	02:21	-131.673	46.304	0	2349.90	0	1.8080	0	34.6180	4	27.693	0	2317.559	0	63.7	4	19.1	4	-1E+10	1	-1E+10	1	-1E+10	1	-1E+10	1	-1E+10	1	-1E+10	1
4902642	27	C	03/17/2025	02:21	-131.673	46.304	0	2369.70	0	1.8030	0	34.6190	4	27.694	0	2336.978	0	64.2	4	19.3	4	-1E+10	1	-1E+10	1	-1E+10	1	-1E+10	1	-1E+10	1	-1E+10	1
4902642	27	C	03/17/2025	02:21	-131.673	46.304	0	2388.80	0	1.7990	0	34.6200	4	27.695	0	2355.710	0	64.8	4	19.4	4	-1E+10	1	-1E+10	1	-1E+10	1	-1E+10	1	-1E+10	1	-1E+10	1
4902642	27	C	03/17/2025	02:21	-131.673	46.304	0	2409.70	0	1.7910	0	34.6210	4	27.697	0	2376.205	0	65.5	4	19.7	4	-1E+10	1	-1E+10	1	-1E+10	1	-1E+10	1	-1E+10	1	-1E+10	1
4902642	27	C	03/17/2025	02:21	-131.673	46.304	0	2429.50	0	1.7860	0	34.6220	4	27.698	0	2395.619	0	66.0	4	19.8	4	-1E+10	1	-1E+10	1	-1E+10	1	-1E+10	1	-1E+10	1	-1E+10	1
4902642	27	C	03/17/2025	02:21	-131.673	46.304	0	2449.70	0	1.7830	0	34.6220	4	27.699	0	2415.424	0	66.5	4	19.9	4	-1E+10	1	-1E+10	1	-1E+10	1	-1E+10	1	-1E+10	1	-1E+10	1
4902642	27	C	03/17/2025	02:21	-131.673	46.304	0	2469.80	0	1.7790	0	34.6230	4	27.700	0	2435.129	0	67.0	4	20.1	4	-1E+10	1	-1E+10	1	-1E+10	1	-1E+10	1	-1E+10	1	-1E+10	1
4902642	27	C	03/17/2025	02:21	-131.673	46.304	0	2489.90	0	1.7740	0	34.6240	4	27.701	0	2454.832	0	67.5	4	20.2	4	-1E+10	1	-1E+10	1	-1E+10	1	-1E+10	1	-1E+10	1	-1E+10	1
4902642	27	C	03/17/2025	02:21	-131.673	46.304	0	2509.90	0	1.7700	0	34.6240	4	27.702	0	2474.435	0	67.9	4	20.4	4	-1E+10	1	-1E+10	1	-1E+10	1	-1E+10	1	-1E+10	1	-1E+10	1
4902642	27	C	03/17/2025	02:21	-131.673	46.304	0	2530.30	0	1.7680	0	34.6250	4	27.703	0	2494.429	0	68.3	4	20.5	4	-1E+10	1	-1E+10	1	-1E+10	1	-1E+10	1	-1E+10	1	-1E+10	1
4902642	27	C	03/17/2025	02:21	-131.673	46.304	0	2549.60	0	1.7650	0	34.6250	4	27.703	0	2513.342	0	68.7	4	20.6	4	-1E+10	1	-1E+10	1	-1E+10	1	-1E+10	1	-1E+10	1	-1E+10	1
4902642	27	C	03/17/2025	02:21	-131.673	46.304	0	2569.50	0	1.7620	0	34.6260	4	27.704	0	2532.842	0	69.1	4	20.7	4	-1E+10	1	-1E+10	1	-1E+10	1	-1E+10	1	-1E+10	1	-1E+10	1
4902642	27	C	03/17/2025	02:21	-131.673	46.304	0	2589.40	0	1.7590	0	34.6260	4	27.705	0	2552.340	0	69.5	4	20.8	4	-1E+10	1	-1E+10	1	-1E+10	1	-1E+10	1	-1E+10	1	-1E+10	1
4902642	27	C	03/17/2025	02:21	-131.673	46.304	0	2609.40	0	1.7530	0	34.6270	4	27.706	0	2571.935	0	70.3	4	21.1	4	-1E+10	1	-1E+10	1	-1E+10	1	-1E+10	1	-1E+10	1	-1E+10	1
4902642	27	C	03/17/2025	02:21	-131.673	46.304	0	2629.40	0	1.7460	0	34.6280	4	27.707	0	2591.527	0	71.1	4	21.3	4	-1E+10	1	-1E+10	1	-1E+10	1	-1E+10	1	-1E+10	1	-1E+10	1
4902642	27	C	03/17/2025	02:21	-131.673	46.304	0	2649.70	0	1.7370	0	34.6290	4	27.709	0	2611.412	0	72.0	4	21.6	4	-1E+10	1	-1E+10	1	-1E+10	1	-1E+10	1	-1E+10	1	-1E+10	1
4902642	27	C	03/17/2025	02:21	-131.673	46.304	0	2669.20	0	1.7290	0	34.6310	4	27.711	0	2630.511	0	72.8	4	21.8	4	-1E+10	1	-1E+10	1	-1E+10	1	-1E+10	1	-1E+10	1	-1E+10	1
4902642	27	C	03/17/2025	02:21	-131.673	46.304	0	2690.00	0	1.7210	0	34.6320	4	27.713	0	2650.882	0	73.8	4	22.1	4	-1E+10	1	-1E+10	1	-1E+10	1	-1E+10	1	-1E+10	1	-1E+10	1
4902642	27	C	03/17/2025	02:21	-131.673	46.304	0	2709.80	0	1.7120	0	34.6330	4	27.714	0	2670.272	0	74.8	4	22.4	4	-1E+10	1	-1E+10	1	-1E+10	1	-1E+10	1	-1E+10	1	-1E+10	1
4902642	27	C	03/17/2025	02:21	-131.673	46.304	0	2729.80	0	1.7040	0	34.6340	4	27.716	0	2689.855	0	75.7	4	22.7	4	-1E+10	1	-1E+10	1	-1E+10	1	-1E+10	1	-1E+10	1	-1E+10	1
4902642	27	C	03/17/2025	02:21	-131.673	46.304	0	2749.90	0	1.6970	0	34.6350	4	27.717	0	2709.535	0	76.7	4	22.9	4	-1E+10	1	-1E+10	1	-1E+10	1	-1E+10	1	-1E+10	1	-1E+10	1
4902642	27	C	03/17/2025	02:21	-131.673	46.304	0	2769.60	0	1.6880	0	34.6370	4	27.720	0	2728.822	0	77.7	4	23.2	4	-1E+10	1	-1E+10	1	-1E+10	1	-1E+10	1	-1E+10	1	-1E+10	1
4902642	27	C	03/17/2025	02:21	-131.673	46.304	0	2789.50	0	1.6810	0	34.6380	4	27.721	0	2748.302	0	78.3	4	23.4	4	-1E+10	1	-1E+10	1	-1E+10	1	-1E+10	1	-1E+10	1	-1E+10	1
4902642	27	C	03/17/2025	02:21	-131.673	46.304	0	2809.60	0	1.6790	0	34.6380	4	27.721	0	2767.977	0	78.7	4	23.6	4	-1E+10	1	-1E+10	1	-1E+10	1	-1E+10	1	-1E+10	1	-1E+10	1
4902642	27	C	03/17/2025	02:21	-131.673	46.304	0	2829.80	0	1.6730	0	34.6390	4	27.723	0	2787.747	0	79.6	4	23.8	4	-1E+10	1	-1E+10	1	-1E+10	1	-1E+10	1	-1E+10	1	-1E+10	1
4902642	27	C	03/17/2025	02:21	-131.673	46.304	0	2850.10	0	1.6680	0	34.6400	4	27.724	0	2807.614	0	80.2	4	24.0	4	-1E+10	1	-1E+10	1	-1E+10	1	-1E+10	1	-1E+10	1	-1E+10	1
4902642	27	C	03/17/2025	02:21	-131.673	46.304	0	2870.10	0	1.6660	0	34.6410	4	27.725	0	2827.185	0	80.8	4	24.2	4	-1E+10	1	-1E+10	1	-1E+10	1	-1E+10	1	-1E+10	1	-1E+10	1
4902642	27	C	03/17/2025	02:21	-131.673	46.304	0	2889.60	0	1.6610	0	34.6420	4	27.726	0	2846.265	0	81.5	4	24.4	4	-1E+10	1	-1E+10	1	-1E+10	1	-1E+10	1	-1E+10	1	-1E+10	1
4902642	27	C	03/17/2025	02:21	-131.673	46.304	0	2909.80	0	1.6570	0	34.6420	4	27.727	0	2866.029	0	82.0	4	24.5	4	-1E+10	1	-1E+10	1	-1E+10	1	-1E+10	1	-1E+10	1	-1E+10	1
4902642	27	C	03/17/2025	02:21	-131.673	46.304	0	2929.70	0	1.6550	0	34.6430	4	27.728	0	2885.497	0	82.6	4	24.7	4	-1E+10	1	-1E+10	1	-1E+10	1	-1E+10	1	-1E+10	1	-1E+10	1
4902642	27	C	03/17/2025	02:21	-131.673	46.304	0	2949.70	0	1.6510	0	34.6440	4	27.729	0	2905.061	0	83.2	4	24.9	4	-1E+10	1	-1E+10	1	-1E+10	1	-1E+10	1	-1E+10	1	-1E+10	1
4902642	27	C	03/17/2025	02:21	-131.673	46.304	0	2969.60	0	1.6470	0	34.6450	4	27.730	0	2924.525	0	83.8	4	25.1	4	-1E+10	1	-1E+10	1	-1E+10	1	-1E+10	1	-1E+10	1	-1E+10	1
4902642	27	C	03/17/2025	02:21	-131.673	46.304	0	2990.40	0	1.6420	0	34.6450	4	27.731	0	2944.868	0	84.6	4	25.3	4	-1E+10	1	-1E+10	1	-1E+10	1	-1E+10	1	-1E+10	1	-1E+10	1
4902642	27	C	03/17/2025	02:21	-131.673	46.304	0	3009.80	0	1.6380	0	34.6460	4	27.732	0	2963.841	0	85.3	4	25.5	4	-1E+10	1	-1E+10	1	-1E+10	1	-1E+10	1	-1E+10	1	-1E+10	1
4902642	27	C	03/17/2025	02:21	-131.673	46.304	0	3030.40	0	1.6320	0	34.6480	4	27.734	0	2983.984	0	86.1	4	25.7	4	-1E+10	1	-1E+10	1	-1E+10	1	-1E+10	1	-1E+10	1	-1E+10	1
4902642	27	C	03/17/2025	02:21	-131.673	46.304	0	3051.00	0	1.6290	0	34.6480	4	27.735	0	3004.126	0	86.6	4	25.9	4	-1E+10	1	-1E+10	1	-1E+10	1	-1E+10	1	-1E+10	1	-1E+10	1
4902642	27	C	03/17/2025	02:21	-131.673	46.304	0	3070.00	0	1.6270	0	34.6490	4	27.736	0	3022.702	0	87.1	4	26.0	4	-1E+10	1	-1E+10	1	-1E+10	1	-1E+10	1	-1E+10	1	-1E+10	1
4902642	27	C	03/17/2025	02:21	-131.673	46.304	0	3090.00	0	1.6220	0	34.6490	4	27.736	0	3042.254	0	87.9	4	26.3	4	-1E+10	1	-1E+10	1	-1E+10	1	-1E+10	1	-1E+10	1	-1E+10	1
4902642	27	C	03/17/2025	02:21	-131.673	46.304	0	3110.00	0	1.6160	0	34.6500	4	27.738	0	3061.804	0	88.8	4	26.5	4	-1E+10	1	-1E+10	1	-1E+10	1	-1E+10	1	-1E+10	1	-1E+10	1
4902642	27	C	03/17/2025	02:21	-131.673	46.304	0	3130.10	0	1.6130	0	34.6510	4	27.739	0	3081.450	0	89.5	4	26.7	4	-1E+10	1	-1E+10	1	-1E+10	1	-1E+10	1	-1E+10	1	-1E+10	1
4902642	27	C	03/17/2025	02:21	-131.673	46.304	0	3149.80	0	1.6050	0	34.6520	4	27.740	0	3100.703	0	90.6	4	27.1	4	-1E+10	1	-1E+10	1	-1E+10	1	-1E+10	1	-1E+10	1	-1E+10	1
4902642	27	C	03/17/2025	02:21	-131.673	46.304	0	3169.60	0	1.5980	0	34.6540	4	27.742	0	3120.053	0	91.7	4	27.4	4	-1E+10	1	-1E+10	1	-1E+10	1	-1E+10	1	-1E+10	1	-1E+10	1
4902642	27	C	03/17/2025	02:21	-131.673	46.304	0	3189.60	0	1.5920	0	34.6550	4	27.744	0	3139.596	0	92.6	4	27.7	4	-1E+10	1	-1E+10	1	-1E+10	1	-1E+10	1	-1E+10	1	-1E+10	1
4902642	27	C	03/17/2025	02:21	-131.673	46.304	0	3203.20	0	1.5870	0	34.6560	4	27.745	0	3152.884	0	93.3	4	27.9	4	-1E+10	1	-1E+10	1	-1E+10	1	-1E+10	1	-1E+10	1	-1E+10	1
4902642	27	C	03/17/2025	02:21	-131.673	46.304	0	3207.60	0	1.5860	0	34.6560	4	27.745	0	3157.183	0	93.5	4	27.9	4	-1E+10	1	-1E+10	1	-1E+10	1	-1E+10	1	-1E+10	1	-1E+10	1
4902642	27	C	03/17/2025	02:21	-131.673	46.304	0	3208.80	0	1.5860	0	34.6560	4	27.745	0	3158.355	0	93.6	4	27.9	4	-1E+10	1	-1E+10	1	-1E+10	1	-1E+10	1	-1E+10	1	-1E+10	1
4902642	27	C	03/17/2025	02:21	-131.673	46.304	0	3209.60	0	1.5850	0	34.6570	4	27.746	0	3159.137	0	93.6	4	28.0	4	-1E+10	1	-1E+10	1	-1E+10	1	-1E+10	1	-1E+10	1	-1E+10	1
4902642	27	C	03/17/2025	02:21	-131.673	46.304	0	3210.40	0	1.5840	0	34.6570	4	27.746	0	3159.918	0	93.6	4	27.9	4	-1E+10	1	-1E+10	1	-1E+10	1	-1E+10	1	-1E+10	1	-1E+10	1
4902642	27	C	03/17/2025	02:21	-131.673	46.304	0	3211.20	0	1.5840	0	34.6570	4	27.746	0	3160.700	0	93.7	4	28.0	4	-1E+10	1	-1E+10	1	-1E+10	1	-1E+10	1	-1E+10	1	-1E+10	1
4902642	27	C	03/17/2025	02:21	-131.673	46.304	0	3212.50	0	1.5840	0	34.6570	4	27.746	0	3161.970	0	93.7	4	28.0	4	-1E+10	1	-1E+10	1	-1E+10	1	-1E+10	1	-1E+10	1	-1E+10	1
4902642	27	C	03/17/2025	02:21	-131.673	46.304	0	3213.60	0	1.5840	0	34.6560	4	27.745	0	3163.045	0	93.7	4	28.0	4	-1E+10	1	-1E+10	1	-1E+10	1	-1E+10	1	-1E+10	1	-1E+10	1
4902642	27	C	03/17/2025	02:21	-131.673	46.304	0	3214.50	0	1.5840	0	34.6560	4	27.745	0	3163.924	0	93.8	4	28.0	4	-1E+10	1	-1E+10	1	-1E+10	1	-1E+10	1	-1E+10	1	-1E+10	1
4902642	27	C	03/17/2025	02:21	-131.673	46.304	0	3215.30	0	1.5840	0	34.6570	4	27.746	0	3164.706	0	93.8	4	28.0	4	-1E+10	1	-1E+10	1	-1E+10	1	-1E+10	1	-1E+10	1	-1E+10	1
4902642	27	C	03/17/2025	02:21	-131.673	46.304	0	3216.50	0	1.5840	0	34.6570	4	27.746	0	3165.878	0	93.9	4	28.0	4	-1E+10	1	-1E+10	1	-1E+10	1	-1E+10	1	-1E+10	1	-1E+10	1
4902642	27	C	03/17/2025	02:21	-131.673	46.304	0	3217.70	0	1.5840	0	34.6570	4	27.746	0	3167.051	0	93.9	4	28.0	4	-1E+10	1	-1E+10	1	-1E+10	1	-1E+10	1	-1E+10	1	-1E+10	1
4902642	27	C	03/17/2025	02:21	-131.673	46.304	0	3218.60	0	1.5840	0	34.6570	4	27.746	0	3167.930	0	94.0	4	28.1	4	-1E+10	1	-1E+10	1	-1E+10	1	-1E+10	1	-1E+10	1	-1E+10	1
4902642	27	C	03/17/2025	02:21	-131.673	46.304	0	3219.30	0	1.5830	0	34.6570	4	27.746	0	3168.614	0	94.1	4	28.1	4	-1E+10	1	-1E+10	1	-1E+10	1	-1E+10	1	-1E+10	1	-1E+10	1
4902642	27	C	03/17/2025	02:21	-131.673	46.304	0	3220.50	0	1.5830	0	34.6570	4	27.746	0	3169.786	0	94.1	4	28.1	4	-1E+10	1	-1E+10	1	-1E+10	1	-1E+10	1	-1E+10	1	-1E+10	1
4902642	27	C	03/17/2025	02:21	-131.673	46.304	0	3221.80	0	1.5830	0	34.6570	4	27.746	0	3171.056	0	94.3	4	28.1	4	-1E+10	1	-1E+10	1	-1E+10	1	-1E+10	1	-1E+10	1	-1E+10	1
4902642	27	C	03/17/2025	02:21	-131.673	46.304	0	3222.50	0	1.5820	0	34.6570	4	27.746	0	3171.740	0	94.3	4	28.2	4	-1E+10	1	-1E+10	1	-1E+10	1	-1E+10	1	-1E+10	1	-1E+10	1
4902642	27	C	03/17/2025	02:21	-131.673	46.304	0	3223.50	0	1.5820	0	34.6570	4	27.746	0	3172.717	0	94.4	4	28.2	4	-1E+10	1	-1E+10	1	-1E+10	1	-1E+10	1	-1E+10	1	-1E+10	1
4902642	27	C	03/17/2025	02:21	-131.673	46.304	0	3224.30	0	1.5810	0	34.6570	4	27.746	0	3173.499	0	94.5	4	28.2	4	-1E+10	1	-1E+10	1	-1E+10	1	-1E+10	1	-1E+10	1	-1E+10	1
4902642	27	C	03/17/2025	02:21	-131.673	46.304	0	3225.60	0	1.5800	0	34.6570	4	27.746	0	3174.769	0	94.6	4	28.2	4	-1E+10	1	-1E+10	1	-1E+10	1	-1E+10	1	-1E+10	1	-1E+10	1
4902642	27	C	03/17/2025	02:21	-131.673	46.304	0	3226.80	0	1.5790	0	34.6570	4	27.747	0	3175.941	0	94.7	4	28.3	4	-1E+10	1	-1E+10	1	-1E+10	1	-1E+10	1	-1E+10	1	-1E+10	1
4902642	27	C	03/17/2025	02:21	-131.673	46.304	0	3227.70	0	1.5790	0	34.6570	4	27.747	0	3176.820	0	94.7	4	28.3	4	-1E+10	1	-1E+10	1	-1E+10	1	-1E+10	1	-1E+10	1	-1E+10	1
4902642	27	C	03/17/2025	02:21	-131.673	46.304	0	3228.50	0	1.5770	0	34.6580	4	27.747	0	3177.602	0	94.8	4	28.3	4	-1E+10	1	-1E+10	1	-1E+10	1	-1E+10	1	-1E+10	1	-1E+10	1
4902642	27	C	03/17/2025	02:21	-131.673	46.304	0	3229.20	0	1.5760	0	34.6590	4	27.748	0	3178.286	0	94.9	4	28.3	4	-1E+10	1	-1E+10	1	-1E+10	1	-1E+10	1	-1E+10	1	-1E+10	1
4902642	27	C	03/17/2025	02:21	-131.673	46.304	0	3230.60	0	1.5750	0	34.6580	4	27.748	0	3179.654	0	95.0	4	28.3	4	-1E+10	1	-1E+10	1	-1E+10	1	-1E+10	1	-1E+10	1	-1E+10	1
4902642	27	C	03/17/2025	02:21	-131.673	46.304	0	3231.80	0	1.5740	0	34.6590	4	27.749	0	3180.826	0	95.0	4	28.4	4	-1E+10	1	-1E+10	1	-1E+10	1	-1E+10	1	-1E+10	1	-1E+10	1
4902642	27	C	03/17/2025	02:21	-131.673	46.304	0	3232.70	0	1.5740	0	34.6580	4	27.748	0	3181.705	0	95.1	4	28.4	4	-1E+10	1	-1E+10	1	-1E+10	1	-1E+10	1	-1E+10	1	-1E+10	1
4902642	27	C	03/17/2025	02:21	-131.673	46.304	0	3233.50	0	1.5740	0	34.6580	4	27.748	0	3182.487	0	95.1	4	28.4	4	-1E+10	1	-1E+10	1	-1E+10	1	-1E+10	1	-1E+10	1	-1E+10	1
4902642	27	C	03/17/2025	02:21	-131.673	46.304	0	3234.30	0	1.5740	0	34.6590	4	27.749	0	3183.268	0	95.1	4	28.4	4	-1E+10	1	-1E+10	1	-1E+10	1	-1E+10	1	-1E+10	1	-1E+10	1
4902642	27	C	03/17/2025	02:21	-131.673	46.304	0	3235.60	0	1.5730	0	34.6590	4	27.749	0	3184.538	0	95.1	4	28.4	4	-1E+10	1	-1E+10	1	-1E+10	1	-1E+10	1	-1E+10	1	-1E+10	1
4902642	27	C	03/17/2025	02:21	-131.673	46.304	0	3236.90	0	1.5730	0	34.6590	4	27.749	0	3185.808	0	95.2	4	28.4	4	-1E+10	1	-1E+10	1	-1E+10	1	-1E+10	1	-1E+10	1	-1E+10	1
4902642	27	C	03/17/2025	02:21	-131.673	46.304	0	3237.70	0	1.5730	0	34.6590	4	27.749	0	3186.589	0	95.3	4	28.4	4	-1E+10	1	-1E+10	1	-1E+10	1	-1E+10	1	-1E+10	1	-1E+10	1
4902642	27	C	03/17/2025	02:21	-131.673	46.304	0	3238.60	0	1.5720	0	34.6590	4	27.749	0	3187.469	0	95.3	4	28.4	4	-1E+10	1	-1E+10	1	-1E+10	1	-1E+10	1	-1E+10	1	-1E+10	1
4902642	27	C	03/17/2025	02:21	-131.673	46.304	0	3239.40	0	1.5720	0	34.6590	4	27.749	0	3188.250	0	95.3	4	28.4	4	-1E+10	1	-1E+10	1	-1E+10	1	-1E+10	1	-1E+10	1	-1E+10	1
4902642	27	C	03/17/2025	02:21	-131.673	46.304	0	3240.30	0	1.5710	0	34.6590	4	27.749	0	3189.129	0	95.3	4	28.4	4	-1E+10	1	-1E+10	1	-1E+10	1	-1E+10	1	-1E+10	1	-1E+10	1
4902642	27	C	03/17/2025	02:21	-131.673	46.304	0	3241.50	0	1.5710	0	34.6590	4	27.749	0	3190.302	0	95.4	4	28.5	4	-1E+10	1	-1E+10	1	-1E+10	1	-1E+10	1	-1E+10	1	-1E+10	1
4902642	27	C	03/17/2025	02:21	-131.673	46.304	0	3242.80	0	1.5710	0	34.6590	4	27.749	0	3191.572	0	95.4	4	28.5	4	-1E+10	1	-1E+10	1	-1E+10	1	-1E+10	1	-1E+10	1	-1E+10	1
4902642	27	C	03/17/2025	02:21	-131.673	46.304	0	3243.70	0	1.5700	0	34.6590	4	27.749	0	3192.451	0	95.4	4	28.5	4	-1E+10	1	-1E+10	1	-1E+10	1	-1E+10	1	-1E+10	1	-1E+10	1
4902642	27	C	03/17/2025	02:21	-131.673	46.304	0	3244.50	0	1.5680	0	34.6600	4	27.750	0	3193.232	0	95.4	4	28.5	4	-1E+10	1	-1E+10	1	-1E+10	1	-1E+10	1	-1E+10	1	-1E+10	1
4902642	27	C	03/17/2025	02:21	-131.673	46.304	0	3245.30	0	1.5690	0	34.6600	4	27.750	0	3194.014	0	95.5	4	28.5	4	-1E+10	1	-1E+10	1	-1E+10	1	-1E+10	1	-1E+10	1	-1E+10	1
4902642	27	C	03/17/2025	02:21	-131.673	46.304	0	3246.50	0	1.5680	0	34.6590	4	27.749	0	3195.186	0	95.4	4	28.5	4	-1E+10	1	-1E+10	1	-1E+10	1	-1E+10	1	-1E+10	1	-1E+10	1
4902642	27	C	03/17/2025	02:21	-131.673	46.304	0	3248.40	0	1.5690	0	34.6600	4	27.750	0	3197.042	0	95.4	4	28.5	4	-1E+10	1	-1E+10	1	-1E+10	1	-1E+10	1	-1E+10	1	-1E+10	1
4902642	27	C	03/17/2025	02:21	-131.673	46.304	0	3249.70	0	1.5690	0	34.6590	4	27.749	0	3198.312	0	95.4	4	28.5	4	-1E+10	1	-1E+10	1	-1E+10	1	-1E+10	1	-1E+10	1	-1E+10	1
4902642	27	C	03/17/2025	02:21	-131.673	46.304	0	3250.60	0	1.5690	0	34.6600	4	27.750	0	3199.191	0	95.4	4	28.5	4	-1E+10	1	-1E+10	1	-1E+10	1	-1E+10	1	-1E+10	1	-1E+10	1
4902642	27	C	03/17/2025	02:21	-131.673	46.304	0	3251.50	0	1.5690	0	34.6590	4	27.749	0	3200.070	0	95.4	4	28.5	4	-1E+10	1	-1E+10	1	-1E+10	1	-1E+10	1	-1E+10	1	-1E+10	1
4902642	27	C	03/17/2025	02:21	-131.673	46.304	0	3252.60	0	1.5690	0	34.6590	4	27.749	0	3201.145	0	95.4	4	28.5	4	-1E+10	1	-1E+10	1	-1E+10	1	-1E+10	1	-1E+10	1	-1E+10	1
4902642	27	C	03/17/2025	02:21	-131.673	46.304	0	3253.70	0	1.5690	0	34.6600	4	27.750	0	3202.219	0	95.4	4	28.5	4	-1E+10	1	-1E+10	1	-1E+10	1	-1E+10	1	-1E+10	1	-1E+10	1
4902642	27	C	03/17/2025	02:21	-131.673	46.304	0	3254.70	0	1.5690	0	34.6590	4	27.749	0	3203.196	0	95.4	4	28.5	4	-1E+10	1	-1E+10	1	-1E+10	1	-1E+10	1	-1E+10	1	-1E+10	1
4902642	27	C	03/17/2025	02:21	-131.673	46.304	0	3255.70	0	1.5690	0	34.6590	4	27.749	0	3204.173	0	95.4	4	28.5	4	-1E+10	1	-1E+10	1	-1E+10	1	-1E+10	1	-1E+10	1	-1E+10	1
4902642	27	C	03/17/2025	02:21	-131.673	46.304	0	3256.60	0	1.5690	0	34.6600	4	27.750	0	3205.052	0	95.4	4	28.5	4	-1E+10	1	-1E+10	1	-1E+10	1	-1E+10	1	-1E+10	1	-1E+10	1
4902642	27	C	03/17/2025	02:21	-131.673	46.304	0																										
4902642	28	C	03/27/2025	03:51	-131.502	46.289	0	0.20	0	9.3170	0	32.3480	0	24.993	0	0.198	0	259.0	4	91.2	4	-1E+10	1	-1E+10	1	-1E+10	1	-1E+10	1	-1E+10	1	-1E+10	1
4902642	28	C	03/27/2025	03:51	-131.502	46.289	0	0.30	0	9.3168	0	32.3480	0	24.993	0	0.298	0	259.1	4	91.2	4	-1E+10	1	-1E+10	1	-1E+10	1	-1E+10	1	-1E+10	1	-1E+10	1
4902642	28	C	03/27/2025	03:51	-131.502	46.289	0	0.40	0	9.3170	0	32.3480	0	24.993	0	0.397	0	-1e10	1	-1e10	1	-1E+10	1	-1E+10	1	-1E+10	1	-1E+10	1	-1E+10	1	-1E+10	1
4902642	28	C	03/27/2025	03:51	-131.502	46.289	0	0.60	0	9.3230	0	32.3460	0	24.990	0	0.595	0	259.2	4	91.2	4	-1E+10	1	-1E+10	1	-1E+10	1	-1E+10	1	-1E+10	1	-1E+10	1
4902642	28	C	03/27/2025	03:51	-131.502	46.289	0	1.40	0	9.3210	0	32.3440	0	24.989	0	1.388	0	259.1	4	91.2	4	-1E+10	1	-1E+10	1	-1E+10	1	-1E+10	1	-1E+10	1	-1E+10	1
4902642	28	C	03/27/2025	03:51	-131.502	46.289	0	2.60	0	9.3180	0	32.3470	0	24.992	0	2.579	0	259.1	4	91.2	4	-1E+10	1	-1E+10	1	-1E+10	1	-1E+10	1	-1E+10	1	-1E+10	1
4902642	28	C	03/27/2025	03:51	-131.502	46.289	0	3.70	0	9.3190	0	32.3480	0	24.992	0	3.669	0	259.1	4	91.2	4	-1E+10	1	-1E+10	1	-1E+10	1	-1E+10	1	-1E+10	1	-1E+10	1
4902642	28	C	03/27/2025	03:51	-131.502	46.289	0	4.40	0	9.3180	0	32.3480	0	24.993	0	4.364	0	259.0	4	91.2	4	-1E+10	1	-1E+10	1	-1E+10	1	-1E+10	1	-1E+10	1	-1E+10	1
4902642	28	C	03/27/2025	03:51	-131.502	46.289	0	5.50	0	9.3200	0	32.3480	0	24.992	0	5.455	0	259.1	4	91.2	4	-1E+10	1	-1E+10	1	-1E+10	1	-1E+10	1	-1E+10	1	-1E+10	1
4902642	28	C	03/27/2025	03:51	-131.502	46.289	0	6.50	0	9.3210	0	32.3490	0	24.993	0	6.446	0	259.0	4	91.2	4	-1E+10	1	-1E+10	1	-1E+10	1	-1E+10	1	-1E+10	1	-1E+10	1
4902642	28	C	03/27/2025	03:51	-131.502	46.289	0	7.50	0	9.3250	0	32.3470	0	24.991	0	7.438	0	258.9	4	91.2	4	-1E+10	1	-1E+10	1	-1E+10	1	-1E+10	1	-1E+10	1	-1E+10	1
4902642	28	C	03/27/2025	03:51	-131.502	46.289	0	8.60	0	9.3260	0	32.3470	0	24.991	0	8.529	0	259.0	4	91.2	4	-1E+10	1	-1E+10	1	-1E+10	1	-1E+10	1	-1E+10	1	-1E+10	1
4902642	28	C	03/27/2025	03:51	-131.502	46.289	0	9.60	0	9.3200	0	32.3490	0	24.993	0	9.521	0	258.9	4	91.1	4	-1E+10	1	-1E+10	1	-1E+10	1	-1E+10	1	-1E+10	1	-1E+10	1
4902642	28	C	03/27/2025	03:51	-131.502	46.289	0	15.20	0	9.2750	0	32.3480	0	25.000	0	15.074	0	259.0	4	91.1	4	-1E+10	1	-1E+10	1	-1E+10	1	-1E+10	1	-1E+10	1	-1E+10	1
4902642	28	C	03/27/2025	03:51	-131.502	46.289	0	25.40	0	9.0700	0	32.3650	0	25.045	0	25.189	0	258.3	4	90.4	4	-1E+10	1	-1E+10	1	-1E+10	1	-1E+10	1	-1E+10	1	-1E+10	1
4902642	28	C	03/27/2025	03:51	-131.502	46.289	0	35.30	0	9.0580	0	32.3660	0	25.048	0	35.006	0	256.9	4	89.9	4	-1E+10	1	-1E+10	1	-1E+10	1	-1E+10	1	-1E+10	1	-1E+10	1
4902642	28	C	03/27/2025	03:51	-131.502	46.289	0	44.80	0	9.0300	0	32.3630	0	25.050	0	44.426	0	256.1	4	89.6	4	-1E+10	1	-1E+10	1	-1E+10	1	-1E+10	1	-1E+10	1	-1E+10	1
4902642	28	C	03/27/2025	03:51	-131.502	46.289	0	54.90	0	9.0040	0	32.3610	0	25.053	0	54.441	0	255.2	4	89.2	4	-1E+10	1	-1E+10	1	-1E+10	1	-1E+10	1	-1E+10	1	-1E+10	1
4902642	28	C	03/27/2025	03:51	-131.502	46.289	0	64.90	0	8.9670	0	32.3600	0	25.058	0	64.355	0	254.1	4	88.8	4	-1E+10	1	-1E+10	1	-1E+10	1	-1E+10	1	-1E+10	1	-1E+10	1
4902642	28	C	03/27/2025	03:51	-131.502	46.289	0	74.80	0	8.9440	0	32.3600	0	25.062	0	74.171	0	251.2	4	87.7	4	-1E+10	1	-1E+10	1	-1E+10	1	-1E+10	1	-1E+10	1	-1E+10	1
4902642	28	C	03/27/2025	03:51	-131.502	46.289	0	85.00	0	8.8950	0	32.3970	0	25.098	0	84.283	0	237.7	4	82.9	4	-1E+10	1	-1E+10	1	-1E+10	1	-1E+10	1	-1E+10	1	-1E+10	1
4902642	28	C	03/27/2025	03:51	-131.502	46.289	0	95.20	0	8.4670	0	32.6940	0	25.396	0	94.394	0	219.2	4	75.9	4	-1E+10	1	-1E+10	1	-1E+10	1	-1E+10	1	-1E+10	1	-1E+10	1
4902642	28	C	03/27/2025	03:51	-131.502	46.289	0	104.90	0	8.1970	0	32.9890	0	25.668	0	104.010	0	207.3	4	71.5	4	-1E+10	1	-1E+10	1	-1E+10	1	-1E+10	1	-1E+10	1	-1E+10	1
4902642	28	C	03/27/2025	03:51	-131.502	46.289	0	114.80	0	7.8570	0	33.2840	0	25.949	0	113.823	0	198.1	4	68.0	4	-1E+10	1	-1E+10	1	-1E+10	1	-1E+10	1	-1E+10	1	-1E+10	1
4902642	28	C	03/27/2025	03:51	-131.502	46.289	0	125.20	0	7.7170	0	33.4450	0	26.096	0	124.131	0	193.2	4	66.2	4	-1E+10	1	-1E+10	1	-1E+10	1	-1E+10	1	-1E+10	1	-1E+10	1
4902642	28	C	03/27/2025	03:51	-131.502	46.289	0	135.50	0	7.5960	0	33.5520	0	26.197	0	134.340	0	192.1	4	65.7	4	-1E+10	1	-1E+10	1	-1E+10	1	-1E+10	1	-1E+10	1	-1E+10	1
4902642	28	C	03/27/2025	03:51	-131.502	46.289	0	145.30	0	7.5360	0	33.6080	0	26.250	0	144.053	0	190.8	4	65.2	4	-1E+10	1	-1E+10	1	-1E+10	1	-1E+10	1	-1E+10	1	-1E+10	1
4902642	28	C	03/27/2025	03:51	-131.502	46.289	0	155.30	0	7.4470	0	33.6810	0	26.320	0	153.963	0	188.3	4	64.2	4	-1E+10	1	-1E+10	1	-1E+10	1	-1E+10	1	-1E+10	1	-1E+10	1
4902642	28	C	03/27/2025	03:51	-131.502	46.289	0	164.90	0	7.3190	0	33.7110	0	26.362	0	163.477	0	185.0	4	62.9	4	-1E+10	1	-1E+10	1	-1E+10	1	-1E+10	1	-1E+10	1	-1E+10	1
4902642	28	C	03/27/2025	03:51	-131.502	46.289	0	175.00	0	7.1960	0	33.7350	0	26.398	0	173.485	0	181.5	4	61.6	4	-1E+10	1	-1E+10	1	-1E+10	1	-1E+10	1	-1E+10	1	-1E+10	1
4902642	28	C	03/27/2025	03:51	-131.502	46.289	0	185.00	0	7.0850	0	33.7490	0	26.424	0	183.394	0	177.3	4	60.0	4	-1E+10	1	-1E+10	1	-1E+10	1	-1E+10	1	-1E+10	1	-1E+10	1
4902642	28	C	03/27/2025	03:51	-131.502	46.289	0	192.70	0	6.9870	0	33.7630	0	26.449	0	191.024	0	171.9	4	58.0	4	-1E+10	1	-1E+10	1	-1E+10	1	-1E+10	1	-1E+10	1	-1E+10	1
4902642	28	C	03/27/2025	03:51	-131.502	46.289	0	205.30	0	6.7850	0	33.7820	0	26.491	0	203.508	0	163.0	4	54.8	4	-1E+10	1	-1E+10	1	-1E+10	1	-1E+10	1	-1E+10	1	-1E+10	1
4902642	28	C	03/27/2025	03:51	-131.502	46.289	0	225.20	0	6.5360	0	33.7970	0	26.536	0	223.224	0	150.4	4	50.3	4	-1E+10	1	-1E+10	1	-1E+10	1	-1E+10	1	-1E+10	1	-1E+10	1
4902642	28	C	03/27/2025	03:51	-131.502	46.289	0	245.30	0	6.2890	0	33.8080	0	26.577	0	243.135	0	133.1	4	44.2	4	-1E+10	1	-1E+10	1	-1E+10	1	-1E+10	1	-1E+10	1	-1E+10	1
4902642	28	C	03/27/2025	03:51	-131.502	46.289	0	264.90	0	6.0460	0	33.8220	0	26.619	0	262.550	0	117.5	4	38.8	4	-1E+10	1	-1E+10	1	-1E+10	1	-1E+10	1	-1E+10	1	-1E+10	1
4902642	28	C	03/27/2025	03:51	-131.502	46.289	0	284.80	0	5.8460	0	33.8360	0	26.655	0	282.260	0	104.1	4	34.2	4	-1E+10	1	-1E+10	1	-1E+10	1	-1E+10	1	-1E+10	1	-1E+10	1
4902642	28	C	03/27/2025	03:51	-131.502	46.289	0	304.90	0	5.6310	0	33.8490	0	26.692	0	302.166	0	93.2	4	30.5	4	-1E+10	1	-1E+10	1	-1E+10	1	-1E+10	1	-1E+10	1	-1E+10	1
4902642	28	C	03/27/2025	03:51	-131.502	46.289	0	325.00	0	5.4180	0	33.8580	0	26.725	0	322.070	0	86.0	4	28.0	4	-1E+10	1	-1E+10	1	-1E+10	1	-1E+10	1	-1E+10	1	-1E+10	1
4902642	28	C	03/27/2025	03:51	-131.502	46.289	0	345.00	0	5.2150	0	33.8700	0	26.758	0	341.873	0	78.2	4	25.4	4	-1E+10	1	-1E+10	1	-1E+10	1	-1E+10	1	-1E+10	1	-1E+10	1
4902642	28	C	03/27/2025	03:51	-131.502	46.289	0	364.90	0	5.0780	0	33.8820	0	26.783	0	361.576	0	72.8	4	23.5	4	-1E+10	1	-1E+10	1	-1E+10	1	-1E+10	1	-1E+10	1	-1E+10	1
4902642	28	C	03/27/2025	03:51	-131.502	46.289	0	384.60	0	4.9730	0	33.9010	0	26.811	0	381.078	0	65.6	4	21.2	4	-1E+10	1	-1E+10	1	-1E+10	1	-1E+10	1	-1E+10	1	-1E+10	1
4902642	28	C	03/27/2025	03:51	-131.502	46.289	0	405.40	0	4.8660	0	33.9220	0	26.839	0	401.668	0	60.6	4	19.5	4	-1E+10	1	-1E+10	1	-1E+10	1	-1E+10	1	-1E+10	1	-1E+10	1
4902642	28	C	03/27/2025	03:51	-131.502	46.289	0	424.80	0	4.8060	0	33.9330	0	26.855	0	420.869	0	57.5	4	18.5	4	-1E+10	1	-1E+10	1	-1E+10	1	-1E+10	1	-1E+10	1	-1E+10	1
4902642	28	C	03/27/2025	03:51	-131.502	46.289	0	445.10	0	4.7140	0	33.9540	0	26.882	0	440.960	0	52.2	4	16.7	4	-1E+10	1	-1E+10	1	-1E+10	1	-1E+10	1	-1E+10	1	-1E+10	1
4902642	28	C	03/27/2025	03:51	-131.502	46.289	0	464.90	0	4.6380	0	33.9810	0	26.912	0	460.554	0	45.9	4	14.7	4	-1E+10	1	-1E+10	1	-1E+10	1	-1E+10	1	-1E+10	1	-1E+10	1
4902642	28	C	03/27/2025	03:51	-131.502	46.289	0	485.00	0	4.5420	0	33.9990	0	26.937	0	480.443	0	41.4	4	13.2	4	-1E+10	1	-1E+10	1	-1E+10	1	-1E+10	1	-1E+10	1	-1E+10	1
4902642	28	C	03/27/2025	03:51	-131.502	46.289	0	505.30	0	4.4650	0	34.0220	0	26.963	0	500.527	0	35.9	4	11.4	4	-1E+10	1	-1E+10	1	-1E+10	1	-1E+10	1	-1E+10	1	-1E+10	1
4902642	28	C	03/27/2025	03:51	-131.502	46.289	0	525.10	0	4.3910	0	34.0460	0	26.991	0	520.116	0	30.7	4	9.8	4	-1E+10	1	-1E+10	1	-1E+10	1	-1E+10	1	-1E+10	1	-1E+10	1
4902642	28	C	03/27/2025	03:51	-131.502	46.289	0	544.80	0	4.3340	0	34.0650	0	27.012	0	539.603	0	27.5	4	8.8	4	-1E+10	1	-1E+10	1	-1E+10	1	-1E+10	1	-1E+10	1	-1E+10	1
4902642	28	C	03/27/2025	03:51	-131.502	46.289	0	565.10	0	4.2770	0	34.0810	0	27.031	0	559.682	0	24.5	4	7.8	4	-1E+10	1	-1E+10	1	-1E+10	1	-1E+10	1	-1E+10	1	-1E+10	1
4902642	28	C	03/27/2025	03:51	-131.502	46.289	0	585.20	0	4.2260	0	34.1020	0	27.053	0	579.562	0	20.7	4	6.6	4	-1E+10	1	-1E+10	1	-1E+10	1	-1E+10	1	-1E+10	1	-1E+10	1
4902642	28	C	03/27/2025	03:51	-131.502	46.289	0	605.10	0	4.2830	0	34.1330	0	27.072	0	599.241	0	16.7	4	5.3	4	-1E+10	1	-1E+10	1	-1E+10	1	-1E+10	1	-1E+10	1	-1E+10	1
4902642	28	C	03/27/2025	03:51	-131.502	46.289	0	624.80	0	4.1790	0	34.1460	0	27.093	0	618.721	0	15.1	4	4.8	4	-1E+10	1	-1E+10	1	-1E+10	1	-1E+10	1	-1E+10	1	-1E+10	1
4902642	28	C	03/27/2025	03:51	-131.502	46.289	0	644.80	0	4.1660	0	34.1710	0	27.115	0	638.496	0	12.4	4	3.9	4	-1E+10	1	-1E+10	1	-1E+10	1	-1E+10	1	-1E+10	1	-1E+10	1
4902642	28	C	03/27/2025	03:51	-131.502	46.289	0	664.60	0	4.1440	0	34.1890	0	27.131	0	658.071	0	11.0	4	3.5	4	-1E+10	1	-1E+10	1	-1E+10	1	-1E+10	1	-1E+10	1	-1E+10	1
4902642	28	C	03/27/2025	03:51	-131.502	46.289	0	685.00	0	4.1340	0	34.2060	0	27.146	0	678.237	0	9.7	4	3.1	4	-1E+10	1	-1E+10	1	-1E+10	1	-1E+10	1	-1E+10	1	-1E+10	1
4902642	28	C	03/27/2025	03:51	-131.502	46.289	0	705.00	0	4.0810	0	34.2130	0	27.157	0	698.007	0	9.3	4	2.9	4	-1E+10	1	-1E+10	1	-1E+10	1	-1E+10	1	-1E+10	1	-1E+10	1
4902642	28	C	03/27/2025	03:51	-131.502	46.289	0	724.80	0	4.0160	0	34.2240	0	27.173	0	717.576	0	8.7	4	2.7	4	-1E+10	1	-1E+10	1	-1E+10	1	-1E+10	1	-1E+10	1	-1E+10	1
4902642	28	C	03/27/2025	03:51	-131.502	46.289	0	745.10	0	3.9680	0	34.2350	0	27.187	0	737.638	0	8.1	4	2.6	4	-1E+10	1	-1E+10	1	-1E+10	1	-1E+10	1	-1E+10	1	-1E+10	1
4902642	28	C	03/27/2025	03:51	-131.502	46.289	0	765.40	0	3.8900	0	34.2440	0	27.202	0	757.698	0	7.8	4	2.4	4	-1E+10	1	-1E+10	1	-1E+10	1	-1E+10	1	-1E+10	1	-1E+10	1
4902642	28	C	03/27/2025	03:51	-131.502	46.289	0	785.10	0	3.7910	0	34.2550	0	27.221	0	777.163	0	7.5	4	2.4	4	-1E+10	1	-1E+10	1	-1E+10	1	-1E+10	1	-1E+10	1	-1E+10	1
4902642	28	C	03/27/2025	03:51	-131.502	46.289	0	805.00	0	3.7120	0	34.2640	0	27.236	0	796.824	0	7.1	4	2.2	4	-1E+10	1	-1E+10	1	-1E+10	1	-1E+10	1	-1E+10	1	-1E+10	1
4902642	28	C	03/27/2025	03:51	-131.502	46.289	0	825.80	0	3.6780	0	34.2820	0	27.253	0	817.372	0	6.5	4	2.0	4	-1E+10	1	-1E+10	1	-1E+10	1	-1E+10	1	-1E+10	1	-1E+10	1
4902642	28	C	03/27/2025	03:51	-131.502	46.289	0	845.20	0	3.6430	0	34.2920	0	27.265	0	836.535	0	6.2	4	1.9	4	-1E+10	1	-1E+10	1	-1E+10	1	-1E+10	1	-1E+10	1	-1E+10	1
4902642	28	C	03/27/2025	03:51	-131.502	46.289	0	864.90	0	3.6490	0	34.3090	0	27.278	0	855.993	0	5.7	4	1.8	4	-1E+10	1	-1E+10	1	-1E+10	1	-1E+10	1	-1E+10	1	-1E+10	1
4902642	28	C	03/27/2025	03:51	-131.502	46.289	0	884.60	0	3.6380	0	34.3270	0	27.294	0	875.449	0	5.5	4	1.7	4	-1E+10	1	-1E+10	1	-1E+10	1	-1E+10	1	-1E+10	1	-1E+10	1
4902642	28	C	03/27/2025	03:51	-131.502	46.289	0	905.00	0	3.6000	0	34.3370	0	27.305	0	895.594	0	5.4	4	1.7	4	-1E+10	1	-1E+10	1	-1E+10	1	-1E+10	1	-1E+10	1	-1E+10	1
4902642	28	C	03/27/2025	03:51	-131.502	46.289	0	925.10	0	3.5380	0	34.3460	0	27.319	0	915.441	0	5.4	4	1.7	4	-1E+10	1	-1E+10	1	-1E+10	1	-1E+10	1	-1E+10	1	-1E+10	1
4902642	28	C	03/27/2025	03:51	-131.502	46.289	0	945.50	0	3.5070	0	34.3560	0	27.330	0	935.583	0	5.5	4	1.7	4	-1E+10	1	-1E+10	1	-1E+10	1	-1E+10	1	-1E+10	1	-1E+10	1
4902642	28	C	03/27/2025	03:51	-131.502	46.289	0	965.20	0	3.4900	0	34.3660	0	27.340	0	955.031	0	5.7	4	1.8	4	-1E+10	1	-1E+10	1	-1E+10	1	-1E+10	1	-1E+10	1	-1E+10	1
4902642	28	C	03/27/2025	03:51	-131.502	46.289	0	984.90	0	3.4370	0	34.3750	0	27.352	0	974.478	0	5.9	4	1.8	4	-1E+10	1	-1E+10	1	-1E+10	1	-1E+10	1	-1E+10	1	-1E+10	1
4902642	28	C	03/27/2025	03:51	-131.502	46.289	0	1004.80	0	3.4160	0	34.3830	0	27.360	0	994.120	0	6.2	4	1.9	4	-1E+10	1	-1E+10	1	-1E+10	1	-1E+10	1	-1E+10	1	-1E+10	1
4902642	28	C	03/27/2025	03:51	-131.502	46.289	0	1025.10	0	3.4330	0	34.3970	0	27.370	0	1014.155	0	6.6	4	2.0	4	-1E+10	1	-1E+10	1	-1E+10	1	-1E+10	1	-1E+10	1	-1E+10	1
4902642	28	C	03/27/2025	03:51	-131.502	46.289	0	1045.10	0	3.3960	0	34.4020	0	27.378	0	1033.892	0	6.8	4	2.1	4	-1E+10	1	-1E+10	1	-1E+10	1	-1E+10	1	-1E+10	1	-1E+10	1
4902642	28	C	03/27/2025	03:51	-131.502	46.289	0	1064.90	0	3.3500	0	34.4090	0	27.388	0	1053.430	0	7.2	4	2.2	4	-1E+10	1	-1E+10	1	-1E+10	1	-1E+10	1	-1E+10	1	-1E+10	1
4902642	28	C	03/27/2025	03:51	-131.502	46.289	0	1084.90	0	3.3320	0	34.4180	0	27.397	0	1073.164	0	7.7	4	2.4	4	-1E+10	1	-1E+10	1	-1E+10	1	-1E+10	1	-1E+10	1	-1E+10	1
4902642	28	C	03/27/2025	03:51	-131.502	46.289	0	1105.50	0	3.2950	0	34.4230	0	27.405	0	1093.487	0	8.1	4	2.5	4	-1E+10	1	-1E+10	1	-1E+10	1	-1E+10	1	-1E+10	1	-1E+10	1
4902642	28	C	03/27/2025	03:51	-131.502	46.289	0	1124.90	0	3.2640	0	34.4280	0	27.412	0	1112.625	0	8.4	4	2.6	4	-1E+10	1	-1E+10	1	-1E+10	1	-1E+10	1	-1E+10	1	-1E+10	1
4902642	28	C	03/27/2025	03:51	-131.502	46.289	0	1145.10	0	3.2310	0	34.4320	0	27.418	0	1132.550	0	8.8	4	2.7	4	-1E+10	1	-1E+10	1	-1E+10	1	-1E+10	1	-1E+10	1	-1E+10	1
4902642	28	C	03/27/2025	03:51	-131.502	46.289	0	1165.00	0	3.1860	0	34.4380	0	27.427	0	1152.177	0	9.2	4	2.9	4	-1E+10	1	-1E+10	1	-1E+10	1	-1E+10	1	-1E+10	1	-1E+10	1
4902642	28	C	03/27/2025	03:51	-131.502	46.289	0	1184.80	0	3.1310	0	34.4430	0	27.436	0	1171.704	0	9.7	4	3.0	4	-1E+10	1	-1E+10	1	-1E+10	1	-1E+10	1	-1E+10	1	-1E+10	1
4902642	28	C	03/27/2025	03:51	-131.502	46.289	0	1205.10	0	3.0790	0	34.4500	0	27.447	0	1191.722	0	10.4	4	3.2	4	-1E+10	1	-1E+10	1	-1E+10	1	-1E+10	1	-1E+10	1	-1E+10	1
4902642	28	C	03/27/2025	03:51	-131.502	46.289	0	1225.10	0	3.0320	0	34.4550	0	27.455	0	1211.443	0	11.0	4	3.4	4	-1E+10	1	-1E+10	1	-1E+10	1	-1E+10	1	-1E+10	1	-1E+10	1
4902642	28	C	03/27/2025	03:51	-131.502	46.289	0	1245.20	0	2.9880	0	34.4610	0	27.464	0	1231.260	0	11.7	4	3.6	4	-1E+10	1	-1E+10	1	-1E+10	1	-1E+10	1	-1E+10	1	-1E+10	1
4902642	28	C	03/27/2025	03:51	-131.502	46.289	0	1265.90	0	2.9510	0	34.4650	0	27.470	0	1251.667	0	12.2	4	3.8	4	-1E+10	1	-1E+10	1	-1E+10	1	-1E+10	1	-1E+10	1	-1E+10	1
4902642	28	C	03/27/2025	03:51	-131.502	46.289	0	1285.00	0	2.9140	0	34.4690	0	27.477	0	1270.494	0	12.7	4	3.9	4	-1E+10	1	-1E+10	1	-1E+10	1	-1E+10	1	-1E+10	1	-1E+10	1
4902642	28	C	03/27/2025	03:51	-131.502	46.289	0	1304.70	0	2.8820	0	34.4730	0	27.483	0	1289.912	0	13.3	4	4.1	4	-1E+10	1	-1E+10	1	-1E+10	1	-1E+10	1	-1E+10	1	-1E+10	1
4902642	28	C	03/27/2025	03:51	-131.502	46.289	0	1324.90	0	2.8510	0	34.4760	0	27.488	0	1309.820	0	13.9	4	4.3	4	-1E+10	1	-1E+10	1	-1E+10	1	-1E+10	1	-1E+10	1	-1E+10	1
4902642	28	C	03/27/2025	03:51	-131.502	46.289	0	1345.10	0	2.8110	0	34.4800	0	27.495	0	1329.726	0	14.7	4	4.5	4	-1E+10	1	-1E+10	1	-1E+10	1	-1E+10	1	-1E+10	1	-1E+10	1
4902642	28	C	03/27/2025	03:51	-131.502	46.289	0	1365.20	0	2.7730	0	34.4860	0	27.504	0	1349.532	0	15.6	4	4.8	4	-1E+10	1	-1E+10	1	-1E+10	1	-1E+10	1	-1E+10	1	-1E+10	1
4902642	28	C	03/27/2025	03:51	-131.502	46.289	0	1385.20	0	2.7330	0	34.4910	0	27.511	0	1369.238	0	16.6	4	5.1	4	-1E+10	1	-1E+10	1	-1E+10	1	-1E+10	1	-1E+10	1	-1E+10	1
4902642	28	C	03/27/2025	03:51	-131.502	46.289	0	1404.90	0	2.6910	0	34.4970	0	27.520	0	1388.646	0	17.7	4	5.4	4	-1E+10	1	-1E+10	1	-1E+10	1	-1E+10	1	-1E+10	1	-1E+10	1
4902642	28	C	03/27/2025	03:51	-131.502	46.289	0	1425.40	0	2.6510	0	34.5010	0	27.526	0	1408.841	0	18.7	4	5.7	4	-1E+10	1	-1E+10	1	-1E+10	1	-1E+10	1	-1E+10	1	-1E+10	1
4902642	28	C	03/27/2025	03:51	-131.502	46.289	0	1445.00	0	2.6220	0	34.5050	0	27.532	0	1428.147	0	19.5	4	6.0	4	-1E+10	1	-1E+10	1	-1E+10	1	-1E+10	1	-1E+10	1	-1E+10	1
4902642	28	C	03/27/2025	03:51	-131.502	46.289	0	1464.90	0	2.5840	0	34.5090	0	27.539	0	1447.746	0	20.7	4	6.3	4	-1E+10	1	-1E+10	1	-1E+10	1	-1E+10	1	-1E+10	1	-1E+10	1
4902642	28	C	03/27/2025	03:51	-131.502	46.289	0	1484.50	0	2.5480	0	34.5130	0	27.545	0	1467.049	0	21.6	4	6.6	4	-1E+10	1	-1E+10	1	-1E+10	1	-1E+10	1	-1E+10	1	-1E+10	1
4902642	28	C	03/27/2025	03:51	-131.502	46.289	0	1504.90	0	2.5220	0	34.5160	0	27.550	0	1487.137	0	22.5	4	6.9	4	-1E+10	1	-1E+10	1	-1E+10	1	-1E+10	1	-1E+10	1	-1E+10	1
4902642	28	C	03/27/2025	03:51	-131.502	46.289	0	1525.10	0	2.4920	0	34.5190	0	27.555	0	1507.027	0	23.4	4	7.1	4	-1E+10	1	-1E+10	1	-1E+10	1	-1E+10	1	-1E+10	1	-1E+10	1
4902642	28	C	03/27/2025	03:51	-131.502	46.289	0	1544.80	0	2.4680	0	34.5220	0	27.559	0	1526.422	0	24.3	4	7.4	4	-1E+10	1	-1E+10	1	-1E+10	1	-1E+10	1	-1E+10	1	-1E+10	1
4902642	28	C	03/27/2025	03:51	-131.502	46.289	0	1564.80	0	2.4370	0	34.5260	0	27.565	0	1546.112	0	25.3	4	7.7	4	-1E+10	1	-1E+10	1	-1E+10	1	-1E+10	1	-1E+10	1	-1E+10	1
4902642	28	C	03/27/2025	03:51	-131.502	46.289	0	1584.70	0	2.4100	0	34.5290	0	27.570	0	1565.700	0	26.3	4	8.0	4	-1E+10	1	-1E+10	1	-1E+10	1	-1E+10	1	-1E+10	1	-1E+10	1
4902642	28	C	03/27/2025	03:51	-131.502	46.289	0	1604.50	0	2.3700	0	34.5330	0	27.577	0	1585.189	0	27.9	4	8.5	4	-1E+10	1	-1E+10	1	-1E+10	1	-1E+10	1	-1E+10	1	-1E+10	1
4902642	28	C	03/27/2025	03:51	-131.502	46.289	0	1624.90	0	2.3230	0	34.5390	0	27.585	0	1605.266	0	29.3	4	8.9	4	-1E+10	1	-1E+10	1	-1E+10	1	-1E+10	1	-1E+10	1	-1E+10	1
4902642	28	C	03/27/2025	03:51	-131.502	46.289	0	1645.20	0	2.3010	0	34.5410	0	27.589	0	1625.243	0	30.2	4	9.2	4	-1E+10	1	-1E+10	1	-1E+10	1	-1E+10	1	-1E+10	1	-1E+10	1
4902642	28	C	03/27/2025	03:51	-131.502	46.289	0	1665.00	0	2.2820	0	34.5440	0	27.593	0	1644.726	0	31.1	4	9.4	4	-1E+10	1	-1E+10	1	-1E+10	1	-1E+10	1	-1E+10	1	-1E+10	1
4902642	28	C	03/27/2025	03:51	-131.502	46.289	0	1685.40	0	2.2480	0	34.5480	0	27.599	0	1664.797	0	32.5	4	9.9	4	-1E+10	1	-1E+10	1	-1E+10	1	-1E+10	1	-1E+10	1	-1E+10	1
4902642	28	C	03/27/2025	03:51	-131.502	46.289	0	1705.00	0	2.2180	0	34.5520	0	27.605	0	1684.080	0	34.1	4	10.3	4	-1E+10	1	-1E+10	1	-1E+10	1	-1E+10	1	-1E+10	1	-1E+10	1
4902642	28	C	03/27/2025	03:51	-131.502	46.289	0	1725.00	0	2.1800	0	34.5570	0	27.612	0	1703.754	0	35.8	4	10.8	4	-1E+10	1	-1E+10	1	-1E+10	1	-1E+10	1	-1E+10	1	-1E+10	1
4902642	28	C	03/27/2025	03:51	-131.502	46.289	0	1744.80	0	2.1610	0	34.5590	0	27.615	0	1723.230	0	36.6	4	11.1	4	-1E+10	1	-1E+10	1	-1E+10	1	-1E+10	1	-1E+10	1	-1E+10	1
4902642	28	C	03/27/2025	03:51	-131.502	46.289	0	1765.00	0	2.1460	0	34.5610	0	27.618	0	1743.097	0	37.4	4	11.3	4	-1E+10	1	-1E+10	1	-1E+10	1	-1E+10	1	-1E+10	1	-1E+10	1
4902642	28	C	03/27/2025	03:51	-131.502	46.289	0	1784.80	0	2.1290	0	34.5640	0	27.622	0	1762.570	0	38.5	4	11.6	4	-1E+10	1	-1E+10	1	-1E+10	1	-1E+10	1	-1E+10	1	-1E+10	1
4902642	28	C	03/27/2025	03:51	-131.502	46.289	0	1805.30	0	2.1020	0	34.5680	0	27.627	0	1782.728	0	40.0	4	12.1	4	-1E+10	1	-1E+10	1	-1E+10	1	-1E+10	1	-1E+10	1	-1E+10	1
4902642	28	C	03/27/2025	03:51	-131.502	46.289	0	1825.00	0	2.0770	0	34.5710	0	27.632	0	1802.098	0	41.0	4	12.4	4	-1E+10	1	-1E+10	1	-1E+10	1	-1E+10	1	-1E+10	1	-1E+10	1
4902642	28	C	03/27/2025	03:51	-131.502	46.289	0	1845.00	0	2.0630	0	34.5730	0	27.634	0	1821.762	0	42.0	4	12.7	4	-1E+10	1	-1E+10	1	-1E+10	1	-1E+10	1	-1E+10	1	-1E+10	1
4902642	28	C	03/27/2025	03:51	-131.502	46.289	0	1865.70	0	2.0460	0	34.5760	0	27.638	0	1842.111	0	43.2	4	13.0	4	-1E+10	1	-1E+10	1	-1E+10	1	-1E+10	1	-1E+10	1	-1E+10	1
4902642	28	C	03/27/2025	03:51	-131.502	46.289	0	1884.60	0	2.0310	0	34.5780	0	27.641	0	1860.690	0	44.1	4	13.3	4	-1E+10	1	-1E+10	1	-1E+10	1	-1E+10	1	-1E+10	1	-1E+10	1
4902642	28	C	03/27/2025	03:51	-131.502	46.289	0	1904.50	0	2.0200	0	34.5800	0	27.644	0	1880.250	0	44.8	4	13.5	4	-1E+10	1	-1E+10	1	-1E+10	1	-1E+10	1	-1E+10	1	-1E+10	1
4902642	28	C	03/27/2025	03:51	-131.502	46.289	0	1924.80	0	2.0100	0	34.5810	0	27.645	0	1900.201	0	45.7	4	13.8	4	-1E+10	1	-1E+10	1	-1E+10	1	-1E+10	1	-1E+10	1	-1E+10	1
4902642	28	C	03/27/2025	03:51	-131.502	46.289	0	1945.20	0	1.9890	0	34.5850	0	27.650	0	1920.248	0	47.0	4	14.2	4	-1E+10	1	-1E+10	1	-1E+10	1	-1E+10	1	-1E+10	1	-1E+10	1
4902642	28	C	03/27/2025	03:51	-131.502	46.289	0	1965.20	0	1.9740	0	34.5870	0	27.653	0	1939.900	0	47.6	4	14.3	4	-1E+10	1	-1E+10	1	-1E+10	1	-1E+10	1	-1E+10	1	-1E+10	1
4902642	28	C	03/27/2025	03:51	-131.502	46.289	0	1985.00	0	1.9670	0	34.5880	0	27.655	0	1959.354	0	48.1	4	14.5	4	-1E+10	1	-1E+10	1	-1E+10	1	-1E+10	1	-1E+10	1	-1E+10	1
4902642	28	C	03/27/2025	03:51	-131.502	46.289	0	2004.90	0	1.9610	0	34.5890	4	27.656	0	1978.905	0	48.6	4	14.7	4	-1E+10	1	-1E+10	1	-1E+10	1	-1E+10	1	-1E+10	1	-1E+10	1
4902642	28	C	03/27/2025	03:51	-131.502	46.289	0	2025.30	0	1.9480	0	34.5910	4	27.659	0	1998.945	0	49.7	4	15.0	4	-1E+10	1	-1E+10	1	-1E+10	1	-1E+10	1	-1E+10	1	-1E+10	1
4902642	28	C	03/27/2025	03:51	-131.502	46.289	0	2045.00	0	1.9400	0	34.5930	4	27.661	0	2018.295	0	50.4	4	15.2	4	-1E+10	1	-1E+10	1	-1E+10	1	-1E+10	1	-1E+10	1	-1E+10	1
4902642	28	C	03/27/2025	03:51	-131.502	46.289	0	2064.90	0	1.9340	0	34.5940	4	27.663	0	2037.840	0	51.0	4	15.4	4	-1E+10	1	-1E+10	1	-1E+10	1	-1E+10	1	-1E+10	1	-1E+10	1
4902642	28	C	03/27/2025	03:51	-131.502	46.289	0	2084.70	0	1.9240	0	34.5960	4	27.665	0	2057.286	0	51.9	4	15.6	4	-1E+10	1	-1E+10	1	-1E+10	1	-1E+10	1	-1E+10	1	-1E+10	1
4902642	28	C	03/27/2025	03:51	-131.502	46.289	0	2104.80	0	1.9140	0	34.5980	4	27.667	0	2077.024	0	52.9	4	15.9	4	-1E+10	1	-1E+10	1	-1E+10	1	-1E+10	1	-1E+10	1	-1E+10	1
4902642	28	C	03/27/2025	03:51	-131.502	46.289	0	2124.70	0	1.9060	0	34.6000	4	27.670	0	2096.563	0	54.0	4	16.2	4	-1E+10	1	-1E+10	1	-1E+10	1	-1E+10	1	-1E+10	1	-1E+10	1
4902642	28	C	03/27/2025	03:51	-131.502	46.289	0	2144.80	0	1.8980	0	34.6020	4	27.672	0	2116.298	0	54.7	4	16.5	4	-1E+10	1	-1E+10	1	-1E+10	1	-1E+10	1	-1E+10	1	-1E+10	1
4902642	28	C	03/27/2025	03:51	-131.502	46.289	0	2165.00	0	1.8910	0	34.6030	4	27.674	0	2136.128	0	55.4	4	16.7	4	-1E+10	1	-1E+10	1	-1E+10	1	-1E+10	1	-1E+10	1	-1E+10	1
4902642	28	C	03/27/2025	03:51	-131.502	46.289	0	2185.30	0	1.8770	0	34.6040	4	27.676	0	2156.055	0	55.9	4	16.8	4	-1E+10	1	-1E+10	1	-1E+10	1	-1E+10	1	-1E+10	1	-1E+10	1
4902642	28	C	03/27/2025	03:51	-131.502	46.289	0	2205.50	0	1.8660	0	34.6060	4	27.678	0	2175.882	0	56.7	4	17.0	4	-1E+10	1	-1E+10	1	-1E+10	1	-1E+10	1	-1E+10	1	-1E+10	1
4902642	28	C	03/27/2025	03:51	-131.502	46.289	0	2224.70	0	1.8570	0	34.6080	4	27.681	0	2194.726	0	57.6	4	17.3	4	-1E+10	1	-1E+10	1	-1E+10	1	-1E+10	1	-1E+10	1	-1E+10	1
4902642	28	C	03/27/2025	03:51	-131.502	46.289	0	2244.80	0	1.8480	0	34.6090	4	27.682	0	2214.451	0	58.5	4	17.6	4	-1E+10	1	-1E+10	1	-1E+10	1	-1E+10	1	-1E+10	1	-1E+10	1
4902642	28	C	03/27/2025	03:51	-131.502	46.289	0	2264.90	0	1.8400	0	34.6110	4	27.684	0	2234.175	0	59.4	4	17.8	4	-1E+10	1	-1E+10	1	-1E+10	1	-1E+10	1	-1E+10	1	-1E+10	1
4902642	28	C	03/27/2025	03:51	-131.502	46.289	0	2285.20	0	1.8310	0	34.6130	4	27.687	0	2254.092	0	60.3	4	18.1	4	-1E+10	1	-1E+10	1	-1E+10	1	-1E+10	1	-1E+10	1	-1E+10	1
4902642	28	C	03/27/2025	03:51	-131.502	46.289	0	2305.30	0	1.8230	0	34.6140	4	27.688	0	2273.812	0	61.1	4	18.3	4	-1E+10	1	-1E+10	1	-1E+10	1	-1E+10	1	-1E+10	1	-1E+10	1
4902642	28	C	03/27/2025	03:51	-131.502	46.289	0	2325.00	0	1.8170	0	34.6150	4	27.690	0	2293.138	0	61.9	4	18.6	4	-1E+10	1	-1E+10	1	-1E+10	1	-1E+10	1	-1E+10	1	-1E+10	1
4902642	28	C	03/27/2025	03:51	-131.502	46.289	0	2345.60	0	1.8120	0	34.6160	4	27.691	0	2313.345	0	62.4	4	18.7	4	-1E+10	1	-1E+10	1	-1E+10	1	-1E+10	1	-1E+10	1	-1E+10	1
4902642	28	C	03/27/2025	03:51	-131.502	46.289	0	2365.30	0	1.8050	0	34.6170	4	27.692	0	2332.667	0	63.1	4	19.0	4	-1E+10	1	-1E+10	1	-1E+10	1	-1E+10	1	-1E+10	1	-1E+10	1
4902642	28	C	03/27/2025	03:51	-131.502	46.289	0	2385.30	0	1.8020	0	34.6180	4	27.694	0	2352.281	0	63.7	4	19.1	4	-1E+10	1	-1E+10	1	-1E+10	1	-1E+10	1	-1E+10	1	-1E+10	1
4902642	28	C	03/27/2025	03:51	-131.502	46.289	0	2405.30	0	1.7930	0	34.6200	4	27.696	0	2371.894	0	64.6	4	19.4	4	-1E+10	1	-1E+10	1	-1E+10	1	-1E+10	1	-1E+10	1	-1E+10	1
4902642	28	C	03/27/2025	03:51	-131.502	46.289	0	2425.10	0	1.7870	0	34.6210	4	27.697	0	2391.308	0	65.2	4	19.6	4	-1E+10	1	-1E+10	1	-1E+10	1	-1E+10	1	-1E+10	1	-1E+10	1
4902642	28	C	03/27/2025	03:51	-131.502	46.289	0	2445.10	0	1.7820	0	34.6220	4	27.699	0	2410.918	0	65.9	4	19.8	4	-1E+10	1	-1E+10	1	-1E+10	1	-1E+10	1	-1E+10	1	-1E+10	1
4902642	28	C	03/27/2025	03:51	-131.502	46.289	0	2465.50	0	1.7740	0	34.6230	4	27.700	0	2430.917	0	66.7	4	20.0	4	-1E+10	1	-1E+10	1	-1E+10	1	-1E+10	1	-1E+10	1	-1E+10	1
4902642	28	C	03/27/2025	03:51	-131.502	46.289	0	2484.70	0	1.7710	0	34.6230	4	27.701	0	2449.738	0	67.1	4	20.1	4	-1E+10	1	-1E+10	1	-1E+10	1	-1E+10	1	-1E+10	1	-1E+10	1
4902642	28	C	03/27/2025	03:51	-131.502	46.289	0	2504.90	0	1.7680	0	34.6240	4	27.702	0	2469.538	0	67.7	4	20.3	4	-1E+10	1	-1E+10	1	-1E+10	1	-1E+10	1	-1E+10	1	-1E+10	1
4902642	28	C	03/27/2025	03:51	-131.502	46.289	0	2525.10	0	1.7620	0	34.6250	4	27.703	0	2489.336	0	68.5	4	20.5	4	-1E+10	1	-1E+10	1	-1E+10	1	-1E+10	1	-1E+10	1	-1E+10	1
4902642	28	C	03/27/2025	03:51	-131.502	46.289	0	2544.90	0	1.7540	0	34.6260	4	27.705	0	2508.740	0	69.3	4	20.8	4	-1E+10	1	-1E+10	1	-1E+10	1	-1E+10	1	-1E+10	1	-1E+10	1
4902642	28	C	03/27/2025	03:51	-131.502	46.289	0	2565.00	0	1.7470	0	34.6270	4	27.706	0	2528.437	0	70.1	4	21.0	4	-1E+10	1	-1E+10	1	-1E+10	1	-1E+10	1	-1E+10	1	-1E+10	1
4902642	28	C	03/27/2025	03:51	-131.502	46.289	0	2585.10	0	1.7410	0	34.6280	4	27.707	0	2548.131	0	71.0	4	21.3	4	-1E+10	1	-1E+10	1	-1E+10	1	-1E+10	1	-1E+10	1	-1E+10	1
4902642	28	C	03/27/2025	03:51	-131.502	46.289	0	2605.00	0	1.7310	0	34.6300	4	27.710	0	2567.628	0	72.1	4	21.6	4	-1E+10	1	-1E+10	1	-1E+10	1	-1E+10	1	-1E+10	1	-1E+10	1
4902642	28	C	03/27/2025	03:51	-131.502	46.289	0	2624.70	0	1.7240	0	34.6310	4	27.711	0	2586.927	0	73.0	4	21.9	4	-1E+10	1	-1E+10	1	-1E+10	1	-1E+10	1	-1E+10	1	-1E+10	1
4902642	28	C	03/27/2025	03:51	-131.502	46.289	0	2644.60	0	1.7140	0	34.6320	4	27.713	0	2606.420	0	74.0	4	22.2	4	-1E+10	1	-1E+10	1	-1E+10	1	-1E+10	1	-1E+10	1	-1E+10	1
4902642	28	C	03/27/2025	03:51	-131.502	46.289	0	2665.40	0	1.7050	0	34.6330	4	27.715	0	2626.793	0	74.9	4	22.4	4	-1E+10	1	-1E+10	1	-1E+10	1	-1E+10	1	-1E+10	1	-1E+10	1
4902642	28	C	03/27/2025	03:51	-131.502	46.289	0	2685.30	0	1.7000	0	34.6340	4	27.716	0	2646.283	0	75.4	4	22.6	4	-1E+10	1	-1E+10	1	-1E+10	1	-1E+10	1	-1E+10	1	-1E+10	1
4902642	28	C	03/27/2025	03:51	-131.502	46.289	0	2705.10	0	1.6960	0	34.6350	4	27.717	0	2665.673	0	76.1	4	22.8	4	-1E+10	1	-1E+10	1	-1E+10	1	-1E+10	1	-1E+10	1	-1E+10	1
4902642	28	C	03/27/2025	03:51	-131.502	46.289	0	2725.10	0	1.6900	0	34.6360	4	27.718	0	2685.257	0	76.7	4	23.0	4	-1E+10	1	-1E+10	1	-1E+10	1	-1E+10	1	-1E+10	1	-1E+10	1
4902642	28	C	03/27/2025	03:51	-131.502	46.289	0	2745.40	0	1.6870	0	34.6360	4	27.719	0	2705.133	0	77.3	4	23.1	4	-1E+10	1	-1E+10	1	-1E+10	1	-1E+10	1	-1E+10	1	-1E+10	1
4902642	28	C	03/27/2025	03:51	-131.502	46.289	0	2764.90	0	1.6800	0	34.6380	4	27.721	0	2724.224	0	78.4	4	23.4	4	-1E+10	1	-1E+10	1	-1E+10	1	-1E+10	1	-1E+10	1	-1E+10	1
4902642	28	C	03/27/2025	03:51	-131.502	46.289	0	2785.40	0	1.6710	0	34.6390	4	27.723	0	2744.292	0	79.3	4	23.7	4	-1E+10	1	-1E+10	1	-1E+10	1	-1E+10	1	-1E+10	1	-1E+10	1
4902642	28	C	03/27/2025	03:51	-131.502	46.289	0	2805.20	0	1.6650	0	34.6400	4	27.724	0	2763.674	0	80.1	4	24.0	4	-1E+10	1	-1E+10	1	-1E+10	1	-1E+10	1	-1E+10	1	-1E+10	1
4902642	28	C	03/27/2025	03:51	-131.502	46.289	0	2825.10	0	1.6610	0	34.6410	4	27.725	0	2783.151	0	80.7	4	24.1	4	-1E+10	1	-1E+10	1	-1E+10	1	-1E+10	1	-1E+10	1	-1E+10	1
4902642	28	C	03/27/2025	03:51	-131.502	46.289	0	2844.80	0	1.6580	0	34.6410	4	27.726	0	2802.431	0	81.1	4	24.3	4	-1E+10	1	-1E+10	1	-1E+10	1	-1E+10	1	-1E+10	1	-1E+10	1
4902642	28	C	03/27/2025	03:51	-131.502	46.289	0	2865.00	0	1.6550	0	34.6420	4	27.727	0	2822.198	0	81.8	4	24.5	4	-1E+10	1	-1E+10	1	-1E+10	1	-1E+10	1	-1E+10	1	-1E+10	1
4902642	28	C	03/27/2025	03:51	-131.502	46.289	0	2885.10	0	1.6500	0	34.6430	4	27.728	0	2841.866	0	82.4	4	24.6	4	-1E+10	1	-1E+10	1	-1E+10	1	-1E+10	1	-1E+10	1	-1E+10	1
4902642	28	C	03/27/2025	03:51	-131.502	46.289	0	2904.90	0	1.6480	0	34.6440	4	27.729	0	2861.239	0	82.9	4	24.8	4	-1E+10	1	-1E+10	1	-1E+10	1	-1E+10	1	-1E+10	1	-1E+10	1
4902642	28	C	03/27/2025	03:51	-131.502	46.289	0	2925.10	0	1.6450	0	34.6440	4	27.729	0	2881.001	0	83.4	4	24.9	4	-1E+10	1	-1E+10	1	-1E+10	1	-1E+10	1	-1E+10	1	-1E+10	1
4902642	28	C	03/27/2025	03:51	-131.502	46.289	0	2945.30	0	1.6440	0	34.6450	4	27.730	0	2900.761	0	83.6	4	25.0	4	-1E+10	1	-1E+10	1	-1E+10	1	-1E+10	1	-1E+10	1	-1E+10	1
4902642	28	C	03/27/2025	03:51	-131.502	46.289	0	2965.00	0	1.6420	0	34.6450	4	27.731	0	2920.030	0	84.3	4	25.2	4	-1E+10	1	-1E+10	1	-1E+10	1	-1E+10	1	-1E+10	1	-1E+10	1
4902642	28	C	03/27/2025	03:51	-131.502	46.289	0	2984.80	0	1.6350	0	34.6460	4	27.732	0	2939.396	0	85.2	4	25.5	4	-1E+10	1	-1E+10	1	-1E+10	1	-1E+10	1	-1E+10	1	-1E+10	1
4902642	28	C	03/27/2025	03:51	-131.502	46.289	0	3005.10	0	1.6310	0	34.6470	4	27.733	0	2959.249	0	85.7	4	25.6	4	-1E+10	1	-1E+10	1	-1E+10	1	-1E+10	1	-1E+10	1	-1E+10	1
4902642	28	C	03/27/2025	03:51	-131.502	46.289	0	3025.00	0	1.6300	0	34.6480	4	27.734	0	2978.708	0	86.0	4	25.7	4	-1E+10	1	-1E+10	1	-1E+10	1	-1E+10	1	-1E+10	1	-1E+10	1
4902642	28	C	03/27/2025	03:51	-131.502	46.289	0	3035.50	0	1.6310	0	34.6480	4	27.734	0	2988.975	0	86.1	4	25.7	4	-1E+10	1	-1E+10	1	-1E+10	1	-1E+10	1	-1E+10	1	-1E+10	1
4902642	28	C	03/27/2025	03:51	-131.502	46.289	0	3037.00	0	1.6310	0	34.6480	4	27.734	0	2990.442	0	86.1	4	25.7	4	-1E+10	1	-1E+10	1	-1E+10	1	-1E+10	1	-1E+10	1	-1E+10	1
4902642	28	C	03/27/2025	03:51	-131.502	46.289	0	3038.00	0	1.6300	0	34.6480	4	27.734	0	2991.420	0	86.2	4	25.8	4	-1E+10	1	-1E+10	1	-1E+10	1	-1E+10	1	-1E+10	1	-1E+10	1
4902642	28	C	03/27/2025	03:51	-131.502	46.289	0	3039.00	0	1.6300	0	34.6480	4	27.734	0	2992.398	0	86.2	4	25.8	4	-1E+10	1	-1E+10	1	-1E+10	1	-1E+10	1	-1E+10	1	-1E+10	1
4902642	28	C	03/27/2025	03:51	-131.502	46.289	0	3039.90	0	1.6300	0	34.6490	4	27.735	0	2993.277	0	86.2	4	25.8	4	-1E+10	1	-1E+10	1	-1E+10	1	-1E+10	1	-1E+10	1	-1E+10	1
4902642	28	C	03/27/2025	03:51	-131.502	46.289	0	3040.90	0	1.6300	0	34.6480	4	27.734	0	2994.255	0	86.2	4	25.8	4	-1E+10	1	-1E+10	1	-1E+10	1	-1E+10	1	-1E+10	1	-1E+10	1
4902642	28	C	03/27/2025	03:51	-131.502	46.289	0	3041.90	0	1.6300	0	34.6480	4	27.734	0	2995.233	0	86.2	4	25.8	4	-1E+10	1	-1E+10	1	-1E+10	1	-1E+10	1	-1E+10	1	-1E+10	1
4902642	28	C	03/27/2025	03:51	-131.502	46.289	0	3042.90	0	1.6300	0	34.6480	4	27.734	0	2996.211	0	86.2	4	25.8	4	-1E+10	1	-1E+10	1	-1E+10	1	-1E+10	1	-1E+10	1	-1E+10	1
4902642	28	C	03/27/2025	03:51	-131.502	46.289	0	3044.00	0	1.6300	0	34.6480	4	27.734	0	2997.286	0	86.2	4	25.8	4	-1E+10	1	-1E+10	1	-1E+10	1	-1E+10	1	-1E+10	1	-1E+10	1
4902642	28	C	03/27/2025	03:51	-131.502	46.289	0	3044.90	0	1.6300	0	34.6480	4	27.734	0	2998.166	0	86.3	4	25.8	4	-1E+10	1	-1E+10	1	-1E+10	1	-1E+10	1	-1E+10	1	-1E+10	1
4902642	28	C	03/27/2025	03:51	-131.502	46.289	0	3045.90	0	1.6300	0	34.6490	4	27.735	0	2999.144	0	86.3	4	25.8	4	-1E+10	1	-1E+10	1	-1E+10	1	-1E+10	1	-1E+10	1	-1E+10	1
4902642	28	C	03/27/2025	03:51	-131.502	46.289	0	3046.90	0	1.6300	0	34.6480	4	27.734	0	3000.122	0	86.3	4	25.8	4	-1E+10	1	-1E+10	1	-1E+10	1	-1E+10	1	-1E+10	1	-1E+10	1
4902642	28	C	03/27/2025	03:51	-131.502	46.289	0	3047.90	0	1.6300	0	34.6480	4	27.735	0	3001.099	0	86.3	4	25.8	4	-1E+10	1	-1E+10	1	-1E+10	1	-1E+10	1	-1E+10	1	-1E+10	1
4902642	28	C	03/27/2025	03:51	-131.502	46.289	0	3048.80	0	1.6300	0	34.6490	4	27.735	0	3001.980	0	86.3	4	25.8	4	-1E+10	1	-1E+10	1	-1E+10	1	-1E+10	1	-1E+10	1	-1E+10	1
4902642	28	C	03/27/2025	03:51	-131.502	46.289	0	3049.80	0	1.6300	0	34.6480	4	27.735	0	3002.957	0	86.4	4	25.8	4	-1E+10	1	-1E+10	1	-1E+10	1	-1E+10	1	-1E+10	1	-1E+10	1
4902642	28	C	03/27/2025	03:51	-131.502	46.289	0	3050.70	0	1.6300	0	34.6490	4	27.735	0	3003.837	0	86.4	4	25.8	4	-1E+10	1	-1E+10	1	-1E+10	1	-1E+10	1	-1E+10	1	-1E+10	1
4902642	28	C	03/27/2025	03:51	-131.502	46.289	0	3051.80	0	1.6300	0	34.6490	4	27.735	0	3004.913	0	86.4	4	25.8	4	-1E+10	1	-1E+10	1	-1E+10	1	-1E+10	1	-1E+10	1	-1E+10	1
4902642	28	C	03/27/2025	03:51	-131.502	46.289	0	3052.80	0	1.6300	0	34.6490	4	27.735	0	3005.890	0	86.5	4	25.8	4	-1E+10	1	-1E+10	1	-1E+10	1	-1E+10	1	-1E+10	1	-1E+10	1
4902642	28	C	03/27/2025	03:51	-131.502	46.289	0	3053.70	0	1.6290	0	34.6490	4	27.735	0	3006.770	0	86.5	4	25.8	4	-1E+10	1	-1E+10	1	-1E+10	1	-1E+10	1	-1E+10	1	-1E+10	1
4902642	28	C	03/27/2025	03:51	-131.502	46.289	0	3054.70	0	1.6290	0	34.6490	4	27.735	0	3007.748	0	86.5	4	25.9	4	-1E+10	1	-1E+10	1	-1E+10	1	-1E+10	1	-1E+10	1	-1E+10	1
4902642	28	C	03/27/2025	03:51	-131.502	46.289	0	3055.70	0	1.6280	0	34.6490	4	27.736	0	3008.726	0	86.5	4	25.9	4	-1E+10	1	-1E+10	1	-1E+10	1	-1E+10	1	-1E+10	1	-1E+10	1
4902642	28	C	03/27/2025	03:51	-131.502	46.289	0	3056.60	0	1.6280	0	34.6490	4	27.736	0	3009.606	0	86.5	4	25.9	4	-1E+10	1	-1E+10	1	-1E+10	1	-1E+10	1	-1E+10	1	-1E+10	1
4902642	28	C	03/27/2025	03:51	-131.502	46.289	0	3057.70	0	1.6290	0	34.6490	4	27.735	0	3010.681	0	86.6	4	25.9	4	-1E+10	1	-1E+10	1	-1E+10	1	-1E+10	1	-1E+10	1	-1E+10	1
4902642	28	C	03/27/2025	03:51	-131.502	46.289	0	3058.60	0	1.6280	0	34.6490	4	27.736	0	3011.561	0	86.6	4	25.9	4	-1E+10	1	-1E+10	1	-1E+10	1	-1E+10	1	-1E+10	1	-1E+10	1
4902642	28	C	03/27/2025	03:51	-131.502	46.289	0	3059.70	0	1.6290	0	34.6490	4	27.735	0	3012.636	0	86.6	4	25.9	4	-1E+10	1	-1E+10	1	-1E+10	1	-1E+10	1	-1E+10	1	-1E+10	1
4902642	28	C	03/27/2025	03:51	-131.502	46.289	0	3060.70	0	1.6280	0	34.6490	4	27.736	0	3013.614	0	86.6	4	25.9	4	-1E+10	1	-1E+10	1	-1E+10	1	-1E+10	1	-1E+10	1	-1E+10	1
4902642	28	C	03/27/2025	03:51	-131.502	46.289	0	3061.70	0	1.6280	0	34.6490	4	27.736	0	3014.592	0	86.6	4	25.9	4	-1E+10	1	-1E+10	1	-1E+10	1	-1E+10	1	-1E+10	1	-1E+10	1
4902642	28	C	03/27/2025	03:51	-131.502	46.289	0	3062.70	0	1.6280	0	34.6490	4	27.736	0	3015.569	0	86.7	4	25.9	4	-1E+10	1	-1E+10	1	-1E+10	1	-1E+10	1	-1E+10	1	-1E+10	1
4902642	28	C	03/27/2025	03:51	-131.502	46.289	0	3063.70	0	1.6270	0	34.6500	4	27.736	0	3016.547	0	86.7	4	25.9	4	-1E+10	1	-1E+10	1	-1E+10	1	-1E+10	1	-1E+10	1	-1E+10	1
4902642	28	C	03/27/2025	03:51	-131.502	46.289	0	3064.70	0	1.6270	0	34.6490	4	27.736	0	3017.525	0	86.7	4	25.9	4	-1E+10	1	-1E+10	1	-1E+10	1	-1E+10	1	-1E+10	1	-1E+10	1
4902642	28	C	03/27/2025	03:51	-131.502	46.289	0	3065.70	0	1.6270	0	34.6490	4	27.736	0	3018.502	0	86.7	4	25.9	4	-1E+10	1	-1E+10	1	-1E+10	1	-1E+10	1	-1E+10	1	-1E+10	1
4902642	28	C	03/27/2025	03:51	-131.502	46.289	0	3066.60	0	1.6270	0	34.6490	4	27.736	0	3019.382	0	86.7	4	25.9	4	-1E+10	1	-1E+10	1	-1E+10	1	-1E+10	1	-1E+10	1	-1E+10	1
4902642	28	C	03/27/2025	03:51	-131.502	46.289	0	3067.70	0	1.6270	0	34.6490	4	27.736	0	3020.458	0	86.7	4	25.9	4	-1E+10	1	-1E+10	1	-1E+10	1	-1E+10	1	-1E+10	1	-1E+10	1
4902642	28	C	03/27/2025	03:51	-131.502	46.289	0	3068.60	0	1.6270	0	34.6490	4	27.736	0	3021.338	0	86.8	4	25.9	4	-1E+10	1	-1E+10	1	-1E+10	1	-1E+10	1	-1E+10	1	-1E+10	1
4902642	28	C	03/27/2025	03:51	-131.502	46.289	0	3069.70	0	1.6270	0	34.6490	4	27.736	0	3022.413	0	86.8	4	25.9	4	-1E+10	1	-1E+10	1	-1E+10	1	-1E+10	1	-1E+10	1	-1E+10	1
4902642	28	C	03/27/2025	03:51	-131.502	46.289	0	3070.60	0	1.6270	0	34.6490	4	27.736	0	3023.293	0	86.8	4	25.9	4	-1E+10	1	-1E+10	1	-1E+10	1	-1E+10	1	-1E+10	1	-1E+10	1
4902642	28	C	03/27/2025	03:51	-131.502	46.289	0	3071.60	0	1.6270	0	34.6490	4	27.736	0	3024.271	0	86.8	4	25.9	4	-1E+10	1	-1E+10	1	-1E+10	1	-1E+10	1	-1E+10	1	-1E+10	1
4902642	28	C	03/27/2025	03:51	-131.502	46.289	0	3072.70	0	1.6270	0	34.6490	4	27.736	0	3025.346	0	86.8	4	25.9	4	-1E+10	1	-1E+10	1	-1E+10	1	-1E+10	1	-1E+10	1	-1E+10	1
4902642	28	C	03/27/2025	03:51	-131.502	46.289	0	3073.60	0	1.6270	0	34.6490	4	27.736	0	3026.226	0	86.8	4	25.9	4	-1E+10	1	-1E+10	1	-1E+10	1	-1E+10	1	-1E+10	1	-1E+10	1
4902642	28	C	03/27/2025	03:51	-131.502	46.289	0	3074.60	0	1.6270	0	34.6490	4	27.736	0	3027.204	0	86.8	4	25.9	4	-1E+10	1	-1E+10	1	-1E+10	1	-1E+10	1	-1E+10	1	-1E+10	1
4902642	28	C	03/27/2025	03:51	-131.502	46.289	0	3075.60	0	1.6270	0	34.6500	4	27.737	0	3028.181	0	86.8	4	25.9	4	-1E+10	1	-1E+10	1	-1E+10	1	-1E+10	1	-1E+10	1	-1E+10	1
4902642	28	C	03/27/2025	03:51	-131.502	46.289	0	3076.70	0	1.6270	0	34.6490	4	27.736	0	3029.256	0	86.8	4	25.9	4	-1E+10	1	-1E+10	1	-1E+10	1	-1E+10	1	-1E+10	1	-1E+10	1
4902642	28	C	03/27/2025	03:51	-131.502	46.289	0	3077.60	0	1.6270	0	34.6490	4	27.736	0	3030.136	0	86.9	4	26.0	4	-1E+10	1	-1E+10	1	-1E+10	1	-1E+10	1	-1E+10	1	-1E+10	1
4902642	28	C	03/27/2025	03:51	-131.502	46.289	0	3078.70	0	1.6270	0	34.6490	4	27.736	0	3031.212	0	86.8	4	26.0	4	-1E+10	1	-1E+10	1	-1E+10	1	-1E+10	1	-1E+10	1	-1E+10	1
4902642	28	C	03/27/2025	03:51	-131.502	46.289	0	3079.60	0	1.6270	0	34.6500	4	27.737	0	3032.092	0	86.8	4	26.0	4	-1E+10	1	-1E+10	1	-1E+10	1	-1E+10	1	-1E+10	1	-1E+10	1
4902642	28	C	03/27/2025	03:51	-131.502	46.289	0	3081.50	0	1.6250	0	34.6500	4	27.737	0	3033.949	0	86.8	4	26.0	4	-1E+10	1	-1E+10	1	-1E+10	1	-1E+10	1	-1E+10	1	-1E+10	1
4902642	28	C	03/27/2025	03:51	-131.502	46.289	0	3082.70	0	1.6260	0	34.6500	4	27.737	0	3035.122	0	86.8	4	25.9	4	-1E+10	1	-1E+10	1	-1E+10	1	-1E+10	1	-1E+10	1	-1E+10	1
4902642	28	C	03/27/2025	03:51	-131.502	46.289	0	3084.50	0	1.6260	0	34.6500	4	27.737	0	3036.882	0	86.8	4	25.9	4	-1E+10	1	-1E+10	1	-1E+10	1	-1E+10	1	-1E+10	1	-1E+10	1
4902642	28	C	03/27/2025	03:51	-131.502	46.289	0	3085.40	0	1.6250	0	34.6500	4	27.737	0	3037.761	0	87.0	4	26.0	4	-1E+10	1	-1E+10	1	-1E+10	1	-1E+10	1	-1E+10	1	-1E+10	1
4902642	28	C	03/27/2025	03:51	-131.502	46.289	0																										
4902642	30	C	04/15/2025	23:13	-131.391	46.265	0	0.80	0	9.8060	0	32.3650	0	24.927	0	0.793	0	258.6	4	92.0	4	-1E+10	1	-1E+10	1	-1E+10	1	-1E+10	1	-1E+10	1	-1E+10	1
4902642	30	C	04/15/2025	23:13	-131.391	46.265	0	0.90	0	9.8205	0	32.3620	0	24.923	0	0.893	0	258.8	4	92.1	4	-1E+10	1	-1E+10	1	-1E+10	1	-1E+10	1	-1E+10	1	-1E+10	1
4902642	30	C	04/15/2025	23:13	-131.391	46.265	0	1.00	0	9.8180	0	32.3580	0	24.920	0	0.992	0	258.0	4	91.8	4	-1E+10	1	-1E+10	1	-1E+10	1	-1E+10	1	-1E+10	1	-1E+10	1
4902642	30	C	04/15/2025	23:13	-131.391	46.265	0	1.70	0	9.8170	0	32.3580	0	24.920	0	1.686	0	258.1	4	91.9	4	-1E+10	1	-1E+10	1	-1E+10	1	-1E+10	1	-1E+10	1	-1E+10	1
4902642	30	C	04/15/2025	23:13	-131.391	46.265	0	2.70	0	9.8180	0	32.3550	0	24.918	0	2.678	0	258.1	4	91.9	4	-1E+10	1	-1E+10	1	-1E+10	1	-1E+10	1	-1E+10	1	-1E+10	1
4902642	30	C	04/15/2025	23:13	-131.391	46.265	0	3.40	0	9.8150	0	32.3570	0	24.920	0	3.372	0	258.1	4	91.9	4	-1E+10	1	-1E+10	1	-1E+10	1	-1E+10	1	-1E+10	1	-1E+10	1
4902642	30	C	04/15/2025	23:13	-131.391	46.265	0	4.70	0	9.8120	0	32.3610	0	24.923	0	4.661	0	258.1	4	91.8	4	-1E+10	1	-1E+10	1	-1E+10	1	-1E+10	1	-1E+10	1	-1E+10	1
4902642	30	C	04/15/2025	23:13	-131.391	46.265	0	5.70	0	9.8090	0	32.3610	0	24.924	0	5.653	0	257.9	4	91.8	4	-1E+10	1	-1E+10	1	-1E+10	1	-1E+10	1	-1E+10	1	-1E+10	1
4902642	30	C	04/15/2025	23:13	-131.391	46.265	0	6.70	0	9.8080	0	32.3600	0	24.923	0	6.645	0	257.9	4	91.8	4	-1E+10	1	-1E+10	1	-1E+10	1	-1E+10	1	-1E+10	1	-1E+10	1
4902642	30	C	04/15/2025	23:13	-131.391	46.265	0	7.80	0	9.8080	0	32.3600	0	24.923	0	7.736	0	257.8	4	91.7	4	-1E+10	1	-1E+10	1	-1E+10	1	-1E+10	1	-1E+10	1	-1E+10	1
4902642	30	C	04/15/2025	23:13	-131.391	46.265	0	8.40	0	9.8040	0	32.3570	0	24.922	0	8.331	0	257.8	4	91.7	4	-1E+10	1	-1E+10	1	-1E+10	1	-1E+10	1	-1E+10	1	-1E+10	1
4902642	30	C	04/15/2025	23:13	-131.391	46.265	0	9.40	0	9.8000	0	32.3610	0	24.925	0	9.322	0	257.7	4	91.7	4	-1E+10	1	-1E+10	1	-1E+10	1	-1E+10	1	-1E+10	1	-1E+10	1
4902642	30	C	04/15/2025	23:13	-131.391	46.265	0	14.70	0	9.7810	0	32.3620	0	24.929	0	14.578	0	257.3	4	91.5	4	-1E+10	1	-1E+10	1	-1E+10	1	-1E+10	1	-1E+10	1	-1E+10	1
4902642	30	C	04/15/2025	23:13	-131.391	46.265	0	24.90	0	9.7050	0	32.3810	0	24.957	0	24.694	0	256.3	4	91.0	4	-1E+10	1	-1E+10	1	-1E+10	1	-1E+10	1	-1E+10	1	-1E+10	1
4902642	30	C	04/15/2025	23:13	-131.391	46.265	0	34.90	0	9.6150	0	32.3950	0	24.982	0	34.610	0	255.9	4	90.7	4	-1E+10	1	-1E+10	1	-1E+10	1	-1E+10	1	-1E+10	1	-1E+10	1
4902642	30	C	04/15/2025	23:13	-131.391	46.265	0	45.10	0	9.5010	0	32.3830	0	24.992	0	44.724	0	255.7	4	90.4	4	-1E+10	1	-1E+10	1	-1E+10	1	-1E+10	1	-1E+10	1	-1E+10	1
4902642	30	C	04/15/2025	23:13	-131.391	46.265	0	54.80	0	9.4610	0	32.3840	0	24.999	0	54.342	0	254.5	4	89.9	4	-1E+10	1	-1E+10	1	-1E+10	1	-1E+10	1	-1E+10	1	-1E+10	1
4902642	30	C	04/15/2025	23:13	-131.391	46.265	0	65.70	0	9.3520	0	32.3870	0	25.019	0	65.149	0	252.5	4	89.0	4	-1E+10	1	-1E+10	1	-1E+10	1	-1E+10	1	-1E+10	1	-1E+10	1
4902642	30	C	04/15/2025	23:13	-131.391	46.265	0	74.90	0	9.0490	0	32.3600	0	25.045	0	74.270	0	250.9	4	87.8	4	-1E+10	1	-1E+10	1	-1E+10	1	-1E+10	1	-1E+10	1	-1E+10	1
4902642	30	C	04/15/2025	23:13	-131.391	46.265	0	85.20	0	8.6990	0	32.3570	0	25.097	0	84.481	0	248.6	4	86.3	4	-1E+10	1	-1E+10	1	-1E+10	1	-1E+10	1	-1E+10	1	-1E+10	1
4902642	30	C	04/15/2025	23:13	-131.391	46.265	0	94.80	0	8.5820	0	32.4180	0	25.162	0	93.998	0	238.6	4	82.7	4	-1E+10	1	-1E+10	1	-1E+10	1	-1E+10	1	-1E+10	1	-1E+10	1
4902642	30	C	04/15/2025	23:13	-131.391	46.265	0	105.60	0	8.4550	0	32.6660	0	25.376	0	104.704	0	221.4	4	76.7	4	-1E+10	1	-1E+10	1	-1E+10	1	-1E+10	1	-1E+10	1	-1E+10	1
4902642	30	C	04/15/2025	23:13	-131.391	46.265	0	114.60	0	8.2960	0	32.8440	0	25.539	0	113.625	0	208.6	4	72.1	4	-1E+10	1	-1E+10	1	-1E+10	1	-1E+10	1	-1E+10	1	-1E+10	1
4902642	30	C	04/15/2025	23:13	-131.391	46.265	0	124.50	0	8.0480	0	33.1570	0	25.822	0	123.438	0	201.7	4	69.4	4	-1E+10	1	-1E+10	1	-1E+10	1	-1E+10	1	-1E+10	1	-1E+10	1
4902642	30	C	04/15/2025	23:13	-131.391	46.265	0	135.60	0	7.9830	0	33.3600	0	25.991	0	134.439	0	196.9	4	67.8	4	-1E+10	1	-1E+10	1	-1E+10	1	-1E+10	1	-1E+10	1	-1E+10	1
4902642	30	C	04/15/2025	23:13	-131.391	46.265	0	145.20	0	7.8210	0	33.5090	0	26.131	0	143.954	0	192.4	4	66.1	4	-1E+10	1	-1E+10	1	-1E+10	1	-1E+10	1	-1E+10	1	-1E+10	1
4902642	30	C	04/15/2025	23:13	-131.391	46.265	0	155.00	0	7.5430	0	33.6350	0	26.270	0	153.666	0	189.2	4	64.6	4	-1E+10	1	-1E+10	1	-1E+10	1	-1E+10	1	-1E+10	1	-1E+10	1
4902642	30	C	04/15/2025	23:13	-131.391	46.265	0	164.90	0	7.3910	0	33.6760	0	26.324	0	163.477	0	185.6	4	63.2	4	-1E+10	1	-1E+10	1	-1E+10	1	-1E+10	1	-1E+10	1	-1E+10	1
4902642	30	C	04/15/2025	23:13	-131.391	46.265	0	174.90	0	7.2030	0	33.7140	0	26.380	0	173.387	0	180.3	4	61.2	4	-1E+10	1	-1E+10	1	-1E+10	1	-1E+10	1	-1E+10	1	-1E+10	1
4902642	30	C	04/15/2025	23:13	-131.391	46.265	0	184.70	0	7.0510	0	33.7320	0	26.416	0	183.097	0	175.6	4	59.4	4	-1E+10	1	-1E+10	1	-1E+10	1	-1E+10	1	-1E+10	1	-1E+10	1
4902642	30	C	04/15/2025	23:13	-131.391	46.265	0	194.50	0	6.9380	0	33.7520	0	26.447	0	192.808	0	170.3	4	57.4	4	-1E+10	1	-1E+10	1	-1E+10	1	-1E+10	1	-1E+10	1	-1E+10	1
4902642	30	C	04/15/2025	23:13	-131.391	46.265	0	209.80	0	6.7800	0	33.7760	0	26.487	0	207.967	0	163.7	4	55.0	4	-1E+10	1	-1E+10	1	-1E+10	1	-1E+10	1	-1E+10	1	-1E+10	1
4902642	30	C	04/15/2025	23:13	-131.391	46.265	0	230.00	0	6.4650	0	33.7980	0	26.546	0	227.979	0	147.8	4	49.3	4	-1E+10	1	-1E+10	1	-1E+10	1	-1E+10	1	-1E+10	1	-1E+10	1
4902642	30	C	04/15/2025	23:13	-131.391	46.265	0	250.00	0	6.1300	0	33.8060	0	26.596	0	247.792	0	129.3	4	42.8	4	-1E+10	1	-1E+10	1	-1E+10	1	-1E+10	1	-1E+10	1	-1E+10	1
4902642	30	C	04/15/2025	23:13	-131.391	46.265	0	270.00	0	5.8510	0	33.8160	0	26.639	0	267.602	0	113.3	4	37.3	4	-1E+10	1	-1E+10	1	-1E+10	1	-1E+10	1	-1E+10	1	-1E+10	1
4902642	30	C	04/15/2025	23:13	-131.391	46.265	0	290.40	0	5.6210	0	33.8310	0	26.679	0	287.807	0	97.9	4	32.1	4	-1E+10	1	-1E+10	1	-1E+10	1	-1E+10	1	-1E+10	1	-1E+10	1
4902642	30	C	04/15/2025	23:13	-131.391	46.265	0	309.80	0	5.4270	0	33.8510	0	26.718	0	307.019	0	85.1	4	27.7	4	-1E+10	1	-1E+10	1	-1E+10	1	-1E+10	1	-1E+10	1	-1E+10	1
4902642	30	C	04/15/2025	23:13	-131.391	46.265	0	330.00	0	5.2430	0	33.8680	0	26.753	0	327.022	0	77.6	4	25.2	4	-1E+10	1	-1E+10	1	-1E+10	1	-1E+10	1	-1E+10	1	-1E+10	1
4902642	30	C	04/15/2025	23:13	-131.391	46.265	0	350.20	0	5.0880	0	33.8840	0	26.784	0	347.023	0	70.1	4	22.7	4	-1E+10	1	-1E+10	1	-1E+10	1	-1E+10	1	-1E+10	1	-1E+10	1
4902642	30	C	04/15/2025	23:13	-131.391	46.265	0	369.60	0	5.0180	0	33.9110	0	26.813	0	366.230	0	61.3	4	19.8	4	-1E+10	1	-1E+10	1	-1E+10	1	-1E+10	1	-1E+10	1	-1E+10	1
4902642	30	C	04/15/2025	23:13	-131.391	46.265	0	389.80	0	4.9560	0	33.9420	0	26.845	0	386.227	0	53.9	4	17.4	4	-1E+10	1	-1E+10	1	-1E+10	1	-1E+10	1	-1E+10	1	-1E+10	1
4902642	30	C	04/15/2025	23:13	-131.391	46.265	0	409.70	0	4.8140	0	33.9590	0	26.875	0	405.925	0	48.9	4	15.7	4	-1E+10	1	-1E+10	1	-1E+10	1	-1E+10	1	-1E+10	1	-1E+10	1
4902642	30	C	04/15/2025	23:13	-131.391	46.265	0	429.40	0	4.7150	0	33.9840	0	26.906	0	425.423	0	43.9	4	14.1	4	-1E+10	1	-1E+10	1	-1E+10	1	-1E+10	1	-1E+10	1	-1E+10	1
4902642	30	C	04/15/2025	23:13	-131.391	46.265	0	449.70	0	4.6580	0	34.0020	0	26.926	0	445.513	0	38.7	4	12.4	4	-1E+10	1	-1E+10	1	-1E+10	1	-1E+10	1	-1E+10	1	-1E+10	1
4902642	30	C	04/15/2025	23:13	-131.391	46.265	0	470.60	0	4.5850	0	34.0280	0	26.955	0	466.195	0	34.0	4	10.9	4	-1E+10	1	-1E+10	1	-1E+10	1	-1E+10	1	-1E+10	1	-1E+10	1
4902642	30	C	04/15/2025	23:13	-131.391	46.265	0	489.80	0	4.5200	0	34.0450	0	26.976	0	485.193	0	29.3	4	9.4	4	-1E+10	1	-1E+10	1	-1E+10	1	-1E+10	1	-1E+10	1	-1E+10	1
4902642	30	C	04/15/2025	23:13	-131.391	46.265	0	509.50	0	4.5010	0	34.0760	0	27.003	0	504.684	0	23.2	4	7.4	4	-1E+10	1	-1E+10	1	-1E+10	1	-1E+10	1	-1E+10	1	-1E+10	1
4902642	30	C	04/15/2025	23:13	-131.391	46.265	0	529.60	0	4.4640	0	34.1020	0	27.027	0	524.568	0	19.9	4	6.4	4	-1E+10	1	-1E+10	1	-1E+10	1	-1E+10	1	-1E+10	1	-1E+10	1
4902642	30	C	04/15/2025	23:13	-131.391	46.265	0	549.70	0	4.4300	0	34.1150	0	27.041	0	544.451	0	18.3	4	5.8	4	-1E+10	1	-1E+10	1	-1E+10	1	-1E+10	1	-1E+10	1	-1E+10	1
4902642	30	C	04/15/2025	23:13	-131.391	46.265	0	569.80	0	4.3980	0	34.1270	0	27.055	0	564.332	0	16.5	4	5.3	4	-1E+10	1	-1E+10	1	-1E+10	1	-1E+10	1	-1E+10	1	-1E+10	1
4902642	30	C	04/15/2025	23:13	-131.391	46.265	0	589.80	0	4.3540	0	34.1430	0	27.072	0	584.112	0	15.0	4	4.8	4	-1E+10	1	-1E+10	1	-1E+10	1	-1E+10	1	-1E+10	1	-1E+10	1
4902642	30	C	04/15/2025	23:13	-131.391	46.265	0	609.10	0	4.2720	0	34.1550	0	27.090	0	603.198	0	13.7	4	4.3	4	-1E+10	1	-1E+10	1	-1E+10	1	-1E+10	1	-1E+10	1	-1E+10	1
4902642	30	C	04/15/2025	23:13	-131.391	46.265	0	629.80	0	4.2370	0	34.1740	0	27.109	0	623.666	0	12.2	4	3.9	4	-1E+10	1	-1E+10	1	-1E+10	1	-1E+10	1	-1E+10	1	-1E+10	1
4902642	30	C	04/15/2025	23:13	-131.391	46.265	0	649.70	0	4.1690	0	34.1830	0	27.124	0	643.342	0	11.6	4	3.7	4	-1E+10	1	-1E+10	1	-1E+10	1	-1E+10	1	-1E+10	1	-1E+10	1
4902642	30	C	04/15/2025	23:13	-131.391	46.265	0	669.60	0	4.0960	0	34.1910	0	27.138	0	663.015	0	10.9	4	3.4	4	-1E+10	1	-1E+10	1	-1E+10	1	-1E+10	1	-1E+10	1	-1E+10	1
4902642	30	C	04/15/2025	23:13	-131.391	46.265	0	690.20	0	4.0400	0	34.2030	0	27.153	0	683.379	0	10.3	4	3.2	4	-1E+10	1	-1E+10	1	-1E+10	1	-1E+10	1	-1E+10	1	-1E+10	1
4902642	30	C	04/15/2025	23:13	-131.391	46.265	0	709.90	0	3.9610	0	34.2110	0	27.168	0	702.851	0	9.5	4	3.0	4	-1E+10	1	-1E+10	1	-1E+10	1	-1E+10	1	-1E+10	1	-1E+10	1
4902642	30	C	04/15/2025	23:13	-131.391	46.265	0	729.60	0	3.9570	0	34.2300	0	27.184	0	722.322	0	8.3	4	2.6	4	-1E+10	1	-1E+10	1	-1E+10	1	-1E+10	1	-1E+10	1	-1E+10	1
4902642	30	C	04/15/2025	23:13	-131.391	46.265	0	749.50	0	3.9030	0	34.2430	0	27.199	0	741.988	0	7.9	4	2.5	4	-1E+10	1	-1E+10	1	-1E+10	1	-1E+10	1	-1E+10	1	-1E+10	1
4902642	30	C	04/15/2025	23:13	-131.391	46.265	0	769.70	0	3.8140	0	34.2470	0	27.212	0	761.948	0	7.7	4	2.4	4	-1E+10	1	-1E+10	1	-1E+10	1	-1E+10	1	-1E+10	1	-1E+10	1
4902642	30	C	04/15/2025	23:13	-131.391	46.265	0	789.10	0	3.7810	0	34.2600	0	27.226	0	781.117	0	7.2	4	2.3	4	-1E+10	1	-1E+10	1	-1E+10	1	-1E+10	1	-1E+10	1	-1E+10	1
4902642	30	C	04/15/2025	23:13	-131.391	46.265	0	809.80	0	3.7410	0	34.2690	0	27.237	0	801.568	0	6.9	4	2.2	4	-1E+10	1	-1E+10	1	-1E+10	1	-1E+10	1	-1E+10	1	-1E+10	1
4902642	30	C	04/15/2025	23:13	-131.391	46.265	0	829.80	0	3.7460	0	34.2840	0	27.248	0	821.325	0	6.2	4	1.9	4	-1E+10	1	-1E+10	1	-1E+10	1	-1E+10	1	-1E+10	1	-1E+10	1
4902642	30	C	04/15/2025	23:13	-131.391	46.265	0	849.70	0	3.7390	0	34.2990	0	27.261	0	840.982	0	5.7	4	1.8	4	-1E+10	1	-1E+10	1	-1E+10	1	-1E+10	1	-1E+10	1	-1E+10	1
4902642	30	C	04/15/2025	23:13	-131.391	46.265	0	870.50	0	3.7170	0	34.3160	0	27.277	0	861.525	0	5.5	4	1.7	4	-1E+10	1	-1E+10	1	-1E+10	1	-1E+10	1	-1E+10	1	-1E+10	1
4902642	30	C	04/15/2025	23:13	-131.391	46.265	0	889.60	0	3.6490	0	34.3260	0	27.292	0	880.388	0	5.4	4	1.7	4	-1E+10	1	-1E+10	1	-1E+10	1	-1E+10	1	-1E+10	1	-1E+10	1
4902642	30	C	04/15/2025	23:13	-131.391	46.265	0	909.60	0	3.5910	0	34.3330	0	27.303	0	900.138	0	5.5	4	1.7	4	-1E+10	1	-1E+10	1	-1E+10	1	-1E+10	1	-1E+10	1	-1E+10	1
4902642	30	C	04/15/2025	23:13	-131.391	46.265	0	929.70	0	3.5360	0	34.3410	0	27.315	0	919.985	0	5.5	4	1.7	4	-1E+10	1	-1E+10	1	-1E+10	1	-1E+10	1	-1E+10	1	-1E+10	1
4902642	30	C	04/15/2025	23:13	-131.391	46.265	0	949.50	0	3.5180	0	34.3520	0	27.326	0	939.534	0	5.6	4	1.7	4	-1E+10	1	-1E+10	1	-1E+10	1	-1E+10	1	-1E+10	1	-1E+10	1
4902642	30	C	04/15/2025	23:13	-131.391	46.265	0	969.80	0	3.5260	0	34.3690	0	27.339	0	959.574	0	5.8	4	1.8	4	-1E+10	1	-1E+10	1	-1E+10	1	-1E+10	1	-1E+10	1	-1E+10	1
4902642	30	C	04/15/2025	23:13	-131.391	46.265	0	990.10	0	3.5060	0	34.3850	0	27.353	0	979.613	0	6.2	4	1.9	4	-1E+10	1	-1E+10	1	-1E+10	1	-1E+10	1	-1E+10	1	-1E+10	1
4902642	30	C	04/15/2025	23:13	-131.391	46.265	0	1009.90	0	3.4560	0	34.3950	0	27.366	0	999.156	0	6.5	4	2.0	4	-1E+10	1	-1E+10	1	-1E+10	1	-1E+10	1	-1E+10	1	-1E+10	1
4902642	30	C	04/15/2025	23:13	-131.391	46.265	0	1029.60	0	3.4240	0	34.4030	0	27.376	0	1018.598	0	6.9	4	2.2	4	-1E+10	1	-1E+10	1	-1E+10	1	-1E+10	1	-1E+10	1	-1E+10	1
4902642	30	C	04/15/2025	23:13	-131.391	46.265	0	1049.50	0	3.3910	0	34.4110	0	27.386	0	1038.236	0	7.3	4	2.3	4	-1E+10	1	-1E+10	1	-1E+10	1	-1E+10	1	-1E+10	1	-1E+10	1
4902642	30	C	04/15/2025	23:13	-131.391	46.265	0	1069.60	0	3.3310	0	34.4180	0	27.397	0	1058.070	0	7.7	4	2.4	4	-1E+10	1	-1E+10	1	-1E+10	1	-1E+10	1	-1E+10	1	-1E+10	1
4902642	30	C	04/15/2025	23:13	-131.391	46.265	0	1089.80	0	3.2710	0	34.4250	0	27.408	0	1078.000	0	8.1	4	2.5	4	-1E+10	1	-1E+10	1	-1E+10	1	-1E+10	1	-1E+10	1	-1E+10	1
4902642	30	C	04/15/2025	23:13	-131.391	46.265	0	1109.80	0	3.2270	0	34.4300	0	27.416	0	1097.732	0	8.6	4	2.7	4	-1E+10	1	-1E+10	1	-1E+10	1	-1E+10	1	-1E+10	1	-1E+10	1
4902642	30	C	04/15/2025	23:13	-131.391	46.265	0	1129.80	0	3.1710	0	34.4370	0	27.427	0	1117.461	0	9.1	4	2.8	4	-1E+10	1	-1E+10	1	-1E+10	1	-1E+10	1	-1E+10	1	-1E+10	1
4902642	30	C	04/15/2025	23:13	-131.391	46.265	0	1150.10	0	3.1310	0	34.4420	0	27.435	0	1137.484	0	9.7	4	3.0	4	-1E+10	1	-1E+10	1	-1E+10	1	-1E+10	1	-1E+10	1	-1E+10	1
4902642	30	C	04/15/2025	23:13	-131.391	46.265	0	1169.70	0	3.0820	0	34.4490	0	27.445	0	1156.815	0	10.3	4	3.2	4	-1E+10	1	-1E+10	1	-1E+10	1	-1E+10	1	-1E+10	1	-1E+10	1
4902642	30	C	04/15/2025	23:13	-131.391	46.265	0	1190.00	0	3.0390	0	34.4550	0	27.454	0	1176.835	0	10.9	4	3.4	4	-1E+10	1	-1E+10	1	-1E+10	1	-1E+10	1	-1E+10	1	-1E+10	1
4902642	30	C	04/15/2025	23:13	-131.391	46.265	0	1209.60	0	3.0040	0	34.4590	0	27.461	0	1196.162	0	11.4	4	3.5	4	-1E+10	1	-1E+10	1	-1E+10	1	-1E+10	1	-1E+10	1	-1E+10	1
4902642	30	C	04/15/2025	23:13	-131.391	46.265	0	1230.20	0	2.9710	0	34.4630	0	27.467	0	1216.474	0	11.7	4	3.6	4	-1E+10	1	-1E+10	1	-1E+10	1	-1E+10	1	-1E+10	1	-1E+10	1
4902642	30	C	04/15/2025	23:13	-131.391	46.265	0	1250.00	0	2.9490	0	34.4660	0	27.471	0	1235.995	0	12.2	4	3.8	4	-1E+10	1	-1E+10	1	-1E+10	1	-1E+10	1	-1E+10	1	-1E+10	1
4902642	30	C	04/15/2025	23:13	-131.391	46.265	0	1269.70	0	2.9220	0	34.4700	0	27.477	0	1255.415	0	12.8	4	3.9	4	-1E+10	1	-1E+10	1	-1E+10	1	-1E+10	1	-1E+10	1	-1E+10	1
4902642	30	C	04/15/2025	23:13	-131.391	46.265	0	1289.50	0	2.8910	0	34.4730	0	27.482	0	1274.933	0	13.3	4	4.1	4	-1E+10	1	-1E+10	1	-1E+10	1	-1E+10	1	-1E+10	1	-1E+10	1
4902642	30	C	04/15/2025	23:13	-131.391	46.265	0	1309.70	0	2.8540	0	34.4770	0	27.489	0	1294.843	0	14.0	4	4.3	4	-1E+10	1	-1E+10	1	-1E+10	1	-1E+10	1	-1E+10	1	-1E+10	1
4902642	30	C	04/15/2025	23:13	-131.391	46.265	0	1329.80	0	2.8110	0	34.4820	0	27.497	0	1314.652	0	14.9	4	4.6	4	-1E+10	1	-1E+10	1	-1E+10	1	-1E+10	1	-1E+10	1	-1E+10	1
4902642	30	C	04/15/2025	23:13	-131.391	46.265	0	1349.70	0	2.7770	0	34.4860	0	27.503	0	1334.262	0	15.8	4	4.8	4	-1E+10	1	-1E+10	1	-1E+10	1	-1E+10	1	-1E+10	1	-1E+10	1
4902642	30	C	04/15/2025	23:13	-131.391	46.265	0	1370.40	0	2.7330	0	34.4920	0	27.512	0	1354.659	0	16.8	4	5.2	4	-1E+10	1	-1E+10	1	-1E+10	1	-1E+10	1	-1E+10	1	-1E+10	1
4902642	30	C	04/15/2025	23:13	-131.391	46.265	0	1389.70	0	2.6940	0	34.4960	0	27.518	0	1373.674	0	17.7	4	5.4	4	-1E+10	1	-1E+10	1	-1E+10	1	-1E+10	1	-1E+10	1	-1E+10	1
4902642	30	C	04/15/2025	23:13	-131.391	46.265	0	1409.70	0	2.6510	0	34.5010	0	27.526	0	1393.378	0	18.8	4	5.8	4	-1E+10	1	-1E+10	1	-1E+10	1	-1E+10	1	-1E+10	1	-1E+10	1
4902642	30	C	04/15/2025	23:13	-131.391	46.265	0	1429.70	0	2.6130	0	34.5050	0	27.533	0	1413.079	0	19.8	4	6.0	4	-1E+10	1	-1E+10	1	-1E+10	1	-1E+10	1	-1E+10	1	-1E+10	1
4902642	30	C	04/15/2025	23:13	-131.391	46.265	0	1450.60	0	2.5870	0	34.5080	0	27.538	0	1433.665	0	20.6	4	6.3	4	-1E+10	1	-1E+10	1	-1E+10	1	-1E+10	1	-1E+10	1	-1E+10	1
4902642	30	C	04/15/2025	23:13	-131.391	46.265	0	1469.90	0	2.5530	0	34.5130	0	27.545	0	1452.674	0	21.7	4	6.6	4	-1E+10	1	-1E+10	1	-1E+10	1	-1E+10	1	-1E+10	1	-1E+10	1
4902642	30	C	04/15/2025	23:13	-131.391	46.265	0	1489.70	0	2.5140	0	34.5170	0	27.551	0	1472.173	0	22.7	4	6.9	4	-1E+10	1	-1E+10	1	-1E+10	1	-1E+10	1	-1E+10	1	-1E+10	1
4902642	30	C	04/15/2025	23:13	-131.391	46.265	0	1509.80	0	2.4930	0	34.5190	0	27.555	0	1491.966	0	23.4	4	7.1	4	-1E+10	1	-1E+10	1	-1E+10	1	-1E+10	1	-1E+10	1	-1E+10	1
4902642	30	C	04/15/2025	23:13	-131.391	46.265	0	1529.70	0	2.4750	0	34.5220	0	27.559	0	1511.559	0	24.2	4	7.4	4	-1E+10	1	-1E+10	1	-1E+10	1	-1E+10	1	-1E+10	1	-1E+10	1
4902642	30	C	04/15/2025	23:13	-131.391	46.265	0	1549.80	0	2.4320	0	34.5260	0	27.565	0	1531.348	0	25.5	4	7.8	4	-1E+10	1	-1E+10	1	-1E+10	1	-1E+10	1	-1E+10	1	-1E+10	1
4902642	30	C	04/15/2025	23:13	-131.391	46.265	0	1569.80	0	2.4090	0	34.5290	0	27.570	0	1551.037	0	26.4	4	8.0	4	-1E+10	1	-1E+10	1	-1E+10	1	-1E+10	1	-1E+10	1	-1E+10	1
4902642	30	C	04/15/2025	23:13	-131.391	46.265	0	1589.80	0	2.3830	0	34.5320	0	27.575	0	1570.724	0	27.5	4	8.4	4	-1E+10	1	-1E+10	1	-1E+10	1	-1E+10	1	-1E+10	1	-1E+10	1
4902642	30	C	04/15/2025	23:13	-131.391	46.265	0	1609.70	0	2.3480	0	34.5360	0	27.581	0	1590.310	0	28.8	4	8.8	4	-1E+10	1	-1E+10	1	-1E+10	1	-1E+10	1	-1E+10	1	-1E+10	1
4902642	30	C	04/15/2025	23:13	-131.391	46.265	0	1629.70	0	2.3090	0	34.5400	0	27.587	0	1609.993	0	29.9	4	9.1	4	-1E+10	1	-1E+10	1	-1E+10	1	-1E+10	1	-1E+10	1	-1E+10	1
4902642	30	C	04/15/2025	23:13	-131.391	46.265	0	1649.90	0	2.2860	0	34.5430	0	27.592	0	1629.871	0	30.8	4	9.4	4	-1E+10	1	-1E+10	1	-1E+10	1	-1E+10	1	-1E+10	1	-1E+10	1
4902642	30	C	04/15/2025	23:13	-131.391	46.265	0	1668.90	0	2.2630	0	34.5450	0	27.595	0	1648.567	0	31.6	4	9.6	4	-1E+10	1	-1E+10	1	-1E+10	1	-1E+10	1	-1E+10	1	-1E+10	1
4902642	30	C	04/15/2025	23:13	-131.391	46.265	0	1689.80	0	2.2490	0	34.5470	0	27.598	0	1669.130	0	32.4	4	9.8	4	-1E+10	1	-1E+10	1	-1E+10	1	-1E+10	1	-1E+10	1	-1E+10	1
4902642	30	C	04/15/2025	23:13	-131.391	46.265	0	1710.00	0	2.2210	0	34.5500	0	27.603	0	1689.002	0	33.7	4	10.2	4	-1E+10	1	-1E+10	1	-1E+10	1	-1E+10	1	-1E+10	1	-1E+10	1
4902642	30	C	04/15/2025	23:13	-131.391	46.265	0	1729.80	0	2.1960	0	34.5540	0	27.608	0	1708.480	0	34.8	4	10.5	4	-1E+10	1	-1E+10	1	-1E+10	1	-1E+10	1	-1E+10	1	-1E+10	1
4902642	30	C	04/15/2025	23:13	-131.391	46.265	0	1749.80	0	2.1760	0	34.5570	0	27.612	0	1728.152	0	35.9	4	10.9	4	-1E+10	1	-1E+10	1	-1E+10	1	-1E+10	1	-1E+10	1	-1E+10	1
4902642	30	C	04/15/2025	23:13	-131.391	46.265	0	1769.90	0	2.1530	0	34.5600	0	27.617	0	1747.920	0	37.1	4	11.2	4	-1E+10	1	-1E+10	1	-1E+10	1	-1E+10	1	-1E+10	1	-1E+10	1
4902642	30	C	04/15/2025	23:13	-131.391	46.265	0	1790.60	0	2.1310	0	34.5630	0	27.621	0	1768.277	0	38.2	4	11.6	4	-1E+10	1	-1E+10	1	-1E+10	1	-1E+10	1	-1E+10	1	-1E+10	1
4902642	30	C	04/15/2025	23:13	-131.391	46.265	0	1809.90	0	2.1130	0	34.5660	0	27.625	0	1787.255	0	39.4	4	11.9	4	-1E+10	1	-1E+10	1	-1E+10	1	-1E+10	1	-1E+10	1	-1E+10	1
4902642	30	C	04/15/2025	23:13	-131.391	46.265	0	1829.70	0	2.0950	0	34.5680	0	27.628	0	1806.723	0	40.2	4	12.2	4	-1E+10	1	-1E+10	1	-1E+10	1	-1E+10	1	-1E+10	1	-1E+10	1
4902642	30	C	04/15/2025	23:13	-131.391	46.265	0	1849.80	0	2.0870	0	34.5700	0	27.630	0	1826.485	0	41.1	4	12.4	4	-1E+10	1	-1E+10	1	-1E+10	1	-1E+10	1	-1E+10	1	-1E+10	1
4902642	30	C	04/15/2025	23:13	-131.391	46.265	0	1869.60	0	2.0640	0	34.5730	0	27.635	0	1845.949	0	42.5	4	12.8	4	-1E+10	1	-1E+10	1	-1E+10	1	-1E+10	1	-1E+10	1	-1E+10	1
4902642	30	C	04/15/2025	23:13	-131.391	46.265	0	1888.80	0	2.0470	0	34.5760	0	27.638	0	1864.822	0	43.6	4	13.2	4	-1E+10	1	-1E+10	1	-1E+10	1	-1E+10	1	-1E+10	1	-1E+10	1
4902642	30	C	04/15/2025	23:13	-131.391	46.265	0	1909.90	0	2.0280	0	34.5790	0	27.642	0	1885.561	0	44.8	4	13.5	4	-1E+10	1	-1E+10	1	-1E+10	1	-1E+10	1	-1E+10	1	-1E+10	1
4902642	30	C	04/15/2025	23:13	-131.391	46.265	0	1929.70	0	2.0160	0	34.5810	0	27.645	0	1905.020	0	45.6	4	13.8	4	-1E+10	1	-1E+10	1	-1E+10	1	-1E+10	1	-1E+10	1	-1E+10	1
4902642	30	C	04/15/2025	23:13	-131.391	46.265	0	1949.60	0	2.0050	0	34.5830	0	27.648	0	1924.576	0	46.6	4	14.1	4	-1E+10	1	-1E+10	1	-1E+10	1	-1E+10	1	-1E+10	1	-1E+10	1
4902642	30	C	04/15/2025	23:13	-131.391	46.265	0	1969.80	0	1.9940	0	34.5850	0	27.650	0	1944.424	0	47.3	4	14.3	4	-1E+10	1	-1E+10	1	-1E+10	1	-1E+10	1	-1E+10	1	-1E+10	1
4902642	30	C	04/15/2025	23:13	-131.391	46.265	0	1989.70	0	1.9880	0	34.5870	0	27.652	0	1963.976	0	47.9	4	14.5	4	-1E+10	1	-1E+10	1	-1E+10	1	-1E+10	1	-1E+10	1	-1E+10	1
4902642	30	C	04/15/2025	23:13	-131.391	46.265	0	2009.60	0	1.9790	0	34.5880	4	27.654	0	1983.526	0	48.6	4	14.6	4	-1E+10	1	-1E+10	1	-1E+10	1	-1E+10	1	-1E+10	1	-1E+10	1
4902642	30	C	04/15/2025	23:13	-131.391	46.265	0	2029.70	0	1.9690	0	34.5900	4	27.656	0	2003.271	0	49.4	4	14.9	4	-1E+10	1	-1E+10	1	-1E+10	1	-1E+10	1	-1E+10	1	-1E+10	1
4902642	30	C	04/15/2025	23:13	-131.391	46.265	0	2049.50	0	1.9590	0	34.5920	4	27.659	0	2022.720	0	50.3	4	15.2	4	-1E+10	1	-1E+10	1	-1E+10	1	-1E+10	1	-1E+10	1	-1E+10	1
4902642	30	C	04/15/2025	23:13	-131.391	46.265	0	2069.40	0	1.9460	0	34.5940	4	27.662	0	2042.264	0	51.4	4	15.5	4	-1E+10	1	-1E+10	1	-1E+10	1	-1E+10	1	-1E+10	1	-1E+10	1
4902642	30	C	04/15/2025	23:13	-131.391	46.265	0	2090.30	0	1.9360	0	34.5960	4	27.664	0	2062.789	0	52.2	4	15.7	4	-1E+10	1	-1E+10	1	-1E+10	1	-1E+10	1	-1E+10	1	-1E+10	1
4902642	30	C	04/15/2025	23:13	-131.391	46.265	0	2110.60	0	1.9280	0	34.5980	4	27.666	0	2082.723	0	52.8	4	15.9	4	-1E+10	1	-1E+10	1	-1E+10	1	-1E+10	1	-1E+10	1	-1E+10	1
4902642	30	C	04/15/2025	23:13	-131.391	46.265	0	2130.00	0	1.9220	0	34.5990	4	27.668	0	2101.772	0	53.5	4	16.1	4	-1E+10	1	-1E+10	1	-1E+10	1	-1E+10	1	-1E+10	1	-1E+10	1
4902642	30	C	04/15/2025	23:13	-131.391	46.265	0	2150.20	0	1.9080	0	34.6010	4	27.671	0	2121.604	0	54.7	4	16.5	4	-1E+10	1	-1E+10	1	-1E+10	1	-1E+10	1	-1E+10	1	-1E+10	1
4902642	30	C	04/15/2025	23:13	-131.391	46.265	0	2170.10	0	1.8960	0	34.6030	4	27.673	0	2141.140	0	55.5	4	16.7	4	-1E+10	1	-1E+10	1	-1E+10	1	-1E+10	1	-1E+10	1	-1E+10	1
4902642	30	C	04/15/2025	23:13	-131.391	46.265	0	2190.00	0	1.8940	0	34.6040	4	27.674	0	2160.673	0	55.8	4	16.8	4	-1E+10	1	-1E+10	1	-1E+10	1	-1E+10	1	-1E+10	1	-1E+10	1
4902642	30	C	04/15/2025	23:13	-131.391	46.265	0	2210.20	0	1.8890	0	34.6050	4	27.676	0	2180.500	0	56.5	4	17.0	4	-1E+10	1	-1E+10	1	-1E+10	1	-1E+10	1	-1E+10	1	-1E+10	1
4902642	30	C	04/15/2025	23:13	-131.391	46.265	0	2230.50	0	1.8790	0	34.6070	4	27.678	0	2200.423	0	57.4	4	17.2	4	-1E+10	1	-1E+10	1	-1E+10	1	-1E+10	1	-1E+10	1	-1E+10	1
4902642	30	C	04/15/2025	23:13	-131.391	46.265	0	2249.70	0	1.8720	0	34.6090	4	27.680	0	2219.264	0	58.0	4	17.4	4	-1E+10	1	-1E+10	1	-1E+10	1	-1E+10	1	-1E+10	1	-1E+10	1
4902642	30	C	04/15/2025	23:13	-131.391	46.265	0	2269.90	0	1.8660	0	34.6100	4	27.682	0	2239.085	0	58.5	4	17.6	4	-1E+10	1	-1E+10	1	-1E+10	1	-1E+10	1	-1E+10	1	-1E+10	1
4902642	30	C	04/15/2025	23:13	-131.391	46.265	0	2289.90	0	1.8610	0	34.6110	4	27.683	0	2258.709	0	59.2	4	17.8	4	-1E+10	1	-1E+10	1	-1E+10	1	-1E+10	1	-1E+10	1	-1E+10	1
4902642	30	C	04/15/2025	23:13	-131.391	46.265	0	2310.00	0	1.8510	0	34.6130	4	27.686	0	2278.428	0	60.2	4	18.1	4	-1E+10	1	-1E+10	1	-1E+10	1	-1E+10	1	-1E+10	1	-1E+10	1
4902642	30	C	04/15/2025	23:13	-131.391	46.265	0	2329.90	0	1.8370	0	34.6140	4	27.687	0	2297.949	0	61.2	4	18.4	4	-1E+10	1	-1E+10	1	-1E+10	1	-1E+10	1	-1E+10	1	-1E+10	1
4902642	30	C	04/15/2025	23:13	-131.391	46.265	0	2349.90	0	1.8290	0	34.6150	4	27.689	0	2317.567	0	62.0	4	18.6	4	-1E+10	1	-1E+10	1	-1E+10	1	-1E+10	1	-1E+10	1	-1E+10	1
4902642	30	C	04/15/2025	23:13	-131.391	46.265	0	2369.70	0	1.8190	0	34.6170	4	27.691	0	2336.987	0	63.0	4	18.9	4	-1E+10	1	-1E+10	1	-1E+10	1	-1E+10	1	-1E+10	1	-1E+10	1
4902642	30	C	04/15/2025	23:13	-131.391	46.265	0	2389.80	0	1.8130	0	34.6180	4	27.693	0	2356.699	0	63.6	4	19.1	4	-1E+10	1	-1E+10	1	-1E+10	1	-1E+10	1	-1E+10	1	-1E+10	1
4902642	30	C	04/15/2025	23:13	-131.391	46.265	0	2409.70	0	1.8090	0	34.6190	4	27.694	0	2376.213	0	64.0	4	19.2	4	-1E+10	1	-1E+10	1	-1E+10	1	-1E+10	1	-1E+10	1	-1E+10	1
4902642	30	C	04/15/2025	23:13	-131.391	46.265	0	2430.60	0	1.8040	0	34.6200	4	27.695	0	2396.706	0	64.8	4	19.4	4	-1E+10	1	-1E+10	1	-1E+10	1	-1E+10	1	-1E+10	1	-1E+10	1
4902642	30	C	04/15/2025	23:13	-131.391	46.265	0	2449.80	0	1.7930	0	34.6220	4	27.698	0	2415.531	0	65.8	4	19.8	4	-1E+10	1	-1E+10	1	-1E+10	1	-1E+10	1	-1E+10	1	-1E+10	1
4902642	30	C	04/15/2025	23:13	-131.391	46.265	0	2470.00	0	1.7900	0	34.6220	4	27.698	0	2435.334	0	66.4	4	19.9	4	-1E+10	1	-1E+10	1	-1E+10	1	-1E+10	1	-1E+10	1	-1E+10	1
4902642	30	C	04/15/2025	23:13	-131.391	46.265	0	2490.00	0	1.7810	0	34.6240	4	27.701	0	2454.939	0	67.2	4	20.2	4	-1E+10	1	-1E+10	1	-1E+10	1	-1E+10	1	-1E+10	1	-1E+10	1
4902642	30	C	04/15/2025	23:13	-131.391	46.265	0	2509.80	0	1.7750	0	34.6250	4	27.702	0	2474.346	0	67.8	4	20.3	4	-1E+10	1	-1E+10	1	-1E+10	1	-1E+10	1	-1E+10	1	-1E+10	1
4902642	30	C	04/15/2025	23:13	-131.391	46.265	0	2529.80	0	1.7730	0	34.6250	4	27.702	0	2493.948	0	68.3	4	20.5	4	-1E+10	1	-1E+10	1	-1E+10	1	-1E+10	1	-1E+10	1	-1E+10	1
4902642	30	C	04/15/2025	23:13	-131.391	46.265	0	2549.70	0	1.7640	0	34.6260	4	27.704	0	2513.449	0	69.2	4	20.7	4	-1E+10	1	-1E+10	1	-1E+10	1	-1E+10	1	-1E+10	1	-1E+10	1
4902642	30	C	04/15/2025	23:13	-131.391	46.265	0	2569.90	0	1.7550	0	34.6270	4	27.706	0	2533.243	0	70.3	4	21.1	4	-1E+10	1	-1E+10	1	-1E+10	1	-1E+10	1	-1E+10	1	-1E+10	1
4902642	30	C	04/15/2025	23:13	-131.391	46.265	0	2589.90	0	1.7410	0	34.6290	4	27.708	0	2552.839	0	71.6	4	21.5	4	-1E+10	1	-1E+10	1	-1E+10	1	-1E+10	1	-1E+10	1	-1E+10	1
4902642	30	C	04/15/2025	23:13	-131.391	46.265	0	2609.90	0	1.7320	0	34.6310	4	27.711	0	2572.434	0	72.6	4	21.8	4	-1E+10	1	-1E+10	1	-1E+10	1	-1E+10	1	-1E+10	1	-1E+10	1
4902642	30	C	04/15/2025	23:13	-131.391	46.265	0	2630.00	0	1.7230	0	34.6320	4	27.712	0	2592.125	0	73.8	4	22.1	4	-1E+10	1	-1E+10	1	-1E+10	1	-1E+10	1	-1E+10	1	-1E+10	1
4902642	30	C	04/15/2025	23:13	-131.391	46.265	0	2649.60	0	1.7120	0	34.6340	4	27.715	0	2611.324	0	74.7	4	22.4	4	-1E+10	1	-1E+10	1	-1E+10	1	-1E+10	1	-1E+10	1	-1E+10	1
4902642	30	C	04/15/2025	23:13	-131.391	46.265	0	2669.80	0	1.7100	0	34.6340	4	27.715	0	2631.109	0	75.0	4	22.5	4	-1E+10	1	-1E+10	1	-1E+10	1	-1E+10	1	-1E+10	1	-1E+10	1
4902642	30	C	04/15/2025	23:13	-131.391	46.265	0	2689.90	0	1.7080	0	34.6350	4	27.716	0	2650.794	0	75.4	4	22.6	4	-1E+10	1	-1E+10	1	-1E+10	1	-1E+10	1	-1E+10	1	-1E+10	1
4902642	30	C	04/15/2025	23:13	-131.391	46.265	0	2710.10	0	1.7050	0	34.6350	4	27.716	0	2670.575	0	75.8	4	22.7	4	-1E+10	1	-1E+10	1	-1E+10	1	-1E+10	1	-1E+10	1	-1E+10	1
4902642	30	C	04/15/2025	23:13	-131.391	46.265	0	2730.00	0	1.7020	0	34.6350	4	27.717	0	2690.061	0	76.4	4	22.9	4	-1E+10	1	-1E+10	1	-1E+10	1	-1E+10	1	-1E+10	1	-1E+10	1
4902642	30	C	04/15/2025	23:13	-131.391	46.265	0	2749.80	0	1.6980	0	34.6360	4	27.718	0	2709.447	0	77.0	4	23.0	4	-1E+10	1	-1E+10	1	-1E+10	1	-1E+10	1	-1E+10	1	-1E+10	1
4902642	30	C	04/15/2025	23:13	-131.391	46.265	0	2769.80	0	1.6880	0	34.6380	4	27.720	0	2729.027	0	78.1	4	23.4	4	-1E+10	1	-1E+10	1	-1E+10	1	-1E+10	1	-1E+10	1	-1E+10	1
4902642	30	C	04/15/2025	23:13	-131.391	46.265	0	2789.30	0	1.6810	0	34.6390	4	27.722	0	2748.116	0	79.1	4	23.7	4	-1E+10	1	-1E+10	1	-1E+10	1	-1E+10	1	-1E+10	1	-1E+10	1
4902642	30	C	04/15/2025	23:13	-131.391	46.265	0	2799.60	0	1.6710	0	34.6400	4	27.723	0	2758.198	0	80.2	4	24.0	4	-1E+10	1	-1E+10	1	-1E+10	1	-1E+10	1	-1E+10	1	-1E+10	1
4902642	30	C	04/15/2025	23:13	-131.391	46.265	0	2800.60	0	1.6710	0	34.6400	4	27.724	0	2759.177	0	80.2	4	24.0	4	-1E+10	1	-1E+10	1	-1E+10	1	-1E+10	1	-1E+10	1	-1E+10	1
4902642	30	C	04/15/2025	23:13	-131.391	46.265	0	2801.60	0	1.6700	0	34.6410	4	27.724	0	2760.156	0	80.3	4	24.0	4	-1E+10	1	-1E+10	1	-1E+10	1	-1E+10	1	-1E+10	1	-1E+10	1
4902642	30	C	04/15/2025	23:13	-131.391	46.265	0	2802.60	0	1.6690	0	34.6410	4	27.724	0	2761.135	0	80.4	4	24.1	4	-1E+10	1	-1E+10	1	-1E+10	1	-1E+10	1	-1E+10	1	-1E+10	1
4902642	30	C	04/15/2025	23:13	-131.391	46.265	0	2803.50	0	1.6690	0	34.6410	4	27.724	0	2762.016	0	80.4	4	24.1	4	-1E+10	1	-1E+10	1	-1E+10	1	-1E+10	1	-1E+10	1	-1E+10	1
4902642	30	C	04/15/2025	23:13	-131.391	46.265	0	2804.40	0	1.6680	0	34.6410	4	27.725	0	2762.897	0	80.6	4	24.1	4	-1E+10	1	-1E+10	1	-1E+10	1	-1E+10	1	-1E+10	1	-1E+10	1
4902642	30	C	04/15/2025	23:13	-131.391	46.265	0	2805.40	0	1.6680	0	34.6410	4	27.725	0	2763.875	0	80.6	4	24.1	4	-1E+10	1	-1E+10	1	-1E+10	1	-1E+10	1	-1E+10	1	-1E+10	1
4902642	30	C	04/15/2025	23:13	-131.391	46.265	0	2806.40	0	1.6680	0	34.6410	4	27.725	0	2764.854	0	80.8	4	24.2	4	-1E+10	1	-1E+10	1	-1E+10	1	-1E+10	1	-1E+10	1	-1E+10	1
4902642	30	C	04/15/2025	23:13	-131.391	46.265	0	2807.30	0	1.6680	0	34.6410	4	27.725	0	2765.735	0	80.9	4	24.2	4	-1E+10	1	-1E+10	1	-1E+10	1	-1E+10	1	-1E+10	1	-1E+10	1
4902642	30	C	04/15/2025	23:13	-131.391	46.265	0	2808.30	0	1.6680	0	34.6410	4	27.725	0	2766.714	0	81.0	4	24.2	4	-1E+10	1	-1E+10	1	-1E+10	1	-1E+10	1	-1E+10	1	-1E+10	1
4902642	30	C	04/15/2025	23:13	-131.391	46.265	0	2809.30	0	1.6680	0	34.6410	4	27.725	0	2767.693	0	81.2	4	24.3	4	-1E+10	1	-1E+10	1	-1E+10	1	-1E+10	1	-1E+10	1	-1E+10	1
4902642	30	C	04/15/2025	23:13	-131.391	46.265	0	2810.30	0	1.6670	0	34.6410	4	27.725	0	2768.672	0	81.4	4	24.4	4	-1E+10	1	-1E+10	1	-1E+10	1	-1E+10	1	-1E+10	1	-1E+10	1
4902642	30	C	04/15/2025	23:13	-131.391	46.265	0	2811.20	0	1.6630	0	34.6410	4	27.725	0	2769.552	0	81.6	4	24.4	4	-1E+10	1	-1E+10	1	-1E+10	1	-1E+10	1	-1E+10	1	-1E+10	1
4902642	30	C	04/15/2025	23:13	-131.391	46.265	0	2812.20	0	1.6620	0	34.6410	4	27.725	0	2770.531	0	81.8	4	24.5	4	-1E+10	1	-1E+10	1	-1E+10	1	-1E+10	1	-1E+10	1	-1E+10	1
4902642	30	C	04/15/2025	23:13	-131.391	46.265	0	2813.20	0	1.6590	0	34.6410	4	27.725	0	2771.510	0	82.0	4	24.5	4	-1E+10	1	-1E+10	1	-1E+10	1	-1E+10	1	-1E+10	1	-1E+10	1
4902642	30	C	04/15/2025	23:13	-131.391	46.265	0	2814.20	0	1.6580	0	34.6420	4	27.726	0	2772.489	0	82.1	4	24.6	4	-1E+10	1	-1E+10	1	-1E+10	1	-1E+10	1	-1E+10	1	-1E+10	1
4902642	30	C	04/15/2025	23:13	-131.391	46.265	0	2815.50	0	1.6540	0	34.6420	4	27.726	0	2773.761	0	82.3	4	24.6	4	-1E+10	1	-1E+10	1	-1E+10	1	-1E+10	1	-1E+10	1	-1E+10	1
4902642	30	C	04/15/2025	23:13	-131.391	46.265	0	2817.00	0	1.6520	0	34.6430	4	27.727	0	2775.229	0	82.5	4	24.7	4	-1E+10	1	-1E+10	1	-1E+10	1	-1E+10	1	-1E+10	1	-1E+10	1
4902642	30	C	04/15/2025	23:13	-131.391	46.265	0	2817.90	0	1.6520	0	34.6430	4	27.727	0	2776.110	0	82.7	4	24.7	4	-1E+10	1	-1E+10	1	-1E+10	1	-1E+10	1	-1E+10	1	-1E+10	1
4902642	30	C	04/15/2025	23:13	-131.391	46.265	0	2819.00	0	1.6490	0	34.6430	4	27.728	0	2777.187	0	82.9	4	24.8	4	-1E+10	1	-1E+10	1	-1E+10	1	-1E+10	1	-1E+10	1	-1E+10	1
4902642	30	C	04/15/2025	23:13	-131.391	46.265	0	2819.80	0	1.6480	0	34.6430	4	27.728	0	2777.970	0	83.1	4	24.8	4	-1E+10	1	-1E+10	1	-1E+10	1	-1E+10	1	-1E+10	1	-1E+10	1
4902642	30	C	04/15/2025	23:13	-131.391	46.265	0	2820.70	0	1.6470	0	34.6430	4	27.728	0	2778.851	0	83.2	4	24.9	4	-1E+10	1	-1E+10	1	-1E+10	1	-1E+10	1	-1E+10	1	-1E+10	1
4902642	30	C	04/15/2025	23:13	-131.391	46.265	0	2821.70	0	1.6440	0	34.6430	4	27.728	0	2779.829	0	83.3	4	24.9	4	-1E+10	1	-1E+10	1	-1E+10	1	-1E+10	1	-1E+10	1	-1E+10	1
4902642	30	C	04/15/2025	23:13	-131.391	46.265	0	2822.60	0	1.6440	0	34.6430	4	27.728	0	2780.710	0	83.4	4	24.9	4	-1E+10	1	-1E+10	1	-1E+10	1	-1E+10	1	-1E+10	1	-1E+10	1
4902642	30	C	04/15/2025	23:13	-131.391	46.265	0	2823.40	0	1.6340	0	34.6460	4	27.731	0	2781.493	0	83.5	4	24.9	4	-1E+10	1	-1E+10	1	-1E+10	1	-1E+10	1	-1E+10	1	-1E+10	1
4902642	30	C	04/15/2025	23:13	-131.391	46.265	0	2824.50	0	1.6370	0	34.6450	4	27.730	0	2782.570	0	83.5	4	25.0	4	-1E+10	1	-1E+10	1	-1E+10	1	-1E+10	1	-1E+10	1	-1E+10	1
4902642	30	C	04/15/2025	23:13	-131.391	46.265	0	2825.40	0	1.6340	0	34.6460	4	27.731	0	2783.451	0	83.5	4	25.0	4	-1E+10	1	-1E+10	1	-1E+10	1	-1E+10	1	-1E+10	1	-1E+10	1
4902642	30	C	04/15/2025	23:13	-131.391	46.265	0	2826.40	0	1.6330	0	34.6460	4	27.731	0	2784.429	0	83.6	4	25.0	4	-1E+10	1	-1E+10	1	-1E+10	1	-1E+10	1	-1E+10	1	-1E+10	1
4902642	30	C	04/15/2025	23:13	-131.391	46.265	0	2827.30	0	1.6340	0	34.6450	4	27.730	0	2785.310	0	83.5	4	25.0	4	-1E+10	1	-1E+10	1	-1E+10	1	-1E+10	1	-1E+10	1	-1E+10	1
4902642	30	C	04/15/2025	23:13	-131.391	46.265	0	2828.30	0	1.6330	0	34.6450	4	27.730	0	2786.289	0	83.5	4	25.0	4	-1E+10	1	-1E+10	1	-1E+10	1	-1E+10	1	-1E+10	1	-1E+10	1
4902642	30	C	04/15/2025	23:13	-131.391	46.265	0	2829.20	0	1.6330	0	34.6460	4	27.731	0	2787.170	0	83.5	4	25.0	4	-1E+10	1	-1E+10	1	-1E+10	1	-1E+10	1	-1E+10	1	-1E+10	1
4902642	30	C	04/15/2025	23:13	-131.391	46.265	0	2830.60	0	1.6330	0	34.6450	4	27.730	0	2788.540	0	83.6	4	25.0	4	-1E+10	1	-1E+10	1	-1E+10	1	-1E+10	1	-1E+10	1	-1E+10	1
4902642	30	C	04/15/2025	23:13	-131.391	46.265	0	2831.90	0	1.6330	0	34.6460	4	27.731	0	2789.812	0	83.5	4	25.0	4	-1E+10	1	-1E+10	1	-1E+10	1	-1E+10	1	-1E+10	1	-1E+10	1
4902642	30	C	04/15/2025	23:13	-131.391	46.265	0	2832.80	0	1.6340	0	34.6460	4	27.731	0	2790.693	0	83.5	4	25.0	4	-1E+10	1	-1E+10	1	-1E+10	1	-1E+10	1	-1E+10	1	-1E+10	1
4902642	30	C	04/15/2025	23:13	-131.391	46.265	0	2833.70	0	1.6340	0	34.6450	4	27.730	0	2791.574	0	83.5	4	25.0	4	-1E+10	1	-1E+10	1	-1E+10	1	-1E+10	1	-1E+10	1	-1E+10	1
4902642	30	C	04/15/2025	23:13	-131.391	46.265	0	2834.50	0	1.6350	0	34.6460	4	27.731	0	2792.357	0	83.5	4	25.0	4	-1E+10	1	-1E+10	1	-1E+10	1	-1E+10	1	-1E+10	1	-1E+10	1
4902642	30	C	04/15/2025	23:13	-131.391	46.265	0	2835.40	0	1.6350	0	34.6450	4	27.730	0	2793.238	0	83.6	4	25.0	4	-1E+10	1	-1E+10	1	-1E+10	1	-1E+10	1	-1E+10	1	-1E+10	1
4902642	30	C	04/15/2025	23:13	-131.391	46.265	0	2836.20	0	1.6330	0	34.6470	4	27.732	0	2794.021	0	83.6	4	25.0	4	-1E+10	1	-1E+10	1	-1E+10	1	-1E+10	1	-1E+10	1	-1E+10	1
4902642	30	C	04/15/2025	23:13	-131.391	46.265	0	2837.50	0	1.6320	0	34.6460	4	27.731	0	2795.293	0	83.6	4	25.0	4	-1E+10	1	-1E+10	1	-1E+10	1	-1E+10	1	-1E+10	1	-1E+10	1
4902642	30	C	04/15/2025	23:13	-131.391	46.265	0	2838.80	0	1.6320	0	34.6460	4	27.731	0	2796.565	0	83.6	4	25.0	4	-1E+10	1	-1E+10	1	-1E+10	1	-1E+10	1	-1E+10	1	-1E+10	1
4902642	30	C	04/15/2025	23:13	-131.391	46.265	0	2839.60	0	1.6330	0	34.6460	4	27.731	0	2797.348	0	83.6	4	25.0	4	-1E+10	1	-1E+10	1	-1E+10	1	-1E+10	1	-1E+10	1	-1E+10	1
4902642	30	C	04/15/2025	23:13	-131.391	46.265	0	2840.60	0	1.6320	0	34.6460	4	27.731	0	2798.327	0	83.6	4	25.0	4	-1E+10	1	-1E+10	1	-1E+10	1	-1E+10	1	-1E+10	1	-1E+10	1
4902642	30	C	04/15/2025	23:13	-131.391	46.265	0	2841.50	0	1.6320	0	34.6460	4	27.731	0	2799.208	0	83.6	4	25.0	4	-1E+10	1	-1E+10	1	-1E+10	1	-1E+10	1	-1E+10	1	-1E+10	1
4902642	30	C	04/15/2025	23:13	-131.391	46.265	0	2842.50	0	1.6320	0	34.6460	4	27.731	0	2800.186	0	83.5	4	25.0	4	-1E+10	1	-1E+10	1	-1E+10	1	-1E+10	1	-1E+10	1	-1E+10	1
4902642	30	C	04/15/2025	23:13	-131.391	46.265	0	2843.50	0	1.6330	0	34.6460	4	27.731	0	2801.165	0	83.5	4	25.0	4	-1E+10	1	-1E+10	1	-1E+10	1	-1E+10	1	-1E+10	1	-1E+10	1
4902642	30	C	04/15/2025	23:13	-131.391	46.265	0	2844.40	0	1.6330	0	34.6460	4	27.731	0	2802.045	0	83.5	4	24.9	4	-1E+10	1	-1E+10	1	-1E+10	1	-1E+10	1	-1E+10	1	-1E+10	1
4902642	30	C	04/15/2025	23:13	-131.391	46.265	0	2845.90	0	1.6330	0	34.6460	4	27.731	0	2803.513	0	83.4	4	24.9	4	-1E+10	1	-1E+10	1	-1E+10	1	-1E+10	1	-1E+10	1	-1E+10	1
4902642	30	C	04/15/2025	23:13	-131.391	46.265	0	2846.60	0	1.6340	0	34.6460	4	27.731	0	2804.199	0	83.4	4	24.9	4	-1E+10	1	-1E+10	1	-1E+10	1	-1E+10	1	-1E+10	1	-1E+10	1
4902642	30	C	04/15/2025	23:13	-131.391	46.265	0	2847.40	0	1.6340	0	34.6460	4	27.731	0	2804.981	0	83.3	4	24.9	4	-1E+10	1	-1E+10	1	-1E+10	1	-1E+10	1	-1E+10	1	-1E+10	1
4902642	30	C	04/15/2025	23:13	-131.391	46.265	0	2849.00	0	1.6340	0	34.6460	4	27.731	0	2806.547	0	83.3	4	24.9	4	-1E+10	1	-1E+10	1	-1E+10	1	-1E+10	1	-1E+10	1	-1E+10	1
4902642	30	C	04/15/2025	23:13	-131.391	46.265	0	2849.60	0	1.6360	0	34.6450	4	27.730	0	2807.135	0	83.3	4	24.9	4	-1E+10	1	-1E+10	1	-1E+10	1	-1E+10	1	-1E+10	1	-1E+10	1
4902642	30	C	04/15/2025	23:13	-131.391	46.265	0																										
4902642	31	C	04/26/2025	01:13	-131.431	46.210	0	0.50	0	10.0010	0	32.3583	0	24.890	0	0.496	0	259.5	4	92.7	4	-1E+10	1	-1E+10	1	-1E+10	1	-1E+10	1	-1E+10	1	-1E+10	1
4902642	31	C	04/26/2025	01:13	-131.431	46.210	0	0.60	0	10.0017	0	32.3577	0	24.889	0	0.595	0	259.3	4	92.7	4	-1E+10	1	-1E+10	1	-1E+10	1	-1E+10	1	-1E+10	1	-1E+10	1
4902642	31	C	04/26/2025	01:13	-131.431	46.210	0	0.70	0	10.0013	0	32.3570	0	24.889	0	0.694	0	-1e10	1	-1e10	1	-1E+10	1	-1E+10	1	-1E+10	1	-1E+10	1	-1E+10	1	-1E+10	1
4902642	31	C	04/26/2025	01:13	-131.431	46.210	0	0.80	0	9.9960	0	32.3600	0	24.892	0	0.793	0	259.3	4	92.6	4	-1E+10	1	-1E+10	1	-1E+10	1	-1E+10	1	-1E+10	1	-1E+10	1
4902642	31	C	04/26/2025	01:13	-131.431	46.210	0	1.50	0	9.9990	0	32.3580	0	24.890	0	1.488	0	259.1	4	92.6	4	-1E+10	1	-1E+10	1	-1E+10	1	-1E+10	1	-1E+10	1	-1E+10	1
4902642	31	C	04/26/2025	01:13	-131.431	46.210	0	2.70	0	10.0020	0	32.3550	0	24.887	0	2.678	0	259.2	4	92.6	4	-1E+10	1	-1E+10	1	-1E+10	1	-1E+10	1	-1E+10	1	-1E+10	1
4902642	31	C	04/26/2025	01:13	-131.431	46.210	0	3.50	0	10.0010	0	32.3560	0	24.888	0	3.471	0	259.1	4	92.6	4	-1E+10	1	-1E+10	1	-1E+10	1	-1E+10	1	-1E+10	1	-1E+10	1
4902642	31	C	04/26/2025	01:13	-131.431	46.210	0	4.50	0	9.9990	0	32.3570	0	24.889	0	4.463	0	259.0	4	92.5	4	-1E+10	1	-1E+10	1	-1E+10	1	-1E+10	1	-1E+10	1	-1E+10	1
4902642	31	C	04/26/2025	01:13	-131.431	46.210	0	5.90	0	10.0000	0	32.3570	0	24.889	0	5.851	0	259.1	4	92.6	4	-1E+10	1	-1E+10	1	-1E+10	1	-1E+10	1	-1E+10	1	-1E+10	1
4902642	31	C	04/26/2025	01:13	-131.431	46.210	0	6.90	0	10.0030	0	32.3570	0	24.889	0	6.843	0	259.0	4	92.6	4	-1E+10	1	-1E+10	1	-1E+10	1	-1E+10	1	-1E+10	1	-1E+10	1
4902642	31	C	04/26/2025	01:13	-131.431	46.210	0	7.70	0	10.0030	0	32.3560	0	24.888	0	7.637	0	259.0	4	92.6	4	-1E+10	1	-1E+10	1	-1E+10	1	-1E+10	1	-1E+10	1	-1E+10	1
4902642	31	C	04/26/2025	01:13	-131.431	46.210	0	8.50	0	10.0000	0	32.3570	0	24.889	0	8.430	0	258.9	4	92.5	4	-1E+10	1	-1E+10	1	-1E+10	1	-1E+10	1	-1E+10	1	-1E+10	1
4902642	31	C	04/26/2025	01:13	-131.431	46.210	0	9.60	0	10.0010	0	32.3570	0	24.889	0	9.521	0	259.0	4	92.5	4	-1E+10	1	-1E+10	1	-1E+10	1	-1E+10	1	-1E+10	1	-1E+10	1
4902642	31	C	04/26/2025	01:13	-131.431	46.210	0	14.70	0	10.0040	0	32.3560	0	24.888	0	14.579	0	258.9	4	92.5	4	-1E+10	1	-1E+10	1	-1E+10	1	-1E+10	1	-1E+10	1	-1E+10	1
4902642	31	C	04/26/2025	01:13	-131.431	46.210	0	24.40	0	9.9730	0	32.3580	0	24.895	0	24.198	0	259.1	4	92.5	4	-1E+10	1	-1E+10	1	-1E+10	1	-1E+10	1	-1E+10	1	-1E+10	1
4902642	31	C	04/26/2025	01:13	-131.431	46.210	0	35.00	0	9.7760	0	32.3650	0	24.933	0	34.709	0	259.8	4	92.4	4	-1E+10	1	-1E+10	1	-1E+10	1	-1E+10	1	-1E+10	1	-1E+10	1
4902642	31	C	04/26/2025	01:13	-131.431	46.210	0	44.90	0	9.6740	0	32.3630	0	24.948	0	44.526	0	258.4	4	91.7	4	-1E+10	1	-1E+10	1	-1E+10	1	-1E+10	1	-1E+10	1	-1E+10	1
4902642	31	C	04/26/2025	01:13	-131.431	46.210	0	54.60	0	9.5510	0	32.3650	0	24.970	0	54.144	0	256.4	4	90.7	4	-1E+10	1	-1E+10	1	-1E+10	1	-1E+10	1	-1E+10	1	-1E+10	1
4902642	31	C	04/26/2025	01:13	-131.431	46.210	0	64.20	0	9.6020	0	32.3970	0	24.987	0	63.662	0	253.6	4	89.9	4	-1E+10	1	-1E+10	1	-1E+10	1	-1E+10	1	-1E+10	1	-1E+10	1
4902642	31	C	04/26/2025	01:13	-131.431	46.210	0	75.00	0	9.6030	0	32.4220	0	25.006	0	74.369	0	249.9	4	88.6	4	-1E+10	1	-1E+10	1	-1E+10	1	-1E+10	1	-1E+10	1	-1E+10	1
4902642	31	C	04/26/2025	01:13	-131.431	46.210	0	84.70	0	9.5310	0	32.4420	0	25.034	0	83.986	0	245.5	4	86.9	4	-1E+10	1	-1E+10	1	-1E+10	1	-1E+10	1	-1E+10	1	-1E+10	1
4902642	31	C	04/26/2025	01:13	-131.431	46.210	0	95.60	0	9.3960	0	32.4840	0	25.088	0	94.791	0	234.2	4	82.7	4	-1E+10	1	-1E+10	1	-1E+10	1	-1E+10	1	-1E+10	1	-1E+10	1
4902642	31	C	04/26/2025	01:13	-131.431	46.210	0	104.20	0	8.8690	0	32.6880	0	25.330	0	103.317	0	215.8	4	75.4	4	-1E+10	1	-1E+10	1	-1E+10	1	-1E+10	1	-1E+10	1	-1E+10	1
4902642	31	C	04/26/2025	01:13	-131.431	46.210	0	114.70	0	8.2390	0	33.1150	0	25.760	0	113.725	0	203.2	4	70.2	4	-1E+10	1	-1E+10	1	-1E+10	1	-1E+10	1	-1E+10	1	-1E+10	1
4902642	31	C	04/26/2025	01:13	-131.431	46.210	0	124.60	0	7.9960	0	33.3710	0	25.997	0	123.537	0	194.9	4	67.1	4	-1E+10	1	-1E+10	1	-1E+10	1	-1E+10	1	-1E+10	1	-1E+10	1
4902642	31	C	04/26/2025	01:13	-131.431	46.210	0	135.10	0	7.7070	0	33.5710	0	26.196	0	133.945	0	190.4	4	65.2	4	-1E+10	1	-1E+10	1	-1E+10	1	-1E+10	1	-1E+10	1	-1E+10	1
4902642	31	C	04/26/2025	01:13	-131.431	46.210	0	145.00	0	7.4560	0	33.6650	0	26.306	0	143.756	0	188.0	4	64.1	4	-1E+10	1	-1E+10	1	-1E+10	1	-1E+10	1	-1E+10	1	-1E+10	1
4902642	31	C	04/26/2025	01:13	-131.431	46.210	0	155.50	0	7.3060	0	33.7060	0	26.360	0	154.162	0	184.3	4	62.7	4	-1E+10	1	-1E+10	1	-1E+10	1	-1E+10	1	-1E+10	1	-1E+10	1
4902642	31	C	04/26/2025	01:13	-131.431	46.210	0	165.00	0	7.1650	0	33.7390	0	26.405	0	163.577	0	181.0	4	61.3	4	-1E+10	1	-1E+10	1	-1E+10	1	-1E+10	1	-1E+10	1	-1E+10	1
4902642	31	C	04/26/2025	01:13	-131.431	46.210	0	174.90	0	7.0630	0	33.7560	0	26.433	0	173.387	0	177.6	4	60.1	4	-1E+10	1	-1E+10	1	-1E+10	1	-1E+10	1	-1E+10	1	-1E+10	1
4902642	31	C	04/26/2025	01:13	-131.431	46.210	0	184.90	0	7.0030	0	33.7640	0	26.447	0	183.297	0	174.8	4	59.0	4	-1E+10	1	-1E+10	1	-1E+10	1	-1E+10	1	-1E+10	1	-1E+10	1
4902642	31	C	04/26/2025	01:13	-131.431	46.210	0	195.10	0	6.9250	0	33.7790	0	26.470	0	193.403	0	170.7	4	57.5	4	-1E+10	1	-1E+10	1	-1E+10	1	-1E+10	1	-1E+10	1	-1E+10	1
4902642	31	C	04/26/2025	01:13	-131.431	46.210	0	210.20	0	6.7580	0	33.7910	0	26.502	0	208.364	0	162.3	4	54.5	4	-1E+10	1	-1E+10	1	-1E+10	1	-1E+10	1	-1E+10	1	-1E+10	1
4902642	31	C	04/26/2025	01:13	-131.431	46.210	0	229.60	0	6.4410	0	33.8040	0	26.554	0	227.584	0	148.4	4	49.5	4	-1E+10	1	-1E+10	1	-1E+10	1	-1E+10	1	-1E+10	1	-1E+10	1
4902642	31	C	04/26/2025	01:13	-131.431	46.210	0	249.60	0	6.0850	0	33.8110	0	26.605	0	247.397	0	129.9	4	43.0	4	-1E+10	1	-1E+10	1	-1E+10	1	-1E+10	1	-1E+10	1	-1E+10	1
4902642	31	C	04/26/2025	01:13	-131.431	46.210	0	270.10	0	5.7580	0	33.8190	0	26.652	0	267.703	0	113.2	4	37.2	4	-1E+10	1	-1E+10	1	-1E+10	1	-1E+10	1	-1E+10	1	-1E+10	1
4902642	31	C	04/26/2025	01:13	-131.431	46.210	0	290.00	0	5.6100	0	33.8290	0	26.678	0	287.412	0	101.2	4	33.1	4	-1E+10	1	-1E+10	1	-1E+10	1	-1E+10	1	-1E+10	1	-1E+10	1
4902642	31	C	04/26/2025	01:13	-131.431	46.210	0	310.00	0	5.4710	0	33.8480	0	26.710	0	307.219	0	88.3	4	28.8	4	-1E+10	1	-1E+10	1	-1E+10	1	-1E+10	1	-1E+10	1	-1E+10	1
4902642	31	C	04/26/2025	01:13	-131.431	46.210	0	330.30	0	5.3200	0	33.8650	0	26.742	0	327.321	0	79.2	4	25.7	4	-1E+10	1	-1E+10	1	-1E+10	1	-1E+10	1	-1E+10	1	-1E+10	1
4902642	31	C	04/26/2025	01:13	-131.431	46.210	0	350.10	0	5.2580	0	33.8910	0	26.770	0	346.925	0	68.0	4	22.1	4	-1E+10	1	-1E+10	1	-1E+10	1	-1E+10	1	-1E+10	1	-1E+10	1
4902642	31	C	04/26/2025	01:13	-131.431	46.210	0	369.70	0	5.2290	0	33.9340	0	26.807	0	366.330	0	57.4	4	18.6	4	-1E+10	1	-1E+10	1	-1E+10	1	-1E+10	1	-1E+10	1	-1E+10	1
4902642	31	C	04/26/2025	01:13	-131.431	46.210	0	389.60	0	5.0850	0	33.9520	0	26.838	0	386.031	0	52.0	4	16.8	4	-1E+10	1	-1E+10	1	-1E+10	1	-1E+10	1	-1E+10	1	-1E+10	1
4902642	31	C	04/26/2025	01:13	-131.431	46.210	0	409.60	0	4.9570	0	33.9700	0	26.867	0	405.828	0	47.1	4	15.2	4	-1E+10	1	-1E+10	1	-1E+10	1	-1E+10	1	-1E+10	1	-1E+10	1
4902642	31	C	04/26/2025	01:13	-131.431	46.210	0	430.50	0	4.8570	0	33.9890	0	26.894	0	426.514	0	42.0	4	13.5	4	-1E+10	1	-1E+10	1	-1E+10	1	-1E+10	1	-1E+10	1	-1E+10	1
4902642	31	C	04/26/2025	01:13	-131.431	46.210	0	450.00	0	4.7840	0	34.0110	0	26.920	0	445.812	0	37.1	4	11.9	4	-1E+10	1	-1E+10	1	-1E+10	1	-1E+10	1	-1E+10	1	-1E+10	1
4902642	31	C	04/26/2025	01:13	-131.431	46.210	0	469.90	0	4.6850	0	34.0290	0	26.945	0	465.505	0	33.4	4	10.7	4	-1E+10	1	-1E+10	1	-1E+10	1	-1E+10	1	-1E+10	1	-1E+10	1
4902642	31	C	04/26/2025	01:13	-131.431	46.210	0	490.90	0	4.5970	0	34.0400	0	26.963	0	486.284	0	32.0	4	10.2	4	-1E+10	1	-1E+10	1	-1E+10	1	-1E+10	1	-1E+10	1	-1E+10	1
4902642	31	C	04/26/2025	01:13	-131.431	46.210	0	510.20	0	4.4880	0	34.0470	0	26.981	0	505.379	0	29.4	4	9.4	4	-1E+10	1	-1E+10	1	-1E+10	1	-1E+10	1	-1E+10	1	-1E+10	1
4902642	31	C	04/26/2025	01:13	-131.431	46.210	0	530.00	0	4.5070	0	34.0780	0	27.004	0	524.967	0	23.4	4	7.5	4	-1E+10	1	-1E+10	1	-1E+10	1	-1E+10	1	-1E+10	1	-1E+10	1
4902642	31	C	04/26/2025	01:13	-131.431	46.210	0	549.90	0	4.4620	0	34.0960	0	27.023	0	544.652	0	20.7	4	6.6	4	-1E+10	1	-1E+10	1	-1E+10	1	-1E+10	1	-1E+10	1	-1E+10	1
4902642	31	C	04/26/2025	01:13	-131.431	46.210	0	569.70	0	4.4140	0	34.1190	0	27.047	0	564.236	0	17.8	4	5.7	4	-1E+10	1	-1E+10	1	-1E+10	1	-1E+10	1	-1E+10	1	-1E+10	1
4902642	31	C	04/26/2025	01:13	-131.431	46.210	0	589.90	0	4.3760	0	34.1330	0	27.062	0	584.214	0	16.1	4	5.1	4	-1E+10	1	-1E+10	1	-1E+10	1	-1E+10	1	-1E+10	1	-1E+10	1
4902642	31	C	04/26/2025	01:13	-131.431	46.210	0	610.10	0	4.3240	0	34.1460	0	27.078	0	604.190	0	14.8	4	4.7	4	-1E+10	1	-1E+10	1	-1E+10	1	-1E+10	1	-1E+10	1	-1E+10	1
4902642	31	C	04/26/2025	01:13	-131.431	46.210	0	630.10	0	4.2540	0	34.1640	0	27.100	0	623.966	0	13.1	4	4.2	4	-1E+10	1	-1E+10	1	-1E+10	1	-1E+10	1	-1E+10	1	-1E+10	1
4902642	31	C	04/26/2025	01:13	-131.431	46.210	0	650.10	0	4.1920	0	34.1780	0	27.117	0	643.741	0	11.9	4	3.8	4	-1E+10	1	-1E+10	1	-1E+10	1	-1E+10	1	-1E+10	1	-1E+10	1
4902642	31	C	04/26/2025	01:13	-131.431	46.210	0	670.80	0	4.1290	0	34.1940	0	27.137	0	664.205	0	10.7	4	3.4	4	-1E+10	1	-1E+10	1	-1E+10	1	-1E+10	1	-1E+10	1	-1E+10	1
4902642	31	C	04/26/2025	01:13	-131.431	46.210	0	690.10	0	4.0960	0	34.2080	0	27.152	0	683.284	0	9.8	4	3.1	4	-1E+10	1	-1E+10	1	-1E+10	1	-1E+10	1	-1E+10	1	-1E+10	1
4902642	31	C	04/26/2025	01:13	-131.431	46.210	0	709.90	0	3.9920	0	34.2080	0	27.162	0	702.855	0	9.9	4	3.1	4	-1E+10	1	-1E+10	1	-1E+10	1	-1E+10	1	-1E+10	1	-1E+10	1
4902642	31	C	04/26/2025	01:13	-131.431	46.210	0	729.90	0	3.9390	0	34.2240	0	27.181	0	722.622	0	8.9	4	2.8	4	-1E+10	1	-1E+10	1	-1E+10	1	-1E+10	1	-1E+10	1	-1E+10	1
4902642	31	C	04/26/2025	01:13	-131.431	46.210	0	749.70	0	3.8940	0	34.2290	0	27.189	0	742.189	0	8.6	4	2.7	4	-1E+10	1	-1E+10	1	-1E+10	1	-1E+10	1	-1E+10	1	-1E+10	1
4902642	31	C	04/26/2025	01:13	-131.431	46.210	0	770.30	0	3.8610	0	34.2420	0	27.203	0	762.545	0	7.9	4	2.5	4	-1E+10	1	-1E+10	1	-1E+10	1	-1E+10	1	-1E+10	1	-1E+10	1
4902642	31	C	04/26/2025	01:13	-131.431	46.210	0	789.80	0	3.8120	0	34.2520	0	27.216	0	781.812	0	7.6	4	2.4	4	-1E+10	1	-1E+10	1	-1E+10	1	-1E+10	1	-1E+10	1	-1E+10	1
4902642	31	C	04/26/2025	01:13	-131.431	46.210	0	809.80	0	3.7680	0	34.2650	0	27.231	0	801.572	0	6.9	4	2.2	4	-1E+10	1	-1E+10	1	-1E+10	1	-1E+10	1	-1E+10	1	-1E+10	1
4902642	31	C	04/26/2025	01:13	-131.431	46.210	0	830.00	0	3.7410	0	34.2870	0	27.251	0	821.527	0	6.1	4	1.9	4	-1E+10	1	-1E+10	1	-1E+10	1	-1E+10	1	-1E+10	1	-1E+10	1
4902642	31	C	04/26/2025	01:13	-131.431	46.210	0	850.00	0	3.7460	0	34.3100	0	27.269	0	841.282	0	5.5	4	1.7	4	-1E+10	1	-1E+10	1	-1E+10	1	-1E+10	1	-1E+10	1	-1E+10	1
4902642	31	C	04/26/2025	01:13	-131.431	46.210	0	869.90	0	3.6970	0	34.3220	0	27.284	0	860.937	0	5.4	4	1.7	4	-1E+10	1	-1E+10	1	-1E+10	1	-1E+10	1	-1E+10	1	-1E+10	1
4902642	31	C	04/26/2025	01:13	-131.431	46.210	0	889.80	0	3.6450	0	34.3310	0	27.296	0	880.590	0	5.4	4	1.7	4	-1E+10	1	-1E+10	1	-1E+10	1	-1E+10	1	-1E+10	1	-1E+10	1
4902642	31	C	04/26/2025	01:13	-131.431	46.210	0	909.80	0	3.6010	0	34.3410	0	27.309	0	900.340	0	5.4	4	1.7	4	-1E+10	1	-1E+10	1	-1E+10	1	-1E+10	1	-1E+10	1	-1E+10	1
4902642	31	C	04/26/2025	01:13	-131.431	46.210	0	929.60	0	3.5990	0	34.3540	0	27.319	0	919.891	0	5.4	4	1.7	4	-1E+10	1	-1E+10	1	-1E+10	1	-1E+10	1	-1E+10	1	-1E+10	1
4902642	31	C	04/26/2025	01:13	-131.431	46.210	0	950.50	0	3.5670	0	34.3690	0	27.335	0	940.526	0	5.7	4	1.8	4	-1E+10	1	-1E+10	1	-1E+10	1	-1E+10	1	-1E+10	1	-1E+10	1
4902642	31	C	04/26/2025	01:13	-131.431	46.210	0	969.90	0	3.5150	0	34.3790	0	27.348	0	959.678	0	5.9	4	1.9	4	-1E+10	1	-1E+10	1	-1E+10	1	-1E+10	1	-1E+10	1	-1E+10	1
4902642	31	C	04/26/2025	01:13	-131.431	46.210	0	989.80	0	3.4860	0	34.3870	0	27.357	0	979.321	0	6.2	4	1.9	4	-1E+10	1	-1E+10	1	-1E+10	1	-1E+10	1	-1E+10	1	-1E+10	1
4902642	31	C	04/26/2025	01:13	-131.431	46.210	0	1009.70	0	3.4490	0	34.3970	0	27.369	0	998.963	0	6.6	4	2.1	4	-1E+10	1	-1E+10	1	-1E+10	1	-1E+10	1	-1E+10	1	-1E+10	1
4902642	31	C	04/26/2025	01:13	-131.431	46.210	0	1030.40	0	3.4080	0	34.4060	0	27.380	0	1019.393	0	7.1	4	2.2	4	-1E+10	1	-1E+10	1	-1E+10	1	-1E+10	1	-1E+10	1	-1E+10	1
4902642	31	C	04/26/2025	01:13	-131.431	46.210	0	1050.10	0	3.3660	0	34.4140	0	27.390	0	1038.834	0	7.5	4	2.3	4	-1E+10	1	-1E+10	1	-1E+10	1	-1E+10	1	-1E+10	1	-1E+10	1
4902642	31	C	04/26/2025	01:13	-131.431	46.210	0	1070.10	0	3.3290	0	34.4200	0	27.399	0	1058.569	0	7.8	4	2.4	4	-1E+10	1	-1E+10	1	-1E+10	1	-1E+10	1	-1E+10	1	-1E+10	1
4902642	31	C	04/26/2025	01:13	-131.431	46.210	0	1090.10	0	3.2930	0	34.4250	0	27.406	0	1078.302	0	8.2	4	2.5	4	-1E+10	1	-1E+10	1	-1E+10	1	-1E+10	1	-1E+10	1	-1E+10	1
4902642	31	C	04/26/2025	01:13	-131.431	46.210	0	1110.10	0	3.2400	0	34.4310	0	27.416	0	1098.033	0	8.6	4	2.7	4	-1E+10	1	-1E+10	1	-1E+10	1	-1E+10	1	-1E+10	1	-1E+10	1
4902642	31	C	04/26/2025	01:13	-131.431	46.210	0	1130.40	0	3.2050	0	34.4350	0	27.423	0	1118.059	0	9.0	4	2.8	4	-1E+10	1	-1E+10	1	-1E+10	1	-1E+10	1	-1E+10	1	-1E+10	1
4902642	31	C	04/26/2025	01:13	-131.431	46.210	0	1150.20	0	3.1710	0	34.4390	0	27.429	0	1137.589	0	9.3	4	2.9	4	-1E+10	1	-1E+10	1	-1E+10	1	-1E+10	1	-1E+10	1	-1E+10	1
4902642	31	C	04/26/2025	01:13	-131.431	46.210	0	1169.80	0	3.1310	0	34.4440	0	27.437	0	1156.920	0	9.7	4	3.0	4	-1E+10	1	-1E+10	1	-1E+10	1	-1E+10	1	-1E+10	1	-1E+10	1
4902642	31	C	04/26/2025	01:13	-131.431	46.210	0	1189.90	0	3.0980	0	34.4480	0	27.443	0	1176.742	0	10.1	4	3.1	4	-1E+10	1	-1E+10	1	-1E+10	1	-1E+10	1	-1E+10	1	-1E+10	1
4902642	31	C	04/26/2025	01:13	-131.431	46.210	0	1210.10	0	3.0560	0	34.4530	0	27.451	0	1196.662	0	10.7	4	3.3	4	-1E+10	1	-1E+10	1	-1E+10	1	-1E+10	1	-1E+10	1	-1E+10	1
4902642	31	C	04/26/2025	01:13	-131.431	46.210	0	1230.00	0	3.0120	0	34.4580	0	27.459	0	1216.283	0	11.3	4	3.5	4	-1E+10	1	-1E+10	1	-1E+10	1	-1E+10	1	-1E+10	1	-1E+10	1
4902642	31	C	04/26/2025	01:13	-131.431	46.210	0	1249.60	0	2.9760	0	34.4620	0	27.466	0	1235.607	0	11.8	4	3.6	4	-1E+10	1	-1E+10	1	-1E+10	1	-1E+10	1	-1E+10	1	-1E+10	1
4902642	31	C	04/26/2025	01:13	-131.431	46.210	0	1269.60	0	2.9320	0	34.4670	0	27.474	0	1255.323	0	12.4	4	3.8	4	-1E+10	1	-1E+10	1	-1E+10	1	-1E+10	1	-1E+10	1	-1E+10	1
4902642	31	C	04/26/2025	01:13	-131.431	46.210	0	1289.60	0	2.9000	0	34.4700	0	27.479	0	1275.038	0	13.0	4	4.0	4	-1E+10	1	-1E+10	1	-1E+10	1	-1E+10	1	-1E+10	1	-1E+10	1
4902642	31	C	04/26/2025	01:13	-131.431	46.210	0	1309.80	0	2.8550	0	34.4760	0	27.488	0	1294.948	0	13.8	4	4.3	4	-1E+10	1	-1E+10	1	-1E+10	1	-1E+10	1	-1E+10	1	-1E+10	1
4902642	31	C	04/26/2025	01:13	-131.431	46.210	0	1329.90	0	2.8160	0	34.4800	0	27.495	0	1314.757	0	14.7	4	4.5	4	-1E+10	1	-1E+10	1	-1E+10	1	-1E+10	1	-1E+10	1	-1E+10	1
4902642	31	C	04/26/2025	01:13	-131.431	46.210	0	1350.00	0	2.7680	0	34.4860	0	27.504	0	1334.565	0	15.6	4	4.8	4	-1E+10	1	-1E+10	1	-1E+10	1	-1E+10	1	-1E+10	1	-1E+10	1
4902642	31	C	04/26/2025	01:13	-131.431	46.210	0	1370.80	0	2.7330	0	34.4910	0	27.511	0	1355.060	0	16.4	4	5.0	4	-1E+10	1	-1E+10	1	-1E+10	1	-1E+10	1	-1E+10	1	-1E+10	1
4902642	31	C	04/26/2025	01:13	-131.431	46.210	0	1389.80	0	2.7120	0	34.4940	0	27.515	0	1373.780	0	17.0	4	5.2	4	-1E+10	1	-1E+10	1	-1E+10	1	-1E+10	1	-1E+10	1	-1E+10	1
4902642	31	C	04/26/2025	01:13	-131.431	46.210	0	1410.10	0	2.6900	0	34.4970	0	27.520	0	1393.779	0	17.7	4	5.4	4	-1E+10	1	-1E+10	1	-1E+10	1	-1E+10	1	-1E+10	1	-1E+10	1
4902642	31	C	04/26/2025	01:13	-131.431	46.210	0	1430.00	0	2.6590	0	34.5000	0	27.525	0	1413.382	0	18.4	4	5.6	4	-1E+10	1	-1E+10	1	-1E+10	1	-1E+10	1	-1E+10	1	-1E+10	1
4902642	31	C	04/26/2025	01:13	-131.431	46.210	0	1449.70	0	2.6310	0	34.5040	0	27.531	0	1432.786	0	19.3	4	5.9	4	-1E+10	1	-1E+10	1	-1E+10	1	-1E+10	1	-1E+10	1	-1E+10	1
4902642	31	C	04/26/2025	01:13	-131.431	46.210	0	1469.60	0	2.5980	0	34.5080	0	27.537	0	1452.386	0	20.4	4	6.2	4	-1E+10	1	-1E+10	1	-1E+10	1	-1E+10	1	-1E+10	1	-1E+10	1
4902642	31	C	04/26/2025	01:13	-131.431	46.210	0	1489.50	0	2.5500	0	34.5130	0	27.545	0	1471.983	0	21.7	4	6.6	4	-1E+10	1	-1E+10	1	-1E+10	1	-1E+10	1	-1E+10	1	-1E+10	1
4902642	31	C	04/26/2025	01:13	-131.431	46.210	0	1509.70	0	2.5150	0	34.5170	0	27.551	0	1491.875	0	22.8	4	7.0	4	-1E+10	1	-1E+10	1	-1E+10	1	-1E+10	1	-1E+10	1	-1E+10	1
4902642	31	C	04/26/2025	01:13	-131.431	46.210	0	1530.30	0	2.4630	0	34.5220	0	27.560	0	1512.158	0	24.2	4	7.4	4	-1E+10	1	-1E+10	1	-1E+10	1	-1E+10	1	-1E+10	1	-1E+10	1
4902642	31	C	04/26/2025	01:13	-131.431	46.210	0	1549.90	0	2.4350	0	34.5250	0	27.564	0	1531.455	0	25.0	4	7.6	4	-1E+10	1	-1E+10	1	-1E+10	1	-1E+10	1	-1E+10	1	-1E+10	1
4902642	31	C	04/26/2025	01:13	-131.431	46.210	0	1570.00	0	2.4060	0	34.5290	0	27.570	0	1551.242	0	26.2	4	8.0	4	-1E+10	1	-1E+10	1	-1E+10	1	-1E+10	1	-1E+10	1	-1E+10	1
4902642	31	C	04/26/2025	01:13	-131.431	46.210	0	1589.70	0	2.3830	0	34.5310	0	27.574	0	1570.633	0	27.1	4	8.2	4	-1E+10	1	-1E+10	1	-1E+10	1	-1E+10	1	-1E+10	1	-1E+10	1
4902642	31	C	04/26/2025	01:13	-131.431	46.210	0	1610.00	0	2.3440	0	34.5360	0	27.581	0	1590.613	0	28.5	4	8.7	4	-1E+10	1	-1E+10	1	-1E+10	1	-1E+10	1	-1E+10	1	-1E+10	1
4902642	31	C	04/26/2025	01:13	-131.431	46.210	0	1629.80	0	2.3080	0	34.5400	0	27.587	0	1610.100	0	30.1	4	9.1	4	-1E+10	1	-1E+10	1	-1E+10	1	-1E+10	1	-1E+10	1	-1E+10	1
4902642	31	C	04/26/2025	01:13	-131.431	46.210	0	1649.60	0	2.2650	0	34.5460	0	27.596	0	1629.584	0	31.7	4	9.6	4	-1E+10	1	-1E+10	1	-1E+10	1	-1E+10	1	-1E+10	1	-1E+10	1
4902642	31	C	04/26/2025	01:13	-131.431	46.210	0	1669.70	0	2.2450	0	34.5480	0	27.599	0	1649.362	0	32.4	4	9.8	4	-1E+10	1	-1E+10	1	-1E+10	1	-1E+10	1	-1E+10	1	-1E+10	1
4902642	31	C	04/26/2025	01:13	-131.431	46.210	0	1689.80	0	2.2310	0	34.5500	0	27.602	0	1669.138	0	33.0	4	10.0	4	-1E+10	1	-1E+10	1	-1E+10	1	-1E+10	1	-1E+10	1	-1E+10	1
4902642	31	C	04/26/2025	01:13	-131.431	46.210	0	1709.80	0	2.2120	0	34.5520	0	27.605	0	1688.814	0	33.9	4	10.3	4	-1E+10	1	-1E+10	1	-1E+10	1	-1E+10	1	-1E+10	1	-1E+10	1
4902642	31	C	04/26/2025	01:13	-131.431	46.210	0	1729.80	0	2.1950	0	34.5540	0	27.608	0	1708.488	0	35.0	4	10.6	4	-1E+10	1	-1E+10	1	-1E+10	1	-1E+10	1	-1E+10	1	-1E+10	1
4902642	31	C	04/26/2025	01:13	-131.431	46.210	0	1749.90	0	2.1620	0	34.5590	0	27.615	0	1728.259	0	36.6	4	11.1	4	-1E+10	1	-1E+10	1	-1E+10	1	-1E+10	1	-1E+10	1	-1E+10	1
4902642	31	C	04/26/2025	01:13	-131.431	46.210	0	1769.90	0	2.1400	0	34.5620	0	27.619	0	1747.929	0	37.8	4	11.4	4	-1E+10	1	-1E+10	1	-1E+10	1	-1E+10	1	-1E+10	1	-1E+10	1
4902642	31	C	04/26/2025	01:13	-131.431	46.210	0	1790.20	0	2.1120	0	34.5660	0	27.625	0	1767.893	0	39.1	4	11.8	4	-1E+10	1	-1E+10	1	-1E+10	1	-1E+10	1	-1E+10	1	-1E+10	1
4902642	31	C	04/26/2025	01:13	-131.431	46.210	0	1810.10	0	2.0960	0	34.5680	0	27.628	0	1787.461	0	40.1	4	12.1	4	-1E+10	1	-1E+10	1	-1E+10	1	-1E+10	1	-1E+10	1	-1E+10	1
4902642	31	C	04/26/2025	01:13	-131.431	46.210	0	1830.00	0	2.0810	0	34.5700	0	27.631	0	1807.028	0	41.0	4	12.4	4	-1E+10	1	-1E+10	1	-1E+10	1	-1E+10	1	-1E+10	1	-1E+10	1
4902642	31	C	04/26/2025	01:13	-131.431	46.210	0	1849.80	0	2.0700	0	34.5720	0	27.633	0	1826.494	0	41.8	4	12.6	4	-1E+10	1	-1E+10	1	-1E+10	1	-1E+10	1	-1E+10	1	-1E+10	1
4902642	31	C	04/26/2025	01:13	-131.431	46.210	0	1869.90	0	2.0560	0	34.5750	0	27.637	0	1846.254	0	42.7	4	12.9	4	-1E+10	1	-1E+10	1	-1E+10	1	-1E+10	1	-1E+10	1	-1E+10	1
4902642	31	C	04/26/2025	01:13	-131.431	46.210	0	1889.70	0	2.0460	0	34.5760	0	27.638	0	1865.716	0	43.6	4	13.2	4	-1E+10	1	-1E+10	1	-1E+10	1	-1E+10	1	-1E+10	1	-1E+10	1
4902642	31	C	04/26/2025	01:13	-131.431	46.210	0	1909.70	0	2.0260	0	34.5800	0	27.643	0	1885.374	0	44.9	4	13.6	4	-1E+10	1	-1E+10	1	-1E+10	1	-1E+10	1	-1E+10	1	-1E+10	1
4902642	31	C	04/26/2025	01:13	-131.431	46.210	0	1929.80	0	2.0100	0	34.5820	0	27.646	0	1905.128	0	45.9	4	13.9	4	-1E+10	1	-1E+10	1	-1E+10	1	-1E+10	1	-1E+10	1	-1E+10	1
4902642	31	C	04/26/2025	01:13	-131.431	46.210	0	1950.30	0	1.9980	0	34.5840	0	27.649	0	1925.273	0	47.0	4	14.2	4	-1E+10	1	-1E+10	1	-1E+10	1	-1E+10	1	-1E+10	1	-1E+10	1
4902642	31	C	04/26/2025	01:13	-131.431	46.210	0	1969.90	0	1.9810	0	34.5870	0	27.653	0	1944.533	0	48.2	4	14.5	4	-1E+10	1	-1E+10	1	-1E+10	1	-1E+10	1	-1E+10	1	-1E+10	1
4902642	31	C	04/26/2025	01:13	-131.431	46.210	0	1989.90	0	1.9670	0	34.5890	0	27.656	0	1964.183	0	49.2	4	14.8	4	-1E+10	1	-1E+10	1	-1E+10	1	-1E+10	1	-1E+10	1	-1E+10	1
4902642	31	C	04/26/2025	01:13	-131.431	46.210	0	2009.80	0	1.9580	0	34.5910	4	27.658	0	1983.733	0	50.0	4	15.1	4	-1E+10	1	-1E+10	1	-1E+10	1	-1E+10	1	-1E+10	1	-1E+10	1
4902642	31	C	04/26/2025	01:13	-131.431	46.210	0	2029.80	0	1.9450	0	34.5940	4	27.661	0	2003.380	0	51.0	4	15.4	4	-1E+10	1	-1E+10	1	-1E+10	1	-1E+10	1	-1E+10	1	-1E+10	1
4902642	31	C	04/26/2025	01:13	-131.431	46.210	0	2049.80	0	1.9340	0	34.5960	4	27.664	0	2023.025	0	51.9	4	15.6	4	-1E+10	1	-1E+10	1	-1E+10	1	-1E+10	1	-1E+10	1	-1E+10	1
4902642	31	C	04/26/2025	01:13	-131.431	46.210	0	2070.00	0	1.9250	0	34.5980	4	27.666	0	2042.864	0	52.8	4	15.9	4	-1E+10	1	-1E+10	1	-1E+10	1	-1E+10	1	-1E+10	1	-1E+10	1
4902642	31	C	04/26/2025	01:13	-131.431	46.210	0	2090.00	0	1.9150	0	34.6000	4	27.669	0	2062.505	0	53.5	4	16.1	4	-1E+10	1	-1E+10	1	-1E+10	1	-1E+10	1	-1E+10	1	-1E+10	1
4902642	31	C	04/26/2025	01:13	-131.431	46.210	0	2110.10	0	1.9090	0	34.6010	4	27.670	0	2082.243	0	54.2	4	16.3	4	-1E+10	1	-1E+10	1	-1E+10	1	-1E+10	1	-1E+10	1	-1E+10	1
4902642	31	C	04/26/2025	01:13	-131.431	46.210	0	2130.10	0	1.9010	0	34.6020	4	27.672	0	2101.881	0	54.9	4	16.5	4	-1E+10	1	-1E+10	1	-1E+10	1	-1E+10	1	-1E+10	1	-1E+10	1
4902642	31	C	04/26/2025	01:13	-131.431	46.210	0	2149.80	0	1.8950	0	34.6030	4	27.673	0	2121.222	0	55.5	4	16.7	4	-1E+10	1	-1E+10	1	-1E+10	1	-1E+10	1	-1E+10	1	-1E+10	1
4902642	31	C	04/26/2025	01:13	-131.431	46.210	0	2170.40	0	1.8860	0	34.6050	4	27.676	0	2141.445	0	56.3	4	16.9	4	-1E+10	1	-1E+10	1	-1E+10	1	-1E+10	1	-1E+10	1	-1E+10	1
4902642	31	C	04/26/2025	01:13	-131.431	46.210	0	2190.00	0	1.8780	0	34.6070	4	27.678	0	2160.684	0	57.1	4	17.2	4	-1E+10	1	-1E+10	1	-1E+10	1	-1E+10	1	-1E+10	1	-1E+10	1
4902642	31	C	04/26/2025	01:13	-131.431	46.210	0	2209.90	0	1.8690	0	34.6090	4	27.680	0	2180.217	0	58.0	4	17.4	4	-1E+10	1	-1E+10	1	-1E+10	1	-1E+10	1	-1E+10	1	-1E+10	1
4902642	31	C	04/26/2025	01:13	-131.431	46.210	0	2229.80	0	1.8620	0	34.6100	4	27.682	0	2199.747	0	58.6	4	17.6	4	-1E+10	1	-1E+10	1	-1E+10	1	-1E+10	1	-1E+10	1	-1E+10	1
4902642	31	C	04/26/2025	01:13	-131.431	46.210	0	2250.40	0	1.8560	0	34.6110	4	27.683	0	2219.963	0	59.2	4	17.8	4	-1E+10	1	-1E+10	1	-1E+10	1	-1E+10	1	-1E+10	1	-1E+10	1
4902642	31	C	04/26/2025	01:13	-131.431	46.210	0	2270.00	0	1.8490	0	34.6120	4	27.685	0	2239.195	0	59.9	4	18.0	4	-1E+10	1	-1E+10	1	-1E+10	1	-1E+10	1	-1E+10	1	-1E+10	1
4902642	31	C	04/26/2025	01:13	-131.431	46.210	0	2290.20	0	1.8410	0	34.6140	4	27.687	0	2259.015	0	60.8	4	18.3	4	-1E+10	1	-1E+10	1	-1E+10	1	-1E+10	1	-1E+10	1	-1E+10	1
4902642	31	C	04/26/2025	01:13	-131.431	46.210	0	2310.10	0	1.8340	0	34.6150	4	27.688	0	2278.538	0	61.4	4	18.4	4	-1E+10	1	-1E+10	1	-1E+10	1	-1E+10	1	-1E+10	1	-1E+10	1
4902642	31	C	04/26/2025	01:13	-131.431	46.210	0	2330.10	0	1.8300	0	34.6160	4	27.690	0	2298.158	0	61.8	4	18.6	4	-1E+10	1	-1E+10	1	-1E+10	1	-1E+10	1	-1E+10	1	-1E+10	1
4902642	31	C	04/26/2025	01:13	-131.431	46.210	0	2350.50	0	1.8230	0	34.6170	4	27.691	0	2318.168	0	62.5	4	18.8	4	-1E+10	1	-1E+10	1	-1E+10	1	-1E+10	1	-1E+10	1	-1E+10	1
4902642	31	C	04/26/2025	01:13	-131.431	46.210	0	2369.60	0	1.8210	0	34.6170	4	27.691	0	2336.901	0	62.9	4	18.9	4	-1E+10	1	-1E+10	1	-1E+10	1	-1E+10	1	-1E+10	1	-1E+10	1
4902642	31	C	04/26/2025	01:13	-131.431	46.210	0	2389.80	0	1.8140	0	34.6180	4	27.693	0	2356.711	0	63.7	4	19.1	4	-1E+10	1	-1E+10	1	-1E+10	1	-1E+10	1	-1E+10	1	-1E+10	1
4902642	31	C	04/26/2025	01:13	-131.431	46.210	0	2410.10	0	1.8060	0	34.6200	4	27.695	0	2376.618	0	64.6	4	19.4	4	-1E+10	1	-1E+10	1	-1E+10	1	-1E+10	1	-1E+10	1	-1E+10	1
4902642	31	C	04/26/2025	01:13	-131.431	46.210	0	2429.90	0	1.7970	0	34.6210	4	27.697	0	2396.032	0	65.3	4	19.6	4	-1E+10	1	-1E+10	1	-1E+10	1	-1E+10	1	-1E+10	1	-1E+10	1
4902642	31	C	04/26/2025	01:13	-131.431	46.210	0	2449.90	0	1.7910	0	34.6220	4	27.698	0	2415.641	0	65.8	4	19.7	4	-1E+10	1	-1E+10	1	-1E+10	1	-1E+10	1	-1E+10	1	-1E+10	1
4902642	31	C	04/26/2025	01:13	-131.431	46.210	0	2470.00	0	1.7880	0	34.6230	4	27.699	0	2435.346	0	66.3	4	19.9	4	-1E+10	1	-1E+10	1	-1E+10	1	-1E+10	1	-1E+10	1	-1E+10	1
4902642	31	C	04/26/2025	01:13	-131.431	46.210	0	2489.80	0	1.7840	0	34.6230	4	27.700	0	2454.755	0	67.0	4	20.1	4	-1E+10	1	-1E+10	1	-1E+10	1	-1E+10	1	-1E+10	1	-1E+10	1
4902642	31	C	04/26/2025	01:13	-131.431	46.210	0	2510.00	0	1.7780	0	34.6240	4	27.701	0	2474.555	0	67.5	4	20.3	4	-1E+10	1	-1E+10	1	-1E+10	1	-1E+10	1	-1E+10	1	-1E+10	1
4902642	31	C	04/26/2025	01:13	-131.431	46.210	0	2530.40	0	1.7730	0	34.6250	4	27.702	0	2494.548	0	68.1	4	20.4	4	-1E+10	1	-1E+10	1	-1E+10	1	-1E+10	1	-1E+10	1	-1E+10	1
4902642	31	C	04/26/2025	01:13	-131.431	46.210	0	2550.30	0	1.7650	0	34.6260	4	27.704	0	2514.050	0	69.0	4	20.7	4	-1E+10	1	-1E+10	1	-1E+10	1	-1E+10	1	-1E+10	1	-1E+10	1
4902642	31	C	04/26/2025	01:13	-131.431	46.210	0	2570.10	0	1.7570	0	34.6270	4	27.705	0	2533.452	0	69.9	4	20.9	4	-1E+10	1	-1E+10	1	-1E+10	1	-1E+10	1	-1E+10	1	-1E+10	1
4902642	31	C	04/26/2025	01:13	-131.431	46.210	0	2589.50	0	1.7480	0	34.6280	4	27.707	0	2552.461	0	71.0	4	21.3	4	-1E+10	1	-1E+10	1	-1E+10	1	-1E+10	1	-1E+10	1	-1E+10	1
4902642	31	C	04/26/2025	01:13	-131.431	46.210	0	2609.80	0	1.7380	0	34.6300	4	27.709	0	2572.349	0	72.0	4	21.6	4	-1E+10	1	-1E+10	1	-1E+10	1	-1E+10	1	-1E+10	1	-1E+10	1
4902642	31	C	04/26/2025	01:13	-131.431	46.210	0	2629.70	0	1.7300	0	34.6310	4	27.711	0	2591.844	0	72.7	4	21.8	4	-1E+10	1	-1E+10	1	-1E+10	1	-1E+10	1	-1E+10	1	-1E+10	1
4902642	31	C	04/26/2025	01:13	-131.431	46.210	0	2649.70	0	1.7230	0	34.6320	4	27.712	0	2611.435	0	73.5	4	22.0	4	-1E+10	1	-1E+10	1	-1E+10	1	-1E+10	1	-1E+10	1	-1E+10	1
4902642	31	C	04/26/2025	01:13	-131.431	46.210	0	2670.00	0	1.7150	0	34.6330	4	27.714	0	2631.318	0	74.4	4	22.3	4	-1E+10	1	-1E+10	1	-1E+10	1	-1E+10	1	-1E+10	1	-1E+10	1
4902642	31	C	04/26/2025	01:13	-131.431	46.210	0	2690.10	0	1.7050	0	34.6340	4	27.716	0	2651.003	0	75.5	4	22.6	4	-1E+10	1	-1E+10	1	-1E+10	1	-1E+10	1	-1E+10	1	-1E+10	1
4902642	31	C	04/26/2025	01:13	-131.431	46.210	0	2710.60	0	1.6990	0	34.6350	4	27.717	0	2671.078	0	76.1	4	22.8	4	-1E+10	1	-1E+10	1	-1E+10	1	-1E+10	1	-1E+10	1	-1E+10	1
4902642	31	C	04/26/2025	01:13	-131.431	46.210	0	2730.00	0	1.6910	0	34.6360	4	27.718	0	2690.075	0	77.0	4	23.0	4	-1E+10	1	-1E+10	1	-1E+10	1	-1E+10	1	-1E+10	1	-1E+10	1
4902642	31	C	04/26/2025	01:13	-131.431	46.210	0	2750.20	0	1.6850	0	34.6370	4	27.720	0	2709.852	0	77.7	4	23.3	4	-1E+10	1	-1E+10	1	-1E+10	1	-1E+10	1	-1E+10	1	-1E+10	1
4902642	31	C	04/26/2025	01:13	-131.431	46.210	0	2770.30	0	1.6790	0	34.6380	4	27.721	0	2729.531	0	78.6	4	23.5	4	-1E+10	1	-1E+10	1	-1E+10	1	-1E+10	1	-1E+10	1	-1E+10	1
4902642	31	C	04/26/2025	01:13	-131.431	46.210	0	2790.10	0	1.6700	0	34.6390	4	27.723	0	2748.913	0	79.6	4	23.8	4	-1E+10	1	-1E+10	1	-1E+10	1	-1E+10	1	-1E+10	1	-1E+10	1
4902642	31	C	04/26/2025	01:13	-131.431	46.210	0	2810.30	0	1.6640	0	34.6400	4	27.724	0	2768.686	0	80.3	4	24.0	4	-1E+10	1	-1E+10	1	-1E+10	1	-1E+10	1	-1E+10	1	-1E+10	1
4902642	31	C	04/26/2025	01:13	-131.431	46.210	0	2830.20	0	1.6610	0	34.6410	4	27.725	0	2788.163	0	80.8	4	24.2	4	-1E+10	1	-1E+10	1	-1E+10	1	-1E+10	1	-1E+10	1	-1E+10	1
4902642	31	C	04/26/2025	01:13	-131.431	46.210	0	2850.10	0	1.6590	0	34.6420	4	27.726	0	2807.638	0	81.3	4	24.3	4	-1E+10	1	-1E+10	1	-1E+10	1	-1E+10	1	-1E+10	1	-1E+10	1
4902642	31	C	04/26/2025	01:13	-131.431	46.210	0	2861.80	0	1.6560	0	34.6430	4	27.727	0	2819.088	0	81.7	4	24.4	4	-1E+10	1	-1E+10	1	-1E+10	1	-1E+10	1	-1E+10	1	-1E+10	1
4902642	31	C	04/26/2025	01:13	-131.431	46.210	0	2863.80	0	1.6550	0	34.6430	4	27.727	0	2821.045	0	81.9	4	24.5	4	-1E+10	1	-1E+10	1	-1E+10	1	-1E+10	1	-1E+10	1	-1E+10	1
4902642	31	C	04/26/2025	01:13	-131.431	46.210	0	2864.80	0	1.6550	0	34.6430	4	27.727	0	2822.023	0	81.9	4	24.5	4	-1E+10	1	-1E+10	1	-1E+10	1	-1E+10	1	-1E+10	1	-1E+10	1
4902642	31	C	04/26/2025	01:13	-131.431	46.210	0	2865.70	0	1.6540	0	34.6430	4	27.728	0	2822.904	0	81.9	4	24.5	4	-1E+10	1	-1E+10	1	-1E+10	1	-1E+10	1	-1E+10	1	-1E+10	1
4902642	31	C	04/26/2025	01:13	-131.431	46.210	0	2866.70	0	1.6540	0	34.6430	4	27.728	0	2823.882	0	81.9	4	24.5	4	-1E+10	1	-1E+10	1	-1E+10	1	-1E+10	1	-1E+10	1	-1E+10	1
4902642	31	C	04/26/2025	01:13	-131.431	46.210	0	2867.70	0	1.6540	0	34.6430	4	27.728	0	2824.861	0	81.9	4	24.5	4	-1E+10	1	-1E+10	1	-1E+10	1	-1E+10	1	-1E+10	1	-1E+10	1
4902642	31	C	04/26/2025	01:13	-131.431	46.210	0	2868.70	0	1.6540	0	34.6430	4	27.728	0	2825.840	0	82.0	4	24.5	4	-1E+10	1	-1E+10	1	-1E+10	1	-1E+10	1	-1E+10	1	-1E+10	1
4902642	31	C	04/26/2025	01:13	-131.431	46.210	0	2869.60	0	1.6530	0	34.6440	4	27.728	0	2826.720	0	82.0	4	24.5	4	-1E+10	1	-1E+10	1	-1E+10	1	-1E+10	1	-1E+10	1	-1E+10	1
4902642	31	C	04/26/2025	01:13	-131.431	46.210	0	2870.70	0	1.6530	0	34.6430	4	27.728	0	2827.797	0	82.1	4	24.5	4	-1E+10	1	-1E+10	1	-1E+10	1	-1E+10	1	-1E+10	1	-1E+10	1
4902642	31	C	04/26/2025	01:13	-131.431	46.210	0	2871.60	0	1.6530	0	34.6430	4	27.728	0	2828.677	0	82.0	4	24.5	4	-1E+10	1	-1E+10	1	-1E+10	1	-1E+10	1	-1E+10	1	-1E+10	1
4902642	31	C	04/26/2025	01:13	-131.431	46.210	0	2872.60	0	1.6530	0	34.6430	4	27.728	0	2829.656	0	82.1	4	24.5	4	-1E+10	1	-1E+10	1	-1E+10	1	-1E+10	1	-1E+10	1	-1E+10	1
4902642	31	C	04/26/2025	01:13	-131.431	46.210	0	2873.70	0	1.6530	0	34.6430	4	27.728	0	2830.732	0	82.1	4	24.5	4	-1E+10	1	-1E+10	1	-1E+10	1	-1E+10	1	-1E+10	1	-1E+10	1
4902642	31	C	04/26/2025	01:13	-131.431	46.210	0	2874.60	0	1.6540	0	34.6430	4	27.728	0	2831.613	0	82.1	4	24.6	4	-1E+10	1	-1E+10	1	-1E+10	1	-1E+10	1	-1E+10	1	-1E+10	1
4902642	31	C	04/26/2025	01:13	-131.431	46.210	0	2875.60	0	1.6540	0	34.6430	4	27.728	0	2832.591	0	82.1	4	24.6	4	-1E+10	1	-1E+10	1	-1E+10	1	-1E+10	1	-1E+10	1	-1E+10	1
4902642	31	C	04/26/2025	01:13	-131.431	46.210	0	2876.50	0	1.6520	0	34.6430	4	27.728	0	2833.472	0	82.1	4	24.6	4	-1E+10	1	-1E+10	1	-1E+10	1	-1E+10	1	-1E+10	1	-1E+10	1
4902642	31	C	04/26/2025	01:13	-131.431	46.210	0	2877.50	0	1.6530	0	34.6430	4	27.728	0	2834.450	0	82.2	4	24.6	4	-1E+10	1	-1E+10	1	-1E+10	1	-1E+10	1	-1E+10	1	-1E+10	1
4902642	31	C	04/26/2025	01:13	-131.431	46.210	0	2878.50	0	1.6530	0	34.6430	4	27.728	0	2835.429	0	82.2	4	24.6	4	-1E+10	1	-1E+10	1	-1E+10	1	-1E+10	1	-1E+10	1	-1E+10	1
4902642	31	C	04/26/2025	01:13	-131.431	46.210	0	2879.50	0	1.6520	0	34.6430	4	27.728	0	2836.407	0	82.3	4	24.6	4	-1E+10	1	-1E+10	1	-1E+10	1	-1E+10	1	-1E+10	1	-1E+10	1
4902642	31	C	04/26/2025	01:13	-131.431	46.210	0	2880.50	0	1.6530	0	34.6430	4	27.728	0	2837.386	0	82.3	4	24.6	4	-1E+10	1	-1E+10	1	-1E+10	1	-1E+10	1	-1E+10	1	-1E+10	1
4902642	31	C	04/26/2025	01:13	-131.431	46.210	0	2881.50	0	1.6530	0	34.6430	4	27.728	0	2838.364	0	82.3	4	24.6	4	-1E+10	1	-1E+10	1	-1E+10	1	-1E+10	1	-1E+10	1	-1E+10	1
4902642	31	C	04/26/2025	01:13	-131.431	46.210	0	2882.40	0	1.6530	0	34.6430	4	27.728	0	2839.245	0	82.3	4	24.6	4	-1E+10	1	-1E+10	1	-1E+10	1	-1E+10	1	-1E+10	1	-1E+10	1
4902642	31	C	04/26/2025	01:13	-131.431	46.210	0	2883.40	0	1.6520	0	34.6440	4	27.729	0	2840.223	0	82.4	4	24.6	4	-1E+10	1	-1E+10	1	-1E+10	1	-1E+10	1	-1E+10	1	-1E+10	1
4902642	31	C	04/26/2025	01:13	-131.431	46.210	0	2884.30	0	1.6520	0	34.6440	4	27.729	0	2841.104	0	82.4	4	24.7	4	-1E+10	1	-1E+10	1	-1E+10	1	-1E+10	1	-1E+10	1	-1E+10	1
4902642	31	C	04/26/2025	01:13	-131.431	46.210	0	2885.30	0	1.6520	0	34.6440	4	27.729	0	2842.083	0	82.5	4	24.7	4	-1E+10	1	-1E+10	1	-1E+10	1	-1E+10	1	-1E+10	1	-1E+10	1
4902642	31	C	04/26/2025	01:13	-131.431	46.210	0	2886.30	0	1.6510	0	34.6440	4	27.729	0	2843.061	0	82.5	4	24.7	4	-1E+10	1	-1E+10	1	-1E+10	1	-1E+10	1	-1E+10	1	-1E+10	1
4902642	31	C	04/26/2025	01:13	-131.431	46.210	0	2887.30	0	1.6510	0	34.6440	4	27.729	0	2844.040	0	82.6	4	24.7	4	-1E+10	1	-1E+10	1	-1E+10	1	-1E+10	1	-1E+10	1	-1E+10	1
4902642	31	C	04/26/2025	01:13	-131.431	46.210	0	2888.20	0	1.6510	0	34.6430	4	27.728	0	2844.920	0	82.6	4	24.7	4	-1E+10	1	-1E+10	1	-1E+10	1	-1E+10	1	-1E+10	1	-1E+10	1
4902642	31	C	04/26/2025	01:13	-131.431	46.210	0	2889.10	0	1.6500	0	34.6440	4	27.729	0	2845.801	0	82.6	4	24.7	4	-1E+10	1	-1E+10	1	-1E+10	1	-1E+10	1	-1E+10	1	-1E+10	1
4902642	31	C	04/26/2025	01:13	-131.431	46.210	0	2890.50	0	1.6500	0	34.6440	4	27.729	0	2847.170	0	82.7	4	24.7	4	-1E+10	1	-1E+10	1	-1E+10	1	-1E+10	1	-1E+10	1	-1E+10	1
4902642	31	C	04/26/2025	01:13	-131.431	46.210	0	2892.50	0	1.6480	0	34.6440	4	27.729	0	2849.127	0	82.8	4	24.8	4	-1E+10	1	-1E+10	1	-1E+10	1	-1E+10	1	-1E+10	1	-1E+10	1
4902642	31	C	04/26/2025	01:13	-131.431	46.210	0	2893.60	0	1.6480	0	34.6440	4	27.729	0	2850.204	0	82.9	4	24.8	4	-1E+10	1	-1E+10	1	-1E+10	1	-1E+10	1	-1E+10	1	-1E+10	1
4902642	31	C	04/26/2025	01:13	-131.431	46.210	0	2894.80	0	1.6470	0	34.6450	4	27.730	0	2851.378	0	82.9	4	24.8	4	-1E+10	1	-1E+10	1	-1E+10	1	-1E+10	1	-1E+10	1	-1E+10	1
4902642	31	C	04/26/2025	01:13	-131.431	46.210	0	2895.60	0	1.6470	0	34.6450	4	27.730	0	2852.161	0	82.9	4	24.8	4	-1E+10	1	-1E+10	1	-1E+10	1	-1E+10	1	-1E+10	1	-1E+10	1
4902642	31	C	04/26/2025	01:13	-131.431	46.210	0	2896.40	0	1.6460	0	34.6450	4	27.730	0	2852.943	0	83.0	4	24.8	4	-1E+10	1	-1E+10	1	-1E+10	1	-1E+10	1	-1E+10	1	-1E+10	1
4902642	31	C	04/26/2025	01:13	-131.431	46.210	0	2897.60	0	1.6460	0	34.6450	4	27.730	0	2854.117	0	82.9	4	24.8	4	-1E+10	1	-1E+10	1	-1E+10	1	-1E+10	1	-1E+10	1	-1E+10	1
4902642	31	C	04/26/2025	01:13	-131.431	46.210	0	2898.80	0	1.6460	0	34.6450	4	27.730	0	2855.291	0	82.9	4	24.8	4	-1E+10	1	-1E+10	1	-1E+10	1	-1E+10	1	-1E+10	1	-1E+10	1
4902642	31	C	04/26/2025	01:13	-131.431	46.210	0	2899.60	0	1.6460	0	34.6450	4	27.730	0	2856.074	0	82.9	4	24.8	4	-1E+10	1	-1E+10	1	-1E+10	1	-1E+10	1	-1E+10	1	-1E+10	1
4902642	31	C	04/26/2025	01:13	-131.431	46.210	0	2900.40	0	1.6460	0	34.6450	4	27.730	0	2856.857	0	83.0	4	24.8	4	-1E+10	1	-1E+10	1	-1E+10	1	-1E+10	1	-1E+10	1	-1E+10	1
4902642	31	C	04/26/2025	01:13	-131.431	46.210	0	2901.60	0	1.6450	0	34.6450	4	27.730	0	2858.031	0	82.9	4	24.8	4	-1E+10	1	-1E+10	1	-1E+10	1	-1E+10	1	-1E+10	1	-1E+10	1
4902642	31	C	04/26/2025	01:13	-131.431	46.210	0	2902.90	0	1.6450	0	34.6450	4	27.730	0	2859.303	0	83.0	4	24.8	4	-1E+10	1	-1E+10	1	-1E+10	1	-1E+10	1	-1E+10	1	-1E+10	1
4902642	31	C	04/26/2025	01:13	-131.431	46.210	0	2903.70	0	1.6460	0	34.6450	4	27.730	0	2860.085	0	83.0	4	24.8	4	-1E+10	1	-1E+10	1	-1E+10	1	-1E+10	1	-1E+10	1	-1E+10	1
4902642	31	C	04/26/2025	01:13	-131.431	46.210	0	2904.50	0	1.6450	0	34.6450	4	27.730	0	2860.868	0	83.0	4	24.8	4	-1E+10	1	-1E+10	1	-1E+10	1	-1E+10	1	-1E+10	1	-1E+10	1
4902642	31	C	04/26/2025	01:13	-131.431	46.210	0	2905.40	0	1.6450	0	34.6450	4	27.730	0	2861.749	0	83.0	4	24.8	4	-1E+10	1	-1E+10	1	-1E+10	1	-1E+10	1	-1E+10	1	-1E+10	1
4902642	31	C	04/26/2025	01:13	-131.431	46.210	0	2906.60	0	1.6450	0	34.6450	4	27.730	0	2862.923	0	82.9	4	24.8	4	-1E+10	1	-1E+10	1	-1E+10	1	-1E+10	1	-1E+10	1	-1E+10	1
4902642	31	C	04/26/2025	01:13	-131.431	46.210	0	2907.80	0	1.6450	0	34.6450	4	27.730	0	2864.097	0	82.9	4	24.8	4	-1E+10	1	-1E+10	1	-1E+10	1	-1E+10	1	-1E+10	1	-1E+10	1
4902642	31	C	04/26/2025	01:13	-131.431	46.210	0	2908.60	0	1.6460	0	34.6450	4	27.730	0	2864.880	0	82.9	4	24.8	4	-1E+10	1	-1E+10	1	-1E+10	1	-1E+10	1	-1E+10	1	-1E+10	1
4902642	31	C	04/26/2025	01:13	-131.431	46.210	0	2909.30	0	1.6460	0	34.6450	4	27.730	0	2865.564	0	82.9	4	24.8	4	-1E+10	1	-1E+10	1	-1E+10	1	-1E+10	1	-1E+10	1	-1E+10	1
4902642	31	C	04/26/2025	01:13	-131.431	46.210	0	2910.40	0	1.6450	0	34.6450	4	27.730	0	2866.640	0	82.9	4	24.8	4	-1E+10	1	-1E+10	1	-1E+10	1	-1E+10	1	-1E+10	1	-1E+10	1
4902642	31	C	04/26/2025	01:13	-131.431	46.210	0	2911.90	0	1.6460	0	34.6450	4	27.730	0	2868.108	0	82.9	4	24.8	4	-1E+10	1	-1E+10	1	-1E+10	1	-1E+10	1	-1E+10	1	-1E+10	1
4902642	31	C	04/26/2025	01:13	-131.431	46.210	0	2912.90	0	1.6460	0	34.6450	4	27.730	0	2869.086	0	82.9	4	24.8	4	-1E+10	1	-1E+10	1	-1E+10	1	-1E+10	1	-1E+10	1	-1E+10	1
4902642	31	C	04/26/2025	01:13	-131.431	46.210	0	2913.20	0	1.6460	0	34.6450	4	27.730	0	2869.380	0	82.9	4	24.8	4	-1E+10	1	-1E+10	1	-1E+10	1	-1E+10	1	-1E+10	1	-1E+10	1
4902642	31	C	04/26/2025	01:13	-131.431	46.210	0																										
4902642	32	C	05/06/2025	01:01	-131.447	46.176	0	1.10	0	11.0970	0	32.3500	0	24.696	0	1.091	0	256.2	4	93.7	4	-1E+10	1	-1E+10	1	-1E+10	1	-1E+10	1	-1E+10	1	-1E+10	1
4902642	32	C	05/06/2025	01:01	-131.447	46.176	0	1.20	0	11.0970	0	32.3540	0	24.699	0	1.190	0	256.2	4	93.7	4	-1E+10	1	-1E+10	1	-1E+10	1	-1E+10	1	-1E+10	1	-1E+10	1
4902642	32	C	05/06/2025	01:01	-131.447	46.176	0	1.30	0	11.0980	0	32.3504	0	24.696	0	1.289	0	256.2	4	93.7	4	-1E+10	1	-1E+10	1	-1E+10	1	-1E+10	1	-1E+10	1	-1E+10	1
4902642	32	C	05/06/2025	01:01	-131.447	46.176	0	1.40	0	11.1010	0	32.3480	0	24.694	0	1.388	0	-1e10	1	-1e10	1	-1E+10	1	-1E+10	1	-1E+10	1	-1E+10	1	-1E+10	1	-1E+10	1
4902642	32	C	05/06/2025	01:01	-131.447	46.176	0	1.50	0	11.0890	0	32.3430	0	24.692	0	1.488	0	256.4	4	93.8	4	-1E+10	1	-1E+10	1	-1E+10	1	-1E+10	1	-1E+10	1	-1E+10	1
4902642	32	C	05/06/2025	01:01	-131.447	46.176	0	2.80	0	11.0880	0	32.3260	0	24.679	0	2.777	0	256.4	4	93.7	4	-1E+10	1	-1E+10	1	-1E+10	1	-1E+10	1	-1E+10	1	-1E+10	1
4902642	32	C	05/06/2025	01:01	-131.447	46.176	0	3.60	0	11.0760	0	32.3370	0	24.690	0	3.570	0	255.9	4	93.6	4	-1E+10	1	-1E+10	1	-1E+10	1	-1E+10	1	-1E+10	1	-1E+10	1
4902642	32	C	05/06/2025	01:01	-131.447	46.176	0	4.50	0	11.0610	0	32.3470	0	24.700	0	4.463	0	255.9	4	93.5	4	-1E+10	1	-1E+10	1	-1E+10	1	-1E+10	1	-1E+10	1	-1E+10	1
4902642	32	C	05/06/2025	01:01	-131.447	46.176	0	5.70	0	11.0620	0	32.3450	0	24.698	0	5.653	0	256.0	4	93.6	4	-1E+10	1	-1E+10	1	-1E+10	1	-1E+10	1	-1E+10	1	-1E+10	1
4902642	32	C	05/06/2025	01:01	-131.447	46.176	0	6.70	0	11.0320	0	32.3470	0	24.705	0	6.645	0	256.1	4	93.6	4	-1E+10	1	-1E+10	1	-1E+10	1	-1E+10	1	-1E+10	1	-1E+10	1
4902642	32	C	05/06/2025	01:01	-131.447	46.176	0	7.40	0	11.0190	0	32.3430	0	24.704	0	7.339	0	256.2	4	93.6	4	-1E+10	1	-1E+10	1	-1E+10	1	-1E+10	1	-1E+10	1	-1E+10	1
4902642	32	C	05/06/2025	01:01	-131.447	46.176	0	8.40	0	10.9750	0	32.3490	0	24.717	0	8.331	0	256.4	4	93.5	4	-1E+10	1	-1E+10	1	-1E+10	1	-1E+10	1	-1E+10	1	-1E+10	1
4902642	32	C	05/06/2025	01:01	-131.447	46.176	0	9.50	0	10.9560	0	32.3460	0	24.718	0	9.422	0	256.4	4	93.5	4	-1E+10	1	-1E+10	1	-1E+10	1	-1E+10	1	-1E+10	1	-1E+10	1
4902642	32	C	05/06/2025	01:01	-131.447	46.176	0	15.00	0	10.8030	0	32.3440	0	24.743	0	14.876	0	257.4	4	93.6	4	-1E+10	1	-1E+10	1	-1E+10	1	-1E+10	1	-1E+10	1	-1E+10	1
4902642	32	C	05/06/2025	01:01	-131.447	46.176	0	24.70	0	10.2250	0	32.3450	0	24.843	0	24.495	0	260.0	4	93.4	4	-1E+10	1	-1E+10	1	-1E+10	1	-1E+10	1	-1E+10	1	-1E+10	1
4902642	32	C	05/06/2025	01:01	-131.447	46.176	0	34.70	0	9.7060	0	32.3500	0	24.933	0	34.412	0	259.7	4	92.2	4	-1E+10	1	-1E+10	1	-1E+10	1	-1E+10	1	-1E+10	1	-1E+10	1
4902642	32	C	05/06/2025	01:01	-131.447	46.176	0	44.80	0	9.4750	0	32.3490	0	24.969	0	44.427	0	257.9	4	91.1	4	-1E+10	1	-1E+10	1	-1E+10	1	-1E+10	1	-1E+10	1	-1E+10	1
4902642	32	C	05/06/2025	01:01	-131.447	46.176	0	54.80	0	9.4920	0	32.3740	0	24.986	0	54.342	0	255.2	4	90.2	4	-1E+10	1	-1E+10	1	-1E+10	1	-1E+10	1	-1E+10	1	-1E+10	1
4902642	32	C	05/06/2025	01:01	-131.447	46.176	0	65.00	0	9.5800	0	32.4180	0	25.007	0	64.455	0	251.1	4	88.9	4	-1E+10	1	-1E+10	1	-1E+10	1	-1E+10	1	-1E+10	1	-1E+10	1
4902642	32	C	05/06/2025	01:01	-131.447	46.176	0	75.10	0	9.4690	0	32.4260	0	25.031	0	74.469	0	247.4	4	87.4	4	-1E+10	1	-1E+10	1	-1E+10	1	-1E+10	1	-1E+10	1	-1E+10	1
4902642	32	C	05/06/2025	01:01	-131.447	46.176	0	84.40	0	9.2880	0	32.4420	0	25.072	0	83.689	0	241.3	4	84.9	4	-1E+10	1	-1E+10	1	-1E+10	1	-1E+10	1	-1E+10	1	-1E+10	1
4902642	32	C	05/06/2025	01:01	-131.447	46.176	0	94.50	0	8.9790	0	32.5360	0	25.194	0	93.701	0	227.6	4	79.6	4	-1E+10	1	-1E+10	1	-1E+10	1	-1E+10	1	-1E+10	1	-1E+10	1
4902642	32	C	05/06/2025	01:01	-131.447	46.176	0	104.30	0	8.5820	0	32.9410	0	25.572	0	103.416	0	209.6	4	72.9	4	-1E+10	1	-1E+10	1	-1E+10	1	-1E+10	1	-1E+10	1	-1E+10	1
4902642	32	C	05/06/2025	01:01	-131.447	46.176	0	114.50	0	8.1810	0	33.2330	0	25.862	0	113.527	0	198.4	4	68.5	4	-1E+10	1	-1E+10	1	-1E+10	1	-1E+10	1	-1E+10	1	-1E+10	1
4902642	32	C	05/06/2025	01:01	-131.447	46.176	0	124.80	0	7.8910	0	33.4810	0	26.099	0	123.736	0	192.7	4	66.3	4	-1E+10	1	-1E+10	1	-1E+10	1	-1E+10	1	-1E+10	1	-1E+10	1
4902642	32	C	05/06/2025	01:01	-131.447	46.176	0	134.80	0	7.6990	0	33.5950	0	26.216	0	133.648	0	189.8	4	65.0	4	-1E+10	1	-1E+10	1	-1E+10	1	-1E+10	1	-1E+10	1	-1E+10	1
4902642	32	C	05/06/2025	01:01	-131.447	46.176	0	144.60	0	7.4820	0	33.6680	0	26.305	0	143.360	0	186.8	4	63.7	4	-1E+10	1	-1E+10	1	-1E+10	1	-1E+10	1	-1E+10	1	-1E+10	1
4902642	32	C	05/06/2025	01:01	-131.447	46.176	0	154.90	0	7.3350	0	33.7090	0	26.358	0	153.568	0	183.6	4	62.4	4	-1E+10	1	-1E+10	1	-1E+10	1	-1E+10	1	-1E+10	1	-1E+10	1
4902642	32	C	05/06/2025	01:01	-131.447	46.176	0	165.00	0	7.2120	0	33.7350	0	26.396	0	163.577	0	180.5	4	61.2	4	-1E+10	1	-1E+10	1	-1E+10	1	-1E+10	1	-1E+10	1	-1E+10	1
4902642	32	C	05/06/2025	01:01	-131.447	46.176	0	175.00	0	7.1080	0	33.7540	0	26.425	0	173.487	0	176.9	4	59.9	4	-1E+10	1	-1E+10	1	-1E+10	1	-1E+10	1	-1E+10	1	-1E+10	1
4902642	32	C	05/06/2025	01:01	-131.447	46.176	0	185.00	0	7.0090	0	33.7710	0	26.452	0	183.396	0	173.0	4	58.4	4	-1E+10	1	-1E+10	1	-1E+10	1	-1E+10	1	-1E+10	1	-1E+10	1
4902642	32	C	05/06/2025	01:01	-131.447	46.176	0	192.80	0	6.9160	0	33.7860	0	26.476	0	191.125	0	169.2	4	57.0	4	-1E+10	1	-1E+10	1	-1E+10	1	-1E+10	1	-1E+10	1	-1E+10	1
4902642	32	C	05/06/2025	01:01	-131.447	46.176	0	205.90	0	6.7760	0	33.7970	0	26.504	0	204.105	0	162.9	4	54.7	4	-1E+10	1	-1E+10	1	-1E+10	1	-1E+10	1	-1E+10	1	-1E+10	1
4902642	32	C	05/06/2025	01:01	-131.447	46.176	0	225.60	0	6.5030	0	33.8050	0	26.547	0	223.622	0	149.5	4	49.9	4	-1E+10	1	-1E+10	1	-1E+10	1	-1E+10	1	-1E+10	1	-1E+10	1
4902642	32	C	05/06/2025	01:01	-131.447	46.176	0	245.70	0	6.1390	0	33.8100	0	26.598	0	243.534	0	133.1	4	44.1	4	-1E+10	1	-1E+10	1	-1E+10	1	-1E+10	1	-1E+10	1	-1E+10	1
4902642	32	C	05/06/2025	01:01	-131.447	46.176	0	265.60	0	5.8660	0	33.8170	0	26.637	0	263.246	0	119.0	4	39.2	4	-1E+10	1	-1E+10	1	-1E+10	1	-1E+10	1	-1E+10	1	-1E+10	1
4902642	32	C	05/06/2025	01:01	-131.447	46.176	0	285.70	0	5.6510	0	33.8250	0	26.670	0	283.154	0	106.5	4	34.9	4	-1E+10	1	-1E+10	1	-1E+10	1	-1E+10	1	-1E+10	1	-1E+10	1
4902642	32	C	05/06/2025	01:01	-131.447	46.176	0	305.50	0	5.4560	0	33.8380	0	26.704	0	302.763	0	94.9	4	30.9	4	-1E+10	1	-1E+10	1	-1E+10	1	-1E+10	1	-1E+10	1	-1E+10	1
4902642	32	C	05/06/2025	01:01	-131.447	46.176	0	326.10	0	5.3140	0	33.8490	0	26.730	0	323.163	0	85.5	4	27.8	4	-1E+10	1	-1E+10	1	-1E+10	1	-1E+10	1	-1E+10	1	-1E+10	1
4902642	32	C	05/06/2025	01:01	-131.447	46.176	0	345.60	0	5.1830	0	33.8720	0	26.763	0	342.471	0	74.4	4	24.1	4	-1E+10	1	-1E+10	1	-1E+10	1	-1E+10	1	-1E+10	1	-1E+10	1
4902642	32	C	05/06/2025	01:01	-131.447	46.176	0	365.60	0	5.0650	0	33.8910	0	26.792	0	362.273	0	67.7	4	21.9	4	-1E+10	1	-1E+10	1	-1E+10	1	-1E+10	1	-1E+10	1	-1E+10	1
4902642	32	C	05/06/2025	01:01	-131.447	46.176	0	385.50	0	4.9690	0	33.9080	0	26.817	0	381.973	0	62.1	4	20.0	4	-1E+10	1	-1E+10	1	-1E+10	1	-1E+10	1	-1E+10	1	-1E+10	1
4902642	32	C	05/06/2025	01:01	-131.447	46.176	0	405.80	0	4.9170	0	33.9280	0	26.838	0	402.068	0	56.7	4	18.3	4	-1E+10	1	-1E+10	1	-1E+10	1	-1E+10	1	-1E+10	1	-1E+10	1
4902642	32	C	05/06/2025	01:01	-131.447	46.176	0	426.00	0	4.8350	0	33.9450	0	26.861	0	422.061	0	51.9	4	16.7	4	-1E+10	1	-1E+10	1	-1E+10	1	-1E+10	1	-1E+10	1	-1E+10	1
4902642	32	C	05/06/2025	01:01	-131.447	46.176	0	445.90	0	4.8030	0	33.9700	0	26.885	0	441.756	0	46.2	4	14.9	4	-1E+10	1	-1E+10	1	-1E+10	1	-1E+10	1	-1E+10	1	-1E+10	1
4902642	32	C	05/06/2025	01:01	-131.447	46.176	0	465.80	0	4.7160	0	33.9990	0	26.918	0	461.449	0	39.2	4	12.6	4	-1E+10	1	-1E+10	1	-1E+10	1	-1E+10	1	-1E+10	1	-1E+10	1
4902642	32	C	05/06/2025	01:01	-131.447	46.176	0	485.70	0	4.6570	0	34.0230	0	26.943	0	481.140	0	35.0	4	11.2	4	-1E+10	1	-1E+10	1	-1E+10	1	-1E+10	1	-1E+10	1	-1E+10	1
4902642	32	C	05/06/2025	01:01	-131.447	46.176	0	505.40	0	4.6030	0	34.0330	0	26.957	0	500.632	0	32.2	4	10.3	4	-1E+10	1	-1E+10	1	-1E+10	1	-1E+10	1	-1E+10	1	-1E+10	1
4902642	32	C	05/06/2025	01:01	-131.447	46.176	0	526.30	0	4.5510	0	34.0560	0	26.981	0	521.308	0	27.4	4	8.8	4	-1E+10	1	-1E+10	1	-1E+10	1	-1E+10	1	-1E+10	1	-1E+10	1
4902642	32	C	05/06/2025	01:01	-131.447	46.176	0	545.70	0	4.5080	0	34.0740	0	27.001	0	540.499	0	24.7	4	7.9	4	-1E+10	1	-1E+10	1	-1E+10	1	-1E+10	1	-1E+10	1	-1E+10	1
4902642	32	C	05/06/2025	01:01	-131.447	46.176	0	565.60	0	4.3980	0	34.0860	0	27.022	0	560.183	0	22.4	4	7.1	4	-1E+10	1	-1E+10	1	-1E+10	1	-1E+10	1	-1E+10	1	-1E+10	1
4902642	32	C	05/06/2025	01:01	-131.447	46.176	0	585.70	0	4.3320	0	34.1080	0	27.047	0	580.062	0	19.5	4	6.2	4	-1E+10	1	-1E+10	1	-1E+10	1	-1E+10	1	-1E+10	1	-1E+10	1
4902642	32	C	05/06/2025	01:01	-131.447	46.176	0	606.10	0	4.2850	0	34.1310	0	27.070	0	600.236	0	16.6	4	5.3	4	-1E+10	1	-1E+10	1	-1E+10	1	-1E+10	1	-1E+10	1	-1E+10	1
4902642	32	C	05/06/2025	01:01	-131.447	46.176	0	625.80	0	4.2470	0	34.1460	0	27.086	0	619.716	0	15.2	4	4.8	4	-1E+10	1	-1E+10	1	-1E+10	1	-1E+10	1	-1E+10	1	-1E+10	1
4902642	32	C	05/06/2025	01:01	-131.447	46.176	0	645.70	0	4.2000	0	34.1550	0	27.098	0	639.392	0	14.1	4	4.5	4	-1E+10	1	-1E+10	1	-1E+10	1	-1E+10	1	-1E+10	1	-1E+10	1
4902642	32	C	05/06/2025	01:01	-131.447	46.176	0	666.00	0	4.1500	0	34.1680	0	27.114	0	659.462	0	12.8	4	4.0	4	-1E+10	1	-1E+10	1	-1E+10	1	-1E+10	1	-1E+10	1	-1E+10	1
4902642	32	C	05/06/2025	01:01	-131.447	46.176	0	685.80	0	4.1180	0	34.1840	0	27.130	0	679.035	0	11.3	4	3.6	4	-1E+10	1	-1E+10	1	-1E+10	1	-1E+10	1	-1E+10	1	-1E+10	1
4902642	32	C	05/06/2025	01:01	-131.447	46.176	0	705.90	0	4.0920	0	34.1990	0	27.145	0	698.903	0	10.3	4	3.2	4	-1E+10	1	-1E+10	1	-1E+10	1	-1E+10	1	-1E+10	1	-1E+10	1
4902642	32	C	05/06/2025	01:01	-131.447	46.176	0	725.10	0	4.0200	0	34.2110	0	27.162	0	717.880	0	9.4	4	3.0	4	-1E+10	1	-1E+10	1	-1E+10	1	-1E+10	1	-1E+10	1	-1E+10	1
4902642	32	C	05/06/2025	01:01	-131.447	46.176	0	745.80	0	3.9200	0	34.2250	0	27.183	0	738.337	0	8.6	4	2.7	4	-1E+10	1	-1E+10	1	-1E+10	1	-1E+10	1	-1E+10	1	-1E+10	1
4902642	32	C	05/06/2025	01:01	-131.447	46.176	0	765.60	0	3.8770	0	34.2440	0	27.203	0	757.903	0	7.6	4	2.4	4	-1E+10	1	-1E+10	1	-1E+10	1	-1E+10	1	-1E+10	1	-1E+10	1
4902642	32	C	05/06/2025	01:01	-131.447	46.176	0	785.60	0	3.8290	0	34.2650	0	27.225	0	777.665	0	6.9	4	2.2	4	-1E+10	1	-1E+10	1	-1E+10	1	-1E+10	1	-1E+10	1	-1E+10	1
4902642	32	C	05/06/2025	01:01	-131.447	46.176	0	805.50	0	3.7490	0	34.2760	0	27.242	0	797.326	0	6.5	4	2.0	4	-1E+10	1	-1E+10	1	-1E+10	1	-1E+10	1	-1E+10	1	-1E+10	1
4902642	32	C	05/06/2025	01:01	-131.447	46.176	0	826.50	0	3.7450	0	34.2980	0	27.260	0	818.072	0	5.7	4	1.8	4	-1E+10	1	-1E+10	1	-1E+10	1	-1E+10	1	-1E+10	1	-1E+10	1
4902642	32	C	05/06/2025	01:01	-131.447	46.176	0	845.90	0	3.7310	0	34.3170	0	27.276	0	837.235	0	5.4	4	1.7	4	-1E+10	1	-1E+10	1	-1E+10	1	-1E+10	1	-1E+10	1	-1E+10	1
4902642	32	C	05/06/2025	01:01	-131.447	46.176	0	866.30	0	3.6710	0	34.3290	0	27.292	0	857.384	0	5.4	4	1.7	4	-1E+10	1	-1E+10	1	-1E+10	1	-1E+10	1	-1E+10	1	-1E+10	1
4902642	32	C	05/06/2025	01:01	-131.447	46.176	0	885.70	0	3.6320	0	34.3340	0	27.300	0	876.544	0	5.4	4	1.7	4	-1E+10	1	-1E+10	1	-1E+10	1	-1E+10	1	-1E+10	1	-1E+10	1
4902642	32	C	05/06/2025	01:01	-131.447	46.176	0	906.10	0	3.6070	0	34.3400	0	27.307	0	896.689	0	5.4	4	1.7	4	-1E+10	1	-1E+10	1	-1E+10	1	-1E+10	1	-1E+10	1	-1E+10	1
4902642	32	C	05/06/2025	01:01	-131.447	46.176	0	925.90	0	3.5940	0	34.3470	0	27.314	0	916.240	0	5.5	4	1.7	4	-1E+10	1	-1E+10	1	-1E+10	1	-1E+10	1	-1E+10	1	-1E+10	1
4902642	32	C	05/06/2025	01:01	-131.447	46.176	0	945.80	0	3.5100	0	34.3510	0	27.326	0	935.888	0	5.6	4	1.7	4	-1E+10	1	-1E+10	1	-1E+10	1	-1E+10	1	-1E+10	1	-1E+10	1
4902642	32	C	05/06/2025	01:01	-131.447	46.176	0	965.70	0	3.4960	0	34.3680	0	27.341	0	955.534	0	5.8	4	1.8	4	-1E+10	1	-1E+10	1	-1E+10	1	-1E+10	1	-1E+10	1	-1E+10	1
4902642	32	C	05/06/2025	01:01	-131.447	46.176	0	985.80	0	3.4510	0	34.3810	0	27.355	0	975.376	0	6.1	4	1.9	4	-1E+10	1	-1E+10	1	-1E+10	1	-1E+10	1	-1E+10	1	-1E+10	1
4902642	32	C	05/06/2025	01:01	-131.447	46.176	0	1006.00	0	3.4180	0	34.3900	0	27.366	0	995.315	0	6.4	4	2.0	4	-1E+10	1	-1E+10	1	-1E+10	1	-1E+10	1	-1E+10	1	-1E+10	1
4902642	32	C	05/06/2025	01:01	-131.447	46.176	0	1025.90	0	3.3970	0	34.4010	0	27.377	0	1014.955	0	6.8	4	2.1	4	-1E+10	1	-1E+10	1	-1E+10	1	-1E+10	1	-1E+10	1	-1E+10	1
4902642	32	C	05/06/2025	01:01	-131.447	46.176	0	1045.90	0	3.3790	0	34.4080	0	27.384	0	1034.692	0	7.2	4	2.3	4	-1E+10	1	-1E+10	1	-1E+10	1	-1E+10	1	-1E+10	1	-1E+10	1
4902642	32	C	05/06/2025	01:01	-131.447	46.176	0	1065.80	0	3.3430	0	34.4160	0	27.394	0	1054.329	0	7.6	4	2.4	4	-1E+10	1	-1E+10	1	-1E+10	1	-1E+10	1	-1E+10	1	-1E+10	1
4902642	32	C	05/06/2025	01:01	-131.447	46.176	0	1084.70	0	3.3050	0	34.4220	0	27.403	0	1072.977	0	8.1	4	2.5	4	-1E+10	1	-1E+10	1	-1E+10	1	-1E+10	1	-1E+10	1	-1E+10	1
4902642	32	C	05/06/2025	01:01	-131.447	46.176	0	1105.90	0	3.2510	0	34.4300	0	27.414	0	1093.893	0	8.6	4	2.7	4	-1E+10	1	-1E+10	1	-1E+10	1	-1E+10	1	-1E+10	1	-1E+10	1
4902642	32	C	05/06/2025	01:01	-131.447	46.176	0	1125.80	0	3.2060	0	34.4350	0	27.422	0	1113.524	0	9.0	4	2.8	4	-1E+10	1	-1E+10	1	-1E+10	1	-1E+10	1	-1E+10	1	-1E+10	1
4902642	32	C	05/06/2025	01:01	-131.447	46.176	0	1145.90	0	3.1650	0	34.4400	0	27.430	0	1133.351	0	9.4	4	2.9	4	-1E+10	1	-1E+10	1	-1E+10	1	-1E+10	1	-1E+10	1	-1E+10	1
4902642	32	C	05/06/2025	01:01	-131.447	46.176	0	1165.60	0	3.1290	0	34.4440	0	27.437	0	1152.781	0	9.7	4	3.0	4	-1E+10	1	-1E+10	1	-1E+10	1	-1E+10	1	-1E+10	1	-1E+10	1
4902642	32	C	05/06/2025	01:01	-131.447	46.176	0	1185.50	0	3.0930	0	34.4480	0	27.444	0	1172.407	0	10.2	4	3.2	4	-1E+10	1	-1E+10	1	-1E+10	1	-1E+10	1	-1E+10	1	-1E+10	1
4902642	32	C	05/06/2025	01:01	-131.447	46.176	0	1206.30	0	3.0390	0	34.4540	0	27.453	0	1192.918	0	10.9	4	3.4	4	-1E+10	1	-1E+10	1	-1E+10	1	-1E+10	1	-1E+10	1	-1E+10	1
4902642	32	C	05/06/2025	01:01	-131.447	46.176	0	1225.50	0	2.9930	0	34.4590	0	27.462	0	1211.850	0	11.5	4	3.5	4	-1E+10	1	-1E+10	1	-1E+10	1	-1E+10	1	-1E+10	1	-1E+10	1
4902642	32	C	05/06/2025	01:01	-131.447	46.176	0	1245.80	0	2.9620	0	34.4630	0	27.468	0	1231.864	0	11.9	4	3.7	4	-1E+10	1	-1E+10	1	-1E+10	1	-1E+10	1	-1E+10	1	-1E+10	1
4902642	32	C	05/06/2025	01:01	-131.447	46.176	0	1265.70	0	2.9330	0	34.4660	0	27.473	0	1251.483	0	12.4	4	3.8	4	-1E+10	1	-1E+10	1	-1E+10	1	-1E+10	1	-1E+10	1	-1E+10	1
4902642	32	C	05/06/2025	01:01	-131.447	46.176	0	1285.40	0	2.8980	0	34.4700	0	27.479	0	1270.902	0	13.1	4	4.0	4	-1E+10	1	-1E+10	1	-1E+10	1	-1E+10	1	-1E+10	1	-1E+10	1
4902642	32	C	05/06/2025	01:01	-131.447	46.176	0	1305.80	0	2.8620	0	34.4750	0	27.487	0	1291.009	0	13.8	4	4.2	4	-1E+10	1	-1E+10	1	-1E+10	1	-1E+10	1	-1E+10	1	-1E+10	1
4902642	32	C	05/06/2025	01:01	-131.447	46.176	0	1325.90	0	2.8210	0	34.4790	0	27.493	0	1310.819	0	14.6	4	4.5	4	-1E+10	1	-1E+10	1	-1E+10	1	-1E+10	1	-1E+10	1	-1E+10	1
4902642	32	C	05/06/2025	01:01	-131.447	46.176	0	1345.50	0	2.7740	0	34.4850	0	27.503	0	1330.134	0	15.6	4	4.8	4	-1E+10	1	-1E+10	1	-1E+10	1	-1E+10	1	-1E+10	1	-1E+10	1
4902642	32	C	05/06/2025	01:01	-131.447	46.176	0	1365.60	0	2.7290	0	34.4910	0	27.511	0	1349.941	0	16.7	4	5.1	4	-1E+10	1	-1E+10	1	-1E+10	1	-1E+10	1	-1E+10	1	-1E+10	1
4902642	32	C	05/06/2025	01:01	-131.447	46.176	0	1385.40	0	2.6910	0	34.4960	0	27.519	0	1369.449	0	17.6	4	5.4	4	-1E+10	1	-1E+10	1	-1E+10	1	-1E+10	1	-1E+10	1	-1E+10	1
4902642	32	C	05/06/2025	01:01	-131.447	46.176	0	1406.10	0	2.6550	0	34.5000	0	27.525	0	1389.843	0	18.7	4	5.7	4	-1E+10	1	-1E+10	1	-1E+10	1	-1E+10	1	-1E+10	1	-1E+10	1
4902642	32	C	05/06/2025	01:01	-131.447	46.176	0	1425.20	0	2.6120	0	34.5050	0	27.533	0	1408.658	0	19.8	4	6.1	4	-1E+10	1	-1E+10	1	-1E+10	1	-1E+10	1	-1E+10	1	-1E+10	1
4902642	32	C	05/06/2025	01:01	-131.447	46.176	0	1446.40	0	2.5680	0	34.5100	0	27.541	0	1429.540	0	21.0	4	6.4	4	-1E+10	1	-1E+10	1	-1E+10	1	-1E+10	1	-1E+10	1	-1E+10	1
4902642	32	C	05/06/2025	01:01	-131.447	46.176	0	1465.70	0	2.5390	0	34.5140	0	27.546	0	1448.549	0	21.8	4	6.7	4	-1E+10	1	-1E+10	1	-1E+10	1	-1E+10	1	-1E+10	1	-1E+10	1
4902642	32	C	05/06/2025	01:01	-131.447	46.176	0	1486.00	0	2.5040	0	34.5180	0	27.553	0	1468.541	0	22.9	4	7.0	4	-1E+10	1	-1E+10	1	-1E+10	1	-1E+10	1	-1E+10	1	-1E+10	1
4902642	32	C	05/06/2025	01:01	-131.447	46.176	0	1505.90	0	2.4670	0	34.5220	0	27.559	0	1488.137	0	23.9	4	7.3	4	-1E+10	1	-1E+10	1	-1E+10	1	-1E+10	1	-1E+10	1	-1E+10	1
4902642	32	C	05/06/2025	01:01	-131.447	46.176	0	1525.70	0	2.4440	0	34.5240	0	27.563	0	1507.633	0	24.7	4	7.5	4	-1E+10	1	-1E+10	1	-1E+10	1	-1E+10	1	-1E+10	1	-1E+10	1
4902642	32	C	05/06/2025	01:01	-131.447	46.176	0	1545.90	0	2.4180	0	34.5270	0	27.567	0	1527.521	0	25.7	4	7.8	4	-1E+10	1	-1E+10	1	-1E+10	1	-1E+10	1	-1E+10	1	-1E+10	1
4902642	32	C	05/06/2025	01:01	-131.447	46.176	0	1566.00	0	2.3770	0	34.5320	0	27.575	0	1547.309	0	27.2	4	8.3	4	-1E+10	1	-1E+10	1	-1E+10	1	-1E+10	1	-1E+10	1	-1E+10	1
4902642	32	C	05/06/2025	01:01	-131.447	46.176	0	1586.00	0	2.3500	0	34.5350	0	27.580	0	1566.996	0	28.1	4	8.5	4	-1E+10	1	-1E+10	1	-1E+10	1	-1E+10	1	-1E+10	1	-1E+10	1
4902642	32	C	05/06/2025	01:01	-131.447	46.176	0	1606.40	0	2.3270	0	34.5380	0	27.584	0	1587.075	0	29.1	4	8.8	4	-1E+10	1	-1E+10	1	-1E+10	1	-1E+10	1	-1E+10	1	-1E+10	1
4902642	32	C	05/06/2025	01:01	-131.447	46.176	0	1625.90	0	2.3080	0	34.5410	0	27.588	0	1606.267	0	29.8	4	9.1	4	-1E+10	1	-1E+10	1	-1E+10	1	-1E+10	1	-1E+10	1	-1E+10	1
4902642	32	C	05/06/2025	01:01	-131.447	46.176	0	1646.10	0	2.2880	0	34.5430	0	27.591	0	1626.145	0	30.6	4	9.3	4	-1E+10	1	-1E+10	1	-1E+10	1	-1E+10	1	-1E+10	1	-1E+10	1
4902642	32	C	05/06/2025	01:01	-131.447	46.176	0	1666.20	0	2.2590	0	34.5460	0	27.596	0	1645.924	0	31.6	4	9.6	4	-1E+10	1	-1E+10	1	-1E+10	1	-1E+10	1	-1E+10	1	-1E+10	1
4902642	32	C	05/06/2025	01:01	-131.447	46.176	0	1685.90	0	2.2450	0	34.5480	0	27.599	0	1665.307	0	32.2	4	9.8	4	-1E+10	1	-1E+10	1	-1E+10	1	-1E+10	1	-1E+10	1	-1E+10	1
4902642	32	C	05/06/2025	01:01	-131.447	46.176	0	1705.80	0	2.2280	0	34.5500	0	27.602	0	1684.884	0	33.1	4	10.0	4	-1E+10	1	-1E+10	1	-1E+10	1	-1E+10	1	-1E+10	1	-1E+10	1
4902642	32	C	05/06/2025	01:01	-131.447	46.176	0	1726.10	0	2.2050	0	34.5530	0	27.607	0	1704.854	0	34.3	4	10.4	4	-1E+10	1	-1E+10	1	-1E+10	1	-1E+10	1	-1E+10	1	-1E+10	1
4902642	32	C	05/06/2025	01:01	-131.447	46.176	0	1746.50	0	2.1800	0	34.5560	0	27.611	0	1724.920	0	35.4	4	10.7	4	-1E+10	1	-1E+10	1	-1E+10	1	-1E+10	1	-1E+10	1	-1E+10	1
4902642	32	C	05/06/2025	01:01	-131.447	46.176	0	1765.80	0	2.1630	0	34.5590	0	27.615	0	1743.902	0	36.3	4	11.0	4	-1E+10	1	-1E+10	1	-1E+10	1	-1E+10	1	-1E+10	1	-1E+10	1
4902642	32	C	05/06/2025	01:01	-131.447	46.176	0	1786.00	0	2.1490	0	34.5610	0	27.618	0	1763.768	0	37.2	4	11.3	4	-1E+10	1	-1E+10	1	-1E+10	1	-1E+10	1	-1E+10	1	-1E+10	1
4902642	32	C	05/06/2025	01:01	-131.447	46.176	0	1806.00	0	2.1310	0	34.5630	0	27.621	0	1783.435	0	38.2	4	11.6	4	-1E+10	1	-1E+10	1	-1E+10	1	-1E+10	1	-1E+10	1	-1E+10	1
4902642	32	C	05/06/2025	01:01	-131.447	46.176	0	1826.10	0	2.1140	0	34.5660	0	27.625	0	1803.199	0	39.2	4	11.8	4	-1E+10	1	-1E+10	1	-1E+10	1	-1E+10	1	-1E+10	1	-1E+10	1
4902642	32	C	05/06/2025	01:01	-131.447	46.176	0	1846.00	0	2.1010	0	34.5680	0	27.627	0	1822.764	0	40.0	4	12.1	4	-1E+10	1	-1E+10	1	-1E+10	1	-1E+10	1	-1E+10	1	-1E+10	1
4902642	32	C	05/06/2025	01:01	-131.447	46.176	0	1865.80	0	2.0840	0	34.5700	0	27.631	0	1842.229	0	41.2	4	12.4	4	-1E+10	1	-1E+10	1	-1E+10	1	-1E+10	1	-1E+10	1	-1E+10	1
4902642	32	C	05/06/2025	01:01	-131.447	46.176	0	1885.70	0	2.0660	0	34.5730	0	27.634	0	1861.790	0	42.2	4	12.8	4	-1E+10	1	-1E+10	1	-1E+10	1	-1E+10	1	-1E+10	1	-1E+10	1
4902642	32	C	05/06/2025	01:01	-131.447	46.176	0	1906.00	0	2.0480	0	34.5760	0	27.638	0	1881.743	0	43.5	4	13.1	4	-1E+10	1	-1E+10	1	-1E+10	1	-1E+10	1	-1E+10	1	-1E+10	1
4902642	32	C	05/06/2025	01:01	-131.447	46.176	0	1926.30	0	2.0320	0	34.5790	0	27.642	0	1901.694	0	44.5	4	13.4	4	-1E+10	1	-1E+10	1	-1E+10	1	-1E+10	1	-1E+10	1	-1E+10	1
4902642	32	C	05/06/2025	01:01	-131.447	46.176	0	1946.80	0	2.0210	0	34.5810	0	27.645	0	1921.840	0	45.3	4	13.7	4	-1E+10	1	-1E+10	1	-1E+10	1	-1E+10	1	-1E+10	1	-1E+10	1
4902642	32	C	05/06/2025	01:01	-131.447	46.176	0	1966.00	0	2.0060	0	34.5830	0	27.648	0	1940.706	0	46.6	4	14.0	4	-1E+10	1	-1E+10	1	-1E+10	1	-1E+10	1	-1E+10	1	-1E+10	1
4902642	32	C	05/06/2025	01:01	-131.447	46.176	0	1985.70	0	1.9910	0	34.5860	0	27.651	0	1960.062	0	47.6	4	14.3	4	-1E+10	1	-1E+10	1	-1E+10	1	-1E+10	1	-1E+10	1	-1E+10	1
4902642	32	C	05/06/2025	01:01	-131.447	46.176	0	2005.80	0	1.9730	0	34.5890	4	27.655	0	1979.810	0	48.9	4	14.7	4	-1E+10	1	-1E+10	1	-1E+10	1	-1E+10	1	-1E+10	1	-1E+10	1
4902642	32	C	05/06/2025	01:01	-131.447	46.176	0	2025.80	0	1.9590	0	34.5910	4	27.658	0	1999.457	0	50.1	4	15.1	4	-1E+10	1	-1E+10	1	-1E+10	1	-1E+10	1	-1E+10	1	-1E+10	1
4902642	32	C	05/06/2025	01:01	-131.447	46.176	0	2045.80	0	1.9420	0	34.5950	4	27.663	0	2019.102	0	51.3	4	15.5	4	-1E+10	1	-1E+10	1	-1E+10	1	-1E+10	1	-1E+10	1	-1E+10	1
4902642	32	C	05/06/2025	01:01	-131.447	46.176	0	2066.00	0	1.9300	0	34.5960	4	27.664	0	2038.942	0	52.2	4	15.7	4	-1E+10	1	-1E+10	1	-1E+10	1	-1E+10	1	-1E+10	1	-1E+10	1
4902642	32	C	05/06/2025	01:01	-131.447	46.176	0	2086.20	0	1.9200	0	34.5980	4	27.667	0	2058.780	0	53.2	4	16.0	4	-1E+10	1	-1E+10	1	-1E+10	1	-1E+10	1	-1E+10	1	-1E+10	1
4902642	32	C	05/06/2025	01:01	-131.447	46.176	0	2106.00	0	1.9130	0	34.6000	4	27.669	0	2078.223	0	53.8	4	16.2	4	-1E+10	1	-1E+10	1	-1E+10	1	-1E+10	1	-1E+10	1	-1E+10	1
4902642	32	C	05/06/2025	01:01	-131.447	46.176	0	2126.10	0	1.9080	0	34.6010	4	27.670	0	2097.960	0	54.3	4	16.3	4	-1E+10	1	-1E+10	1	-1E+10	1	-1E+10	1	-1E+10	1	-1E+10	1
4902642	32	C	05/06/2025	01:01	-131.447	46.176	0	2146.00	0	1.9010	0	34.6020	4	27.672	0	2117.498	0	55.0	4	16.6	4	-1E+10	1	-1E+10	1	-1E+10	1	-1E+10	1	-1E+10	1	-1E+10	1
4902642	32	C	05/06/2025	01:01	-131.447	46.176	0	2166.40	0	1.8920	0	34.6040	4	27.674	0	2137.525	0	55.8	4	16.8	4	-1E+10	1	-1E+10	1	-1E+10	1	-1E+10	1	-1E+10	1	-1E+10	1
4902642	32	C	05/06/2025	01:01	-131.447	46.176	0	2186.10	0	1.8800	0	34.6060	4	27.677	0	2156.863	0	56.8	4	17.1	4	-1E+10	1	-1E+10	1	-1E+10	1	-1E+10	1	-1E+10	1	-1E+10	1
4902642	32	C	05/06/2025	01:01	-131.447	46.176	0	2206.20	0	1.8700	0	34.6080	4	27.679	0	2176.592	0	57.7	4	17.3	4	-1E+10	1	-1E+10	1	-1E+10	1	-1E+10	1	-1E+10	1	-1E+10	1
4902642	32	C	05/06/2025	01:01	-131.447	46.176	0	2226.20	0	1.8610	0	34.6100	4	27.682	0	2196.221	0	58.5	4	17.6	4	-1E+10	1	-1E+10	1	-1E+10	1	-1E+10	1	-1E+10	1	-1E+10	1
4902642	32	C	05/06/2025	01:01	-131.447	46.176	0	2246.10	0	1.8550	0	34.6110	4	27.683	0	2215.750	0	59.2	4	17.8	4	-1E+10	1	-1E+10	1	-1E+10	1	-1E+10	1	-1E+10	1	-1E+10	1
4902642	32	C	05/06/2025	01:01	-131.447	46.176	0	2266.00	0	1.8460	0	34.6120	4	27.685	0	2235.277	0	59.9	4	18.0	4	-1E+10	1	-1E+10	1	-1E+10	1	-1E+10	1	-1E+10	1	-1E+10	1
4902642	32	C	05/06/2025	01:01	-131.447	46.176	0	2286.30	0	1.8410	0	34.6130	4	27.686	0	2255.195	0	60.6	4	18.2	4	-1E+10	1	-1E+10	1	-1E+10	1	-1E+10	1	-1E+10	1	-1E+10	1
4902642	32	C	05/06/2025	01:01	-131.447	46.176	0	2306.70	0	1.8330	0	34.6150	4	27.688	0	2275.209	0	61.4	4	18.5	4	-1E+10	1	-1E+10	1	-1E+10	1	-1E+10	1	-1E+10	1	-1E+10	1
4902642	32	C	05/06/2025	01:01	-131.447	46.176	0	2326.00	0	1.8270	0	34.6160	4	27.690	0	2294.143	0	62.1	4	18.6	4	-1E+10	1	-1E+10	1	-1E+10	1	-1E+10	1	-1E+10	1	-1E+10	1
4902642	32	C	05/06/2025	01:01	-131.447	46.176	0	2345.90	0	1.8200	0	34.6170	4	27.691	0	2313.663	0	62.8	4	18.8	4	-1E+10	1	-1E+10	1	-1E+10	1	-1E+10	1	-1E+10	1	-1E+10	1
4902642	32	C	05/06/2025	01:01	-131.447	46.176	0	2366.20	0	1.8110	0	34.6180	4	27.693	0	2333.573	0	63.5	4	19.1	4	-1E+10	1	-1E+10	1	-1E+10	1	-1E+10	1	-1E+10	1	-1E+10	1
4902642	32	C	05/06/2025	01:01	-131.447	46.176	0	2386.00	0	1.8060	0	34.6190	4	27.694	0	2352.992	0	64.0	4	19.2	4	-1E+10	1	-1E+10	1	-1E+10	1	-1E+10	1	-1E+10	1	-1E+10	1
4902642	32	C	05/06/2025	01:01	-131.447	46.176	0	2405.70	0	1.8000	0	34.6200	4	27.696	0	2372.310	0	64.8	4	19.4	4	-1E+10	1	-1E+10	1	-1E+10	1	-1E+10	1	-1E+10	1	-1E+10	1
4902642	32	C	05/06/2025	01:01	-131.447	46.176	0	2426.00	0	1.7890	0	34.6220	4	27.698	0	2392.216	0	65.9	4	19.8	4	-1E+10	1	-1E+10	1	-1E+10	1	-1E+10	1	-1E+10	1	-1E+10	1
4902642	32	C	05/06/2025	01:01	-131.447	46.176	0	2445.90	0	1.7810	0	34.6230	4	27.700	0	2411.727	0	66.9	4	20.1	4	-1E+10	1	-1E+10	1	-1E+10	1	-1E+10	1	-1E+10	1	-1E+10	1
4902642	32	C	05/06/2025	01:01	-131.447	46.176	0	2465.90	0	1.7730	0	34.6240	4	27.701	0	2431.334	0	67.5	4	20.3	4	-1E+10	1	-1E+10	1	-1E+10	1	-1E+10	1	-1E+10	1	-1E+10	1
4902642	32	C	05/06/2025	01:01	-131.447	46.176	0	2485.90	0	1.7660	0	34.6250	4	27.703	0	2450.940	0	68.2	4	20.4	4	-1E+10	1	-1E+10	1	-1E+10	1	-1E+10	1	-1E+10	1	-1E+10	1
4902642	32	C	05/06/2025	01:01	-131.447	46.176	0	2506.20	0	1.7630	0	34.6260	4	27.704	0	2470.838	0	68.8	4	20.6	4	-1E+10	1	-1E+10	1	-1E+10	1	-1E+10	1	-1E+10	1	-1E+10	1
4902642	32	C	05/06/2025	01:01	-131.447	46.176	0	2525.70	0	1.7560	0	34.6270	4	27.705	0	2489.950	0	69.7	4	20.9	4	-1E+10	1	-1E+10	1	-1E+10	1	-1E+10	1	-1E+10	1	-1E+10	1
4902642	32	C	05/06/2025	01:01	-131.447	46.176	0	2546.00	0	1.7500	0	34.6280	4	27.707	0	2509.844	0	70.3	4	21.1	4	-1E+10	1	-1E+10	1	-1E+10	1	-1E+10	1	-1E+10	1	-1E+10	1
4902642	32	C	05/06/2025	01:01	-131.447	46.176	0	2566.00	0	1.7440	0	34.6290	4	27.708	0	2529.443	0	71.1	4	21.3	4	-1E+10	1	-1E+10	1	-1E+10	1	-1E+10	1	-1E+10	1	-1E+10	1
4902642	32	C	05/06/2025	01:01	-131.447	46.176	0	2586.00	0	1.7360	0	34.6300	4	27.709	0	2549.039	0	71.8	4	21.5	4	-1E+10	1	-1E+10	1	-1E+10	1	-1E+10	1	-1E+10	1	-1E+10	1
4902642	32	C	05/06/2025	01:01	-131.447	46.176	0	2606.10	0	1.7270	0	34.6310	4	27.711	0	2568.732	0	72.8	4	21.8	4	-1E+10	1	-1E+10	1	-1E+10	1	-1E+10	1	-1E+10	1	-1E+10	1
4902642	32	C	05/06/2025	01:01	-131.447	46.176	0	2626.40	0	1.7180	0	34.6320	4	27.713	0	2588.619	0	73.7	4	22.1	4	-1E+10	1	-1E+10	1	-1E+10	1	-1E+10	1	-1E+10	1	-1E+10	1
4902642	32	C	05/06/2025	01:01	-131.447	46.176	0	2645.80	0	1.7060	0	34.6330	4	27.714	0	2607.623	0	74.8	4	22.4	4	-1E+10	1	-1E+10	1	-1E+10	1	-1E+10	1	-1E+10	1	-1E+10	1
4902642	32	C	05/06/2025	01:01	-131.447	46.176	0	2665.80	0	1.6960	0	34.6340	4	27.716	0	2627.212	0	76.1	4	22.8	4	-1E+10	1	-1E+10	1	-1E+10	1	-1E+10	1	-1E+10	1	-1E+10	1
4902642	32	C	05/06/2025	01:01	-131.447	46.176	0	2686.20	0	1.6860	0	34.6360	4	27.718	0	2647.192	0	77.2	4	23.1	4	-1E+10	1	-1E+10	1	-1E+10	1	-1E+10	1	-1E+10	1	-1E+10	1
4902642	32	C	05/06/2025	01:01	-131.447	46.176	0	2706.00	0	1.6780	0	34.6370	4	27.720	0	2666.582	0	78.2	4	23.4	4	-1E+10	1	-1E+10	1	-1E+10	1	-1E+10	1	-1E+10	1	-1E+10	1
4902642	32	C	05/06/2025	01:01	-131.447	46.176	0	2725.90	0	1.6690	0	34.6390	4	27.722	0	2686.068	0	79.0	4	23.6	4	-1E+10	1	-1E+10	1	-1E+10	1	-1E+10	1	-1E+10	1	-1E+10	1
4902642	32	C	05/06/2025	01:01	-131.447	46.176	0	2745.70	0	1.6670	0	34.6390	4	27.723	0	2705.455	0	79.3	4	23.7	4	-1E+10	1	-1E+10	1	-1E+10	1	-1E+10	1	-1E+10	1	-1E+10	1
4902642	32	C	05/06/2025	01:01	-131.447	46.176	0	2766.30	0	1.6650	0	34.6390	4	27.723	0	2725.623	0	79.8	4	23.9	4	-1E+10	1	-1E+10	1	-1E+10	1	-1E+10	1	-1E+10	1	-1E+10	1
4902642	32	C	05/06/2025	01:01	-131.447	46.176	0	2785.70	0	1.6610	0	34.6400	4	27.724	0	2744.615	0	80.4	4	24.0	4	-1E+10	1	-1E+10	1	-1E+10	1	-1E+10	1	-1E+10	1	-1E+10	1
4902642	32	C	05/06/2025	01:01	-131.447	46.176	0	2805.60	0	1.6590	0	34.6410	4	27.725	0	2764.094	0	80.8	4	24.2	4	-1E+10	1	-1E+10	1	-1E+10	1	-1E+10	1	-1E+10	1	-1E+10	1
4902642	32	C	05/06/2025	01:01	-131.447	46.176	0	2825.60	0	1.6560	0	34.6420	4	27.726	0	2783.669	0	81.3	4	24.3	4	-1E+10	1	-1E+10	1	-1E+10	1	-1E+10	1	-1E+10	1	-1E+10	1
4902642	32	C	05/06/2025	01:01	-131.447	46.176	0	2845.80	0	1.6530	0	34.6420	4	27.727	0	2803.439	0	82.0	4	24.5	4	-1E+10	1	-1E+10	1	-1E+10	1	-1E+10	1	-1E+10	1	-1E+10	1
4902642	32	C	05/06/2025	01:01	-131.447	46.176	0	2866.30	0	1.6480	0	34.6430	4	27.728	0	2823.500	0	82.6	4	24.7	4	-1E+10	1	-1E+10	1	-1E+10	1	-1E+10	1	-1E+10	1	-1E+10	1
4902642	32	C	05/06/2025	01:01	-131.447	46.176	0	2886.10	0	1.6450	0	34.6440	4	27.729	0	2842.874	0	83.1	4	24.8	4	-1E+10	1	-1E+10	1	-1E+10	1	-1E+10	1	-1E+10	1	-1E+10	1
4902642	32	C	05/06/2025	01:01	-131.447	46.176	0	2905.70	0	1.6430	0	34.6440	4	27.729	0	2862.051	0	83.4	4	24.9	4	-1E+10	1	-1E+10	1	-1E+10	1	-1E+10	1	-1E+10	1	-1E+10	1
4902642	32	C	05/06/2025	01:01	-131.447	46.176	0	2916.50	0	1.6430	0	34.6450	4	27.730	0	2872.617	0	83.6	4	25.0	4	-1E+10	1	-1E+10	1	-1E+10	1	-1E+10	1	-1E+10	1	-1E+10	1
4902642	32	C	05/06/2025	01:01	-131.447	46.176	0	2918.00	0	1.6430	0	34.6450	4	27.730	0	2874.085	0	83.6	4	25.0	4	-1E+10	1	-1E+10	1	-1E+10	1	-1E+10	1	-1E+10	1	-1E+10	1
4902642	32	C	05/06/2025	01:01	-131.447	46.176	0	2918.80	0	1.6430	0	34.6460	4	27.731	0	2874.867	0	83.6	4	25.0	4	-1E+10	1	-1E+10	1	-1E+10	1	-1E+10	1	-1E+10	1	-1E+10	1
4902642	32	C	05/06/2025	01:01	-131.447	46.176	0	2919.80	0	1.6430	0	34.6450	4	27.730	0	2875.846	0	83.7	4	25.0	4	-1E+10	1	-1E+10	1	-1E+10	1	-1E+10	1	-1E+10	1	-1E+10	1
4902642	32	C	05/06/2025	01:01	-131.447	46.176	0	2920.80	0	1.6430	0	34.6450	4	27.730	0	2876.824	0	83.7	4	25.0	4	-1E+10	1	-1E+10	1	-1E+10	1	-1E+10	1	-1E+10	1	-1E+10	1
4902642	32	C	05/06/2025	01:01	-131.447	46.176	0	2921.60	0	1.6430	0	34.6450	4	27.730	0	2877.607	0	83.7	4	25.0	4	-1E+10	1	-1E+10	1	-1E+10	1	-1E+10	1	-1E+10	1	-1E+10	1
4902642	32	C	05/06/2025	01:01	-131.447	46.176	0	2922.70	0	1.6420	0	34.6460	4	27.731	0	2878.683	0	83.8	4	25.0	4	-1E+10	1	-1E+10	1	-1E+10	1	-1E+10	1	-1E+10	1	-1E+10	1
4902642	32	C	05/06/2025	01:01	-131.447	46.176	0	2923.60	0	1.6420	0	34.6450	4	27.730	0	2879.563	0	83.8	4	25.0	4	-1E+10	1	-1E+10	1	-1E+10	1	-1E+10	1	-1E+10	1	-1E+10	1
4902642	32	C	05/06/2025	01:01	-131.447	46.176	0	2924.60	0	1.6420	0	34.6450	4	27.730	0	2880.541	0	83.8	4	25.1	4	-1E+10	1	-1E+10	1	-1E+10	1	-1E+10	1	-1E+10	1	-1E+10	1
4902642	32	C	05/06/2025	01:01	-131.447	46.176	0	2925.50	0	1.6420	0	34.6450	4	27.730	0	2881.422	0	83.8	4	25.1	4	-1E+10	1	-1E+10	1	-1E+10	1	-1E+10	1	-1E+10	1	-1E+10	1
4902642	32	C	05/06/2025	01:01	-131.447	46.176	0	2926.40	0	1.6420	0	34.6460	4	27.731	0	2882.302	0	83.9	4	25.1	4	-1E+10	1	-1E+10	1	-1E+10	1	-1E+10	1	-1E+10	1	-1E+10	1
4902642	32	C	05/06/2025	01:01	-131.447	46.176	0	2927.40	0	1.6410	0	34.6460	4	27.731	0	2883.280	0	83.9	4	25.1	4	-1E+10	1	-1E+10	1	-1E+10	1	-1E+10	1	-1E+10	1	-1E+10	1
4902642	32	C	05/06/2025	01:01	-131.447	46.176	0	2928.40	0	1.6410	0	34.6460	4	27.731	0	2884.259	0	83.9	4	25.1	4	-1E+10	1	-1E+10	1	-1E+10	1	-1E+10	1	-1E+10	1	-1E+10	1
4902642	32	C	05/06/2025	01:01	-131.447	46.176	0	2929.30	0	1.6400	0	34.6460	4	27.731	0	2885.139	0	84.0	4	25.1	4	-1E+10	1	-1E+10	1	-1E+10	1	-1E+10	1	-1E+10	1	-1E+10	1
4902642	32	C	05/06/2025	01:01	-131.447	46.176	0	2930.20	0	1.6390	0	34.6460	4	27.731	0	2886.020	0	84.0	4	25.1	4	-1E+10	1	-1E+10	1	-1E+10	1	-1E+10	1	-1E+10	1	-1E+10	1
4902642	32	C	05/06/2025	01:01	-131.447	46.176	0	2931.10	0	1.6390	0	34.6460	4	27.731	0	2886.900	0	83.9	4	25.1	4	-1E+10	1	-1E+10	1	-1E+10	1	-1E+10	1	-1E+10	1	-1E+10	1
4902642	32	C	05/06/2025	01:01	-131.447	46.176	0	2932.60	0	1.6400	0	34.6460	4	27.731	0	2888.368	0	83.9	4	25.1	4	-1E+10	1	-1E+10	1	-1E+10	1	-1E+10	1	-1E+10	1	-1E+10	1
4902642	32	C	05/06/2025	01:01	-131.447	46.176	0	2933.40	0	1.6400	0	34.6460	4	27.731	0	2889.150	0	83.9	4	25.1	4	-1E+10	1	-1E+10	1	-1E+10	1	-1E+10	1	-1E+10	1	-1E+10	1
4902642	32	C	05/06/2025	01:01	-131.447	46.176	0	2934.50	0	1.6410	0	34.6460	4	27.731	0	2890.226	0	83.9	4	25.1	4	-1E+10	1	-1E+10	1	-1E+10	1	-1E+10	1	-1E+10	1	-1E+10	1
4902642	32	C	05/06/2025	01:01	-131.447	46.176	0	2935.70	0	1.6410	0	34.6460	4	27.731	0	2891.400	0	84.0	4	25.1	4	-1E+10	1	-1E+10	1	-1E+10	1	-1E+10	1	-1E+10	1	-1E+10	1
4902642	32	C	05/06/2025	01:01	-131.447	46.176	0	2936.60	0	1.6400	0	34.6470	4	27.732	0	2892.281	0	84.0	4	25.1	4	-1E+10	1	-1E+10	1	-1E+10	1	-1E+10	1	-1E+10	1	-1E+10	1
4902642	32	C	05/06/2025	01:01	-131.447	46.176	0	2937.40	0	1.6410	0	34.6460	4	27.731	0	2893.063	0	84.0	4	25.1	4	-1E+10	1	-1E+10	1	-1E+10	1	-1E+10	1	-1E+10	1	-1E+10	1
4902642	32	C	05/06/2025	01:01	-131.447	46.176	0	2938.60	0	1.6400	0	34.6460	4	27.731	0	2894.237	0	84.0	4	25.1	4	-1E+10	1	-1E+10	1	-1E+10	1	-1E+10	1	-1E+10	1	-1E+10	1
4902642	32	C	05/06/2025	01:01	-131.447	46.176	0	2939.70	0	1.6410	0	34.6460	4	27.731	0	2895.313	0	84.0	4	25.1	4	-1E+10	1	-1E+10	1	-1E+10	1	-1E+10	1	-1E+10	1	-1E+10	1
4902642	32	C	05/06/2025	01:01	-131.447	46.176	0	2940.60	0	1.6400	0	34.6460	4	27.731	0	2896.193	0	84.1	4	25.1	4	-1E+10	1	-1E+10	1	-1E+10	1	-1E+10	1	-1E+10	1	-1E+10	1
4902642	32	C	05/06/2025	01:01	-131.447	46.176	0	2941.60	0	1.6400	0	34.6460	4	27.731	0	2897.172	0	84.1	4	25.1	4	-1E+10	1	-1E+10	1	-1E+10	1	-1E+10	1	-1E+10	1	-1E+10	1
4902642	32	C	05/06/2025	01:01	-131.447	46.176	0	2942.90	0	1.6400	0	34.6460	4	27.731	0	2898.443	0	84.1	4	25.1	4	-1E+10	1	-1E+10	1	-1E+10	1	-1E+10	1	-1E+10	1	-1E+10	1
4902642	32	C	05/06/2025	01:01	-131.447	46.176	0	2943.70	0	1.6400	0	34.6460	4	27.731	0	2899.226	0	84.2	4	25.2	4	-1E+10	1	-1E+10	1	-1E+10	1	-1E+10	1	-1E+10	1	-1E+10	1
4902642	32	C	05/06/2025	01:01	-131.447	46.176	0	2944.50	0	1.6410	0	34.6460	4	27.731	0	2900.008	0	84.2	4	25.2	4	-1E+10	1	-1E+10	1	-1E+10	1	-1E+10	1	-1E+10	1	-1E+10	1
4902642	32	C	05/06/2025	01:01	-131.447	46.176	0	2945.60	0	1.6400	0	34.6460	4	27.731	0	2901.084	0	84.3	4	25.2	4	-1E+10	1	-1E+10	1	-1E+10	1	-1E+10	1	-1E+10	1	-1E+10	1
4902642	32	C	05/06/2025	01:01	-131.447	46.176	0	2946.90	0	1.6390	0	34.6460	4	27.732	0	2902.356	0	84.3	4	25.2	4	-1E+10	1	-1E+10	1	-1E+10	1	-1E+10	1	-1E+10	1	-1E+10	1
4902642	32	C	05/06/2025	01:01	-131.447	46.176	0	2947.60	0	1.6390	0	34.6460	4	27.732	0	2903.041	0	84.4	4	25.2	4	-1E+10	1	-1E+10	1	-1E+10	1	-1E+10	1	-1E+10	1	-1E+10	1
4902642	32	C	05/06/2025	01:01	-131.447	46.176	0	2948.40	0	1.6390	0	34.6470	4	27.732	0	2903.823	0	84.4	4	25.2	4	-1E+10	1	-1E+10	1	-1E+10	1	-1E+10	1	-1E+10	1	-1E+10	1
4902642	32	C	05/06/2025	01:01	-131.447	46.176	0	2949.60	0	1.6380	0	34.6460	4	27.732	0	2904.997	0	84.4	4	25.2	4	-1E+10	1	-1E+10	1	-1E+10	1	-1E+10	1	-1E+10	1	-1E+10	1
4902642	32	C	05/06/2025	01:01	-131.447	46.176	0	2950.80	0	1.6380	0	34.6460	4	27.732	0	2906.171	0	84.4	4	25.2	4	-1E+10	1	-1E+10	1	-1E+10	1	-1E+10	1	-1E+10	1	-1E+10	1
4902642	32	C	05/06/2025	01:01	-131.447	46.176	0	2951.60	0	1.6380	0	34.6470	4	27.732	0	2906.954	0	84.5	4	25.3	4	-1E+10	1	-1E+10	1	-1E+10	1	-1E+10	1	-1E+10	1	-1E+10	1
4902642	32	C	05/06/2025	01:01	-131.447	46.176	0	2952.40	0	1.6380	0	34.6460	4	27.732	0	2907.736	0	84.5	4	25.3	4	-1E+10	1	-1E+10	1	-1E+10	1	-1E+10	1	-1E+10	1	-1E+10	1
4902642	32	C	05/06/2025	01:01	-131.447	46.176	0	2953.60	0	1.6360	0	34.6470	4	27.733	0	2908.910	0	84.5	4	25.3	4	-1E+10	1	-1E+10	1	-1E+10	1	-1E+10	1	-1E+10	1	-1E+10	1
4902642	32	C	05/06/2025	01:01	-131.447	46.176	0	2954.80	0	1.6360	0	34.6470	4	27.733	0	2910.084	0	84.5	4	25.3	4	-1E+10	1	-1E+10	1	-1E+10	1	-1E+10	1	-1E+10	1	-1E+10	1
4902642	32	C	05/06/2025	01:01	-131.447	46.176	0	2955.70	0	1.6360	0	34.6470	4	27.733	0	2910.964	0	84.5	4	25.3	4	-1E+10	1	-1E+10	1	-1E+10	1	-1E+10	1	-1E+10	1	-1E+10	1
4902642	32	C	05/06/2025	01:01	-131.447	46.176	0	2956.60	0	1.6370	0	34.6460	4	27.732	0	2911.844	0	84.5	4	25.3	4	-1E+10	1	-1E+10	1	-1E+10	1	-1E+10	1	-1E+10	1	-1E+10	1
4902642	32	C	05/06/2025	01:01	-131.447	46.176	0	2957.40	0	1.6360	0	34.6470	4	27.733	0	2912.627	0	84.5	4	25.3	4	-1E+10	1	-1E+10	1	-1E+10	1	-1E+10	1	-1E+10	1	-1E+10	1
4902642	32	C	05/06/2025	01:01	-131.447	46.176	0	2958.60	0	1.6360	0	34.6470	4	27.733	0	2913.801	0	84.5	4	25.3	4	-1E+10	1	-1E+10	1	-1E+10	1	-1E+10	1	-1E+10	1	-1E+10	1
4902642	32	C	05/06/2025	01:01	-131.447	46.176	0	2959.70	0	1.6370	0	34.6460	4	27.732	0	2914.876	0	84.5	4	25.2	4	-1E+10	1	-1E+10	1	-1E+10	1	-1E+10	1	-1E+10	1	-1E+10	1
4902642	32	C	05/06/2025	01:01	-131.447	46.176	0	2960.50	0	1.6360	0	34.6470	4	27.733	0	2915.659	0	84.5	4	25.3	4	-1E+10	1	-1E+10	1	-1E+10	1	-1E+10	1	-1E+10	1	-1E+10	1
4902642	32	C	05/06/2025	01:01	-131.447	46.176	0	2961.60	0	1.6360	0	34.6470	4	27.733	0	2916.735	0	84.5	4	25.3	4	-1E+10	1	-1E+10	1	-1E+10	1	-1E+10	1	-1E+10	1	-1E+10	1
4902642	32	C	05/06/2025	01:01	-131.447	46.176	0	2962.50	0	1.6360	0	34.6470	4	27.733	0	2917.615	0	84.5	4	25.2	4	-1E+10	1	-1E+10	1	-1E+10	1	-1E+10	1	-1E+10	1	-1E+10	1
4902642	32	C	05/06/2025	01:01	-131.447	46.176	0	2963.60	0	1.6360	0	34.6470	4	27.733	0	2918.691	0	84.4	4	25.2	4	-1E+10	1	-1E+10	1	-1E+10	1	-1E+10	1	-1E+10	1	-1E+10	1
4902642	32	C	05/06/2025	01:01	-131.447	46.176	0	2964.50	0	1.6360	0	34.6470	4	27.733	0	2919.571	0	84.4	4	25.2	4	-1E+10	1	-1E+10	1	-1E+10	1	-1E+10	1	-1E+10	1	-1E+10	1
4902642	32	C	05/06/2025	01:01	-131.447	46.176	0	2965.70	0	1.6350	0	34.6470	4	27.733	0	2920.745	0	84.3	4	25.2	4	-1E+10	1	-1E+10	1	-1E+10	1	-1E+10	1	-1E+10	1	-1E+10	1
4902642	32	C	05/06/2025	01:01	-131.447	46.176	0	2966.60	0	1.6360	0	34.6470	4	27.733	0	2921.626	0	84.3	4	25.2	4	-1E+10	1	-1E+10	1	-1E+10	1	-1E+10	1	-1E+10	1	-1E+10	1
4902642	32	C	05/06/2025	01:01	-131.447	46.176	0																										
4902642	35	C	06/05/2025	01:01	-131.383	46.099	0	1.00	0	12.0200	0	32.3580	0	24.535	0	0.992	0	247.5	4	92.3	4	-1E+10	1	-1E+10	1	-1E+10	1	-1E+10	1	-1E+10	1	-1E+10	1
4902642	35	C	06/05/2025	01:01	-131.383	46.099	0	1.10	0	12.0188	0	32.3577	0	24.535	0	1.091	0	247.6	4	92.4	4	-1E+10	1	-1E+10	1	-1E+10	1	-1E+10	1	-1E+10	1	-1E+10	1
4902642	35	C	06/05/2025	01:01	-131.383	46.099	0	1.20	0	12.0175	0	32.3575	0	24.535	0	1.190	0	247.6	4	92.3	4	-1E+10	1	-1E+10	1	-1E+10	1	-1E+10	1	-1E+10	1	-1E+10	1
4902642	35	C	06/05/2025	01:01	-131.383	46.099	0	1.30	0	12.0157	0	32.3587	0	24.536	0	1.289	0	-1e10	1	-1e10	1	-1E+10	1	-1E+10	1	-1E+10	1	-1E+10	1	-1E+10	1	-1E+10	1
4902642	35	C	06/05/2025	01:01	-131.383	46.099	0	1.50	0	12.0140	0	32.3550	0	24.533	0	1.488	0	247.6	4	92.3	4	-1E+10	1	-1E+10	1	-1E+10	1	-1E+10	1	-1E+10	1	-1E+10	1
4902642	35	C	06/05/2025	01:01	-131.383	46.099	0	2.40	0	12.0110	0	32.3540	0	24.533	0	2.380	0	247.5	4	92.3	4	-1E+10	1	-1E+10	1	-1E+10	1	-1E+10	1	-1E+10	1	-1E+10	1
4902642	35	C	06/05/2025	01:01	-131.383	46.099	0	3.60	0	12.0100	0	32.3550	0	24.534	0	3.570	0	247.5	4	92.3	4	-1E+10	1	-1E+10	1	-1E+10	1	-1E+10	1	-1E+10	1	-1E+10	1
4902642	35	C	06/05/2025	01:01	-131.383	46.099	0	4.50	0	12.0090	0	32.3560	0	24.535	0	4.463	0	247.5	4	92.3	4	-1E+10	1	-1E+10	1	-1E+10	1	-1E+10	1	-1E+10	1	-1E+10	1
4902642	35	C	06/05/2025	01:01	-131.383	46.099	0	5.50	0	12.0090	0	32.3560	0	24.535	0	5.455	0	247.5	4	92.3	4	-1E+10	1	-1E+10	1	-1E+10	1	-1E+10	1	-1E+10	1	-1E+10	1
4902642	35	C	06/05/2025	01:01	-131.383	46.099	0	6.70	0	12.0110	0	32.3560	0	24.535	0	6.645	0	247.4	4	92.3	4	-1E+10	1	-1E+10	1	-1E+10	1	-1E+10	1	-1E+10	1	-1E+10	1
4902642	35	C	06/05/2025	01:01	-131.383	46.099	0	7.50	0	12.0120	0	32.3570	0	24.536	0	7.438	0	247.4	4	92.3	4	-1E+10	1	-1E+10	1	-1E+10	1	-1E+10	1	-1E+10	1	-1E+10	1
4902642	35	C	06/05/2025	01:01	-131.383	46.099	0	8.40	0	12.0060	0	32.3590	0	24.538	0	8.331	0	247.3	4	92.2	4	-1E+10	1	-1E+10	1	-1E+10	1	-1E+10	1	-1E+10	1	-1E+10	1
4902642	35	C	06/05/2025	01:01	-131.383	46.099	0	9.60	0	12.0020	0	32.3560	0	24.537	0	9.521	0	247.4	4	92.3	4	-1E+10	1	-1E+10	1	-1E+10	1	-1E+10	1	-1E+10	1	-1E+10	1
4902642	35	C	06/05/2025	01:01	-131.383	46.099	0	14.70	0	12.0000	0	32.3570	0	24.538	0	14.579	0	247.3	4	92.2	4	-1E+10	1	-1E+10	1	-1E+10	1	-1E+10	1	-1E+10	1	-1E+10	1
4902642	35	C	06/05/2025	01:01	-131.383	46.099	0	25.10	0	11.9620	0	32.3560	0	24.544	0	24.892	0	247.3	4	92.1	4	-1E+10	1	-1E+10	1	-1E+10	1	-1E+10	1	-1E+10	1	-1E+10	1
4902642	35	C	06/05/2025	01:01	-131.383	46.099	0	34.90	0	11.8350	0	32.3510	0	24.564	0	34.610	0	248.1	4	92.2	4	-1E+10	1	-1E+10	1	-1E+10	1	-1E+10	1	-1E+10	1	-1E+10	1
4902642	35	C	06/05/2025	01:01	-131.383	46.099	0	45.00	0	10.9300	0	32.3600	0	24.734	0	44.625	0	253.2	4	92.3	4	-1E+10	1	-1E+10	1	-1E+10	1	-1E+10	1	-1E+10	1	-1E+10	1
4902642	35	C	06/05/2025	01:01	-131.383	46.099	0	54.70	0	10.1130	0	32.3710	0	24.882	0	54.243	0	255.8	4	91.6	4	-1E+10	1	-1E+10	1	-1E+10	1	-1E+10	1	-1E+10	1	-1E+10	1
4902642	35	C	06/05/2025	01:01	-131.383	46.099	0	64.80	0	9.6560	0	32.3880	0	24.971	0	64.257	0	255.2	4	90.5	4	-1E+10	1	-1E+10	1	-1E+10	1	-1E+10	1	-1E+10	1	-1E+10	1
4902642	35	C	06/05/2025	01:01	-131.383	46.099	0	75.00	0	9.4620	0	32.3830	0	24.998	0	74.370	0	253.1	4	89.4	4	-1E+10	1	-1E+10	1	-1E+10	1	-1E+10	1	-1E+10	1	-1E+10	1
4902642	35	C	06/05/2025	01:01	-131.383	46.099	0	85.00	0	9.1160	0	32.3790	0	25.050	0	84.284	0	250.8	4	87.9	4	-1E+10	1	-1E+10	1	-1E+10	1	-1E+10	1	-1E+10	1	-1E+10	1
4902642	35	C	06/05/2025	01:01	-131.383	46.099	0	94.60	0	8.9200	0	32.3820	0	25.083	0	93.801	0	246.2	4	85.9	4	-1E+10	1	-1E+10	1	-1E+10	1	-1E+10	1	-1E+10	1	-1E+10	1
4902642	35	C	06/05/2025	01:01	-131.383	46.099	0	104.90	0	8.7280	0	32.4380	0	25.156	0	104.011	0	233.5	4	81.2	4	-1E+10	1	-1E+10	1	-1E+10	1	-1E+10	1	-1E+10	1	-1E+10	1
4902642	35	C	06/05/2025	01:01	-131.383	46.099	0	114.80	0	8.5770	0	32.6720	0	25.363	0	113.825	0	216.6	4	75.2	4	-1E+10	1	-1E+10	1	-1E+10	1	-1E+10	1	-1E+10	1	-1E+10	1
4902642	35	C	06/05/2025	01:01	-131.383	46.099	0	124.90	0	8.2940	0	33.0450	0	25.697	0	123.836	0	199.7	4	69.1	4	-1E+10	1	-1E+10	1	-1E+10	1	-1E+10	1	-1E+10	1	-1E+10	1
4902642	35	C	06/05/2025	01:01	-131.383	46.099	0	134.50	0	7.7030	0	33.3110	0	25.993	0	133.351	0	183.3	4	62.7	4	-1E+10	1	-1E+10	1	-1E+10	1	-1E+10	1	-1E+10	1	-1E+10	1
4902642	35	C	06/05/2025	01:01	-131.383	46.099	0	144.70	0	7.1710	0	33.4890	0	26.207	0	143.461	0	173.6	4	58.7	4	-1E+10	1	-1E+10	1	-1E+10	1	-1E+10	1	-1E+10	1	-1E+10	1
4902642	35	C	06/05/2025	01:01	-131.383	46.099	0	155.10	0	7.0300	0	33.5880	0	26.305	0	153.768	0	165.3	4	55.8	4	-1E+10	1	-1E+10	1	-1E+10	1	-1E+10	1	-1E+10	1	-1E+10	1
4902642	35	C	06/05/2025	01:01	-131.383	46.099	0	164.80	0	6.8740	0	33.6470	0	26.372	0	163.380	0	162.2	4	54.6	4	-1E+10	1	-1E+10	1	-1E+10	1	-1E+10	1	-1E+10	1	-1E+10	1
4902642	35	C	06/05/2025	01:01	-131.383	46.099	0	174.90	0	6.7500	0	33.7010	0	26.432	0	173.389	0	157.5	4	52.9	4	-1E+10	1	-1E+10	1	-1E+10	1	-1E+10	1	-1E+10	1	-1E+10	1
4902642	35	C	06/05/2025	01:01	-131.383	46.099	0	185.00	0	6.6640	0	33.7340	0	26.469	0	183.397	0	153.3	4	51.3	4	-1E+10	1	-1E+10	1	-1E+10	1	-1E+10	1	-1E+10	1	-1E+10	1
4902642	35	C	06/05/2025	01:01	-131.383	46.099	0	195.20	0	6.5700	0	33.7600	0	26.502	0	193.504	0	147.0	4	49.2	4	-1E+10	1	-1E+10	1	-1E+10	1	-1E+10	1	-1E+10	1	-1E+10	1
4902642	35	C	06/05/2025	01:01	-131.383	46.099	0	210.10	0	6.4530	0	33.7820	0	26.535	0	208.267	0	137.4	4	45.8	4	-1E+10	1	-1E+10	1	-1E+10	1	-1E+10	1	-1E+10	1	-1E+10	1
4902642	35	C	06/05/2025	01:01	-131.383	46.099	0	230.00	0	6.2300	0	33.8060	0	26.583	0	227.983	0	124.2	4	41.2	4	-1E+10	1	-1E+10	1	-1E+10	1	-1E+10	1	-1E+10	1	-1E+10	1
4902642	35	C	06/05/2025	01:01	-131.383	46.099	0	249.90	0	6.0300	0	33.8200	0	26.619	0	247.696	0	113.8	4	37.6	4	-1E+10	1	-1E+10	1	-1E+10	1	-1E+10	1	-1E+10	1	-1E+10	1
4902642	35	C	06/05/2025	01:01	-131.383	46.099	0	270.80	0	5.8220	0	33.8350	0	26.657	0	268.399	0	101.7	4	33.5	4	-1E+10	1	-1E+10	1	-1E+10	1	-1E+10	1	-1E+10	1	-1E+10	1
4902642	35	C	06/05/2025	01:01	-131.383	46.099	0	289.90	0	5.6340	0	33.8510	0	26.693	0	287.316	0	90.6	4	29.7	4	-1E+10	1	-1E+10	1	-1E+10	1	-1E+10	1	-1E+10	1	-1E+10	1
4902642	35	C	06/05/2025	01:01	-131.383	46.099	0	309.90	0	5.4780	0	33.8640	0	26.722	0	307.123	0	83.3	4	27.2	4	-1E+10	1	-1E+10	1	-1E+10	1	-1E+10	1	-1E+10	1	-1E+10	1
4902642	35	C	06/05/2025	01:01	-131.383	46.099	0	329.60	0	5.3530	0	33.8730	0	26.744	0	326.631	0	77.1	4	25.1	4	-1E+10	1	-1E+10	1	-1E+10	1	-1E+10	1	-1E+10	1	-1E+10	1
4902642	35	C	06/05/2025	01:01	-131.383	46.099	0	349.60	0	5.0940	0	33.8790	0	26.779	0	346.434	0	72.6	4	23.5	4	-1E+10	1	-1E+10	1	-1E+10	1	-1E+10	1	-1E+10	1	-1E+10	1
4902642	35	C	06/05/2025	01:01	-131.383	46.099	0	369.80	0	4.9360	0	33.8910	0	26.807	0	366.433	0	67.4	4	21.7	4	-1E+10	1	-1E+10	1	-1E+10	1	-1E+10	1	-1E+10	1	-1E+10	1
4902642	35	C	06/05/2025	01:01	-131.383	46.099	0	389.90	0	4.8110	0	33.9070	0	26.833	0	386.331	0	62.5	4	20.1	4	-1E+10	1	-1E+10	1	-1E+10	1	-1E+10	1	-1E+10	1	-1E+10	1
4902642	35	C	06/05/2025	01:01	-131.383	46.099	0	410.30	0	4.7770	0	33.9280	0	26.854	0	406.525	0	57.3	4	18.4	4	-1E+10	1	-1E+10	1	-1E+10	1	-1E+10	1	-1E+10	1	-1E+10	1
4902642	35	C	06/05/2025	01:01	-131.383	46.099	0	430.00	0	4.6800	0	33.9480	0	26.881	0	426.023	0	52.8	4	16.9	4	-1E+10	1	-1E+10	1	-1E+10	1	-1E+10	1	-1E+10	1	-1E+10	1
4902642	35	C	06/05/2025	01:01	-131.383	46.099	0	450.00	0	4.6310	0	33.9670	0	26.901	0	445.817	0	47.9	4	15.3	4	-1E+10	1	-1E+10	1	-1E+10	1	-1E+10	1	-1E+10	1	-1E+10	1
4902642	35	C	06/05/2025	01:01	-131.383	46.099	0	470.20	0	4.6050	0	33.9990	0	26.930	0	465.806	0	40.6	4	13.0	4	-1E+10	1	-1E+10	1	-1E+10	1	-1E+10	1	-1E+10	1	-1E+10	1
4902642	35	C	06/05/2025	01:01	-131.383	46.099	0	490.30	0	4.5630	0	34.0220	0	26.953	0	485.695	0	35.5	4	11.3	4	-1E+10	1	-1E+10	1	-1E+10	1	-1E+10	1	-1E+10	1	-1E+10	1
4902642	35	C	06/05/2025	01:01	-131.383	46.099	0	510.30	0	4.5460	0	34.0440	0	26.972	0	505.483	0	30.6	4	9.8	4	-1E+10	1	-1E+10	1	-1E+10	1	-1E+10	1	-1E+10	1	-1E+10	1
4902642	35	C	06/05/2025	01:01	-131.383	46.099	0	530.00	0	4.5040	0	34.0660	0	26.994	0	524.972	0	26.1	4	8.3	4	-1E+10	1	-1E+10	1	-1E+10	1	-1E+10	1	-1E+10	1	-1E+10	1
4902642	35	C	06/05/2025	01:01	-131.383	46.099	0	549.60	0	4.4690	0	34.0840	0	27.013	0	544.361	0	22.7	4	7.2	4	-1E+10	1	-1E+10	1	-1E+10	1	-1E+10	1	-1E+10	1	-1E+10	1
4902642	35	C	06/05/2025	01:01	-131.383	46.099	0	570.40	0	4.4290	0	34.1080	0	27.036	0	564.934	0	19.2	4	6.1	4	-1E+10	1	-1E+10	1	-1E+10	1	-1E+10	1	-1E+10	1	-1E+10	1
4902642	35	C	06/05/2025	01:01	-131.383	46.099	0	590.20	0	4.3540	0	34.1220	0	27.055	0	584.517	0	17.3	4	5.5	4	-1E+10	1	-1E+10	1	-1E+10	1	-1E+10	1	-1E+10	1	-1E+10	1
4902642	35	C	06/05/2025	01:01	-131.383	46.099	0	610.30	0	4.3270	0	34.1440	0	27.076	0	604.394	0	14.6	4	4.6	4	-1E+10	1	-1E+10	1	-1E+10	1	-1E+10	1	-1E+10	1	-1E+10	1
4902642	35	C	06/05/2025	01:01	-131.383	46.099	0	630.10	0	4.2840	0	34.1580	0	27.092	0	623.973	0	13.2	4	4.2	4	-1E+10	1	-1E+10	1	-1E+10	1	-1E+10	1	-1E+10	1	-1E+10	1
4902642	35	C	06/05/2025	01:01	-131.383	46.099	0	650.30	0	4.2220	0	34.1720	0	27.110	0	643.945	0	12.0	4	3.8	4	-1E+10	1	-1E+10	1	-1E+10	1	-1E+10	1	-1E+10	1	-1E+10	1
4902642	35	C	06/05/2025	01:01	-131.383	46.099	0	670.00	0	4.1610	0	34.1860	0	27.127	0	663.421	0	11.0	4	3.5	4	-1E+10	1	-1E+10	1	-1E+10	1	-1E+10	1	-1E+10	1	-1E+10	1
4902642	35	C	06/05/2025	01:01	-131.383	46.099	0	689.90	0	4.1100	0	34.1980	0	27.142	0	683.093	0	10.0	4	3.2	4	-1E+10	1	-1E+10	1	-1E+10	1	-1E+10	1	-1E+10	1	-1E+10	1
4902642	35	C	06/05/2025	01:01	-131.383	46.099	0	710.10	0	4.0580	0	34.2140	0	27.160	0	703.060	0	9.0	4	2.8	4	-1E+10	1	-1E+10	1	-1E+10	1	-1E+10	1	-1E+10	1	-1E+10	1
4902642	35	C	06/05/2025	01:01	-131.383	46.099	0	730.10	0	3.9790	0	34.2310	0	27.182	0	722.827	0	8.1	4	2.6	4	-1E+10	1	-1E+10	1	-1E+10	1	-1E+10	1	-1E+10	1	-1E+10	1
4902642	35	C	06/05/2025	01:01	-131.383	46.099	0	750.10	0	3.8740	0	34.2450	0	27.204	0	742.592	0	7.7	4	2.4	4	-1E+10	1	-1E+10	1	-1E+10	1	-1E+10	1	-1E+10	1	-1E+10	1
4902642	35	C	06/05/2025	01:01	-131.383	46.099	0	770.70	0	3.7850	0	34.2570	0	27.223	0	762.948	0	7.3	4	2.3	4	-1E+10	1	-1E+10	1	-1E+10	1	-1E+10	1	-1E+10	1	-1E+10	1
4902642	35	C	06/05/2025	01:01	-131.383	46.099	0	789.80	0	3.7410	0	34.2700	0	27.237	0	781.820	0	6.7	4	2.1	4	-1E+10	1	-1E+10	1	-1E+10	1	-1E+10	1	-1E+10	1	-1E+10	1
4902642	35	C	06/05/2025	01:01	-131.383	46.099	0	809.60	0	3.7170	0	34.2900	0	27.256	0	801.382	0	6.0	4	1.9	4	-1E+10	1	-1E+10	1	-1E+10	1	-1E+10	1	-1E+10	1	-1E+10	1
4902642	35	C	06/05/2025	01:01	-131.383	46.099	0	830.30	0	3.6840	0	34.3080	0	27.274	0	821.831	0	5.6	4	1.8	4	-1E+10	1	-1E+10	1	-1E+10	1	-1E+10	1	-1E+10	1	-1E+10	1
4902642	35	C	06/05/2025	01:01	-131.383	46.099	0	850.00	0	3.6800	0	34.3240	0	27.287	0	841.291	0	5.3	4	1.7	4	-1E+10	1	-1E+10	1	-1E+10	1	-1E+10	1	-1E+10	1	-1E+10	1
4902642	35	C	06/05/2025	01:01	-131.383	46.099	0	870.00	0	3.6600	0	34.3380	0	27.300	0	861.045	0	5.3	4	1.7	4	-1E+10	1	-1E+10	1	-1E+10	1	-1E+10	1	-1E+10	1	-1E+10	1
4902642	35	C	06/05/2025	01:01	-131.383	46.099	0	890.00	0	3.6400	0	34.3460	0	27.309	0	880.797	0	5.3	4	1.7	4	-1E+10	1	-1E+10	1	-1E+10	1	-1E+10	1	-1E+10	1	-1E+10	1
4902642	35	C	06/05/2025	01:01	-131.383	46.099	0	910.10	0	3.6100	0	34.3570	0	27.320	0	900.646	0	5.4	4	1.7	4	-1E+10	1	-1E+10	1	-1E+10	1	-1E+10	1	-1E+10	1	-1E+10	1
4902642	35	C	06/05/2025	01:01	-131.383	46.099	0	930.60	0	3.5350	0	34.3620	0	27.332	0	920.888	0	5.5	4	1.7	4	-1E+10	1	-1E+10	1	-1E+10	1	-1E+10	1	-1E+10	1	-1E+10	1
4902642	35	C	06/05/2025	01:01	-131.383	46.099	0	949.90	0	3.5150	0	34.3710	0	27.341	0	939.943	0	5.7	4	1.8	4	-1E+10	1	-1E+10	1	-1E+10	1	-1E+10	1	-1E+10	1	-1E+10	1
4902642	35	C	06/05/2025	01:01	-131.383	46.099	0	970.20	0	3.4950	0	34.3840	0	27.354	0	959.984	0	6.0	4	1.9	4	-1E+10	1	-1E+10	1	-1E+10	1	-1E+10	1	-1E+10	1	-1E+10	1
4902642	35	C	06/05/2025	01:01	-131.383	46.099	0	990.20	0	3.4670	0	34.3910	0	27.362	0	979.726	0	6.2	4	1.9	4	-1E+10	1	-1E+10	1	-1E+10	1	-1E+10	1	-1E+10	1	-1E+10	1
4902642	35	C	06/05/2025	01:01	-131.383	46.099	0	1009.90	0	3.4460	0	34.3960	0	27.368	0	999.171	0	6.5	4	2.0	4	-1E+10	1	-1E+10	1	-1E+10	1	-1E+10	1	-1E+10	1	-1E+10	1
4902642	35	C	06/05/2025	01:01	-131.383	46.099	0	1029.80	0	3.4120	0	34.4040	0	27.378	0	1018.811	0	6.8	4	2.1	4	-1E+10	1	-1E+10	1	-1E+10	1	-1E+10	1	-1E+10	1	-1E+10	1
4902642	35	C	06/05/2025	01:01	-131.383	46.099	0	1049.90	0	3.3730	0	34.4080	0	27.385	0	1038.647	0	7.1	4	2.2	4	-1E+10	1	-1E+10	1	-1E+10	1	-1E+10	1	-1E+10	1	-1E+10	1
4902642	35	C	06/05/2025	01:01	-131.383	46.099	0	1069.90	0	3.3450	0	34.4150	0	27.393	0	1058.382	0	7.5	4	2.3	4	-1E+10	1	-1E+10	1	-1E+10	1	-1E+10	1	-1E+10	1	-1E+10	1
4902642	35	C	06/05/2025	01:01	-131.383	46.099	0	1089.80	0	3.2960	0	34.4230	0	27.404	0	1078.017	0	8.0	4	2.5	4	-1E+10	1	-1E+10	1	-1E+10	1	-1E+10	1	-1E+10	1	-1E+10	1
4902642	35	C	06/05/2025	01:01	-131.383	46.099	0	1110.00	0	3.2640	0	34.4280	0	27.411	0	1097.946	0	8.3	4	2.6	4	-1E+10	1	-1E+10	1	-1E+10	1	-1E+10	1	-1E+10	1	-1E+10	1
4902642	35	C	06/05/2025	01:01	-131.383	46.099	0	1130.20	0	3.2100	0	34.4350	0	27.422	0	1117.873	0	8.9	4	2.7	4	-1E+10	1	-1E+10	1	-1E+10	1	-1E+10	1	-1E+10	1	-1E+10	1
4902642	35	C	06/05/2025	01:01	-131.383	46.099	0	1150.10	0	3.1690	0	34.4390	0	27.429	0	1137.502	0	9.3	4	2.9	4	-1E+10	1	-1E+10	1	-1E+10	1	-1E+10	1	-1E+10	1	-1E+10	1
4902642	35	C	06/05/2025	01:01	-131.383	46.099	0	1169.90	0	3.1190	0	34.4450	0	27.439	0	1157.030	0	9.8	4	3.0	4	-1E+10	1	-1E+10	1	-1E+10	1	-1E+10	1	-1E+10	1	-1E+10	1
4902642	35	C	06/05/2025	01:01	-131.383	46.099	0	1190.50	0	3.0700	0	34.4510	0	27.448	0	1177.346	0	10.4	4	3.2	4	-1E+10	1	-1E+10	1	-1E+10	1	-1E+10	1	-1E+10	1	-1E+10	1
4902642	35	C	06/05/2025	01:01	-131.383	46.099	0	1209.70	0	3.0350	0	34.4550	0	27.455	0	1196.279	0	10.8	4	3.3	4	-1E+10	1	-1E+10	1	-1E+10	1	-1E+10	1	-1E+10	1	-1E+10	1
4902642	35	C	06/05/2025	01:01	-131.383	46.099	0	1229.80	0	2.9870	0	34.4600	0	27.463	0	1216.098	0	11.5	4	3.6	4	-1E+10	1	-1E+10	1	-1E+10	1	-1E+10	1	-1E+10	1	-1E+10	1
4902642	35	C	06/05/2025	01:01	-131.383	46.099	0	1250.40	0	2.9470	0	34.4650	0	27.471	0	1236.408	0	12.1	4	3.7	4	-1E+10	1	-1E+10	1	-1E+10	1	-1E+10	1	-1E+10	1	-1E+10	1
4902642	35	C	06/05/2025	01:01	-131.383	46.099	0	1269.90	0	2.9070	0	34.4690	0	27.478	0	1255.632	0	12.8	4	3.9	4	-1E+10	1	-1E+10	1	-1E+10	1	-1E+10	1	-1E+10	1	-1E+10	1
4902642	35	C	06/05/2025	01:01	-131.383	46.099	0	1289.80	0	2.8680	0	34.4740	0	27.485	0	1275.248	0	13.4	4	4.1	4	-1E+10	1	-1E+10	1	-1E+10	1	-1E+10	1	-1E+10	1	-1E+10	1
4902642	35	C	06/05/2025	01:01	-131.383	46.099	0	1309.90	0	2.8500	0	34.4760	0	27.488	0	1295.060	0	13.7	4	4.2	4	-1E+10	1	-1E+10	1	-1E+10	1	-1E+10	1	-1E+10	1	-1E+10	1
4902642	35	C	06/05/2025	01:01	-131.383	46.099	0	1330.00	0	2.8350	0	34.4780	0	27.492	0	1314.869	0	14.2	4	4.4	4	-1E+10	1	-1E+10	1	-1E+10	1	-1E+10	1	-1E+10	1	-1E+10	1
4902642	35	C	06/05/2025	01:01	-131.383	46.099	0	1349.90	0	2.7860	0	34.4850	0	27.501	0	1334.480	0	15.3	4	4.7	4	-1E+10	1	-1E+10	1	-1E+10	1	-1E+10	1	-1E+10	1	-1E+10	1
4902642	35	C	06/05/2025	01:01	-131.383	46.099	0	1370.40	0	2.7510	0	34.4880	0	27.507	0	1354.680	0	16.0	4	4.9	4	-1E+10	1	-1E+10	1	-1E+10	1	-1E+10	1	-1E+10	1	-1E+10	1
4902642	35	C	06/05/2025	01:01	-131.383	46.099	0	1390.10	0	2.7300	0	34.4920	0	27.512	0	1374.090	0	16.6	4	5.1	4	-1E+10	1	-1E+10	1	-1E+10	1	-1E+10	1	-1E+10	1	-1E+10	1
4902642	35	C	06/05/2025	01:01	-131.383	46.099	0	1409.90	0	2.6910	0	34.4970	0	27.520	0	1393.596	0	17.7	4	5.4	4	-1E+10	1	-1E+10	1	-1E+10	1	-1E+10	1	-1E+10	1	-1E+10	1
4902642	35	C	06/05/2025	01:01	-131.383	46.099	0	1429.90	0	2.6580	0	34.5000	0	27.525	0	1413.298	0	18.7	4	5.7	4	-1E+10	1	-1E+10	1	-1E+10	1	-1E+10	1	-1E+10	1	-1E+10	1
4902642	35	C	06/05/2025	01:01	-131.383	46.099	0	1450.00	0	2.6060	0	34.5070	0	27.535	0	1433.096	0	20.2	4	6.2	4	-1E+10	1	-1E+10	1	-1E+10	1	-1E+10	1	-1E+10	1	-1E+10	1
4902642	35	C	06/05/2025	01:01	-131.383	46.099	0	1470.00	0	2.5690	0	34.5110	0	27.542	0	1452.795	0	21.3	4	6.5	4	-1E+10	1	-1E+10	1	-1E+10	1	-1E+10	1	-1E+10	1	-1E+10	1
4902642	35	C	06/05/2025	01:01	-131.383	46.099	0	1489.60	0	2.5230	0	34.5150	0	27.549	0	1472.097	0	22.5	4	6.9	4	-1E+10	1	-1E+10	1	-1E+10	1	-1E+10	1	-1E+10	1	-1E+10	1
4902642	35	C	06/05/2025	01:01	-131.383	46.099	0	1509.50	0	2.4760	0	34.5200	0	27.557	0	1491.693	0	23.9	4	7.3	4	-1E+10	1	-1E+10	1	-1E+10	1	-1E+10	1	-1E+10	1	-1E+10	1
4902642	35	C	06/05/2025	01:01	-131.383	46.099	0	1530.20	0	2.4390	0	34.5250	0	27.564	0	1512.075	0	25.2	4	7.7	4	-1E+10	1	-1E+10	1	-1E+10	1	-1E+10	1	-1E+10	1	-1E+10	1
4902642	35	C	06/05/2025	01:01	-131.383	46.099	0	1549.90	0	2.4040	0	34.5290	0	27.570	0	1531.470	0	26.4	4	8.0	4	-1E+10	1	-1E+10	1	-1E+10	1	-1E+10	1	-1E+10	1	-1E+10	1
4902642	35	C	06/05/2025	01:01	-131.383	46.099	0	1570.20	0	2.3750	0	34.5320	0	27.575	0	1551.454	0	27.6	4	8.4	4	-1E+10	1	-1E+10	1	-1E+10	1	-1E+10	1	-1E+10	1	-1E+10	1
4902642	35	C	06/05/2025	01:01	-131.383	46.099	0	1590.10	0	2.3420	0	34.5360	0	27.581	0	1571.043	0	28.7	4	8.7	4	-1E+10	1	-1E+10	1	-1E+10	1	-1E+10	1	-1E+10	1	-1E+10	1
4902642	35	C	06/05/2025	01:01	-131.383	46.099	0	1610.10	0	2.3250	0	34.5390	0	27.585	0	1590.728	0	29.6	4	9.0	4	-1E+10	1	-1E+10	1	-1E+10	1	-1E+10	1	-1E+10	1	-1E+10	1
4902642	35	C	06/05/2025	01:01	-131.383	46.099	0	1630.40	0	2.2920	0	34.5430	0	27.591	0	1610.707	0	31.2	4	9.5	4	-1E+10	1	-1E+10	1	-1E+10	1	-1E+10	1	-1E+10	1	-1E+10	1
4902642	35	C	06/05/2025	01:01	-131.383	46.099	0	1649.80	0	2.2590	0	34.5470	0	27.597	0	1629.798	0	32.6	4	9.9	4	-1E+10	1	-1E+10	1	-1E+10	1	-1E+10	1	-1E+10	1	-1E+10	1
4902642	35	C	06/05/2025	01:01	-131.383	46.099	0	1669.90	0	2.2320	0	34.5510	0	27.602	0	1649.576	0	33.7	4	10.2	4	-1E+10	1	-1E+10	1	-1E+10	1	-1E+10	1	-1E+10	1	-1E+10	1
4902642	35	C	06/05/2025	01:01	-131.383	46.099	0	1690.10	0	2.2120	0	34.5530	0	27.606	0	1669.451	0	34.8	4	10.5	4	-1E+10	1	-1E+10	1	-1E+10	1	-1E+10	1	-1E+10	1	-1E+10	1
4902642	35	C	06/05/2025	01:01	-131.383	46.099	0	1710.30	0	2.1890	0	34.5570	0	27.611	0	1689.323	0	35.8	4	10.9	4	-1E+10	1	-1E+10	1	-1E+10	1	-1E+10	1	-1E+10	1	-1E+10	1
4902642	35	C	06/05/2025	01:01	-131.383	46.099	0	1730.60	0	2.1740	0	34.5590	0	27.614	0	1709.293	0	36.7	4	11.1	4	-1E+10	1	-1E+10	1	-1E+10	1	-1E+10	1	-1E+10	1	-1E+10	1
4902642	35	C	06/05/2025	01:01	-131.383	46.099	0	1750.20	0	2.1530	0	34.5610	0	27.617	0	1728.572	0	37.8	4	11.4	4	-1E+10	1	-1E+10	1	-1E+10	1	-1E+10	1	-1E+10	1	-1E+10	1
4902642	35	C	06/05/2025	01:01	-131.383	46.099	0	1769.90	0	2.1310	0	34.5640	0	27.621	0	1747.947	0	38.8	4	11.7	4	-1E+10	1	-1E+10	1	-1E+10	1	-1E+10	1	-1E+10	1	-1E+10	1
4902642	35	C	06/05/2025	01:01	-131.383	46.099	0	1789.60	0	2.1150	0	34.5670	0	27.625	0	1767.321	0	39.8	4	12.0	4	-1E+10	1	-1E+10	1	-1E+10	1	-1E+10	1	-1E+10	1	-1E+10	1
4902642	35	C	06/05/2025	01:01	-131.383	46.099	0	1809.70	0	2.0970	0	34.5700	0	27.629	0	1787.086	0	40.8	4	12.3	4	-1E+10	1	-1E+10	1	-1E+10	1	-1E+10	1	-1E+10	1	-1E+10	1
4902642	35	C	06/05/2025	01:01	-131.383	46.099	0	1830.20	0	2.0820	0	34.5720	0	27.632	0	1807.243	0	41.8	4	12.6	4	-1E+10	1	-1E+10	1	-1E+10	1	-1E+10	1	-1E+10	1	-1E+10	1
4902642	35	C	06/05/2025	01:01	-131.383	46.099	0	1850.20	0	2.0610	0	34.5740	0	27.635	0	1826.906	0	43.1	4	13.0	4	-1E+10	1	-1E+10	1	-1E+10	1	-1E+10	1	-1E+10	1	-1E+10	1
4902642	35	C	06/05/2025	01:01	-131.383	46.099	0	1870.20	0	2.0410	0	34.5780	0	27.640	0	1846.567	0	44.5	4	13.4	4	-1E+10	1	-1E+10	1	-1E+10	1	-1E+10	1	-1E+10	1	-1E+10	1
4902642	35	C	06/05/2025	01:01	-131.383	46.099	0	1890.30	0	2.0210	0	34.5810	0	27.644	0	1866.325	0	45.7	4	13.8	4	-1E+10	1	-1E+10	1	-1E+10	1	-1E+10	1	-1E+10	1	-1E+10	1
4902642	35	C	06/05/2025	01:01	-131.383	46.099	0	1910.20	0	2.0030	0	34.5830	0	27.647	0	1885.885	0	46.8	4	14.1	4	-1E+10	1	-1E+10	1	-1E+10	1	-1E+10	1	-1E+10	1	-1E+10	1
4902642	35	C	06/05/2025	01:01	-131.383	46.099	0	1930.20	0	1.9890	0	34.5850	0	27.650	0	1905.541	0	47.8	4	14.4	4	-1E+10	1	-1E+10	1	-1E+10	1	-1E+10	1	-1E+10	1	-1E+10	1
4902642	35	C	06/05/2025	01:01	-131.383	46.099	0	1950.00	0	1.9740	0	34.5880	0	27.654	0	1924.998	0	48.8	4	14.7	4	-1E+10	1	-1E+10	1	-1E+10	1	-1E+10	1	-1E+10	1	-1E+10	1
4902642	35	C	06/05/2025	01:01	-131.383	46.099	0	1969.60	0	1.9620	0	34.5900	0	27.657	0	1944.258	0	49.6	4	14.9	4	-1E+10	1	-1E+10	1	-1E+10	1	-1E+10	1	-1E+10	1	-1E+10	1
4902642	35	C	06/05/2025	01:01	-131.383	46.099	0	1989.80	0	1.9540	0	34.5910	0	27.658	0	1964.105	0	50.3	4	15.2	4	-1E+10	1	-1E+10	1	-1E+10	1	-1E+10	1	-1E+10	1	-1E+10	1
4902642	35	C	06/05/2025	01:01	-131.383	46.099	0	2009.90	0	1.9420	0	34.5940	4	27.662	0	1983.852	0	51.2	4	15.4	4	-1E+10	1	-1E+10	1	-1E+10	1	-1E+10	1	-1E+10	1	-1E+10	1
4902642	35	C	06/05/2025	01:01	-131.383	46.099	0	2029.80	0	1.9350	0	34.5950	4	27.663	0	2003.400	0	52.0	4	15.6	4	-1E+10	1	-1E+10	1	-1E+10	1	-1E+10	1	-1E+10	1	-1E+10	1
4902642	35	C	06/05/2025	01:01	-131.383	46.099	0	2049.70	0	1.9230	0	34.5970	4	27.666	0	2022.947	0	52.9	4	15.9	4	-1E+10	1	-1E+10	1	-1E+10	1	-1E+10	1	-1E+10	1	-1E+10	1
4902642	35	C	06/05/2025	01:01	-131.383	46.099	0	2069.80	0	1.9140	0	34.5990	4	27.668	0	2042.689	0	53.8	4	16.2	4	-1E+10	1	-1E+10	1	-1E+10	1	-1E+10	1	-1E+10	1	-1E+10	1
4902642	35	C	06/05/2025	01:01	-131.383	46.099	0	2089.80	0	1.9050	0	34.6010	4	27.670	0	2062.330	0	54.6	4	16.4	4	-1E+10	1	-1E+10	1	-1E+10	1	-1E+10	1	-1E+10	1	-1E+10	1
4902642	35	C	06/05/2025	01:01	-131.383	46.099	0	2109.70	0	1.8980	0	34.6030	4	27.673	0	2081.871	0	55.3	4	16.6	4	-1E+10	1	-1E+10	1	-1E+10	1	-1E+10	1	-1E+10	1	-1E+10	1
4902642	35	C	06/05/2025	01:01	-131.383	46.099	0	2129.70	0	1.8920	0	34.6040	4	27.674	0	2101.509	0	55.8	4	16.8	4	-1E+10	1	-1E+10	1	-1E+10	1	-1E+10	1	-1E+10	1	-1E+10	1
4902642	35	C	06/05/2025	01:01	-131.383	46.099	0	2149.80	0	1.8890	0	34.6050	4	27.675	0	2121.244	0	56.3	4	16.9	4	-1E+10	1	-1E+10	1	-1E+10	1	-1E+10	1	-1E+10	1	-1E+10	1
4902642	35	C	06/05/2025	01:01	-131.383	46.099	0	2169.80	0	1.8830	0	34.6060	4	27.677	0	2140.878	0	56.9	4	17.1	4	-1E+10	1	-1E+10	1	-1E+10	1	-1E+10	1	-1E+10	1	-1E+10	1
4902642	35	C	06/05/2025	01:01	-131.383	46.099	0	2190.40	0	1.8790	0	34.6070	4	27.678	0	2161.099	0	57.3	4	17.2	4	-1E+10	1	-1E+10	1	-1E+10	1	-1E+10	1	-1E+10	1	-1E+10	1
4902642	35	C	06/05/2025	01:01	-131.383	46.099	0	2210.00	0	1.8730	0	34.6080	4	27.679	0	2180.337	0	57.9	4	17.4	4	-1E+10	1	-1E+10	1	-1E+10	1	-1E+10	1	-1E+10	1	-1E+10	1
4902642	35	C	06/05/2025	01:01	-131.383	46.099	0	2230.30	0	1.8680	0	34.6090	4	27.681	0	2200.260	0	58.5	4	17.6	4	-1E+10	1	-1E+10	1	-1E+10	1	-1E+10	1	-1E+10	1	-1E+10	1
4902642	35	C	06/05/2025	01:01	-131.383	46.099	0	2250.00	0	1.8640	0	34.6100	4	27.682	0	2219.593	0	59.0	4	17.7	4	-1E+10	1	-1E+10	1	-1E+10	1	-1E+10	1	-1E+10	1	-1E+10	1
4902642	35	C	06/05/2025	01:01	-131.383	46.099	0	2269.60	0	1.8570	0	34.6120	4	27.684	0	2238.826	0	59.7	4	17.9	4	-1E+10	1	-1E+10	1	-1E+10	1	-1E+10	1	-1E+10	1	-1E+10	1
4902642	35	C	06/05/2025	01:01	-131.383	46.099	0	2289.60	0	1.8520	0	34.6130	4	27.685	0	2258.449	0	60.2	4	18.1	4	-1E+10	1	-1E+10	1	-1E+10	1	-1E+10	1	-1E+10	1	-1E+10	1
4902642	35	C	06/05/2025	01:01	-131.383	46.099	0	2310.30	0	1.8480	0	34.6140	4	27.687	0	2278.757	0	60.7	4	18.2	4	-1E+10	1	-1E+10	1	-1E+10	1	-1E+10	1	-1E+10	1	-1E+10	1
4902642	35	C	06/05/2025	01:01	-131.383	46.099	0	2329.70	0	1.8420	0	34.6150	4	27.688	0	2297.788	0	61.3	4	18.4	4	-1E+10	1	-1E+10	1	-1E+10	1	-1E+10	1	-1E+10	1	-1E+10	1
4902642	35	C	06/05/2025	01:01	-131.383	46.099	0	2350.00	0	1.8390	0	34.6150	4	27.688	0	2317.701	0	61.7	4	18.5	4	-1E+10	1	-1E+10	1	-1E+10	1	-1E+10	1	-1E+10	1	-1E+10	1
4902642	35	C	06/05/2025	01:01	-131.383	46.099	0	2370.10	0	1.8370	0	34.6160	4	27.689	0	2337.415	0	62.1	4	18.7	4	-1E+10	1	-1E+10	1	-1E+10	1	-1E+10	1	-1E+10	1	-1E+10	1
4902642	35	C	06/05/2025	01:01	-131.383	46.099	0	2389.80	0	1.8320	0	34.6170	4	27.691	0	2356.735	0	62.6	4	18.8	4	-1E+10	1	-1E+10	1	-1E+10	1	-1E+10	1	-1E+10	1	-1E+10	1
4902642	35	C	06/05/2025	01:01	-131.383	46.099	0	2409.90	0	1.8280	0	34.6180	4	27.692	0	2376.446	0	63.1	4	19.0	4	-1E+10	1	-1E+10	1	-1E+10	1	-1E+10	1	-1E+10	1	-1E+10	1
4902642	35	C	06/05/2025	01:01	-131.383	46.099	0	2430.00	0	1.8220	0	34.6190	4	27.693	0	2396.155	0	63.9	4	19.2	4	-1E+10	1	-1E+10	1	-1E+10	1	-1E+10	1	-1E+10	1	-1E+10	1
4902642	35	C	06/05/2025	01:01	-131.383	46.099	0	2450.10	0	1.8160	0	34.6200	4	27.695	0	2415.862	0	64.5	4	19.4	4	-1E+10	1	-1E+10	1	-1E+10	1	-1E+10	1	-1E+10	1	-1E+10	1
4902642	35	C	06/05/2025	01:01	-131.383	46.099	0	2470.50	0	1.8120	0	34.6210	4	27.696	0	2435.861	0	65.0	4	19.5	4	-1E+10	1	-1E+10	1	-1E+10	1	-1E+10	1	-1E+10	1	-1E+10	1
4902642	35	C	06/05/2025	01:01	-131.383	46.099	0	2489.80	0	1.8080	0	34.6220	4	27.697	0	2454.780	0	65.5	4	19.7	4	-1E+10	1	-1E+10	1	-1E+10	1	-1E+10	1	-1E+10	1	-1E+10	1
4902642	35	C	06/05/2025	01:01	-131.383	46.099	0	2510.10	0	1.8020	0	34.6230	4	27.698	0	2474.678	0	66.2	4	19.9	4	-1E+10	1	-1E+10	1	-1E+10	1	-1E+10	1	-1E+10	1	-1E+10	1
4902642	35	C	06/05/2025	01:01	-131.383	46.099	0	2530.10	0	1.7970	0	34.6240	4	27.700	0	2494.280	0	66.7	4	20.0	4	-1E+10	1	-1E+10	1	-1E+10	1	-1E+10	1	-1E+10	1	-1E+10	1
4902642	35	C	06/05/2025	01:01	-131.383	46.099	0	2549.90	0	1.7890	0	34.6230	4	27.700	0	2513.684	0	66.9	4	20.1	4	-1E+10	1	-1E+10	1	-1E+10	1	-1E+10	1	-1E+10	1	-1E+10	1
4902642	35	C	06/05/2025	01:01	-131.383	46.099	0	2570.10	0	1.7800	0	34.6240	4	27.701	0	2533.478	0	67.5	4	20.3	4	-1E+10	1	-1E+10	1	-1E+10	1	-1E+10	1	-1E+10	1	-1E+10	1
4902642	35	C	06/05/2025	01:01	-131.383	46.099	0	2590.40	0	1.7740	0	34.6250	4	27.703	0	2553.368	0	68.5	4	20.6	4	-1E+10	1	-1E+10	1	-1E+10	1	-1E+10	1	-1E+10	1	-1E+10	1
4902642	35	C	06/05/2025	01:01	-131.383	46.099	0	2610.20	0	1.7680	0	34.6270	4	27.705	0	2572.767	0	69.1	4	20.7	4	-1E+10	1	-1E+10	1	-1E+10	1	-1E+10	1	-1E+10	1	-1E+10	1
4902642	35	C	06/05/2025	01:01	-131.383	46.099	0	2630.10	0	1.7640	0	34.6270	4	27.705	0	2592.262	0	69.9	4	20.9	4	-1E+10	1	-1E+10	1	-1E+10	1	-1E+10	1	-1E+10	1	-1E+10	1
4902642	35	C	06/05/2025	01:01	-131.383	46.099	0	2650.00	0	1.7560	0	34.6290	4	27.708	0	2611.755	0	70.9	4	21.3	4	-1E+10	1	-1E+10	1	-1E+10	1	-1E+10	1	-1E+10	1	-1E+10	1
4902642	35	C	06/05/2025	01:01	-131.383	46.099	0	2670.00	0	1.7500	0	34.6300	4	27.709	0	2631.345	0	72.0	4	21.6	4	-1E+10	1	-1E+10	1	-1E+10	1	-1E+10	1	-1E+10	1	-1E+10	1
4902642	35	C	06/05/2025	01:01	-131.383	46.099	0	2689.70	0	1.7360	0	34.6320	4	27.712	0	2650.638	0	73.5	4	22.0	4	-1E+10	1	-1E+10	1	-1E+10	1	-1E+10	1	-1E+10	1	-1E+10	1
4902642	35	C	06/05/2025	01:01	-131.383	46.099	0	2709.60	0	1.7240	0	34.6340	4	27.714	0	2670.126	0	74.7	4	22.4	4	-1E+10	1	-1E+10	1	-1E+10	1	-1E+10	1	-1E+10	1	-1E+10	1
4902642	35	C	06/05/2025	01:01	-131.383	46.099	0	2729.90	0	1.7130	0	34.6350	4	27.716	0	2690.004	0	75.7	4	22.7	4	-1E+10	1	-1E+10	1	-1E+10	1	-1E+10	1	-1E+10	1	-1E+10	1
4902642	35	C	06/05/2025	01:01	-131.383	46.099	0	2750.70	0	1.7030	0	34.6360	4	27.718	0	2710.370	0	77.0	4	23.0	4	-1E+10	1	-1E+10	1	-1E+10	1	-1E+10	1	-1E+10	1	-1E+10	1
4902642	35	C	06/05/2025	01:01	-131.383	46.099	0	2770.00	0	1.6860	0	34.6380	4	27.721	0	2729.265	0	78.4	4	23.5	4	-1E+10	1	-1E+10	1	-1E+10	1	-1E+10	1	-1E+10	1	-1E+10	1
4902642	35	C	06/05/2025	01:01	-131.383	46.099	0	2786.10	0	1.6780	0	34.6390	4	27.722	0	2745.026	0	78.8	4	23.6	4	-1E+10	1	-1E+10	1	-1E+10	1	-1E+10	1	-1E+10	1	-1E+10	1
4902642	35	C	06/05/2025	01:01	-131.383	46.099	0	2792.60	0	1.6780	0	34.6390	4	27.722	0	2751.389	0	78.9	4	23.6	4	-1E+10	1	-1E+10	1	-1E+10	1	-1E+10	1	-1E+10	1	-1E+10	1
4902642	35	C	06/05/2025	01:01	-131.383	46.099	0	2793.40	0	1.6780	0	34.6400	4	27.723	0	2752.172	0	78.9	4	23.6	4	-1E+10	1	-1E+10	1	-1E+10	1	-1E+10	1	-1E+10	1	-1E+10	1
4902642	35	C	06/05/2025	01:01	-131.383	46.099	0	2794.40	0	1.6780	0	34.6390	4	27.722	0	2753.150	0	78.8	4	23.6	4	-1E+10	1	-1E+10	1	-1E+10	1	-1E+10	1	-1E+10	1	-1E+10	1
4902642	35	C	06/05/2025	01:01	-131.383	46.099	0	2795.20	0	1.6770	0	34.6390	4	27.722	0	2753.934	0	78.9	4	23.6	4	-1E+10	1	-1E+10	1	-1E+10	1	-1E+10	1	-1E+10	1	-1E+10	1
4902642	35	C	06/05/2025	01:01	-131.383	46.099	0	2796.50	0	1.6770	0	34.6390	4	27.722	0	2755.206	0	78.9	4	23.6	4	-1E+10	1	-1E+10	1	-1E+10	1	-1E+10	1	-1E+10	1	-1E+10	1
4902642	35	C	06/05/2025	01:01	-131.383	46.099	0	2797.90	0	1.6780	0	34.6400	4	27.723	0	2756.576	0	78.9	4	23.6	4	-1E+10	1	-1E+10	1	-1E+10	1	-1E+10	1	-1E+10	1	-1E+10	1
4902642	35	C	06/05/2025	01:01	-131.383	46.099	0	2798.80	0	1.6780	0	34.6390	4	27.722	0	2757.458	0	78.9	4	23.6	4	-1E+10	1	-1E+10	1	-1E+10	1	-1E+10	1	-1E+10	1	-1E+10	1
4902642	35	C	06/05/2025	01:01	-131.383	46.099	0	2799.70	0	1.6780	0	34.6390	4	27.722	0	2758.338	0	78.9	4	23.6	4	-1E+10	1	-1E+10	1	-1E+10	1	-1E+10	1	-1E+10	1	-1E+10	1
4902642	35	C	06/05/2025	01:01	-131.383	46.099	0	2800.60	0	1.6780	0	34.6400	4	27.723	0	2759.220	0	78.9	4	23.6	4	-1E+10	1	-1E+10	1	-1E+10	1	-1E+10	1	-1E+10	1	-1E+10	1
4902642	35	C	06/05/2025	01:01	-131.383	46.099	0	2801.60	0	1.6780	0	34.6400	4	27.723	0	2760.198	0	78.9	4	23.6	4	-1E+10	1	-1E+10	1	-1E+10	1	-1E+10	1	-1E+10	1	-1E+10	1
4902642	35	C	06/05/2025	01:01	-131.383	46.099	0	2802.50	0	1.6780	0	34.6390	4	27.722	0	2761.079	0	79.0	4	23.6	4	-1E+10	1	-1E+10	1	-1E+10	1	-1E+10	1	-1E+10	1	-1E+10	1
4902642	35	C	06/05/2025	01:01	-131.383	46.099	0	2803.40	0	1.6780	0	34.6400	4	27.723	0	2761.960	0	79.0	4	23.6	4	-1E+10	1	-1E+10	1	-1E+10	1	-1E+10	1	-1E+10	1	-1E+10	1
4902642	35	C	06/05/2025	01:01	-131.383	46.099	0	2804.30	0	1.6780	0	34.6400	4	27.723	0	2762.841	0	79.0	4	23.6	4	-1E+10	1	-1E+10	1	-1E+10	1	-1E+10	1	-1E+10	1	-1E+10	1
4902642	35	C	06/05/2025	01:01	-131.383	46.099	0	2805.20	0	1.6780	0	34.6390	4	27.722	0	2763.722	0	79.0	4	23.6	4	-1E+10	1	-1E+10	1	-1E+10	1	-1E+10	1	-1E+10	1	-1E+10	1
4902642	35	C	06/05/2025	01:01	-131.383	46.099	0	2806.60	0	1.6750	0	34.6400	4	27.723	0	2765.092	0	79.1	4	23.7	4	-1E+10	1	-1E+10	1	-1E+10	1	-1E+10	1	-1E+10	1	-1E+10	1
4902642	35	C	06/05/2025	01:01	-131.383	46.099	0	2807.80	0	1.6750	0	34.6400	4	27.723	0	2766.267	0	79.1	4	23.7	4	-1E+10	1	-1E+10	1	-1E+10	1	-1E+10	1	-1E+10	1	-1E+10	1
4902642	35	C	06/05/2025	01:01	-131.383	46.099	0	2808.70	0	1.6770	0	34.6390	4	27.722	0	2767.148	0	79.1	4	23.7	4	-1E+10	1	-1E+10	1	-1E+10	1	-1E+10	1	-1E+10	1	-1E+10	1
4902642	35	C	06/05/2025	01:01	-131.383	46.099	0	2809.70	0	1.6750	0	34.6400	4	27.723	0	2768.127	0	79.2	4	23.7	4	-1E+10	1	-1E+10	1	-1E+10	1	-1E+10	1	-1E+10	1	-1E+10	1
4902642	35	C	06/05/2025	01:01	-131.383	46.099	0	2810.60	0	1.6750	0	34.6400	4	27.723	0	2769.008	0	79.2	4	23.7	4	-1E+10	1	-1E+10	1	-1E+10	1	-1E+10	1	-1E+10	1	-1E+10	1
4902642	35	C	06/05/2025	01:01	-131.383	46.099	0	2811.50	0	1.6750	0	34.6400	4	27.723	0	2769.889	0	79.2	4	23.7	4	-1E+10	1	-1E+10	1	-1E+10	1	-1E+10	1	-1E+10	1	-1E+10	1
4902642	35	C	06/05/2025	01:01	-131.383	46.099	0	2812.30	0	1.6750	0	34.6400	4	27.723	0	2770.672	0	79.2	4	23.7	4	-1E+10	1	-1E+10	1	-1E+10	1	-1E+10	1	-1E+10	1	-1E+10	1
4902642	35	C	06/05/2025	01:01	-131.383	46.099	0	2813.60	0	1.6750	0	34.6390	4	27.723	0	2771.944	0	79.2	4	23.7	4	-1E+10	1	-1E+10	1	-1E+10	1	-1E+10	1	-1E+10	1	-1E+10	1
4902642	35	C	06/05/2025	01:01	-131.383	46.099	0	2814.90	0	1.6760	0	34.6400	4	27.723	0	2773.216	0	79.3	4	23.7	4	-1E+10	1	-1E+10	1	-1E+10	1	-1E+10	1	-1E+10	1	-1E+10	1
4902642	35	C	06/05/2025	01:01	-131.383	46.099	0	2815.70	0	1.6760	0	34.6400	4	27.723	0	2773.999	0	79.3	4	23.7	4	-1E+10	1	-1E+10	1	-1E+10	1	-1E+10	1	-1E+10	1	-1E+10	1
4902642	35	C	06/05/2025	01:01	-131.383	46.099	0	2816.50	0	1.6760	0	34.6400	4	27.723	0	2774.782	0	79.4	4	23.7	4	-1E+10	1	-1E+10	1	-1E+10	1	-1E+10	1	-1E+10	1	-1E+10	1
4902642	35	C	06/05/2025	01:01	-131.383	46.099	0	2817.30	0	1.6760	0	34.6390	4	27.722	0	2775.566	0	79.5	4	23.8	4	-1E+10	1	-1E+10	1	-1E+10	1	-1E+10	1	-1E+10	1	-1E+10	1
4902642	35	C	06/05/2025	01:01	-131.383	46.099	0	2818.60	0	1.6740	0	34.6390	4	27.723	0	2776.838	0	79.5	4	23.8	4	-1E+10	1	-1E+10	1	-1E+10	1	-1E+10	1	-1E+10	1	-1E+10	1
4902642	35	C	06/05/2025	01:01	-131.383	46.099	0	2820.00	0	1.6720	0	34.6410	4	27.724	0	2778.208	0	79.6	4	23.8	4	-1E+10	1	-1E+10	1	-1E+10	1	-1E+10	1	-1E+10	1	-1E+10	1
4902642	35	C	06/05/2025	01:01	-131.383	46.099	0	2820.90	0	1.6720	0	34.6400	4	27.724	0	2779.089	0	79.6	4	23.8	4	-1E+10	1	-1E+10	1	-1E+10	1	-1E+10	1	-1E+10	1	-1E+10	1
4902642	35	C	06/05/2025	01:01	-131.383	46.099	0	2821.70	0	1.6720	0	34.6400	4	27.724	0	2779.872	0	79.6	4	23.8	4	-1E+10	1	-1E+10	1	-1E+10	1	-1E+10	1	-1E+10	1	-1E+10	1
4902642	35	C	06/05/2025	01:01	-131.383	46.099	0	2822.70	0	1.6720	0	34.6400	4	27.724	0	2780.851	0	79.6	4	23.8	4	-1E+10	1	-1E+10	1	-1E+10	1	-1E+10	1	-1E+10	1	-1E+10	1
4902642	35	C	06/05/2025	01:01	-131.383	46.099	0	2823.60	0	1.6720	0	34.6400	4	27.724	0	2781.732	0	79.6	4	23.8	4	-1E+10	1	-1E+10	1	-1E+10	1	-1E+10	1	-1E+10	1	-1E+10	1
4902642	35	C	06/05/2025	01:01	-131.383	46.099	0	2824.50	0	1.6720	0	34.6400	4	27.724	0	2782.612	0	79.6	4	23.8	4	-1E+10	1	-1E+10	1	-1E+10	1	-1E+10	1	-1E+10	1	-1E+10	1
4902642	35	C	06/05/2025	01:01	-131.383	46.099	0	2825.40	0	1.6720	0	34.6400	4	27.724	0	2783.493	0	79.7	4	23.8	4	-1E+10	1	-1E+10	1	-1E+10	1	-1E+10	1	-1E+10	1	-1E+10	1
4902642	35	C	06/05/2025	01:01	-131.383	46.099	0	2826.30	0	1.6720	0	34.6410	4	27.724	0	2784.374	0	79.7	4	23.8	4	-1E+10	1	-1E+10	1	-1E+10	1	-1E+10	1	-1E+10	1	-1E+10	1
4902642	35	C	06/05/2025	01:01	-131.383	46.099	0	2827.50	0	1.6700	0	34.6410	4	27.725	0	2785.549	0	79.7	4	23.9	4	-1E+10	1	-1E+10	1	-1E+10	1	-1E+10	1	-1E+10	1	-1E+10	1
4902642	35	C	06/05/2025	01:01	-131.383	46.099	0	2829.50	0	1.6710	0	34.6400	4	27.724	0	2787.506	0	79.8	4	23.9	4	-1E+10	1	-1E+10	1	-1E+10	1	-1E+10	1	-1E+10	1	-1E+10	1
4902642	35	C	06/05/2025	01:01	-131.383	46.099	0	2830.50	0	1.6700	0	34.6400	4	27.724	0	2788.485	0	79.8	4	23.9	4	-1E+10	1	-1E+10	1	-1E+10	1	-1E+10	1	-1E+10	1	-1E+10	1
4902642	35	C	06/05/2025	01:01	-131.383	46.099	0	2831.60	0	1.6710	0	34.6410	4	27.725	0	2789.562	0	79.8	4	23.9	4	-1E+10	1	-1E+10	1	-1E+10	1	-1E+10	1	-1E+10	1	-1E+10	1
4902642	35	C	06/05/2025	01:01	-131.383	46.099	0	2832.40	0	1.6710	0	34.6400	4	27.724	0	2790.344	0	79.8	4	23.9	4	-1E+10	1	-1E+10	1	-1E+10	1	-1E+10	1	-1E+10	1	-1E+10	1
4902642	35	C	06/05/2025	01:01	-131.383	46.099	0	2833.50	0	1.6700	0	34.6400	4	27.724	0	2791.421	0	79.9	4	23.9	4	-1E+10	1	-1E+10	1	-1E+10	1	-1E+10	1	-1E+10	1	-1E+10	1
4902642	35	C	06/05/2025	01:01	-131.383	46.099	0	2834.60	0	1.6690	0	34.6410	4	27.725	0	2792.498	0	79.9	4	23.9	4	-1E+10	1	-1E+10	1	-1E+10	1	-1E+10	1	-1E+10	1	-1E+10	1
4902642	35	C	06/05/2025	01:01	-131.383	46.099	0	2835.70	0	1.6680	0	34.6410	4	27.725	0	2793.574	0	80.0	4	23.9	4	-1E+10	1	-1E+10	1	-1E+10	1	-1E+10	1	-1E+10	1	-1E+10	1
4902642	35	C	06/05/2025	01:01	-131.383	46.099	0	2836.70	0	1.6690	0	34.6400	4	27.724	0	2794.553	0	80.0	4	23.9	4	-1E+10	1	-1E+10	1	-1E+10	1	-1E+10	1	-1E+10	1	-1E+10	1
4902642	35	C	06/05/2025	01:01	-131.383	46.099	0	2837.40	0	1.6680	0	34.6410	4	27.725	0	2795.238	0	80.0	4	23.9	4	-1E+10	1	-1E+10	1	-1E+10	1	-1E+10	1	-1E+10	1	-1E+10	1
4902642	35	C	06/05/2025	01:01	-131.383	46.099	0	2838.70	0	1.6690	0	34.6410	4	27.725	0	2796.510	0	80.0	4	23.9	4	-1E+10	1	-1E+10	1	-1E+10	1	-1E+10	1	-1E+10	1	-1E+10	1
4902642	35	C	06/05/2025	01:01	-131.383	46.099	0	2839.70	0	1.6670	0	34.6410	4	27.725	0	2797.489	0	80.0	4	23.9	4	-1E+10	1	-1E+10	1	-1E+10	1	-1E+10	1	-1E+10	1	-1E+10	1
4902642	35	C	06/05/2025	01:01	-131.383	46.099	0	2840.90	0	1.6680	0	34.6410	4	27.725	0	2798.663	0	80.1	4	23.9	4	-1E+10	1	-1E+10	1	-1E+10	1	-1E+10	1	-1E+10	1	-1E+10	1
4902642	35	C	06/05/2025	01:01	-131.383	46.099	0	2841.70	0	1.6680	0	34.6400	4	27.724	0	2799.446	0	80.0	4	23.9	4	-1E+10	1	-1E+10	1	-1E+10	1	-1E+10	1	-1E+10	1	-1E+10	1
4902642	35	C	06/05/2025	01:01	-131.383	46.099	0	2842.10	0	1.6680	0	34.6410	4	27.725	0	2799.838	0	80.0	4	23.9	4	-1E+10	1	-1E+10	1	-1E+10	1	-1E+10	1	-1E+10	1	-1E+10	1
4902642	35	C	06/05/2025	01:01	-131.383	46.099	0																										
4902642	36	C	06/15/2025	03:11	-131.384	46.066	0	1.20	0	12.8580	0	32.3360	0	24.358	0	1.190	0	245.2	4	93.0	4	-1E+10	1	-1E+10	1	-1E+10	1	-1E+10	1	-1E+10	1	-1E+10	1
4902642	36	C	06/15/2025	03:11	-131.384	46.066	0	1.30	0	12.8590	0	32.3345	0	24.357	0	1.289	0	245.2	4	93.0	4	-1E+10	1	-1E+10	1	-1E+10	1	-1E+10	1	-1E+10	1	-1E+10	1
4902642	36	C	06/15/2025	03:11	-131.384	46.066	0	1.40	0	12.8575	0	32.3360	0	24.358	0	1.388	0	245.2	4	93.0	4	-1E+10	1	-1E+10	1	-1E+10	1	-1E+10	1	-1E+10	1	-1E+10	1
4902642	36	C	06/15/2025	03:11	-131.384	46.066	0	1.50	0	12.8593	0	32.3350	0	24.357	0	1.488	0	245.2	4	93.0	4	-1E+10	1	-1E+10	1	-1E+10	1	-1E+10	1	-1E+10	1	-1E+10	1
4902642	36	C	06/15/2025	03:11	-131.384	46.066	0	1.60	0	12.8640	0	32.3200	0	24.345	0	1.587	0	245.0	4	93.0	4	-1E+10	1	-1E+10	1	-1E+10	1	-1E+10	1	-1E+10	1	-1E+10	1
4902642	36	C	06/15/2025	03:11	-131.384	46.066	0	2.50	0	12.8630	0	32.3180	0	24.343	0	2.479	0	245.0	4	93.0	4	-1E+10	1	-1E+10	1	-1E+10	1	-1E+10	1	-1E+10	1	-1E+10	1
4902642	36	C	06/15/2025	03:11	-131.384	46.066	0	3.60	0	12.8670	0	32.3190	0	24.343	0	3.570	0	244.9	4	92.9	4	-1E+10	1	-1E+10	1	-1E+10	1	-1E+10	1	-1E+10	1	-1E+10	1
4902642	36	C	06/15/2025	03:11	-131.384	46.066	0	4.40	0	12.8660	0	32.3320	0	24.354	0	4.364	0	244.9	4	92.9	4	-1E+10	1	-1E+10	1	-1E+10	1	-1E+10	1	-1E+10	1	-1E+10	1
4902642	36	C	06/15/2025	03:11	-131.384	46.066	0	5.30	0	12.8430	0	32.3250	0	24.353	0	5.256	0	245.1	4	93.0	4	-1E+10	1	-1E+10	1	-1E+10	1	-1E+10	1	-1E+10	1	-1E+10	1
4902642	36	C	06/15/2025	03:11	-131.384	46.066	0	6.30	0	12.7930	0	32.3330	0	24.369	0	6.248	0	245.1	4	92.9	4	-1E+10	1	-1E+10	1	-1E+10	1	-1E+10	1	-1E+10	1	-1E+10	1
4902642	36	C	06/15/2025	03:11	-131.384	46.066	0	7.30	0	12.7830	0	32.3210	0	24.361	0	7.240	0	245.3	4	92.9	4	-1E+10	1	-1E+10	1	-1E+10	1	-1E+10	1	-1E+10	1	-1E+10	1
4902642	36	C	06/15/2025	03:11	-131.384	46.066	0	8.50	0	12.6260	0	32.3310	0	24.399	0	8.430	0	245.8	4	92.8	4	-1E+10	1	-1E+10	1	-1E+10	1	-1E+10	1	-1E+10	1	-1E+10	1
4902642	36	C	06/15/2025	03:11	-131.384	46.066	0	10.00	0	12.5390	0	32.3300	0	24.415	0	9.918	0	246.3	4	92.9	4	-1E+10	1	-1E+10	1	-1E+10	1	-1E+10	1	-1E+10	1	-1E+10	1
4902642	36	C	06/15/2025	03:11	-131.384	46.066	0	15.00	0	12.5010	0	32.3290	0	24.422	0	14.876	0	246.4	4	92.8	4	-1E+10	1	-1E+10	1	-1E+10	1	-1E+10	1	-1E+10	1	-1E+10	1
4902642	36	C	06/15/2025	03:11	-131.384	46.066	0	24.90	0	12.3980	0	32.3280	0	24.441	0	24.694	0	246.5	4	92.7	4	-1E+10	1	-1E+10	1	-1E+10	1	-1E+10	1	-1E+10	1	-1E+10	1
4902642	36	C	06/15/2025	03:11	-131.384	46.066	0	34.10	0	12.2820	0	32.3280	0	24.463	0	33.817	0	246.8	4	92.5	4	-1E+10	1	-1E+10	1	-1E+10	1	-1E+10	1	-1E+10	1	-1E+10	1
4902642	36	C	06/15/2025	03:11	-131.384	46.066	0	44.50	0	11.3420	0	32.3550	0	24.657	0	44.130	0	251.2	4	92.4	4	-1E+10	1	-1E+10	1	-1E+10	1	-1E+10	1	-1E+10	1	-1E+10	1
4902642	36	C	06/15/2025	03:11	-131.384	46.066	0	54.70	0	10.3990	0	32.3640	0	24.829	0	54.243	0	253.7	4	91.4	4	-1E+10	1	-1E+10	1	-1E+10	1	-1E+10	1	-1E+10	1	-1E+10	1
4902642	36	C	06/15/2025	03:11	-131.384	46.066	0	64.90	0	9.6570	0	32.3750	0	24.961	0	64.357	0	253.0	4	89.8	4	-1E+10	1	-1E+10	1	-1E+10	1	-1E+10	1	-1E+10	1	-1E+10	1
4902642	36	C	06/15/2025	03:11	-131.384	46.066	0	75.10	0	9.4200	0	32.3870	0	25.008	0	74.470	0	248.9	4	87.8	4	-1E+10	1	-1E+10	1	-1E+10	1	-1E+10	1	-1E+10	1	-1E+10	1
4902642	36	C	06/15/2025	03:11	-131.384	46.066	0	85.20	0	9.2640	0	32.4210	0	25.060	0	84.483	0	240.8	4	84.7	4	-1E+10	1	-1E+10	1	-1E+10	1	-1E+10	1	-1E+10	1	-1E+10	1
4902642	36	C	06/15/2025	03:11	-131.384	46.066	0	94.40	0	8.9530	0	32.4930	0	25.165	0	93.603	0	231.4	4	80.9	4	-1E+10	1	-1E+10	1	-1E+10	1	-1E+10	1	-1E+10	1	-1E+10	1
4902642	36	C	06/15/2025	03:11	-131.384	46.066	0	105.10	0	8.7500	0	32.6360	0	25.308	0	104.210	0	218.9	4	76.3	4	-1E+10	1	-1E+10	1	-1E+10	1	-1E+10	1	-1E+10	1	-1E+10	1
4902642	36	C	06/15/2025	03:11	-131.384	46.066	0	114.30	0	8.4600	0	32.8650	0	25.531	0	113.330	0	207.0	4	71.8	4	-1E+10	1	-1E+10	1	-1E+10	1	-1E+10	1	-1E+10	1	-1E+10	1
4902642	36	C	06/15/2025	03:11	-131.384	46.066	0	125.20	0	8.0770	0	33.1050	0	25.777	0	124.134	0	196.1	4	67.5	4	-1E+10	1	-1E+10	1	-1E+10	1	-1E+10	1	-1E+10	1	-1E+10	1
4902642	36	C	06/15/2025	03:11	-131.384	46.066	0	134.40	0	7.8460	0	33.2310	0	25.909	0	133.253	0	185.7	4	63.7	4	-1E+10	1	-1E+10	1	-1E+10	1	-1E+10	1	-1E+10	1	-1E+10	1
4902642	36	C	06/15/2025	03:11	-131.384	46.066	0	144.80	0	7.3830	0	33.3990	0	26.107	0	143.560	0	176.0	4	59.8	4	-1E+10	1	-1E+10	1	-1E+10	1	-1E+10	1	-1E+10	1	-1E+10	1
4902642	36	C	06/15/2025	03:11	-131.384	46.066	0	154.70	0	7.1930	0	33.5220	0	26.230	0	153.372	0	174.7	4	59.1	4	-1E+10	1	-1E+10	1	-1E+10	1	-1E+10	1	-1E+10	1	-1E+10	1
4902642	36	C	06/15/2025	03:11	-131.384	46.066	0	164.60	0	7.0090	0	33.6050	0	26.321	0	163.183	0	169.4	4	57.1	4	-1E+10	1	-1E+10	1	-1E+10	1	-1E+10	1	-1E+10	1	-1E+10	1
4902642	36	C	06/15/2025	03:11	-131.384	46.066	0	175.10	0	6.8000	0	33.6800	0	26.408	0	173.588	0	163.0	4	54.8	4	-1E+10	1	-1E+10	1	-1E+10	1	-1E+10	1	-1E+10	1	-1E+10	1
4902642	36	C	06/15/2025	03:11	-131.384	46.066	0	184.00	0	6.7310	0	33.7140	0	26.444	0	182.407	0	157.5	4	52.9	4	-1E+10	1	-1E+10	1	-1E+10	1	-1E+10	1	-1E+10	1	-1E+10	1
4902642	36	C	06/15/2025	03:11	-131.384	46.066	0	194.50	0	6.6380	0	33.7470	0	26.483	0	192.811	0	145.1	4	48.6	4	-1E+10	1	-1E+10	1	-1E+10	1	-1E+10	1	-1E+10	1	-1E+10	1
4902642	36	C	06/15/2025	03:11	-131.384	46.066	0	210.00	0	6.6330	0	33.8160	0	26.538	0	208.169	0	114.0	4	38.2	4	-1E+10	1	-1E+10	1	-1E+10	1	-1E+10	1	-1E+10	1	-1E+10	1
4902642	36	C	06/15/2025	03:11	-131.384	46.066	0	230.10	0	6.5000	0	33.8630	0	26.593	0	228.083	0	98.9	4	33.1	4	-1E+10	1	-1E+10	1	-1E+10	1	-1E+10	1	-1E+10	1	-1E+10	1
4902642	36	C	06/15/2025	03:11	-131.384	46.066	0	250.00	0	6.2070	0	33.8620	0	26.630	0	247.796	0	92.4	4	30.7	4	-1E+10	1	-1E+10	1	-1E+10	1	-1E+10	1	-1E+10	1	-1E+10	1
4902642	36	C	06/15/2025	03:11	-131.384	46.066	0	270.40	0	5.9820	0	33.8840	0	26.676	0	268.003	0	82.3	4	27.2	4	-1E+10	1	-1E+10	1	-1E+10	1	-1E+10	1	-1E+10	1	-1E+10	1
4902642	36	C	06/15/2025	03:11	-131.384	46.066	0	289.80	0	5.7590	0	33.8930	0	26.711	0	287.218	0	76.6	4	25.2	4	-1E+10	1	-1E+10	1	-1E+10	1	-1E+10	1	-1E+10	1	-1E+10	1
4902642	36	C	06/15/2025	03:11	-131.384	46.066	0	310.50	0	5.5490	0	33.9040	0	26.745	0	307.718	0	69.7	4	22.8	4	-1E+10	1	-1E+10	1	-1E+10	1	-1E+10	1	-1E+10	1	-1E+10	1
4902642	36	C	06/15/2025	03:11	-131.384	46.066	0	329.80	0	5.4570	0	33.9250	0	26.773	0	326.830	0	63.5	4	20.7	4	-1E+10	1	-1E+10	1	-1E+10	1	-1E+10	1	-1E+10	1	-1E+10	1
4902642	36	C	06/15/2025	03:11	-131.384	46.066	0	349.60	0	5.1870	0	33.9220	0	26.802	0	346.435	0	59.7	4	19.4	4	-1E+10	1	-1E+10	1	-1E+10	1	-1E+10	1	-1E+10	1	-1E+10	1
4902642	36	C	06/15/2025	03:11	-131.384	46.066	0	369.90	0	4.9840	0	33.9360	0	26.837	0	366.533	0	54.3	4	17.5	4	-1E+10	1	-1E+10	1	-1E+10	1	-1E+10	1	-1E+10	1	-1E+10	1
4902642	36	C	06/15/2025	03:11	-131.384	46.066	0	390.20	0	4.8820	0	33.9560	0	26.864	0	386.630	0	49.6	4	16.0	4	-1E+10	1	-1E+10	1	-1E+10	1	-1E+10	1	-1E+10	1	-1E+10	1
4902642	36	C	06/15/2025	03:11	-131.384	46.066	0	410.00	0	4.7960	0	33.9720	0	26.887	0	406.229	0	46.3	4	14.9	4	-1E+10	1	-1E+10	1	-1E+10	1	-1E+10	1	-1E+10	1	-1E+10	1
4902642	36	C	06/15/2025	03:11	-131.384	46.066	0	429.70	0	4.7250	0	33.9880	0	26.908	0	425.728	0	41.9	4	13.5	4	-1E+10	1	-1E+10	1	-1E+10	1	-1E+10	1	-1E+10	1	-1E+10	1
4902642	36	C	06/15/2025	03:11	-131.384	46.066	0	449.80	0	4.6360	0	34.0170	0	26.941	0	445.620	0	36.3	4	11.6	4	-1E+10	1	-1E+10	1	-1E+10	1	-1E+10	1	-1E+10	1	-1E+10	1
4902642	36	C	06/15/2025	03:11	-131.384	46.066	0	469.90	0	4.5680	0	34.0370	0	26.964	0	465.511	0	32.4	4	10.4	4	-1E+10	1	-1E+10	1	-1E+10	1	-1E+10	1	-1E+10	1	-1E+10	1
4902642	36	C	06/15/2025	03:11	-131.384	46.066	0	489.60	0	4.5090	0	34.0500	0	26.981	0	485.004	0	29.8	4	9.5	4	-1E+10	1	-1E+10	1	-1E+10	1	-1E+10	1	-1E+10	1	-1E+10	1
4902642	36	C	06/15/2025	03:11	-131.384	46.066	0	510.30	0	4.4560	0	34.0720	0	27.004	0	505.485	0	25.1	4	8.0	4	-1E+10	1	-1E+10	1	-1E+10	1	-1E+10	1	-1E+10	1	-1E+10	1
4902642	36	C	06/15/2025	03:11	-131.384	46.066	0	529.90	0	4.4000	0	34.0970	0	27.030	0	524.875	0	21.2	4	6.8	4	-1E+10	1	-1E+10	1	-1E+10	1	-1E+10	1	-1E+10	1	-1E+10	1
4902642	36	C	06/15/2025	03:11	-131.384	46.066	0	550.50	0	4.3380	0	34.1160	0	27.052	0	545.253	0	18.8	4	6.0	4	-1E+10	1	-1E+10	1	-1E+10	1	-1E+10	1	-1E+10	1	-1E+10	1
4902642	36	C	06/15/2025	03:11	-131.384	46.066	0	569.90	0	4.2910	0	34.1340	0	27.071	0	564.441	0	17.0	4	5.4	4	-1E+10	1	-1E+10	1	-1E+10	1	-1E+10	1	-1E+10	1	-1E+10	1
4902642	36	C	06/15/2025	03:11	-131.384	46.066	0	589.90	0	4.2500	0	34.1460	0	27.085	0	584.222	0	15.6	4	5.0	4	-1E+10	1	-1E+10	1	-1E+10	1	-1E+10	1	-1E+10	1	-1E+10	1
4902642	36	C	06/15/2025	03:11	-131.384	46.066	0	610.10	0	4.2040	0	34.1600	0	27.102	0	604.198	0	14.1	4	4.5	4	-1E+10	1	-1E+10	1	-1E+10	1	-1E+10	1	-1E+10	1	-1E+10	1
4902642	36	C	06/15/2025	03:11	-131.384	46.066	0	630.10	0	4.1630	0	34.1740	0	27.117	0	623.974	0	12.8	4	4.1	4	-1E+10	1	-1E+10	1	-1E+10	1	-1E+10	1	-1E+10	1	-1E+10	1
4902642	36	C	06/15/2025	03:11	-131.384	46.066	0	650.00	0	4.1310	0	34.1860	0	27.130	0	643.650	0	11.8	4	3.7	4	-1E+10	1	-1E+10	1	-1E+10	1	-1E+10	1	-1E+10	1	-1E+10	1
4902642	36	C	06/15/2025	03:11	-131.384	46.066	0	669.90	0	4.0970	0	34.1970	0	27.143	0	663.324	0	10.8	4	3.4	4	-1E+10	1	-1E+10	1	-1E+10	1	-1E+10	1	-1E+10	1	-1E+10	1
4902642	36	C	06/15/2025	03:11	-131.384	46.066	0	689.80	0	4.0440	0	34.2140	0	27.162	0	682.996	0	9.4	4	3.0	4	-1E+10	1	-1E+10	1	-1E+10	1	-1E+10	1	-1E+10	1	-1E+10	1
4902642	36	C	06/15/2025	03:11	-131.384	46.066	0	710.30	0	4.0030	0	34.2300	0	27.179	0	703.260	0	8.4	4	2.7	4	-1E+10	1	-1E+10	1	-1E+10	1	-1E+10	1	-1E+10	1	-1E+10	1
4902642	36	C	06/15/2025	03:11	-131.384	46.066	0	729.80	0	3.9650	0	34.2420	0	27.192	0	722.532	0	7.8	4	2.5	4	-1E+10	1	-1E+10	1	-1E+10	1	-1E+10	1	-1E+10	1	-1E+10	1
4902642	36	C	06/15/2025	03:11	-131.384	46.066	0	750.00	0	3.8990	0	34.2510	0	27.206	0	742.495	0	7.4	4	2.3	4	-1E+10	1	-1E+10	1	-1E+10	1	-1E+10	1	-1E+10	1	-1E+10	1
4902642	36	C	06/15/2025	03:11	-131.384	46.066	0	770.00	0	3.8530	0	34.2580	0	27.217	0	762.259	0	7.2	4	2.3	4	-1E+10	1	-1E+10	1	-1E+10	1	-1E+10	1	-1E+10	1	-1E+10	1
4902642	36	C	06/15/2025	03:11	-131.384	46.066	0	790.00	0	3.7910	0	34.2620	0	27.226	0	782.020	0	7.0	4	2.2	4	-1E+10	1	-1E+10	1	-1E+10	1	-1E+10	1	-1E+10	1	-1E+10	1
4902642	36	C	06/15/2025	03:11	-131.384	46.066	0	810.10	0	3.7420	0	34.2750	0	27.241	0	801.879	0	6.5	4	2.0	4	-1E+10	1	-1E+10	1	-1E+10	1	-1E+10	1	-1E+10	1	-1E+10	1
4902642	36	C	06/15/2025	03:11	-131.384	46.066	0	830.00	0	3.7270	0	34.2920	0	27.257	0	821.538	0	6.1	4	1.9	4	-1E+10	1	-1E+10	1	-1E+10	1	-1E+10	1	-1E+10	1	-1E+10	1
4902642	36	C	06/15/2025	03:11	-131.384	46.066	0	849.90	0	3.6650	0	34.2990	0	27.268	0	841.195	0	5.9	4	1.9	4	-1E+10	1	-1E+10	1	-1E+10	1	-1E+10	1	-1E+10	1	-1E+10	1
4902642	36	C	06/15/2025	03:11	-131.384	46.066	0	870.10	0	3.6420	0	34.3080	0	27.278	0	861.146	0	5.7	4	1.8	4	-1E+10	1	-1E+10	1	-1E+10	1	-1E+10	1	-1E+10	1	-1E+10	1
4902642	36	C	06/15/2025	03:11	-131.384	46.066	0	890.20	0	3.6340	0	34.3230	0	27.291	0	880.997	0	5.4	4	1.7	4	-1E+10	1	-1E+10	1	-1E+10	1	-1E+10	1	-1E+10	1	-1E+10	1
4902642	36	C	06/15/2025	03:11	-131.384	46.066	0	910.30	0	3.6340	0	34.3440	0	27.308	0	900.846	0	5.3	4	1.7	4	-1E+10	1	-1E+10	1	-1E+10	1	-1E+10	1	-1E+10	1	-1E+10	1
4902642	36	C	06/15/2025	03:11	-131.384	46.066	0	929.60	0	3.5960	0	34.3610	0	27.325	0	919.903	0	5.5	4	1.7	4	-1E+10	1	-1E+10	1	-1E+10	1	-1E+10	1	-1E+10	1	-1E+10	1
4902642	36	C	06/15/2025	03:11	-131.384	46.066	0	949.70	0	3.5610	0	34.3730	0	27.338	0	939.748	0	5.7	4	1.8	4	-1E+10	1	-1E+10	1	-1E+10	1	-1E+10	1	-1E+10	1	-1E+10	1
4902642	36	C	06/15/2025	03:11	-131.384	46.066	0	969.90	0	3.4930	0	34.3850	0	27.355	0	959.690	0	6.1	4	1.9	4	-1E+10	1	-1E+10	1	-1E+10	1	-1E+10	1	-1E+10	1	-1E+10	1
4902642	36	C	06/15/2025	03:11	-131.384	46.066	0	990.10	0	3.4530	0	34.3940	0	27.366	0	979.631	0	6.3	4	2.0	4	-1E+10	1	-1E+10	1	-1E+10	1	-1E+10	1	-1E+10	1	-1E+10	1
4902642	36	C	06/15/2025	03:11	-131.384	46.066	0	1010.80	0	3.4200	0	34.3990	0	27.373	0	1000.062	0	6.6	4	2.1	4	-1E+10	1	-1E+10	1	-1E+10	1	-1E+10	1	-1E+10	1	-1E+10	1
4902642	36	C	06/15/2025	03:11	-131.384	46.066	0	1030.00	0	3.3860	0	34.4070	0	27.383	0	1019.012	0	7.0	4	2.2	4	-1E+10	1	-1E+10	1	-1E+10	1	-1E+10	1	-1E+10	1	-1E+10	1
4902642	36	C	06/15/2025	03:11	-131.384	46.066	0	1050.10	0	3.3530	0	34.4140	0	27.391	0	1038.848	0	7.4	4	2.3	4	-1E+10	1	-1E+10	1	-1E+10	1	-1E+10	1	-1E+10	1	-1E+10	1
4902642	36	C	06/15/2025	03:11	-131.384	46.066	0	1070.10	0	3.3150	0	34.4200	0	27.400	0	1058.583	0	7.8	4	2.4	4	-1E+10	1	-1E+10	1	-1E+10	1	-1E+10	1	-1E+10	1	-1E+10	1
4902642	36	C	06/15/2025	03:11	-131.384	46.066	0	1089.80	0	3.2680	0	34.4260	0	27.409	0	1078.020	0	8.2	4	2.6	4	-1E+10	1	-1E+10	1	-1E+10	1	-1E+10	1	-1E+10	1	-1E+10	1
4902642	36	C	06/15/2025	03:11	-131.384	46.066	0	1110.00	0	3.2210	0	34.4320	0	27.419	0	1097.949	0	8.6	4	2.7	4	-1E+10	1	-1E+10	1	-1E+10	1	-1E+10	1	-1E+10	1	-1E+10	1
4902642	36	C	06/15/2025	03:11	-131.384	46.066	0	1130.00	0	3.1770	0	34.4380	0	27.428	0	1117.679	0	9.1	4	2.8	4	-1E+10	1	-1E+10	1	-1E+10	1	-1E+10	1	-1E+10	1	-1E+10	1
4902642	36	C	06/15/2025	03:11	-131.384	46.066	0	1150.00	0	3.1380	0	34.4430	0	27.435	0	1137.407	0	9.6	4	3.0	4	-1E+10	1	-1E+10	1	-1E+10	1	-1E+10	1	-1E+10	1	-1E+10	1
4902642	36	C	06/15/2025	03:11	-131.384	46.066	0	1170.00	0	3.0880	0	34.4480	0	27.444	0	1157.132	0	10.1	4	3.1	4	-1E+10	1	-1E+10	1	-1E+10	1	-1E+10	1	-1E+10	1	-1E+10	1
4902642	36	C	06/15/2025	03:11	-131.384	46.066	0	1189.90	0	3.0410	0	34.4540	0	27.453	0	1176.758	0	10.7	4	3.3	4	-1E+10	1	-1E+10	1	-1E+10	1	-1E+10	1	-1E+10	1	-1E+10	1
4902642	36	C	06/15/2025	03:11	-131.384	46.066	0	1210.50	0	2.9980	0	34.4590	0	27.461	0	1197.072	0	11.4	4	3.5	4	-1E+10	1	-1E+10	1	-1E+10	1	-1E+10	1	-1E+10	1	-1E+10	1
4902642	36	C	06/15/2025	03:11	-131.384	46.066	0	1229.90	0	2.9480	0	34.4650	0	27.470	0	1216.201	0	12.1	4	3.7	4	-1E+10	1	-1E+10	1	-1E+10	1	-1E+10	1	-1E+10	1	-1E+10	1
4902642	36	C	06/15/2025	03:11	-131.384	46.066	0	1249.90	0	2.9130	0	34.4700	0	27.478	0	1235.919	0	12.7	4	3.9	4	-1E+10	1	-1E+10	1	-1E+10	1	-1E+10	1	-1E+10	1	-1E+10	1
4902642	36	C	06/15/2025	03:11	-131.384	46.066	0	1269.80	0	2.8770	0	34.4740	0	27.484	0	1255.537	0	13.3	4	4.1	4	-1E+10	1	-1E+10	1	-1E+10	1	-1E+10	1	-1E+10	1	-1E+10	1
4902642	36	C	06/15/2025	03:11	-131.384	46.066	0	1290.50	0	2.8430	0	34.4780	0	27.491	0	1275.942	0	14.1	4	4.3	4	-1E+10	1	-1E+10	1	-1E+10	1	-1E+10	1	-1E+10	1	-1E+10	1
4902642	36	C	06/15/2025	03:11	-131.384	46.066	0	1309.90	0	2.8060	0	34.4830	0	27.498	0	1295.064	0	15.1	4	4.6	4	-1E+10	1	-1E+10	1	-1E+10	1	-1E+10	1	-1E+10	1	-1E+10	1
4902642	36	C	06/15/2025	03:11	-131.384	46.066	0	1329.80	0	2.7690	0	34.4880	0	27.505	0	1314.676	0	16.0	4	4.9	4	-1E+10	1	-1E+10	1	-1E+10	1	-1E+10	1	-1E+10	1	-1E+10	1
4902642	36	C	06/15/2025	03:11	-131.384	46.066	0	1349.90	0	2.7390	0	34.4910	0	27.510	0	1334.484	0	16.7	4	5.1	4	-1E+10	1	-1E+10	1	-1E+10	1	-1E+10	1	-1E+10	1	-1E+10	1
4902642	36	C	06/15/2025	03:11	-131.384	46.066	0	1369.90	0	2.7030	0	34.4950	0	27.517	0	1354.191	0	17.7	4	5.4	4	-1E+10	1	-1E+10	1	-1E+10	1	-1E+10	1	-1E+10	1	-1E+10	1
4902642	36	C	06/15/2025	03:11	-131.384	46.066	0	1389.90	0	2.6620	0	34.5000	0	27.524	0	1373.897	0	18.8	4	5.7	4	-1E+10	1	-1E+10	1	-1E+10	1	-1E+10	1	-1E+10	1	-1E+10	1
4902642	36	C	06/15/2025	03:11	-131.384	46.066	0	1409.80	0	2.6140	0	34.5040	0	27.532	0	1393.502	0	19.8	4	6.0	4	-1E+10	1	-1E+10	1	-1E+10	1	-1E+10	1	-1E+10	1	-1E+10	1
4902642	36	C	06/15/2025	03:11	-131.384	46.066	0	1430.10	0	2.5830	0	34.5080	0	27.538	0	1413.499	0	20.8	4	6.3	4	-1E+10	1	-1E+10	1	-1E+10	1	-1E+10	1	-1E+10	1	-1E+10	1
4902642	36	C	06/15/2025	03:11	-131.384	46.066	0	1450.50	0	2.5360	0	34.5130	0	27.546	0	1433.593	0	21.9	4	6.7	4	-1E+10	1	-1E+10	1	-1E+10	1	-1E+10	1	-1E+10	1	-1E+10	1
4902642	36	C	06/15/2025	03:11	-131.384	46.066	0	1469.90	0	2.4990	0	34.5170	0	27.552	0	1452.701	0	22.9	4	7.0	4	-1E+10	1	-1E+10	1	-1E+10	1	-1E+10	1	-1E+10	1	-1E+10	1
4902642	36	C	06/15/2025	03:11	-131.384	46.066	0	1489.80	0	2.4740	0	34.5200	0	27.557	0	1472.298	0	23.7	4	7.2	4	-1E+10	1	-1E+10	1	-1E+10	1	-1E+10	1	-1E+10	1	-1E+10	1
4902642	36	C	06/15/2025	03:11	-131.384	46.066	0	1510.00	0	2.4530	0	34.5230	0	27.561	0	1492.190	0	24.5	4	7.5	4	-1E+10	1	-1E+10	1	-1E+10	1	-1E+10	1	-1E+10	1	-1E+10	1
4902642	36	C	06/15/2025	03:11	-131.384	46.066	0	1529.70	0	2.4270	0	34.5260	0	27.566	0	1511.587	0	25.5	4	7.8	4	-1E+10	1	-1E+10	1	-1E+10	1	-1E+10	1	-1E+10	1	-1E+10	1
4902642	36	C	06/15/2025	03:11	-131.384	46.066	0	1549.90	0	2.3980	0	34.5280	0	27.570	0	1531.475	0	26.6	4	8.1	4	-1E+10	1	-1E+10	1	-1E+10	1	-1E+10	1	-1E+10	1	-1E+10	1
4902642	36	C	06/15/2025	03:11	-131.384	46.066	0	1570.60	0	2.3690	0	34.5320	0	27.576	0	1551.853	0	27.7	4	8.4	4	-1E+10	1	-1E+10	1	-1E+10	1	-1E+10	1	-1E+10	1	-1E+10	1
4902642	36	C	06/15/2025	03:11	-131.384	46.066	0	1589.70	0	2.3400	0	34.5360	0	27.581	0	1570.654	0	28.7	4	8.7	4	-1E+10	1	-1E+10	1	-1E+10	1	-1E+10	1	-1E+10	1	-1E+10	1
4902642	36	C	06/15/2025	03:11	-131.384	46.066	0	1609.90	0	2.3210	0	34.5380	0	27.585	0	1590.536	0	29.5	4	9.0	4	-1E+10	1	-1E+10	1	-1E+10	1	-1E+10	1	-1E+10	1	-1E+10	1
4902642	36	C	06/15/2025	03:11	-131.384	46.066	0	1630.00	0	2.3020	0	34.5410	0	27.589	0	1610.318	0	30.5	4	9.3	4	-1E+10	1	-1E+10	1	-1E+10	1	-1E+10	1	-1E+10	1	-1E+10	1
4902642	36	C	06/15/2025	03:11	-131.384	46.066	0	1650.10	0	2.2760	0	34.5450	0	27.594	0	1630.098	0	31.7	4	9.6	4	-1E+10	1	-1E+10	1	-1E+10	1	-1E+10	1	-1E+10	1	-1E+10	1
4902642	36	C	06/15/2025	03:11	-131.384	46.066	0	1670.00	0	2.2530	0	34.5480	0	27.598	0	1649.679	0	32.8	4	10.0	4	-1E+10	1	-1E+10	1	-1E+10	1	-1E+10	1	-1E+10	1	-1E+10	1
4902642	36	C	06/15/2025	03:11	-131.384	46.066	0	1689.70	0	2.2280	0	34.5510	0	27.603	0	1669.062	0	33.9	4	10.3	4	-1E+10	1	-1E+10	1	-1E+10	1	-1E+10	1	-1E+10	1	-1E+10	1
4902642	36	C	06/15/2025	03:11	-131.384	46.066	0	1709.70	0	2.2010	0	34.5540	0	27.608	0	1688.738	0	35.0	4	10.6	4	-1E+10	1	-1E+10	1	-1E+10	1	-1E+10	1	-1E+10	1	-1E+10	1
4902642	36	C	06/15/2025	03:11	-131.384	46.066	0	1729.80	0	2.1830	0	34.5560	0	27.611	0	1708.511	0	36.1	4	10.9	4	-1E+10	1	-1E+10	1	-1E+10	1	-1E+10	1	-1E+10	1	-1E+10	1
4902642	36	C	06/15/2025	03:11	-131.384	46.066	0	1749.80	0	2.1570	0	34.5600	0	27.616	0	1728.183	0	37.3	4	11.3	4	-1E+10	1	-1E+10	1	-1E+10	1	-1E+10	1	-1E+10	1	-1E+10	1
4902642	36	C	06/15/2025	03:11	-131.384	46.066	0	1769.90	0	2.1320	0	34.5630	0	27.621	0	1747.952	0	38.8	4	11.7	4	-1E+10	1	-1E+10	1	-1E+10	1	-1E+10	1	-1E+10	1	-1E+10	1
4902642	36	C	06/15/2025	03:11	-131.384	46.066	0	1789.70	0	2.1060	0	34.5670	0	27.626	0	1767.424	0	40.1	4	12.1	4	-1E+10	1	-1E+10	1	-1E+10	1	-1E+10	1	-1E+10	1	-1E+10	1
4902642	36	C	06/15/2025	03:11	-131.384	46.066	0	1809.90	0	2.0880	0	34.5700	0	27.630	0	1787.288	0	41.2	4	12.5	4	-1E+10	1	-1E+10	1	-1E+10	1	-1E+10	1	-1E+10	1	-1E+10	1
4902642	36	C	06/15/2025	03:11	-131.384	46.066	0	1829.90	0	2.0660	0	34.5730	0	27.634	0	1806.953	0	42.6	4	12.9	4	-1E+10	1	-1E+10	1	-1E+10	1	-1E+10	1	-1E+10	1	-1E+10	1
4902642	36	C	06/15/2025	03:11	-131.384	46.066	0	1850.20	0	2.0460	0	34.5760	0	27.638	0	1826.912	0	43.8	4	13.2	4	-1E+10	1	-1E+10	1	-1E+10	1	-1E+10	1	-1E+10	1	-1E+10	1
4902642	36	C	06/15/2025	03:11	-131.384	46.066	0	1870.20	0	2.0280	0	34.5790	0	27.642	0	1846.573	0	45.0	4	13.6	4	-1E+10	1	-1E+10	1	-1E+10	1	-1E+10	1	-1E+10	1	-1E+10	1
4902642	36	C	06/15/2025	03:11	-131.384	46.066	0	1890.50	0	2.0110	0	34.5820	0	27.646	0	1866.528	0	46.1	4	13.9	4	-1E+10	1	-1E+10	1	-1E+10	1	-1E+10	1	-1E+10	1	-1E+10	1
4902642	36	C	06/15/2025	03:11	-131.384	46.066	0	1909.90	0	1.9950	0	34.5840	0	27.649	0	1885.596	0	47.2	4	14.2	4	-1E+10	1	-1E+10	1	-1E+10	1	-1E+10	1	-1E+10	1	-1E+10	1
4902642	36	C	06/15/2025	03:11	-131.384	46.066	0	1929.90	0	1.9830	0	34.5860	0	27.652	0	1905.252	0	47.9	4	14.4	4	-1E+10	1	-1E+10	1	-1E+10	1	-1E+10	1	-1E+10	1	-1E+10	1
4902642	36	C	06/15/2025	03:11	-131.384	46.066	0	1950.00	0	1.9760	0	34.5880	0	27.654	0	1925.004	0	48.6	4	14.6	4	-1E+10	1	-1E+10	1	-1E+10	1	-1E+10	1	-1E+10	1	-1E+10	1
4902642	36	C	06/15/2025	03:11	-131.384	46.066	0	1970.10	0	1.9650	0	34.5900	0	27.656	0	1944.755	0	49.5	4	14.9	4	-1E+10	1	-1E+10	1	-1E+10	1	-1E+10	1	-1E+10	1	-1E+10	1
4902642	36	C	06/15/2025	03:11	-131.384	46.066	0	1990.20	0	1.9540	0	34.5920	0	27.659	0	1964.504	0	50.4	4	15.2	4	-1E+10	1	-1E+10	1	-1E+10	1	-1E+10	1	-1E+10	1	-1E+10	1
4902642	36	C	06/15/2025	03:11	-131.384	46.066	0	2010.10	0	1.9430	0	34.5940	4	27.661	0	1984.054	0	51.3	4	15.4	4	-1E+10	1	-1E+10	1	-1E+10	1	-1E+10	1	-1E+10	1	-1E+10	1
4902642	36	C	06/15/2025	03:11	-131.384	46.066	0	2030.10	0	1.9330	0	34.5960	4	27.664	0	2003.701	0	52.1	4	15.7	4	-1E+10	1	-1E+10	1	-1E+10	1	-1E+10	1	-1E+10	1	-1E+10	1
4902642	36	C	06/15/2025	03:11	-131.384	46.066	0	2050.50	0	1.9250	0	34.5970	4	27.665	0	2023.739	0	52.8	4	15.9	4	-1E+10	1	-1E+10	1	-1E+10	1	-1E+10	1	-1E+10	1	-1E+10	1
4902642	36	C	06/15/2025	03:11	-131.384	46.066	0	2069.90	0	1.9180	0	34.5990	4	27.668	0	2042.793	0	53.5	4	16.1	4	-1E+10	1	-1E+10	1	-1E+10	1	-1E+10	1	-1E+10	1	-1E+10	1
4902642	36	C	06/15/2025	03:11	-131.384	46.066	0	2090.00	0	1.9100	0	34.6000	4	27.669	0	2062.533	0	54.2	4	16.3	4	-1E+10	1	-1E+10	1	-1E+10	1	-1E+10	1	-1E+10	1	-1E+10	1
4902642	36	C	06/15/2025	03:11	-131.384	46.066	0	2109.90	0	1.9020	0	34.6020	4	27.672	0	2082.074	0	54.9	4	16.5	4	-1E+10	1	-1E+10	1	-1E+10	1	-1E+10	1	-1E+10	1	-1E+10	1
4902642	36	C	06/15/2025	03:11	-131.384	46.066	0	2130.00	0	1.8940	0	34.6040	4	27.674	0	2101.810	0	55.7	4	16.8	4	-1E+10	1	-1E+10	1	-1E+10	1	-1E+10	1	-1E+10	1	-1E+10	1
4902642	36	C	06/15/2025	03:11	-131.384	46.066	0	2150.30	0	1.8850	0	34.6050	4	27.676	0	2121.741	0	56.5	4	17.0	4	-1E+10	1	-1E+10	1	-1E+10	1	-1E+10	1	-1E+10	1	-1E+10	1
4902642	36	C	06/15/2025	03:11	-131.384	46.066	0	2170.00	0	1.8770	0	34.6070	4	27.678	0	2141.081	0	57.3	4	17.2	4	-1E+10	1	-1E+10	1	-1E+10	1	-1E+10	1	-1E+10	1	-1E+10	1
4902642	36	C	06/15/2025	03:11	-131.384	46.066	0	2189.80	0	1.8700	0	34.6090	4	27.680	0	2160.517	0	58.0	4	17.4	4	-1E+10	1	-1E+10	1	-1E+10	1	-1E+10	1	-1E+10	1	-1E+10	1
4902642	36	C	06/15/2025	03:11	-131.384	46.066	0	2209.90	0	1.8620	0	34.6100	4	27.682	0	2180.246	0	58.8	4	17.7	4	-1E+10	1	-1E+10	1	-1E+10	1	-1E+10	1	-1E+10	1	-1E+10	1
4902642	36	C	06/15/2025	03:11	-131.384	46.066	0	2230.20	0	1.8550	0	34.6110	4	27.683	0	2200.169	0	59.5	4	17.9	4	-1E+10	1	-1E+10	1	-1E+10	1	-1E+10	1	-1E+10	1	-1E+10	1
4902642	36	C	06/15/2025	03:11	-131.384	46.066	0	2250.40	0	1.8510	0	34.6120	4	27.684	0	2219.992	0	60.0	4	18.0	4	-1E+10	1	-1E+10	1	-1E+10	1	-1E+10	1	-1E+10	1	-1E+10	1
4902642	36	C	06/15/2025	03:11	-131.384	46.066	0	2269.80	0	1.8470	0	34.6130	4	27.686	0	2239.029	0	60.4	4	18.1	4	-1E+10	1	-1E+10	1	-1E+10	1	-1E+10	1	-1E+10	1	-1E+10	1
4902642	36	C	06/15/2025	03:11	-131.384	46.066	0	2289.90	0	1.8450	0	34.6140	4	27.687	0	2258.750	0	60.7	4	18.2	4	-1E+10	1	-1E+10	1	-1E+10	1	-1E+10	1	-1E+10	1	-1E+10	1
4902642	36	C	06/15/2025	03:11	-131.384	46.066	0	2309.70	0	1.8410	0	34.6140	4	27.687	0	2278.176	0	61.2	4	18.4	4	-1E+10	1	-1E+10	1	-1E+10	1	-1E+10	1	-1E+10	1	-1E+10	1
4902642	36	C	06/15/2025	03:11	-131.384	46.066	0	2329.90	0	1.8350	0	34.6150	4	27.688	0	2297.992	0	61.9	4	18.6	4	-1E+10	1	-1E+10	1	-1E+10	1	-1E+10	1	-1E+10	1	-1E+10	1
4902642	36	C	06/15/2025	03:11	-131.384	46.066	0	2350.30	0	1.8270	0	34.6170	4	27.691	0	2318.002	0	62.6	4	18.8	4	-1E+10	1	-1E+10	1	-1E+10	1	-1E+10	1	-1E+10	1	-1E+10	1
4902642	36	C	06/15/2025	03:11	-131.384	46.066	0	2369.80	0	1.8240	0	34.6180	4	27.692	0	2337.128	0	63.2	4	19.0	4	-1E+10	1	-1E+10	1	-1E+10	1	-1E+10	1	-1E+10	1	-1E+10	1
4902642	36	C	06/15/2025	03:11	-131.384	46.066	0	2390.20	0	1.8180	0	34.6190	4	27.693	0	2357.135	0	64.0	4	19.2	4	-1E+10	1	-1E+10	1	-1E+10	1	-1E+10	1	-1E+10	1	-1E+10	1
4902642	36	C	06/15/2025	03:11	-131.384	46.066	0	2410.00	0	1.8110	0	34.6200	4	27.695	0	2376.551	0	64.6	4	19.4	4	-1E+10	1	-1E+10	1	-1E+10	1	-1E+10	1	-1E+10	1	-1E+10	1
4902642	36	C	06/15/2025	03:11	-131.384	46.066	0	2429.70	0	1.8090	0	34.6210	4	27.696	0	2395.868	0	65.0	4	19.5	4	-1E+10	1	-1E+10	1	-1E+10	1	-1E+10	1	-1E+10	1	-1E+10	1
4902642	36	C	06/15/2025	03:11	-131.384	46.066	0	2449.90	0	1.8030	0	34.6220	4	27.697	0	2415.673	0	65.6	4	19.7	4	-1E+10	1	-1E+10	1	-1E+10	1	-1E+10	1	-1E+10	1	-1E+10	1
4902642	36	C	06/15/2025	03:11	-131.384	46.066	0	2470.70	0	1.7970	0	34.6230	4	27.699	0	2436.065	0	66.2	4	19.9	4	-1E+10	1	-1E+10	1	-1E+10	1	-1E+10	1	-1E+10	1	-1E+10	1
4902642	36	C	06/15/2025	03:11	-131.384	46.066	0	2490.00	0	1.7940	0	34.6230	4	27.699	0	2454.984	0	66.6	4	20.0	4	-1E+10	1	-1E+10	1	-1E+10	1	-1E+10	1	-1E+10	1	-1E+10	1
4902642	36	C	06/15/2025	03:11	-131.384	46.066	0	2510.00	0	1.7920	0	34.6240	4	27.700	0	2474.588	0	67.0	4	20.1	4	-1E+10	1	-1E+10	1	-1E+10	1	-1E+10	1	-1E+10	1	-1E+10	1
4902642	36	C	06/15/2025	03:11	-131.384	46.066	0	2530.00	0	1.7890	0	34.6250	4	27.701	0	2494.189	0	67.5	4	20.3	4	-1E+10	1	-1E+10	1	-1E+10	1	-1E+10	1	-1E+10	1	-1E+10	1
4902642	36	C	06/15/2025	03:11	-131.384	46.066	0	2549.90	0	1.7840	0	34.6260	4	27.702	0	2513.691	0	68.3	4	20.5	4	-1E+10	1	-1E+10	1	-1E+10	1	-1E+10	1	-1E+10	1	-1E+10	1
4902642	36	C	06/15/2025	03:11	-131.384	46.066	0	2569.70	0	1.7770	0	34.6270	4	27.704	0	2533.094	0	68.8	4	20.6	4	-1E+10	1	-1E+10	1	-1E+10	1	-1E+10	1	-1E+10	1	-1E+10	1
4902642	36	C	06/15/2025	03:11	-131.384	46.066	0	2590.10	0	1.7760	0	34.6270	4	27.704	0	2553.083	0	69.2	4	20.8	4	-1E+10	1	-1E+10	1	-1E+10	1	-1E+10	1	-1E+10	1	-1E+10	1
4902642	36	C	06/15/2025	03:11	-131.384	46.066	0	2610.40	0	1.7690	0	34.6280	4	27.706	0	2572.971	0	70.0	4	21.0	4	-1E+10	1	-1E+10	1	-1E+10	1	-1E+10	1	-1E+10	1	-1E+10	1
4902642	36	C	06/15/2025	03:11	-131.384	46.066	0	2630.20	0	1.7630	0	34.6290	4	27.707	0	2592.368	0	70.6	4	21.2	4	-1E+10	1	-1E+10	1	-1E+10	1	-1E+10	1	-1E+10	1	-1E+10	1
4902642	36	C	06/15/2025	03:11	-131.384	46.066	0	2650.70	0	1.7570	0	34.6300	4	27.708	0	2612.449	0	71.4	4	21.4	4	-1E+10	1	-1E+10	1	-1E+10	1	-1E+10	1	-1E+10	1	-1E+10	1
4902642	36	C	06/15/2025	03:11	-131.384	46.066	0	2670.00	0	1.7490	0	34.6310	4	27.710	0	2631.353	0	72.3	4	21.7	4	-1E+10	1	-1E+10	1	-1E+10	1	-1E+10	1	-1E+10	1	-1E+10	1
4902642	36	C	06/15/2025	03:11	-131.384	46.066	0	2690.00	0	1.7420	0	34.6320	4	27.711	0	2650.940	0	72.8	4	21.8	4	-1E+10	1	-1E+10	1	-1E+10	1	-1E+10	1	-1E+10	1	-1E+10	1
4902642	36	C	06/15/2025	03:11	-131.384	46.066	0	2710.10	0	1.7370	0	34.6320	4	27.712	0	2670.624	0	73.2	4	21.9	4	-1E+10	1	-1E+10	1	-1E+10	1	-1E+10	1	-1E+10	1	-1E+10	1
4902642	36	C	06/15/2025	03:11	-131.384	46.066	0	2730.30	0	1.7250	0	34.6330	4	27.714	0	2690.404	0	74.3	4	22.2	4	-1E+10	1	-1E+10	1	-1E+10	1	-1E+10	1	-1E+10	1	-1E+10	1
4902642	36	C	06/15/2025	03:11	-131.384	46.066	0	2750.20	0	1.7150	0	34.6340	4	27.715	0	2709.888	0	75.2	4	22.5	4	-1E+10	1	-1E+10	1	-1E+10	1	-1E+10	1	-1E+10	1	-1E+10	1
4902642	36	C	06/15/2025	03:11	-131.384	46.066	0	2770.30	0	1.7020	0	34.6360	4	27.718	0	2729.567	0	76.6	4	22.9	4	-1E+10	1	-1E+10	1	-1E+10	1	-1E+10	1	-1E+10	1	-1E+10	1
4902642	36	C	06/15/2025	03:11	-131.384	46.066	0	2790.10	0	1.6910	0	34.6370	4	27.720	0	2748.950	0	77.7	4	23.3	4	-1E+10	1	-1E+10	1	-1E+10	1	-1E+10	1	-1E+10	1	-1E+10	1
4902642	36	C	06/15/2025	03:11	-131.384	46.066	0	2810.50	0	1.6830	0	34.6380	4	27.721	0	2768.918	0	78.5	4	23.5	4	-1E+10	1	-1E+10	1	-1E+10	1	-1E+10	1	-1E+10	1	-1E+10	1
4902642	36	C	06/15/2025	03:11	-131.384	46.066	0	2830.00	0	1.6800	0	34.6390	4	27.722	0	2788.004	0	79.1	4	23.7	4	-1E+10	1	-1E+10	1	-1E+10	1	-1E+10	1	-1E+10	1	-1E+10	1
4902642	36	C	06/15/2025	03:11	-131.384	46.066	0	2850.30	0	1.6700	0	34.6400	4	27.724	0	2807.871	0	80.2	4	24.0	4	-1E+10	1	-1E+10	1	-1E+10	1	-1E+10	1	-1E+10	1	-1E+10	1
4902642	36	C	06/15/2025	03:11	-131.384	46.066	0	2870.30	0	1.6670	0	34.6410	4	27.725	0	2827.443	0	80.6	4	24.1	4	-1E+10	1	-1E+10	1	-1E+10	1	-1E+10	1	-1E+10	1	-1E+10	1
4902642	36	C	06/15/2025	03:11	-131.384	46.066	0	2889.60	0	1.6630	0	34.6420	4	27.726	0	2846.328	0	81.2	4	24.3	4	-1E+10	1	-1E+10	1	-1E+10	1	-1E+10	1	-1E+10	1	-1E+10	1
4902642	36	C	06/15/2025	03:11	-131.384	46.066	0	2909.70	0	1.6610	0	34.6430	4	27.727	0	2865.994	0	81.4	4	24.3	4	-1E+10	1	-1E+10	1	-1E+10	1	-1E+10	1	-1E+10	1	-1E+10	1
4902642	36	C	06/15/2025	03:11	-131.384	46.066	0	2930.10	0	1.6620	0	34.6430	4	27.727	0	2885.951	0	81.5	4	24.4	4	-1E+10	1	-1E+10	1	-1E+10	1	-1E+10	1	-1E+10	1	-1E+10	1
4902642	36	C	06/15/2025	03:11	-131.384	46.066	0	2950.20	0	1.6620	0	34.6430	4	27.728	0	2905.614	0	81.8	4	24.5	4	-1E+10	1	-1E+10	1	-1E+10	1	-1E+10	1	-1E+10	1	-1E+10	1
4902642	36	C	06/15/2025	03:11	-131.384	46.066	0	2970.30	0	1.6610	0	34.6430	4	27.728	0	2925.274	0	82.2	4	24.6	4	-1E+10	1	-1E+10	1	-1E+10	1	-1E+10	1	-1E+10	1	-1E+10	1
4902642	36	C	06/15/2025	03:11	-131.384	46.066	0	2990.00	0	1.6530	0	34.6450	4	27.730	0	2944.542	0	83.5	4	25.0	4	-1E+10	1	-1E+10	1	-1E+10	1	-1E+10	1	-1E+10	1	-1E+10	1
4902642	36	C	06/15/2025	03:11	-131.384	46.066	0	3002.40	0	1.6430	0	34.6460	4	27.732	0	2956.669	0	84.2	4	25.2	4	-1E+10	1	-1E+10	1	-1E+10	1	-1E+10	1	-1E+10	1	-1E+10	1
4902642	36	C	06/15/2025	03:11	-131.384	46.066	0	3005.80	0	1.6430	0	34.6470	4	27.733	0	2959.994	0	84.3	4	25.2	4	-1E+10	1	-1E+10	1	-1E+10	1	-1E+10	1	-1E+10	1	-1E+10	1
4902642	36	C	06/15/2025	03:11	-131.384	46.066	0	3006.70	0	1.6440	0	34.6460	4	27.732	0	2960.874	0	84.3	4	25.2	4	-1E+10	1	-1E+10	1	-1E+10	1	-1E+10	1	-1E+10	1	-1E+10	1
4902642	36	C	06/15/2025	03:11	-131.384	46.066	0	3007.70	0	1.6430	0	34.6470	4	27.733	0	2961.852	0	84.3	4	25.2	4	-1E+10	1	-1E+10	1	-1E+10	1	-1E+10	1	-1E+10	1	-1E+10	1
4902642	36	C	06/15/2025	03:11	-131.384	46.066	0	3008.60	0	1.6430	0	34.6470	4	27.733	0	2962.732	0	84.4	4	25.2	4	-1E+10	1	-1E+10	1	-1E+10	1	-1E+10	1	-1E+10	1	-1E+10	1
4902642	36	C	06/15/2025	03:11	-131.384	46.066	0	3009.50	0	1.6430	0	34.6470	4	27.733	0	2963.612	0	84.4	4	25.2	4	-1E+10	1	-1E+10	1	-1E+10	1	-1E+10	1	-1E+10	1	-1E+10	1
4902642	36	C	06/15/2025	03:11	-131.384	46.066	0	3010.50	0	1.6430	0	34.6470	4	27.733	0	2964.590	0	84.4	4	25.2	4	-1E+10	1	-1E+10	1	-1E+10	1	-1E+10	1	-1E+10	1	-1E+10	1
4902642	36	C	06/15/2025	03:11	-131.384	46.066	0	3011.40	0	1.6430	0	34.6470	4	27.733	0	2965.470	0	84.5	4	25.3	4	-1E+10	1	-1E+10	1	-1E+10	1	-1E+10	1	-1E+10	1	-1E+10	1
4902642	36	C	06/15/2025	03:11	-131.384	46.066	0	3012.40	0	1.6430	0	34.6460	4	27.732	0	2966.448	0	84.5	4	25.3	4	-1E+10	1	-1E+10	1	-1E+10	1	-1E+10	1	-1E+10	1	-1E+10	1
4902642	36	C	06/15/2025	03:11	-131.384	46.066	0	3013.30	0	1.6430	0	34.6470	4	27.733	0	2967.328	0	84.6	4	25.3	4	-1E+10	1	-1E+10	1	-1E+10	1	-1E+10	1	-1E+10	1	-1E+10	1
4902642	36	C	06/15/2025	03:11	-131.384	46.066	0	3014.20	0	1.6430	0	34.6470	4	27.733	0	2968.208	0	84.6	4	25.3	4	-1E+10	1	-1E+10	1	-1E+10	1	-1E+10	1	-1E+10	1	-1E+10	1
4902642	36	C	06/15/2025	03:11	-131.384	46.066	0	3015.20	0	1.6430	0	34.6470	4	27.733	0	2969.186	0	84.7	4	25.3	4	-1E+10	1	-1E+10	1	-1E+10	1	-1E+10	1	-1E+10	1	-1E+10	1
4902642	36	C	06/15/2025	03:11	-131.384	46.066	0	3016.50	0	1.6410	0	34.6470	4	27.733	0	2970.458	0	84.8	4	25.3	4	-1E+10	1	-1E+10	1	-1E+10	1	-1E+10	1	-1E+10	1	-1E+10	1
4902642	36	C	06/15/2025	03:11	-131.384	46.066	0	3018.00	0	1.6410	0	34.6470	4	27.733	0	2971.924	0	84.9	4	25.4	4	-1E+10	1	-1E+10	1	-1E+10	1	-1E+10	1	-1E+10	1	-1E+10	1
4902642	36	C	06/15/2025	03:11	-131.384	46.066	0	3018.90	0	1.6400	0	34.6470	4	27.733	0	2972.804	0	84.9	4	25.4	4	-1E+10	1	-1E+10	1	-1E+10	1	-1E+10	1	-1E+10	1	-1E+10	1
4902642	36	C	06/15/2025	03:11	-131.384	46.066	0	3019.80	0	1.6400	0	34.6470	4	27.733	0	2973.685	0	84.9	4	25.4	4	-1E+10	1	-1E+10	1	-1E+10	1	-1E+10	1	-1E+10	1	-1E+10	1
4902642	36	C	06/15/2025	03:11	-131.384	46.066	0	3020.80	0	1.6390	0	34.6470	4	27.733	0	2974.663	0	85.0	4	25.4	4	-1E+10	1	-1E+10	1	-1E+10	1	-1E+10	1	-1E+10	1	-1E+10	1
4902642	36	C	06/15/2025	03:11	-131.384	46.066	0	3021.70	0	1.6390	0	34.6470	4	27.733	0	2975.543	0	85.0	4	25.4	4	-1E+10	1	-1E+10	1	-1E+10	1	-1E+10	1	-1E+10	1	-1E+10	1
4902642	36	C	06/15/2025	03:11	-131.384	46.066	0	3022.70	0	1.6390	0	34.6470	4	27.733	0	2976.520	0	85.1	4	25.4	4	-1E+10	1	-1E+10	1	-1E+10	1	-1E+10	1	-1E+10	1	-1E+10	1
4902642	36	C	06/15/2025	03:11	-131.384	46.066	0	3023.60	0	1.6400	0	34.6470	4	27.733	0	2977.401	0	85.1	4	25.4	4	-1E+10	1	-1E+10	1	-1E+10	1	-1E+10	1	-1E+10	1	-1E+10	1
4902642	36	C	06/15/2025	03:11	-131.384	46.066	0	3024.60	0	1.6380	0	34.6480	4	27.734	0	2978.378	0	85.2	4	25.5	4	-1E+10	1	-1E+10	1	-1E+10	1	-1E+10	1	-1E+10	1	-1E+10	1
4902642	36	C	06/15/2025	03:11	-131.384	46.066	0	3025.50	0	1.6360	0	34.6480	4	27.734	0	2979.258	0	85.2	4	25.5	4	-1E+10	1	-1E+10	1	-1E+10	1	-1E+10	1	-1E+10	1	-1E+10	1
4902642	36	C	06/15/2025	03:11	-131.384	46.066	0	3026.50	0	1.6370	0	34.6480	4	27.734	0	2980.236	0	85.3	4	25.5	4	-1E+10	1	-1E+10	1	-1E+10	1	-1E+10	1	-1E+10	1	-1E+10	1
4902642	36	C	06/15/2025	03:11	-131.384	46.066	0	3027.40	0	1.6360	0	34.6480	4	27.734	0	2981.116	0	85.3	4	25.5	4	-1E+10	1	-1E+10	1	-1E+10	1	-1E+10	1	-1E+10	1	-1E+10	1
4902642	36	C	06/15/2025	03:11	-131.384	46.066	0	3028.30	0	1.6360	0	34.6480	4	27.734	0	2981.996	0	85.3	4	25.5	4	-1E+10	1	-1E+10	1	-1E+10	1	-1E+10	1	-1E+10	1	-1E+10	1
4902642	36	C	06/15/2025	03:11	-131.384	46.066	0	3029.20	0	1.6360	0	34.6480	4	27.734	0	2982.876	0	85.3	4	25.5	4	-1E+10	1	-1E+10	1	-1E+10	1	-1E+10	1	-1E+10	1	-1E+10	1
4902642	36	C	06/15/2025	03:11	-131.384	46.066	0	3030.20	0	1.6360	0	34.6480	4	27.734	0	2983.854	0	85.3	4	25.5	4	-1E+10	1	-1E+10	1	-1E+10	1	-1E+10	1	-1E+10	1	-1E+10	1
4902642	36	C	06/15/2025	03:11	-131.384	46.066	0	3031.20	0	1.6360	0	34.6480	4	27.734	0	2984.832	0	85.4	4	25.5	4	-1E+10	1	-1E+10	1	-1E+10	1	-1E+10	1	-1E+10	1	-1E+10	1
4902642	36	C	06/15/2025	03:11	-131.384	46.066	0	3032.10	0	1.6360	0	34.6480	4	27.734	0	2985.712	0	85.4	4	25.5	4	-1E+10	1	-1E+10	1	-1E+10	1	-1E+10	1	-1E+10	1	-1E+10	1
4902642	36	C	06/15/2025	03:11	-131.384	46.066	0	3033.50	0	1.6360	0	34.6480	4	27.734	0	2987.081	0	85.4	4	25.5	4	-1E+10	1	-1E+10	1	-1E+10	1	-1E+10	1	-1E+10	1	-1E+10	1
4902642	36	C	06/15/2025	03:11	-131.384	46.066	0	3035.00	0	1.6350	0	34.6480	4	27.734	0	2988.548	0	85.5	4	25.6	4	-1E+10	1	-1E+10	1	-1E+10	1	-1E+10	1	-1E+10	1	-1E+10	1
4902642	36	C	06/15/2025	03:11	-131.384	46.066	0	3035.90	0	1.6350	0	34.6480	4	27.734	0	2989.428	0	85.6	4	25.6	4	-1E+10	1	-1E+10	1	-1E+10	1	-1E+10	1	-1E+10	1	-1E+10	1
4902642	36	C	06/15/2025	03:11	-131.384	46.066	0	3036.80	0	1.6350	0	34.6480	4	27.734	0	2990.308	0	85.6	4	25.6	4	-1E+10	1	-1E+10	1	-1E+10	1	-1E+10	1	-1E+10	1	-1E+10	1
4902642	36	C	06/15/2025	03:11	-131.384	46.066	0	3037.70	0	1.6340	0	34.6480	4	27.734	0	2991.188	0	85.6	4	25.6	4	-1E+10	1	-1E+10	1	-1E+10	1	-1E+10	1	-1E+10	1	-1E+10	1
4902642	36	C	06/15/2025	03:11	-131.384	46.066	0	3038.70	0	1.6340	0	34.6480	4	27.734	0	2992.166	0	85.6	4	25.6	4	-1E+10	1	-1E+10	1	-1E+10	1	-1E+10	1	-1E+10	1	-1E+10	1
4902642	36	C	06/15/2025	03:11	-131.384	46.066	0	3039.60	0	1.6340	0	34.6490	4	27.735	0	2993.046	0	85.7	4	25.6	4	-1E+10	1	-1E+10	1	-1E+10	1	-1E+10	1	-1E+10	1	-1E+10	1
4902642	36	C	06/15/2025	03:11	-131.384	46.066	0	3040.40	0	1.6350	0	34.6480	4	27.734	0	2993.828	0	85.7	4	25.6	4	-1E+10	1	-1E+10	1	-1E+10	1	-1E+10	1	-1E+10	1	-1E+10	1
4902642	36	C	06/15/2025	03:11	-131.384	46.066	0	3041.20	0	1.6330	0	34.6480	4	27.734	0	2994.610	0	85.8	4	25.6	4	-1E+10	1	-1E+10	1	-1E+10	1	-1E+10	1	-1E+10	1	-1E+10	1
4902642	36	C	06/15/2025	03:11	-131.384	46.066	0	3042.60	0	1.6310	0	34.6490	4	27.735	0	2995.979	0	85.8	4	25.6	4	-1E+10	1	-1E+10	1	-1E+10	1	-1E+10	1	-1E+10	1	-1E+10	1
4902642	36	C	06/15/2025	03:11	-131.384	46.066	0	3043.30	0	1.6320	0	34.6490	4	27.735	0	2996.664	0	85.8	4	25.7	4	-1E+10	1	-1E+10	1	-1E+10	1	-1E+10	1	-1E+10	1	-1E+10	1
4902642	36	C	06/15/2025	03:11	-131.384	46.066	0	3044.40	0	1.6320	0	34.6480	4	27.734	0	2997.739	0	85.8	4	25.7	4	-1E+10	1	-1E+10	1	-1E+10	1	-1E+10	1	-1E+10	1	-1E+10	1
4902642	36	C	06/15/2025	03:11	-131.384	46.066	0	3045.50	0	1.6320	0	34.6490	4	27.735	0	2998.815	0	85.8	4	25.6	4	-1E+10	1	-1E+10	1	-1E+10	1	-1E+10	1	-1E+10	1	-1E+10	1
4902642	36	C	06/15/2025	03:11	-131.384	46.066	0	3046.50	0	1.6310	0	34.6480	4	27.734	0	2999.792	0	85.8	4	25.6	4	-1E+10	1	-1E+10	1	-1E+10	1	-1E+10	1	-1E+10	1	-1E+10	1
4902642	36	C	06/15/2025	03:11	-131.384	46.066	0	3047.60	0	1.6310	0	34.6490	4	27.735	0	3000.868	0	85.8	4	25.7	4	-1E+10	1	-1E+10	1	-1E+10	1	-1E+10	1	-1E+10	1	-1E+10	1
4902642	36	C	06/15/2025	03:11	-131.384	46.066	0	3048.30	0	1.6320	0	34.6490	4	27.735	0	3001.552	0	85.8	4	25.6	4	-1E+10	1	-1E+10	1	-1E+10	1	-1E+10	1	-1E+10	1	-1E+10	1
4902642	36	C	06/15/2025	03:11	-131.384	46.066	0	3049.40	0	1.6320	0	34.6490	4	27.735	0	3002.628	0	85.8	4	25.7	4	-1E+10	1	-1E+10	1	-1E+10	1	-1E+10	1	-1E+10	1	-1E+10	1
4902642	36	C	06/15/2025	03:11	-131.384	46.066	0	3050.40	0	1.6320	0	34.6490	4	27.735	0	3003.605	0	85.8	4	25.6	4	-1E+10	1	-1E+10	1	-1E+10	1	-1E+10	1	-1E+10	1	-1E+10	1
4902642	36	C	06/15/2025	03:11	-131.384	46.066	0	3051.50	0	1.6320	0	34.6490	4	27.735	0	3004.681	0	85.8	4	25.6	4	-1E+10	1	-1E+10	1	-1E+10	1	-1E+10	1	-1E+10	1	-1E+10	1
4902642	36	C	06/15/2025	03:11	-131.384	46.066	0	3052.70	0	1.6320	0	34.6490	4	27.735	0	3005.854	0	85.8	4	25.6	4	-1E+10	1	-1E+10	1	-1E+10	1	-1E+10	1	-1E+10	1	-1E+10	1
4902642	36	C	06/15/2025	03:11	-131.384	46.066	0	3053.70	0	1.6320	0	34.6490	4	27.735	0	3006.832	0	85.8	4	25.6	4	-1E+10	1	-1E+10	1	-1E+10	1	-1E+10	1	-1E+10	1	-1E+10	1
4902642	36	C	06/15/2025	03:11	-131.384	46.066	0	3054.70	0	1.6310	0	34.6490	4	27.735	0	3007.810	0	85.9	4	25.7	4	-1E+10	1	-1E+10	1	-1E+10	1	-1E+10	1	-1E+10	1	-1E+10	1
4902642	36	C	06/15/2025	03:11	-131.384	46.066	0																										
4902642	37	C	06/25/2025	00:23	-131.413	46.009	0	1.20	0	13.5910	0	32.3190	0	24.200	0	1.190	0	241.6	4	93.0	4	-1E+10	1	-1E+10	1	-1E+10	1	-1E+10	1	-1E+10	1	-1E+10	1
4902642	37	C	06/25/2025	00:23	-131.413	46.009	0	1.30	0	13.5890	0	32.3190	0	24.200	0	1.289	0	241.5	4	93.0	4	-1E+10	1	-1E+10	1	-1E+10	1	-1E+10	1	-1E+10	1	-1E+10	1
4902642	37	C	06/25/2025	00:23	-131.413	46.009	0	1.40	0	13.5895	0	32.3180	0	24.200	0	1.389	0	241.5	4	93.0	4	-1E+10	1	-1E+10	1	-1E+10	1	-1E+10	1	-1E+10	1	-1E+10	1
4902642	37	C	06/25/2025	00:23	-131.413	46.009	0	1.50	0	13.5870	0	32.3165	0	24.199	0	1.488	0	241.4	4	93.0	4	-1E+10	1	-1E+10	1	-1E+10	1	-1E+10	1	-1E+10	1	-1E+10	1
4902642	37	C	06/25/2025	00:23	-131.413	46.009	0	1.60	0	13.5870	0	32.3180	0	24.200	0	1.587	0	241.4	4	93.0	4	-1E+10	1	-1E+10	1	-1E+10	1	-1E+10	1	-1E+10	1	-1E+10	1
4902642	37	C	06/25/2025	00:23	-131.413	46.009	0	1.70	0	13.5830	0	32.3190	0	24.202	0	1.686	0	-1e10	1	-1e10	1	-1E+10	1	-1E+10	1	-1E+10	1	-1E+10	1	-1E+10	1	-1E+10	1
4902642	37	C	06/25/2025	00:23	-131.413	46.009	0	1.80	0	13.5650	0	32.2880	0	24.181	0	1.785	0	240.9	4	92.7	4	-1E+10	1	-1E+10	1	-1E+10	1	-1E+10	1	-1E+10	1	-1E+10	1
4902642	37	C	06/25/2025	00:23	-131.413	46.009	0	2.60	0	13.5630	0	32.2790	0	24.175	0	2.579	0	240.8	4	92.7	4	-1E+10	1	-1E+10	1	-1E+10	1	-1E+10	1	-1E+10	1	-1E+10	1
4902642	37	C	06/25/2025	00:23	-131.413	46.009	0	3.50	0	13.5540	0	32.3010	0	24.194	0	3.471	0	240.7	4	92.6	4	-1E+10	1	-1E+10	1	-1E+10	1	-1E+10	1	-1E+10	1	-1E+10	1
4902642	37	C	06/25/2025	00:23	-131.413	46.009	0	4.60	0	13.4460	0	32.3400	0	24.245	0	4.562	0	240.6	4	92.4	4	-1E+10	1	-1E+10	1	-1E+10	1	-1E+10	1	-1E+10	1	-1E+10	1
4902642	37	C	06/25/2025	00:23	-131.413	46.009	0	6.00	0	13.2680	0	32.3640	0	24.299	0	5.951	0	241.3	4	92.4	4	-1E+10	1	-1E+10	1	-1E+10	1	-1E+10	1	-1E+10	1	-1E+10	1
4902642	37	C	06/25/2025	00:23	-131.413	46.009	0	6.90	0	13.2320	0	32.3240	0	24.276	0	6.843	0	241.7	4	92.4	4	-1E+10	1	-1E+10	1	-1E+10	1	-1E+10	1	-1E+10	1	-1E+10	1
4902642	37	C	06/25/2025	00:23	-131.413	46.009	0	8.00	0	13.2180	0	32.3230	0	24.278	0	7.934	0	241.8	4	92.4	4	-1E+10	1	-1E+10	1	-1E+10	1	-1E+10	1	-1E+10	1	-1E+10	1
4902642	37	C	06/25/2025	00:23	-131.413	46.009	0	8.70	0	13.2130	0	32.3230	0	24.279	0	8.628	0	241.8	4	92.4	4	-1E+10	1	-1E+10	1	-1E+10	1	-1E+10	1	-1E+10	1	-1E+10	1
4902642	37	C	06/25/2025	00:23	-131.413	46.009	0	9.80	0	13.1990	0	32.3220	0	24.281	0	9.719	0	241.9	4	92.4	4	-1E+10	1	-1E+10	1	-1E+10	1	-1E+10	1	-1E+10	1	-1E+10	1
4902642	37	C	06/25/2025	00:23	-131.413	46.009	0	14.60	0	13.1550	0	32.3230	0	24.290	0	14.480	0	242.2	4	92.4	4	-1E+10	1	-1E+10	1	-1E+10	1	-1E+10	1	-1E+10	1	-1E+10	1
4902642	37	C	06/25/2025	00:23	-131.413	46.009	0	25.20	0	12.9860	0	32.3230	0	24.324	0	24.992	0	242.7	4	92.3	4	-1E+10	1	-1E+10	1	-1E+10	1	-1E+10	1	-1E+10	1	-1E+10	1
4902642	37	C	06/25/2025	00:23	-131.413	46.009	0	34.80	0	12.7550	0	32.3310	0	24.375	0	34.511	0	243.5	4	92.2	4	-1E+10	1	-1E+10	1	-1E+10	1	-1E+10	1	-1E+10	1	-1E+10	1
4902642	37	C	06/25/2025	00:23	-131.413	46.009	0	44.40	0	12.0140	0	32.3280	0	24.514	0	44.031	0	246.5	4	91.9	4	-1E+10	1	-1E+10	1	-1E+10	1	-1E+10	1	-1E+10	1	-1E+10	1
4902642	37	C	06/25/2025	00:23	-131.413	46.009	0	55.10	0	10.6930	0	32.3370	0	24.758	0	54.640	0	251.3	4	91.1	4	-1E+10	1	-1E+10	1	-1E+10	1	-1E+10	1	-1E+10	1	-1E+10	1
4902642	37	C	06/25/2025	00:23	-131.413	46.009	0	64.90	0	9.7090	0	32.3330	0	24.919	0	64.357	0	251.2	4	89.2	4	-1E+10	1	-1E+10	1	-1E+10	1	-1E+10	1	-1E+10	1	-1E+10	1
4902642	37	C	06/25/2025	00:23	-131.413	46.009	0	74.30	0	9.3100	0	32.3320	0	24.983	0	73.677	0	245.2	4	86.3	4	-1E+10	1	-1E+10	1	-1E+10	1	-1E+10	1	-1E+10	1	-1E+10	1
4902642	37	C	06/25/2025	00:23	-131.413	46.009	0	84.90	0	8.7990	0	32.3850	0	25.104	0	84.186	0	227.9	4	79.3	4	-1E+10	1	-1E+10	1	-1E+10	1	-1E+10	1	-1E+10	1	-1E+10	1
4902642	37	C	06/25/2025	00:23	-131.413	46.009	0	94.80	0	8.4240	0	32.6410	0	25.361	0	94.000	0	201.2	4	69.6	4	-1E+10	1	-1E+10	1	-1E+10	1	-1E+10	1	-1E+10	1	-1E+10	1
4902642	37	C	06/25/2025	00:23	-131.413	46.009	0	104.50	0	8.1490	0	32.9240	0	25.624	0	103.616	0	177.0	4	61.0	4	-1E+10	1	-1E+10	1	-1E+10	1	-1E+10	1	-1E+10	1	-1E+10	1
4902642	37	C	06/25/2025	00:23	-131.413	46.009	0	114.80	0	7.9190	0	33.1620	0	25.844	0	113.826	0	162.6	4	55.8	4	-1E+10	1	-1E+10	1	-1E+10	1	-1E+10	1	-1E+10	1	-1E+10	1
4902642	37	C	06/25/2025	00:23	-131.413	46.009	0	125.20	0	7.7030	0	33.3330	0	26.010	0	124.134	0	153.6	4	52.6	4	-1E+10	1	-1E+10	1	-1E+10	1	-1E+10	1	-1E+10	1	-1E+10	1
4902642	37	C	06/25/2025	00:23	-131.413	46.009	0	135.30	0	7.5570	0	33.4370	0	26.112	0	134.145	0	148.6	4	50.7	4	-1E+10	1	-1E+10	1	-1E+10	1	-1E+10	1	-1E+10	1	-1E+10	1
4902642	37	C	06/25/2025	00:23	-131.413	46.009	0	145.10	0	7.4070	0	33.5190	0	26.198	0	143.858	0	144.2	4	49.1	4	-1E+10	1	-1E+10	1	-1E+10	1	-1E+10	1	-1E+10	1	-1E+10	1
4902642	37	C	06/25/2025	00:23	-131.413	46.009	0	154.90	0	7.3490	0	33.5750	0	26.250	0	153.571	0	138.9	4	47.2	4	-1E+10	1	-1E+10	1	-1E+10	1	-1E+10	1	-1E+10	1	-1E+10	1
4902642	37	C	06/25/2025	00:23	-131.413	46.009	0	164.40	0	7.1960	0	33.6560	0	26.336	0	162.985	0	134.7	4	45.7	4	-1E+10	1	-1E+10	1	-1E+10	1	-1E+10	1	-1E+10	1	-1E+10	1
4902642	37	C	06/25/2025	00:23	-131.413	46.009	0	174.90	0	7.0660	0	33.7240	0	26.407	0	173.391	0	125.6	4	42.5	4	-1E+10	1	-1E+10	1	-1E+10	1	-1E+10	1	-1E+10	1	-1E+10	1
4902642	37	C	06/25/2025	00:23	-131.413	46.009	0	185.10	0	6.9920	0	33.7880	0	26.468	0	183.498	0	115.0	4	38.8	4	-1E+10	1	-1E+10	1	-1E+10	1	-1E+10	1	-1E+10	1	-1E+10	1
4902642	37	C	06/25/2025	00:23	-131.413	46.009	0	194.40	0	6.8670	0	33.8330	0	26.520	0	192.713	0	108.5	4	36.5	4	-1E+10	1	-1E+10	1	-1E+10	1	-1E+10	1	-1E+10	1	-1E+10	1
4902642	37	C	06/25/2025	00:23	-131.413	46.009	0	209.60	0	6.6480	0	33.8470	0	26.561	0	207.774	0	103.0	4	34.5	4	-1E+10	1	-1E+10	1	-1E+10	1	-1E+10	1	-1E+10	1	-1E+10	1
4902642	37	C	06/25/2025	00:23	-131.413	46.009	0	229.80	0	6.4790	0	33.8740	0	26.604	0	227.787	0	91.4	4	30.5	4	-1E+10	1	-1E+10	1	-1E+10	1	-1E+10	1	-1E+10	1	-1E+10	1
4902642	37	C	06/25/2025	00:23	-131.413	46.009	0	249.80	0	6.2660	0	33.8890	0	26.644	0	247.599	0	86.7	4	28.8	4	-1E+10	1	-1E+10	1	-1E+10	1	-1E+10	1	-1E+10	1	-1E+10	1
4902642	37	C	06/25/2025	00:23	-131.413	46.009	0	269.40	0	6.0700	0	33.8950	0	26.674	0	267.014	0	75.9	4	25.1	4	-1E+10	1	-1E+10	1	-1E+10	1	-1E+10	1	-1E+10	1	-1E+10	1
4902642	37	C	06/25/2025	00:23	-131.413	46.009	0	289.50	0	6.0180	0	33.9340	0	26.711	0	286.922	0	64.6	4	21.3	4	-1E+10	1	-1E+10	1	-1E+10	1	-1E+10	1	-1E+10	1	-1E+10	1
4902642	37	C	06/25/2025	00:23	-131.413	46.009	0	309.80	0	5.8430	0	33.9520	0	26.747	0	307.026	0	58.7	4	19.3	4	-1E+10	1	-1E+10	1	-1E+10	1	-1E+10	1	-1E+10	1	-1E+10	1
4902642	37	C	06/25/2025	00:23	-131.413	46.009	0	330.60	0	5.6420	0	33.9660	0	26.783	0	327.624	0	54.7	4	17.9	4	-1E+10	1	-1E+10	1	-1E+10	1	-1E+10	1	-1E+10	1	-1E+10	1
4902642	37	C	06/25/2025	00:23	-131.413	46.009	0	349.80	0	5.3060	0	33.9530	0	26.813	0	346.635	0	56.8	4	18.5	4	-1E+10	1	-1E+10	1	-1E+10	1	-1E+10	1	-1E+10	1	-1E+10	1
4902642	37	C	06/25/2025	00:23	-131.413	46.009	0	369.70	0	5.1090	0	33.9450	0	26.830	0	366.337	0	53.1	4	17.2	4	-1E+10	1	-1E+10	1	-1E+10	1	-1E+10	1	-1E+10	1	-1E+10	1
4902642	37	C	06/25/2025	00:23	-131.413	46.009	0	389.80	0	5.0580	0	33.9680	0	26.854	0	386.236	0	48.3	4	15.6	4	-1E+10	1	-1E+10	1	-1E+10	1	-1E+10	1	-1E+10	1	-1E+10	1
4902642	37	C	06/25/2025	00:23	-131.413	46.009	0	409.90	0	4.9010	0	33.9760	0	26.878	0	406.132	0	45.7	4	14.7	4	-1E+10	1	-1E+10	1	-1E+10	1	-1E+10	1	-1E+10	1	-1E+10	1
4902642	37	C	06/25/2025	00:23	-131.413	46.009	0	430.00	0	4.8040	0	33.9850	0	26.896	0	426.027	0	43.4	4	13.9	4	-1E+10	1	-1E+10	1	-1E+10	1	-1E+10	1	-1E+10	1	-1E+10	1
4902642	37	C	06/25/2025	00:23	-131.413	46.009	0	450.00	0	4.7210	0	33.9940	0	26.913	0	445.821	0	40.8	4	13.1	4	-1E+10	1	-1E+10	1	-1E+10	1	-1E+10	1	-1E+10	1	-1E+10	1
4902642	37	C	06/25/2025	00:23	-131.413	46.009	0	469.90	0	4.6720	0	34.0120	0	26.933	0	465.513	0	36.5	4	11.7	4	-1E+10	1	-1E+10	1	-1E+10	1	-1E+10	1	-1E+10	1	-1E+10	1
4902642	37	C	06/25/2025	00:23	-131.413	46.009	0	489.90	0	4.6120	0	34.0340	0	26.957	0	485.303	0	32.3	4	10.3	4	-1E+10	1	-1E+10	1	-1E+10	1	-1E+10	1	-1E+10	1	-1E+10	1
4902642	37	C	06/25/2025	00:23	-131.413	46.009	0	509.80	0	4.5240	0	34.0540	0	26.983	0	504.993	0	28.5	4	9.1	4	-1E+10	1	-1E+10	1	-1E+10	1	-1E+10	1	-1E+10	1	-1E+10	1
4902642	37	C	06/25/2025	00:23	-131.413	46.009	0	529.60	0	4.4720	0	34.0700	0	27.001	0	524.581	0	25.4	4	8.1	4	-1E+10	1	-1E+10	1	-1E+10	1	-1E+10	1	-1E+10	1	-1E+10	1
4902642	37	C	06/25/2025	00:23	-131.413	46.009	0	550.30	0	4.4200	0	34.0900	0	27.023	0	545.058	0	21.8	4	6.9	4	-1E+10	1	-1E+10	1	-1E+10	1	-1E+10	1	-1E+10	1	-1E+10	1
4902642	37	C	06/25/2025	00:23	-131.413	46.009	0	569.50	0	4.3480	0	34.1130	0	27.049	0	564.049	0	18.5	4	5.9	4	-1E+10	1	-1E+10	1	-1E+10	1	-1E+10	1	-1E+10	1	-1E+10	1
4902642	37	C	06/25/2025	00:23	-131.413	46.009	0	589.50	0	4.3010	0	34.1370	0	27.073	0	583.829	0	15.5	4	4.9	4	-1E+10	1	-1E+10	1	-1E+10	1	-1E+10	1	-1E+10	1	-1E+10	1
4902642	37	C	06/25/2025	00:23	-131.413	46.009	0	609.80	0	4.2580	0	34.1530	0	27.090	0	603.904	0	13.5	4	4.3	4	-1E+10	1	-1E+10	1	-1E+10	1	-1E+10	1	-1E+10	1	-1E+10	1
4902642	37	C	06/25/2025	00:23	-131.413	46.009	0	629.40	0	4.2110	0	34.1710	0	27.110	0	623.286	0	12.2	4	3.9	4	-1E+10	1	-1E+10	1	-1E+10	1	-1E+10	1	-1E+10	1	-1E+10	1
4902642	37	C	06/25/2025	00:23	-131.413	46.009	0	649.50	0	4.1800	0	34.1690	0	27.112	0	643.159	0	11.1	4	3.5	4	-1E+10	1	-1E+10	1	-1E+10	1	-1E+10	1	-1E+10	1	-1E+10	1
4902642	37	C	06/25/2025	00:23	-131.413	46.009	0	669.70	0	4.1270	0	34.1770	0	27.124	0	663.130	0	10.2	4	3.2	4	-1E+10	1	-1E+10	1	-1E+10	1	-1E+10	1	-1E+10	1	-1E+10	1
4902642	37	C	06/25/2025	00:23	-131.413	46.009	0	689.70	0	4.0650	0	34.2040	0	27.152	0	682.901	0	9.3	4	2.9	4	-1E+10	1	-1E+10	1	-1E+10	1	-1E+10	1	-1E+10	1	-1E+10	1
4902642	37	C	06/25/2025	00:23	-131.413	46.009	0	709.40	0	4.0020	0	34.2250	0	27.175	0	702.374	0	8.5	4	2.7	4	-1E+10	1	-1E+10	1	-1E+10	1	-1E+10	1	-1E+10	1	-1E+10	1
4902642	37	C	06/25/2025	00:23	-131.413	46.009	0	729.70	0	3.9470	0	34.2380	0	27.191	0	722.437	0	7.8	4	2.5	4	-1E+10	1	-1E+10	1	-1E+10	1	-1E+10	1	-1E+10	1	-1E+10	1
4902642	37	C	06/25/2025	00:23	-131.413	46.009	0	749.70	0	3.8880	0	34.2530	0	27.209	0	742.203	0	7.2	4	2.3	4	-1E+10	1	-1E+10	1	-1E+10	1	-1E+10	1	-1E+10	1	-1E+10	1
4902642	37	C	06/25/2025	00:23	-131.413	46.009	0	770.50	0	3.8350	0	34.2680	0	27.226	0	762.757	0	6.7	4	2.1	4	-1E+10	1	-1E+10	1	-1E+10	1	-1E+10	1	-1E+10	1	-1E+10	1
4902642	37	C	06/25/2025	00:23	-131.413	46.009	0	789.80	0	3.7360	0	34.2770	0	27.243	0	781.827	0	6.5	4	2.1	4	-1E+10	1	-1E+10	1	-1E+10	1	-1E+10	1	-1E+10	1	-1E+10	1
4902642	37	C	06/25/2025	00:23	-131.413	46.009	0	809.40	0	3.6900	0	34.2890	0	27.258	0	801.191	0	6.1	4	1.9	4	-1E+10	1	-1E+10	1	-1E+10	1	-1E+10	1	-1E+10	1	-1E+10	1
4902642	37	C	06/25/2025	00:23	-131.413	46.009	0	830.30	0	3.6630	0	34.3040	0	27.272	0	821.838	0	5.7	4	1.8	4	-1E+10	1	-1E+10	1	-1E+10	1	-1E+10	1	-1E+10	1	-1E+10	1
4902642	37	C	06/25/2025	00:23	-131.413	46.009	0	849.80	0	3.6700	0	34.3190	0	27.284	0	841.100	0	5.5	4	1.7	4	-1E+10	1	-1E+10	1	-1E+10	1	-1E+10	1	-1E+10	1	-1E+10	1
4902642	37	C	06/25/2025	00:23	-131.413	46.009	0	869.90	0	3.6520	0	34.3320	0	27.296	0	860.953	0	5.3	4	1.7	4	-1E+10	1	-1E+10	1	-1E+10	1	-1E+10	1	-1E+10	1	-1E+10	1
4902642	37	C	06/25/2025	00:23	-131.413	46.009	0	890.00	0	3.6350	0	34.3460	0	27.309	0	880.804	0	5.3	4	1.7	4	-1E+10	1	-1E+10	1	-1E+10	1	-1E+10	1	-1E+10	1	-1E+10	1
4902642	37	C	06/25/2025	00:23	-131.413	46.009	0	910.00	0	3.5980	0	34.3570	0	27.322	0	900.554	0	5.5	4	1.7	4	-1E+10	1	-1E+10	1	-1E+10	1	-1E+10	1	-1E+10	1	-1E+10	1
4902642	37	C	06/25/2025	00:23	-131.413	46.009	0	929.70	0	3.5600	0	34.3670	0	27.333	0	920.007	0	5.6	4	1.8	4	-1E+10	1	-1E+10	1	-1E+10	1	-1E+10	1	-1E+10	1	-1E+10	1
4902642	37	C	06/25/2025	00:23	-131.413	46.009	0	949.90	0	3.5230	0	34.3750	0	27.344	0	939.951	0	5.8	4	1.8	4	-1E+10	1	-1E+10	1	-1E+10	1	-1E+10	1	-1E+10	1	-1E+10	1
4902642	37	C	06/25/2025	00:23	-131.413	46.009	0	970.10	0	3.4900	0	34.3820	0	27.352	0	959.893	0	6.1	4	1.9	4	-1E+10	1	-1E+10	1	-1E+10	1	-1E+10	1	-1E+10	1	-1E+10	1
4902642	37	C	06/25/2025	00:23	-131.413	46.009	0	989.80	0	3.4400	0	34.3920	0	27.365	0	979.340	0	6.4	4	2.0	4	-1E+10	1	-1E+10	1	-1E+10	1	-1E+10	1	-1E+10	1	-1E+10	1
4902642	37	C	06/25/2025	00:23	-131.413	46.009	0	1009.80	0	3.4150	0	34.4000	0	27.374	0	999.081	0	6.7	4	2.1	4	-1E+10	1	-1E+10	1	-1E+10	1	-1E+10	1	-1E+10	1	-1E+10	1
4902642	37	C	06/25/2025	00:23	-131.413	46.009	0	1030.10	0	3.3740	0	34.4080	0	27.385	0	1019.116	0	7.1	4	2.2	4	-1E+10	1	-1E+10	1	-1E+10	1	-1E+10	1	-1E+10	1	-1E+10	1
4902642	37	C	06/25/2025	00:23	-131.413	46.009	0	1049.80	0	3.3390	0	34.4130	0	27.392	0	1038.557	0	7.4	4	2.3	4	-1E+10	1	-1E+10	1	-1E+10	1	-1E+10	1	-1E+10	1	-1E+10	1
4902642	37	C	06/25/2025	00:23	-131.413	46.009	0	1069.80	0	3.3030	0	34.4190	0	27.400	0	1058.292	0	7.8	4	2.4	4	-1E+10	1	-1E+10	1	-1E+10	1	-1E+10	1	-1E+10	1	-1E+10	1
4902642	37	C	06/25/2025	00:23	-131.413	46.009	0	1090.10	0	3.2400	0	34.4250	0	27.411	0	1078.322	0	8.1	4	2.5	4	-1E+10	1	-1E+10	1	-1E+10	1	-1E+10	1	-1E+10	1	-1E+10	1
4902642	37	C	06/25/2025	00:23	-131.413	46.009	0	1110.10	0	3.1920	0	34.4300	0	27.420	0	1098.053	0	8.5	4	2.6	4	-1E+10	1	-1E+10	1	-1E+10	1	-1E+10	1	-1E+10	1	-1E+10	1
4902642	37	C	06/25/2025	00:23	-131.413	46.009	0	1129.80	0	3.1520	0	34.4350	0	27.427	0	1117.487	0	8.8	4	2.7	4	-1E+10	1	-1E+10	1	-1E+10	1	-1E+10	1	-1E+10	1	-1E+10	1
4902642	37	C	06/25/2025	00:23	-131.413	46.009	0	1150.00	0	3.1220	0	34.4390	0	27.434	0	1137.412	0	9.2	4	2.8	4	-1E+10	1	-1E+10	1	-1E+10	1	-1E+10	1	-1E+10	1	-1E+10	1
4902642	37	C	06/25/2025	00:23	-131.413	46.009	0	1169.70	0	3.0830	0	34.4450	0	27.442	0	1156.843	0	9.7	4	3.0	4	-1E+10	1	-1E+10	1	-1E+10	1	-1E+10	1	-1E+10	1	-1E+10	1
4902642	37	C	06/25/2025	00:23	-131.413	46.009	0	1189.80	0	3.0550	0	34.4490	0	27.448	0	1176.666	0	10.2	4	3.1	4	-1E+10	1	-1E+10	1	-1E+10	1	-1E+10	1	-1E+10	1	-1E+10	1
4902642	37	C	06/25/2025	00:23	-131.413	46.009	0	1210.90	0	3.0160	0	34.4540	0	27.455	0	1197.473	0	10.8	4	3.3	4	-1E+10	1	-1E+10	1	-1E+10	1	-1E+10	1	-1E+10	1	-1E+10	1
4902642	37	C	06/25/2025	00:23	-131.413	46.009	0	1229.90	0	2.9770	0	34.4610	0	27.465	0	1216.207	0	11.7	4	3.6	4	-1E+10	1	-1E+10	1	-1E+10	1	-1E+10	1	-1E+10	1	-1E+10	1
4902642	37	C	06/25/2025	00:23	-131.413	46.009	0	1249.50	0	2.9370	0	34.4660	0	27.472	0	1235.531	0	12.4	4	3.8	4	-1E+10	1	-1E+10	1	-1E+10	1	-1E+10	1	-1E+10	1	-1E+10	1
4902642	37	C	06/25/2025	00:23	-131.413	46.009	0	1269.30	0	2.9010	0	34.4700	0	27.479	0	1255.051	0	12.9	4	4.0	4	-1E+10	1	-1E+10	1	-1E+10	1	-1E+10	1	-1E+10	1	-1E+10	1
4902642	37	C	06/25/2025	00:23	-131.413	46.009	0	1289.30	0	2.8730	0	34.4740	0	27.485	0	1274.766	0	13.5	4	4.2	4	-1E+10	1	-1E+10	1	-1E+10	1	-1E+10	1	-1E+10	1	-1E+10	1
4902642	37	C	06/25/2025	00:23	-131.413	46.009	0	1309.60	0	2.8360	0	34.4780	0	27.491	0	1294.775	0	14.4	4	4.4	4	-1E+10	1	-1E+10	1	-1E+10	1	-1E+10	1	-1E+10	1	-1E+10	1
4902642	37	C	06/25/2025	00:23	-131.413	46.009	0	1329.60	0	2.7910	0	34.4830	0	27.499	0	1314.486	0	15.3	4	4.7	4	-1E+10	1	-1E+10	1	-1E+10	1	-1E+10	1	-1E+10	1	-1E+10	1
4902642	37	C	06/25/2025	00:23	-131.413	46.009	0	1349.40	0	2.7510	0	34.4890	0	27.508	0	1333.998	0	16.3	4	5.0	4	-1E+10	1	-1E+10	1	-1E+10	1	-1E+10	1	-1E+10	1	-1E+10	1
4902642	37	C	06/25/2025	00:23	-131.413	46.009	0	1369.90	0	2.7090	0	34.4940	0	27.515	0	1354.198	0	17.4	4	5.3	4	-1E+10	1	-1E+10	1	-1E+10	1	-1E+10	1	-1E+10	1	-1E+10	1
4902642	37	C	06/25/2025	00:23	-131.413	46.009	0	1390.10	0	2.6600	0	34.5000	0	27.525	0	1374.101	0	18.6	4	5.7	4	-1E+10	1	-1E+10	1	-1E+10	1	-1E+10	1	-1E+10	1	-1E+10	1
4902642	37	C	06/25/2025	00:23	-131.413	46.009	0	1409.70	0	2.6220	0	34.5040	0	27.531	0	1393.411	0	19.6	4	6.0	4	-1E+10	1	-1E+10	1	-1E+10	1	-1E+10	1	-1E+10	1	-1E+10	1
4902642	37	C	06/25/2025	00:23	-131.413	46.009	0	1429.40	0	2.5840	0	34.5070	0	27.537	0	1412.817	0	20.7	4	6.3	4	-1E+10	1	-1E+10	1	-1E+10	1	-1E+10	1	-1E+10	1	-1E+10	1
4902642	37	C	06/25/2025	00:23	-131.413	46.009	0	1449.30	0	2.5290	0	34.5120	0	27.546	0	1432.419	0	22.0	4	6.7	4	-1E+10	1	-1E+10	1	-1E+10	1	-1E+10	1	-1E+10	1	-1E+10	1
4902642	37	C	06/25/2025	00:23	-131.413	46.009	0	1470.40	0	2.4860	0	34.5160	0	27.553	0	1453.201	0	23.2	4	7.1	4	-1E+10	1	-1E+10	1	-1E+10	1	-1E+10	1	-1E+10	1	-1E+10	1
4902642	37	C	06/25/2025	00:23	-131.413	46.009	0	1490.10	0	2.4550	0	34.5200	0	27.558	0	1472.601	0	24.3	4	7.4	4	-1E+10	1	-1E+10	1	-1E+10	1	-1E+10	1	-1E+10	1	-1E+10	1
4902642	37	C	06/25/2025	00:23	-131.413	46.009	0	1510.10	0	2.4210	0	34.5240	0	27.565	0	1492.296	0	25.5	4	7.8	4	-1E+10	1	-1E+10	1	-1E+10	1	-1E+10	1	-1E+10	1	-1E+10	1
4902642	37	C	06/25/2025	00:23	-131.413	46.009	0	1530.40	0	2.3900	0	34.5290	0	27.571	0	1512.284	0	26.8	4	8.2	4	-1E+10	1	-1E+10	1	-1E+10	1	-1E+10	1	-1E+10	1	-1E+10	1
4902642	37	C	06/25/2025	00:23	-131.413	46.009	0	1549.70	0	2.3610	0	34.5330	0	27.577	0	1531.286	0	28.0	4	8.5	4	-1E+10	1	-1E+10	1	-1E+10	1	-1E+10	1	-1E+10	1	-1E+10	1
4902642	37	C	06/25/2025	00:23	-131.413	46.009	0	1569.80	0	2.3300	0	34.5380	0	27.584	0	1551.073	0	29.3	4	8.9	4	-1E+10	1	-1E+10	1	-1E+10	1	-1E+10	1	-1E+10	1	-1E+10	1
4902642	37	C	06/25/2025	00:23	-131.413	46.009	0	1590.30	0	2.3080	0	34.5410	0	27.588	0	1571.253	0	30.2	4	9.2	4	-1E+10	1	-1E+10	1	-1E+10	1	-1E+10	1	-1E+10	1	-1E+10	1
4902642	37	C	06/25/2025	00:23	-131.413	46.009	0	1609.60	0	2.2880	0	34.5430	0	27.591	0	1590.249	0	31.2	4	9.5	4	-1E+10	1	-1E+10	1	-1E+10	1	-1E+10	1	-1E+10	1	-1E+10	1
4902642	37	C	06/25/2025	00:23	-131.413	46.009	0	1629.70	0	2.2600	0	34.5470	0	27.597	0	1610.031	0	32.3	4	9.8	4	-1E+10	1	-1E+10	1	-1E+10	1	-1E+10	1	-1E+10	1	-1E+10	1
4902642	37	C	06/25/2025	00:23	-131.413	46.009	0	1649.70	0	2.2450	0	34.5480	0	27.599	0	1629.713	0	32.9	4	10.0	4	-1E+10	1	-1E+10	1	-1E+10	1	-1E+10	1	-1E+10	1	-1E+10	1
4902642	37	C	06/25/2025	00:23	-131.413	46.009	0	1669.70	0	2.2280	0	34.5500	0	27.602	0	1649.393	0	33.8	4	10.2	4	-1E+10	1	-1E+10	1	-1E+10	1	-1E+10	1	-1E+10	1	-1E+10	1
4902642	37	C	06/25/2025	00:23	-131.413	46.009	0	1689.60	0	2.1980	0	34.5530	0	27.607	0	1668.972	0	35.0	4	10.6	4	-1E+10	1	-1E+10	1	-1E+10	1	-1E+10	1	-1E+10	1	-1E+10	1
4902642	37	C	06/25/2025	00:23	-131.413	46.009	0	1709.70	0	2.1770	0	34.5560	0	27.611	0	1688.747	0	36.1	4	10.9	4	-1E+10	1	-1E+10	1	-1E+10	1	-1E+10	1	-1E+10	1	-1E+10	1
4902642	37	C	06/25/2025	00:23	-131.413	46.009	0	1729.90	0	2.1540	0	34.5600	0	27.616	0	1708.618	0	37.4	4	11.3	4	-1E+10	1	-1E+10	1	-1E+10	1	-1E+10	1	-1E+10	1	-1E+10	1
4902642	37	C	06/25/2025	00:23	-131.413	46.009	0	1749.90	0	2.1420	0	34.5620	0	27.619	0	1728.291	0	38.0	4	11.5	4	-1E+10	1	-1E+10	1	-1E+10	1	-1E+10	1	-1E+10	1	-1E+10	1
4902642	37	C	06/25/2025	00:23	-131.413	46.009	0	1770.10	0	2.1240	0	34.5640	0	27.622	0	1748.158	0	39.1	4	11.8	4	-1E+10	1	-1E+10	1	-1E+10	1	-1E+10	1	-1E+10	1	-1E+10	1
4902642	37	C	06/25/2025	00:23	-131.413	46.009	0	1789.70	0	2.1100	0	34.5670	0	27.626	0	1767.434	0	39.9	4	12.1	4	-1E+10	1	-1E+10	1	-1E+10	1	-1E+10	1	-1E+10	1	-1E+10	1
4902642	37	C	06/25/2025	00:23	-131.413	46.009	0	1809.50	0	2.0950	0	34.5690	0	27.629	0	1786.904	0	40.9	4	12.4	4	-1E+10	1	-1E+10	1	-1E+10	1	-1E+10	1	-1E+10	1	-1E+10	1
4902642	37	C	06/25/2025	00:23	-131.413	46.009	0	1829.90	0	2.0750	0	34.5710	0	27.632	0	1806.963	0	42.0	4	12.7	4	-1E+10	1	-1E+10	1	-1E+10	1	-1E+10	1	-1E+10	1	-1E+10	1
4902642	37	C	06/25/2025	00:23	-131.413	46.009	0	1850.00	0	2.0550	0	34.5740	0	27.636	0	1826.724	0	43.1	4	13.0	4	-1E+10	1	-1E+10	1	-1E+10	1	-1E+10	1	-1E+10	1	-1E+10	1
4902642	37	C	06/25/2025	00:23	-131.413	46.009	0	1870.00	0	2.0380	0	34.5760	0	27.639	0	1846.386	0	44.1	4	13.3	4	-1E+10	1	-1E+10	1	-1E+10	1	-1E+10	1	-1E+10	1	-1E+10	1
4902642	37	C	06/25/2025	00:23	-131.413	46.009	0	1890.50	0	2.0260	0	34.5790	0	27.642	0	1866.537	0	45.1	4	13.6	4	-1E+10	1	-1E+10	1	-1E+10	1	-1E+10	1	-1E+10	1	-1E+10	1
4902642	37	C	06/25/2025	00:23	-131.413	46.009	0	1909.80	0	2.0090	0	34.5820	0	27.646	0	1885.507	0	46.3	4	14.0	4	-1E+10	1	-1E+10	1	-1E+10	1	-1E+10	1	-1E+10	1	-1E+10	1
4902642	37	C	06/25/2025	00:23	-131.413	46.009	0	1929.90	0	1.9950	0	34.5840	0	27.649	0	1905.262	0	47.4	4	14.3	4	-1E+10	1	-1E+10	1	-1E+10	1	-1E+10	1	-1E+10	1	-1E+10	1
4902642	37	C	06/25/2025	00:23	-131.413	46.009	0	1949.70	0	1.9780	0	34.5870	0	27.653	0	1924.719	0	48.5	4	14.6	4	-1E+10	1	-1E+10	1	-1E+10	1	-1E+10	1	-1E+10	1	-1E+10	1
4902642	37	C	06/25/2025	00:23	-131.413	46.009	0	1970.00	0	1.9670	0	34.5890	0	27.655	0	1944.667	0	49.2	4	14.8	4	-1E+10	1	-1E+10	1	-1E+10	1	-1E+10	1	-1E+10	1	-1E+10	1
4902642	37	C	06/25/2025	00:23	-131.413	46.009	0	1989.70	0	1.9600	0	34.5900	0	27.657	0	1964.023	0	50.0	4	15.1	4	-1E+10	1	-1E+10	1	-1E+10	1	-1E+10	1	-1E+10	1	-1E+10	1
4902642	37	C	06/25/2025	00:23	-131.413	46.009	0	2009.50	0	1.9470	0	34.5930	4	27.660	0	1983.475	0	51.0	4	15.4	4	-1E+10	1	-1E+10	1	-1E+10	1	-1E+10	1	-1E+10	1	-1E+10	1
4902642	37	C	06/25/2025	00:23	-131.413	46.009	0	2029.80	0	1.9360	0	34.5950	4	27.663	0	2003.417	0	51.9	4	15.6	4	-1E+10	1	-1E+10	1	-1E+10	1	-1E+10	1	-1E+10	1	-1E+10	1
4902642	37	C	06/25/2025	00:23	-131.413	46.009	0	2050.00	0	1.9260	0	34.5970	4	27.665	0	2023.258	0	52.6	4	15.8	4	-1E+10	1	-1E+10	1	-1E+10	1	-1E+10	1	-1E+10	1	-1E+10	1
4902642	37	C	06/25/2025	00:23	-131.413	46.009	0	2070.00	0	1.9190	0	34.5980	4	27.667	0	2042.902	0	53.2	4	16.0	4	-1E+10	1	-1E+10	1	-1E+10	1	-1E+10	1	-1E+10	1	-1E+10	1
4902642	37	C	06/25/2025	00:23	-131.413	46.009	0	2089.80	0	1.9130	0	34.5990	4	27.668	0	2062.347	0	53.8	4	16.2	4	-1E+10	1	-1E+10	1	-1E+10	1	-1E+10	1	-1E+10	1	-1E+10	1
4902642	37	C	06/25/2025	00:23	-131.413	46.009	0	2109.70	0	1.9070	0	34.6010	4	27.670	0	2081.889	0	54.4	4	16.4	4	-1E+10	1	-1E+10	1	-1E+10	1	-1E+10	1	-1E+10	1	-1E+10	1
4902642	37	C	06/25/2025	00:23	-131.413	46.009	0	2130.60	0	1.9010	0	34.6020	4	27.672	0	2102.410	0	55.1	4	16.6	4	-1E+10	1	-1E+10	1	-1E+10	1	-1E+10	1	-1E+10	1	-1E+10	1
4902642	37	C	06/25/2025	00:23	-131.413	46.009	0	2149.80	0	1.8970	0	34.6030	4	27.673	0	2121.261	0	55.5	4	16.7	4	-1E+10	1	-1E+10	1	-1E+10	1	-1E+10	1	-1E+10	1	-1E+10	1
4902642	37	C	06/25/2025	00:23	-131.413	46.009	0	2169.80	0	1.8930	0	34.6040	4	27.674	0	2140.896	0	56.1	4	16.9	4	-1E+10	1	-1E+10	1	-1E+10	1	-1E+10	1	-1E+10	1	-1E+10	1
4902642	37	C	06/25/2025	00:23	-131.413	46.009	0	2189.90	0	1.8860	0	34.6060	4	27.677	0	2160.626	0	56.8	4	17.1	4	-1E+10	1	-1E+10	1	-1E+10	1	-1E+10	1	-1E+10	1	-1E+10	1
4902642	37	C	06/25/2025	00:23	-131.413	46.009	0	2209.90	0	1.8800	0	34.6070	4	27.678	0	2180.257	0	57.5	4	17.3	4	-1E+10	1	-1E+10	1	-1E+10	1	-1E+10	1	-1E+10	1	-1E+10	1
4902642	37	C	06/25/2025	00:23	-131.413	46.009	0	2230.10	0	1.8730	0	34.6090	4	27.680	0	2200.082	0	58.1	4	17.5	4	-1E+10	1	-1E+10	1	-1E+10	1	-1E+10	1	-1E+10	1	-1E+10	1
4902642	37	C	06/25/2025	00:23	-131.413	46.009	0	2249.80	0	1.8680	0	34.6100	4	27.681	0	2219.415	0	58.6	4	17.6	4	-1E+10	1	-1E+10	1	-1E+10	1	-1E+10	1	-1E+10	1	-1E+10	1
4902642	37	C	06/25/2025	00:23	-131.413	46.009	0	2269.70	0	1.8620	0	34.6110	4	27.683	0	2238.942	0	59.4	4	17.8	4	-1E+10	1	-1E+10	1	-1E+10	1	-1E+10	1	-1E+10	1	-1E+10	1
4902642	37	C	06/25/2025	00:23	-131.413	46.009	0	2289.70	0	1.8540	0	34.6130	4	27.685	0	2258.566	0	60.0	4	18.0	4	-1E+10	1	-1E+10	1	-1E+10	1	-1E+10	1	-1E+10	1	-1E+10	1
4902642	37	C	06/25/2025	00:23	-131.413	46.009	0	2310.40	0	1.8500	0	34.6130	4	27.686	0	2278.874	0	60.5	4	18.2	4	-1E+10	1	-1E+10	1	-1E+10	1	-1E+10	1	-1E+10	1	-1E+10	1
4902642	37	C	06/25/2025	00:23	-131.413	46.009	0	2329.60	0	1.8440	0	34.6150	4	27.688	0	2297.709	0	61.2	4	18.4	4	-1E+10	1	-1E+10	1	-1E+10	1	-1E+10	1	-1E+10	1	-1E+10	1
4902642	37	C	06/25/2025	00:23	-131.413	46.009	0	2349.40	0	1.8390	0	34.6160	4	27.689	0	2317.131	0	61.7	4	18.5	4	-1E+10	1	-1E+10	1	-1E+10	1	-1E+10	1	-1E+10	1	-1E+10	1
4902642	37	C	06/25/2025	00:23	-131.413	46.009	0	2369.80	0	1.8360	0	34.6160	4	27.689	0	2337.140	0	62.0	4	18.6	4	-1E+10	1	-1E+10	1	-1E+10	1	-1E+10	1	-1E+10	1	-1E+10	1
4902642	37	C	06/25/2025	00:23	-131.413	46.009	0	2389.90	0	1.8350	0	34.6170	4	27.690	0	2356.853	0	62.3	4	18.7	4	-1E+10	1	-1E+10	1	-1E+10	1	-1E+10	1	-1E+10	1	-1E+10	1
4902642	37	C	06/25/2025	00:23	-131.413	46.009	0	2409.70	0	1.8320	0	34.6170	4	27.691	0	2376.269	0	62.8	4	18.9	4	-1E+10	1	-1E+10	1	-1E+10	1	-1E+10	1	-1E+10	1	-1E+10	1
4902642	37	C	06/25/2025	00:23	-131.413	46.009	0	2429.60	0	1.8260	0	34.6180	4	27.692	0	2395.782	0	63.5	4	19.1	4	-1E+10	1	-1E+10	1	-1E+10	1	-1E+10	1	-1E+10	1	-1E+10	1
4902642	37	C	06/25/2025	00:23	-131.413	46.009	0	2449.70	0	1.8180	0	34.6200	4	27.694	0	2415.490	0	64.3	4	19.3	4	-1E+10	1	-1E+10	1	-1E+10	1	-1E+10	1	-1E+10	1	-1E+10	1
4902642	37	C	06/25/2025	00:23	-131.413	46.009	0	2469.70	0	1.8120	0	34.6210	4	27.696	0	2435.097	0	64.8	4	19.5	4	-1E+10	1	-1E+10	1	-1E+10	1	-1E+10	1	-1E+10	1	-1E+10	1
4902642	37	C	06/25/2025	00:23	-131.413	46.009	0	2489.60	0	1.8080	0	34.6210	4	27.696	0	2454.605	0	65.5	4	19.7	4	-1E+10	1	-1E+10	1	-1E+10	1	-1E+10	1	-1E+10	1	-1E+10	1
4902642	37	C	06/25/2025	00:23	-131.413	46.009	0	2509.60	0	1.7970	0	34.6230	4	27.699	0	2474.208	0	66.2	4	19.9	4	-1E+10	1	-1E+10	1	-1E+10	1	-1E+10	1	-1E+10	1	-1E+10	1
4902642	37	C	06/25/2025	00:23	-131.413	46.009	0	2529.60	0	1.7920	0	34.6230	4	27.699	0	2493.811	0	66.7	4	20.0	4	-1E+10	1	-1E+10	1	-1E+10	1	-1E+10	1	-1E+10	1	-1E+10	1
4902642	37	C	06/25/2025	00:23	-131.413	46.009	0	2549.80	0	1.7900	0	34.6240	4	27.700	0	2513.607	0	67.4	4	20.2	4	-1E+10	1	-1E+10	1	-1E+10	1	-1E+10	1	-1E+10	1	-1E+10	1
4902642	37	C	06/25/2025	00:23	-131.413	46.009	0	2569.80	0	1.7830	0	34.6260	4	27.703	0	2533.205	0	68.5	4	20.5	4	-1E+10	1	-1E+10	1	-1E+10	1	-1E+10	1	-1E+10	1	-1E+10	1
4902642	37	C	06/25/2025	00:23	-131.413	46.009	0	2589.50	0	1.7730	0	34.6270	4	27.704	0	2552.508	0	69.4	4	20.8	4	-1E+10	1	-1E+10	1	-1E+10	1	-1E+10	1	-1E+10	1	-1E+10	1
4902642	37	C	06/25/2025	00:23	-131.413	46.009	0	2610.50	0	1.7620	0	34.6290	4	27.707	0	2573.082	0	70.6	4	21.2	4	-1E+10	1	-1E+10	1	-1E+10	1	-1E+10	1	-1E+10	1	-1E+10	1
4902642	37	C	06/25/2025	00:23	-131.413	46.009	0	2629.80	0	1.7490	0	34.6300	4	27.709	0	2591.990	0	71.3	4	21.4	4	-1E+10	1	-1E+10	1	-1E+10	1	-1E+10	1	-1E+10	1	-1E+10	1
4902642	37	C	06/25/2025	00:23	-131.413	46.009	0	2649.60	0	1.7420	0	34.6300	4	27.709	0	2611.385	0	71.9	4	21.5	4	-1E+10	1	-1E+10	1	-1E+10	1	-1E+10	1	-1E+10	1	-1E+10	1
4902642	37	C	06/25/2025	00:23	-131.413	46.009	0	2669.70	0	1.7370	0	34.6310	4	27.711	0	2631.073	0	72.4	4	21.7	4	-1E+10	1	-1E+10	1	-1E+10	1	-1E+10	1	-1E+10	1	-1E+10	1
4902642	37	C	06/25/2025	00:23	-131.413	46.009	0	2689.20	0	1.7320	0	34.6310	4	27.711	0	2650.171	0	73.1	4	21.9	4	-1E+10	1	-1E+10	1	-1E+10	1	-1E+10	1	-1E+10	1	-1E+10	1
4902642	37	C	06/25/2025	00:23	-131.413	46.009	0	2710.10	0	1.7190	0	34.6320	4	27.713	0	2670.638	0	74.3	4	22.2	4	-1E+10	1	-1E+10	1	-1E+10	1	-1E+10	1	-1E+10	1	-1E+10	1
4902642	37	C	06/25/2025	00:23	-131.413	46.009	0	2729.80	0	1.7100	0	34.6340	4	27.715	0	2689.929	0	75.2	4	22.5	4	-1E+10	1	-1E+10	1	-1E+10	1	-1E+10	1	-1E+10	1	-1E+10	1
4902642	37	C	06/25/2025	00:23	-131.413	46.009	0	2749.80	0	1.7010	0	34.6350	4	27.717	0	2709.511	0	76.1	4	22.8	4	-1E+10	1	-1E+10	1	-1E+10	1	-1E+10	1	-1E+10	1	-1E+10	1
4902642	37	C	06/25/2025	00:23	-131.413	46.009	0	2769.80	0	1.6960	0	34.6360	4	27.718	0	2729.092	0	76.7	4	22.9	4	-1E+10	1	-1E+10	1	-1E+10	1	-1E+10	1	-1E+10	1	-1E+10	1
4902642	37	C	06/25/2025	00:23	-131.413	46.009	0	2789.70	0	1.6930	0	34.6360	4	27.719	0	2748.573	0	77.3	4	23.1	4	-1E+10	1	-1E+10	1	-1E+10	1	-1E+10	1	-1E+10	1	-1E+10	1
4902642	37	C	06/25/2025	00:23	-131.413	46.009	0	2810.20	0	1.6860	0	34.6370	4	27.720	0	2768.639	0	78.3	4	23.4	4	-1E+10	1	-1E+10	1	-1E+10	1	-1E+10	1	-1E+10	1	-1E+10	1
4902642	37	C	06/25/2025	00:23	-131.413	46.009	0	2829.60	0	1.6790	0	34.6390	4	27.722	0	2787.627	0	79.1	4	23.7	4	-1E+10	1	-1E+10	1	-1E+10	1	-1E+10	1	-1E+10	1	-1E+10	1
4902642	37	C	06/25/2025	00:23	-131.413	46.009	0	2849.60	0	1.6740	0	34.6400	4	27.724	0	2807.201	0	79.8	4	23.9	4	-1E+10	1	-1E+10	1	-1E+10	1	-1E+10	1	-1E+10	1	-1E+10	1
4902642	37	C	06/25/2025	00:23	-131.413	46.009	0	2869.70	0	1.6670	0	34.6410	4	27.725	0	2826.870	0	80.6	4	24.1	4	-1E+10	1	-1E+10	1	-1E+10	1	-1E+10	1	-1E+10	1	-1E+10	1
4902642	37	C	06/25/2025	00:23	-131.413	46.009	0	2890.10	0	1.6640	0	34.6420	4	27.726	0	2846.832	0	81.2	4	24.3	4	-1E+10	1	-1E+10	1	-1E+10	1	-1E+10	1	-1E+10	1	-1E+10	1
4902642	37	C	06/25/2025	00:23	-131.413	46.009	0	2909.60	0	1.6600	0	34.6420	4	27.727	0	2865.911	0	81.8	4	24.5	4	-1E+10	1	-1E+10	1	-1E+10	1	-1E+10	1	-1E+10	1	-1E+10	1
4902642	37	C	06/25/2025	00:23	-131.413	46.009	0	2930.10	0	1.6550	0	34.6430	4	27.728	0	2885.966	0	82.5	4	24.7	4	-1E+10	1	-1E+10	1	-1E+10	1	-1E+10	1	-1E+10	1	-1E+10	1
4902642	37	C	06/25/2025	00:23	-131.413	46.009	0	2950.10	0	1.6490	0	34.6440	4	27.729	0	2905.531	0	83.4	4	24.9	4	-1E+10	1	-1E+10	1	-1E+10	1	-1E+10	1	-1E+10	1	-1E+10	1
4902642	37	C	06/25/2025	00:23	-131.413	46.009	0	2970.10	0	1.6410	0	34.6460	4	27.732	0	2925.094	0	84.2	4	25.2	4	-1E+10	1	-1E+10	1	-1E+10	1	-1E+10	1	-1E+10	1	-1E+10	1
4902642	37	C	06/25/2025	00:23	-131.413	46.009	0	2990.00	0	1.6400	0	34.6460	4	27.732	0	2944.557	0	84.5	4	25.3	4	-1E+10	1	-1E+10	1	-1E+10	1	-1E+10	1	-1E+10	1	-1E+10	1
4902642	37	C	06/25/2025	00:23	-131.413	46.009	0	3000.70	0	1.6400	0	34.6470	4	27.733	0	2955.022	0	84.9	4	25.4	4	-1E+10	1	-1E+10	1	-1E+10	1	-1E+10	1	-1E+10	1	-1E+10	1
4902642	37	C	06/25/2025	00:23	-131.413	46.009	0	3001.60	0	1.6400	0	34.6470	4	27.733	0	2955.902	0	84.9	4	25.4	4	-1E+10	1	-1E+10	1	-1E+10	1	-1E+10	1	-1E+10	1	-1E+10	1
4902642	37	C	06/25/2025	00:23	-131.413	46.009	0	3002.70	0	1.6400	0	34.6470	4	27.733	0	2956.978	0	85.0	4	25.4	4	-1E+10	1	-1E+10	1	-1E+10	1	-1E+10	1	-1E+10	1	-1E+10	1
4902642	37	C	06/25/2025	00:23	-131.413	46.009	0	3003.70	0	1.6400	0	34.6470	4	27.733	0	2957.956	0	85.0	4	25.4	4	-1E+10	1	-1E+10	1	-1E+10	1	-1E+10	1	-1E+10	1	-1E+10	1
4902642	37	C	06/25/2025	00:23	-131.413	46.009	0	3004.70	0	1.6400	0	34.6470	4	27.733	0	2958.934	0	85.1	4	25.4	4	-1E+10	1	-1E+10	1	-1E+10	1	-1E+10	1	-1E+10	1	-1E+10	1
4902642	37	C	06/25/2025	00:23	-131.413	46.009	0	3005.80	0	1.6400	0	34.6470	4	27.733	0	2960.009	0	85.2	4	25.5	4	-1E+10	1	-1E+10	1	-1E+10	1	-1E+10	1	-1E+10	1	-1E+10	1
4902642	37	C	06/25/2025	00:23	-131.413	46.009	0	3006.80	0	1.6380	0	34.6480	4	27.734	0	2960.987	0	85.3	4	25.5	4	-1E+10	1	-1E+10	1	-1E+10	1	-1E+10	1	-1E+10	1	-1E+10	1
4902642	37	C	06/25/2025	00:23	-131.413	46.009	0	3007.70	0	1.6370	0	34.6470	4	27.733	0	2961.867	0	85.4	4	25.5	4	-1E+10	1	-1E+10	1	-1E+10	1	-1E+10	1	-1E+10	1	-1E+10	1
4902642	37	C	06/25/2025	00:23	-131.413	46.009	0	3008.70	0	1.6380	0	34.6470	4	27.733	0	2962.845	0	85.5	4	25.6	4	-1E+10	1	-1E+10	1	-1E+10	1	-1E+10	1	-1E+10	1	-1E+10	1
4902642	37	C	06/25/2025	00:23	-131.413	46.009	0	3009.70	0	1.6400	0	34.6470	4	27.733	0	2963.823	0	85.6	4	25.6	4	-1E+10	1	-1E+10	1	-1E+10	1	-1E+10	1	-1E+10	1	-1E+10	1
4902642	37	C	06/25/2025	00:23	-131.413	46.009	0	3010.60	0	1.6320	0	34.6480	4	27.734	0	2964.704	0	85.6	4	25.6	4	-1E+10	1	-1E+10	1	-1E+10	1	-1E+10	1	-1E+10	1	-1E+10	1
4902642	37	C	06/25/2025	00:23	-131.413	46.009	0	3011.60	0	1.6310	0	34.6480	4	27.734	0	2965.681	0	85.6	4	25.6	4	-1E+10	1	-1E+10	1	-1E+10	1	-1E+10	1	-1E+10	1	-1E+10	1
4902642	37	C	06/25/2025	00:23	-131.413	46.009	0	3012.50	0	1.6310	0	34.6490	4	27.735	0	2966.561	0	85.7	4	25.6	4	-1E+10	1	-1E+10	1	-1E+10	1	-1E+10	1	-1E+10	1	-1E+10	1
4902642	37	C	06/25/2025	00:23	-131.413	46.009	0	3013.40	0	1.6310	0	34.6480	4	27.734	0	2967.441	0	85.7	4	25.6	4	-1E+10	1	-1E+10	1	-1E+10	1	-1E+10	1	-1E+10	1	-1E+10	1
4902642	37	C	06/25/2025	00:23	-131.413	46.009	0	3014.90	0	1.6320	0	34.6480	4	27.734	0	2968.908	0	85.8	4	25.6	4	-1E+10	1	-1E+10	1	-1E+10	1	-1E+10	1	-1E+10	1	-1E+10	1
4902642	37	C	06/25/2025	00:23	-131.413	46.009	0	3015.70	0	1.6320	0	34.6480	4	27.734	0	2969.691	0	85.8	4	25.7	4	-1E+10	1	-1E+10	1	-1E+10	1	-1E+10	1	-1E+10	1	-1E+10	1
4902642	37	C	06/25/2025	00:23	-131.413	46.009	0	3016.50	0	1.6320	0	34.6480	4	27.734	0	2970.473	0	85.8	4	25.7	4	-1E+10	1	-1E+10	1	-1E+10	1	-1E+10	1	-1E+10	1	-1E+10	1
4902642	37	C	06/25/2025	00:23	-131.413	46.009	0	3017.30	0	1.6320	0	34.6480	4	27.734	0	2971.255	0	85.9	4	25.7	4	-1E+10	1	-1E+10	1	-1E+10	1	-1E+10	1	-1E+10	1	-1E+10	1
4902642	37	C	06/25/2025	00:23	-131.413	46.009	0	3018.40	0	1.6300	0	34.6490	4	27.735	0	2972.331	0	86.0	4	25.7	4	-1E+10	1	-1E+10	1	-1E+10	1	-1E+10	1	-1E+10	1	-1E+10	1
4902642	37	C	06/25/2025	00:23	-131.413	46.009	0	3019.60	0	1.6300	0	34.6470	4	27.734	0	2973.505	0	86.1	4	25.7	4	-1E+10	1	-1E+10	1	-1E+10	1	-1E+10	1	-1E+10	1	-1E+10	1
4902642	37	C	06/25/2025	00:23	-131.413	46.009	0	3020.30	0	1.6300	0	34.6480	4	27.734	0	2974.189	0	86.1	4	25.7	4	-1E+10	1	-1E+10	1	-1E+10	1	-1E+10	1	-1E+10	1	-1E+10	1
4902642	37	C	06/25/2025	00:23	-131.413	46.009	0	3021.50	0	1.6260	0	34.6490	4	27.735	0	2975.362	0	86.1	4	25.7	4	-1E+10	1	-1E+10	1	-1E+10	1	-1E+10	1	-1E+10	1	-1E+10	1
4902642	37	C	06/25/2025	00:23	-131.413	46.009	0	3022.80	0	1.6270	0	34.6490	4	27.735	0	2976.634	0	86.1	4	25.7	4	-1E+10	1	-1E+10	1	-1E+10	1	-1E+10	1	-1E+10	1	-1E+10	1
4902642	37	C	06/25/2025	00:23	-131.413	46.009	0	3023.50	0	1.6270	0	34.6490	4	27.735	0	2977.318	0	86.2	4	25.7	4	-1E+10	1	-1E+10	1	-1E+10	1	-1E+10	1	-1E+10	1	-1E+10	1
4902642	37	C	06/25/2025	00:23	-131.413	46.009	0	3024.40	0	1.6270	0	34.6490	4	27.735	0	2978.198	0	86.1	4	25.7	4	-1E+10	1	-1E+10	1	-1E+10	1	-1E+10	1	-1E+10	1	-1E+10	1
4902642	37	C	06/25/2025	00:23	-131.413	46.009	0	3025.50	0	1.6270	0	34.6490	4	27.735	0	2979.274	0	86.1	4	25.7	4	-1E+10	1	-1E+10	1	-1E+10	1	-1E+10	1	-1E+10	1	-1E+10	1
4902642	37	C	06/25/2025	00:23	-131.413	46.009	0	3026.70	0	1.6270	0	34.6490	4	27.735	0	2980.447	0	86.2	4	25.8	4	-1E+10	1	-1E+10	1	-1E+10	1	-1E+10	1	-1E+10	1	-1E+10	1
4902642	37	C	06/25/2025	00:23	-131.413	46.009	0	3027.50	0	1.6270	0	34.6490	4	27.735	0	2981.230	0	86.2	4	25.8	4	-1E+10	1	-1E+10	1	-1E+10	1	-1E+10	1	-1E+10	1	-1E+10	1
4902642	37	C	06/25/2025	00:23	-131.413	46.009	0	3028.40	0	1.6270	0	34.6490	4	27.735	0	2982.110	0	86.2	4	25.8	4	-1E+10	1	-1E+10	1	-1E+10	1	-1E+10	1	-1E+10	1	-1E+10	1
4902642	37	C	06/25/2025	00:23	-131.413	46.009	0	3029.50	0	1.6270	0	34.6490	4	27.735	0	2983.185	0	86.2	4	25.8	4	-1E+10	1	-1E+10	1	-1E+10	1	-1E+10	1	-1E+10	1	-1E+10	1
4902642	37	C	06/25/2025	00:23	-131.413	46.009	0	3030.70	0	1.6270	0	34.6490	4	27.735	0	2984.359	0	86.2	4	25.8	4	-1E+10	1	-1E+10	1	-1E+10	1	-1E+10	1	-1E+10	1	-1E+10	1
4902642	37	C	06/25/2025	00:23	-131.413	46.009	0	3031.40	0	1.6270	0	34.6500	4	27.736	0	2985.043	0	86.3	4	25.8	4	-1E+10	1	-1E+10	1	-1E+10	1	-1E+10	1	-1E+10	1	-1E+10	1
4902642	37	C	06/25/2025	00:23	-131.413	46.009	0	3032.50	0	1.6270	0	34.6490	4	27.735	0	2986.119	0	86.2	4	25.8	4	-1E+10	1	-1E+10	1	-1E+10	1	-1E+10	1	-1E+10	1	-1E+10	1
4902642	37	C	06/25/2025	00:23	-131.413	46.009	0	3033.90	0	1.6260	0	34.6490	4	27.735	0	2987.488	0	86.3	4	25.8	4	-1E+10	1	-1E+10	1	-1E+10	1	-1E+10	1	-1E+10	1	-1E+10	1
4902642	37	C	06/25/2025	00:23	-131.413	46.009	0	3034.50	0	1.6270	0	34.6490	4	27.735	0	2988.074	0	86.2	4	25.8	4	-1E+10	1	-1E+10	1	-1E+10	1	-1E+10	1	-1E+10	1	-1E+10	1
4902642	37	C	06/25/2025	00:23	-131.413	46.009	0	3035.30	0	1.6270	0	34.6500	4	27.736	0	2988.857	0	86.2	4	25.8	4	-1E+10	1	-1E+10	1	-1E+10	1	-1E+10	1	-1E+10	1	-1E+10	1
4902642	37	C	06/25/2025	00:23	-131.413	46.009	0	3036.30	0	1.6260	0	34.6490	4	27.736	0	2989.835	0	86.3	4	25.8	4	-1E+10	1	-1E+10	1	-1E+10	1	-1E+10	1	-1E+10	1	-1E+10	1
4902642	37	C	06/25/2025	00:23	-131.413	46.009	0	3037.30	0	1.6270	0	34.6490	4	27.735	0	2990.812	0	86.3	4	25.8	4	-1E+10	1	-1E+10	1	-1E+10	1	-1E+10	1	-1E+10	1	-1E+10	1
4902642	37	C	06/25/2025	00:23	-131.413	46.009	0	3038.40	0	1.6260	0	34.6490	4	27.736	0	2991.888	0	86.3	4	25.8	4	-1E+10	1	-1E+10	1	-1E+10	1	-1E+10	1	-1E+10	1	-1E+10	1
4902642	37	C	06/25/2025	00:23	-131.413	46.009	0	3039.40	0	1.6260	0	34.6500	4	27.736	0	2992.866	0	86.3	4	25.8	4	-1E+10	1	-1E+10	1	-1E+10	1	-1E+10	1	-1E+10	1	-1E+10	1
4902642	37	C	06/25/2025	00:23	-131.413	46.009	0	3040.50	0	1.6260	0	34.6500	4	27.736	0	2993.941	0	86.3	4	25.8	4	-1E+10	1	-1E+10	1	-1E+10	1	-1E+10	1	-1E+10	1	-1E+10	1
4902642	37	C	06/25/2025	00:23	-131.413	46.009	0	3041.60	0	1.6250	0	34.6500	4	27.736	0	2995.017	0	86.3	4	25.8	4	-1E+10	1	-1E+10	1	-1E+10	1	-1E+10	1	-1E+10	1	-1E+10	1
4902642	37	C	06/25/2025	00:23	-131.413	46.009	0	3042.40	0	1.6260	0	34.6500	4	27.736	0	2995.799	0	86.3	4	25.8	4	-1E+10	1	-1E+10	1	-1E+10	1	-1E+10	1	-1E+10	1	-1E+10	1
4902642	37	C	06/25/2025	00:23	-131.413	46.009	0	3043.70	0	1.6260	0	34.6490	4	27.736	0	2997.070	0	86.3	4	25.8	4	-1E+10	1	-1E+10	1	-1E+10	1	-1E+10	1	-1E+10	1	-1E+10	1
4902642	37	C	06/25/2025	00:23	-131.413	46.009	0	3044.60	0	1.6260	0	34.6500	4	27.736	0	2997.950	0	86.3	4	25.8	4	-1E+10	1	-1E+10	1	-1E+10	1	-1E+10	1	-1E+10	1	-1E+10	1
4902642	37	C	06/25/2025	00:23	-131.413	46.009	0	3045.70	0	1.6260	0	34.6500	4	27.736	0	2999.026	0	86.3	4	25.8	4	-1E+10	1	-1E+10	1	-1E+10	1	-1E+10	1	-1E+10	1	-1E+10	1
4902642	37	C	06/25/2025	00:23	-131.413	46.009	0	3046.60	0	1.6260	0	34.6500	4	27.736	0	2999.906	0	86.2	4	25.8	4	-1E+10	1	-1E+10	1	-1E+10	1	-1E+10	1	-1E+10	1	-1E+10	1
4902642	37	C	06/25/2025	00:23	-131.413	46.009	0	3047.40	0	1.6260	0	34.6500	4	27.736	0	3000.688	0	86.2	4	25.8	4	-1E+10	1	-1E+10	1	-1E+10	1	-1E+10	1	-1E+10	1	-1E+10	1
4902642	37	C	06/25/2025	00:23	-131.413	46.009	0	3048.70	0	1.6260	0	34.6500	4	27.736	0	3001.959	0	86.3	4	25.8	4	-1E+10	1	-1E+10	1	-1E+10	1	-1E+10	1	-1E+10	1	-1E+10	1
4902642	37	C	06/25/2025	00:23	-131.413	46.009	0	3049.60	0	1.6260	0	34.6500	4	27.736	0	3002.839	0	86.3	4	25.8	4	-1E+10	1	-1E+10	1	-1E+10	1	-1E+10	1	-1E+10	1	-1E+10	1
4902642	37	C	06/25/2025	00:23	-131.413	46.009	0	3050.70	0	1.6260	0	34.6500	4	27.736	0	3003.915	0	86.2	4	25.8	4	-1E+10	1	-1E+10	1	-1E+10	1	-1E+10	1	-1E+10	1	-1E+10	1
4902642	37	C	06/25/2025	00:23	-131.413	46.009	0	3051.10	0	1.6270	0	34.6490	4	27.736	0	3004.306	0	86.2	4	25.8	4	-1E+10	1	-1E+10	1	-1E+10	1	-1E+10	1	-1E+10	1	-1E+10	1
4902642	37	C	06/25/2025	00:23	-131.413	46.009	0																										
4902642	38	C	07/05/2025	03:38	-131.425	46.008	0	0.90	0	15.3780	0	32.3530	0	23.851	0	0.893	0	237.4	4	94.8	4	-1E+10	1	-1E+10	1	-1E+10	1	-1E+10	1	-1E+10	1	-1E+10	1
4902642	38	C	07/05/2025	03:38	-131.425	46.008	0	1.00	0	15.3780	0	32.3530	0	23.851	0	0.992	0	237.3	4	94.7	4	-1E+10	1	-1E+10	1	-1E+10	1	-1E+10	1	-1E+10	1	-1E+10	1
4902642	38	C	07/05/2025	03:38	-131.425	46.008	0	1.10	0	15.3790	0	32.3550	0	23.852	0	1.091	0	237.3	4	94.7	4	-1E+10	1	-1E+10	1	-1E+10	1	-1E+10	1	-1E+10	1	-1E+10	1
4902642	38	C	07/05/2025	03:38	-131.425	46.008	0	1.20	0	15.3810	0	32.3545	0	23.851	0	1.190	0	237.3	4	94.7	4	-1E+10	1	-1E+10	1	-1E+10	1	-1E+10	1	-1E+10	1	-1E+10	1
4902642	38	C	07/05/2025	03:38	-131.425	46.008	0	1.30	0	15.3857	0	32.3523	0	23.849	0	1.289	0	237.4	4	94.8	4	-1E+10	1	-1E+10	1	-1E+10	1	-1E+10	1	-1E+10	1	-1E+10	1
4902642	38	C	07/05/2025	03:38	-131.425	46.008	0	1.40	0	15.3880	0	32.3500	0	23.846	0	1.389	0	-1e10	1	-1e10	1	-1E+10	1	-1E+10	1	-1E+10	1	-1E+10	1	-1E+10	1	-1E+10	1
4902642	38	C	07/05/2025	03:38	-131.425	46.008	0	1.80	0	15.3900	0	32.3310	0	23.831	0	1.785	0	237.2	4	94.7	4	-1E+10	1	-1E+10	1	-1E+10	1	-1E+10	1	-1E+10	1	-1E+10	1
4902642	38	C	07/05/2025	03:38	-131.425	46.008	0	2.50	0	15.3910	0	32.3220	0	23.824	0	2.479	0	237.3	4	94.7	4	-1E+10	1	-1E+10	1	-1E+10	1	-1E+10	1	-1E+10	1	-1E+10	1
4902642	38	C	07/05/2025	03:38	-131.425	46.008	0	3.50	0	15.3890	0	32.3190	0	23.822	0	3.471	0	237.5	4	94.8	4	-1E+10	1	-1E+10	1	-1E+10	1	-1E+10	1	-1E+10	1	-1E+10	1
4902642	38	C	07/05/2025	03:38	-131.425	46.008	0	4.40	0	15.3900	0	32.3410	0	23.839	0	4.364	0	237.5	4	94.8	4	-1E+10	1	-1E+10	1	-1E+10	1	-1E+10	1	-1E+10	1	-1E+10	1
4902642	38	C	07/05/2025	03:38	-131.425	46.008	0	5.40	0	15.3510	0	32.3440	0	23.850	0	5.356	0	237.6	4	94.8	4	-1E+10	1	-1E+10	1	-1E+10	1	-1E+10	1	-1E+10	1	-1E+10	1
4902642	38	C	07/05/2025	03:38	-131.425	46.008	0	6.70	0	15.2420	0	32.3490	0	23.878	0	6.645	0	237.9	4	94.7	4	-1E+10	1	-1E+10	1	-1E+10	1	-1E+10	1	-1E+10	1	-1E+10	1
4902642	38	C	07/05/2025	03:38	-131.425	46.008	0	7.70	0	15.0770	0	32.3410	0	23.907	0	7.637	0	239.0	4	94.9	4	-1E+10	1	-1E+10	1	-1E+10	1	-1E+10	1	-1E+10	1	-1E+10	1
4902642	38	C	07/05/2025	03:38	-131.425	46.008	0	8.40	0	14.9000	0	32.3460	0	23.949	0	8.331	0	239.0	4	94.5	4	-1E+10	1	-1E+10	1	-1E+10	1	-1E+10	1	-1E+10	1	-1E+10	1
4902642	38	C	07/05/2025	03:38	-131.425	46.008	0	9.60	0	14.5100	0	32.3350	0	24.023	0	9.521	0	241.3	4	94.7	4	-1E+10	1	-1E+10	1	-1E+10	1	-1E+10	1	-1E+10	1	-1E+10	1
4902642	38	C	07/05/2025	03:38	-131.425	46.008	0	15.00	0	14.1090	0	32.3330	0	24.106	0	14.876	0	245.2	4	95.4	4	-1E+10	1	-1E+10	1	-1E+10	1	-1E+10	1	-1E+10	1	-1E+10	1
4902642	38	C	07/05/2025	03:38	-131.425	46.008	0	24.60	0	13.4420	0	32.3290	0	24.238	0	24.397	0	248.0	4	95.2	4	-1E+10	1	-1E+10	1	-1E+10	1	-1E+10	1	-1E+10	1	-1E+10	1
4902642	38	C	07/05/2025	03:38	-131.425	46.008	0	35.00	0	12.9480	0	32.3270	0	24.335	0	34.710	0	247.8	4	94.2	4	-1E+10	1	-1E+10	1	-1E+10	1	-1E+10	1	-1E+10	1	-1E+10	1
4902642	38	C	07/05/2025	03:38	-131.425	46.008	0	45.20	0	12.5470	0	32.3270	0	24.412	0	44.824	0	246.7	4	93.0	4	-1E+10	1	-1E+10	1	-1E+10	1	-1E+10	1	-1E+10	1	-1E+10	1
4902642	38	C	07/05/2025	03:38	-131.425	46.008	0	55.40	0	11.3310	0	32.3110	0	24.625	0	54.938	0	251.2	4	92.3	4	-1E+10	1	-1E+10	1	-1E+10	1	-1E+10	1	-1E+10	1	-1E+10	1
4902642	38	C	07/05/2025	03:38	-131.425	46.008	0	64.80	0	10.2610	0	32.3030	0	24.805	0	64.258	0	253.2	4	90.9	4	-1E+10	1	-1E+10	1	-1E+10	1	-1E+10	1	-1E+10	1	-1E+10	1
4902642	38	C	07/05/2025	03:38	-131.425	46.008	0	75.10	0	9.4670	0	32.3110	0	24.941	0	74.470	0	246.0	4	86.8	4	-1E+10	1	-1E+10	1	-1E+10	1	-1E+10	1	-1E+10	1	-1E+10	1
4902642	38	C	07/05/2025	03:38	-131.425	46.008	0	85.20	0	8.9360	0	32.3850	0	25.083	0	84.483	0	228.4	4	79.8	4	-1E+10	1	-1E+10	1	-1E+10	1	-1E+10	1	-1E+10	1	-1E+10	1
4902642	38	C	07/05/2025	03:38	-131.425	46.008	0	95.30	0	8.6210	0	32.5380	0	25.251	0	94.496	0	211.1	4	73.3	4	-1E+10	1	-1E+10	1	-1E+10	1	-1E+10	1	-1E+10	1	-1E+10	1
4902642	38	C	07/05/2025	03:38	-131.425	46.008	0	105.50	0	8.4200	0	32.7190	0	25.423	0	104.607	0	194.3	4	67.2	4	-1E+10	1	-1E+10	1	-1E+10	1	-1E+10	1	-1E+10	1	-1E+10	1
4902642	38	C	07/05/2025	03:38	-131.425	46.008	0	115.40	0	8.2120	0	32.9160	0	25.608	0	114.421	0	177.5	4	61.2	4	-1E+10	1	-1E+10	1	-1E+10	1	-1E+10	1	-1E+10	1	-1E+10	1
4902642	38	C	07/05/2025	03:38	-131.425	46.008	0	124.90	0	7.8500	0	33.1980	0	25.883	0	123.837	0	163.2	4	56.0	4	-1E+10	1	-1E+10	1	-1E+10	1	-1E+10	1	-1E+10	1	-1E+10	1
4902642	38	C	07/05/2025	03:38	-131.425	46.008	0	134.90	0	7.6090	0	33.3880	0	26.067	0	133.749	0	154.1	4	52.6	4	-1E+10	1	-1E+10	1	-1E+10	1	-1E+10	1	-1E+10	1	-1E+10	1
4902642	38	C	07/05/2025	03:38	-131.425	46.008	0	145.10	0	7.4110	0	33.5140	0	26.194	0	143.858	0	147.9	4	50.3	4	-1E+10	1	-1E+10	1	-1E+10	1	-1E+10	1	-1E+10	1	-1E+10	1
4902642	38	C	07/05/2025	03:38	-131.425	46.008	0	155.50	0	7.2660	0	33.6100	0	26.290	0	154.165	0	140.0	4	47.5	4	-1E+10	1	-1E+10	1	-1E+10	1	-1E+10	1	-1E+10	1	-1E+10	1
4902642	38	C	07/05/2025	03:38	-131.425	46.008	0	164.90	0	7.0780	0	33.7010	0	26.387	0	163.481	0	131.6	4	44.5	4	-1E+10	1	-1E+10	1	-1E+10	1	-1E+10	1	-1E+10	1	-1E+10	1
4902642	38	C	07/05/2025	03:38	-131.425	46.008	0	174.80	0	7.0070	0	33.7660	0	26.448	0	173.292	0	120.5	4	40.7	4	-1E+10	1	-1E+10	1	-1E+10	1	-1E+10	1	-1E+10	1	-1E+10	1
4902642	38	C	07/05/2025	03:38	-131.425	46.008	0	181.60	0	6.9200	0	33.7880	0	26.477	0	180.030	0	114.5	4	38.6	4	-1E+10	1	-1E+10	1	-1E+10	1	-1E+10	1	-1E+10	1	-1E+10	1
4902642	38	C	07/05/2025	03:38	-131.425	46.008	0	193.00	0	6.8900	0	33.8250	0	26.511	0	191.326	0	107.5	4	36.2	4	-1E+10	1	-1E+10	1	-1E+10	1	-1E+10	1	-1E+10	1	-1E+10	1
4902642	38	C	07/05/2025	03:38	-131.425	46.008	0	212.80	0	6.7540	0	33.8550	0	26.553	0	210.944	0	98.1	4	33.0	4	-1E+10	1	-1E+10	1	-1E+10	1	-1E+10	1	-1E+10	1	-1E+10	1
4902642	38	C	07/05/2025	03:38	-131.425	46.008	0	233.30	0	6.5390	0	33.8760	0	26.598	0	231.254	0	88.1	4	29.5	4	-1E+10	1	-1E+10	1	-1E+10	1	-1E+10	1	-1E+10	1	-1E+10	1
4902642	38	C	07/05/2025	03:38	-131.425	46.008	0	253.50	0	6.2830	0	33.8950	0	26.647	0	251.265	0	79.3	4	26.4	4	-1E+10	1	-1E+10	1	-1E+10	1	-1E+10	1	-1E+10	1	-1E+10	1
4902642	38	C	07/05/2025	03:38	-131.425	46.008	0	272.90	0	6.1220	0	33.9070	0	26.677	0	270.481	0	73.9	4	24.5	4	-1E+10	1	-1E+10	1	-1E+10	1	-1E+10	1	-1E+10	1	-1E+10	1
4902642	38	C	07/05/2025	03:38	-131.425	46.008	0	293.10	0	5.8520	0	33.9060	0	26.710	0	290.488	0	72.9	4	24.0	4	-1E+10	1	-1E+10	1	-1E+10	1	-1E+10	1	-1E+10	1	-1E+10	1
4902642	38	C	07/05/2025	03:38	-131.425	46.008	0	313.20	0	5.7120	0	33.9230	0	26.741	0	310.394	0	65.4	4	21.5	4	-1E+10	1	-1E+10	1	-1E+10	1	-1E+10	1	-1E+10	1	-1E+10	1
4902642	38	C	07/05/2025	03:38	-131.425	46.008	0	333.20	0	5.3700	0	33.9160	0	26.776	0	330.198	0	64.6	4	21.0	4	-1E+10	1	-1E+10	1	-1E+10	1	-1E+10	1	-1E+10	1	-1E+10	1
4902642	38	C	07/05/2025	03:38	-131.425	46.008	0	353.20	0	5.1220	0	33.9100	0	26.800	0	350.001	0	62.3	4	20.2	4	-1E+10	1	-1E+10	1	-1E+10	1	-1E+10	1	-1E+10	1	-1E+10	1
4902642	38	C	07/05/2025	03:38	-131.425	46.008	0	373.10	0	5.0090	0	33.9320	0	26.831	0	369.703	0	56.0	4	18.1	4	-1E+10	1	-1E+10	1	-1E+10	1	-1E+10	1	-1E+10	1	-1E+10	1
4902642	38	C	07/05/2025	03:38	-131.425	46.008	0	393.50	0	4.8790	0	33.9420	0	26.854	0	389.898	0	53.2	4	17.1	4	-1E+10	1	-1E+10	1	-1E+10	1	-1E+10	1	-1E+10	1	-1E+10	1
4902642	38	C	07/05/2025	03:38	-131.425	46.008	0	412.90	0	4.7970	0	33.9670	0	26.883	0	409.102	0	46.4	4	14.9	4	-1E+10	1	-1E+10	1	-1E+10	1	-1E+10	1	-1E+10	1	-1E+10	1
4902642	38	C	07/05/2025	03:38	-131.425	46.008	0	433.00	0	4.7440	0	33.9880	0	26.906	0	428.996	0	42.8	4	13.7	4	-1E+10	1	-1E+10	1	-1E+10	1	-1E+10	1	-1E+10	1	-1E+10	1
4902642	38	C	07/05/2025	03:38	-131.425	46.008	0	452.70	0	4.7200	0	34.0010	0	26.919	0	448.493	0	39.3	4	12.6	4	-1E+10	1	-1E+10	1	-1E+10	1	-1E+10	1	-1E+10	1	-1E+10	1
4902642	38	C	07/05/2025	03:38	-131.425	46.008	0	473.30	0	4.6390	0	34.0200	0	26.943	0	468.878	0	35.5	4	11.4	4	-1E+10	1	-1E+10	1	-1E+10	1	-1E+10	1	-1E+10	1	-1E+10	1
4902642	38	C	07/05/2025	03:38	-131.425	46.008	0	493.10	0	4.5870	0	34.0350	0	26.961	0	488.470	0	31.9	4	10.2	4	-1E+10	1	-1E+10	1	-1E+10	1	-1E+10	1	-1E+10	1	-1E+10	1
4902642	38	C	07/05/2025	03:38	-131.425	46.008	0	513.00	0	4.5290	0	34.0570	0	26.984	0	508.159	0	27.8	4	8.9	4	-1E+10	1	-1E+10	1	-1E+10	1	-1E+10	1	-1E+10	1	-1E+10	1
4902642	38	C	07/05/2025	03:38	-131.425	46.008	0	533.20	0	4.4730	0	34.0770	0	27.007	0	528.142	0	24.2	4	7.7	4	-1E+10	1	-1E+10	1	-1E+10	1	-1E+10	1	-1E+10	1	-1E+10	1
4902642	38	C	07/05/2025	03:38	-131.425	46.008	0	553.00	0	4.4210	0	34.0960	0	27.027	0	547.728	0	21.0	4	6.7	4	-1E+10	1	-1E+10	1	-1E+10	1	-1E+10	1	-1E+10	1	-1E+10	1
4902642	38	C	07/05/2025	03:38	-131.425	46.008	0	573.10	0	4.3600	0	34.1180	0	27.051	0	567.609	0	18.1	4	5.8	4	-1E+10	1	-1E+10	1	-1E+10	1	-1E+10	1	-1E+10	1	-1E+10	1
4902642	38	C	07/05/2025	03:38	-131.425	46.008	0	592.90	0	4.2980	0	34.1380	0	27.074	0	587.192	0	15.7	4	5.0	4	-1E+10	1	-1E+10	1	-1E+10	1	-1E+10	1	-1E+10	1	-1E+10	1
4902642	38	C	07/05/2025	03:38	-131.425	46.008	0	612.90	0	4.2490	0	34.1550	0	27.093	0	606.970	0	13.8	4	4.4	4	-1E+10	1	-1E+10	1	-1E+10	1	-1E+10	1	-1E+10	1	-1E+10	1
4902642	38	C	07/05/2025	03:38	-131.425	46.008	0	632.80	0	4.2210	0	34.1730	0	27.110	0	626.648	0	12.1	4	3.8	4	-1E+10	1	-1E+10	1	-1E+10	1	-1E+10	1	-1E+10	1	-1E+10	1
4902642	38	C	07/05/2025	03:38	-131.425	46.008	0	653.60	0	4.1770	0	34.1830	0	27.123	0	647.213	0	11.2	4	3.6	4	-1E+10	1	-1E+10	1	-1E+10	1	-1E+10	1	-1E+10	1	-1E+10	1
4902642	38	C	07/05/2025	03:38	-131.425	46.008	0	672.60	0	4.1330	0	34.1940	0	27.136	0	665.997	0	10.6	4	3.4	4	-1E+10	1	-1E+10	1	-1E+10	1	-1E+10	1	-1E+10	1	-1E+10	1
4902642	38	C	07/05/2025	03:38	-131.425	46.008	0	692.80	0	4.0870	0	34.2040	0	27.149	0	685.965	0	10.0	4	3.1	4	-1E+10	1	-1E+10	1	-1E+10	1	-1E+10	1	-1E+10	1	-1E+10	1
4902642	38	C	07/05/2025	03:38	-131.425	46.008	0	712.90	0	4.0370	0	34.2190	0	27.167	0	705.833	0	9.0	4	2.8	4	-1E+10	1	-1E+10	1	-1E+10	1	-1E+10	1	-1E+10	1	-1E+10	1
4902642	38	C	07/05/2025	03:38	-131.425	46.008	0	733.00	0	3.9810	0	34.2330	0	27.184	0	725.699	0	8.1	4	2.6	4	-1E+10	1	-1E+10	1	-1E+10	1	-1E+10	1	-1E+10	1	-1E+10	1
4902642	38	C	07/05/2025	03:38	-131.425	46.008	0	753.00	0	3.9360	0	34.2480	0	27.200	0	745.464	0	7.5	4	2.4	4	-1E+10	1	-1E+10	1	-1E+10	1	-1E+10	1	-1E+10	1	-1E+10	1
4902642	38	C	07/05/2025	03:38	-131.425	46.008	0	772.70	0	3.8800	0	34.2580	0	27.214	0	764.931	0	7.0	4	2.2	4	-1E+10	1	-1E+10	1	-1E+10	1	-1E+10	1	-1E+10	1	-1E+10	1
4902642	38	C	07/05/2025	03:38	-131.425	46.008	0	792.80	0	3.8620	0	34.2740	0	27.229	0	784.791	0	6.5	4	2.1	4	-1E+10	1	-1E+10	1	-1E+10	1	-1E+10	1	-1E+10	1	-1E+10	1
4902642	38	C	07/05/2025	03:38	-131.425	46.008	0	812.90	0	3.8010	0	34.2820	0	27.241	0	804.649	0	6.3	4	2.0	4	-1E+10	1	-1E+10	1	-1E+10	1	-1E+10	1	-1E+10	1	-1E+10	1
4902642	38	C	07/05/2025	03:38	-131.425	46.008	0	832.70	0	3.7560	0	34.2940	0	27.255	0	824.209	0	6.0	4	1.9	4	-1E+10	1	-1E+10	1	-1E+10	1	-1E+10	1	-1E+10	1	-1E+10	1
4902642	38	C	07/05/2025	03:38	-131.425	46.008	0	852.50	0	3.7060	0	34.3060	0	27.270	0	843.767	0	5.7	4	1.8	4	-1E+10	1	-1E+10	1	-1E+10	1	-1E+10	1	-1E+10	1	-1E+10	1
4902642	38	C	07/05/2025	03:38	-131.425	46.008	0	872.80	0	3.6760	0	34.3170	0	27.282	0	863.817	0	5.5	4	1.7	4	-1E+10	1	-1E+10	1	-1E+10	1	-1E+10	1	-1E+10	1	-1E+10	1
4902642	38	C	07/05/2025	03:38	-131.425	46.008	0	892.90	0	3.6580	0	34.3340	0	27.297	0	883.668	0	5.3	4	1.7	4	-1E+10	1	-1E+10	1	-1E+10	1	-1E+10	1	-1E+10	1	-1E+10	1
4902642	38	C	07/05/2025	03:38	-131.425	46.008	0	913.10	0	3.6070	0	34.3470	0	27.313	0	903.616	0	5.4	4	1.7	4	-1E+10	1	-1E+10	1	-1E+10	1	-1E+10	1	-1E+10	1	-1E+10	1
4902642	38	C	07/05/2025	03:38	-131.425	46.008	0	932.90	0	3.5490	0	34.3590	0	27.328	0	923.166	0	5.5	4	1.7	4	-1E+10	1	-1E+10	1	-1E+10	1	-1E+10	1	-1E+10	1	-1E+10	1
4902642	38	C	07/05/2025	03:38	-131.425	46.008	0	952.80	0	3.5200	0	34.3690	0	27.339	0	942.814	0	5.7	4	1.8	4	-1E+10	1	-1E+10	1	-1E+10	1	-1E+10	1	-1E+10	1	-1E+10	1
4902642	38	C	07/05/2025	03:38	-131.425	46.008	0	972.90	0	3.4920	0	34.3830	0	27.353	0	962.657	0	6.1	4	1.9	4	-1E+10	1	-1E+10	1	-1E+10	1	-1E+10	1	-1E+10	1	-1E+10	1
4902642	38	C	07/05/2025	03:38	-131.425	46.008	0	993.20	0	3.4500	0	34.3920	0	27.364	0	982.696	0	6.5	4	2.0	4	-1E+10	1	-1E+10	1	-1E+10	1	-1E+10	1	-1E+10	1	-1E+10	1
4902642	38	C	07/05/2025	03:38	-131.425	46.008	0	1012.80	0	3.4200	0	34.3990	0	27.373	0	1002.042	0	6.7	4	2.1	4	-1E+10	1	-1E+10	1	-1E+10	1	-1E+10	1	-1E+10	1	-1E+10	1
4902642	38	C	07/05/2025	03:38	-131.425	46.008	0	1032.60	0	3.3860	0	34.4060	0	27.382	0	1021.583	0	6.9	4	2.2	4	-1E+10	1	-1E+10	1	-1E+10	1	-1E+10	1	-1E+10	1	-1E+10	1
4902642	38	C	07/05/2025	03:38	-131.425	46.008	0	1052.90	0	3.3450	0	34.4110	0	27.390	0	1041.616	0	7.1	4	2.2	4	-1E+10	1	-1E+10	1	-1E+10	1	-1E+10	1	-1E+10	1	-1E+10	1
4902642	38	C	07/05/2025	03:38	-131.425	46.008	0	1073.00	0	3.3030	0	34.4160	0	27.398	0	1061.450	0	7.5	4	2.3	4	-1E+10	1	-1E+10	1	-1E+10	1	-1E+10	1	-1E+10	1	-1E+10	1
4902642	38	C	07/05/2025	03:38	-131.425	46.008	0	1092.80	0	3.2500	0	34.4230	0	27.409	0	1080.986	0	7.9	4	2.5	4	-1E+10	1	-1E+10	1	-1E+10	1	-1E+10	1	-1E+10	1	-1E+10	1
4902642	38	C	07/05/2025	03:38	-131.425	46.008	0	1113.00	0	3.2020	0	34.4300	0	27.419	0	1100.915	0	8.3	4	2.6	4	-1E+10	1	-1E+10	1	-1E+10	1	-1E+10	1	-1E+10	1	-1E+10	1
4902642	38	C	07/05/2025	03:38	-131.425	46.008	0	1133.70	0	3.1580	0	34.4360	0	27.428	0	1121.334	0	8.9	4	2.8	4	-1E+10	1	-1E+10	1	-1E+10	1	-1E+10	1	-1E+10	1	-1E+10	1
4902642	38	C	07/05/2025	03:38	-131.425	46.008	0	1152.70	0	3.1150	0	34.4420	0	27.437	0	1140.076	0	9.4	4	2.9	4	-1E+10	1	-1E+10	1	-1E+10	1	-1E+10	1	-1E+10	1	-1E+10	1
4902642	38	C	07/05/2025	03:38	-131.425	46.008	0	1172.80	0	3.0690	0	34.4480	0	27.446	0	1159.900	0	9.9	4	3.1	4	-1E+10	1	-1E+10	1	-1E+10	1	-1E+10	1	-1E+10	1	-1E+10	1
4902642	38	C	07/05/2025	03:38	-131.425	46.008	0	1192.90	0	3.0320	0	34.4530	0	27.453	0	1179.723	0	10.4	4	3.2	4	-1E+10	1	-1E+10	1	-1E+10	1	-1E+10	1	-1E+10	1	-1E+10	1
4902642	38	C	07/05/2025	03:38	-131.425	46.008	0	1212.80	0	3.0090	0	34.4570	0	27.459	0	1199.346	0	10.9	4	3.4	4	-1E+10	1	-1E+10	1	-1E+10	1	-1E+10	1	-1E+10	1	-1E+10	1
4902642	38	C	07/05/2025	03:38	-131.425	46.008	0	1232.70	0	2.9690	0	34.4620	0	27.466	0	1218.968	0	11.6	4	3.6	4	-1E+10	1	-1E+10	1	-1E+10	1	-1E+10	1	-1E+10	1	-1E+10	1
4902642	38	C	07/05/2025	03:38	-131.425	46.008	0	1252.50	0	2.9300	0	34.4660	0	27.473	0	1238.489	0	12.2	4	3.7	4	-1E+10	1	-1E+10	1	-1E+10	1	-1E+10	1	-1E+10	1	-1E+10	1
4902642	38	C	07/05/2025	03:38	-131.425	46.008	0	1272.80	0	2.8950	0	34.4710	0	27.480	0	1258.501	0	13.0	4	4.0	4	-1E+10	1	-1E+10	1	-1E+10	1	-1E+10	1	-1E+10	1	-1E+10	1
4902642	38	C	07/05/2025	03:38	-131.425	46.008	0	1293.00	0	2.8430	0	34.4780	0	27.491	0	1278.413	0	14.1	4	4.3	4	-1E+10	1	-1E+10	1	-1E+10	1	-1E+10	1	-1E+10	1	-1E+10	1
4902642	38	C	07/05/2025	03:38	-131.425	46.008	0	1312.70	0	2.7960	0	34.4830	0	27.499	0	1297.830	0	15.2	4	4.7	4	-1E+10	1	-1E+10	1	-1E+10	1	-1E+10	1	-1E+10	1	-1E+10	1
4902642	38	C	07/05/2025	03:38	-131.425	46.008	0	1332.80	0	2.7480	0	34.4890	0	27.508	0	1317.640	0	16.3	4	5.0	4	-1E+10	1	-1E+10	1	-1E+10	1	-1E+10	1	-1E+10	1	-1E+10	1
4902642	38	C	07/05/2025	03:38	-131.425	46.008	0	1352.80	0	2.7120	0	34.4940	0	27.515	0	1337.349	0	17.2	4	5.3	4	-1E+10	1	-1E+10	1	-1E+10	1	-1E+10	1	-1E+10	1	-1E+10	1
4902642	38	C	07/05/2025	03:38	-131.425	46.008	0	1372.90	0	2.6800	0	34.4980	0	27.521	0	1357.155	0	18.2	4	5.6	4	-1E+10	1	-1E+10	1	-1E+10	1	-1E+10	1	-1E+10	1	-1E+10	1
4902642	38	C	07/05/2025	03:38	-131.425	46.008	0	1393.50	0	2.6390	0	34.5020	0	27.528	0	1377.451	0	19.0	4	5.8	4	-1E+10	1	-1E+10	1	-1E+10	1	-1E+10	1	-1E+10	1	-1E+10	1
4902642	38	C	07/05/2025	03:38	-131.425	46.008	0	1412.60	0	2.6070	0	34.5040	0	27.532	0	1396.268	0	19.7	4	6.0	4	-1E+10	1	-1E+10	1	-1E+10	1	-1E+10	1	-1E+10	1	-1E+10	1
4902642	38	C	07/05/2025	03:38	-131.425	46.008	0	1433.00	0	2.5770	0	34.5070	0	27.537	0	1416.364	0	20.4	4	6.2	4	-1E+10	1	-1E+10	1	-1E+10	1	-1E+10	1	-1E+10	1	-1E+10	1
4902642	38	C	07/05/2025	03:38	-131.425	46.008	0	1452.90	0	2.5500	0	34.5100	0	27.542	0	1435.965	0	21.3	4	6.5	4	-1E+10	1	-1E+10	1	-1E+10	1	-1E+10	1	-1E+10	1	-1E+10	1
4902642	38	C	07/05/2025	03:38	-131.425	46.008	0	1473.00	0	2.5110	0	34.5140	0	27.549	0	1455.761	0	22.3	4	6.8	4	-1E+10	1	-1E+10	1	-1E+10	1	-1E+10	1	-1E+10	1	-1E+10	1
4902642	38	C	07/05/2025	03:38	-131.425	46.008	0	1493.10	0	2.4820	0	34.5180	0	27.555	0	1475.556	0	23.3	4	7.1	4	-1E+10	1	-1E+10	1	-1E+10	1	-1E+10	1	-1E+10	1	-1E+10	1
4902642	38	C	07/05/2025	03:38	-131.425	46.008	0	1513.00	0	2.4460	0	34.5220	0	27.561	0	1495.152	0	24.5	4	7.5	4	-1E+10	1	-1E+10	1	-1E+10	1	-1E+10	1	-1E+10	1	-1E+10	1
4902642	38	C	07/05/2025	03:38	-131.425	46.008	0	1533.00	0	2.4210	0	34.5250	0	27.565	0	1514.844	0	25.5	4	7.8	4	-1E+10	1	-1E+10	1	-1E+10	1	-1E+10	1	-1E+10	1	-1E+10	1
4902642	38	C	07/05/2025	03:38	-131.425	46.008	0	1552.70	0	2.3930	0	34.5290	0	27.571	0	1534.240	0	26.7	4	8.1	4	-1E+10	1	-1E+10	1	-1E+10	1	-1E+10	1	-1E+10	1	-1E+10	1
4902642	38	C	07/05/2025	03:38	-131.425	46.008	0	1573.10	0	2.3670	0	34.5330	0	27.577	0	1554.322	0	27.7	4	8.4	4	-1E+10	1	-1E+10	1	-1E+10	1	-1E+10	1	-1E+10	1	-1E+10	1
4902642	38	C	07/05/2025	03:38	-131.425	46.008	0	1593.50	0	2.3410	0	34.5360	0	27.581	0	1574.403	0	28.7	4	8.7	4	-1E+10	1	-1E+10	1	-1E+10	1	-1E+10	1	-1E+10	1	-1E+10	1
4902642	38	C	07/05/2025	03:38	-131.425	46.008	0	1613.30	0	2.3280	0	34.5380	0	27.584	0	1593.891	0	29.4	4	8.9	4	-1E+10	1	-1E+10	1	-1E+10	1	-1E+10	1	-1E+10	1	-1E+10	1
4902642	38	C	07/05/2025	03:38	-131.425	46.008	0	1632.90	0	2.3020	0	34.5420	0	27.589	0	1613.181	0	30.6	4	9.3	4	-1E+10	1	-1E+10	1	-1E+10	1	-1E+10	1	-1E+10	1	-1E+10	1
4902642	38	C	07/05/2025	03:38	-131.425	46.008	0	1652.70	0	2.2740	0	34.5450	0	27.594	0	1632.665	0	31.8	4	9.7	4	-1E+10	1	-1E+10	1	-1E+10	1	-1E+10	1	-1E+10	1	-1E+10	1
4902642	38	C	07/05/2025	03:38	-131.425	46.008	0	1673.00	0	2.2490	0	34.5480	0	27.599	0	1652.640	0	32.9	4	10.0	4	-1E+10	1	-1E+10	1	-1E+10	1	-1E+10	1	-1E+10	1	-1E+10	1
4902642	38	C	07/05/2025	03:38	-131.425	46.008	0	1693.00	0	2.2250	0	34.5510	0	27.603	0	1672.318	0	34.2	4	10.4	4	-1E+10	1	-1E+10	1	-1E+10	1	-1E+10	1	-1E+10	1	-1E+10	1
4902642	38	C	07/05/2025	03:38	-131.425	46.008	0	1713.00	0	2.1990	0	34.5550	0	27.609	0	1691.994	0	35.2	4	10.7	4	-1E+10	1	-1E+10	1	-1E+10	1	-1E+10	1	-1E+10	1	-1E+10	1
4902642	38	C	07/05/2025	03:38	-131.425	46.008	0	1732.80	0	2.1760	0	34.5570	0	27.612	0	1711.471	0	36.4	4	11.0	4	-1E+10	1	-1E+10	1	-1E+10	1	-1E+10	1	-1E+10	1	-1E+10	1
4902642	38	C	07/05/2025	03:38	-131.425	46.008	0	1753.50	0	2.1410	0	34.5610	0	27.618	0	1731.832	0	37.9	4	11.5	4	-1E+10	1	-1E+10	1	-1E+10	1	-1E+10	1	-1E+10	1	-1E+10	1
4902642	38	C	07/05/2025	03:38	-131.425	46.008	0	1773.20	0	2.1260	0	34.5630	0	27.621	0	1751.207	0	38.7	4	11.7	4	-1E+10	1	-1E+10	1	-1E+10	1	-1E+10	1	-1E+10	1	-1E+10	1
4902642	38	C	07/05/2025	03:38	-131.425	46.008	0	1793.00	0	2.1070	0	34.5660	0	27.625	0	1770.679	0	39.8	4	12.0	4	-1E+10	1	-1E+10	1	-1E+10	1	-1E+10	1	-1E+10	1	-1E+10	1
4902642	38	C	07/05/2025	03:38	-131.425	46.008	0	1813.10	0	2.0850	0	34.5690	0	27.629	0	1790.444	0	41.4	4	12.5	4	-1E+10	1	-1E+10	1	-1E+10	1	-1E+10	1	-1E+10	1	-1E+10	1
4902642	38	C	07/05/2025	03:38	-131.425	46.008	0	1832.90	0	2.0580	0	34.5730	0	27.635	0	1809.913	0	42.9	4	13.0	4	-1E+10	1	-1E+10	1	-1E+10	1	-1E+10	1	-1E+10	1	-1E+10	1
4902642	38	C	07/05/2025	03:38	-131.425	46.008	0	1852.80	0	2.0400	0	34.5770	0	27.639	0	1829.478	0	44.1	4	13.3	4	-1E+10	1	-1E+10	1	-1E+10	1	-1E+10	1	-1E+10	1	-1E+10	1
4902642	38	C	07/05/2025	03:38	-131.425	46.008	0	1873.00	0	2.0250	0	34.5790	0	27.642	0	1849.335	0	45.1	4	13.6	4	-1E+10	1	-1E+10	1	-1E+10	1	-1E+10	1	-1E+10	1	-1E+10	1
4902642	38	C	07/05/2025	03:38	-131.425	46.008	0	1892.80	0	2.0110	0	34.5810	0	27.645	0	1868.798	0	45.9	4	13.8	4	-1E+10	1	-1E+10	1	-1E+10	1	-1E+10	1	-1E+10	1	-1E+10	1
4902642	38	C	07/05/2025	03:38	-131.425	46.008	0	1913.10	0	2.0010	0	34.5830	0	27.648	0	1888.751	0	46.7	4	14.1	4	-1E+10	1	-1E+10	1	-1E+10	1	-1E+10	1	-1E+10	1	-1E+10	1
4902642	38	C	07/05/2025	03:38	-131.425	46.008	0	1932.80	0	1.9860	0	34.5860	0	27.651	0	1908.112	0	47.8	4	14.4	4	-1E+10	1	-1E+10	1	-1E+10	1	-1E+10	1	-1E+10	1	-1E+10	1
4902642	38	C	07/05/2025	03:38	-131.425	46.008	0	1952.80	0	1.9750	0	34.5880	0	27.654	0	1927.766	0	48.7	4	14.7	4	-1E+10	1	-1E+10	1	-1E+10	1	-1E+10	1	-1E+10	1	-1E+10	1
4902642	38	C	07/05/2025	03:38	-131.425	46.008	0	1972.70	0	1.9640	0	34.5900	0	27.656	0	1947.320	0	49.4	4	14.9	4	-1E+10	1	-1E+10	1	-1E+10	1	-1E+10	1	-1E+10	1	-1E+10	1
4902642	38	C	07/05/2025	03:38	-131.425	46.008	0	1992.90	0	1.9570	0	34.5910	0	27.658	0	1967.167	0	50.0	4	15.0	4	-1E+10	1	-1E+10	1	-1E+10	1	-1E+10	1	-1E+10	1	-1E+10	1
4902642	38	C	07/05/2025	03:38	-131.425	46.008	0	2013.20	0	1.9500	0	34.5920	4	27.659	0	1987.110	0	50.6	4	15.2	4	-1E+10	1	-1E+10	1	-1E+10	1	-1E+10	1	-1E+10	1	-1E+10	1
4902642	38	C	07/05/2025	03:38	-131.425	46.008	0	2033.30	0	1.9390	0	34.5940	4	27.662	0	2006.855	0	51.5	4	15.5	4	-1E+10	1	-1E+10	1	-1E+10	1	-1E+10	1	-1E+10	1	-1E+10	1
4902642	38	C	07/05/2025	03:38	-131.425	46.008	0	2053.80	0	1.9300	0	34.5960	4	27.664	0	2026.991	0	52.4	4	15.8	4	-1E+10	1	-1E+10	1	-1E+10	1	-1E+10	1	-1E+10	1	-1E+10	1
4902642	38	C	07/05/2025	03:38	-131.425	46.008	0	2072.90	0	1.9180	0	34.5980	4	27.667	0	2045.750	0	53.3	4	16.0	4	-1E+10	1	-1E+10	1	-1E+10	1	-1E+10	1	-1E+10	1	-1E+10	1
4902642	38	C	07/05/2025	03:38	-131.425	46.008	0	2092.70	0	1.9060	0	34.6000	4	27.670	0	2065.195	0	54.1	4	16.3	4	-1E+10	1	-1E+10	1	-1E+10	1	-1E+10	1	-1E+10	1	-1E+10	1
4902642	38	C	07/05/2025	03:38	-131.425	46.008	0	2112.70	0	1.8980	0	34.6020	4	27.672	0	2084.835	0	54.9	4	16.5	4	-1E+10	1	-1E+10	1	-1E+10	1	-1E+10	1	-1E+10	1	-1E+10	1
4902642	38	C	07/05/2025	03:38	-131.425	46.008	0	2133.00	0	1.8870	0	34.6040	4	27.674	0	2104.767	0	55.8	4	16.8	4	-1E+10	1	-1E+10	1	-1E+10	1	-1E+10	1	-1E+10	1	-1E+10	1
4902642	38	C	07/05/2025	03:38	-131.425	46.008	0	2152.80	0	1.8820	0	34.6050	4	27.676	0	2124.207	0	56.1	4	16.9	4	-1E+10	1	-1E+10	1	-1E+10	1	-1E+10	1	-1E+10	1	-1E+10	1
4902642	38	C	07/05/2025	03:38	-131.425	46.008	0	2173.30	0	1.8810	0	34.6060	4	27.677	0	2144.332	0	56.5	4	17.0	4	-1E+10	1	-1E+10	1	-1E+10	1	-1E+10	1	-1E+10	1	-1E+10	1
4902642	38	C	07/05/2025	03:38	-131.425	46.008	0	2192.90	0	1.8750	0	34.6070	4	27.678	0	2163.571	0	57.3	4	17.2	4	-1E+10	1	-1E+10	1	-1E+10	1	-1E+10	1	-1E+10	1	-1E+10	1
4902642	38	C	07/05/2025	03:38	-131.425	46.008	0	2212.90	0	1.8680	0	34.6090	4	27.680	0	2183.202	0	58.0	4	17.4	4	-1E+10	1	-1E+10	1	-1E+10	1	-1E+10	1	-1E+10	1	-1E+10	1
4902642	38	C	07/05/2025	03:38	-131.425	46.008	0	2232.90	0	1.8630	0	34.6100	4	27.682	0	2202.830	0	58.7	4	17.6	4	-1E+10	1	-1E+10	1	-1E+10	1	-1E+10	1	-1E+10	1	-1E+10	1
4902642	38	C	07/05/2025	03:38	-131.425	46.008	0	2253.10	0	1.8580	0	34.6110	4	27.683	0	2222.654	0	59.1	4	17.8	4	-1E+10	1	-1E+10	1	-1E+10	1	-1E+10	1	-1E+10	1	-1E+10	1
4902642	38	C	07/05/2025	03:38	-131.425	46.008	0	2273.40	0	1.8530	0	34.6120	4	27.684	0	2242.573	0	59.8	4	18.0	4	-1E+10	1	-1E+10	1	-1E+10	1	-1E+10	1	-1E+10	1	-1E+10	1
4902642	38	C	07/05/2025	03:38	-131.425	46.008	0	2292.90	0	1.8450	0	34.6130	4	27.686	0	2261.706	0	60.6	4	18.2	4	-1E+10	1	-1E+10	1	-1E+10	1	-1E+10	1	-1E+10	1	-1E+10	1
4902642	38	C	07/05/2025	03:38	-131.425	46.008	0	2313.00	0	1.8370	0	34.6150	4	27.688	0	2281.425	0	61.1	4	18.4	4	-1E+10	1	-1E+10	1	-1E+10	1	-1E+10	1	-1E+10	1	-1E+10	1
4902642	38	C	07/05/2025	03:38	-131.425	46.008	0	2333.00	0	1.8330	0	34.6150	4	27.689	0	2301.045	0	61.5	4	18.5	4	-1E+10	1	-1E+10	1	-1E+10	1	-1E+10	1	-1E+10	1	-1E+10	1
4902642	38	C	07/05/2025	03:38	-131.425	46.008	0	2353.20	0	1.8270	0	34.6160	4	27.690	0	2320.859	0	61.9	4	18.6	4	-1E+10	1	-1E+10	1	-1E+10	1	-1E+10	1	-1E+10	1	-1E+10	1
4902642	38	C	07/05/2025	03:38	-131.425	46.008	0	2373.20	0	1.8240	0	34.6170	4	27.691	0	2340.475	0	62.5	4	18.8	4	-1E+10	1	-1E+10	1	-1E+10	1	-1E+10	1	-1E+10	1	-1E+10	1
4902642	38	C	07/05/2025	03:38	-131.425	46.008	0	2393.30	0	1.8180	0	34.6180	4	27.693	0	2360.187	0	63.1	4	19.0	4	-1E+10	1	-1E+10	1	-1E+10	1	-1E+10	1	-1E+10	1	-1E+10	1
4902642	38	C	07/05/2025	03:38	-131.425	46.008	0	2413.20	0	1.8110	0	34.6190	4	27.694	0	2379.702	0	63.9	4	19.2	4	-1E+10	1	-1E+10	1	-1E+10	1	-1E+10	1	-1E+10	1	-1E+10	1
4902642	38	C	07/05/2025	03:38	-131.425	46.008	0	2433.50	0	1.8050	0	34.6200	4	27.695	0	2399.607	0	64.6	4	19.4	4	-1E+10	1	-1E+10	1	-1E+10	1	-1E+10	1	-1E+10	1	-1E+10	1
4902642	38	C	07/05/2025	03:38	-131.425	46.008	0	2453.00	0	1.7970	0	34.6210	4	27.697	0	2418.725	0	65.4	4	19.6	4	-1E+10	1	-1E+10	1	-1E+10	1	-1E+10	1	-1E+10	1	-1E+10	1
4902642	38	C	07/05/2025	03:38	-131.425	46.008	0	2472.90	0	1.7910	0	34.6220	4	27.698	0	2438.234	0	65.9	4	19.8	4	-1E+10	1	-1E+10	1	-1E+10	1	-1E+10	1	-1E+10	1	-1E+10	1
4902642	38	C	07/05/2025	03:38	-131.425	46.008	0	2492.90	0	1.7870	0	34.6230	4	27.699	0	2457.840	0	66.6	4	20.0	4	-1E+10	1	-1E+10	1	-1E+10	1	-1E+10	1	-1E+10	1	-1E+10	1
4902642	38	C	07/05/2025	03:38	-131.425	46.008	0	2512.90	0	1.7790	0	34.6240	4	27.701	0	2477.443	0	67.3	4	20.2	4	-1E+10	1	-1E+10	1	-1E+10	1	-1E+10	1	-1E+10	1	-1E+10	1
4902642	38	C	07/05/2025	03:38	-131.425	46.008	0	2532.80	0	1.7740	0	34.6250	4	27.702	0	2496.947	0	67.9	4	20.4	4	-1E+10	1	-1E+10	1	-1E+10	1	-1E+10	1	-1E+10	1	-1E+10	1
4902642	38	C	07/05/2025	03:38	-131.425	46.008	0	2552.90	0	1.7670	0	34.6260	4	27.704	0	2516.645	0	68.7	4	20.6	4	-1E+10	1	-1E+10	1	-1E+10	1	-1E+10	1	-1E+10	1	-1E+10	1
4902642	38	C	07/05/2025	03:38	-131.425	46.008	0	2572.60	0	1.7610	0	34.6270	4	27.705	0	2535.949	0	69.3	4	20.8	4	-1E+10	1	-1E+10	1	-1E+10	1	-1E+10	1	-1E+10	1	-1E+10	1
4902642	38	C	07/05/2025	03:38	-131.425	46.008	0	2593.10	0	1.7510	0	34.6280	4	27.707	0	2556.036	0	70.3	4	21.1	4	-1E+10	1	-1E+10	1	-1E+10	1	-1E+10	1	-1E+10	1	-1E+10	1
4902642	38	C	07/05/2025	03:38	-131.425	46.008	0	2613.20	0	1.7430	0	34.6290	4	27.708	0	2575.728	0	71.1	4	21.3	4	-1E+10	1	-1E+10	1	-1E+10	1	-1E+10	1	-1E+10	1	-1E+10	1
4902642	38	C	07/05/2025	03:38	-131.425	46.008	0	2633.00	0	1.7380	0	34.6300	4	27.710	0	2595.125	0	71.6	4	21.5	4	-1E+10	1	-1E+10	1	-1E+10	1	-1E+10	1	-1E+10	1	-1E+10	1
4902642	38	C	07/05/2025	03:38	-131.425	46.008	0	2652.70	0	1.7350	0	34.6300	4	27.710	0	2614.422	0	72.1	4	21.6	4	-1E+10	1	-1E+10	1	-1E+10	1	-1E+10	1	-1E+10	1	-1E+10	1
4902642	38	C	07/05/2025	03:38	-131.425	46.008	0	2673.00	0	1.7290	0	34.6310	4	27.711	0	2634.305	0	72.9	4	21.8	4	-1E+10	1	-1E+10	1	-1E+10	1	-1E+10	1	-1E+10	1	-1E+10	1
4902642	38	C	07/05/2025	03:38	-131.425	46.008	0	2693.30	0	1.7240	0	34.6320	4	27.713	0	2654.186	0	73.5	4	22.0	4	-1E+10	1	-1E+10	1	-1E+10	1	-1E+10	1	-1E+10	1	-1E+10	1
4902642	38	C	07/05/2025	03:38	-131.425	46.008	0	2713.20	0	1.7180	0	34.6330	4	27.714	0	2673.674	0	74.2	4	22.2	4	-1E+10	1	-1E+10	1	-1E+10	1	-1E+10	1	-1E+10	1	-1E+10	1
4902642	38	C	07/05/2025	03:38	-131.425	46.008	0	2733.10	0	1.7150	0	34.6340	4	27.715	0	2693.160	0	74.8	4	22.4	4	-1E+10	1	-1E+10	1	-1E+10	1	-1E+10	1	-1E+10	1	-1E+10	1
4902642	38	C	07/05/2025	03:38	-131.425	46.008	0	2753.10	0	1.7070	0	34.6340	4	27.716	0	2712.742	0	75.6	4	22.6	4	-1E+10	1	-1E+10	1	-1E+10	1	-1E+10	1	-1E+10	1	-1E+10	1
4902642	38	C	07/05/2025	03:38	-131.425	46.008	0	2773.20	0	1.7020	0	34.6350	4	27.717	0	2732.420	0	76.3	4	22.8	4	-1E+10	1	-1E+10	1	-1E+10	1	-1E+10	1	-1E+10	1	-1E+10	1
4902642	38	C	07/05/2025	03:38	-131.425	46.008	0	2793.20	0	1.6920	0	34.6370	4	27.720	0	2751.999	0	77.3	4	23.1	4	-1E+10	1	-1E+10	1	-1E+10	1	-1E+10	1	-1E+10	1	-1E+10	1
4902642	38	C	07/05/2025	03:38	-131.425	46.008	0	2812.80	0	1.6840	0	34.6380	4	27.721	0	2771.184	0	78.3	4	23.4	4	-1E+10	1	-1E+10	1	-1E+10	1	-1E+10	1	-1E+10	1	-1E+10	1
4902642	38	C	07/05/2025	03:38	-131.425	46.008	0	2833.00	0	1.6800	0	34.6390	4	27.722	0	2790.955	0	78.8	4	23.6	4	-1E+10	1	-1E+10	1	-1E+10	1	-1E+10	1	-1E+10	1	-1E+10	1
4902642	38	C	07/05/2025	03:38	-131.425	46.008	0	2852.80	0	1.6750	0	34.6390	4	27.723	0	2810.333	0	79.6	4	23.8	4	-1E+10	1	-1E+10	1	-1E+10	1	-1E+10	1	-1E+10	1	-1E+10	1
4902642	38	C	07/05/2025	03:38	-131.425	46.008	0	2873.50	0	1.6700	0	34.6400	4	27.724	0	2830.589	0	80.3	4	24.0	4	-1E+10	1	-1E+10	1	-1E+10	1	-1E+10	1	-1E+10	1	-1E+10	1
4902642	38	C	07/05/2025	03:38	-131.425	46.008	0	2893.00	0	1.6620	0	34.6420	4	27.726	0	2849.670	0	81.1	4	24.3	4	-1E+10	1	-1E+10	1	-1E+10	1	-1E+10	1	-1E+10	1	-1E+10	1
4902642	38	C	07/05/2025	03:38	-131.425	46.008	0	2912.60	0	1.6610	0	34.6420	4	27.727	0	2868.846	0	81.6	4	24.4	4	-1E+10	1	-1E+10	1	-1E+10	1	-1E+10	1	-1E+10	1	-1E+10	1
4902642	38	C	07/05/2025	03:38	-131.425	46.008	0	2932.90	0	1.6550	0	34.6430	4	27.728	0	2888.706	0	82.5	4	24.7	4	-1E+10	1	-1E+10	1	-1E+10	1	-1E+10	1	-1E+10	1	-1E+10	1
4902642	38	C	07/05/2025	03:38	-131.425	46.008	0	2952.90	0	1.6480	0	34.6440	4	27.729	0	2908.270	0	83.5	4	25.0	4	-1E+10	1	-1E+10	1	-1E+10	1	-1E+10	1	-1E+10	1	-1E+10	1
4902642	38	C	07/05/2025	03:38	-131.425	46.008	0	2972.60	0	1.6420	0	34.6460	4	27.732	0	2927.540	0	84.2	4	25.2	4	-1E+10	1	-1E+10	1	-1E+10	1	-1E+10	1	-1E+10	1	-1E+10	1
4902642	38	C	07/05/2025	03:38	-131.425	46.008	0	2992.50	0	1.6390	0	34.6460	4	27.732	0	2947.003	0	84.8	4	25.3	4	-1E+10	1	-1E+10	1	-1E+10	1	-1E+10	1	-1E+10	1	-1E+10	1
4902642	38	C	07/05/2025	03:38	-131.425	46.008	0	3013.00	0	1.6350	0	34.6470	4	27.733	0	2967.051	0	85.7	4	25.6	4	-1E+10	1	-1E+10	1	-1E+10	1	-1E+10	1	-1E+10	1	-1E+10	1
4902642	38	C	07/05/2025	03:38	-131.425	46.008	0	3033.20	0	1.6250	0	34.6490	4	27.736	0	2986.804	0	86.8	4	25.9	4	-1E+10	1	-1E+10	1	-1E+10	1	-1E+10	1	-1E+10	1	-1E+10	1
4902642	38	C	07/05/2025	03:38	-131.425	46.008	0	3053.60	0	1.6210	0	34.6500	4	27.737	0	3006.751	0	87.3	4	26.1	4	-1E+10	1	-1E+10	1	-1E+10	1	-1E+10	1	-1E+10	1	-1E+10	1
4902642	38	C	07/05/2025	03:38	-131.425	46.008	0	3063.60	0	1.6210	0	34.6500	4	27.737	0	3016.528	0	87.4	4	26.1	4	-1E+10	1	-1E+10	1	-1E+10	1	-1E+10	1	-1E+10	1	-1E+10	1
4902642	38	C	07/05/2025	03:38	-131.425	46.008	0	3064.70	0	1.6210	0	34.6510	4	27.738	0	3017.603	0	87.4	4	26.1	4	-1E+10	1	-1E+10	1	-1E+10	1	-1E+10	1	-1E+10	1	-1E+10	1
4902642	38	C	07/05/2025	03:38	-131.425	46.008	0	3065.60	0	1.6210	0	34.6500	4	27.737	0	3018.483	0	87.4	4	26.1	4	-1E+10	1	-1E+10	1	-1E+10	1	-1E+10	1	-1E+10	1	-1E+10	1
4902642	38	C	07/05/2025	03:38	-131.425	46.008	0	3066.40	0	1.6200	0	34.6510	4	27.738	0	3019.265	0	87.4	4	26.1	4	-1E+10	1	-1E+10	1	-1E+10	1	-1E+10	1	-1E+10	1	-1E+10	1
4902642	38	C	07/05/2025	03:38	-131.425	46.008	0	3067.20	0	1.6210	0	34.6510	4	27.738	0	3020.047	0	87.5	4	26.1	4	-1E+10	1	-1E+10	1	-1E+10	1	-1E+10	1	-1E+10	1	-1E+10	1
4902642	38	C	07/05/2025	03:38	-131.425	46.008	0	3068.50	0	1.6200	0	34.6510	4	27.738	0	3021.318	0	87.5	4	26.1	4	-1E+10	1	-1E+10	1	-1E+10	1	-1E+10	1	-1E+10	1	-1E+10	1
4902642	38	C	07/05/2025	03:38	-131.425	46.008	0	3069.70	0	1.6210	0	34.6510	4	27.738	0	3022.491	0	87.5	4	26.1	4	-1E+10	1	-1E+10	1	-1E+10	1	-1E+10	1	-1E+10	1	-1E+10	1
4902642	38	C	07/05/2025	03:38	-131.425	46.008	0	3070.70	0	1.6210	0	34.6510	4	27.738	0	3023.469	0	87.5	4	26.1	4	-1E+10	1	-1E+10	1	-1E+10	1	-1E+10	1	-1E+10	1	-1E+10	1
4902642	38	C	07/05/2025	03:38	-131.425	46.008	0	3071.50	0	1.6210	0	34.6510	4	27.738	0	3024.251	0	87.5	4	26.1	4	-1E+10	1	-1E+10	1	-1E+10	1	-1E+10	1	-1E+10	1	-1E+10	1
4902642	38	C	07/05/2025	03:38	-131.425	46.008	0	3072.40	0	1.6210	0	34.6510	4	27.738	0	3025.131	0	87.5	4	26.1	4	-1E+10	1	-1E+10	1	-1E+10	1	-1E+10	1	-1E+10	1	-1E+10	1
4902642	38	C	07/05/2025	03:38	-131.425	46.008	0	3073.30	0	1.6210	0	34.6500	4	27.737	0	3026.011	0	87.5	4	26.1	4	-1E+10	1	-1E+10	1	-1E+10	1	-1E+10	1	-1E+10	1	-1E+10	1
4902642	38	C	07/05/2025	03:38	-131.425	46.008	0	3074.60	0	1.6210	0	34.6510	4	27.738	0	3027.282	0	87.5	4	26.1	4	-1E+10	1	-1E+10	1	-1E+10	1	-1E+10	1	-1E+10	1	-1E+10	1
4902642	38	C	07/05/2025	03:38	-131.425	46.008	0	3075.90	0	1.6210	0	34.6510	4	27.738	0	3028.553	0	87.5	4	26.2	4	-1E+10	1	-1E+10	1	-1E+10	1	-1E+10	1	-1E+10	1	-1E+10	1
4902642	38	C	07/05/2025	03:38	-131.425	46.008	0	3076.80	0	1.6210	0	34.6510	4	27.738	0	3029.433	0	87.5	4	26.1	4	-1E+10	1	-1E+10	1	-1E+10	1	-1E+10	1	-1E+10	1	-1E+10	1
4902642	38	C	07/05/2025	03:38	-131.425	46.008	0	3077.60	0	1.6200	0	34.6500	4	27.737	0	3030.215	0	87.5	4	26.1	4	-1E+10	1	-1E+10	1	-1E+10	1	-1E+10	1	-1E+10	1	-1E+10	1
4902642	38	C	07/05/2025	03:38	-131.425	46.008	0	3078.50	0	1.6200	0	34.6510	4	27.738	0	3031.095	0	87.5	4	26.1	4	-1E+10	1	-1E+10	1	-1E+10	1	-1E+10	1	-1E+10	1	-1E+10	1
4902642	38	C	07/05/2025	03:38	-131.425	46.008	0	3079.30	0	1.6200	0	34.6510	4	27.738	0	3031.877	0	87.5	4	26.1	4	-1E+10	1	-1E+10	1	-1E+10	1	-1E+10	1	-1E+10	1	-1E+10	1
4902642	38	C	07/05/2025	03:38	-131.425	46.008	0	3080.60	0	1.6200	0	34.6510	4	27.738	0	3033.148	0	87.5	4	26.2	4	-1E+10	1	-1E+10	1	-1E+10	1	-1E+10	1	-1E+10	1	-1E+10	1
4902642	38	C	07/05/2025	03:38	-131.425	46.008	0	3082.00	0	1.6200	0	34.6510	4	27.738	0	3034.516	0	87.5	4	26.2	4	-1E+10	1	-1E+10	1	-1E+10	1	-1E+10	1	-1E+10	1	-1E+10	1
4902642	38	C	07/05/2025	03:38	-131.425	46.008	0	3082.90	0	1.6200	0	34.6500	4	27.737	0	3035.396	0	87.5	4	26.1	4	-1E+10	1	-1E+10	1	-1E+10	1	-1E+10	1	-1E+10	1	-1E+10	1
4902642	38	C	07/05/2025	03:38	-131.425	46.008	0	3083.70	0	1.6200	0	34.6510	4	27.738	0	3036.178	0	87.5	4	26.2	4	-1E+10	1	-1E+10	1	-1E+10	1	-1E+10	1	-1E+10	1	-1E+10	1
4902642	38	C	07/05/2025	03:38	-131.425	46.008	0	3084.60	0	1.6200	0	34.6510	4	27.738	0	3037.058	0	87.5	4	26.1	4	-1E+10	1	-1E+10	1	-1E+10	1	-1E+10	1	-1E+10	1	-1E+10	1
4902642	38	C	07/05/2025	03:38	-131.425	46.008	0	3085.50	0	1.6200	0	34.6510	4	27.738	0	3037.938	0	87.5	4	26.1	4	-1E+10	1	-1E+10	1	-1E+10	1	-1E+10	1	-1E+10	1	-1E+10	1
4902642	38	C	07/05/2025	03:38	-131.425	46.008	0	3086.30	0	1.6200	0	34.6510	4	27.738	0	3038.720	0	87.5	4	26.1	4	-1E+10	1	-1E+10	1	-1E+10	1	-1E+10	1	-1E+10	1	-1E+10	1
4902642	38	C	07/05/2025	03:38	-131.425	46.008	0	3087.60	0	1.6200	0	34.6510	4	27.738	0	3039.991	0	87.5	4	26.1	4	-1E+10	1	-1E+10	1	-1E+10	1	-1E+10	1	-1E+10	1	-1E+10	1
4902642	38	C	07/05/2025	03:38	-131.425	46.008	0	3088.90	0	1.6210	0	34.6510	4	27.738	0	3041.262	0	87.5	4	26.1	4	-1E+10	1	-1E+10	1	-1E+10	1	-1E+10	1	-1E+10	1	-1E+10	1
4902642	38	C	07/05/2025	03:38	-131.425	46.008	0	3089.90	0	1.6210	0	34.6510	4	27.738	0	3042.239	0	87.5	4	26.1	4	-1E+10	1	-1E+10	1	-1E+10	1	-1E+10	1	-1E+10	1	-1E+10	1
4902642	38	C	07/05/2025	03:38	-131.425	46.008	0	3090.70	0	1.6210	0	34.6510	4	27.738	0	3043.021	0	87.5	4	26.2	4	-1E+10	1	-1E+10	1	-1E+10	1	-1E+10	1	-1E+10	1	-1E+10	1
4902642	38	C	07/05/2025	03:38	-131.425	46.008	0	3091.70	0	1.6210	0	34.6510	4	27.738	0	3043.999	0	87.5	4	26.1	4	-1E+10	1	-1E+10	1	-1E+10	1	-1E+10	1	-1E+10	1	-1E+10	1
4902642	38	C	07/05/2025	03:38	-131.425	46.008	0	3092.60	0	1.6210	0	34.6510	4	27.738	0	3044.879	0	87.5	4	26.1	4	-1E+10	1	-1E+10	1	-1E+10	1	-1E+10	1	-1E+10	1	-1E+10	1
4902642	38	C	07/05/2025	03:38	-131.425	46.008	0	3093.40	0	1.6210	0	34.6510	4	27.738	0	3045.661	0	87.5	4	26.1	4	-1E+10	1	-1E+10	1	-1E+10	1	-1E+10	1	-1E+10	1	-1E+10	1
4902642	38	C	07/05/2025	03:38	-131.425	46.008	0	3094.30	0	1.6210	0	34.6510	4	27.738	0	3046.541	0	87.5	4	26.1	4	-1E+10	1	-1E+10	1	-1E+10	1	-1E+10	1	-1E+10	1	-1E+10	1
4902642	38	C	07/05/2025	03:38	-131.425	46.008	0	3095.30	0	1.6210	0	34.6510	4	27.738	0	3047.518	0	87.5	4	26.1	4	-1E+10	1	-1E+10	1	-1E+10	1	-1E+10	1	-1E+10	1	-1E+10	1
4902642	38	C	07/05/2025	03:38	-131.425	46.008	0	3096.50	0	1.6210	0	34.6510	4	27.738	0	3048.691	0	87.5	4	26.1	4	-1E+10	1	-1E+10	1	-1E+10	1	-1E+10	1	-1E+10	1	-1E+10	1
4902642	38	C	07/05/2025	03:38	-131.425	46.008	0	3097.90	0	1.6210	0	34.6510	4	27.738	0	3050.060	0	87.5	4	26.1	4	-1E+10	1	-1E+10	1	-1E+10	1	-1E+10	1	-1E+10	1	-1E+10	1
4902642	38	C	07/05/2025	03:38	-131.425	46.008	0	3098.80	0	1.6210	0	34.6510	4	27.738	0	3050.940	0	87.5	4	26.1	4	-1E+10	1	-1E+10	1	-1E+10	1	-1E+10	1	-1E+10	1	-1E+10	1
4902642	38	C	07/05/2025	03:38	-131.425	46.008	0	3099.80	0	1.6210	0	34.6510	4	27.738	0	3051.917	0	87.5	4	26.1	4	-1E+10	1	-1E+10	1	-1E+10	1	-1E+10	1	-1E+10	1	-1E+10	1
4902642	38	C	07/05/2025	03:38	-131.425	46.008	0	3100.60	0	1.6210	0	34.6510	4	27.738	0	3052.699	0	87.5	4	26.1	4	-1E+10	1	-1E+10	1	-1E+10	1	-1E+10	1	-1E+10	1	-1E+10	1
4902642	38	C	07/05/2025	03:38	-131.425	46.008	0	3101.50	0	1.6210	0	34.6510	4	27.738	0	3053.579	0	87.5	4	26.1	4	-1E+10	1	-1E+10	1	-1E+10	1	-1E+10	1	-1E+10	1	-1E+10	1
4902642	38	C	07/05/2025	03:38	-131.425	46.008	0	3102.30	0	1.6210	0	34.6510	4	27.738	0	3054.361	0	87.4	4	26.1	4	-1E+10	1	-1E+10	1	-1E+10	1	-1E+10	1	-1E+10	1	-1E+10	1
4902642	38	C	07/05/2025	03:38	-131.425	46.008	0	3103.50	0	1.6220	0	34.6510	4	27.738	0	3055.534	0	87.4	4	26.1	4	-1E+10	1	-1E+10	1	-1E+10	1	-1E+10	1	-1E+10	1	-1E+10	1
4902642	38	C	07/05/2025	03:38	-131.425	46.008	0	3104.50	0	1.6210	0	34.6510	4	27.738	0	3056.511	0	87.4	4	26.1	4	-1E+10	1	-1E+10	1	-1E+10	1	-1E+10	1	-1E+10	1	-1E+10	1
4902642	38	C	07/05/2025	03:38	-131.425	46.008	0	3105.60	0	1.6220	0	34.6510	4	27.738	0	3057.587	0	87.4	4	26.1	4	-1E+10	1	-1E+10	1	-1E+10	1	-1E+10	1	-1E+10	1	-1E+10	1
4902642	38	C	07/05/2025	03:38	-131.425	46.008	0	3106.30	0	1.6220	0	34.6510	4	27.738	0	3058.271	0	87.4	4	26.1	4	-1E+10	1	-1E+10	1	-1E+10	1	-1E+10	1	-1E+10	1	-1E+10	1
4902642	38	C	07/05/2025	03:38	-131.425	46.008	0	3107.40	0	1.6220	0	34.6510	4	27.738	0	3059.346	0	87.4	4	26.1	4	-1E+10	1	-1E+10	1	-1E+10	1	-1E+10	1	-1E+10	1	-1E+10	1
4902642	38	C	07/05/2025	03:38	-131.425	46.008	0	3108.40	0	1.6220	0	34.6510	4	27.738	0	3060.324	0	87.4	4	26.1	4	-1E+10	1	-1E+10	1	-1E+10	1	-1E+10	1	-1E+10	1	-1E+10	1
4902642	38	C	07/05/2025	03:38	-131.425	46.008	0	3109.40	0	1.6220	0	34.6510	4	27.738	0	3061.301	0	87.4	4	26.1	4	-1E+10	1	-1E+10	1	-1E+10	1	-1E+10	1	-1E+10	1	-1E+10	1
4902642	38	C	07/05/2025	03:38	-131.425	46.008	0	3110.70	0	1.6220	0	34.6510	4	27.738	0	3062.572	0	87.3	4	26.1	4	-1E+10	1	-1E+10	1	-1E+10	1	-1E+10	1	-1E+10	1	-1E+10	1
4902642	38	C	07/05/2025	03:38	-131.425	46.008	0	3111.80	0	1.6220	0	34.6510	4	27.738	0	3063.647	0	87.4	4	26.1	4	-1E+10	1	-1E+10	1	-1E+10	1	-1E+10	1	-1E+10	1	-1E+10	1
4902642	38	C	07/05/2025	03:38	-131.425	46.008	0	3112.50	0	1.6220	0	34.6510	4	27.738	0	3064.331	0	87.3	4	26.1	4	-1E+10	1	-1E+10	1	-1E+10	1	-1E+10	1	-1E+10	1	-1E+10	1
4902642	38	C	07/05/2025	03:38	-131.425	46.008	0	3113.60	0	1.6220	0	34.6510	4	27.738	0	3065.407	0	87.2	4	26.1	4	-1E+10	1	-1E+10	1	-1E+10	1	-1E+10	1	-1E+10	1	-1E+10	1
4902642	38	C	07/05/2025	03:38	-131.425	46.008	0	3114.30	0	1.6220	0	34.6510	4	27.738	0	3066.091	0	87.4	4	26.1	4	-1E+10	1	-1E+10	1	-1E+10	1	-1E+10	1	-1E+10	1	-1E+10	1
4902642	38	C	07/05/2025	03:38	-131.425	46.008	0																										
4902642	39	C	07/15/2025	02:22	-131.449	46.030	0	2.00	0	16.0810	0	32.3310	0	23.678	0	1.984	0	234.1	4	94.7	4	-1E+10	1	-1E+10	1	-1E+10	1	-1E+10	1	-1E+10	1	-1E+10	1
4902642	39	C	07/15/2025	02:22	-131.449	46.030	0	2.10	0	16.0805	0	32.3335	0	23.680	0	2.083	0	234.1	4	94.7	4	-1E+10	1	-1E+10	1	-1E+10	1	-1E+10	1	-1E+10	1	-1E+10	1
4902642	39	C	07/15/2025	02:22	-131.449	46.030	0	2.20	0	16.0810	0	32.3330	0	23.680	0	2.182	0	234.0	4	94.7	4	-1E+10	1	-1E+10	1	-1E+10	1	-1E+10	1	-1E+10	1	-1E+10	1
4902642	39	C	07/15/2025	02:22	-131.449	46.030	0	2.30	0	16.0810	0	32.3325	0	23.679	0	2.281	0	233.8	4	94.6	4	-1E+10	1	-1E+10	1	-1E+10	1	-1E+10	1	-1E+10	1	-1E+10	1
4902642	39	C	07/15/2025	02:22	-131.449	46.030	0	2.40	0	16.0810	0	32.3340	0	23.681	0	2.380	0	234.0	4	94.7	4	-1E+10	1	-1E+10	1	-1E+10	1	-1E+10	1	-1E+10	1	-1E+10	1
4902642	39	C	07/15/2025	02:22	-131.449	46.030	0	2.50	0	16.0810	0	32.3330	0	23.680	0	2.479	0	233.9	4	94.6	4	-1E+10	1	-1E+10	1	-1E+10	1	-1E+10	1	-1E+10	1	-1E+10	1
4902642	39	C	07/15/2025	02:22	-131.449	46.030	0	2.60	0	16.0820	0	32.3320	0	23.679	0	2.579	0	-1e10	1	-1e10	1	-1E+10	1	-1E+10	1	-1E+10	1	-1E+10	1	-1E+10	1	-1E+10	1
4902642	39	C	07/15/2025	02:22	-131.449	46.030	0	2.80	0	16.0820	0	32.3290	0	23.677	0	2.777	0	234.2	4	94.8	4	-1E+10	1	-1E+10	1	-1E+10	1	-1E+10	1	-1E+10	1	-1E+10	1
4902642	39	C	07/15/2025	02:22	-131.449	46.030	0	3.60	0	16.0820	0	32.3310	0	23.678	0	3.570	0	233.9	4	94.6	4	-1E+10	1	-1E+10	1	-1E+10	1	-1E+10	1	-1E+10	1	-1E+10	1
4902642	39	C	07/15/2025	02:22	-131.449	46.030	0	4.70	0	16.0820	0	32.3340	0	23.680	0	4.661	0	233.9	4	94.7	4	-1E+10	1	-1E+10	1	-1E+10	1	-1E+10	1	-1E+10	1	-1E+10	1
4902642	39	C	07/15/2025	02:22	-131.449	46.030	0	5.50	0	16.0810	0	32.3330	0	23.680	0	5.455	0	233.9	4	94.7	4	-1E+10	1	-1E+10	1	-1E+10	1	-1E+10	1	-1E+10	1	-1E+10	1
4902642	39	C	07/15/2025	02:22	-131.449	46.030	0	6.50	0	16.0820	0	32.3330	0	23.680	0	6.447	0	233.9	4	94.7	4	-1E+10	1	-1E+10	1	-1E+10	1	-1E+10	1	-1E+10	1	-1E+10	1
4902642	39	C	07/15/2025	02:22	-131.449	46.030	0	7.60	0	16.0830	0	32.3330	0	23.680	0	7.537	0	234.0	4	94.7	4	-1E+10	1	-1E+10	1	-1E+10	1	-1E+10	1	-1E+10	1	-1E+10	1
4902642	39	C	07/15/2025	02:22	-131.449	46.030	0	8.70	0	16.0830	0	32.3330	0	23.680	0	8.628	0	234.2	4	94.8	4	-1E+10	1	-1E+10	1	-1E+10	1	-1E+10	1	-1E+10	1	-1E+10	1
4902642	39	C	07/15/2025	02:22	-131.449	46.030	0	9.70	0	16.0830	0	32.3330	0	23.680	0	9.620	0	234.4	4	94.9	4	-1E+10	1	-1E+10	1	-1E+10	1	-1E+10	1	-1E+10	1	-1E+10	1
4902642	39	C	07/15/2025	02:22	-131.449	46.030	0	14.60	0	16.0490	0	32.3270	0	23.683	0	14.480	0	236.1	4	95.5	4	-1E+10	1	-1E+10	1	-1E+10	1	-1E+10	1	-1E+10	1	-1E+10	1
4902642	39	C	07/15/2025	02:22	-131.449	46.030	0	24.80	0	14.1450	0	32.3460	0	24.108	0	24.595	0	249.4	4	97.2	4	-1E+10	1	-1E+10	1	-1E+10	1	-1E+10	1	-1E+10	1	-1E+10	1
4902642	39	C	07/15/2025	02:22	-131.449	46.030	0	35.20	0	13.0620	0	32.3340	0	24.318	0	34.908	0	250.9	4	95.6	4	-1E+10	1	-1E+10	1	-1E+10	1	-1E+10	1	-1E+10	1	-1E+10	1
4902642	39	C	07/15/2025	02:22	-131.449	46.030	0	44.50	0	12.5690	0	32.3310	0	24.411	0	44.130	0	248.1	4	93.6	4	-1E+10	1	-1E+10	1	-1E+10	1	-1E+10	1	-1E+10	1	-1E+10	1
4902642	39	C	07/15/2025	02:22	-131.449	46.030	0	54.60	0	10.7330	0	32.3290	0	24.744	0	54.144	0	252.3	4	91.6	4	-1E+10	1	-1E+10	1	-1E+10	1	-1E+10	1	-1E+10	1	-1E+10	1
4902642	39	C	07/15/2025	02:22	-131.449	46.030	0	63.90	0	9.5320	0	32.3360	0	24.950	0	63.365	0	252.3	4	89.2	4	-1E+10	1	-1E+10	1	-1E+10	1	-1E+10	1	-1E+10	1	-1E+10	1
4902642	39	C	07/15/2025	02:22	-131.449	46.030	0	74.90	0	9.1310	0	32.3470	0	25.022	0	74.271	0	247.2	4	86.6	4	-1E+10	1	-1E+10	1	-1E+10	1	-1E+10	1	-1E+10	1	-1E+10	1
4902642	39	C	07/15/2025	02:22	-131.449	46.030	0	84.30	0	8.8620	0	32.3740	0	25.085	0	83.591	0	239.8	4	83.6	4	-1E+10	1	-1E+10	1	-1E+10	1	-1E+10	1	-1E+10	1	-1E+10	1
4902642	39	C	07/15/2025	02:22	-131.449	46.030	0	95.00	0	8.6660	0	32.4380	0	25.165	0	94.198	0	219.3	4	76.1	4	-1E+10	1	-1E+10	1	-1E+10	1	-1E+10	1	-1E+10	1	-1E+10	1
4902642	39	C	07/15/2025	02:22	-131.449	46.030	0	104.20	0	8.3990	0	32.6970	0	25.409	0	103.318	0	186.1	4	64.3	4	-1E+10	1	-1E+10	1	-1E+10	1	-1E+10	1	-1E+10	1	-1E+10	1
4902642	39	C	07/15/2025	02:22	-131.449	46.030	0	114.80	0	8.0620	0	33.0640	0	25.746	0	113.826	0	165.6	4	57.0	4	-1E+10	1	-1E+10	1	-1E+10	1	-1E+10	1	-1E+10	1	-1E+10	1
4902642	39	C	07/15/2025	02:22	-131.449	46.030	0	124.60	0	7.7860	0	33.2680	0	25.947	0	123.540	0	156.4	4	53.6	4	-1E+10	1	-1E+10	1	-1E+10	1	-1E+10	1	-1E+10	1	-1E+10	1
4902642	39	C	07/15/2025	02:22	-131.449	46.030	0	134.70	0	7.5560	0	33.4290	0	26.106	0	133.550	0	148.4	4	50.6	4	-1E+10	1	-1E+10	1	-1E+10	1	-1E+10	1	-1E+10	1	-1E+10	1
4902642	39	C	07/15/2025	02:22	-131.449	46.030	0	144.50	0	7.4050	0	33.5500	0	26.223	0	143.263	0	139.3	4	47.4	4	-1E+10	1	-1E+10	1	-1E+10	1	-1E+10	1	-1E+10	1	-1E+10	1
4902642	39	C	07/15/2025	02:22	-131.449	46.030	0	155.40	0	7.2160	0	33.6430	0	26.322	0	154.066	0	133.6	4	45.3	4	-1E+10	1	-1E+10	1	-1E+10	1	-1E+10	1	-1E+10	1	-1E+10	1
4902642	39	C	07/15/2025	02:22	-131.449	46.030	0	164.60	0	7.1050	0	33.7380	0	26.413	0	163.183	0	122.3	4	41.4	4	-1E+10	1	-1E+10	1	-1E+10	1	-1E+10	1	-1E+10	1	-1E+10	1
4902642	39	C	07/15/2025	02:22	-131.449	46.030	0	174.90	0	7.0240	0	33.7820	0	26.458	0	173.390	0	117.0	4	39.5	4	-1E+10	1	-1E+10	1	-1E+10	1	-1E+10	1	-1E+10	1	-1E+10	1
4902642	39	C	07/15/2025	02:22	-131.449	46.030	0	185.00	0	6.9310	0	33.8090	0	26.492	0	183.399	0	112.5	4	37.9	4	-1E+10	1	-1E+10	1	-1E+10	1	-1E+10	1	-1E+10	1	-1E+10	1
4902642	39	C	07/15/2025	02:22	-131.449	46.030	0	194.50	0	6.8460	0	33.8240	0	26.516	0	192.812	0	109.5	4	36.9	4	-1E+10	1	-1E+10	1	-1E+10	1	-1E+10	1	-1E+10	1	-1E+10	1
4902642	39	C	07/15/2025	02:22	-131.449	46.030	0	209.40	0	6.6880	0	33.8410	0	26.551	0	207.575	0	102.7	4	34.5	4	-1E+10	1	-1E+10	1	-1E+10	1	-1E+10	1	-1E+10	1	-1E+10	1
4902642	39	C	07/15/2025	02:22	-131.449	46.030	0	229.70	0	6.5050	0	33.8600	0	26.590	0	227.687	0	97.7	4	32.6	4	-1E+10	1	-1E+10	1	-1E+10	1	-1E+10	1	-1E+10	1	-1E+10	1
4902642	39	C	07/15/2025	02:22	-131.449	46.030	0	249.70	0	6.2340	0	33.8600	0	26.625	0	247.500	0	97.9	4	32.5	4	-1E+10	1	-1E+10	1	-1E+10	1	-1E+10	1	-1E+10	1	-1E+10	1
4902642	39	C	07/15/2025	02:22	-131.449	46.030	0	269.60	0	5.9050	0	33.8460	0	26.656	0	267.212	0	93.6	4	30.8	4	-1E+10	1	-1E+10	1	-1E+10	1	-1E+10	1	-1E+10	1	-1E+10	1
4902642	39	C	07/15/2025	02:22	-131.449	46.030	0	289.10	0	5.7550	0	33.8680	0	26.692	0	286.526	0	84.2	4	27.7	4	-1E+10	1	-1E+10	1	-1E+10	1	-1E+10	1	-1E+10	1	-1E+10	1
4902642	39	C	07/15/2025	02:22	-131.449	46.030	0	309.90	0	5.4810	0	33.8750	0	26.730	0	307.125	0	76.1	4	24.8	4	-1E+10	1	-1E+10	1	-1E+10	1	-1E+10	1	-1E+10	1	-1E+10	1
4902642	39	C	07/15/2025	02:22	-131.449	46.030	0	329.80	0	5.3130	0	33.8900	0	26.762	0	326.831	0	70.9	4	23.0	4	-1E+10	1	-1E+10	1	-1E+10	1	-1E+10	1	-1E+10	1	-1E+10	1
4902642	39	C	07/15/2025	02:22	-131.449	46.030	0	349.60	0	5.1970	0	33.9010	0	26.785	0	346.436	0	65.2	4	21.1	4	-1E+10	1	-1E+10	1	-1E+10	1	-1E+10	1	-1E+10	1	-1E+10	1
4902642	39	C	07/15/2025	02:22	-131.449	46.030	0	369.90	0	5.0500	0	33.9120	0	26.810	0	366.535	0	60.4	4	19.5	4	-1E+10	1	-1E+10	1	-1E+10	1	-1E+10	1	-1E+10	1	-1E+10	1
4902642	39	C	07/15/2025	02:22	-131.449	46.030	0	389.60	0	4.9450	0	33.9360	0	26.842	0	386.037	0	53.1	4	17.1	4	-1E+10	1	-1E+10	1	-1E+10	1	-1E+10	1	-1E+10	1	-1E+10	1
4902642	39	C	07/15/2025	02:22	-131.449	46.030	0	409.60	0	4.8530	0	33.9590	0	26.870	0	405.835	0	47.9	4	15.4	4	-1E+10	1	-1E+10	1	-1E+10	1	-1E+10	1	-1E+10	1	-1E+10	1
4902642	39	C	07/15/2025	02:22	-131.449	46.030	0	430.10	0	4.8290	0	33.9900	0	26.898	0	426.125	0	41.3	4	13.3	4	-1E+10	1	-1E+10	1	-1E+10	1	-1E+10	1	-1E+10	1	-1E+10	1
4902642	39	C	07/15/2025	02:22	-131.449	46.030	0	449.80	0	4.8180	0	34.0130	0	26.917	0	445.622	0	36.8	4	11.8	4	-1E+10	1	-1E+10	1	-1E+10	1	-1E+10	1	-1E+10	1	-1E+10	1
4902642	39	C	07/15/2025	02:22	-131.449	46.030	0	469.80	0	4.7810	0	34.0370	0	26.941	0	465.414	0	31.4	4	10.1	4	-1E+10	1	-1E+10	1	-1E+10	1	-1E+10	1	-1E+10	1	-1E+10	1
4902642	39	C	07/15/2025	02:22	-131.449	46.030	0	489.90	0	4.7370	0	34.0670	0	26.970	0	485.302	0	26.4	4	8.5	4	-1E+10	1	-1E+10	1	-1E+10	1	-1E+10	1	-1E+10	1	-1E+10	1
4902642	39	C	07/15/2025	02:22	-131.449	46.030	0	510.10	0	4.6470	0	34.0890	0	26.997	0	505.288	0	22.9	4	7.3	4	-1E+10	1	-1E+10	1	-1E+10	1	-1E+10	1	-1E+10	1	-1E+10	1
4902642	39	C	07/15/2025	02:22	-131.449	46.030	0	529.90	0	4.5500	0	34.1050	0	27.020	0	524.877	0	19.5	4	6.2	4	-1E+10	1	-1E+10	1	-1E+10	1	-1E+10	1	-1E+10	1	-1E+10	1
4902642	39	C	07/15/2025	02:22	-131.449	46.030	0	549.50	0	4.5500	0	34.1390	0	27.048	0	544.265	0	15.8	4	5.0	4	-1E+10	1	-1E+10	1	-1E+10	1	-1E+10	1	-1E+10	1	-1E+10	1
4902642	39	C	07/15/2025	02:22	-131.449	46.030	0	569.60	0	4.5090	0	34.1590	0	27.068	0	564.146	0	13.5	4	4.3	4	-1E+10	1	-1E+10	1	-1E+10	1	-1E+10	1	-1E+10	1	-1E+10	1
4902642	39	C	07/15/2025	02:22	-131.449	46.030	0	590.00	0	4.4850	0	34.1760	0	27.084	0	584.322	0	12.1	4	3.9	4	-1E+10	1	-1E+10	1	-1E+10	1	-1E+10	1	-1E+10	1	-1E+10	1
4902642	39	C	07/15/2025	02:22	-131.449	46.030	0	610.00	0	4.3940	0	34.1820	0	27.099	0	604.101	0	11.8	4	3.8	4	-1E+10	1	-1E+10	1	-1E+10	1	-1E+10	1	-1E+10	1	-1E+10	1
4902642	39	C	07/15/2025	02:22	-131.449	46.030	0	629.80	0	4.2750	0	34.1850	0	27.114	0	623.680	0	11.3	4	3.6	4	-1E+10	1	-1E+10	1	-1E+10	1	-1E+10	1	-1E+10	1	-1E+10	1
4902642	39	C	07/15/2025	02:22	-131.449	46.030	0	649.50	0	4.2380	0	34.2020	0	27.132	0	643.158	0	9.8	4	3.1	4	-1E+10	1	-1E+10	1	-1E+10	1	-1E+10	1	-1E+10	1	-1E+10	1
4902642	39	C	07/15/2025	02:22	-131.449	46.030	0	669.60	0	4.2140	0	34.2190	0	27.148	0	663.030	0	8.9	4	2.8	4	-1E+10	1	-1E+10	1	-1E+10	1	-1E+10	1	-1E+10	1	-1E+10	1
4902642	39	C	07/15/2025	02:22	-131.449	46.030	0	689.90	0	4.1440	0	34.2240	0	27.159	0	683.097	0	8.8	4	2.8	4	-1E+10	1	-1E+10	1	-1E+10	1	-1E+10	1	-1E+10	1	-1E+10	1
4902642	39	C	07/15/2025	02:22	-131.449	46.030	0	709.80	0	4.0350	0	34.2250	0	27.171	0	702.768	0	8.5	4	2.7	4	-1E+10	1	-1E+10	1	-1E+10	1	-1E+10	1	-1E+10	1	-1E+10	1
4902642	39	C	07/15/2025	02:22	-131.449	46.030	0	729.80	0	3.9980	0	34.2390	0	27.187	0	722.535	0	7.8	4	2.5	4	-1E+10	1	-1E+10	1	-1E+10	1	-1E+10	1	-1E+10	1	-1E+10	1
4902642	39	C	07/15/2025	02:22	-131.449	46.030	0	749.70	0	3.9510	0	34.2520	0	27.202	0	742.201	0	7.2	4	2.3	4	-1E+10	1	-1E+10	1	-1E+10	1	-1E+10	1	-1E+10	1	-1E+10	1
4902642	39	C	07/15/2025	02:22	-131.449	46.030	0	770.20	0	3.9030	0	34.2720	0	27.223	0	762.459	0	6.5	4	2.0	4	-1E+10	1	-1E+10	1	-1E+10	1	-1E+10	1	-1E+10	1	-1E+10	1
4902642	39	C	07/15/2025	02:22	-131.449	46.030	0	790.50	0	3.8160	0	34.2840	0	27.241	0	782.517	0	6.2	4	2.0	4	-1E+10	1	-1E+10	1	-1E+10	1	-1E+10	1	-1E+10	1	-1E+10	1
4902642	39	C	07/15/2025	02:22	-131.449	46.030	0	810.80	0	3.7780	0	34.2960	0	27.255	0	802.573	0	5.9	4	1.9	4	-1E+10	1	-1E+10	1	-1E+10	1	-1E+10	1	-1E+10	1	-1E+10	1
4902642	39	C	07/15/2025	02:22	-131.449	46.030	0	829.80	0	3.7330	0	34.3080	0	27.269	0	821.343	0	5.6	4	1.8	4	-1E+10	1	-1E+10	1	-1E+10	1	-1E+10	1	-1E+10	1	-1E+10	1
4902642	39	C	07/15/2025	02:22	-131.449	46.030	0	849.50	0	3.6870	0	34.3190	0	27.282	0	840.802	0	5.4	4	1.7	4	-1E+10	1	-1E+10	1	-1E+10	1	-1E+10	1	-1E+10	1	-1E+10	1
4902642	39	C	07/15/2025	02:22	-131.449	46.030	0	869.70	0	3.6670	0	34.3310	0	27.294	0	860.754	0	5.3	4	1.7	4	-1E+10	1	-1E+10	1	-1E+10	1	-1E+10	1	-1E+10	1	-1E+10	1
4902642	39	C	07/15/2025	02:22	-131.449	46.030	0	890.00	0	3.6320	0	34.3400	0	27.305	0	880.802	0	5.3	4	1.7	4	-1E+10	1	-1E+10	1	-1E+10	1	-1E+10	1	-1E+10	1	-1E+10	1
4902642	39	C	07/15/2025	02:22	-131.449	46.030	0	910.00	0	3.5940	0	34.3490	0	27.316	0	900.553	0	5.4	4	1.7	4	-1E+10	1	-1E+10	1	-1E+10	1	-1E+10	1	-1E+10	1	-1E+10	1
4902642	39	C	07/15/2025	02:22	-131.449	46.030	0	930.00	0	3.5580	0	34.3580	0	27.326	0	920.301	0	5.5	4	1.7	4	-1E+10	1	-1E+10	1	-1E+10	1	-1E+10	1	-1E+10	1	-1E+10	1
4902642	39	C	07/15/2025	02:22	-131.449	46.030	0	950.30	0	3.5260	0	34.3660	0	27.336	0	940.344	0	5.6	4	1.8	4	-1E+10	1	-1E+10	1	-1E+10	1	-1E+10	1	-1E+10	1	-1E+10	1
4902642	39	C	07/15/2025	02:22	-131.449	46.030	0	969.90	0	3.4990	0	34.3760	0	27.347	0	959.694	0	5.8	4	1.8	4	-1E+10	1	-1E+10	1	-1E+10	1	-1E+10	1	-1E+10	1	-1E+10	1
4902642	39	C	07/15/2025	02:22	-131.449	46.030	0	989.60	0	3.4640	0	34.3860	0	27.358	0	979.140	0	6.1	4	1.9	4	-1E+10	1	-1E+10	1	-1E+10	1	-1E+10	1	-1E+10	1	-1E+10	1
4902642	39	C	07/15/2025	02:22	-131.449	46.030	0	1009.80	0	3.4350	0	34.3930	0	27.367	0	999.079	0	6.3	4	2.0	4	-1E+10	1	-1E+10	1	-1E+10	1	-1E+10	1	-1E+10	1	-1E+10	1
4902642	39	C	07/15/2025	02:22	-131.449	46.030	0	1030.40	0	3.3950	0	34.4000	0	27.376	0	1019.410	0	6.6	4	2.1	4	-1E+10	1	-1E+10	1	-1E+10	1	-1E+10	1	-1E+10	1	-1E+10	1
4902642	39	C	07/15/2025	02:22	-131.449	46.030	0	1049.70	0	3.3490	0	34.4060	0	27.385	0	1038.456	0	6.9	4	2.1	4	-1E+10	1	-1E+10	1	-1E+10	1	-1E+10	1	-1E+10	1	-1E+10	1
4902642	39	C	07/15/2025	02:22	-131.449	46.030	0	1069.70	0	3.3150	0	34.4130	0	27.394	0	1058.192	0	7.3	4	2.3	4	-1E+10	1	-1E+10	1	-1E+10	1	-1E+10	1	-1E+10	1	-1E+10	1
4902642	39	C	07/15/2025	02:22	-131.449	46.030	0	1089.60	0	3.2750	0	34.4190	0	27.403	0	1077.826	0	7.6	4	2.4	4	-1E+10	1	-1E+10	1	-1E+10	1	-1E+10	1	-1E+10	1	-1E+10	1
4902642	39	C	07/15/2025	02:22	-131.449	46.030	0	1109.60	0	3.2320	0	34.4250	0	27.412	0	1097.558	0	8.0	4	2.5	4	-1E+10	1	-1E+10	1	-1E+10	1	-1E+10	1	-1E+10	1	-1E+10	1
4902642	39	C	07/15/2025	02:22	-131.449	46.030	0	1129.50	0	3.1860	0	34.4300	0	27.420	0	1117.189	0	8.3	4	2.6	4	-1E+10	1	-1E+10	1	-1E+10	1	-1E+10	1	-1E+10	1	-1E+10	1
4902642	39	C	07/15/2025	02:22	-131.449	46.030	0	1150.30	0	3.1610	0	34.4340	0	27.426	0	1137.706	0	8.7	4	2.7	4	-1E+10	1	-1E+10	1	-1E+10	1	-1E+10	1	-1E+10	1	-1E+10	1
4902642	39	C	07/15/2025	02:22	-131.449	46.030	0	1170.00	0	3.1370	0	34.4400	0	27.433	0	1157.136	0	9.3	4	2.9	4	-1E+10	1	-1E+10	1	-1E+10	1	-1E+10	1	-1E+10	1	-1E+10	1
4902642	39	C	07/15/2025	02:22	-131.449	46.030	0	1190.10	0	3.0880	0	34.4470	0	27.443	0	1176.959	0	10.0	4	3.1	4	-1E+10	1	-1E+10	1	-1E+10	1	-1E+10	1	-1E+10	1	-1E+10	1
4902642	39	C	07/15/2025	02:22	-131.449	46.030	0	1210.30	0	3.0450	0	34.4540	0	27.453	0	1196.879	0	10.8	4	3.3	4	-1E+10	1	-1E+10	1	-1E+10	1	-1E+10	1	-1E+10	1	-1E+10	1
4902642	39	C	07/15/2025	02:22	-131.449	46.030	0	1230.30	0	2.9990	0	34.4610	0	27.463	0	1216.599	0	11.7	4	3.6	4	-1E+10	1	-1E+10	1	-1E+10	1	-1E+10	1	-1E+10	1	-1E+10	1
4902642	39	C	07/15/2025	02:22	-131.449	46.030	0	1250.20	0	2.9560	0	34.4660	0	27.471	0	1236.219	0	12.4	4	3.8	4	-1E+10	1	-1E+10	1	-1E+10	1	-1E+10	1	-1E+10	1	-1E+10	1
4902642	39	C	07/15/2025	02:22	-131.449	46.030	0	1270.30	0	2.9170	0	34.4700	0	27.477	0	1256.034	0	13.0	4	4.0	4	-1E+10	1	-1E+10	1	-1E+10	1	-1E+10	1	-1E+10	1	-1E+10	1
4902642	39	C	07/15/2025	02:22	-131.449	46.030	0	1290.90	0	2.8720	0	34.4760	0	27.486	0	1276.340	0	14.0	4	4.3	4	-1E+10	1	-1E+10	1	-1E+10	1	-1E+10	1	-1E+10	1	-1E+10	1
4902642	39	C	07/15/2025	02:22	-131.449	46.030	0	1310.10	0	2.8250	0	34.4810	0	27.495	0	1295.265	0	14.9	4	4.6	4	-1E+10	1	-1E+10	1	-1E+10	1	-1E+10	1	-1E+10	1	-1E+10	1
4902642	39	C	07/15/2025	02:22	-131.449	46.030	0	1329.90	0	2.7790	0	34.4860	0	27.503	0	1314.779	0	15.6	4	4.8	4	-1E+10	1	-1E+10	1	-1E+10	1	-1E+10	1	-1E+10	1	-1E+10	1
4902642	39	C	07/15/2025	02:22	-131.449	46.030	0	1349.80	0	2.7370	0	34.4900	0	27.510	0	1334.390	0	16.2	4	5.0	4	-1E+10	1	-1E+10	1	-1E+10	1	-1E+10	1	-1E+10	1	-1E+10	1
4902642	39	C	07/15/2025	02:22	-131.449	46.030	0	1369.90	0	2.7150	0	34.4920	0	27.513	0	1354.196	0	16.8	4	5.2	4	-1E+10	1	-1E+10	1	-1E+10	1	-1E+10	1	-1E+10	1	-1E+10	1
4902642	39	C	07/15/2025	02:22	-131.449	46.030	0	1390.20	0	2.6820	0	34.4970	0	27.520	0	1374.197	0	17.9	4	5.5	4	-1E+10	1	-1E+10	1	-1E+10	1	-1E+10	1	-1E+10	1	-1E+10	1
4902642	39	C	07/15/2025	02:22	-131.449	46.030	0	1409.90	0	2.6520	0	34.5000	0	27.525	0	1393.605	0	18.6	4	5.7	4	-1E+10	1	-1E+10	1	-1E+10	1	-1E+10	1	-1E+10	1	-1E+10	1
4902642	39	C	07/15/2025	02:22	-131.449	46.030	0	1429.90	0	2.6250	0	34.5030	0	27.530	0	1413.307	0	19.4	4	5.9	4	-1E+10	1	-1E+10	1	-1E+10	1	-1E+10	1	-1E+10	1	-1E+10	1
4902642	39	C	07/15/2025	02:22	-131.449	46.030	0	1449.90	0	2.5950	0	34.5060	0	27.535	0	1433.007	0	20.1	4	6.2	4	-1E+10	1	-1E+10	1	-1E+10	1	-1E+10	1	-1E+10	1	-1E+10	1
4902642	39	C	07/15/2025	02:22	-131.449	46.030	0	1469.80	0	2.5650	0	34.5090	0	27.540	0	1452.607	0	21.0	4	6.4	4	-1E+10	1	-1E+10	1	-1E+10	1	-1E+10	1	-1E+10	1	-1E+10	1
4902642	39	C	07/15/2025	02:22	-131.449	46.030	0	1489.90	0	2.5320	0	34.5120	0	27.546	0	1472.402	0	21.9	4	6.7	4	-1E+10	1	-1E+10	1	-1E+10	1	-1E+10	1	-1E+10	1	-1E+10	1
4902642	39	C	07/15/2025	02:22	-131.449	46.030	0	1510.00	0	2.4970	0	34.5160	0	27.552	0	1492.195	0	22.9	4	7.0	4	-1E+10	1	-1E+10	1	-1E+10	1	-1E+10	1	-1E+10	1	-1E+10	1
4902642	39	C	07/15/2025	02:22	-131.449	46.030	0	1530.80	0	2.4620	0	34.5200	0	27.558	0	1512.675	0	24.2	4	7.4	4	-1E+10	1	-1E+10	1	-1E+10	1	-1E+10	1	-1E+10	1	-1E+10	1
4902642	39	C	07/15/2025	02:22	-131.449	46.030	0	1550.20	0	2.4220	0	34.5250	0	27.566	0	1531.775	0	25.6	4	7.8	4	-1E+10	1	-1E+10	1	-1E+10	1	-1E+10	1	-1E+10	1	-1E+10	1
4902642	39	C	07/15/2025	02:22	-131.449	46.030	0	1570.10	0	2.3790	0	34.5310	0	27.574	0	1551.366	0	26.7	4	8.1	4	-1E+10	1	-1E+10	1	-1E+10	1	-1E+10	1	-1E+10	1	-1E+10	1
4902642	39	C	07/15/2025	02:22	-131.449	46.030	0	1589.80	0	2.3500	0	34.5350	0	27.580	0	1570.758	0	28.2	4	8.6	4	-1E+10	1	-1E+10	1	-1E+10	1	-1E+10	1	-1E+10	1	-1E+10	1
4902642	39	C	07/15/2025	02:22	-131.449	46.030	0	1609.90	0	2.3260	0	34.5380	0	27.584	0	1590.541	0	29.4	4	8.9	4	-1E+10	1	-1E+10	1	-1E+10	1	-1E+10	1	-1E+10	1	-1E+10	1
4902642	39	C	07/15/2025	02:22	-131.449	46.030	0	1630.40	0	2.3000	0	34.5420	0	27.590	0	1610.717	0	30.5	4	9.3	4	-1E+10	1	-1E+10	1	-1E+10	1	-1E+10	1	-1E+10	1	-1E+10	1
4902642	39	C	07/15/2025	02:22	-131.449	46.030	0	1649.90	0	2.2800	0	34.5440	0	27.593	0	1629.907	0	31.5	4	9.6	4	-1E+10	1	-1E+10	1	-1E+10	1	-1E+10	1	-1E+10	1	-1E+10	1
4902642	39	C	07/15/2025	02:22	-131.449	46.030	0	1670.10	0	2.2490	0	34.5480	0	27.599	0	1649.783	0	32.8	4	9.9	4	-1E+10	1	-1E+10	1	-1E+10	1	-1E+10	1	-1E+10	1	-1E+10	1
4902642	39	C	07/15/2025	02:22	-131.449	46.030	0	1690.10	0	2.2270	0	34.5510	0	27.603	0	1669.461	0	33.9	4	10.3	4	-1E+10	1	-1E+10	1	-1E+10	1	-1E+10	1	-1E+10	1	-1E+10	1
4902642	39	C	07/15/2025	02:22	-131.449	46.030	0	1710.00	0	2.1930	0	34.5550	0	27.609	0	1689.039	0	35.6	4	10.8	4	-1E+10	1	-1E+10	1	-1E+10	1	-1E+10	1	-1E+10	1	-1E+10	1
4902642	39	C	07/15/2025	02:22	-131.449	46.030	0	1730.00	0	2.1680	0	34.5590	0	27.614	0	1708.713	0	36.8	4	11.1	4	-1E+10	1	-1E+10	1	-1E+10	1	-1E+10	1	-1E+10	1	-1E+10	1
4902642	39	C	07/15/2025	02:22	-131.449	46.030	0	1750.10	0	2.1500	0	34.5620	0	27.618	0	1728.484	0	37.9	4	11.5	4	-1E+10	1	-1E+10	1	-1E+10	1	-1E+10	1	-1E+10	1	-1E+10	1
4902642	39	C	07/15/2025	02:22	-131.449	46.030	0	1770.50	0	2.1260	0	34.5650	0	27.623	0	1748.548	0	39.2	4	11.8	4	-1E+10	1	-1E+10	1	-1E+10	1	-1E+10	1	-1E+10	1	-1E+10	1
4902642	39	C	07/15/2025	02:22	-131.449	46.030	0	1789.80	0	2.1040	0	34.5680	0	27.627	0	1767.529	0	40.1	4	12.1	4	-1E+10	1	-1E+10	1	-1E+10	1	-1E+10	1	-1E+10	1	-1E+10	1
4902642	39	C	07/15/2025	02:22	-131.449	46.030	0	1809.70	0	2.0860	0	34.5710	0	27.631	0	1787.097	0	41.5	4	12.5	4	-1E+10	1	-1E+10	1	-1E+10	1	-1E+10	1	-1E+10	1	-1E+10	1
4902642	39	C	07/15/2025	02:22	-131.449	46.030	0	1829.80	0	2.0620	0	34.5740	0	27.635	0	1806.861	0	42.9	4	12.9	4	-1E+10	1	-1E+10	1	-1E+10	1	-1E+10	1	-1E+10	1	-1E+10	1
4902642	39	C	07/15/2025	02:22	-131.449	46.030	0	1849.90	0	2.0430	0	34.5770	0	27.639	0	1826.623	0	43.9	4	13.2	4	-1E+10	1	-1E+10	1	-1E+10	1	-1E+10	1	-1E+10	1	-1E+10	1
4902642	39	C	07/15/2025	02:22	-131.449	46.030	0	1870.00	0	2.0330	0	34.5790	0	27.642	0	1846.383	0	44.5	4	13.4	4	-1E+10	1	-1E+10	1	-1E+10	1	-1E+10	1	-1E+10	1	-1E+10	1
4902642	39	C	07/15/2025	02:22	-131.449	46.030	0	1889.90	0	2.0200	0	34.5800	0	27.644	0	1865.944	0	45.5	4	13.7	4	-1E+10	1	-1E+10	1	-1E+10	1	-1E+10	1	-1E+10	1	-1E+10	1
4902642	39	C	07/15/2025	02:22	-131.449	46.030	0	1910.40	0	2.0010	0	34.5840	0	27.648	0	1886.093	0	46.5	4	14.0	4	-1E+10	1	-1E+10	1	-1E+10	1	-1E+10	1	-1E+10	1	-1E+10	1
4902642	39	C	07/15/2025	02:22	-131.449	46.030	0	1929.90	0	1.9920	0	34.5850	0	27.650	0	1905.258	0	47.0	4	14.2	4	-1E+10	1	-1E+10	1	-1E+10	1	-1E+10	1	-1E+10	1	-1E+10	1
4902642	39	C	07/15/2025	02:22	-131.449	46.030	0	1949.80	0	1.9810	0	34.5870	0	27.653	0	1924.814	0	47.8	4	14.4	4	-1E+10	1	-1E+10	1	-1E+10	1	-1E+10	1	-1E+10	1	-1E+10	1
4902642	39	C	07/15/2025	02:22	-131.449	46.030	0	1970.10	0	1.9710	0	34.5880	0	27.654	0	1944.761	0	48.6	4	14.6	4	-1E+10	1	-1E+10	1	-1E+10	1	-1E+10	1	-1E+10	1	-1E+10	1
4902642	39	C	07/15/2025	02:22	-131.449	46.030	0	1990.20	0	1.9610	0	34.5900	0	27.657	0	1964.510	0	49.5	4	14.9	4	-1E+10	1	-1E+10	1	-1E+10	1	-1E+10	1	-1E+10	1	-1E+10	1
4902642	39	C	07/15/2025	02:22	-131.449	46.030	0	2010.50	0	1.9520	0	34.5920	4	27.659	0	1984.454	0	50.3	4	15.2	4	-1E+10	1	-1E+10	1	-1E+10	1	-1E+10	1	-1E+10	1	-1E+10	1
4902642	39	C	07/15/2025	02:22	-131.449	46.030	0	2030.00	0	1.9440	0	34.5940	4	27.662	0	2003.609	0	51.0	4	15.4	4	-1E+10	1	-1E+10	1	-1E+10	1	-1E+10	1	-1E+10	1	-1E+10	1
4902642	39	C	07/15/2025	02:22	-131.449	46.030	0	2050.30	0	1.9350	0	34.5950	4	27.663	0	2023.549	0	51.8	4	15.6	4	-1E+10	1	-1E+10	1	-1E+10	1	-1E+10	1	-1E+10	1	-1E+10	1
4902642	39	C	07/15/2025	02:22	-131.449	46.030	0	2070.30	0	1.9270	0	34.5970	4	27.665	0	2043.193	0	52.5	4	15.8	4	-1E+10	1	-1E+10	1	-1E+10	1	-1E+10	1	-1E+10	1	-1E+10	1
4902642	39	C	07/15/2025	02:22	-131.449	46.030	0	2090.20	0	1.9230	0	34.5980	4	27.667	0	2062.736	0	52.9	4	15.9	4	-1E+10	1	-1E+10	1	-1E+10	1	-1E+10	1	-1E+10	1	-1E+10	1
4902642	39	C	07/15/2025	02:22	-131.449	46.030	0	2109.90	0	1.9150	0	34.5990	4	27.668	0	2082.081	0	53.7	4	16.2	4	-1E+10	1	-1E+10	1	-1E+10	1	-1E+10	1	-1E+10	1	-1E+10	1
4902642	39	C	07/15/2025	02:22	-131.449	46.030	0	2129.70	0	1.9080	0	34.6010	4	27.670	0	2101.523	0	54.4	4	16.4	4	-1E+10	1	-1E+10	1	-1E+10	1	-1E+10	1	-1E+10	1	-1E+10	1
4902642	39	C	07/15/2025	02:22	-131.449	46.030	0	2150.10	0	1.8960	0	34.6030	4	27.673	0	2121.552	0	55.3	4	16.6	4	-1E+10	1	-1E+10	1	-1E+10	1	-1E+10	1	-1E+10	1	-1E+10	1
4902642	39	C	07/15/2025	02:22	-131.449	46.030	0	2170.20	0	1.8880	0	34.6050	4	27.675	0	2141.284	0	56.1	4	16.9	4	-1E+10	1	-1E+10	1	-1E+10	1	-1E+10	1	-1E+10	1	-1E+10	1
4902642	39	C	07/15/2025	02:22	-131.449	46.030	0	2190.10	0	1.8780	0	34.6060	4	27.677	0	2160.818	0	57.0	4	17.2	4	-1E+10	1	-1E+10	1	-1E+10	1	-1E+10	1	-1E+10	1	-1E+10	1
4902642	39	C	07/15/2025	02:22	-131.449	46.030	0	2210.10	0	1.8660	0	34.6090	4	27.681	0	2180.449	0	58.1	4	17.5	4	-1E+10	1	-1E+10	1	-1E+10	1	-1E+10	1	-1E+10	1	-1E+10	1
4902642	39	C	07/15/2025	02:22	-131.449	46.030	0	2230.20	0	1.8570	0	34.6100	4	27.682	0	2200.176	0	59.0	4	17.7	4	-1E+10	1	-1E+10	1	-1E+10	1	-1E+10	1	-1E+10	1	-1E+10	1
4902642	39	C	07/15/2025	02:22	-131.449	46.030	0	2249.90	0	1.8490	0	34.6120	4	27.684	0	2219.509	0	59.9	4	18.0	4	-1E+10	1	-1E+10	1	-1E+10	1	-1E+10	1	-1E+10	1	-1E+10	1
4902642	39	C	07/15/2025	02:22	-131.449	46.030	0	2269.90	0	1.8410	0	34.6140	4	27.687	0	2239.134	0	60.7	4	18.2	4	-1E+10	1	-1E+10	1	-1E+10	1	-1E+10	1	-1E+10	1	-1E+10	1
4902642	39	C	07/15/2025	02:22	-131.449	46.030	0	2289.80	0	1.8360	0	34.6150	4	27.688	0	2258.660	0	61.2	4	18.4	4	-1E+10	1	-1E+10	1	-1E+10	1	-1E+10	1	-1E+10	1	-1E+10	1
4902642	39	C	07/15/2025	02:22	-131.449	46.030	0	2309.80	0	1.8340	0	34.6150	4	27.688	0	2278.281	0	61.5	4	18.5	4	-1E+10	1	-1E+10	1	-1E+10	1	-1E+10	1	-1E+10	1	-1E+10	1
4902642	39	C	07/15/2025	02:22	-131.449	46.030	0	2330.40	0	1.8290	0	34.6160	4	27.690	0	2298.490	0	62.1	4	18.6	4	-1E+10	1	-1E+10	1	-1E+10	1	-1E+10	1	-1E+10	1	-1E+10	1
4902642	39	C	07/15/2025	02:22	-131.449	46.030	0	2350.10	0	1.8240	0	34.6170	4	27.691	0	2317.814	0	62.6	4	18.8	4	-1E+10	1	-1E+10	1	-1E+10	1	-1E+10	1	-1E+10	1	-1E+10	1
4902642	39	C	07/15/2025	02:22	-131.449	46.030	0	2370.30	0	1.8200	0	34.6180	4	27.692	0	2337.626	0	63.0	4	18.9	4	-1E+10	1	-1E+10	1	-1E+10	1	-1E+10	1	-1E+10	1	-1E+10	1
4902642	39	C	07/15/2025	02:22	-131.449	46.030	0	2390.00	0	1.8170	0	34.6180	4	27.693	0	2356.946	0	63.4	4	19.0	4	-1E+10	1	-1E+10	1	-1E+10	1	-1E+10	1	-1E+10	1	-1E+10	1
4902642	39	C	07/15/2025	02:22	-131.449	46.030	0	2409.70	0	1.8120	0	34.6190	4	27.694	0	2376.265	0	63.9	4	19.2	4	-1E+10	1	-1E+10	1	-1E+10	1	-1E+10	1	-1E+10	1	-1E+10	1
4902642	39	C	07/15/2025	02:22	-131.449	46.030	0	2430.10	0	1.8090	0	34.6200	4	27.695	0	2396.268	0	64.3	4	19.3	4	-1E+10	1	-1E+10	1	-1E+10	1	-1E+10	1	-1E+10	1	-1E+10	1
4902642	39	C	07/15/2025	02:22	-131.449	46.030	0	2450.00	0	1.8040	0	34.6210	4	27.696	0	2415.779	0	65.0	4	19.5	4	-1E+10	1	-1E+10	1	-1E+10	1	-1E+10	1	-1E+10	1	-1E+10	1
4902642	39	C	07/15/2025	02:22	-131.449	46.030	0	2469.60	0	1.7990	0	34.6210	4	27.697	0	2434.994	0	65.5	4	19.7	4	-1E+10	1	-1E+10	1	-1E+10	1	-1E+10	1	-1E+10	1	-1E+10	1
4902642	39	C	07/15/2025	02:22	-131.449	46.030	0	2489.70	0	1.7920	0	34.6220	4	27.698	0	2454.698	0	66.3	4	19.9	4	-1E+10	1	-1E+10	1	-1E+10	1	-1E+10	1	-1E+10	1	-1E+10	1
4902642	39	C	07/15/2025	02:22	-131.449	46.030	0	2510.20	0	1.7830	0	34.6240	4	27.701	0	2474.792	0	67.1	4	20.1	4	-1E+10	1	-1E+10	1	-1E+10	1	-1E+10	1	-1E+10	1	-1E+10	1
4902642	39	C	07/15/2025	02:22	-131.449	46.030	0	2529.80	0	1.7790	0	34.6250	4	27.702	0	2494.002	0	67.6	4	20.3	4	-1E+10	1	-1E+10	1	-1E+10	1	-1E+10	1	-1E+10	1	-1E+10	1
4902642	39	C	07/15/2025	02:22	-131.449	46.030	0	2550.00	0	1.7740	0	34.6250	4	27.702	0	2513.798	0	68.3	4	20.5	4	-1E+10	1	-1E+10	1	-1E+10	1	-1E+10	1	-1E+10	1	-1E+10	1
4902642	39	C	07/15/2025	02:22	-131.449	46.030	0	2570.20	0	1.7640	0	34.6270	4	27.705	0	2533.592	0	69.2	4	20.8	4	-1E+10	1	-1E+10	1	-1E+10	1	-1E+10	1	-1E+10	1	-1E+10	1
4902642	39	C	07/15/2025	02:22	-131.449	46.030	0	2590.10	0	1.7570	0	34.6270	4	27.705	0	2553.091	0	69.9	4	21.0	4	-1E+10	1	-1E+10	1	-1E+10	1	-1E+10	1	-1E+10	1	-1E+10	1
4902642	39	C	07/15/2025	02:22	-131.449	46.030	0	2609.70	0	1.7480	0	34.6280	4	27.707	0	2572.294	0	70.7	4	21.2	4	-1E+10	1	-1E+10	1	-1E+10	1	-1E+10	1	-1E+10	1	-1E+10	1
4902642	39	C	07/15/2025	02:22	-131.449	46.030	0	2629.90	0	1.7400	0	34.6290	4	27.709	0	2592.083	0	71.3	4	21.4	4	-1E+10	1	-1E+10	1	-1E+10	1	-1E+10	1	-1E+10	1	-1E+10	1
4902642	39	C	07/15/2025	02:22	-131.449	46.030	0	2650.20	0	1.7380	0	34.6300	4	27.710	0	2611.968	0	71.7	4	21.5	4	-1E+10	1	-1E+10	1	-1E+10	1	-1E+10	1	-1E+10	1	-1E+10	1
4902642	39	C	07/15/2025	02:22	-131.449	46.030	0	2670.00	0	1.7340	0	34.6300	4	27.710	0	2631.361	0	72.4	4	21.7	4	-1E+10	1	-1E+10	1	-1E+10	1	-1E+10	1	-1E+10	1	-1E+10	1
4902642	39	C	07/15/2025	02:22	-131.449	46.030	0	2689.90	0	1.7230	0	34.6320	4	27.713	0	2650.851	0	73.6	4	22.0	4	-1E+10	1	-1E+10	1	-1E+10	1	-1E+10	1	-1E+10	1	-1E+10	1
4902642	39	C	07/15/2025	02:22	-131.449	46.030	0	2709.90	0	1.7110	0	34.6330	4	27.714	0	2670.437	0	74.9	4	22.4	4	-1E+10	1	-1E+10	1	-1E+10	1	-1E+10	1	-1E+10	1	-1E+10	1
4902642	39	C	07/15/2025	02:22	-131.449	46.030	0	2730.20	0	1.7000	0	34.6350	4	27.717	0	2690.315	0	76.0	4	22.7	4	-1E+10	1	-1E+10	1	-1E+10	1	-1E+10	1	-1E+10	1	-1E+10	1
4902642	39	C	07/15/2025	02:22	-131.449	46.030	0	2749.80	0	1.6940	0	34.6360	4	27.718	0	2709.506	0	76.6	4	22.9	4	-1E+10	1	-1E+10	1	-1E+10	1	-1E+10	1	-1E+10	1	-1E+10	1
4902642	39	C	07/15/2025	02:22	-131.449	46.030	0	2769.90	0	1.6890	0	34.6370	4	27.720	0	2729.184	0	77.4	4	23.2	4	-1E+10	1	-1E+10	1	-1E+10	1	-1E+10	1	-1E+10	1	-1E+10	1
4902642	39	C	07/15/2025	02:22	-131.449	46.030	0	2790.10	0	1.6840	0	34.6380	4	27.721	0	2748.959	0	78.1	4	23.4	4	-1E+10	1	-1E+10	1	-1E+10	1	-1E+10	1	-1E+10	1	-1E+10	1
4902642	39	C	07/15/2025	02:22	-131.449	46.030	0	2810.00	0	1.6780	0	34.6380	4	27.721	0	2768.438	0	78.8	4	23.6	4	-1E+10	1	-1E+10	1	-1E+10	1	-1E+10	1	-1E+10	1	-1E+10	1
4902642	39	C	07/15/2025	02:22	-131.449	46.030	0	2829.80	0	1.6750	0	34.6390	4	27.723	0	2787.818	0	79.4	4	23.7	4	-1E+10	1	-1E+10	1	-1E+10	1	-1E+10	1	-1E+10	1	-1E+10	1
4902642	39	C	07/15/2025	02:22	-131.449	46.030	0	2849.60	0	1.6690	0	34.6400	4	27.724	0	2807.195	0	80.1	4	24.0	4	-1E+10	1	-1E+10	1	-1E+10	1	-1E+10	1	-1E+10	1	-1E+10	1
4902642	39	C	07/15/2025	02:22	-131.449	46.030	0	2869.60	0	1.6630	0	34.6410	4	27.725	0	2826.767	0	81.0	4	24.2	4	-1E+10	1	-1E+10	1	-1E+10	1	-1E+10	1	-1E+10	1	-1E+10	1
4902642	39	C	07/15/2025	02:22	-131.449	46.030	0	2889.90	0	1.6580	0	34.6420	4	27.727	0	2846.630	0	81.7	4	24.4	4	-1E+10	1	-1E+10	1	-1E+10	1	-1E+10	1	-1E+10	1	-1E+10	1
4902642	39	C	07/15/2025	02:22	-131.449	46.030	0	2910.80	0	1.6530	0	34.6430	4	27.728	0	2867.079	0	82.4	4	24.7	4	-1E+10	1	-1E+10	1	-1E+10	1	-1E+10	1	-1E+10	1	-1E+10	1
4902642	39	C	07/15/2025	02:22	-131.449	46.030	0	2930.10	0	1.6490	0	34.6440	4	27.729	0	2885.961	0	83.1	4	24.9	4	-1E+10	1	-1E+10	1	-1E+10	1	-1E+10	1	-1E+10	1	-1E+10	1
4902642	39	C	07/15/2025	02:22	-131.449	46.030	0	2949.80	0	1.6420	0	34.6450	4	27.731	0	2905.232	0	84.1	4	25.1	4	-1E+10	1	-1E+10	1	-1E+10	1	-1E+10	1	-1E+10	1	-1E+10	1
4902642	39	C	07/15/2025	02:22	-131.449	46.030	0	2969.80	0	1.6380	0	34.6460	4	27.732	0	2924.795	0	84.7	4	25.3	4	-1E+10	1	-1E+10	1	-1E+10	1	-1E+10	1	-1E+10	1	-1E+10	1
4902642	39	C	07/15/2025	02:22	-131.449	46.030	0	2990.00	0	1.6360	0	34.6470	4	27.733	0	2944.552	0	85.0	4	25.4	4	-1E+10	1	-1E+10	1	-1E+10	1	-1E+10	1	-1E+10	1	-1E+10	1
4902642	39	C	07/15/2025	02:22	-131.449	46.030	0	3009.60	0	1.6340	0	34.6470	4	27.733	0	2963.720	0	85.5	4	25.6	4	-1E+10	1	-1E+10	1	-1E+10	1	-1E+10	1	-1E+10	1	-1E+10	1
4902642	39	C	07/15/2025	02:22	-131.449	46.030	0	3029.90	0	1.6320	0	34.6480	4	27.734	0	2983.571	0	85.9	4	25.7	4	-1E+10	1	-1E+10	1	-1E+10	1	-1E+10	1	-1E+10	1	-1E+10	1
4902642	39	C	07/15/2025	02:22	-131.449	46.030	0	3045.20	0	1.6310	0	34.6480	4	27.734	0	2998.531	0	86.1	4	25.7	4	-1E+10	1	-1E+10	1	-1E+10	1	-1E+10	1	-1E+10	1	-1E+10	1
4902642	39	C	07/15/2025	02:22	-131.449	46.030	0	3050.50	0	1.6310	0	34.6490	4	27.735	0	3003.713	0	86.1	4	25.7	4	-1E+10	1	-1E+10	1	-1E+10	1	-1E+10	1	-1E+10	1	-1E+10	1
4902642	39	C	07/15/2025	02:22	-131.449	46.030	0	3051.50	0	1.6310	0	34.6490	4	27.735	0	3004.691	0	86.1	4	25.7	4	-1E+10	1	-1E+10	1	-1E+10	1	-1E+10	1	-1E+10	1	-1E+10	1
4902642	39	C	07/15/2025	02:22	-131.449	46.030	0	3052.50	0	1.6310	0	34.6490	4	27.735	0	3005.669	0	86.1	4	25.7	4	-1E+10	1	-1E+10	1	-1E+10	1	-1E+10	1	-1E+10	1	-1E+10	1
4902642	39	C	07/15/2025	02:22	-131.449	46.030	0	3053.50	0	1.6320	0	34.6480	4	27.734	0	3006.646	0	86.1	4	25.7	4	-1E+10	1	-1E+10	1	-1E+10	1	-1E+10	1	-1E+10	1	-1E+10	1
4902642	39	C	07/15/2025	02:22	-131.449	46.030	0	3054.40	0	1.6310	0	34.6490	4	27.735	0	3007.526	0	86.2	4	25.8	4	-1E+10	1	-1E+10	1	-1E+10	1	-1E+10	1	-1E+10	1	-1E+10	1
4902642	39	C	07/15/2025	02:22	-131.449	46.030	0	3055.40	0	1.6310	0	34.6490	4	27.735	0	3008.504	0	86.2	4	25.8	4	-1E+10	1	-1E+10	1	-1E+10	1	-1E+10	1	-1E+10	1	-1E+10	1
4902642	39	C	07/15/2025	02:22	-131.449	46.030	0	3056.40	0	1.6300	0	34.6490	4	27.735	0	3009.482	0	86.2	4	25.8	4	-1E+10	1	-1E+10	1	-1E+10	1	-1E+10	1	-1E+10	1	-1E+10	1
4902642	39	C	07/15/2025	02:22	-131.449	46.030	0	3057.30	0	1.6300	0	34.6490	4	27.735	0	3010.362	0	86.2	4	25.8	4	-1E+10	1	-1E+10	1	-1E+10	1	-1E+10	1	-1E+10	1	-1E+10	1
4902642	39	C	07/15/2025	02:22	-131.449	46.030	0	3058.30	0	1.6300	0	34.6490	4	27.735	0	3011.340	0	86.2	4	25.8	4	-1E+10	1	-1E+10	1	-1E+10	1	-1E+10	1	-1E+10	1	-1E+10	1
4902642	39	C	07/15/2025	02:22	-131.449	46.030	0	3059.30	0	1.6300	0	34.6490	4	27.735	0	3012.317	0	86.2	4	25.8	4	-1E+10	1	-1E+10	1	-1E+10	1	-1E+10	1	-1E+10	1	-1E+10	1
4902642	39	C	07/15/2025	02:22	-131.449	46.030	0	3060.30	0	1.6300	0	34.6490	4	27.735	0	3013.295	0	86.2	4	25.8	4	-1E+10	1	-1E+10	1	-1E+10	1	-1E+10	1	-1E+10	1	-1E+10	1
4902642	39	C	07/15/2025	02:22	-131.449	46.030	0	3061.10	0	1.6300	0	34.6490	4	27.735	0	3014.077	0	86.2	4	25.8	4	-1E+10	1	-1E+10	1	-1E+10	1	-1E+10	1	-1E+10	1	-1E+10	1
4902642	39	C	07/15/2025	02:22	-131.449	46.030	0	3062.70	0	1.6300	0	34.6490	4	27.735	0	3015.641	0	86.2	4	25.8	4	-1E+10	1	-1E+10	1	-1E+10	1	-1E+10	1	-1E+10	1	-1E+10	1
4902642	39	C	07/15/2025	02:22	-131.449	46.030	0	3063.50	0	1.6310	0	34.6490	4	27.735	0	3016.424	0	86.2	4	25.8	4	-1E+10	1	-1E+10	1	-1E+10	1	-1E+10	1	-1E+10	1	-1E+10	1
4902642	39	C	07/15/2025	02:22	-131.449	46.030	0	3064.60	0	1.6310	0	34.6490	4	27.735	0	3017.499	0	86.2	4	25.8	4	-1E+10	1	-1E+10	1	-1E+10	1	-1E+10	1	-1E+10	1	-1E+10	1
4902642	39	C	07/15/2025	02:22	-131.449	46.030	0	3065.90	0	1.6300	0	34.6490	4	27.735	0	3018.770	0	86.2	4	25.8	4	-1E+10	1	-1E+10	1	-1E+10	1	-1E+10	1	-1E+10	1	-1E+10	1
4902642	39	C	07/15/2025	02:22	-131.449	46.030	0	3066.60	0	1.6310	0	34.6490	4	27.735	0	3019.454	0	86.2	4	25.8	4	-1E+10	1	-1E+10	1	-1E+10	1	-1E+10	1	-1E+10	1	-1E+10	1
4902642	39	C	07/15/2025	02:22	-131.449	46.030	0	3067.40	0	1.6310	0	34.6490	4	27.735	0	3020.236	0	86.2	4	25.8	4	-1E+10	1	-1E+10	1	-1E+10	1	-1E+10	1	-1E+10	1	-1E+10	1
4902642	39	C	07/15/2025	02:22	-131.449	46.030	0	3068.20	0	1.6300	0	34.6490	4	27.735	0	3021.019	0	86.2	4	25.8	4	-1E+10	1	-1E+10	1	-1E+10	1	-1E+10	1	-1E+10	1	-1E+10	1
4902642	39	C	07/15/2025	02:22	-131.449	46.030	0	3069.40	0	1.6310	0	34.6490	4	27.735	0	3022.192	0	86.2	4	25.8	4	-1E+10	1	-1E+10	1	-1E+10	1	-1E+10	1	-1E+10	1	-1E+10	1
4902642	39	C	07/15/2025	02:22	-131.449	46.030	0	3070.60	0	1.6310	0	34.6490	4	27.735	0	3023.365	0	86.2	4	25.8	4	-1E+10	1	-1E+10	1	-1E+10	1	-1E+10	1	-1E+10	1	-1E+10	1
4902642	39	C	07/15/2025	02:22	-131.449	46.030	0	3071.50	0	1.6310	0	34.6490	4	27.735	0	3024.245	0	86.2	4	25.8	4	-1E+10	1	-1E+10	1	-1E+10	1	-1E+10	1	-1E+10	1	-1E+10	1
4902642	39	C	07/15/2025	02:22	-131.449	46.030	0	3072.60	0	1.6310	0	34.6490	4	27.735	0	3025.320	0	86.2	4	25.8	4	-1E+10	1	-1E+10	1	-1E+10	1	-1E+10	1	-1E+10	1	-1E+10	1
4902642	39	C	07/15/2025	02:22	-131.449	46.030	0	3073.80	0	1.6310	0	34.6490	4	27.735	0	3026.494	0	86.2	4	25.8	4	-1E+10	1	-1E+10	1	-1E+10	1	-1E+10	1	-1E+10	1	-1E+10	1
4902642	39	C	07/15/2025	02:22	-131.449	46.030	0	3074.60	0	1.6310	0	34.6490	4	27.735	0	3027.276	0	86.3	4	25.8	4	-1E+10	1	-1E+10	1	-1E+10	1	-1E+10	1	-1E+10	1	-1E+10	1
4902642	39	C	07/15/2025	02:22	-131.449	46.030	0	3075.40	0	1.6310	0	34.6490	4	27.735	0	3028.058	0	86.2	4	25.8	4	-1E+10	1	-1E+10	1	-1E+10	1	-1E+10	1	-1E+10	1	-1E+10	1
4902642	39	C	07/15/2025	02:22	-131.449	46.030	0	3076.60	0	1.6310	0	34.6490	4	27.735	0	3029.231	0	86.2	4	25.8	4	-1E+10	1	-1E+10	1	-1E+10	1	-1E+10	1	-1E+10	1	-1E+10	1
4902642	39	C	07/15/2025	02:22	-131.449	46.030	0	3077.80	0	1.6310	0	34.6490	4	27.735	0	3030.404	0	86.2	4	25.8	4	-1E+10	1	-1E+10	1	-1E+10	1	-1E+10	1	-1E+10	1	-1E+10	1
4902642	39	C	07/15/2025	02:22	-131.449	46.030	0	3078.60	0	1.6310	0	34.6490	4	27.735	0	3031.186	0	86.2	4	25.8	4	-1E+10	1	-1E+10	1	-1E+10	1	-1E+10	1	-1E+10	1	-1E+10	1
4902642	39	C	07/15/2025	02:22	-131.449	46.030	0	3079.40	0	1.6310	0	34.6490	4	27.735	0	3031.968	0	86.3	4	25.8	4	-1E+10	1	-1E+10	1	-1E+10	1	-1E+10	1	-1E+10	1	-1E+10	1
4902642	39	C	07/15/2025	02:22	-131.449	46.030	0	3080.60	0	1.6310	0	34.6490	4	27.735	0	3033.141	0	86.3	4	25.8	4	-1E+10	1	-1E+10	1	-1E+10	1	-1E+10	1	-1E+10	1	-1E+10	1
4902642	39	C	07/15/2025	02:22	-131.449	46.030	0	3081.80	0	1.6320	0	34.6490	4	27.735	0	3034.315	0	86.2	4	25.8	4	-1E+10	1	-1E+10	1	-1E+10	1	-1E+10	1	-1E+10	1	-1E+10	1
4902642	39	C	07/15/2025	02:22	-131.449	46.030	0	3082.60	0	1.6310	0	34.6490	4	27.735	0	3035.097	0	86.2	4	25.8	4	-1E+10	1	-1E+10	1	-1E+10	1	-1E+10	1	-1E+10	1	-1E+10	1
4902642	39	C	07/15/2025	02:22	-131.449	46.030	0	3083.40	0	1.6310	0	34.6490	4	27.735	0	3035.879	0	86.3	4	25.8	4	-1E+10	1	-1E+10	1	-1E+10	1	-1E+10	1	-1E+10	1	-1E+10	1
4902642	39	C	07/15/2025	02:22	-131.449	46.030	0	3084.60	0	1.6310	0	34.6490	4	27.735	0	3037.052	0	86.3	4	25.8	4	-1E+10	1	-1E+10	1	-1E+10	1	-1E+10	1	-1E+10	1	-1E+10	1
4902642	39	C	07/15/2025	02:22	-131.449	46.030	0	3085.80	0	1.6320	0	34.6490	4	27.735	0	3038.225	0	86.3	4	25.8	4	-1E+10	1	-1E+10	1	-1E+10	1	-1E+10	1	-1E+10	1	-1E+10	1
4902642	39	C	07/15/2025	02:22	-131.449	46.030	0	3086.60	0	1.6320	0	34.6490	4	27.735	0	3039.007	0	86.3	4	25.8	4	-1E+10	1	-1E+10	1	-1E+10	1	-1E+10	1	-1E+10	1	-1E+10	1
4902642	39	C	07/15/2025	02:22	-131.449	46.030	0	3087.40	0	1.6310	0	34.6490	4	27.736	0	3039.789	0	86.3	4	25.8	4	-1E+10	1	-1E+10	1	-1E+10	1	-1E+10	1	-1E+10	1	-1E+10	1
4902642	39	C	07/15/2025	02:22	-131.449	46.030	0	3088.60	0	1.6310	0	34.6490	4	27.736	0	3040.962	0	86.3	4	25.8	4	-1E+10	1	-1E+10	1	-1E+10	1	-1E+10	1	-1E+10	1	-1E+10	1
4902642	39	C	07/15/2025	02:22	-131.449	46.030	0	3089.70	0	1.6310	0	34.6490	4	27.736	0	3042.037	0	86.3	4	25.8	4	-1E+10	1	-1E+10	1	-1E+10	1	-1E+10	1	-1E+10	1	-1E+10	1
4902642	39	C	07/15/2025	02:22	-131.449	46.030	0	3090.40	0	1.6320	0	34.6490	4	27.735	0	3042.722	0	86.3	4	25.8	4	-1E+10	1	-1E+10	1	-1E+10	1	-1E+10	1	-1E+10	1	-1E+10	1
4902642	39	C	07/15/2025	02:22	-131.449	46.030	0	3091.50	0	1.6310	0	34.6490	4	27.736	0	3043.797	0	86.3	4	25.8	4	-1E+10	1	-1E+10	1	-1E+10	1	-1E+10	1	-1E+10	1	-1E+10	1
4902642	39	C	07/15/2025	02:22	-131.449	46.030	0	3092.40	0	1.6310	0	34.6490	4	27.736	0	3044.677	0	86.3	4	25.8	4	-1E+10	1	-1E+10	1	-1E+10	1	-1E+10	1	-1E+10	1	-1E+10	1
4902642	39	C	07/15/2025	02:22	-131.449	46.030	0	3093.50	0	1.6310	0	34.6490	4	27.736	0	3045.752	0	86.3	4	25.8	4	-1E+10	1	-1E+10	1	-1E+10	1	-1E+10	1	-1E+10	1	-1E+10	1
4902642	39	C	07/15/2025	02:22	-131.449	46.030	0	3094.60	0	1.6310	0	34.6490	4	27.736	0	3046.828	0	86.3	4	25.8	4	-1E+10	1	-1E+10	1	-1E+10	1	-1E+10	1	-1E+10	1	-1E+10	1
4902642	39	C	07/15/2025	02:22	-131.449	46.030	0	3095.60	0	1.6310	0	34.6490	4	27.736	0	3047.805	0	86.3	4	25.8	4	-1E+10	1	-1E+10	1	-1E+10	1	-1E+10	1	-1E+10	1	-1E+10	1
4902642	39	C	07/15/2025	02:22	-131.449	46.030	0	3096.40	0	1.6310	0	34.6490	4	27.736	0	3048.587	0	86.3	4	25.8	4	-1E+10	1	-1E+10	1	-1E+10	1	-1E+10	1	-1E+10	1	-1E+10	1
4902642	39	C	07/15/2025	02:22	-131.449	46.030	0	3097.50	0	1.6310	0	34.6500	4	27.736	0	3049.662	0	86.2	4	25.8	4	-1E+10	1	-1E+10	1	-1E+10	1	-1E+10	1	-1E+10	1	-1E+10	1
4902642	39	C	07/15/2025	02:22	-131.449	46.030	0	3098.70	0	1.6310	0	34.6490	4	27.736	0	3050.835	0	86.2	4	25.8	4	-1E+10	1	-1E+10	1	-1E+10	1	-1E+10	1	-1E+10	1	-1E+10	1
4902642	39	C	07/15/2025	02:22	-131.449	46.030	0	3099.50	0	1.6310	0	34.6490	4	27.736	0	3051.617	0	86.2	4	25.8	4	-1E+10	1	-1E+10	1	-1E+10	1	-1E+10	1	-1E+10	1	-1E+10	1
4902642	39	C	07/15/2025	02:22	-131.449	46.030	0																										
4902642	40	C	07/25/2025	02:37	-131.470	46.112	0	1.50	0	16.1205	0	32.3455	0	23.681	0	1.488	0	228.3	4	92.5	4	-1E+10	1	-1E+10	1	-1E+10	1	-1E+10	1	-1E+10	1	-1E+10	1
4902642	40	C	07/25/2025	02:37	-131.470	46.112	0	1.70	0	16.1210	0	32.3455	0	23.680	0	1.686	0	228.3	4	92.5	4	-1E+10	1	-1E+10	1	-1E+10	1	-1E+10	1	-1E+10	1	-1E+10	1
4902642	40	C	07/25/2025	02:37	-131.470	46.112	0	1.80	0	16.1195	0	32.3475	0	23.682	0	1.785	0	228.3	4	92.5	4	-1E+10	1	-1E+10	1	-1E+10	1	-1E+10	1	-1E+10	1	-1E+10	1
4902642	40	C	07/25/2025	02:37	-131.470	46.112	0	1.90	0	16.1210	0	32.3470	0	23.682	0	1.884	0	228.3	4	92.5	4	-1E+10	1	-1E+10	1	-1E+10	1	-1E+10	1	-1E+10	1	-1E+10	1
4902642	40	C	07/25/2025	02:37	-131.470	46.112	0	2.00	0	16.1260	0	32.3450	0	23.679	0	1.984	0	228.3	4	92.5	4	-1E+10	1	-1E+10	1	-1E+10	1	-1E+10	1	-1E+10	1	-1E+10	1
4902642	40	C	07/25/2025	02:37	-131.470	46.112	0	2.10	0	16.1250	0	32.3460	0	23.680	0	2.083	0	-1e10	1	-1e10	1	-1E+10	1	-1E+10	1	-1E+10	1	-1E+10	1	-1E+10	1	-1E+10	1
4902642	40	C	07/25/2025	02:37	-131.470	46.112	0	2.60	0	16.1300	0	32.3370	0	23.672	0	2.579	0	228.3	4	92.5	4	-1E+10	1	-1E+10	1	-1E+10	1	-1E+10	1	-1E+10	1	-1E+10	1
4902642	40	C	07/25/2025	02:37	-131.470	46.112	0	3.80	0	16.1310	0	32.3400	0	23.674	0	3.769	0	228.4	4	92.5	4	-1E+10	1	-1E+10	1	-1E+10	1	-1E+10	1	-1E+10	1	-1E+10	1
4902642	40	C	07/25/2025	02:37	-131.470	46.112	0	4.70	0	16.1320	0	32.3450	0	23.678	0	4.661	0	228.5	4	92.6	4	-1E+10	1	-1E+10	1	-1E+10	1	-1E+10	1	-1E+10	1	-1E+10	1
4902642	40	C	07/25/2025	02:37	-131.470	46.112	0	5.50	0	16.1310	0	32.3440	0	23.677	0	5.455	0	228.4	4	92.5	4	-1E+10	1	-1E+10	1	-1E+10	1	-1E+10	1	-1E+10	1	-1E+10	1
4902642	40	C	07/25/2025	02:37	-131.470	46.112	0	6.70	0	16.1010	0	32.3460	0	23.685	0	6.645	0	228.6	4	92.5	4	-1E+10	1	-1E+10	1	-1E+10	1	-1E+10	1	-1E+10	1	-1E+10	1
4902642	40	C	07/25/2025	02:37	-131.470	46.112	0	7.50	0	16.0760	0	32.3490	0	23.693	0	7.438	0	228.8	4	92.6	4	-1E+10	1	-1E+10	1	-1E+10	1	-1E+10	1	-1E+10	1	-1E+10	1
4902642	40	C	07/25/2025	02:37	-131.470	46.112	0	8.40	0	15.9550	0	32.3460	0	23.718	0	8.331	0	229.4	4	92.6	4	-1E+10	1	-1E+10	1	-1E+10	1	-1E+10	1	-1E+10	1	-1E+10	1
4902642	40	C	07/25/2025	02:37	-131.470	46.112	0	9.70	0	15.9340	0	32.3440	0	23.721	0	9.620	0	229.7	4	92.7	4	-1E+10	1	-1E+10	1	-1E+10	1	-1E+10	1	-1E+10	1	-1E+10	1
4902642	40	C	07/25/2025	02:37	-131.470	46.112	0	14.40	0	15.8750	0	32.3410	0	23.733	0	14.281	0	231.5	4	93.3	4	-1E+10	1	-1E+10	1	-1E+10	1	-1E+10	1	-1E+10	1	-1E+10	1
4902642	40	C	07/25/2025	02:37	-131.470	46.112	0	24.70	0	14.5500	0	32.3470	0	24.025	0	24.496	0	245.4	4	96.4	4	-1E+10	1	-1E+10	1	-1E+10	1	-1E+10	1	-1E+10	1	-1E+10	1
4902642	40	C	07/25/2025	02:37	-131.470	46.112	0	34.80	0	12.6220	0	32.3360	0	24.405	0	34.511	0	254.8	4	96.2	4	-1E+10	1	-1E+10	1	-1E+10	1	-1E+10	1	-1E+10	1	-1E+10	1
4902642	40	C	07/25/2025	02:37	-131.470	46.112	0	44.70	0	11.4750	0	32.3740	0	24.648	0	44.328	0	253.9	4	93.7	4	-1E+10	1	-1E+10	1	-1E+10	1	-1E+10	1	-1E+10	1	-1E+10	1
4902642	40	C	07/25/2025	02:37	-131.470	46.112	0	55.00	0	10.5950	0	32.3730	0	24.802	0	54.541	0	252.3	4	91.3	4	-1E+10	1	-1E+10	1	-1E+10	1	-1E+10	1	-1E+10	1	-1E+10	1
4902642	40	C	07/25/2025	02:37	-131.470	46.112	0	64.90	0	9.6820	0	32.3330	0	24.924	0	64.356	0	252.4	4	89.5	4	-1E+10	1	-1E+10	1	-1E+10	1	-1E+10	1	-1E+10	1	-1E+10	1
4902642	40	C	07/25/2025	02:37	-131.470	46.112	0	74.90	0	9.3830	0	32.3570	0	24.991	0	74.271	0	249.2	4	87.8	4	-1E+10	1	-1E+10	1	-1E+10	1	-1E+10	1	-1E+10	1	-1E+10	1
4902642	40	C	07/25/2025	02:37	-131.470	46.112	0	85.10	0	9.1750	0	32.3790	0	25.041	0	84.383	0	241.7	4	84.8	4	-1E+10	1	-1E+10	1	-1E+10	1	-1E+10	1	-1E+10	1	-1E+10	1
4902642	40	C	07/25/2025	02:37	-131.470	46.112	0	95.20	0	8.8470	0	32.4120	0	25.118	0	94.396	0	229.7	4	80.1	4	-1E+10	1	-1E+10	1	-1E+10	1	-1E+10	1	-1E+10	1	-1E+10	1
4902642	40	C	07/25/2025	02:37	-131.470	46.112	0	104.60	0	8.6170	0	32.5380	0	25.251	0	103.714	0	214.7	4	74.5	4	-1E+10	1	-1E+10	1	-1E+10	1	-1E+10	1	-1E+10	1	-1E+10	1
4902642	40	C	07/25/2025	02:37	-131.470	46.112	0	114.70	0	8.3670	0	32.7510	0	25.456	0	113.726	0	199.3	4	68.9	4	-1E+10	1	-1E+10	1	-1E+10	1	-1E+10	1	-1E+10	1	-1E+10	1
4902642	40	C	07/25/2025	02:37	-131.470	46.112	0	124.80	0	8.2330	0	33.0880	0	25.740	0	123.737	0	193.1	4	66.7	4	-1E+10	1	-1E+10	1	-1E+10	1	-1E+10	1	-1E+10	1	-1E+10	1
4902642	40	C	07/25/2025	02:37	-131.470	46.112	0	134.60	0	7.9290	0	33.3170	0	25.965	0	133.450	0	179.8	4	61.8	4	-1E+10	1	-1E+10	1	-1E+10	1	-1E+10	1	-1E+10	1	-1E+10	1
4902642	40	C	07/25/2025	02:37	-131.470	46.112	0	144.80	0	7.5680	0	33.4700	0	26.137	0	143.560	0	173.8	4	59.3	4	-1E+10	1	-1E+10	1	-1E+10	1	-1E+10	1	-1E+10	1	-1E+10	1
4902642	40	C	07/25/2025	02:37	-131.470	46.112	0	154.80	0	7.4530	0	33.5670	0	26.230	0	153.470	0	168.2	4	57.3	4	-1E+10	1	-1E+10	1	-1E+10	1	-1E+10	1	-1E+10	1	-1E+10	1
4902642	40	C	07/25/2025	02:37	-131.470	46.112	0	164.90	0	7.3140	0	33.6360	0	26.303	0	163.479	0	156.9	4	53.3	4	-1E+10	1	-1E+10	1	-1E+10	1	-1E+10	1	-1E+10	1	-1E+10	1
4902642	40	C	07/25/2025	02:37	-131.470	46.112	0	175.10	0	7.1850	0	33.6910	0	26.365	0	173.587	0	148.4	4	50.3	4	-1E+10	1	-1E+10	1	-1E+10	1	-1E+10	1	-1E+10	1	-1E+10	1
4902642	40	C	07/25/2025	02:37	-131.470	46.112	0	184.70	0	7.1330	0	33.7310	0	26.404	0	183.100	0	125.9	4	42.6	4	-1E+10	1	-1E+10	1	-1E+10	1	-1E+10	1	-1E+10	1	-1E+10	1
4902642	40	C	07/25/2025	02:37	-131.470	46.112	0	194.70	0	7.0400	0	33.7870	0	26.460	0	193.009	0	118.3	4	40.0	4	-1E+10	1	-1E+10	1	-1E+10	1	-1E+10	1	-1E+10	1	-1E+10	1
4902642	40	C	07/25/2025	02:37	-131.470	46.112	0	209.80	0	6.7810	0	33.8100	0	26.514	0	207.970	0	116.9	4	39.3	4	-1E+10	1	-1E+10	1	-1E+10	1	-1E+10	1	-1E+10	1	-1E+10	1
4902642	40	C	07/25/2025	02:37	-131.470	46.112	0	229.50	0	6.5710	0	33.8410	0	26.566	0	227.487	0	104.9	4	35.1	4	-1E+10	1	-1E+10	1	-1E+10	1	-1E+10	1	-1E+10	1	-1E+10	1
4902642	40	C	07/25/2025	02:37	-131.470	46.112	0	249.60	0	6.2870	0	33.8570	0	26.616	0	247.399	0	96.2	4	32.0	4	-1E+10	1	-1E+10	1	-1E+10	1	-1E+10	1	-1E+10	1	-1E+10	1
4902642	40	C	07/25/2025	02:37	-131.470	46.112	0	269.60	0	6.0360	0	33.8730	0	26.661	0	267.210	0	86.4	4	28.6	4	-1E+10	1	-1E+10	1	-1E+10	1	-1E+10	1	-1E+10	1	-1E+10	1
4902642	40	C	07/25/2025	02:37	-131.470	46.112	0	290.50	0	5.8370	0	33.8920	0	26.701	0	287.910	0	76.8	4	25.3	4	-1E+10	1	-1E+10	1	-1E+10	1	-1E+10	1	-1E+10	1	-1E+10	1
4902642	40	C	07/25/2025	02:37	-131.470	46.112	0	309.70	0	5.7320	0	33.9160	0	26.733	0	306.925	0	68.4	4	22.5	4	-1E+10	1	-1E+10	1	-1E+10	1	-1E+10	1	-1E+10	1	-1E+10	1
4902642	40	C	07/25/2025	02:37	-131.470	46.112	0	329.70	0	5.5860	0	33.9280	0	26.760	0	326.730	0	63.7	4	20.8	4	-1E+10	1	-1E+10	1	-1E+10	1	-1E+10	1	-1E+10	1	-1E+10	1
4902642	40	C	07/25/2025	02:37	-131.470	46.112	0	349.90	0	5.5050	0	33.9390	0	26.779	0	346.731	0	58.3	4	19.0	4	-1E+10	1	-1E+10	1	-1E+10	1	-1E+10	1	-1E+10	1	-1E+10	1
4902642	40	C	07/25/2025	02:37	-131.470	46.112	0	370.00	0	5.3910	0	33.9610	0	26.810	0	366.631	0	52.2	4	17.0	4	-1E+10	1	-1E+10	1	-1E+10	1	-1E+10	1	-1E+10	1	-1E+10	1
4902642	40	C	07/25/2025	02:37	-131.470	46.112	0	390.00	0	5.2360	0	33.9700	0	26.835	0	386.430	0	48.0	4	15.6	4	-1E+10	1	-1E+10	1	-1E+10	1	-1E+10	1	-1E+10	1	-1E+10	1
4902642	40	C	07/25/2025	02:37	-131.470	46.112	0	409.50	0	5.2520	0	33.9960	0	26.854	0	405.732	0	41.3	4	13.4	4	-1E+10	1	-1E+10	1	-1E+10	1	-1E+10	1	-1E+10	1	-1E+10	1
4902642	40	C	07/25/2025	02:37	-131.470	46.112	0	429.60	0	5.1970	0	34.0130	0	26.874	0	425.627	0	40.0	4	13.0	4	-1E+10	1	-1E+10	1	-1E+10	1	-1E+10	1	-1E+10	1	-1E+10	1
4902642	40	C	07/25/2025	02:37	-131.470	46.112	0	450.00	0	4.8150	0	33.9900	0	26.899	0	445.816	0	41.5	4	13.4	4	-1E+10	1	-1E+10	1	-1E+10	1	-1E+10	1	-1E+10	1	-1E+10	1
4902642	40	C	07/25/2025	02:37	-131.470	46.112	0	469.80	0	4.7670	0	34.0100	0	26.921	0	465.410	0	36.6	4	11.8	4	-1E+10	1	-1E+10	1	-1E+10	1	-1E+10	1	-1E+10	1	-1E+10	1
4902642	40	C	07/25/2025	02:37	-131.470	46.112	0	490.30	0	4.7230	0	34.0370	0	26.947	0	485.695	0	32.1	4	10.3	4	-1E+10	1	-1E+10	1	-1E+10	1	-1E+10	1	-1E+10	1	-1E+10	1
4902642	40	C	07/25/2025	02:37	-131.470	46.112	0	509.30	0	4.6310	0	34.0550	0	26.972	0	504.493	0	28.6	4	9.1	4	-1E+10	1	-1E+10	1	-1E+10	1	-1E+10	1	-1E+10	1	-1E+10	1
4902642	40	C	07/25/2025	02:37	-131.470	46.112	0	529.50	0	4.5320	0	34.0700	0	26.995	0	524.477	0	25.0	4	8.0	4	-1E+10	1	-1E+10	1	-1E+10	1	-1E+10	1	-1E+10	1	-1E+10	1
4902642	40	C	07/25/2025	02:37	-131.470	46.112	0	549.80	0	4.5340	0	34.1000	0	27.018	0	544.558	0	20.4	4	6.5	4	-1E+10	1	-1E+10	1	-1E+10	1	-1E+10	1	-1E+10	1	-1E+10	1
4902642	40	C	07/25/2025	02:37	-131.470	46.112	0	569.80	0	4.5380	0	34.1330	0	27.044	0	564.340	0	16.6	4	5.3	4	-1E+10	1	-1E+10	1	-1E+10	1	-1E+10	1	-1E+10	1	-1E+10	1
4902642	40	C	07/25/2025	02:37	-131.470	46.112	0	590.70	0	4.4460	0	34.1500	0	27.068	0	585.010	0	15.0	4	4.8	4	-1E+10	1	-1E+10	1	-1E+10	1	-1E+10	1	-1E+10	1	-1E+10	1
4902642	40	C	07/25/2025	02:37	-131.470	46.112	0	610.40	0	4.3540	0	34.1570	0	27.083	0	604.492	0	14.0	4	4.5	4	-1E+10	1	-1E+10	1	-1E+10	1	-1E+10	1	-1E+10	1	-1E+10	1
4902642	40	C	07/25/2025	02:37	-131.470	46.112	0	629.60	0	4.2660	0	34.1640	0	27.098	0	623.477	0	12.9	4	4.1	4	-1E+10	1	-1E+10	1	-1E+10	1	-1E+10	1	-1E+10	1	-1E+10	1
4902642	40	C	07/25/2025	02:37	-131.470	46.112	0	649.70	0	4.2280	0	34.1780	0	27.114	0	643.351	0	11.6	4	3.7	4	-1E+10	1	-1E+10	1	-1E+10	1	-1E+10	1	-1E+10	1	-1E+10	1
4902642	40	C	07/25/2025	02:37	-131.470	46.112	0	669.90	0	4.2220	0	34.1970	0	27.130	0	663.321	0	10.2	4	3.2	4	-1E+10	1	-1E+10	1	-1E+10	1	-1E+10	1	-1E+10	1	-1E+10	1
4902642	40	C	07/25/2025	02:37	-131.470	46.112	0	689.90	0	4.1650	0	34.2080	0	27.144	0	683.092	0	9.5	4	3.0	4	-1E+10	1	-1E+10	1	-1E+10	1	-1E+10	1	-1E+10	1	-1E+10	1
4902642	40	C	07/25/2025	02:37	-131.470	46.112	0	709.90	0	4.1620	0	34.2230	0	27.157	0	702.861	0	8.5	4	2.7	4	-1E+10	1	-1E+10	1	-1E+10	1	-1E+10	1	-1E+10	1	-1E+10	1
4902642	40	C	07/25/2025	02:37	-131.470	46.112	0	730.00	0	4.1380	0	34.2370	0	27.171	0	722.727	0	8.0	4	2.5	4	-1E+10	1	-1E+10	1	-1E+10	1	-1E+10	1	-1E+10	1	-1E+10	1
4902642	40	C	07/25/2025	02:37	-131.470	46.112	0	750.10	0	4.0180	0	34.2380	0	27.184	0	742.591	0	7.9	4	2.5	4	-1E+10	1	-1E+10	1	-1E+10	1	-1E+10	1	-1E+10	1	-1E+10	1
4902642	40	C	07/25/2025	02:37	-131.470	46.112	0	770.00	0	3.9490	0	34.2500	0	27.201	0	762.256	0	7.3	4	2.3	4	-1E+10	1	-1E+10	1	-1E+10	1	-1E+10	1	-1E+10	1	-1E+10	1
4902642	40	C	07/25/2025	02:37	-131.470	46.112	0	789.60	0	3.8660	0	34.2650	0	27.221	0	781.622	0	6.8	4	2.1	4	-1E+10	1	-1E+10	1	-1E+10	1	-1E+10	1	-1E+10	1	-1E+10	1
4902642	40	C	07/25/2025	02:37	-131.470	46.112	0	809.90	0	3.8250	0	34.2770	0	27.235	0	801.678	0	6.4	4	2.0	4	-1E+10	1	-1E+10	1	-1E+10	1	-1E+10	1	-1E+10	1	-1E+10	1
4902642	40	C	07/25/2025	02:37	-131.470	46.112	0	829.60	0	3.7990	0	34.2930	0	27.250	0	821.139	0	5.9	4	1.9	4	-1E+10	1	-1E+10	1	-1E+10	1	-1E+10	1	-1E+10	1	-1E+10	1
4902642	40	C	07/25/2025	02:37	-131.470	46.112	0	849.70	0	3.7670	0	34.3060	0	27.264	0	840.994	0	5.7	4	1.8	4	-1E+10	1	-1E+10	1	-1E+10	1	-1E+10	1	-1E+10	1	-1E+10	1
4902642	40	C	07/25/2025	02:37	-131.470	46.112	0	870.20	0	3.7240	0	34.3170	0	27.277	0	861.241	0	5.5	4	1.7	4	-1E+10	1	-1E+10	1	-1E+10	1	-1E+10	1	-1E+10	1	-1E+10	1
4902642	40	C	07/25/2025	02:37	-131.470	46.112	0	890.00	0	3.6680	0	34.3320	0	27.295	0	880.796	0	5.3	4	1.7	4	-1E+10	1	-1E+10	1	-1E+10	1	-1E+10	1	-1E+10	1	-1E+10	1
4902642	40	C	07/25/2025	02:37	-131.470	46.112	0	909.90	0	3.6050	0	34.3470	0	27.313	0	900.447	0	5.4	4	1.7	4	-1E+10	1	-1E+10	1	-1E+10	1	-1E+10	1	-1E+10	1	-1E+10	1
4902642	40	C	07/25/2025	02:37	-131.470	46.112	0	929.70	0	3.5830	0	34.3590	0	27.325	0	919.998	0	5.6	4	1.7	4	-1E+10	1	-1E+10	1	-1E+10	1	-1E+10	1	-1E+10	1	-1E+10	1
4902642	40	C	07/25/2025	02:37	-131.470	46.112	0	950.20	0	3.5420	0	34.3700	0	27.338	0	940.238	0	5.9	4	1.8	4	-1E+10	1	-1E+10	1	-1E+10	1	-1E+10	1	-1E+10	1	-1E+10	1
4902642	40	C	07/25/2025	02:37	-131.470	46.112	0	969.60	0	3.4970	0	34.3810	0	27.351	0	959.390	0	6.1	4	1.9	4	-1E+10	1	-1E+10	1	-1E+10	1	-1E+10	1	-1E+10	1	-1E+10	1
4902642	40	C	07/25/2025	02:37	-131.470	46.112	0	989.60	0	3.4590	0	34.3890	0	27.361	0	979.133	0	6.3	4	2.0	4	-1E+10	1	-1E+10	1	-1E+10	1	-1E+10	1	-1E+10	1	-1E+10	1
4902642	40	C	07/25/2025	02:37	-131.470	46.112	0	1010.50	0	3.4150	0	34.3980	0	27.373	0	999.762	0	6.6	4	2.0	4	-1E+10	1	-1E+10	1	-1E+10	1	-1E+10	1	-1E+10	1	-1E+10	1
4902642	40	C	07/25/2025	02:37	-131.470	46.112	0	1030.10	0	3.3640	0	34.4050	0	27.383	0	1019.106	0	6.8	4	2.1	4	-1E+10	1	-1E+10	1	-1E+10	1	-1E+10	1	-1E+10	1	-1E+10	1
4902642	40	C	07/25/2025	02:37	-131.470	46.112	0	1050.20	0	3.3350	0	34.4120	0	27.392	0	1038.942	0	7.3	4	2.3	4	-1E+10	1	-1E+10	1	-1E+10	1	-1E+10	1	-1E+10	1	-1E+10	1
4902642	40	C	07/25/2025	02:37	-131.470	46.112	0	1070.10	0	3.2920	0	34.4190	0	27.401	0	1058.578	0	7.7	4	2.4	4	-1E+10	1	-1E+10	1	-1E+10	1	-1E+10	1	-1E+10	1	-1E+10	1
4902642	40	C	07/25/2025	02:37	-131.470	46.112	0	1089.80	0	3.2710	0	34.4230	0	27.407	0	1078.016	0	7.9	4	2.4	4	-1E+10	1	-1E+10	1	-1E+10	1	-1E+10	1	-1E+10	1	-1E+10	1
4902642	40	C	07/25/2025	02:37	-131.470	46.112	0	1109.80	0	3.2410	0	34.4260	0	27.412	0	1097.747	0	8.2	4	2.5	4	-1E+10	1	-1E+10	1	-1E+10	1	-1E+10	1	-1E+10	1	-1E+10	1
4902642	40	C	07/25/2025	02:37	-131.470	46.112	0	1130.00	0	3.1950	0	34.4320	0	27.421	0	1117.674	0	8.5	4	2.6	4	-1E+10	1	-1E+10	1	-1E+10	1	-1E+10	1	-1E+10	1	-1E+10	1
4902642	40	C	07/25/2025	02:37	-131.470	46.112	0	1150.10	0	3.1490	0	34.4380	0	27.430	0	1137.500	0	9.0	4	2.8	4	-1E+10	1	-1E+10	1	-1E+10	1	-1E+10	1	-1E+10	1	-1E+10	1
4902642	40	C	07/25/2025	02:37	-131.470	46.112	0	1169.80	0	3.1140	0	34.4430	0	27.438	0	1156.930	0	9.5	4	3.0	4	-1E+10	1	-1E+10	1	-1E+10	1	-1E+10	1	-1E+10	1	-1E+10	1
4902642	40	C	07/25/2025	02:37	-131.470	46.112	0	1189.90	0	3.0790	0	34.4480	0	27.445	0	1176.753	0	10.1	4	3.1	4	-1E+10	1	-1E+10	1	-1E+10	1	-1E+10	1	-1E+10	1	-1E+10	1
4902642	40	C	07/25/2025	02:37	-131.470	46.112	0	1209.90	0	3.0370	0	34.4540	0	27.454	0	1196.475	0	10.8	4	3.3	4	-1E+10	1	-1E+10	1	-1E+10	1	-1E+10	1	-1E+10	1	-1E+10	1
4902642	40	C	07/25/2025	02:37	-131.470	46.112	0	1229.90	0	2.9910	0	34.4610	0	27.463	0	1216.195	0	11.7	4	3.6	4	-1E+10	1	-1E+10	1	-1E+10	1	-1E+10	1	-1E+10	1	-1E+10	1
4902642	40	C	07/25/2025	02:37	-131.470	46.112	0	1250.10	0	2.9410	0	34.4680	0	27.474	0	1236.111	0	12.6	4	3.9	4	-1E+10	1	-1E+10	1	-1E+10	1	-1E+10	1	-1E+10	1	-1E+10	1
4902642	40	C	07/25/2025	02:37	-131.470	46.112	0	1270.60	0	2.8960	0	34.4730	0	27.482	0	1256.320	0	13.3	4	4.1	4	-1E+10	1	-1E+10	1	-1E+10	1	-1E+10	1	-1E+10	1	-1E+10	1
4902642	40	C	07/25/2025	02:37	-131.470	46.112	0	1289.90	0	2.8500	0	34.4780	0	27.490	0	1275.345	0	14.2	4	4.4	4	-1E+10	1	-1E+10	1	-1E+10	1	-1E+10	1	-1E+10	1	-1E+10	1
4902642	40	C	07/25/2025	02:37	-131.470	46.112	0	1309.80	0	2.7970	0	34.4840	0	27.499	0	1294.960	0	15.1	4	4.6	4	-1E+10	1	-1E+10	1	-1E+10	1	-1E+10	1	-1E+10	1	-1E+10	1
4902642	40	C	07/25/2025	02:37	-131.470	46.112	0	1330.20	0	2.7700	0	34.4860	0	27.504	0	1315.065	0	15.6	4	4.8	4	-1E+10	1	-1E+10	1	-1E+10	1	-1E+10	1	-1E+10	1	-1E+10	1
4902642	40	C	07/25/2025	02:37	-131.470	46.112	0	1349.70	0	2.7400	0	34.4900	0	27.509	0	1334.281	0	16.4	4	5.0	4	-1E+10	1	-1E+10	1	-1E+10	1	-1E+10	1	-1E+10	1	-1E+10	1
4902642	40	C	07/25/2025	02:37	-131.470	46.112	0	1369.50	0	2.7080	0	34.4930	0	27.515	0	1353.791	0	17.0	4	5.2	4	-1E+10	1	-1E+10	1	-1E+10	1	-1E+10	1	-1E+10	1	-1E+10	1
4902642	40	C	07/25/2025	02:37	-131.470	46.112	0	1390.00	0	2.6760	0	34.4970	0	27.521	0	1373.990	0	17.8	4	5.5	4	-1E+10	1	-1E+10	1	-1E+10	1	-1E+10	1	-1E+10	1	-1E+10	1
4902642	40	C	07/25/2025	02:37	-131.470	46.112	0	1410.20	0	2.6440	0	34.5000	0	27.526	0	1393.890	0	18.7	4	5.7	4	-1E+10	1	-1E+10	1	-1E+10	1	-1E+10	1	-1E+10	1	-1E+10	1
4902642	40	C	07/25/2025	02:37	-131.470	46.112	0	1429.90	0	2.6130	0	34.5030	0	27.531	0	1413.296	0	19.5	4	6.0	4	-1E+10	1	-1E+10	1	-1E+10	1	-1E+10	1	-1E+10	1	-1E+10	1
4902642	40	C	07/25/2025	02:37	-131.470	46.112	0	1450.50	0	2.5790	0	34.5070	0	27.537	0	1433.587	0	20.4	4	6.2	4	-1E+10	1	-1E+10	1	-1E+10	1	-1E+10	1	-1E+10	1	-1E+10	1
4902642	40	C	07/25/2025	02:37	-131.470	46.112	0	1469.90	0	2.5420	0	34.5110	0	27.544	0	1452.694	0	21.1	4	6.4	4	-1E+10	1	-1E+10	1	-1E+10	1	-1E+10	1	-1E+10	1	-1E+10	1
4902642	40	C	07/25/2025	02:37	-131.470	46.112	0	1490.00	0	2.5170	0	34.5140	0	27.548	0	1472.489	0	21.8	4	6.7	4	-1E+10	1	-1E+10	1	-1E+10	1	-1E+10	1	-1E+10	1	-1E+10	1
4902642	40	C	07/25/2025	02:37	-131.470	46.112	0	1510.30	0	2.4880	0	34.5170	0	27.553	0	1492.479	0	22.7	4	6.9	4	-1E+10	1	-1E+10	1	-1E+10	1	-1E+10	1	-1E+10	1	-1E+10	1
4902642	40	C	07/25/2025	02:37	-131.470	46.112	0	1530.30	0	2.4570	0	34.5210	0	27.559	0	1512.171	0	23.9	4	7.3	4	-1E+10	1	-1E+10	1	-1E+10	1	-1E+10	1	-1E+10	1	-1E+10	1
4902642	40	C	07/25/2025	02:37	-131.470	46.112	0	1550.30	0	2.4290	0	34.5250	0	27.565	0	1531.862	0	25.0	4	7.6	4	-1E+10	1	-1E+10	1	-1E+10	1	-1E+10	1	-1E+10	1	-1E+10	1
4902642	40	C	07/25/2025	02:37	-131.470	46.112	0	1570.00	0	2.4070	0	34.5270	0	27.568	0	1551.256	0	26.1	4	7.9	4	-1E+10	1	-1E+10	1	-1E+10	1	-1E+10	1	-1E+10	1	-1E+10	1
4902642	40	C	07/25/2025	02:37	-131.470	46.112	0	1589.80	0	2.3800	0	34.5310	0	27.574	0	1570.746	0	27.2	4	8.3	4	-1E+10	1	-1E+10	1	-1E+10	1	-1E+10	1	-1E+10	1	-1E+10	1
4902642	40	C	07/25/2025	02:37	-131.470	46.112	0	1610.10	0	2.3570	0	34.5340	0	27.578	0	1590.726	0	28.1	4	8.5	4	-1E+10	1	-1E+10	1	-1E+10	1	-1E+10	1	-1E+10	1	-1E+10	1
4902642	40	C	07/25/2025	02:37	-131.470	46.112	0	1630.30	0	2.3330	0	34.5370	0	27.583	0	1610.607	0	29.1	4	8.8	4	-1E+10	1	-1E+10	1	-1E+10	1	-1E+10	1	-1E+10	1	-1E+10	1
4902642	40	C	07/25/2025	02:37	-131.470	46.112	0	1650.70	0	2.3040	0	34.5400	0	27.588	0	1630.682	0	30.3	4	9.2	4	-1E+10	1	-1E+10	1	-1E+10	1	-1E+10	1	-1E+10	1	-1E+10	1
4902642	40	C	07/25/2025	02:37	-131.470	46.112	0	1669.90	0	2.2790	0	34.5430	0	27.592	0	1649.574	0	31.3	4	9.5	4	-1E+10	1	-1E+10	1	-1E+10	1	-1E+10	1	-1E+10	1	-1E+10	1
4902642	40	C	07/25/2025	02:37	-131.470	46.112	0	1689.90	0	2.2540	0	34.5470	0	27.598	0	1669.252	0	32.5	4	9.8	4	-1E+10	1	-1E+10	1	-1E+10	1	-1E+10	1	-1E+10	1	-1E+10	1
4902642	40	C	07/25/2025	02:37	-131.470	46.112	0	1710.10	0	2.2280	0	34.5500	0	27.602	0	1689.125	0	33.6	4	10.2	4	-1E+10	1	-1E+10	1	-1E+10	1	-1E+10	1	-1E+10	1	-1E+10	1
4902642	40	C	07/25/2025	02:37	-131.470	46.112	0	1730.20	0	2.2000	0	34.5550	0	27.609	0	1708.897	0	35.0	4	10.6	4	-1E+10	1	-1E+10	1	-1E+10	1	-1E+10	1	-1E+10	1	-1E+10	1
4902642	40	C	07/25/2025	02:37	-131.470	46.112	0	1750.10	0	2.1730	0	34.5580	0	27.613	0	1728.471	0	36.3	4	11.0	4	-1E+10	1	-1E+10	1	-1E+10	1	-1E+10	1	-1E+10	1	-1E+10	1
4902642	40	C	07/25/2025	02:37	-131.470	46.112	0	1769.80	0	2.1500	0	34.5610	0	27.618	0	1747.847	0	37.4	4	11.3	4	-1E+10	1	-1E+10	1	-1E+10	1	-1E+10	1	-1E+10	1	-1E+10	1
4902642	40	C	07/25/2025	02:37	-131.470	46.112	0	1789.80	0	2.1310	0	34.5640	0	27.622	0	1767.515	0	38.5	4	11.6	4	-1E+10	1	-1E+10	1	-1E+10	1	-1E+10	1	-1E+10	1	-1E+10	1
4902642	40	C	07/25/2025	02:37	-131.470	46.112	0	1809.60	0	2.1100	0	34.5670	0	27.626	0	1786.986	0	39.6	4	12.0	4	-1E+10	1	-1E+10	1	-1E+10	1	-1E+10	1	-1E+10	1	-1E+10	1
4902642	40	C	07/25/2025	02:37	-131.470	46.112	0	1830.00	0	2.0920	0	34.5700	0	27.630	0	1807.044	0	40.7	4	12.3	4	-1E+10	1	-1E+10	1	-1E+10	1	-1E+10	1	-1E+10	1	-1E+10	1
4902642	40	C	07/25/2025	02:37	-131.470	46.112	0	1849.90	0	2.0710	0	34.5730	0	27.634	0	1826.609	0	42.0	4	12.7	4	-1E+10	1	-1E+10	1	-1E+10	1	-1E+10	1	-1E+10	1	-1E+10	1
4902642	40	C	07/25/2025	02:37	-131.470	46.112	0	1869.90	0	2.0540	0	34.5750	0	27.637	0	1846.270	0	43.0	4	13.0	4	-1E+10	1	-1E+10	1	-1E+10	1	-1E+10	1	-1E+10	1	-1E+10	1
4902642	40	C	07/25/2025	02:37	-131.470	46.112	0	1889.70	0	2.0460	0	34.5770	0	27.639	0	1865.733	0	43.7	4	13.2	4	-1E+10	1	-1E+10	1	-1E+10	1	-1E+10	1	-1E+10	1	-1E+10	1
4902642	40	C	07/25/2025	02:37	-131.470	46.112	0	1909.70	0	2.0260	0	34.5800	0	27.643	0	1885.391	0	45.1	4	13.6	4	-1E+10	1	-1E+10	1	-1E+10	1	-1E+10	1	-1E+10	1	-1E+10	1
4902642	40	C	07/25/2025	02:37	-131.470	46.112	0	1929.80	0	2.0070	0	34.5830	0	27.647	0	1905.145	0	46.3	4	14.0	4	-1E+10	1	-1E+10	1	-1E+10	1	-1E+10	1	-1E+10	1	-1E+10	1
4902642	40	C	07/25/2025	02:37	-131.470	46.112	0	1950.00	0	1.9900	0	34.5860	0	27.651	0	1924.996	0	47.6	4	14.3	4	-1E+10	1	-1E+10	1	-1E+10	1	-1E+10	1	-1E+10	1	-1E+10	1
4902642	40	C	07/25/2025	02:37	-131.470	46.112	0	1970.90	0	1.9710	0	34.5890	0	27.655	0	1945.533	0	48.9	4	14.7	4	-1E+10	1	-1E+10	1	-1E+10	1	-1E+10	1	-1E+10	1	-1E+10	1
4902642	40	C	07/25/2025	02:37	-131.470	46.112	0	1990.10	0	1.9580	0	34.5910	0	27.658	0	1964.397	0	49.7	4	15.0	4	-1E+10	1	-1E+10	1	-1E+10	1	-1E+10	1	-1E+10	1	-1E+10	1
4902642	40	C	07/25/2025	02:37	-131.470	46.112	0	2009.80	0	1.9500	0	34.5930	4	27.660	0	1983.751	0	50.4	4	15.2	4	-1E+10	1	-1E+10	1	-1E+10	1	-1E+10	1	-1E+10	1	-1E+10	1
4902642	40	C	07/25/2025	02:37	-131.470	46.112	0	2029.90	0	1.9430	0	34.5940	4	27.662	0	2003.496	0	51.0	4	15.4	4	-1E+10	1	-1E+10	1	-1E+10	1	-1E+10	1	-1E+10	1	-1E+10	1
4902642	40	C	07/25/2025	02:37	-131.470	46.112	0	2050.10	0	1.9350	0	34.5960	4	27.664	0	2023.338	0	51.6	4	15.5	4	-1E+10	1	-1E+10	1	-1E+10	1	-1E+10	1	-1E+10	1	-1E+10	1
4902642	40	C	07/25/2025	02:37	-131.470	46.112	0	2069.90	0	1.9300	0	34.5970	4	27.665	0	2042.784	0	52.1	4	15.7	4	-1E+10	1	-1E+10	1	-1E+10	1	-1E+10	1	-1E+10	1	-1E+10	1
4902642	40	C	07/25/2025	02:37	-131.470	46.112	0	2090.00	0	1.9200	0	34.5980	4	27.667	0	2062.524	0	52.9	4	15.9	4	-1E+10	1	-1E+10	1	-1E+10	1	-1E+10	1	-1E+10	1	-1E+10	1
4902642	40	C	07/25/2025	02:37	-131.470	46.112	0	2110.00	0	1.9130	0	34.6000	4	27.669	0	2082.164	0	53.6	4	16.1	4	-1E+10	1	-1E+10	1	-1E+10	1	-1E+10	1	-1E+10	1	-1E+10	1
4902642	40	C	07/25/2025	02:37	-131.470	46.112	0	2130.00	0	1.9050	0	34.6010	4	27.671	0	2101.801	0	54.3	4	16.3	4	-1E+10	1	-1E+10	1	-1E+10	1	-1E+10	1	-1E+10	1	-1E+10	1
4902642	40	C	07/25/2025	02:37	-131.470	46.112	0	2150.00	0	1.8970	0	34.6030	4	27.673	0	2121.437	0	55.0	4	16.5	4	-1E+10	1	-1E+10	1	-1E+10	1	-1E+10	1	-1E+10	1	-1E+10	1
4902642	40	C	07/25/2025	02:37	-131.470	46.112	0	2169.90	0	1.8880	0	34.6040	4	27.675	0	2140.973	0	55.8	4	16.8	4	-1E+10	1	-1E+10	1	-1E+10	1	-1E+10	1	-1E+10	1	-1E+10	1
4902642	40	C	07/25/2025	02:37	-131.470	46.112	0	2189.90	0	1.8800	0	34.6060	4	27.677	0	2160.606	0	56.4	4	17.0	4	-1E+10	1	-1E+10	1	-1E+10	1	-1E+10	1	-1E+10	1	-1E+10	1
4902642	40	C	07/25/2025	02:37	-131.470	46.112	0	2209.80	0	1.8720	0	34.6070	4	27.679	0	2180.138	0	57.0	4	17.1	4	-1E+10	1	-1E+10	1	-1E+10	1	-1E+10	1	-1E+10	1	-1E+10	1
4902642	40	C	07/25/2025	02:37	-131.470	46.112	0	2230.40	0	1.8670	0	34.6080	4	27.680	0	2200.356	0	57.8	4	17.4	4	-1E+10	1	-1E+10	1	-1E+10	1	-1E+10	1	-1E+10	1	-1E+10	1
4902642	40	C	07/25/2025	02:37	-131.470	46.112	0	2249.80	0	1.8520	0	34.6100	4	27.683	0	2219.394	0	59.1	4	17.8	4	-1E+10	1	-1E+10	1	-1E+10	1	-1E+10	1	-1E+10	1	-1E+10	1
4902642	40	C	07/25/2025	02:37	-131.470	46.112	0	2270.10	0	1.8370	0	34.6130	4	27.686	0	2239.314	0	60.4	4	18.1	4	-1E+10	1	-1E+10	1	-1E+10	1	-1E+10	1	-1E+10	1	-1E+10	1
4902642	40	C	07/25/2025	02:37	-131.470	46.112	0	2289.90	0	1.8270	0	34.6150	4	27.689	0	2258.741	0	61.3	4	18.4	4	-1E+10	1	-1E+10	1	-1E+10	1	-1E+10	1	-1E+10	1	-1E+10	1
4902642	40	C	07/25/2025	02:37	-131.470	46.112	0	2309.70	0	1.8200	0	34.6160	4	27.690	0	2278.166	0	62.2	4	18.7	4	-1E+10	1	-1E+10	1	-1E+10	1	-1E+10	1	-1E+10	1	-1E+10	1
4902642	40	C	07/25/2025	02:37	-131.470	46.112	0	2330.00	0	1.8180	0	34.6170	4	27.691	0	2298.080	0	62.6	4	18.8	4	-1E+10	1	-1E+10	1	-1E+10	1	-1E+10	1	-1E+10	1	-1E+10	1
4902642	40	C	07/25/2025	02:37	-131.470	46.112	0	2350.50	0	1.8140	0	34.6180	4	27.693	0	2318.188	0	63.1	4	19.0	4	-1E+10	1	-1E+10	1	-1E+10	1	-1E+10	1	-1E+10	1	-1E+10	1
4902642	40	C	07/25/2025	02:37	-131.470	46.112	0	2369.90	0	1.8060	0	34.6190	4	27.694	0	2337.216	0	63.8	4	19.1	4	-1E+10	1	-1E+10	1	-1E+10	1	-1E+10	1	-1E+10	1	-1E+10	1
4902642	40	C	07/25/2025	02:37	-131.470	46.112	0	2390.10	0	1.8010	0	34.6200	4	27.695	0	2357.027	0	64.3	4	19.3	4	-1E+10	1	-1E+10	1	-1E+10	1	-1E+10	1	-1E+10	1	-1E+10	1
4902642	40	C	07/25/2025	02:37	-131.470	46.112	0	2410.10	0	1.7970	0	34.6210	4	27.697	0	2376.639	0	65.0	4	19.5	4	-1E+10	1	-1E+10	1	-1E+10	1	-1E+10	1	-1E+10	1	-1E+10	1
4902642	40	C	07/25/2025	02:37	-131.470	46.112	0	2430.20	0	1.7910	0	34.6220	4	27.698	0	2396.348	0	65.7	4	19.7	4	-1E+10	1	-1E+10	1	-1E+10	1	-1E+10	1	-1E+10	1	-1E+10	1
4902642	40	C	07/25/2025	02:37	-131.470	46.112	0	2450.00	0	1.7830	0	34.6230	4	27.699	0	2415.761	0	66.6	4	20.0	4	-1E+10	1	-1E+10	1	-1E+10	1	-1E+10	1	-1E+10	1	-1E+10	1
4902642	40	C	07/25/2025	02:37	-131.470	46.112	0	2470.00	0	1.7730	0	34.6240	4	27.701	0	2435.368	0	67.6	4	20.3	4	-1E+10	1	-1E+10	1	-1E+10	1	-1E+10	1	-1E+10	1	-1E+10	1
4902642	40	C	07/25/2025	02:37	-131.470	46.112	0	2489.80	0	1.7630	0	34.6260	4	27.704	0	2454.777	0	68.6	4	20.6	4	-1E+10	1	-1E+10	1	-1E+10	1	-1E+10	1	-1E+10	1	-1E+10	1
4902642	40	C	07/25/2025	02:37	-131.470	46.112	0	2510.10	0	1.7550	0	34.6270	4	27.705	0	2474.675	0	69.2	4	20.7	4	-1E+10	1	-1E+10	1	-1E+10	1	-1E+10	1	-1E+10	1	-1E+10	1
4902642	40	C	07/25/2025	02:37	-131.470	46.112	0	2529.60	0	1.7490	0	34.6280	4	27.706	0	2493.787	0	69.9	4	21.0	4	-1E+10	1	-1E+10	1	-1E+10	1	-1E+10	1	-1E+10	1	-1E+10	1
4902642	40	C	07/25/2025	02:37	-131.470	46.112	0	2550.00	0	1.7450	0	34.6280	4	27.707	0	2513.779	0	70.5	4	21.1	4	-1E+10	1	-1E+10	1	-1E+10	1	-1E+10	1	-1E+10	1	-1E+10	1
4902642	40	C	07/25/2025	02:37	-131.470	46.112	0	2570.20	0	1.7420	0	34.6290	4	27.708	0	2533.573	0	70.9	4	21.3	4	-1E+10	1	-1E+10	1	-1E+10	1	-1E+10	1	-1E+10	1	-1E+10	1
4902642	40	C	07/25/2025	02:37	-131.470	46.112	0	2590.30	0	1.7370	0	34.6290	4	27.709	0	2553.268	0	71.5	4	21.4	4	-1E+10	1	-1E+10	1	-1E+10	1	-1E+10	1	-1E+10	1	-1E+10	1
4902642	40	C	07/25/2025	02:37	-131.470	46.112	0	2610.10	0	1.7310	0	34.6300	4	27.710	0	2572.666	0	72.2	4	21.6	4	-1E+10	1	-1E+10	1	-1E+10	1	-1E+10	1	-1E+10	1	-1E+10	1
4902642	40	C	07/25/2025	02:37	-131.470	46.112	0	2630.10	0	1.7290	0	34.6310	4	27.711	0	2592.259	0	72.6	4	21.7	4	-1E+10	1	-1E+10	1	-1E+10	1	-1E+10	1	-1E+10	1	-1E+10	1
4902642	40	C	07/25/2025	02:37	-131.470	46.112	0	2649.80	0	1.7220	0	34.6310	4	27.712	0	2611.556	0	73.3	4	22.0	4	-1E+10	1	-1E+10	1	-1E+10	1	-1E+10	1	-1E+10	1	-1E+10	1
4902642	40	C	07/25/2025	02:37	-131.470	46.112	0	2669.80	0	1.7180	0	34.6320	4	27.713	0	2631.146	0	73.7	4	22.1	4	-1E+10	1	-1E+10	1	-1E+10	1	-1E+10	1	-1E+10	1	-1E+10	1
4902642	40	C	07/25/2025	02:37	-131.470	46.112	0	2690.70	0	1.7130	0	34.6330	4	27.714	0	2651.615	0	74.6	4	22.3	4	-1E+10	1	-1E+10	1	-1E+10	1	-1E+10	1	-1E+10	1	-1E+10	1
4902642	40	C	07/25/2025	02:37	-131.470	46.112	0	2710.10	0	1.7030	0	34.6350	4	27.717	0	2670.613	0	75.9	4	22.7	4	-1E+10	1	-1E+10	1	-1E+10	1	-1E+10	1	-1E+10	1	-1E+10	1
4902642	40	C	07/25/2025	02:37	-131.470	46.112	0	2730.10	0	1.6920	0	34.6360	4	27.718	0	2690.197	0	77.0	4	23.0	4	-1E+10	1	-1E+10	1	-1E+10	1	-1E+10	1	-1E+10	1	-1E+10	1
4902642	40	C	07/25/2025	02:37	-131.470	46.112	0	2750.20	0	1.6840	0	34.6380	4	27.721	0	2709.877	0	77.9	4	23.3	4	-1E+10	1	-1E+10	1	-1E+10	1	-1E+10	1	-1E+10	1	-1E+10	1
4902642	40	C	07/25/2025	02:37	-131.470	46.112	0	2770.10	0	1.6790	0	34.6380	4	27.721	0	2729.360	0	78.5	4	23.5	4	-1E+10	1	-1E+10	1	-1E+10	1	-1E+10	1	-1E+10	1	-1E+10	1
4902642	40	C	07/25/2025	02:37	-131.470	46.112	0	2789.70	0	1.6730	0	34.6390	4	27.722	0	2748.547	0	79.3	4	23.7	4	-1E+10	1	-1E+10	1	-1E+10	1	-1E+10	1	-1E+10	1	-1E+10	1
4902642	40	C	07/25/2025	02:37	-131.470	46.112	0	2809.60	0	1.6670	0	34.6400	4	27.724	0	2768.026	0	80.1	4	24.0	4	-1E+10	1	-1E+10	1	-1E+10	1	-1E+10	1	-1E+10	1	-1E+10	1
4902642	40	C	07/25/2025	02:37	-131.470	46.112	0	2830.20	0	1.6630	0	34.6410	4	27.725	0	2788.188	0	80.6	4	24.1	4	-1E+10	1	-1E+10	1	-1E+10	1	-1E+10	1	-1E+10	1	-1E+10	1
4902642	40	C	07/25/2025	02:37	-131.470	46.112	0	2850.10	0	1.6590	0	34.6420	4	27.726	0	2807.664	0	81.2	4	24.3	4	-1E+10	1	-1E+10	1	-1E+10	1	-1E+10	1	-1E+10	1	-1E+10	1
4902642	40	C	07/25/2025	02:37	-131.470	46.112	0	2869.80	0	1.6570	0	34.6430	4	27.727	0	2826.942	0	81.6	4	24.4	4	-1E+10	1	-1E+10	1	-1E+10	1	-1E+10	1	-1E+10	1	-1E+10	1
4902642	40	C	07/25/2025	02:37	-131.470	46.112	0	2889.80	0	1.6560	0	34.6430	4	27.728	0	2846.511	0	81.9	4	24.5	4	-1E+10	1	-1E+10	1	-1E+10	1	-1E+10	1	-1E+10	1	-1E+10	1
4902642	40	C	07/25/2025	02:37	-131.470	46.112	0	2910.20	0	1.6540	0	34.6430	4	27.728	0	2866.471	0	82.4	4	24.6	4	-1E+10	1	-1E+10	1	-1E+10	1	-1E+10	1	-1E+10	1	-1E+10	1
4902642	40	C	07/25/2025	02:37	-131.470	46.112	0	2930.40	0	1.6510	0	34.6440	4	27.729	0	2886.232	0	82.8	4	24.8	4	-1E+10	1	-1E+10	1	-1E+10	1	-1E+10	1	-1E+10	1	-1E+10	1
4902642	40	C	07/25/2025	02:37	-131.470	46.112	0	2950.20	0	1.6500	0	34.6440	4	27.729	0	2905.601	0	83.2	4	24.9	4	-1E+10	1	-1E+10	1	-1E+10	1	-1E+10	1	-1E+10	1	-1E+10	1
4902642	40	C	07/25/2025	02:37	-131.470	46.112	0	2970.30	0	1.6470	0	34.6450	4	27.730	0	2925.262	0	83.8	4	25.1	4	-1E+10	1	-1E+10	1	-1E+10	1	-1E+10	1	-1E+10	1	-1E+10	1
4902642	40	C	07/25/2025	02:37	-131.470	46.112	0	2989.90	0	1.6420	0	34.6460	4	27.732	0	2944.432	0	84.9	4	25.4	4	-1E+10	1	-1E+10	1	-1E+10	1	-1E+10	1	-1E+10	1	-1E+10	1
4902642	40	C	07/25/2025	02:37	-131.470	46.112	0	3010.00	0	1.6380	0	34.6480	4	27.734	0	2964.089	0	85.7	4	25.6	4	-1E+10	1	-1E+10	1	-1E+10	1	-1E+10	1	-1E+10	1	-1E+10	1
4902642	40	C	07/25/2025	02:37	-131.470	46.112	0	3030.00	0	1.6350	0	34.6490	4	27.735	0	2983.646	0	86.4	4	25.8	4	-1E+10	1	-1E+10	1	-1E+10	1	-1E+10	1	-1E+10	1	-1E+10	1
4902642	40	C	07/25/2025	02:37	-131.470	46.112	0	3044.70	0	1.6300	0	34.6490	4	27.735	0	2998.020	0	86.8	4	25.9	4	-1E+10	1	-1E+10	1	-1E+10	1	-1E+10	1	-1E+10	1	-1E+10	1
4902642	40	C	07/25/2025	02:37	-131.470	46.112	0	3050.50	0	1.6280	0	34.6490	4	27.735	0	3003.691	0	87.0	4	26.0	4	-1E+10	1	-1E+10	1	-1E+10	1	-1E+10	1	-1E+10	1	-1E+10	1
4902642	40	C	07/25/2025	02:37	-131.470	46.112	0	3051.80	0	1.6280	0	34.6500	4	27.736	0	3004.962	0	87.0	4	26.0	4	-1E+10	1	-1E+10	1	-1E+10	1	-1E+10	1	-1E+10	1	-1E+10	1
4902642	40	C	07/25/2025	02:37	-131.470	46.112	0	3053.00	0	1.6270	0	34.6500	4	27.736	0	3006.135	0	87.0	4	26.0	4	-1E+10	1	-1E+10	1	-1E+10	1	-1E+10	1	-1E+10	1	-1E+10	1
4902642	40	C	07/25/2025	02:37	-131.470	46.112	0	3054.30	0	1.6270	0	34.6500	4	27.736	0	3007.406	0	87.1	4	26.0	4	-1E+10	1	-1E+10	1	-1E+10	1	-1E+10	1	-1E+10	1	-1E+10	1
4902642	40	C	07/25/2025	02:37	-131.470	46.112	0	3055.60	0	1.6260	0	34.6500	4	27.736	0	3008.677	0	87.1	4	26.0	4	-1E+10	1	-1E+10	1	-1E+10	1	-1E+10	1	-1E+10	1	-1E+10	1
4902642	40	C	07/25/2025	02:37	-131.470	46.112	0	3056.80	0	1.6260	0	34.6500	4	27.736	0	3009.850	0	87.1	4	26.0	4	-1E+10	1	-1E+10	1	-1E+10	1	-1E+10	1	-1E+10	1	-1E+10	1
4902642	40	C	07/25/2025	02:37	-131.470	46.112	0	3058.10	0	1.6260	0	34.6500	4	27.736	0	3011.121	0	87.2	4	26.1	4	-1E+10	1	-1E+10	1	-1E+10	1	-1E+10	1	-1E+10	1	-1E+10	1
4902642	40	C	07/25/2025	02:37	-131.470	46.112	0	3059.40	0	1.6250	0	34.6500	4	27.737	0	3012.392	0	87.2	4	26.1	4	-1E+10	1	-1E+10	1	-1E+10	1	-1E+10	1	-1E+10	1	-1E+10	1
4902642	40	C	07/25/2025	02:37	-131.470	46.112	0	3060.60	0	1.6250	0	34.6500	4	27.737	0	3013.566	0	87.3	4	26.1	4	-1E+10	1	-1E+10	1	-1E+10	1	-1E+10	1	-1E+10	1	-1E+10	1
4902642	40	C	07/25/2025	02:37	-131.470	46.112	0	3061.90	0	1.6250	0	34.6500	4	27.737	0	3014.836	0	87.3	4	26.1	4	-1E+10	1	-1E+10	1	-1E+10	1	-1E+10	1	-1E+10	1	-1E+10	1
4902642	40	C	07/25/2025	02:37	-131.470	46.112	0	3063.20	0	1.6250	0	34.6500	4	27.737	0	3016.108	0	87.3	4	26.1	4	-1E+10	1	-1E+10	1	-1E+10	1	-1E+10	1	-1E+10	1	-1E+10	1
4902642	40	C	07/25/2025	02:37	-131.470	46.112	0	3064.40	0	1.6250	0	34.6500	4	27.737	0	3017.281	0	87.4	4	26.1	4	-1E+10	1	-1E+10	1	-1E+10	1	-1E+10	1	-1E+10	1	-1E+10	1
4902642	40	C	07/25/2025	02:37	-131.470	46.112	0	3065.70	0	1.6240	0	34.6500	4	27.737	0	3018.552	0	87.4	4	26.1	4	-1E+10	1	-1E+10	1	-1E+10	1	-1E+10	1	-1E+10	1	-1E+10	1
4902642	40	C	07/25/2025	02:37	-131.470	46.112	0	3067.00	0	1.6240	0	34.6500	4	27.737	0	3019.823	0	87.4	4	26.1	4	-1E+10	1	-1E+10	1	-1E+10	1	-1E+10	1	-1E+10	1	-1E+10	1
4902642	40	C	07/25/2025	02:37	-131.470	46.112	0	3068.20	0	1.6230	0	34.6500	4	27.737	0	3020.996	0	87.4	4	26.1	4	-1E+10	1	-1E+10	1	-1E+10	1	-1E+10	1	-1E+10	1	-1E+10	1
4902642	40	C	07/25/2025	02:37	-131.470	46.112	0	3069.50	0	1.6230	0	34.6510	4	27.738	0	3022.267	0	87.5	4	26.1	4	-1E+10	1	-1E+10	1	-1E+10	1	-1E+10	1	-1E+10	1	-1E+10	1
4902642	40	C	07/25/2025	02:37	-131.470	46.112	0	3070.70	0	1.6230	0	34.6500	4	27.737	0	3023.440	0	87.5	4	26.1	4	-1E+10	1	-1E+10	1	-1E+10	1	-1E+10	1	-1E+10	1	-1E+10	1
4902642	40	C	07/25/2025	02:37	-131.470	46.112	0	3072.00	0	1.6230	0	34.6500	4	27.737	0	3024.711	0	87.4	4	26.1	4	-1E+10	1	-1E+10	1	-1E+10	1	-1E+10	1	-1E+10	1	-1E+10	1
4902642	40	C	07/25/2025	02:37	-131.470	46.112	0	3073.20	0	1.6230	0	34.6510	4	27.738	0	3025.884	0	87.5	4	26.1	4	-1E+10	1	-1E+10	1	-1E+10	1	-1E+10	1	-1E+10	1	-1E+10	1
4902642	40	C	07/25/2025	02:37	-131.470	46.112	0	3074.40	0	1.6230	0	34.6500	4	27.737	0	3027.057	0	87.5	4	26.1	4	-1E+10	1	-1E+10	1	-1E+10	1	-1E+10	1	-1E+10	1	-1E+10	1
4902642	40	C	07/25/2025	02:37	-131.470	46.112	0	3075.70	0	1.6230	0	34.6500	4	27.737	0	3028.328	0	87.5	4	26.2	4	-1E+10	1	-1E+10	1	-1E+10	1	-1E+10	1	-1E+10	1	-1E+10	1
4902642	40	C	07/25/2025	02:37	-131.470	46.112	0	3076.80	0	1.6230	0	34.6510	4	27.738	0	3029.404	0	87.6	4	26.2	4	-1E+10	1	-1E+10	1	-1E+10	1	-1E+10	1	-1E+10	1	-1E+10	1
4902642	40	C	07/25/2025	02:37	-131.470	46.112	0	3078.00	0	1.6230	0	34.6500	4	27.737	0	3030.577	0	87.6	4	26.2	4	-1E+10	1	-1E+10	1	-1E+10	1	-1E+10	1	-1E+10	1	-1E+10	1
4902642	40	C	07/25/2025	02:37	-131.470	46.112	0	3079.30	0	1.6230	0	34.6510	4	27.738	0	3031.848	0	87.6	4	26.2	4	-1E+10	1	-1E+10	1	-1E+10	1	-1E+10	1	-1E+10	1	-1E+10	1
4902642	40	C	07/25/2025	02:37	-131.470	46.112	0	3080.50	0	1.6230	0	34.6510	4	27.738	0	3033.021	0	87.6	4	26.2	4	-1E+10	1	-1E+10	1	-1E+10	1	-1E+10	1	-1E+10	1	-1E+10	1
4902642	40	C	07/25/2025	02:37	-131.470	46.112	0	3081.70	0	1.6230	0	34.6500	4	27.737	0	3034.194	0	87.7	4	26.2	4	-1E+10	1	-1E+10	1	-1E+10	1	-1E+10	1	-1E+10	1	-1E+10	1
4902642	40	C	07/25/2025	02:37	-131.470	46.112	0	3082.80	0	1.6220	0	34.6510	4	27.738	0	3035.269	0	87.7	4	26.2	4	-1E+10	1	-1E+10	1	-1E+10	1	-1E+10	1	-1E+10	1	-1E+10	1
4902642	40	C	07/25/2025	02:37	-131.470	46.112	0	3084.00	0	1.6210	0	34.6510	4	27.738	0	3036.442	0	87.7	4	26.2	4	-1E+10	1	-1E+10	1	-1E+10	1	-1E+10	1	-1E+10	1	-1E+10	1
4902642	40	C	07/25/2025	02:37	-131.470	46.112	0	3085.00	0	1.6210	0	34.6510	4	27.738	0	3037.420	0	87.7	4	26.2	4	-1E+10	1	-1E+10	1	-1E+10	1	-1E+10	1	-1E+10	1	-1E+10	1
4902642	40	C	07/25/2025	02:37	-131.470	46.112	0	3086.20	0	1.6210	0	34.6510	4	27.738	0	3038.593	0	87.7	4	26.2	4	-1E+10	1	-1E+10	1	-1E+10	1	-1E+10	1	-1E+10	1	-1E+10	1
4902642	40	C	07/25/2025	02:37	-131.470	46.112	0	3087.40	0	1.6210	0	34.6510	4	27.738	0	3039.766	0	87.7	4	26.2	4	-1E+10	1	-1E+10	1	-1E+10	1	-1E+10	1	-1E+10	1	-1E+10	1
4902642	40	C	07/25/2025	02:37	-131.470	46.112	0	3088.50	0	1.6210	0	34.6510	4	27.738	0	3040.841	0	87.7	4	26.2	4	-1E+10	1	-1E+10	1	-1E+10	1	-1E+10	1	-1E+10	1	-1E+10	1
4902642	40	C	07/25/2025	02:37	-131.470	46.112	0	3089.60	0	1.6210	0	34.6510	4	27.738	0	3041.917	0	87.7	4	26.2	4	-1E+10	1	-1E+10	1	-1E+10	1	-1E+10	1	-1E+10	1	-1E+10	1
4902642	40	C	07/25/2025	02:37	-131.470	46.112	0	3091.50	0	1.6220	0	34.6510	4	27.738	0	3043.774	0	87.8	4	26.2	4	-1E+10	1	-1E+10	1	-1E+10	1	-1E+10	1	-1E+10	1	-1E+10	1
4902642	40	C	07/25/2025	02:37	-131.470	46.112	0	3092.40	0	1.6210	0	34.6510	4	27.738	0	3044.654	0	87.8	4	26.2	4	-1E+10	1	-1E+10	1	-1E+10	1	-1E+10	1	-1E+10	1	-1E+10	1
4902642	40	C	07/25/2025	02:37	-131.470	46.112	0	3093.40	0	1.6220	0	34.6500	4	27.737	0	3045.631	0	87.8	4	26.2	4	-1E+10	1	-1E+10	1	-1E+10	1	-1E+10	1	-1E+10	1	-1E+10	1
4902642	40	C	07/25/2025	02:37	-131.470	46.112	0	3094.40	0	1.6220	0	34.6510	4	27.738	0	3046.609	0	87.8	4	26.2	4	-1E+10	1	-1E+10	1	-1E+10	1	-1E+10	1	-1E+10	1	-1E+10	1
4902642	40	C	07/25/2025	02:37	-131.470	46.112	0	3095.30	0	1.6220	0	34.6510	4	27.738	0	3047.489	0	87.9	4	26.3	4	-1E+10	1	-1E+10	1	-1E+10	1	-1E+10	1	-1E+10	1	-1E+10	1
4902642	40	C	07/25/2025	02:37	-131.470	46.112	0	3096.60	0	1.6210	0	34.6510	4	27.738	0	3048.760	0	87.9	4	26.3	4	-1E+10	1	-1E+10	1	-1E+10	1	-1E+10	1	-1E+10	1	-1E+10	1
4902642	40	C	07/25/2025	02:37	-131.470	46.112	0	3099.40	0	1.6200	0	34.6510	4	27.738	0	3051.497	0	88.0	4	26.3	4	-1E+10	1	-1E+10	1	-1E+10	1	-1E+10	1	-1E+10	1	-1E+10	1
4902642	40	C	07/25/2025	02:37	-131.470	46.112	0	3100.40	0	1.6180	0	34.6510	4	27.738	0	3052.474	0	88.1	4	26.3	4	-1E+10	1	-1E+10	1	-1E+10	1	-1E+10	1	-1E+10	1	-1E+10	1
4902642	40	C	07/25/2025	02:37	-131.470	46.112	0																										
4902642	41	C	08/04/2025	04:27	-131.538	46.155	0	1.30	0	18.1850	0	32.3740	0	23.218	0	1.289	0	227.6	4	95.9	4	-1E+10	1	-1E+10	1	-1E+10	1	-1E+10	1	-1E+10	1	-1E+10	1
4902642	41	C	08/04/2025	04:27	-131.538	46.155	0	1.40	0	18.1940	0	32.3670	0	23.211	0	1.388	0	227.6	4	95.9	4	-1E+10	1	-1E+10	1	-1E+10	1	-1E+10	1	-1E+10	1	-1E+10	1
4902642	41	C	08/04/2025	04:27	-131.538	46.155	0	1.50	0	18.1970	0	32.3640	0	23.208	0	1.488	0	227.5	4	95.9	4	-1E+10	1	-1E+10	1	-1E+10	1	-1E+10	1	-1E+10	1	-1E+10	1
4902642	41	C	08/04/2025	04:27	-131.538	46.155	0	1.60	0	18.1945	0	32.3675	0	23.211	0	1.587	0	227.5	4	95.9	4	-1E+10	1	-1E+10	1	-1E+10	1	-1E+10	1	-1E+10	1	-1E+10	1
4902642	41	C	08/04/2025	04:27	-131.538	46.155	0	1.70	0	18.1940	0	32.3700	0	23.213	0	1.686	0	227.5	4	95.9	4	-1E+10	1	-1E+10	1	-1E+10	1	-1E+10	1	-1E+10	1	-1E+10	1
4902642	41	C	08/04/2025	04:27	-131.538	46.155	0	1.80	0	18.1985	0	32.3665	0	23.209	0	1.785	0	227.6	4	95.9	4	-1E+10	1	-1E+10	1	-1E+10	1	-1E+10	1	-1E+10	1	-1E+10	1
4902642	41	C	08/04/2025	04:27	-131.538	46.155	0	1.90	0	18.2060	0	32.3600	0	23.202	0	1.884	0	-1e10	1	-1e10	1	-1E+10	1	-1E+10	1	-1E+10	1	-1E+10	1	-1E+10	1	-1E+10	1
4902642	41	C	08/04/2025	04:27	-131.538	46.155	0	2.00	0	18.2090	0	32.3510	0	23.195	0	1.984	0	227.6	4	95.9	4	-1E+10	1	-1E+10	1	-1E+10	1	-1E+10	1	-1E+10	1	-1E+10	1
4902642	41	C	08/04/2025	04:27	-131.538	46.155	0	2.60	0	18.0500	8	32.0070	8	22.970	0	2.579	0	227.3	4	95.3	4	-1E+10	1	-1E+10	1	-1E+10	1	-1E+10	1	-1E+10	1	-1E+10	1
4902642	41	C	08/04/2025	04:27	-131.538	46.155	0	3.80	0	17.6040	0	32.3070	0	23.307	0	3.769	0	228.7	4	95.3	4	-1E+10	1	-1E+10	1	-1E+10	1	-1E+10	1	-1E+10	1	-1E+10	1
4902642	41	C	08/04/2025	04:27	-131.538	46.155	0	4.70	0	17.5370	0	32.3480	0	23.354	0	4.661	0	229.4	4	95.5	4	-1E+10	1	-1E+10	1	-1E+10	1	-1E+10	1	-1E+10	1	-1E+10	1
4902642	41	C	08/04/2025	04:27	-131.538	46.155	0	5.40	0	17.4550	0	32.3510	0	23.376	0	5.356	0	229.9	4	95.5	4	-1E+10	1	-1E+10	1	-1E+10	1	-1E+10	1	-1E+10	1	-1E+10	1
4902642	41	C	08/04/2025	04:27	-131.538	46.155	0	6.30	0	17.4050	0	32.3460	0	23.384	0	6.248	0	230.0	4	95.5	4	-1E+10	1	-1E+10	1	-1E+10	1	-1E+10	1	-1E+10	1	-1E+10	1
4902642	41	C	08/04/2025	04:27	-131.538	46.155	0	7.50	0	17.3230	0	32.3450	0	23.403	0	7.438	0	230.5	4	95.5	4	-1E+10	1	-1E+10	1	-1E+10	1	-1E+10	1	-1E+10	1	-1E+10	1
4902642	41	C	08/04/2025	04:27	-131.538	46.155	0	8.80	0	17.2670	0	32.3370	0	23.410	0	8.727	0	230.7	4	95.5	4	-1E+10	1	-1E+10	1	-1E+10	1	-1E+10	1	-1E+10	1	-1E+10	1
4902642	41	C	08/04/2025	04:27	-131.538	46.155	0	9.60	0	17.1660	0	32.3330	0	23.431	0	9.521	0	231.2	4	95.5	4	-1E+10	1	-1E+10	1	-1E+10	1	-1E+10	1	-1E+10	1	-1E+10	1
4902642	41	C	08/04/2025	04:27	-131.538	46.155	0	15.20	0	16.6670	0	32.3350	0	23.549	0	15.074	0	234.6	4	96.0	4	-1E+10	1	-1E+10	1	-1E+10	1	-1E+10	1	-1E+10	1	-1E+10	1
4902642	41	C	08/04/2025	04:27	-131.538	46.155	0	24.70	0	15.0900	0	32.3280	0	23.895	0	24.495	0	249.5	4	99.0	4	-1E+10	1	-1E+10	1	-1E+10	1	-1E+10	1	-1E+10	1	-1E+10	1
4902642	41	C	08/04/2025	04:27	-131.538	46.155	0	35.30	0	12.9600	0	32.3240	0	24.330	0	35.007	0	256.8	4	97.6	4	-1E+10	1	-1E+10	1	-1E+10	1	-1E+10	1	-1E+10	1	-1E+10	1
4902642	41	C	08/04/2025	04:27	-131.538	46.155	0	44.70	0	11.8450	0	32.3320	0	24.548	0	44.328	0	254.5	4	94.6	4	-1E+10	1	-1E+10	1	-1E+10	1	-1E+10	1	-1E+10	1	-1E+10	1
4902642	41	C	08/04/2025	04:27	-131.538	46.155	0	54.50	0	10.9350	0	32.3560	0	24.730	0	54.045	0	252.1	4	91.9	4	-1E+10	1	-1E+10	1	-1E+10	1	-1E+10	1	-1E+10	1	-1E+10	1
4902642	41	C	08/04/2025	04:27	-131.538	46.155	0	64.80	0	9.8880	0	32.3540	0	24.906	0	64.257	0	249.1	4	88.8	4	-1E+10	1	-1E+10	1	-1E+10	1	-1E+10	1	-1E+10	1	-1E+10	1
4902642	41	C	08/04/2025	04:27	-131.538	46.155	0	75.20	0	9.2030	0	32.3810	0	25.038	0	74.568	0	242.8	4	85.3	4	-1E+10	1	-1E+10	1	-1E+10	1	-1E+10	1	-1E+10	1	-1E+10	1
4902642	41	C	08/04/2025	04:27	-131.538	46.155	0	85.20	0	8.8860	0	32.4470	0	25.139	0	84.482	0	229.0	4	79.9	4	-1E+10	1	-1E+10	1	-1E+10	1	-1E+10	1	-1E+10	1	-1E+10	1
4902642	41	C	08/04/2025	04:27	-131.538	46.155	0	95.30	0	8.6030	0	32.5890	0	25.293	0	94.495	0	214.0	4	74.3	4	-1E+10	1	-1E+10	1	-1E+10	1	-1E+10	1	-1E+10	1	-1E+10	1
4902642	41	C	08/04/2025	04:27	-131.538	46.155	0	105.30	0	8.3080	0	32.8010	0	25.504	0	104.407	0	194.4	4	67.1	4	-1E+10	1	-1E+10	1	-1E+10	1	-1E+10	1	-1E+10	1	-1E+10	1
4902642	41	C	08/04/2025	04:27	-131.538	46.155	0	114.90	0	8.0930	0	33.0020	0	25.693	0	113.923	0	179.0	4	61.6	4	-1E+10	1	-1E+10	1	-1E+10	1	-1E+10	1	-1E+10	1	-1E+10	1
4902642	41	C	08/04/2025	04:27	-131.538	46.155	0	124.90	0	7.8650	0	33.1870	0	25.872	0	123.835	0	168.9	4	57.9	4	-1E+10	1	-1E+10	1	-1E+10	1	-1E+10	1	-1E+10	1	-1E+10	1
4902642	41	C	08/04/2025	04:27	-131.538	46.155	0	135.00	0	7.6070	0	33.3710	0	26.053	0	133.846	0	161.0	4	55.0	4	-1E+10	1	-1E+10	1	-1E+10	1	-1E+10	1	-1E+10	1	-1E+10	1
4902642	41	C	08/04/2025	04:27	-131.538	46.155	0	145.00	0	7.3970	0	33.5240	0	26.203	0	143.757	0	160.1	4	54.5	4	-1E+10	1	-1E+10	1	-1E+10	1	-1E+10	1	-1E+10	1	-1E+10	1
4902642	41	C	08/04/2025	04:27	-131.538	46.155	0	154.70	0	7.2490	0	33.6210	0	26.301	0	153.370	0	158.5	4	53.8	4	-1E+10	1	-1E+10	1	-1E+10	1	-1E+10	1	-1E+10	1	-1E+10	1
4902642	41	C	08/04/2025	04:27	-131.538	46.155	0	165.10	0	7.0990	0	33.6950	0	26.380	0	163.677	0	154.9	4	52.4	4	-1E+10	1	-1E+10	1	-1E+10	1	-1E+10	1	-1E+10	1	-1E+10	1
4902642	41	C	08/04/2025	04:27	-131.538	46.155	0	175.20	0	6.9590	0	33.7290	0	26.426	0	173.686	0	154.3	4	52.0	4	-1E+10	1	-1E+10	1	-1E+10	1	-1E+10	1	-1E+10	1	-1E+10	1
4902642	41	C	08/04/2025	04:27	-131.538	46.155	0	185.20	0	6.8240	0	33.7730	0	26.479	0	183.595	0	135.5	4	45.6	4	-1E+10	1	-1E+10	1	-1E+10	1	-1E+10	1	-1E+10	1	-1E+10	1
4902642	41	C	08/04/2025	04:27	-131.538	46.155	0	195.10	0	6.7640	0	33.8090	0	26.515	0	193.404	0	123.7	4	41.6	4	-1E+10	1	-1E+10	1	-1E+10	1	-1E+10	1	-1E+10	1	-1E+10	1
4902642	41	C	08/04/2025	04:27	-131.538	46.155	0	210.50	0	6.6160	0	33.8330	0	26.554	0	208.663	0	109.1	4	36.5	4	-1E+10	1	-1E+10	1	-1E+10	1	-1E+10	1	-1E+10	1	-1E+10	1
4902642	41	C	08/04/2025	04:27	-131.538	46.155	0	229.60	0	6.4410	0	33.8640	0	26.601	0	227.585	0	98.1	4	32.7	4	-1E+10	1	-1E+10	1	-1E+10	1	-1E+10	1	-1E+10	1	-1E+10	1
4902642	41	C	08/04/2025	04:27	-131.538	46.155	0	250.20	0	6.1550	0	33.8600	0	26.635	0	247.992	0	97.0	4	32.2	4	-1E+10	1	-1E+10	1	-1E+10	1	-1E+10	1	-1E+10	1	-1E+10	1
4902642	41	C	08/04/2025	04:27	-131.538	46.155	0	270.20	0	6.0180	0	33.8790	0	26.668	0	267.803	0	84.3	4	27.9	4	-1E+10	1	-1E+10	1	-1E+10	1	-1E+10	1	-1E+10	1	-1E+10	1
4902642	41	C	08/04/2025	04:27	-131.538	46.155	0	289.90	0	5.8730	0	33.8950	0	26.699	0	287.315	0	77.6	4	25.5	4	-1E+10	1	-1E+10	1	-1E+10	1	-1E+10	1	-1E+10	1	-1E+10	1
4902642	41	C	08/04/2025	04:27	-131.538	46.155	0	309.70	0	5.7860	0	33.9090	0	26.720	0	306.923	0	70.5	4	23.2	4	-1E+10	1	-1E+10	1	-1E+10	1	-1E+10	1	-1E+10	1	-1E+10	1
4902642	41	C	08/04/2025	04:27	-131.538	46.155	0	329.80	0	5.6510	0	33.9340	0	26.757	0	326.827	0	61.7	4	20.2	4	-1E+10	1	-1E+10	1	-1E+10	1	-1E+10	1	-1E+10	1	-1E+10	1
4902642	41	C	08/04/2025	04:27	-131.538	46.155	0	349.60	0	5.5420	0	33.9530	0	26.785	0	346.432	0	55.3	4	18.1	4	-1E+10	1	-1E+10	1	-1E+10	1	-1E+10	1	-1E+10	1	-1E+10	1
4902642	41	C	08/04/2025	04:27	-131.538	46.155	0	369.80	0	5.4150	0	33.9620	0	26.808	0	366.431	0	52.4	4	17.1	4	-1E+10	1	-1E+10	1	-1E+10	1	-1E+10	1	-1E+10	1	-1E+10	1
4902642	41	C	08/04/2025	04:27	-131.538	46.155	0	389.70	0	5.1550	0	33.9620	0	26.838	0	386.132	0	49.9	4	16.2	4	-1E+10	1	-1E+10	1	-1E+10	1	-1E+10	1	-1E+10	1	-1E+10	1
4902642	41	C	08/04/2025	04:27	-131.538	46.155	0	410.20	0	5.0800	0	33.9810	0	26.862	0	406.424	0	45.2	4	14.6	4	-1E+10	1	-1E+10	1	-1E+10	1	-1E+10	1	-1E+10	1	-1E+10	1
4902642	41	C	08/04/2025	04:27	-131.538	46.155	0	430.20	0	5.0260	0	34.0030	0	26.886	0	426.219	0	39.7	4	12.8	4	-1E+10	1	-1E+10	1	-1E+10	1	-1E+10	1	-1E+10	1	-1E+10	1
4902642	41	C	08/04/2025	04:27	-131.538	46.155	0	450.10	0	4.9180	0	34.0270	0	26.917	0	445.914	0	34.8	4	11.2	4	-1E+10	1	-1E+10	1	-1E+10	1	-1E+10	1	-1E+10	1	-1E+10	1
4902642	41	C	08/04/2025	04:27	-131.538	46.155	0	470.30	0	4.8910	0	34.0470	0	26.936	0	465.903	0	31.1	4	10.0	4	-1E+10	1	-1E+10	1	-1E+10	1	-1E+10	1	-1E+10	1	-1E+10	1
4902642	41	C	08/04/2025	04:27	-131.538	46.155	0	490.00	0	4.7940	0	34.0680	0	26.964	0	485.396	0	26.6	4	8.5	4	-1E+10	1	-1E+10	1	-1E+10	1	-1E+10	1	-1E+10	1	-1E+10	1
4902642	41	C	08/04/2025	04:27	-131.538	46.155	0	510.30	0	4.6960	0	34.0920	0	26.994	0	505.480	0	22.5	4	7.2	4	-1E+10	1	-1E+10	1	-1E+10	1	-1E+10	1	-1E+10	1	-1E+10	1
4902642	41	C	08/04/2025	04:27	-131.538	46.155	0	529.80	0	4.5640	0	34.1130	0	27.025	0	524.772	0	19.7	4	6.3	4	-1E+10	1	-1E+10	1	-1E+10	1	-1E+10	1	-1E+10	1	-1E+10	1
4902642	41	C	08/04/2025	04:27	-131.538	46.155	0	549.80	0	4.4610	0	34.1240	0	27.045	0	544.556	0	18.2	4	5.8	4	-1E+10	1	-1E+10	1	-1E+10	1	-1E+10	1	-1E+10	1	-1E+10	1
4902642	41	C	08/04/2025	04:27	-131.538	46.155	0	569.80	0	4.3480	0	34.1280	0	27.061	0	564.338	0	17.2	4	5.5	4	-1E+10	1	-1E+10	1	-1E+10	1	-1E+10	1	-1E+10	1	-1E+10	1
4902642	41	C	08/04/2025	04:27	-131.538	46.155	0	589.90	0	4.3250	0	34.1390	0	27.072	0	584.217	0	15.6	4	5.0	4	-1E+10	1	-1E+10	1	-1E+10	1	-1E+10	1	-1E+10	1	-1E+10	1
4902642	41	C	08/04/2025	04:27	-131.538	46.155	0	610.10	0	4.3000	0	34.1540	0	27.087	0	604.193	0	14.2	4	4.5	4	-1E+10	1	-1E+10	1	-1E+10	1	-1E+10	1	-1E+10	1	-1E+10	1
4902642	41	C	08/04/2025	04:27	-131.538	46.155	0	630.30	0	4.2610	0	34.1620	0	27.097	0	624.167	0	13.3	4	4.2	4	-1E+10	1	-1E+10	1	-1E+10	1	-1E+10	1	-1E+10	1	-1E+10	1
4902642	41	C	08/04/2025	04:27	-131.538	46.155	0	650.10	0	4.2020	0	34.1730	0	27.112	0	643.744	0	12.2	4	3.9	4	-1E+10	1	-1E+10	1	-1E+10	1	-1E+10	1	-1E+10	1	-1E+10	1
4902642	41	C	08/04/2025	04:27	-131.538	46.155	0	669.70	0	4.1550	0	34.1880	0	27.129	0	663.121	0	11.0	4	3.5	4	-1E+10	1	-1E+10	1	-1E+10	1	-1E+10	1	-1E+10	1	-1E+10	1
4902642	41	C	08/04/2025	04:27	-131.538	46.155	0	690.10	0	4.1010	0	34.2040	0	27.148	0	683.287	0	9.8	4	3.1	4	-1E+10	1	-1E+10	1	-1E+10	1	-1E+10	1	-1E+10	1	-1E+10	1
4902642	41	C	08/04/2025	04:27	-131.538	46.155	0	709.70	0	4.0470	0	34.2210	0	27.167	0	702.661	0	8.7	4	2.8	4	-1E+10	1	-1E+10	1	-1E+10	1	-1E+10	1	-1E+10	1	-1E+10	1
4902642	41	C	08/04/2025	04:27	-131.538	46.155	0	729.70	0	3.9980	0	34.2320	0	27.181	0	722.428	0	8.2	4	2.6	4	-1E+10	1	-1E+10	1	-1E+10	1	-1E+10	1	-1E+10	1	-1E+10	1
4902642	41	C	08/04/2025	04:27	-131.538	46.155	0	750.80	0	3.9410	0	34.2470	0	27.199	0	743.280	0	7.4	4	2.3	4	-1E+10	1	-1E+10	1	-1E+10	1	-1E+10	1	-1E+10	1	-1E+10	1
4902642	41	C	08/04/2025	04:27	-131.538	46.155	0	770.00	0	3.8930	0	34.2610	0	27.215	0	762.253	0	6.9	4	2.2	4	-1E+10	1	-1E+10	1	-1E+10	1	-1E+10	1	-1E+10	1	-1E+10	1
4902642	41	C	08/04/2025	04:27	-131.538	46.155	0	789.70	0	3.8730	0	34.2780	0	27.231	0	781.717	0	6.3	4	2.0	4	-1E+10	1	-1E+10	1	-1E+10	1	-1E+10	1	-1E+10	1	-1E+10	1
4902642	41	C	08/04/2025	04:27	-131.538	46.155	0	809.80	0	3.8690	0	34.2960	0	27.246	0	801.576	0	5.9	4	1.8	4	-1E+10	1	-1E+10	1	-1E+10	1	-1E+10	1	-1E+10	1	-1E+10	1
4902642	41	C	08/04/2025	04:27	-131.538	46.155	0	830.00	0	3.8040	0	34.3060	0	27.260	0	821.531	0	5.7	4	1.8	4	-1E+10	1	-1E+10	1	-1E+10	1	-1E+10	1	-1E+10	1	-1E+10	1
4902642	41	C	08/04/2025	04:27	-131.538	46.155	0	850.10	0	3.7440	0	34.3180	0	27.276	0	841.385	0	5.5	4	1.7	4	-1E+10	1	-1E+10	1	-1E+10	1	-1E+10	1	-1E+10	1	-1E+10	1
4902642	41	C	08/04/2025	04:27	-131.538	46.155	0	870.20	0	3.6940	0	34.3320	0	27.292	0	861.238	0	5.3	4	1.7	4	-1E+10	1	-1E+10	1	-1E+10	1	-1E+10	1	-1E+10	1	-1E+10	1
4902642	41	C	08/04/2025	04:27	-131.538	46.155	0	889.90	0	3.6560	0	34.3400	0	27.302	0	880.694	0	5.3	4	1.7	4	-1E+10	1	-1E+10	1	-1E+10	1	-1E+10	1	-1E+10	1	-1E+10	1
4902642	41	C	08/04/2025	04:27	-131.538	46.155	0	909.60	0	3.6150	0	34.3470	0	27.312	0	900.147	0	5.4	4	1.7	4	-1E+10	1	-1E+10	1	-1E+10	1	-1E+10	1	-1E+10	1	-1E+10	1
4902642	41	C	08/04/2025	04:27	-131.538	46.155	0	929.90	0	3.5790	0	34.3550	0	27.322	0	920.192	0	5.5	4	1.7	4	-1E+10	1	-1E+10	1	-1E+10	1	-1E+10	1	-1E+10	1	-1E+10	1
4902642	41	C	08/04/2025	04:27	-131.538	46.155	0	950.00	0	3.5470	0	34.3680	0	27.336	0	940.037	0	5.7	4	1.8	4	-1E+10	1	-1E+10	1	-1E+10	1	-1E+10	1	-1E+10	1	-1E+10	1
4902642	41	C	08/04/2025	04:27	-131.538	46.155	0	969.90	0	3.4980	0	34.3790	0	27.349	0	959.683	0	6.0	4	1.9	4	-1E+10	1	-1E+10	1	-1E+10	1	-1E+10	1	-1E+10	1	-1E+10	1
4902642	41	C	08/04/2025	04:27	-131.538	46.155	0	990.00	0	3.4690	0	34.3870	0	27.359	0	979.524	0	6.2	4	1.9	4	-1E+10	1	-1E+10	1	-1E+10	1	-1E+10	1	-1E+10	1	-1E+10	1
4902642	41	C	08/04/2025	04:27	-131.538	46.155	0	1009.90	0	3.4360	0	34.3950	0	27.368	0	999.166	0	6.4	4	2.0	4	-1E+10	1	-1E+10	1	-1E+10	1	-1E+10	1	-1E+10	1	-1E+10	1
4902642	41	C	08/04/2025	04:27	-131.538	46.155	0	1029.80	0	3.3880	0	34.3990	0	27.376	0	1018.806	0	6.5	4	2.0	4	-1E+10	1	-1E+10	1	-1E+10	1	-1E+10	1	-1E+10	1	-1E+10	1
4902642	41	C	08/04/2025	04:27	-131.538	46.155	0	1049.80	0	3.3500	0	34.4030	0	27.383	0	1038.543	0	6.7	4	2.1	4	-1E+10	1	-1E+10	1	-1E+10	1	-1E+10	1	-1E+10	1	-1E+10	1
4902642	41	C	08/04/2025	04:27	-131.538	46.155	0	1070.20	0	3.3240	0	34.4100	0	27.391	0	1058.673	0	7.0	4	2.2	4	-1E+10	1	-1E+10	1	-1E+10	1	-1E+10	1	-1E+10	1	-1E+10	1
4902642	41	C	08/04/2025	04:27	-131.538	46.155	0	1090.20	0	3.2970	0	34.4150	0	27.398	0	1078.406	0	7.4	4	2.3	4	-1E+10	1	-1E+10	1	-1E+10	1	-1E+10	1	-1E+10	1	-1E+10	1
4902642	41	C	08/04/2025	04:27	-131.538	46.155	0	1110.20	0	3.2590	0	34.4200	0	27.405	0	1098.137	0	7.7	4	2.4	4	-1E+10	1	-1E+10	1	-1E+10	1	-1E+10	1	-1E+10	1	-1E+10	1
4902642	41	C	08/04/2025	04:27	-131.538	46.155	0	1130.10	0	3.2350	0	34.4270	0	27.413	0	1117.768	0	8.1	4	2.5	4	-1E+10	1	-1E+10	1	-1E+10	1	-1E+10	1	-1E+10	1	-1E+10	1
4902642	41	C	08/04/2025	04:27	-131.538	46.155	0	1150.00	0	3.2020	0	34.4310	0	27.420	0	1137.397	0	8.5	4	2.6	4	-1E+10	1	-1E+10	1	-1E+10	1	-1E+10	1	-1E+10	1	-1E+10	1
4902642	41	C	08/04/2025	04:27	-131.538	46.155	0	1169.80	0	3.1640	0	34.4360	0	27.427	0	1156.926	0	8.9	4	2.8	4	-1E+10	1	-1E+10	1	-1E+10	1	-1E+10	1	-1E+10	1	-1E+10	1
4902642	41	C	08/04/2025	04:27	-131.538	46.155	0	1189.80	0	3.1300	0	34.4420	0	27.435	0	1176.650	0	9.5	4	2.9	4	-1E+10	1	-1E+10	1	-1E+10	1	-1E+10	1	-1E+10	1	-1E+10	1
4902642	41	C	08/04/2025	04:27	-131.538	46.155	0	1210.20	0	3.0780	0	34.4480	0	27.445	0	1196.766	0	10.2	4	3.2	4	-1E+10	1	-1E+10	1	-1E+10	1	-1E+10	1	-1E+10	1	-1E+10	1
4902642	41	C	08/04/2025	04:27	-131.538	46.155	0	1230.00	0	3.0300	0	34.4550	0	27.455	0	1216.289	0	11.0	4	3.4	4	-1E+10	1	-1E+10	1	-1E+10	1	-1E+10	1	-1E+10	1	-1E+10	1
4902642	41	C	08/04/2025	04:27	-131.538	46.155	0	1250.20	0	2.9910	0	34.4610	0	27.464	0	1236.205	0	11.6	4	3.6	4	-1E+10	1	-1E+10	1	-1E+10	1	-1E+10	1	-1E+10	1	-1E+10	1
4902642	41	C	08/04/2025	04:27	-131.538	46.155	0	1269.80	0	2.9440	0	34.4660	0	27.472	0	1255.527	0	12.4	4	3.8	4	-1E+10	1	-1E+10	1	-1E+10	1	-1E+10	1	-1E+10	1	-1E+10	1
4902642	41	C	08/04/2025	04:27	-131.538	46.155	0	1289.60	0	2.8920	0	34.4720	0	27.481	0	1275.044	0	13.2	4	4.1	4	-1E+10	1	-1E+10	1	-1E+10	1	-1E+10	1	-1E+10	1	-1E+10	1
4902642	41	C	08/04/2025	04:27	-131.538	46.155	0	1309.50	0	2.8590	0	34.4760	0	27.488	0	1294.659	0	14.0	4	4.3	4	-1E+10	1	-1E+10	1	-1E+10	1	-1E+10	1	-1E+10	1	-1E+10	1
4902642	41	C	08/04/2025	04:27	-131.538	46.155	0	1329.60	0	2.8190	0	34.4810	0	27.495	0	1314.468	0	14.7	4	4.5	4	-1E+10	1	-1E+10	1	-1E+10	1	-1E+10	1	-1E+10	1	-1E+10	1
4902642	41	C	08/04/2025	04:27	-131.538	46.155	0	1350.00	0	2.7890	0	34.4840	0	27.500	0	1334.571	0	15.3	4	4.7	4	-1E+10	1	-1E+10	1	-1E+10	1	-1E+10	1	-1E+10	1	-1E+10	1
4902642	41	C	08/04/2025	04:27	-131.538	46.155	0	1370.00	0	2.7460	0	34.4880	0	27.507	0	1354.279	0	16.3	4	5.0	4	-1E+10	1	-1E+10	1	-1E+10	1	-1E+10	1	-1E+10	1	-1E+10	1
4902642	41	C	08/04/2025	04:27	-131.538	46.155	0	1389.70	0	2.7060	0	34.4940	0	27.516	0	1373.688	0	17.3	4	5.3	4	-1E+10	1	-1E+10	1	-1E+10	1	-1E+10	1	-1E+10	1	-1E+10	1
4902642	41	C	08/04/2025	04:27	-131.538	46.155	0	1410.20	0	2.6660	0	34.4990	0	27.523	0	1393.885	0	18.3	4	5.6	4	-1E+10	1	-1E+10	1	-1E+10	1	-1E+10	1	-1E+10	1	-1E+10	1
4902642	41	C	08/04/2025	04:27	-131.538	46.155	0	1430.20	0	2.6200	0	34.5030	0	27.531	0	1413.586	0	19.2	4	5.9	4	-1E+10	1	-1E+10	1	-1E+10	1	-1E+10	1	-1E+10	1	-1E+10	1
4902642	41	C	08/04/2025	04:27	-131.538	46.155	0	1450.00	0	2.5830	0	34.5070	0	27.537	0	1433.089	0	20.1	4	6.1	4	-1E+10	1	-1E+10	1	-1E+10	1	-1E+10	1	-1E+10	1	-1E+10	1
4902642	41	C	08/04/2025	04:27	-131.538	46.155	0	1469.90	0	2.5560	0	34.5100	0	27.542	0	1452.689	0	20.8	4	6.4	4	-1E+10	1	-1E+10	1	-1E+10	1	-1E+10	1	-1E+10	1	-1E+10	1
4902642	41	C	08/04/2025	04:27	-131.538	46.155	0	1490.00	0	2.5270	0	34.5120	0	27.546	0	1472.483	0	21.6	4	6.6	4	-1E+10	1	-1E+10	1	-1E+10	1	-1E+10	1	-1E+10	1	-1E+10	1
4902642	41	C	08/04/2025	04:27	-131.538	46.155	0	1510.00	0	2.4830	0	34.5170	0	27.554	0	1492.178	0	22.7	4	6.9	4	-1E+10	1	-1E+10	1	-1E+10	1	-1E+10	1	-1E+10	1	-1E+10	1
4902642	41	C	08/04/2025	04:27	-131.538	46.155	0	1529.70	0	2.4520	0	34.5210	0	27.560	0	1511.575	0	23.8	4	7.2	4	-1E+10	1	-1E+10	1	-1E+10	1	-1E+10	1	-1E+10	1	-1E+10	1
4902642	41	C	08/04/2025	04:27	-131.538	46.155	0	1550.10	0	2.4210	0	34.5250	0	27.566	0	1531.659	0	25.0	4	7.6	4	-1E+10	1	-1E+10	1	-1E+10	1	-1E+10	1	-1E+10	1	-1E+10	1
4902642	41	C	08/04/2025	04:27	-131.538	46.155	0	1570.30	0	2.3970	0	34.5290	0	27.571	0	1551.545	0	26.2	4	8.0	4	-1E+10	1	-1E+10	1	-1E+10	1	-1E+10	1	-1E+10	1	-1E+10	1
4902642	41	C	08/04/2025	04:27	-131.538	46.155	0	1590.30	0	2.3760	0	34.5320	0	27.575	0	1571.232	0	27.1	4	8.2	4	-1E+10	1	-1E+10	1	-1E+10	1	-1E+10	1	-1E+10	1	-1E+10	1
4902642	41	C	08/04/2025	04:27	-131.538	46.155	0	1610.00	0	2.3370	0	34.5360	0	27.582	0	1590.622	0	28.5	4	8.7	4	-1E+10	1	-1E+10	1	-1E+10	1	-1E+10	1	-1E+10	1	-1E+10	1
4902642	41	C	08/04/2025	04:27	-131.538	46.155	0	1629.90	0	2.3140	0	34.5390	0	27.586	0	1610.206	0	29.6	4	9.0	4	-1E+10	1	-1E+10	1	-1E+10	1	-1E+10	1	-1E+10	1	-1E+10	1
4902642	41	C	08/04/2025	04:27	-131.538	46.155	0	1649.80	0	2.2930	0	34.5420	0	27.590	0	1629.790	0	30.5	4	9.3	4	-1E+10	1	-1E+10	1	-1E+10	1	-1E+10	1	-1E+10	1	-1E+10	1
4902642	41	C	08/04/2025	04:27	-131.538	46.155	0	1670.00	0	2.2690	0	34.5450	0	27.595	0	1649.666	0	31.6	4	9.6	4	-1E+10	1	-1E+10	1	-1E+10	1	-1E+10	1	-1E+10	1	-1E+10	1
4902642	41	C	08/04/2025	04:27	-131.538	46.155	0	1689.70	0	2.2420	0	34.5480	0	27.599	0	1669.048	0	32.6	4	9.9	4	-1E+10	1	-1E+10	1	-1E+10	1	-1E+10	1	-1E+10	1	-1E+10	1
4902642	41	C	08/04/2025	04:27	-131.538	46.155	0	1709.80	0	2.2230	0	34.5510	0	27.603	0	1688.823	0	33.6	4	10.2	4	-1E+10	1	-1E+10	1	-1E+10	1	-1E+10	1	-1E+10	1	-1E+10	1
4902642	41	C	08/04/2025	04:27	-131.538	46.155	0	1729.90	0	2.2020	0	34.5540	0	27.608	0	1708.595	0	34.5	4	10.4	4	-1E+10	1	-1E+10	1	-1E+10	1	-1E+10	1	-1E+10	1	-1E+10	1
4902642	41	C	08/04/2025	04:27	-131.538	46.155	0	1749.60	0	2.1830	0	34.5560	0	27.611	0	1727.973	0	35.6	4	10.8	4	-1E+10	1	-1E+10	1	-1E+10	1	-1E+10	1	-1E+10	1	-1E+10	1
4902642	41	C	08/04/2025	04:27	-131.538	46.155	0	1769.90	0	2.1520	0	34.5610	0	27.617	0	1747.938	0	37.2	4	11.3	4	-1E+10	1	-1E+10	1	-1E+10	1	-1E+10	1	-1E+10	1	-1E+10	1
4902642	41	C	08/04/2025	04:27	-131.538	46.155	0	1790.20	0	2.1340	0	34.5640	0	27.621	0	1767.902	0	38.2	4	11.5	4	-1E+10	1	-1E+10	1	-1E+10	1	-1E+10	1	-1E+10	1	-1E+10	1
4902642	41	C	08/04/2025	04:27	-131.538	46.155	0	1810.00	0	2.1220	0	34.5660	0	27.624	0	1787.372	0	39.0	4	11.8	4	-1E+10	1	-1E+10	1	-1E+10	1	-1E+10	1	-1E+10	1	-1E+10	1
4902642	41	C	08/04/2025	04:27	-131.538	46.155	0	1829.80	0	2.1070	0	34.5670	0	27.626	0	1806.840	0	39.6	4	12.0	4	-1E+10	1	-1E+10	1	-1E+10	1	-1E+10	1	-1E+10	1	-1E+10	1
4902642	41	C	08/04/2025	04:27	-131.538	46.155	0	1850.10	0	2.0910	0	34.5690	0	27.629	0	1826.798	0	40.6	4	12.3	4	-1E+10	1	-1E+10	1	-1E+10	1	-1E+10	1	-1E+10	1	-1E+10	1
4902642	41	C	08/04/2025	04:27	-131.538	46.155	0	1870.10	0	2.0730	0	34.5720	0	27.633	0	1846.460	0	41.7	4	12.6	4	-1E+10	1	-1E+10	1	-1E+10	1	-1E+10	1	-1E+10	1	-1E+10	1
4902642	41	C	08/04/2025	04:27	-131.538	46.155	0	1890.20	0	2.0570	0	34.5750	0	27.637	0	1866.217	0	42.8	4	12.9	4	-1E+10	1	-1E+10	1	-1E+10	1	-1E+10	1	-1E+10	1	-1E+10	1
4902642	41	C	08/04/2025	04:27	-131.538	46.155	0	1909.90	0	2.0440	0	34.5770	0	27.640	0	1885.580	0	43.7	4	13.2	4	-1E+10	1	-1E+10	1	-1E+10	1	-1E+10	1	-1E+10	1	-1E+10	1
4902642	41	C	08/04/2025	04:27	-131.538	46.155	0	1930.00	0	2.0260	0	34.5800	0	27.643	0	1905.334	0	44.8	4	13.5	4	-1E+10	1	-1E+10	1	-1E+10	1	-1E+10	1	-1E+10	1	-1E+10	1
4902642	41	C	08/04/2025	04:27	-131.538	46.155	0	1950.30	0	2.0090	0	34.5830	0	27.647	0	1925.283	0	46.1	4	13.9	4	-1E+10	1	-1E+10	1	-1E+10	1	-1E+10	1	-1E+10	1	-1E+10	1
4902642	41	C	08/04/2025	04:27	-131.538	46.155	0	1970.10	0	1.9940	0	34.5850	0	27.650	0	1944.739	0	47.3	4	14.3	4	-1E+10	1	-1E+10	1	-1E+10	1	-1E+10	1	-1E+10	1	-1E+10	1
4902642	41	C	08/04/2025	04:27	-131.538	46.155	0	1990.10	0	1.9780	0	34.5880	0	27.654	0	1964.389	0	48.5	4	14.6	4	-1E+10	1	-1E+10	1	-1E+10	1	-1E+10	1	-1E+10	1	-1E+10	1
4902642	41	C	08/04/2025	04:27	-131.538	46.155	0	2009.70	0	1.9630	0	34.5910	4	27.658	0	1983.645	0	49.4	4	14.9	4	-1E+10	1	-1E+10	1	-1E+10	1	-1E+10	1	-1E+10	1	-1E+10	1
4902642	41	C	08/04/2025	04:27	-131.538	46.155	0	2030.40	0	1.9490	0	34.5930	4	27.660	0	2003.979	0	50.5	4	15.2	4	-1E+10	1	-1E+10	1	-1E+10	1	-1E+10	1	-1E+10	1	-1E+10	1
4902642	41	C	08/04/2025	04:27	-131.538	46.155	0	2049.90	0	1.9360	0	34.5950	4	27.663	0	2023.133	0	51.4	4	15.5	4	-1E+10	1	-1E+10	1	-1E+10	1	-1E+10	1	-1E+10	1	-1E+10	1
4902642	41	C	08/04/2025	04:27	-131.538	46.155	0	2069.60	0	1.9290	0	34.5970	4	27.665	0	2042.482	0	52.2	4	15.7	4	-1E+10	1	-1E+10	1	-1E+10	1	-1E+10	1	-1E+10	1	-1E+10	1
4902642	41	C	08/04/2025	04:27	-131.538	46.155	0	2090.10	0	1.9160	0	34.5990	4	27.668	0	2062.614	0	53.3	4	16.0	4	-1E+10	1	-1E+10	1	-1E+10	1	-1E+10	1	-1E+10	1	-1E+10	1
4902642	41	C	08/04/2025	04:27	-131.538	46.155	0	2110.50	0	1.9050	0	34.6010	4	27.671	0	2082.646	0	54.1	4	16.3	4	-1E+10	1	-1E+10	1	-1E+10	1	-1E+10	1	-1E+10	1	-1E+10	1
4902642	41	C	08/04/2025	04:27	-131.538	46.155	0	2129.70	0	1.8970	0	34.6030	4	27.673	0	2101.498	0	54.8	4	16.5	4	-1E+10	1	-1E+10	1	-1E+10	1	-1E+10	1	-1E+10	1	-1E+10	1
4902642	41	C	08/04/2025	04:27	-131.538	46.155	0	2149.90	0	1.8920	0	34.6040	4	27.674	0	2121.331	0	55.3	4	16.6	4	-1E+10	1	-1E+10	1	-1E+10	1	-1E+10	1	-1E+10	1	-1E+10	1
4902642	41	C	08/04/2025	04:27	-131.538	46.155	0	2170.20	0	1.8860	0	34.6050	4	27.676	0	2141.259	0	56.0	4	16.8	4	-1E+10	1	-1E+10	1	-1E+10	1	-1E+10	1	-1E+10	1	-1E+10	1
4902642	41	C	08/04/2025	04:27	-131.538	46.155	0	2190.10	0	1.8810	0	34.6060	4	27.677	0	2160.794	0	56.5	4	17.0	4	-1E+10	1	-1E+10	1	-1E+10	1	-1E+10	1	-1E+10	1	-1E+10	1
4902642	41	C	08/04/2025	04:27	-131.538	46.155	0	2209.90	0	1.8760	0	34.6070	4	27.678	0	2180.228	0	57.2	4	17.2	4	-1E+10	1	-1E+10	1	-1E+10	1	-1E+10	1	-1E+10	1	-1E+10	1
4902642	41	C	08/04/2025	04:27	-131.538	46.155	0	2229.50	0	1.8690	0	34.6080	4	27.680	0	2199.464	0	57.8	4	17.4	4	-1E+10	1	-1E+10	1	-1E+10	1	-1E+10	1	-1E+10	1	-1E+10	1
4902642	41	C	08/04/2025	04:27	-131.538	46.155	0	2249.70	0	1.8650	0	34.6100	4	27.682	0	2219.287	0	58.2	4	17.5	4	-1E+10	1	-1E+10	1	-1E+10	1	-1E+10	1	-1E+10	1	-1E+10	1
4902642	41	C	08/04/2025	04:27	-131.538	46.155	0	2269.90	0	1.8610	0	34.6100	4	27.682	0	2239.108	0	58.8	4	17.7	4	-1E+10	1	-1E+10	1	-1E+10	1	-1E+10	1	-1E+10	1	-1E+10	1
4902642	41	C	08/04/2025	04:27	-131.538	46.155	0	2290.20	0	1.8520	0	34.6120	4	27.685	0	2259.026	0	59.6	4	17.9	4	-1E+10	1	-1E+10	1	-1E+10	1	-1E+10	1	-1E+10	1	-1E+10	1
4902642	41	C	08/04/2025	04:27	-131.538	46.155	0	2310.20	0	1.8450	0	34.6130	4	27.686	0	2278.647	0	60.2	4	18.1	4	-1E+10	1	-1E+10	1	-1E+10	1	-1E+10	1	-1E+10	1	-1E+10	1
4902642	41	C	08/04/2025	04:27	-131.538	46.155	0	2329.90	0	1.8410	0	34.6140	4	27.687	0	2297.973	0	60.7	4	18.2	4	-1E+10	1	-1E+10	1	-1E+10	1	-1E+10	1	-1E+10	1	-1E+10	1
4902642	41	C	08/04/2025	04:27	-131.538	46.155	0	2349.80	0	1.8340	0	34.6150	4	27.689	0	2317.493	0	61.5	4	18.5	4	-1E+10	1	-1E+10	1	-1E+10	1	-1E+10	1	-1E+10	1	-1E+10	1
4902642	41	C	08/04/2025	04:27	-131.538	46.155	0	2369.70	0	1.8250	0	34.6170	4	27.691	0	2337.011	0	62.4	4	18.7	4	-1E+10	1	-1E+10	1	-1E+10	1	-1E+10	1	-1E+10	1	-1E+10	1
4902642	41	C	08/04/2025	04:27	-131.538	46.155	0	2389.60	0	1.8180	0	34.6180	4	27.692	0	2356.527	0	63.1	4	19.0	4	-1E+10	1	-1E+10	1	-1E+10	1	-1E+10	1	-1E+10	1	-1E+10	1
4902642	41	C	08/04/2025	04:27	-131.538	46.155	0	2410.00	0	1.8100	0	34.6190	4	27.694	0	2376.532	0	63.9	4	19.2	4	-1E+10	1	-1E+10	1	-1E+10	1	-1E+10	1	-1E+10	1	-1E+10	1
4902642	41	C	08/04/2025	04:27	-131.538	46.155	0	2430.50	0	1.8030	0	34.6200	4	27.695	0	2396.633	0	64.6	4	19.4	4	-1E+10	1	-1E+10	1	-1E+10	1	-1E+10	1	-1E+10	1	-1E+10	1
4902642	41	C	08/04/2025	04:27	-131.538	46.155	0	2450.00	0	1.7980	0	34.6210	4	27.697	0	2415.751	0	65.1	4	19.5	4	-1E+10	1	-1E+10	1	-1E+10	1	-1E+10	1	-1E+10	1	-1E+10	1
4902642	41	C	08/04/2025	04:27	-131.538	46.155	0	2470.00	0	1.7950	0	34.6220	4	27.698	0	2435.358	0	65.6	4	19.7	4	-1E+10	1	-1E+10	1	-1E+10	1	-1E+10	1	-1E+10	1	-1E+10	1
4902642	41	C	08/04/2025	04:27	-131.538	46.155	0	2490.00	0	1.7900	0	34.6230	4	27.699	0	2454.964	0	66.3	4	19.9	4	-1E+10	1	-1E+10	1	-1E+10	1	-1E+10	1	-1E+10	1	-1E+10	1
4902642	41	C	08/04/2025	04:27	-131.538	46.155	0	2510.30	0	1.7830	0	34.6240	4	27.701	0	2474.861	0	67.1	4	20.1	4	-1E+10	1	-1E+10	1	-1E+10	1	-1E+10	1	-1E+10	1	-1E+10	1
4902642	41	C	08/04/2025	04:27	-131.538	46.155	0	2530.00	0	1.7750	0	34.6250	4	27.702	0	2494.169	0	68.0	4	20.4	4	-1E+10	1	-1E+10	1	-1E+10	1	-1E+10	1	-1E+10	1	-1E+10	1
4902642	41	C	08/04/2025	04:27	-131.538	46.155	0	2550.00	0	1.7670	0	34.6260	4	27.704	0	2513.769	0	68.8	4	20.6	4	-1E+10	1	-1E+10	1	-1E+10	1	-1E+10	1	-1E+10	1	-1E+10	1
4902642	41	C	08/04/2025	04:27	-131.538	46.155	0	2570.00	0	1.7610	0	34.6270	4	27.705	0	2533.367	0	69.6	4	20.9	4	-1E+10	1	-1E+10	1	-1E+10	1	-1E+10	1	-1E+10	1	-1E+10	1
4902642	41	C	08/04/2025	04:27	-131.538	46.155	0	2590.10	0	1.7540	0	34.6280	4	27.707	0	2553.062	0	70.2	4	21.1	4	-1E+10	1	-1E+10	1	-1E+10	1	-1E+10	1	-1E+10	1	-1E+10	1
4902642	41	C	08/04/2025	04:27	-131.538	46.155	0	2610.20	0	1.7480	0	34.6290	4	27.708	0	2572.754	0	71.1	4	21.3	4	-1E+10	1	-1E+10	1	-1E+10	1	-1E+10	1	-1E+10	1	-1E+10	1
4902642	41	C	08/04/2025	04:27	-131.538	46.155	0	2629.90	0	1.7390	0	34.6300	4	27.709	0	2592.053	0	71.9	4	21.6	4	-1E+10	1	-1E+10	1	-1E+10	1	-1E+10	1	-1E+10	1	-1E+10	1
4902642	41	C	08/04/2025	04:27	-131.538	46.155	0	2650.10	0	1.7330	0	34.6310	4	27.711	0	2611.840	0	72.7	4	21.8	4	-1E+10	1	-1E+10	1	-1E+10	1	-1E+10	1	-1E+10	1	-1E+10	1
4902642	41	C	08/04/2025	04:27	-131.538	46.155	0	2670.30	0	1.7260	0	34.6320	4	27.712	0	2631.625	0	73.4	4	22.0	4	-1E+10	1	-1E+10	1	-1E+10	1	-1E+10	1	-1E+10	1	-1E+10	1
4902642	41	C	08/04/2025	04:27	-131.538	46.155	0	2690.10	0	1.7190	0	34.6330	4	27.714	0	2651.017	0	74.2	4	22.2	4	-1E+10	1	-1E+10	1	-1E+10	1	-1E+10	1	-1E+10	1	-1E+10	1
4902642	41	C	08/04/2025	04:27	-131.538	46.155	0	2710.20	0	1.7100	0	34.6340	4	27.715	0	2670.700	0	75.1	4	22.5	4	-1E+10	1	-1E+10	1	-1E+10	1	-1E+10	1	-1E+10	1	-1E+10	1
4902642	41	C	08/04/2025	04:27	-131.538	46.155	0	2730.00	0	1.7030	0	34.6350	4	27.717	0	2690.088	0	76.0	4	22.7	4	-1E+10	1	-1E+10	1	-1E+10	1	-1E+10	1	-1E+10	1	-1E+10	1
4902642	41	C	08/04/2025	04:27	-131.538	46.155	0	2749.90	0	1.6940	0	34.6360	4	27.718	0	2709.572	0	76.7	4	23.0	4	-1E+10	1	-1E+10	1	-1E+10	1	-1E+10	1	-1E+10	1	-1E+10	1
4902642	41	C	08/04/2025	04:27	-131.538	46.155	0	2769.90	0	1.6910	0	34.6370	4	27.719	0	2729.153	0	77.3	4	23.1	4	-1E+10	1	-1E+10	1	-1E+10	1	-1E+10	1	-1E+10	1	-1E+10	1
4902642	41	C	08/04/2025	04:27	-131.538	46.155	0	2789.80	0	1.6870	0	34.6370	4	27.720	0	2748.634	0	77.9	4	23.3	4	-1E+10	1	-1E+10	1	-1E+10	1	-1E+10	1	-1E+10	1	-1E+10	1
4902642	41	C	08/04/2025	04:27	-131.538	46.155	0	2809.90	0	1.6800	0	34.6390	4	27.722	0	2768.308	0	78.8	4	23.6	4	-1E+10	1	-1E+10	1	-1E+10	1	-1E+10	1	-1E+10	1	-1E+10	1
4902642	41	C	08/04/2025	04:27	-131.538	46.155	0	2830.40	0	1.6700	0	34.6400	4	27.724	0	2788.373	0	80.0	4	23.9	4	-1E+10	1	-1E+10	1	-1E+10	1	-1E+10	1	-1E+10	1	-1E+10	1
4902642	41	C	08/04/2025	04:27	-131.538	46.155	0	2850.10	0	1.6610	0	34.6420	4	27.726	0	2807.652	0	81.2	4	24.3	4	-1E+10	1	-1E+10	1	-1E+10	1	-1E+10	1	-1E+10	1	-1E+10	1
4902642	41	C	08/04/2025	04:27	-131.538	46.155	0	2870.30	0	1.6520	0	34.6430	4	27.728	0	2827.420	0	82.0	4	24.5	4	-1E+10	1	-1E+10	1	-1E+10	1	-1E+10	1	-1E+10	1	-1E+10	1
4902642	41	C	08/04/2025	04:27	-131.538	46.155	0	2890.00	0	1.6500	0	34.6430	4	27.728	0	2846.696	0	82.5	4	24.7	4	-1E+10	1	-1E+10	1	-1E+10	1	-1E+10	1	-1E+10	1	-1E+10	1
4902642	41	C	08/04/2025	04:27	-131.538	46.155	0	2910.30	0	1.6470	0	34.6440	4	27.729	0	2866.557	0	83.1	4	24.8	4	-1E+10	1	-1E+10	1	-1E+10	1	-1E+10	1	-1E+10	1	-1E+10	1
4902642	41	C	08/04/2025	04:27	-131.538	46.155	0	2930.20	0	1.6390	0	34.6450	4	27.731	0	2886.025	0	84.1	4	25.1	4	-1E+10	1	-1E+10	1	-1E+10	1	-1E+10	1	-1E+10	1	-1E+10	1
4902642	41	C	08/04/2025	04:27	-131.538	46.155	0	2949.90	0	1.6330	0	34.6470	4	27.733	0	2905.296	0	84.9	4	25.4	4	-1E+10	1	-1E+10	1	-1E+10	1	-1E+10	1	-1E+10	1	-1E+10	1
4902642	41	C	08/04/2025	04:27	-131.538	46.155	0	2970.50	0	1.6310	0	34.6470	4	27.733	0	2925.446	0	85.4	4	25.5	4	-1E+10	1	-1E+10	1	-1E+10	1	-1E+10	1	-1E+10	1	-1E+10	1
4902642	41	C	08/04/2025	04:27	-131.538	46.155	0	2989.90	0	1.6280	0	34.6480	4	27.734	0	2944.420	0	85.8	4	25.7	4	-1E+10	1	-1E+10	1	-1E+10	1	-1E+10	1	-1E+10	1	-1E+10	1
4902642	41	C	08/04/2025	04:27	-131.538	46.155	0	3009.60	0	1.6270	0	34.6480	4	27.734	0	2963.686	0	86.3	4	25.8	4	-1E+10	1	-1E+10	1	-1E+10	1	-1E+10	1	-1E+10	1	-1E+10	1
4902642	41	C	08/04/2025	04:27	-131.538	46.155	0	3029.60	0	1.6260	0	34.6490	4	27.735	0	2983.243	0	86.6	4	25.9	4	-1E+10	1	-1E+10	1	-1E+10	1	-1E+10	1	-1E+10	1	-1E+10	1
4902642	41	C	08/04/2025	04:27	-131.538	46.155	0	3049.70	0	1.6220	0	34.6490	4	27.736	0	3002.896	0	87.0	4	26.0	4	-1E+10	1	-1E+10	1	-1E+10	1	-1E+10	1	-1E+10	1	-1E+10	1
4902642	41	C	08/04/2025	04:27	-131.538	46.155	0	3070.10	0	1.6200	0	34.6500	4	27.737	0	3022.842	0	87.4	4	26.1	4	-1E+10	1	-1E+10	1	-1E+10	1	-1E+10	1	-1E+10	1	-1E+10	1
4902642	41	C	08/04/2025	04:27	-131.538	46.155	0	3090.10	0	1.6190	0	34.6500	4	27.737	0	3042.394	0	87.8	4	26.2	4	-1E+10	1	-1E+10	1	-1E+10	1	-1E+10	1	-1E+10	1	-1E+10	1
4902642	41	C	08/04/2025	04:27	-131.538	46.155	0	3101.10	0	1.6190	0	34.6510	4	27.738	0	3053.147	0	88.0	4	26.3	4	-1E+10	1	-1E+10	1	-1E+10	1	-1E+10	1	-1E+10	1	-1E+10	1
4902642	41	C	08/04/2025	04:27	-131.538	46.155	0	3102.50	0	1.6190	0	34.6510	4	27.738	0	3054.515	0	88.0	4	26.3	4	-1E+10	1	-1E+10	1	-1E+10	1	-1E+10	1	-1E+10	1	-1E+10	1
4902642	41	C	08/04/2025	04:27	-131.538	46.155	0	3103.60	0	1.6190	0	34.6510	4	27.738	0	3055.590	0	88.0	4	26.3	4	-1E+10	1	-1E+10	1	-1E+10	1	-1E+10	1	-1E+10	1	-1E+10	1
4902642	41	C	08/04/2025	04:27	-131.538	46.155	0	3104.60	0	1.6190	0	34.6510	4	27.738	0	3056.568	0	88.0	4	26.3	4	-1E+10	1	-1E+10	1	-1E+10	1	-1E+10	1	-1E+10	1	-1E+10	1
4902642	41	C	08/04/2025	04:27	-131.538	46.155	0	3105.60	0	1.6190	0	34.6510	4	27.738	0	3057.545	0	88.0	4	26.3	4	-1E+10	1	-1E+10	1	-1E+10	1	-1E+10	1	-1E+10	1	-1E+10	1
4902642	41	C	08/04/2025	04:27	-131.538	46.155	0	3106.50	0	1.6190	0	34.6510	4	27.738	0	3058.425	0	88.1	4	26.3	4	-1E+10	1	-1E+10	1	-1E+10	1	-1E+10	1	-1E+10	1	-1E+10	1
4902642	41	C	08/04/2025	04:27	-131.538	46.155	0	3107.50	0	1.6190	0	34.6510	4	27.738	0	3059.402	0	88.1	4	26.3	4	-1E+10	1	-1E+10	1	-1E+10	1	-1E+10	1	-1E+10	1	-1E+10	1
4902642	41	C	08/04/2025	04:27	-131.538	46.155	0	3108.50	0	1.6190	0	34.6510	4	27.738	0	3060.380	0	88.1	4	26.3	4	-1E+10	1	-1E+10	1	-1E+10	1	-1E+10	1	-1E+10	1	-1E+10	1
4902642	41	C	08/04/2025	04:27	-131.538	46.155	0	3109.50	0	1.6190	0	34.6510	4	27.738	0	3061.357	0	88.1	4	26.3	4	-1E+10	1	-1E+10	1	-1E+10	1	-1E+10	1	-1E+10	1	-1E+10	1
4902642	41	C	08/04/2025	04:27	-131.538	46.155	0	3110.40	0	1.6190	0	34.6510	4	27.738	0	3062.237	0	88.1	4	26.3	4	-1E+10	1	-1E+10	1	-1E+10	1	-1E+10	1	-1E+10	1	-1E+10	1
4902642	41	C	08/04/2025	04:27	-131.538	46.155	0	3111.40	0	1.6180	0	34.6510	4	27.738	0	3063.214	0	88.1	4	26.3	4	-1E+10	1	-1E+10	1	-1E+10	1	-1E+10	1	-1E+10	1	-1E+10	1
4902642	41	C	08/04/2025	04:27	-131.538	46.155	0	3112.40	0	1.6180	0	34.6520	4	27.739	0	3064.192	0	88.2	4	26.3	4	-1E+10	1	-1E+10	1	-1E+10	1	-1E+10	1	-1E+10	1	-1E+10	1
4902642	41	C	08/04/2025	04:27	-131.538	46.155	0	3113.30	0	1.6180	0	34.6510	4	27.738	0	3065.072	0	88.2	4	26.4	4	-1E+10	1	-1E+10	1	-1E+10	1	-1E+10	1	-1E+10	1	-1E+10	1
4902642	41	C	08/04/2025	04:27	-131.538	46.155	0	3114.30	0	1.6180	0	34.6510	4	27.738	0	3066.049	0	88.2	4	26.4	4	-1E+10	1	-1E+10	1	-1E+10	1	-1E+10	1	-1E+10	1	-1E+10	1
4902642	41	C	08/04/2025	04:27	-131.538	46.155	0	3115.30	0	1.6180	0	34.6510	4	27.738	0	3067.027	0	88.2	4	26.4	4	-1E+10	1	-1E+10	1	-1E+10	1	-1E+10	1	-1E+10	1	-1E+10	1
4902642	41	C	08/04/2025	04:27	-131.538	46.155	0	3116.20	0	1.6180	0	34.6510	4	27.738	0	3067.906	0	88.3	4	26.4	4	-1E+10	1	-1E+10	1	-1E+10	1	-1E+10	1	-1E+10	1	-1E+10	1
4902642	41	C	08/04/2025	04:27	-131.538	46.155	0	3117.20	0	1.6180	0	34.6510	4	27.738	0	3068.884	0	88.3	4	26.4	4	-1E+10	1	-1E+10	1	-1E+10	1	-1E+10	1	-1E+10	1	-1E+10	1
4902642	41	C	08/04/2025	04:27	-131.538	46.155	0	3118.20	0	1.6170	0	34.6510	4	27.738	0	3069.861	0	88.3	4	26.4	4	-1E+10	1	-1E+10	1	-1E+10	1	-1E+10	1	-1E+10	1	-1E+10	1
4902642	41	C	08/04/2025	04:27	-131.538	46.155	0	3119.10	0	1.6170	0	34.6520	4	27.739	0	3070.741	0	88.3	4	26.4	4	-1E+10	1	-1E+10	1	-1E+10	1	-1E+10	1	-1E+10	1	-1E+10	1
4902642	41	C	08/04/2025	04:27	-131.538	46.155	0	3120.10	0	1.6170	0	34.6520	4	27.739	0	3071.718	0	88.3	4	26.4	4	-1E+10	1	-1E+10	1	-1E+10	1	-1E+10	1	-1E+10	1	-1E+10	1
4902642	41	C	08/04/2025	04:27	-131.538	46.155	0	3121.20	0	1.6180	0	34.6520	4	27.739	0	3072.793	0	88.3	4	26.4	4	-1E+10	1	-1E+10	1	-1E+10	1	-1E+10	1	-1E+10	1	-1E+10	1
4902642	41	C	08/04/2025	04:27	-131.538	46.155	0	3122.20	0	1.6180	0	34.6510	4	27.738	0	3073.771	0	88.3	4	26.4	4	-1E+10	1	-1E+10	1	-1E+10	1	-1E+10	1	-1E+10	1	-1E+10	1
4902642	41	C	08/04/2025	04:27	-131.538	46.155	0	3123.10	0	1.6170	0	34.6520	4	27.739	0	3074.651	0	88.3	4	26.4	4	-1E+10	1	-1E+10	1	-1E+10	1	-1E+10	1	-1E+10	1	-1E+10	1
4902642	41	C	08/04/2025	04:27	-131.538	46.155	0	3124.50	0	1.6170	0	34.6520	4	27.739	0	3076.019	0	88.4	4	26.4	4	-1E+10	1	-1E+10	1	-1E+10	1	-1E+10	1	-1E+10	1	-1E+10	1
4902642	41	C	08/04/2025	04:27	-131.538	46.155	0	3126.10	0	1.6170	0	34.6520	4	27.739	0	3077.583	0	88.4	4	26.4	4	-1E+10	1	-1E+10	1	-1E+10	1	-1E+10	1	-1E+10	1	-1E+10	1
4902642	41	C	08/04/2025	04:27	-131.538	46.155	0	3127.10	0	1.6170	0	34.6520	4	27.739	0	3078.560	0	88.4	4	26.4	4	-1E+10	1	-1E+10	1	-1E+10	1	-1E+10	1	-1E+10	1	-1E+10	1
4902642	41	C	08/04/2025	04:27	-131.538	46.155	0	3128.10	0	1.6170	0	34.6520	4	27.739	0	3079.538	0	88.5	4	26.4	4	-1E+10	1	-1E+10	1	-1E+10	1	-1E+10	1	-1E+10	1	-1E+10	1
4902642	41	C	08/04/2025	04:27	-131.538	46.155	0	3129.10	0	1.6180	0	34.6520	4	27.739	0	3080.515	0	88.5	4	26.4	4	-1E+10	1	-1E+10	1	-1E+10	1	-1E+10	1	-1E+10	1	-1E+10	1
4902642	41	C	08/04/2025	04:27	-131.538	46.155	0	3130.10	0	1.6170	0	34.6520	4	27.739	0	3081.492	0	88.5	4	26.5	4	-1E+10	1	-1E+10	1	-1E+10	1	-1E+10	1	-1E+10	1	-1E+10	1
4902642	41	C	08/04/2025	04:27	-131.538	46.155	0	3131.10	0	1.6170	0	34.6520	4	27.739	0	3082.470	0	88.6	4	26.5	4	-1E+10	1	-1E+10	1	-1E+10	1	-1E+10	1	-1E+10	1	-1E+10	1
4902642	41	C	08/04/2025	04:27	-131.538	46.155	0	3132.10	0	1.6170	0	34.6520	4	27.739	0	3083.447	0	88.7	4	26.5	4	-1E+10	1	-1E+10	1	-1E+10	1	-1E+10	1	-1E+10	1	-1E+10	1
4902642	41	C	08/04/2025	04:27	-131.538	46.155	0	3133.20	0	1.6170	0	34.6520	4	27.739	0	3084.522	0	88.7	4	26.5	4	-1E+10	1	-1E+10	1	-1E+10	1	-1E+10	1	-1E+10	1	-1E+10	1
4902642	41	C	08/04/2025	04:27	-131.538	46.155	0	3134.20	0	1.6170	0	34.6520	4	27.739	0	3085.500	0	88.7	4	26.5	4	-1E+10	1	-1E+10	1	-1E+10	1	-1E+10	1	-1E+10	1	-1E+10	1
4902642	41	C	08/04/2025	04:27	-131.538	46.155	0	3135.10	0	1.6170	0	34.6520	4	27.739	0	3086.379	0	88.8	4	26.5	4	-1E+10	1	-1E+10	1	-1E+10	1	-1E+10	1	-1E+10	1	-1E+10	1
4902642	41	C	08/04/2025	04:27	-131.538	46.155	0	3136.20	0	1.6170	0	34.6520	4	27.739	0	3087.454	0	88.9	4	26.6	4	-1E+10	1	-1E+10	1	-1E+10	1	-1E+10	1	-1E+10	1	-1E+10	1
4902642	41	C	08/04/2025	04:27	-131.538	46.155	0	3137.20	0	1.6170	0	34.6520	4	27.739	0	3088.432	0	89.0	4	26.6	4	-1E+10	1	-1E+10	1	-1E+10	1	-1E+10	1	-1E+10	1	-1E+10	1
4902642	41	C	08/04/2025	04:27	-131.538	46.155	0	3138.30	0	1.6170	0	34.6520	4	27.739	0	3089.507	0	89.1	4	26.6	4	-1E+10	1	-1E+10	1	-1E+10	1	-1E+10	1	-1E+10	1	-1E+10	1
4902642	41	C	08/04/2025	04:27	-131.538	46.155	0	3139.20	0	1.6170	0	34.6520	4	27.739	0	3090.386	0	89.2	4	26.7	4	-1E+10	1	-1E+10	1	-1E+10	1	-1E+10	1	-1E+10	1	-1E+10	1
4902642	41	C	08/04/2025	04:27	-131.538	46.155	0	3140.20	0	1.6170	0	34.6520	4	27.739	0	3091.364	0	89.3	4	26.7	4	-1E+10	1	-1E+10	1	-1E+10	1	-1E+10	1	-1E+10	1	-1E+10	1
4902642	41	C	08/04/2025	04:27	-131.538	46.155	0	3141.20	0	1.6170	0	34.6520	4	27.739	0	3092.341	0	89.5	4	26.7	4	-1E+10	1	-1E+10	1	-1E+10	1	-1E+10	1	-1E+10	1	-1E+10	1
4902642	41	C	08/04/2025	04:27	-131.538	46.155	0	3142.30	0	1.6170	0	34.6520	4	27.739	0	3093.416	0	89.7	4	26.8	4	-1E+10	1	-1E+10	1	-1E+10	1	-1E+10	1	-1E+10	1	-1E+10	1
4902642	41	C	08/04/2025	04:27	-131.538	46.155	0	3143.20	0	1.6170	0	34.6520	4	27.739	0	3094.296	0	89.9	4	26.9	4	-1E+10	1	-1E+10	1	-1E+10	1	-1E+10	1	-1E+10	1	-1E+10	1
4902642	41	C	08/04/2025	04:27	-131.538	46.155	0	3144.20	0	1.6170	0	34.6520	4	27.739	0	3095.273	0	90.2	4	26.9	4	-1E+10	1	-1E+10	1	-1E+10	1	-1E+10	1	-1E+10	1	-1E+10	1
4902642	41	C	08/04/2025	04:27	-131.538	46.155	0	3145.80	0	1.6160	0	34.6520	4	27.739	0	3096.837	0	90.7	4	27.1	4	-1E+10	1	-1E+10	1	-1E+10	1	-1E+10	1	-1E+10	1	-1E+10	1
4902642	41	C	08/04/2025	04:27	-131.538	46.155	0	3146.60	0	1.6150	0	34.6520	4	27.739	0	3097.619	0	91.0	4	27.2	4	-1E+10	1	-1E+10	1	-1E+10	1	-1E+10	1	-1E+10	1	-1E+10	1
4902642	41	C	08/04/2025	04:27	-131.538	46.155	0	3147.50	0	1.6060	0	34.6530	4	27.741	0	3098.498	0	91.3	4	27.3	4	-1E+10	1	-1E+10	1	-1E+10	1	-1E+10	1	-1E+10	1	-1E+10	1
4902642	41	C	08/04/2025	04:27	-131.538	46.155	0	3148.40	0	1.6020	0	34.6530	4	27.741	0	3099.378	0	91.5	4	27.3	4	-1E+10	1	-1E+10	1	-1E+10	1	-1E+10	1	-1E+10	1	-1E+10	1
4902642	41	C	08/04/2025	04:27	-131.538	46.155	0	3150.40	0	1.5850	0	34.6560	4	27.745	0	3101.332	0	91.6	4	27.3	4	-1E+10	1	-1E+10	1	-1E+10	1	-1E+10	1	-1E+10	1	-1E+10	1
4902642	41	C	08/04/2025	04:27	-131.538	46.155	0	3151.50	0	1.5850	0	34.6560	4	27.745	0	3102.407	0	91.6	4	27.3	4	-1E+10	1	-1E+10	1	-1E+10	1	-1E+10	1	-1E+10	1	-1E+10	1
4902642	41	C	08/04/2025	04:27	-131.538	46.155	0	3152.10	0	1.5850	0	34.6560	4	27.745	0	3102.994	0	91.6	4	27.3	4	-1E+10	1	-1E+10	1	-1E+10	1	-1E+10	1	-1E+10	1	-1E+10	1
4902642	41	C	08/04/2025	04:27	-131.538	46.155	0																										
4902642	42	C	08/14/2025	03:38	-131.633	46.156	0	1.90	0	17.8040	0	32.3400	0	23.284	0	1.884	0	221.4	4	92.6	4	-1E+10	1	-1E+10	1	-1E+10	1	-1E+10	1	-1E+10	1	-1E+10	1
4902642	42	C	08/14/2025	03:38	-131.633	46.156	0	2.00	0	17.8040	0	32.3410	0	23.285	0	1.984	0	221.3	4	92.6	4	-1E+10	1	-1E+10	1	-1E+10	1	-1E+10	1	-1E+10	1	-1E+10	1
4902642	42	C	08/14/2025	03:38	-131.633	46.156	0	2.10	0	17.8050	0	32.3390	0	23.283	0	2.083	0	221.3	4	92.6	4	-1E+10	1	-1E+10	1	-1E+10	1	-1E+10	1	-1E+10	1	-1E+10	1
4902642	42	C	08/14/2025	03:38	-131.633	46.156	0	2.20	0	17.8060	0	32.3390	0	23.283	0	2.182	0	221.4	4	92.6	4	-1E+10	1	-1E+10	1	-1E+10	1	-1E+10	1	-1E+10	1	-1E+10	1
4902642	42	C	08/14/2025	03:38	-131.633	46.156	0	2.30	0	17.8060	0	32.3400	0	23.284	0	2.281	0	221.3	4	92.6	4	-1E+10	1	-1E+10	1	-1E+10	1	-1E+10	1	-1E+10	1	-1E+10	1
4902642	42	C	08/14/2025	03:38	-131.633	46.156	0	2.40	0	17.8060	0	32.3390	0	23.283	0	2.380	0	221.4	4	92.6	4	-1E+10	1	-1E+10	1	-1E+10	1	-1E+10	1	-1E+10	1	-1E+10	1
4902642	42	C	08/14/2025	03:38	-131.633	46.156	0	2.50	0	17.8065	0	32.3375	0	23.282	0	2.479	0	221.3	4	92.6	4	-1E+10	1	-1E+10	1	-1E+10	1	-1E+10	1	-1E+10	1	-1E+10	1
4902642	42	C	08/14/2025	03:38	-131.633	46.156	0	2.60	0	17.8060	0	32.3390	0	23.283	0	2.579	0	221.3	4	92.6	4	-1E+10	1	-1E+10	1	-1E+10	1	-1E+10	1	-1E+10	1	-1E+10	1
4902642	42	C	08/14/2025	03:38	-131.633	46.156	0	3.00	0	17.8070	0	32.3350	0	23.280	0	2.975	0	221.3	4	92.6	4	-1E+10	1	-1E+10	1	-1E+10	1	-1E+10	1	-1E+10	1	-1E+10	1
4902642	42	C	08/14/2025	03:38	-131.633	46.156	0	3.30	0	17.8090	0	32.3370	0	23.281	0	3.273	0	221.3	4	92.5	4	-1E+10	1	-1E+10	1	-1E+10	1	-1E+10	1	-1E+10	1	-1E+10	1
4902642	42	C	08/14/2025	03:38	-131.633	46.156	0	4.60	0	17.8100	0	32.3380	0	23.281	0	4.562	0	221.2	4	92.5	4	-1E+10	1	-1E+10	1	-1E+10	1	-1E+10	1	-1E+10	1	-1E+10	1
4902642	42	C	08/14/2025	03:38	-131.633	46.156	0	5.80	0	17.8110	0	32.3380	0	23.281	0	5.752	0	221.2	4	92.5	4	-1E+10	1	-1E+10	1	-1E+10	1	-1E+10	1	-1E+10	1	-1E+10	1
4902642	42	C	08/14/2025	03:38	-131.633	46.156	0	6.70	0	17.8110	0	32.3380	0	23.281	0	6.645	0	221.1	4	92.5	4	-1E+10	1	-1E+10	1	-1E+10	1	-1E+10	1	-1E+10	1	-1E+10	1
4902642	42	C	08/14/2025	03:38	-131.633	46.156	0	7.60	0	17.8100	0	32.3380	0	23.282	0	7.537	0	221.2	4	92.5	4	-1E+10	1	-1E+10	1	-1E+10	1	-1E+10	1	-1E+10	1	-1E+10	1
4902642	42	C	08/14/2025	03:38	-131.633	46.156	0	8.50	0	17.8110	0	32.3380	0	23.281	0	8.430	0	221.1	4	92.5	4	-1E+10	1	-1E+10	1	-1E+10	1	-1E+10	1	-1E+10	1	-1E+10	1
4902642	42	C	08/14/2025	03:38	-131.633	46.156	0	9.70	0	17.8110	0	32.3370	0	23.281	0	9.620	0	221.2	4	92.5	4	-1E+10	1	-1E+10	1	-1E+10	1	-1E+10	1	-1E+10	1	-1E+10	1
4902642	42	C	08/14/2025	03:38	-131.633	46.156	0	15.00	0	17.8100	0	32.3300	0	23.276	0	14.876	0	221.5	4	92.6	4	-1E+10	1	-1E+10	1	-1E+10	1	-1E+10	1	-1E+10	1	-1E+10	1
4902642	42	C	08/14/2025	03:38	-131.633	46.156	0	25.40	0	17.7720	8	32.2620	8	23.233	0	25.190	0	224.4	4	93.8	4	-1E+10	1	-1E+10	1	-1E+10	1	-1E+10	1	-1E+10	1	-1E+10	1
4902642	42	C	08/14/2025	03:38	-131.633	46.156	0	34.90	0	16.0000	0	32.0380	0	23.472	0	34.610	0	242.7	4	97.9	4	-1E+10	1	-1E+10	1	-1E+10	1	-1E+10	1	-1E+10	1	-1E+10	1
4902642	42	C	08/14/2025	03:38	-131.633	46.156	0	45.30	0	12.8400	0	32.0990	0	24.179	0	44.923	0	253.1	4	95.8	4	-1E+10	1	-1E+10	1	-1E+10	1	-1E+10	1	-1E+10	1	-1E+10	1
4902642	42	C	08/14/2025	03:38	-131.633	46.156	0	54.90	0	10.7160	0	32.1570	0	24.613	0	54.441	0	246.7	4	89.4	4	-1E+10	1	-1E+10	1	-1E+10	1	-1E+10	1	-1E+10	1	-1E+10	1
4902642	42	C	08/14/2025	03:38	-131.633	46.156	0	65.10	0	9.3190	0	32.2960	0	24.953	0	64.554	0	242.9	4	85.5	4	-1E+10	1	-1E+10	1	-1E+10	1	-1E+10	1	-1E+10	1	-1E+10	1
4902642	42	C	08/14/2025	03:38	-131.633	46.156	0	75.80	0	8.9320	0	32.3920	0	25.089	0	75.163	0	233.1	4	81.4	4	-1E+10	1	-1E+10	1	-1E+10	1	-1E+10	1	-1E+10	1	-1E+10	1
4902642	42	C	08/14/2025	03:38	-131.633	46.156	0	84.60	0	8.8470	0	32.5390	0	25.217	0	83.887	0	218.6	4	76.3	4	-1E+10	1	-1E+10	1	-1E+10	1	-1E+10	1	-1E+10	1	-1E+10	1
4902642	42	C	08/14/2025	03:38	-131.633	46.156	0	95.00	0	8.4470	0	32.7020	0	25.405	0	94.197	0	198.5	4	68.7	4	-1E+10	1	-1E+10	1	-1E+10	1	-1E+10	1	-1E+10	1	-1E+10	1
4902642	42	C	08/14/2025	03:38	-131.633	46.156	0	104.70	0	8.1640	0	32.9250	0	25.622	0	103.813	0	181.4	4	62.5	4	-1E+10	1	-1E+10	1	-1E+10	1	-1E+10	1	-1E+10	1	-1E+10	1
4902642	42	C	08/14/2025	03:38	-131.633	46.156	0	114.70	0	7.9130	0	33.1580	0	25.842	0	113.725	0	166.6	4	57.2	4	-1E+10	1	-1E+10	1	-1E+10	1	-1E+10	1	-1E+10	1	-1E+10	1
4902642	42	C	08/14/2025	03:38	-131.633	46.156	0	124.60	0	7.7600	0	33.2990	0	25.975	0	123.538	0	160.3	4	54.9	4	-1E+10	1	-1E+10	1	-1E+10	1	-1E+10	1	-1E+10	1	-1E+10	1
4902642	42	C	08/14/2025	03:38	-131.633	46.156	0	134.50	0	7.6280	0	33.3810	0	26.058	0	133.351	0	155.8	4	53.2	4	-1E+10	1	-1E+10	1	-1E+10	1	-1E+10	1	-1E+10	1	-1E+10	1
4902642	42	C	08/14/2025	03:38	-131.633	46.156	0	144.80	0	7.4780	0	33.4580	0	26.140	0	143.559	0	152.1	4	51.8	4	-1E+10	1	-1E+10	1	-1E+10	1	-1E+10	1	-1E+10	1	-1E+10	1
4902642	42	C	08/14/2025	03:38	-131.633	46.156	0	155.20	0	7.3700	0	33.5350	0	26.216	0	153.866	0	149.0	4	50.7	4	-1E+10	1	-1E+10	1	-1E+10	1	-1E+10	1	-1E+10	1	-1E+10	1
4902642	42	C	08/14/2025	03:38	-131.633	46.156	0	164.80	0	7.2660	0	33.5640	0	26.253	0	163.380	0	149.1	4	50.6	4	-1E+10	1	-1E+10	1	-1E+10	1	-1E+10	1	-1E+10	1	-1E+10	1
4902642	42	C	08/14/2025	03:38	-131.633	46.156	0	174.60	0	7.1380	0	33.6420	0	26.333	0	173.091	0	144.2	4	48.8	4	-1E+10	1	-1E+10	1	-1E+10	1	-1E+10	1	-1E+10	1	-1E+10	1
4902642	42	C	08/14/2025	03:38	-131.633	46.156	0	184.70	0	7.0270	0	33.6900	0	26.386	0	183.099	0	138.7	4	46.8	4	-1E+10	1	-1E+10	1	-1E+10	1	-1E+10	1	-1E+10	1	-1E+10	1
4902642	42	C	08/14/2025	03:38	-131.633	46.156	0	194.20	0	6.9170	0	33.7430	0	26.443	0	192.513	0	132.3	4	44.6	4	-1E+10	1	-1E+10	1	-1E+10	1	-1E+10	1	-1E+10	1	-1E+10	1
4902642	42	C	08/14/2025	03:38	-131.633	46.156	0	209.40	0	6.7730	0	33.7750	0	26.487	0	207.573	0	124.4	4	41.8	4	-1E+10	1	-1E+10	1	-1E+10	1	-1E+10	1	-1E+10	1	-1E+10	1
4902642	42	C	08/14/2025	03:38	-131.633	46.156	0	229.90	0	6.4990	0	33.8150	0	26.555	0	227.883	0	108.0	4	36.1	4	-1E+10	1	-1E+10	1	-1E+10	1	-1E+10	1	-1E+10	1	-1E+10	1
4902642	42	C	08/14/2025	03:38	-131.633	46.156	0	250.10	0	6.2560	0	33.8530	0	26.617	0	247.893	0	95.9	4	31.9	4	-1E+10	1	-1E+10	1	-1E+10	1	-1E+10	1	-1E+10	1	-1E+10	1
4902642	42	C	08/14/2025	03:38	-131.633	46.156	0	269.80	0	6.0460	0	33.8690	0	26.656	0	267.407	0	89.0	4	29.4	4	-1E+10	1	-1E+10	1	-1E+10	1	-1E+10	1	-1E+10	1	-1E+10	1
4902642	42	C	08/14/2025	03:38	-131.633	46.156	0	290.00	0	5.9230	0	33.8820	0	26.682	0	287.414	0	82.6	4	27.2	4	-1E+10	1	-1E+10	1	-1E+10	1	-1E+10	1	-1E+10	1	-1E+10	1
4902642	42	C	08/14/2025	03:38	-131.633	46.156	0	310.00	0	5.7420	0	33.8900	0	26.711	0	307.220	0	76.6	4	25.2	4	-1E+10	1	-1E+10	1	-1E+10	1	-1E+10	1	-1E+10	1	-1E+10	1
4902642	42	C	08/14/2025	03:38	-131.633	46.156	0	329.90	0	5.6010	0	33.9040	0	26.739	0	326.926	0	70.6	4	23.1	4	-1E+10	1	-1E+10	1	-1E+10	1	-1E+10	1	-1E+10	1	-1E+10	1
4902642	42	C	08/14/2025	03:38	-131.633	46.156	0	349.70	0	5.4580	0	33.9120	0	26.763	0	346.531	0	66.0	4	21.5	4	-1E+10	1	-1E+10	1	-1E+10	1	-1E+10	1	-1E+10	1	-1E+10	1
4902642	42	C	08/14/2025	03:38	-131.633	46.156	0	369.50	0	5.3440	0	33.9270	0	26.788	0	366.134	0	60.0	4	19.5	4	-1E+10	1	-1E+10	1	-1E+10	1	-1E+10	1	-1E+10	1	-1E+10	1
4902642	42	C	08/14/2025	03:38	-131.633	46.156	0	389.50	0	5.2470	0	33.9430	0	26.813	0	385.933	0	54.7	4	17.8	4	-1E+10	1	-1E+10	1	-1E+10	1	-1E+10	1	-1E+10	1	-1E+10	1
4902642	42	C	08/14/2025	03:38	-131.633	46.156	0	409.50	0	5.1690	0	33.9610	0	26.836	0	405.731	0	49.4	4	16.0	4	-1E+10	1	-1E+10	1	-1E+10	1	-1E+10	1	-1E+10	1	-1E+10	1
4902642	42	C	08/14/2025	03:38	-131.633	46.156	0	429.50	0	5.0730	0	33.9840	0	26.865	0	425.526	0	43.1	4	14.0	4	-1E+10	1	-1E+10	1	-1E+10	1	-1E+10	1	-1E+10	1	-1E+10	1
4902642	42	C	08/14/2025	03:38	-131.633	46.156	0	449.50	0	4.9760	0	34.0100	0	26.897	0	445.320	0	37.3	4	12.1	4	-1E+10	1	-1E+10	1	-1E+10	1	-1E+10	1	-1E+10	1	-1E+10	1
4902642	42	C	08/14/2025	03:38	-131.633	46.156	0	469.80	0	4.8700	0	34.0360	0	26.930	0	465.408	0	31.9	4	10.3	4	-1E+10	1	-1E+10	1	-1E+10	1	-1E+10	1	-1E+10	1	-1E+10	1
4902642	42	C	08/14/2025	03:38	-131.633	46.156	0	489.80	0	4.7720	0	34.0620	0	26.962	0	485.198	0	27.1	4	8.7	4	-1E+10	1	-1E+10	1	-1E+10	1	-1E+10	1	-1E+10	1	-1E+10	1
4902642	42	C	08/14/2025	03:38	-131.633	46.156	0	509.70	0	4.6740	0	34.0850	0	26.991	0	504.887	0	22.7	4	7.3	4	-1E+10	1	-1E+10	1	-1E+10	1	-1E+10	1	-1E+10	1	-1E+10	1
4902642	42	C	08/14/2025	03:38	-131.633	46.156	0	530.10	0	4.5780	0	34.1160	0	27.026	0	525.068	0	18.6	4	6.0	4	-1E+10	1	-1E+10	1	-1E+10	1	-1E+10	1	-1E+10	1	-1E+10	1
4902642	42	C	08/14/2025	03:38	-131.633	46.156	0	549.60	0	4.4930	0	34.1360	0	27.051	0	544.358	0	16.2	4	5.2	4	-1E+10	1	-1E+10	1	-1E+10	1	-1E+10	1	-1E+10	1	-1E+10	1
4902642	42	C	08/14/2025	03:38	-131.633	46.156	0	568.80	0	4.4090	0	34.1520	0	27.073	0	563.349	0	14.5	4	4.6	4	-1E+10	1	-1E+10	1	-1E+10	1	-1E+10	1	-1E+10	1	-1E+10	1
4902642	42	C	08/14/2025	03:38	-131.633	46.156	0	589.90	0	4.3220	0	34.1670	0	27.095	0	584.217	0	12.7	4	4.0	4	-1E+10	1	-1E+10	1	-1E+10	1	-1E+10	1	-1E+10	1	-1E+10	1
4902642	42	C	08/14/2025	03:38	-131.633	46.156	0	609.90	0	4.2160	0	34.1850	0	27.120	0	603.995	0	11.3	4	3.6	4	-1E+10	1	-1E+10	1	-1E+10	1	-1E+10	1	-1E+10	1	-1E+10	1
4902642	42	C	08/14/2025	03:38	-131.633	46.156	0	629.80	0	4.1890	0	34.1970	0	27.133	0	623.673	0	10.4	4	3.3	4	-1E+10	1	-1E+10	1	-1E+10	1	-1E+10	1	-1E+10	1	-1E+10	1
4902642	42	C	08/14/2025	03:38	-131.633	46.156	0	649.80	0	4.1520	0	34.2070	0	27.145	0	643.447	0	9.7	4	3.1	4	-1E+10	1	-1E+10	1	-1E+10	1	-1E+10	1	-1E+10	1	-1E+10	1
4902642	42	C	08/14/2025	03:38	-131.633	46.156	0	669.90	0	4.1300	0	34.2170	0	27.155	0	663.319	0	9.0	4	2.8	4	-1E+10	1	-1E+10	1	-1E+10	1	-1E+10	1	-1E+10	1	-1E+10	1
4902642	42	C	08/14/2025	03:38	-131.633	46.156	0	689.90	0	4.0950	0	34.2320	0	27.171	0	683.089	0	8.3	4	2.6	4	-1E+10	1	-1E+10	1	-1E+10	1	-1E+10	1	-1E+10	1	-1E+10	1
4902642	42	C	08/14/2025	03:38	-131.633	46.156	0	709.90	0	4.0440	0	34.2410	0	27.183	0	702.858	0	7.8	4	2.5	4	-1E+10	1	-1E+10	1	-1E+10	1	-1E+10	1	-1E+10	1	-1E+10	1
4902642	42	C	08/14/2025	03:38	-131.633	46.156	0	730.50	0	3.9910	0	34.2540	0	27.199	0	723.218	0	7.1	4	2.3	4	-1E+10	1	-1E+10	1	-1E+10	1	-1E+10	1	-1E+10	1	-1E+10	1
4902642	42	C	08/14/2025	03:38	-131.633	46.156	0	750.00	0	3.9300	0	34.2670	0	27.216	0	742.489	0	6.7	4	2.1	4	-1E+10	1	-1E+10	1	-1E+10	1	-1E+10	1	-1E+10	1	-1E+10	1
4902642	42	C	08/14/2025	03:38	-131.633	46.156	0	769.90	0	3.8650	0	34.2820	0	27.235	0	762.154	0	6.2	4	1.9	4	-1E+10	1	-1E+10	1	-1E+10	1	-1E+10	1	-1E+10	1	-1E+10	1
4902642	42	C	08/14/2025	03:38	-131.633	46.156	0	789.90	0	3.8060	0	34.2950	0	27.251	0	781.915	0	5.9	4	1.8	4	-1E+10	1	-1E+10	1	-1E+10	1	-1E+10	1	-1E+10	1	-1E+10	1
4902642	42	C	08/14/2025	03:38	-131.633	46.156	0	809.80	0	3.7790	0	34.3110	0	27.266	0	801.576	0	5.6	4	1.8	4	-1E+10	1	-1E+10	1	-1E+10	1	-1E+10	1	-1E+10	1	-1E+10	1
4902642	42	C	08/14/2025	03:38	-131.633	46.156	0	829.50	0	3.7450	0	34.3210	0	27.278	0	821.037	0	5.5	4	1.7	4	-1E+10	1	-1E+10	1	-1E+10	1	-1E+10	1	-1E+10	1	-1E+10	1
4902642	42	C	08/14/2025	03:38	-131.633	46.156	0	849.30	0	3.7130	0	34.3260	0	27.285	0	840.595	0	5.4	4	1.7	4	-1E+10	1	-1E+10	1	-1E+10	1	-1E+10	1	-1E+10	1	-1E+10	1
4902642	42	C	08/14/2025	03:38	-131.633	46.156	0	869.50	0	3.6740	0	34.3350	0	27.296	0	860.546	0	5.3	4	1.7	4	-1E+10	1	-1E+10	1	-1E+10	1	-1E+10	1	-1E+10	1	-1E+10	1
4902642	42	C	08/14/2025	03:38	-131.633	46.156	0	889.80	0	3.6320	0	34.3440	0	27.308	0	880.595	0	5.4	4	1.7	4	-1E+10	1	-1E+10	1	-1E+10	1	-1E+10	1	-1E+10	1	-1E+10	1
4902642	42	C	08/14/2025	03:38	-131.633	46.156	0	909.40	0	3.6070	0	34.3520	0	27.317	0	899.950	0	5.5	4	1.7	4	-1E+10	1	-1E+10	1	-1E+10	1	-1E+10	1	-1E+10	1	-1E+10	1
4902642	42	C	08/14/2025	03:38	-131.633	46.156	0	929.70	0	3.5810	0	34.3620	0	27.327	0	919.994	0	5.7	4	1.8	4	-1E+10	1	-1E+10	1	-1E+10	1	-1E+10	1	-1E+10	1	-1E+10	1
4902642	42	C	08/14/2025	03:38	-131.633	46.156	0	950.00	0	3.5400	0	34.3710	0	27.339	0	940.037	0	5.9	4	1.9	4	-1E+10	1	-1E+10	1	-1E+10	1	-1E+10	1	-1E+10	1	-1E+10	1
4902642	42	C	08/14/2025	03:38	-131.633	46.156	0	969.90	0	3.5000	0	34.3810	0	27.351	0	959.683	0	6.3	4	2.0	4	-1E+10	1	-1E+10	1	-1E+10	1	-1E+10	1	-1E+10	1	-1E+10	1
4902642	42	C	08/14/2025	03:38	-131.633	46.156	0	989.60	0	3.4640	0	34.3890	0	27.361	0	979.129	0	6.5	4	2.0	4	-1E+10	1	-1E+10	1	-1E+10	1	-1E+10	1	-1E+10	1	-1E+10	1
4902642	42	C	08/14/2025	03:38	-131.633	46.156	0	1009.30	0	3.4190	0	34.3970	0	27.371	0	998.574	0	6.6	4	2.1	4	-1E+10	1	-1E+10	1	-1E+10	1	-1E+10	1	-1E+10	1	-1E+10	1
4902642	42	C	08/14/2025	03:38	-131.633	46.156	0	1028.70	0	3.3930	0	34.4010	0	27.377	0	1017.720	0	6.7	4	2.1	4	-1E+10	1	-1E+10	1	-1E+10	1	-1E+10	1	-1E+10	1	-1E+10	1
4902642	42	C	08/14/2025	03:38	-131.633	46.156	0	1049.60	0	3.3520	0	34.4050	0	27.384	0	1038.346	0	6.9	4	2.2	4	-1E+10	1	-1E+10	1	-1E+10	1	-1E+10	1	-1E+10	1	-1E+10	1
4902642	42	C	08/14/2025	03:38	-131.633	46.156	0	1069.50	0	3.3140	0	34.4120	0	27.394	0	1057.982	0	7.4	4	2.3	4	-1E+10	1	-1E+10	1	-1E+10	1	-1E+10	1	-1E+10	1	-1E+10	1
4902642	42	C	08/14/2025	03:38	-131.633	46.156	0	1089.70	0	3.2670	0	34.4200	0	27.405	0	1077.913	0	7.8	4	2.4	4	-1E+10	1	-1E+10	1	-1E+10	1	-1E+10	1	-1E+10	1	-1E+10	1
4902642	42	C	08/14/2025	03:38	-131.633	46.156	0	1110.00	0	3.2390	0	34.4240	0	27.411	0	1097.940	0	8.3	4	2.6	4	-1E+10	1	-1E+10	1	-1E+10	1	-1E+10	1	-1E+10	1	-1E+10	1
4902642	42	C	08/14/2025	03:38	-131.633	46.156	0	1129.70	0	3.2130	0	34.4280	0	27.416	0	1117.373	0	8.7	4	2.7	4	-1E+10	1	-1E+10	1	-1E+10	1	-1E+10	1	-1E+10	1	-1E+10	1
4902642	42	C	08/14/2025	03:38	-131.633	46.156	0	1149.70	0	3.1760	0	34.4330	0	27.424	0	1137.101	0	9.2	4	2.8	4	-1E+10	1	-1E+10	1	-1E+10	1	-1E+10	1	-1E+10	1	-1E+10	1
4902642	42	C	08/14/2025	03:38	-131.633	46.156	0	1169.80	0	3.1270	0	34.4400	0	27.434	0	1156.926	0	9.7	4	3.0	4	-1E+10	1	-1E+10	1	-1E+10	1	-1E+10	1	-1E+10	1	-1E+10	1
4902642	42	C	08/14/2025	03:38	-131.633	46.156	0	1189.80	0	3.0880	0	34.4450	0	27.442	0	1176.650	0	10.2	4	3.2	4	-1E+10	1	-1E+10	1	-1E+10	1	-1E+10	1	-1E+10	1	-1E+10	1
4902642	42	C	08/14/2025	03:38	-131.633	46.156	0	1209.70	0	3.0590	0	34.4500	0	27.448	0	1196.273	0	10.7	4	3.3	4	-1E+10	1	-1E+10	1	-1E+10	1	-1E+10	1	-1E+10	1	-1E+10	1
4902642	42	C	08/14/2025	03:38	-131.633	46.156	0	1230.60	0	3.0200	0	34.4540	0	27.455	0	1216.881	0	11.3	4	3.5	4	-1E+10	1	-1E+10	1	-1E+10	1	-1E+10	1	-1E+10	1	-1E+10	1
4902642	42	C	08/14/2025	03:38	-131.633	46.156	0	1249.90	0	2.9640	0	34.4600	0	27.465	0	1235.909	0	12.1	4	3.7	4	-1E+10	1	-1E+10	1	-1E+10	1	-1E+10	1	-1E+10	1	-1E+10	1
4902642	42	C	08/14/2025	03:38	-131.633	46.156	0	1269.60	0	2.9140	0	34.4660	0	27.475	0	1255.330	0	12.8	4	3.9	4	-1E+10	1	-1E+10	1	-1E+10	1	-1E+10	1	-1E+10	1	-1E+10	1
4902642	42	C	08/14/2025	03:38	-131.633	46.156	0	1289.70	0	2.8870	0	34.4720	0	27.482	0	1275.143	0	13.5	4	4.1	4	-1E+10	1	-1E+10	1	-1E+10	1	-1E+10	1	-1E+10	1	-1E+10	1
4902642	42	C	08/14/2025	03:38	-131.633	46.156	0	1309.70	0	2.8490	0	34.4760	0	27.489	0	1294.856	0	14.1	4	4.3	4	-1E+10	1	-1E+10	1	-1E+10	1	-1E+10	1	-1E+10	1	-1E+10	1
4902642	42	C	08/14/2025	03:38	-131.633	46.156	0	1329.60	0	2.8180	0	34.4800	0	27.495	0	1314.468	0	14.9	4	4.6	4	-1E+10	1	-1E+10	1	-1E+10	1	-1E+10	1	-1E+10	1	-1E+10	1
4902642	42	C	08/14/2025	03:38	-131.633	46.156	0	1350.40	0	2.7620	0	34.4860	0	27.504	0	1334.966	0	15.9	4	4.9	4	-1E+10	1	-1E+10	1	-1E+10	1	-1E+10	1	-1E+10	1	-1E+10	1
4902642	42	C	08/14/2025	03:38	-131.633	46.156	0	1369.50	0	2.7270	0	34.4910	0	27.512	0	1353.786	0	16.7	4	5.1	4	-1E+10	1	-1E+10	1	-1E+10	1	-1E+10	1	-1E+10	1	-1E+10	1
4902642	42	C	08/14/2025	03:38	-131.633	46.156	0	1389.50	0	2.6970	0	34.4950	0	27.517	0	1373.491	0	17.5	4	5.4	4	-1E+10	1	-1E+10	1	-1E+10	1	-1E+10	1	-1E+10	1	-1E+10	1
4902642	42	C	08/14/2025	03:38	-131.633	46.156	0	1409.90	0	2.6550	0	34.4990	0	27.524	0	1393.589	0	18.5	4	5.7	4	-1E+10	1	-1E+10	1	-1E+10	1	-1E+10	1	-1E+10	1	-1E+10	1
4902642	42	C	08/14/2025	03:38	-131.633	46.156	0	1429.80	0	2.6240	0	34.5030	0	27.530	0	1413.192	0	19.4	4	5.9	4	-1E+10	1	-1E+10	1	-1E+10	1	-1E+10	1	-1E+10	1	-1E+10	1
4902642	42	C	08/14/2025	03:38	-131.633	46.156	0	1450.30	0	2.5770	0	34.5070	0	27.538	0	1433.385	0	20.5	4	6.3	4	-1E+10	1	-1E+10	1	-1E+10	1	-1E+10	1	-1E+10	1	-1E+10	1
4902642	42	C	08/14/2025	03:38	-131.633	46.156	0	1469.50	0	2.5410	0	34.5100	0	27.543	0	1452.295	0	21.3	4	6.5	4	-1E+10	1	-1E+10	1	-1E+10	1	-1E+10	1	-1E+10	1	-1E+10	1
4902642	42	C	08/14/2025	03:38	-131.633	46.156	0	1489.90	0	2.5030	0	34.5130	0	27.549	0	1472.385	0	22.4	4	6.8	4	-1E+10	1	-1E+10	1	-1E+10	1	-1E+10	1	-1E+10	1	-1E+10	1
4902642	42	C	08/14/2025	03:38	-131.633	46.156	0	1510.20	0	2.4710	0	34.5170	0	27.555	0	1492.374	0	23.5	4	7.2	4	-1E+10	1	-1E+10	1	-1E+10	1	-1E+10	1	-1E+10	1	-1E+10	1
4902642	42	C	08/14/2025	03:38	-131.633	46.156	0	1529.90	0	2.4390	0	34.5210	0	27.561	0	1511.771	0	24.7	4	7.5	4	-1E+10	1	-1E+10	1	-1E+10	1	-1E+10	1	-1E+10	1	-1E+10	1
4902642	42	C	08/14/2025	03:38	-131.633	46.156	0	1550.10	0	2.3990	0	34.5260	0	27.568	0	1531.659	0	26.2	4	8.0	4	-1E+10	1	-1E+10	1	-1E+10	1	-1E+10	1	-1E+10	1	-1E+10	1
4902642	42	C	08/14/2025	03:38	-131.633	46.156	0	1570.00	0	2.3680	0	34.5300	0	27.574	0	1551.249	0	27.4	4	8.3	4	-1E+10	1	-1E+10	1	-1E+10	1	-1E+10	1	-1E+10	1	-1E+10	1
4902642	42	C	08/14/2025	03:38	-131.633	46.156	0	1589.80	0	2.3330	0	34.5350	0	27.581	0	1570.739	0	28.7	4	8.7	4	-1E+10	1	-1E+10	1	-1E+10	1	-1E+10	1	-1E+10	1	-1E+10	1
4902642	42	C	08/14/2025	03:38	-131.633	46.156	0	1609.70	0	2.2980	0	34.5390	0	27.587	0	1590.326	0	30.2	4	9.2	4	-1E+10	1	-1E+10	1	-1E+10	1	-1E+10	1	-1E+10	1	-1E+10	1
4902642	42	C	08/14/2025	03:38	-131.633	46.156	0	1629.90	0	2.2710	0	34.5430	0	27.593	0	1610.206	0	31.5	4	9.6	4	-1E+10	1	-1E+10	1	-1E+10	1	-1E+10	1	-1E+10	1	-1E+10	1
4902642	42	C	08/14/2025	03:38	-131.633	46.156	0	1650.10	0	2.2360	0	34.5480	0	27.600	0	1630.084	0	33.2	4	10.1	4	-1E+10	1	-1E+10	1	-1E+10	1	-1E+10	1	-1E+10	1	-1E+10	1
4902642	42	C	08/14/2025	03:38	-131.633	46.156	0	1670.60	0	2.2030	0	34.5530	0	27.606	0	1650.256	0	34.7	4	10.5	4	-1E+10	1	-1E+10	1	-1E+10	1	-1E+10	1	-1E+10	1	-1E+10	1
4902642	42	C	08/14/2025	03:38	-131.633	46.156	0	1689.80	0	2.1810	0	34.5560	0	27.611	0	1669.147	0	35.6	4	10.8	4	-1E+10	1	-1E+10	1	-1E+10	1	-1E+10	1	-1E+10	1	-1E+10	1
4902642	42	C	08/14/2025	03:38	-131.633	46.156	0	1709.60	0	2.1670	0	34.5580	0	27.613	0	1688.626	0	36.4	4	11.0	4	-1E+10	1	-1E+10	1	-1E+10	1	-1E+10	1	-1E+10	1	-1E+10	1
4902642	42	C	08/14/2025	03:38	-131.633	46.156	0	1729.90	0	2.1490	0	34.5600	0	27.617	0	1708.595	0	37.4	4	11.3	4	-1E+10	1	-1E+10	1	-1E+10	1	-1E+10	1	-1E+10	1	-1E+10	1
4902642	42	C	08/14/2025	03:38	-131.633	46.156	0	1750.00	0	2.1290	0	34.5630	0	27.621	0	1728.366	0	38.5	4	11.7	4	-1E+10	1	-1E+10	1	-1E+10	1	-1E+10	1	-1E+10	1	-1E+10	1
4902642	42	C	08/14/2025	03:38	-131.633	46.156	0	1770.10	0	2.1130	0	34.5650	0	27.624	0	1748.135	0	39.4	4	11.9	4	-1E+10	1	-1E+10	1	-1E+10	1	-1E+10	1	-1E+10	1	-1E+10	1
4902642	42	C	08/14/2025	03:38	-131.633	46.156	0	1789.80	0	2.0990	0	34.5670	0	27.626	0	1767.508	0	40.3	4	12.2	4	-1E+10	1	-1E+10	1	-1E+10	1	-1E+10	1	-1E+10	1	-1E+10	1
4902642	42	C	08/14/2025	03:38	-131.633	46.156	0	1810.10	0	2.0780	0	34.5700	0	27.631	0	1787.470	0	41.5	4	12.5	4	-1E+10	1	-1E+10	1	-1E+10	1	-1E+10	1	-1E+10	1	-1E+10	1
4902642	42	C	08/14/2025	03:38	-131.633	46.156	0	1830.00	0	2.0600	0	34.5730	0	27.635	0	1807.037	0	42.6	4	12.9	4	-1E+10	1	-1E+10	1	-1E+10	1	-1E+10	1	-1E+10	1	-1E+10	1
4902642	42	C	08/14/2025	03:38	-131.633	46.156	0	1849.60	0	2.0420	0	34.5760	0	27.638	0	1826.307	0	43.8	4	13.2	4	-1E+10	1	-1E+10	1	-1E+10	1	-1E+10	1	-1E+10	1	-1E+10	1
4902642	42	C	08/14/2025	03:38	-131.633	46.156	0	1869.80	0	2.0300	0	34.5780	0	27.641	0	1846.165	0	44.6	4	13.5	4	-1E+10	1	-1E+10	1	-1E+10	1	-1E+10	1	-1E+10	1	-1E+10	1
4902642	42	C	08/14/2025	03:38	-131.633	46.156	0	1889.90	0	2.0190	0	34.5800	0	27.644	0	1865.922	0	45.4	4	13.7	4	-1E+10	1	-1E+10	1	-1E+10	1	-1E+10	1	-1E+10	1	-1E+10	1
4902642	42	C	08/14/2025	03:38	-131.633	46.156	0	1910.10	0	2.0040	0	34.5830	0	27.647	0	1885.777	0	46.4	4	14.0	4	-1E+10	1	-1E+10	1	-1E+10	1	-1E+10	1	-1E+10	1	-1E+10	1
4902642	42	C	08/14/2025	03:38	-131.633	46.156	0	1930.10	0	1.9940	0	34.5850	0	27.650	0	1905.432	0	47.1	4	14.2	4	-1E+10	1	-1E+10	1	-1E+10	1	-1E+10	1	-1E+10	1	-1E+10	1
4902642	42	C	08/14/2025	03:38	-131.633	46.156	0	1950.00	0	1.9840	0	34.5870	0	27.652	0	1924.988	0	48.1	4	14.5	4	-1E+10	1	-1E+10	1	-1E+10	1	-1E+10	1	-1E+10	1	-1E+10	1
4902642	42	C	08/14/2025	03:38	-131.633	46.156	0	1969.80	0	1.9710	0	34.5890	0	27.655	0	1944.444	0	49.0	4	14.8	4	-1E+10	1	-1E+10	1	-1E+10	1	-1E+10	1	-1E+10	1	-1E+10	1
4902642	42	C	08/14/2025	03:38	-131.633	46.156	0	1990.10	0	1.9580	0	34.5910	0	27.658	0	1964.389	0	49.9	4	15.0	4	-1E+10	1	-1E+10	1	-1E+10	1	-1E+10	1	-1E+10	1	-1E+10	1
4902642	42	C	08/14/2025	03:38	-131.633	46.156	0	2010.20	0	1.9500	0	34.5930	4	27.660	0	1984.136	0	50.7	4	15.3	4	-1E+10	1	-1E+10	1	-1E+10	1	-1E+10	1	-1E+10	1	-1E+10	1
4902642	42	C	08/14/2025	03:38	-131.633	46.156	0	2029.90	0	1.9380	0	34.5950	4	27.663	0	2003.488	0	51.6	4	15.5	4	-1E+10	1	-1E+10	1	-1E+10	1	-1E+10	1	-1E+10	1	-1E+10	1
4902642	42	C	08/14/2025	03:38	-131.633	46.156	0	2049.90	0	1.9270	0	34.5970	4	27.665	0	2023.133	0	52.5	4	15.8	4	-1E+10	1	-1E+10	1	-1E+10	1	-1E+10	1	-1E+10	1	-1E+10	1
4902642	42	C	08/14/2025	03:38	-131.633	46.156	0	2070.30	0	1.9160	0	34.5990	4	27.668	0	2043.169	0	53.3	4	16.0	4	-1E+10	1	-1E+10	1	-1E+10	1	-1E+10	1	-1E+10	1	-1E+10	1
4902642	42	C	08/14/2025	03:38	-131.633	46.156	0	2090.40	0	1.9080	0	34.6000	4	27.669	0	2062.908	0	54.0	4	16.3	4	-1E+10	1	-1E+10	1	-1E+10	1	-1E+10	1	-1E+10	1	-1E+10	1
4902642	42	C	08/14/2025	03:38	-131.633	46.156	0	2110.00	0	1.9000	0	34.6020	4	27.672	0	2082.155	0	54.7	4	16.5	4	-1E+10	1	-1E+10	1	-1E+10	1	-1E+10	1	-1E+10	1	-1E+10	1
4902642	42	C	08/14/2025	03:38	-131.633	46.156	0	2129.90	0	1.8920	0	34.6040	4	27.674	0	2101.695	0	55.5	4	16.7	4	-1E+10	1	-1E+10	1	-1E+10	1	-1E+10	1	-1E+10	1	-1E+10	1
4902642	42	C	08/14/2025	03:38	-131.633	46.156	0	2149.70	0	1.8850	0	34.6050	4	27.676	0	2121.134	0	56.1	4	16.9	4	-1E+10	1	-1E+10	1	-1E+10	1	-1E+10	1	-1E+10	1	-1E+10	1
4902642	42	C	08/14/2025	03:38	-131.633	46.156	0	2169.60	0	1.8800	0	34.6060	4	27.677	0	2140.670	0	56.7	4	17.1	4	-1E+10	1	-1E+10	1	-1E+10	1	-1E+10	1	-1E+10	1	-1E+10	1
4902642	42	C	08/14/2025	03:38	-131.633	46.156	0	2190.00	0	1.8750	0	34.6070	4	27.678	0	2160.695	0	57.5	4	17.3	4	-1E+10	1	-1E+10	1	-1E+10	1	-1E+10	1	-1E+10	1	-1E+10	1
4902642	42	C	08/14/2025	03:38	-131.633	46.156	0	2210.40	0	1.8670	0	34.6090	4	27.680	0	2180.718	0	58.2	4	17.5	4	-1E+10	1	-1E+10	1	-1E+10	1	-1E+10	1	-1E+10	1	-1E+10	1
4902642	42	C	08/14/2025	03:38	-131.633	46.156	0	2229.70	0	1.8600	0	34.6100	4	27.682	0	2199.660	0	58.7	4	17.7	4	-1E+10	1	-1E+10	1	-1E+10	1	-1E+10	1	-1E+10	1	-1E+10	1
4902642	42	C	08/14/2025	03:38	-131.633	46.156	0	2249.90	0	1.8560	0	34.6110	4	27.683	0	2219.483	0	59.3	4	17.8	4	-1E+10	1	-1E+10	1	-1E+10	1	-1E+10	1	-1E+10	1	-1E+10	1
4902642	42	C	08/14/2025	03:38	-131.633	46.156	0	2269.90	0	1.8480	0	34.6120	4	27.685	0	2239.108	0	60.0	4	18.0	4	-1E+10	1	-1E+10	1	-1E+10	1	-1E+10	1	-1E+10	1	-1E+10	1
4902642	42	C	08/14/2025	03:38	-131.633	46.156	0	2289.90	0	1.8460	0	34.6130	4	27.686	0	2258.731	0	60.4	4	18.1	4	-1E+10	1	-1E+10	1	-1E+10	1	-1E+10	1	-1E+10	1	-1E+10	1
4902642	42	C	08/14/2025	03:38	-131.633	46.156	0	2309.90	0	1.8410	0	34.6140	4	27.687	0	2278.353	0	61.0	4	18.3	4	-1E+10	1	-1E+10	1	-1E+10	1	-1E+10	1	-1E+10	1	-1E+10	1
4902642	42	C	08/14/2025	03:38	-131.633	46.156	0	2330.10	0	1.8320	0	34.6150	4	27.689	0	2298.169	0	62.0	4	18.6	4	-1E+10	1	-1E+10	1	-1E+10	1	-1E+10	1	-1E+10	1	-1E+10	1
4902642	42	C	08/14/2025	03:38	-131.633	46.156	0	2350.40	0	1.8240	0	34.6170	4	27.691	0	2318.081	0	62.6	4	18.8	4	-1E+10	1	-1E+10	1	-1E+10	1	-1E+10	1	-1E+10	1	-1E+10	1
4902642	42	C	08/14/2025	03:38	-131.633	46.156	0	2370.50	0	1.8200	0	34.6170	4	27.691	0	2337.795	0	63.2	4	19.0	4	-1E+10	1	-1E+10	1	-1E+10	1	-1E+10	1	-1E+10	1	-1E+10	1
4902642	42	C	08/14/2025	03:38	-131.633	46.156	0	2389.80	0	1.8130	0	34.6190	4	27.694	0	2356.723	0	63.9	4	19.2	4	-1E+10	1	-1E+10	1	-1E+10	1	-1E+10	1	-1E+10	1	-1E+10	1
4902642	42	C	08/14/2025	03:38	-131.633	46.156	0	2409.90	0	1.8060	0	34.6200	4	27.695	0	2376.433	0	64.6	4	19.4	4	-1E+10	1	-1E+10	1	-1E+10	1	-1E+10	1	-1E+10	1	-1E+10	1
4902642	42	C	08/14/2025	03:38	-131.633	46.156	0	2429.90	0	1.7990	0	34.6210	4	27.697	0	2396.044	0	65.4	4	19.6	4	-1E+10	1	-1E+10	1	-1E+10	1	-1E+10	1	-1E+10	1	-1E+10	1
4902642	42	C	08/14/2025	03:38	-131.633	46.156	0	2450.00	0	1.7910	0	34.6220	4	27.698	0	2415.751	0	66.1	4	19.8	4	-1E+10	1	-1E+10	1	-1E+10	1	-1E+10	1	-1E+10	1	-1E+10	1
4902642	42	C	08/14/2025	03:38	-131.633	46.156	0	2470.10	0	1.7860	0	34.6230	4	27.699	0	2435.456	0	66.7	4	20.0	4	-1E+10	1	-1E+10	1	-1E+10	1	-1E+10	1	-1E+10	1	-1E+10	1
4902642	42	C	08/14/2025	03:38	-131.633	46.156	0	2489.90	0	1.7820	0	34.6240	4	27.701	0	2454.865	0	67.3	4	20.2	4	-1E+10	1	-1E+10	1	-1E+10	1	-1E+10	1	-1E+10	1	-1E+10	1
4902642	42	C	08/14/2025	03:38	-131.633	46.156	0	2509.90	0	1.7750	0	34.6250	4	27.702	0	2474.469	0	68.0	4	20.4	4	-1E+10	1	-1E+10	1	-1E+10	1	-1E+10	1	-1E+10	1	-1E+10	1
4902642	42	C	08/14/2025	03:38	-131.633	46.156	0	2530.00	0	1.7690	0	34.6260	4	27.703	0	2494.169	0	68.7	4	20.6	4	-1E+10	1	-1E+10	1	-1E+10	1	-1E+10	1	-1E+10	1	-1E+10	1
4902642	42	C	08/14/2025	03:38	-131.633	46.156	0	2550.10	0	1.7630	0	34.6270	4	27.705	0	2513.867	0	69.3	4	20.8	4	-1E+10	1	-1E+10	1	-1E+10	1	-1E+10	1	-1E+10	1	-1E+10	1
4902642	42	C	08/14/2025	03:38	-131.633	46.156	0	2570.20	0	1.7570	0	34.6280	4	27.706	0	2533.563	0	70.0	4	21.0	4	-1E+10	1	-1E+10	1	-1E+10	1	-1E+10	1	-1E+10	1	-1E+10	1
4902642	42	C	08/14/2025	03:38	-131.633	46.156	0	2590.20	0	1.7510	0	34.6290	4	27.708	0	2553.159	0	70.6	4	21.2	4	-1E+10	1	-1E+10	1	-1E+10	1	-1E+10	1	-1E+10	1	-1E+10	1
4902642	42	C	08/14/2025	03:38	-131.633	46.156	0	2610.50	0	1.7470	0	34.6290	4	27.708	0	2573.048	0	71.0	4	21.3	4	-1E+10	1	-1E+10	1	-1E+10	1	-1E+10	1	-1E+10	1	-1E+10	1
4902642	42	C	08/14/2025	03:38	-131.633	46.156	0	2629.90	0	1.7410	0	34.6300	4	27.709	0	2592.053	0	71.7	4	21.5	4	-1E+10	1	-1E+10	1	-1E+10	1	-1E+10	1	-1E+10	1	-1E+10	1
4902642	42	C	08/14/2025	03:38	-131.633	46.156	0	2650.20	0	1.7330	0	34.6310	4	27.711	0	2611.938	0	72.5	4	21.7	4	-1E+10	1	-1E+10	1	-1E+10	1	-1E+10	1	-1E+10	1	-1E+10	1
4902642	42	C	08/14/2025	03:38	-131.633	46.156	0	2670.30	0	1.7290	0	34.6320	4	27.712	0	2631.625	0	73.1	4	21.9	4	-1E+10	1	-1E+10	1	-1E+10	1	-1E+10	1	-1E+10	1	-1E+10	1
4902642	42	C	08/14/2025	03:38	-131.633	46.156	0	2690.00	0	1.7180	0	34.6320	4	27.713	0	2650.918	0	74.1	4	22.2	4	-1E+10	1	-1E+10	1	-1E+10	1	-1E+10	1	-1E+10	1	-1E+10	1
4902642	42	C	08/14/2025	03:38	-131.633	46.156	0	2710.00	0	1.7130	0	34.6340	4	27.715	0	2670.504	0	74.9	4	22.4	4	-1E+10	1	-1E+10	1	-1E+10	1	-1E+10	1	-1E+10	1	-1E+10	1
4902642	42	C	08/14/2025	03:38	-131.633	46.156	0	2730.60	0	1.7040	0	34.6350	4	27.717	0	2690.676	0	75.8	4	22.7	4	-1E+10	1	-1E+10	1	-1E+10	1	-1E+10	1	-1E+10	1	-1E+10	1
4902642	42	C	08/14/2025	03:38	-131.633	46.156	0	2750.00	0	1.6960	0	34.6360	4	27.718	0	2709.670	0	76.6	4	22.9	4	-1E+10	1	-1E+10	1	-1E+10	1	-1E+10	1	-1E+10	1	-1E+10	1
4902642	42	C	08/14/2025	03:38	-131.633	46.156	0	2770.20	0	1.6900	0	34.6370	4	27.720	0	2729.446	0	77.4	4	23.2	4	-1E+10	1	-1E+10	1	-1E+10	1	-1E+10	1	-1E+10	1	-1E+10	1
4902642	42	C	08/14/2025	03:38	-131.633	46.156	0	2789.70	0	1.6850	0	34.6380	4	27.721	0	2748.535	0	78.0	4	23.3	4	-1E+10	1	-1E+10	1	-1E+10	1	-1E+10	1	-1E+10	1	-1E+10	1
4902642	42	C	08/14/2025	03:38	-131.633	46.156	0	2809.90	0	1.6800	0	34.6390	4	27.722	0	2768.308	0	78.8	4	23.6	4	-1E+10	1	-1E+10	1	-1E+10	1	-1E+10	1	-1E+10	1	-1E+10	1
4902642	42	C	08/14/2025	03:38	-131.633	46.156	0	2830.50	0	1.6710	0	34.6400	4	27.724	0	2788.470	0	79.9	4	23.9	4	-1E+10	1	-1E+10	1	-1E+10	1	-1E+10	1	-1E+10	1	-1E+10	1
4902642	42	C	08/14/2025	03:38	-131.633	46.156	0	2850.10	0	1.6610	0	34.6410	4	27.725	0	2807.652	0	80.8	4	24.2	4	-1E+10	1	-1E+10	1	-1E+10	1	-1E+10	1	-1E+10	1	-1E+10	1
4902642	42	C	08/14/2025	03:38	-131.633	46.156	0	2870.00	0	1.6570	0	34.6420	4	27.727	0	2827.126	0	81.6	4	24.4	4	-1E+10	1	-1E+10	1	-1E+10	1	-1E+10	1	-1E+10	1	-1E+10	1
4902642	42	C	08/14/2025	03:38	-131.633	46.156	0	2890.00	0	1.6500	0	34.6430	4	27.728	0	2846.695	0	82.5	4	24.7	4	-1E+10	1	-1E+10	1	-1E+10	1	-1E+10	1	-1E+10	1	-1E+10	1
4902642	42	C	08/14/2025	03:38	-131.633	46.156	0	2909.90	0	1.6450	0	34.6440	4	27.729	0	2866.165	0	83.1	4	24.9	4	-1E+10	1	-1E+10	1	-1E+10	1	-1E+10	1	-1E+10	1	-1E+10	1
4902642	42	C	08/14/2025	03:38	-131.633	46.156	0	2929.90	0	1.6400	0	34.6450	4	27.731	0	2885.732	0	83.9	4	25.1	4	-1E+10	1	-1E+10	1	-1E+10	1	-1E+10	1	-1E+10	1	-1E+10	1
4902642	42	C	08/14/2025	03:38	-131.633	46.156	0	2949.90	0	1.6370	0	34.6460	4	27.732	0	2905.296	0	84.5	4	25.3	4	-1E+10	1	-1E+10	1	-1E+10	1	-1E+10	1	-1E+10	1	-1E+10	1
4902642	42	C	08/14/2025	03:38	-131.633	46.156	0	2970.00	0	1.6340	0	34.6460	4	27.732	0	2924.957	0	84.9	4	25.4	4	-1E+10	1	-1E+10	1	-1E+10	1	-1E+10	1	-1E+10	1	-1E+10	1
4902642	42	C	08/14/2025	03:38	-131.633	46.156	0	2990.00	0	1.6300	0	34.6470	4	27.733	0	2944.517	0	85.6	4	25.6	4	-1E+10	1	-1E+10	1	-1E+10	1	-1E+10	1	-1E+10	1	-1E+10	1
4902642	42	C	08/14/2025	03:38	-131.633	46.156	0	3009.70	0	1.6270	0	34.6480	4	27.734	0	2963.783	0	86.1	4	25.7	4	-1E+10	1	-1E+10	1	-1E+10	1	-1E+10	1	-1E+10	1	-1E+10	1
4902642	42	C	08/14/2025	03:38	-131.633	46.156	0	3029.80	0	1.6260	0	34.6480	4	27.735	0	2983.438	0	86.4	4	25.8	4	-1E+10	1	-1E+10	1	-1E+10	1	-1E+10	1	-1E+10	1	-1E+10	1
4902642	42	C	08/14/2025	03:38	-131.633	46.156	0	3050.00	0	1.6230	0	34.6490	4	27.736	0	3003.190	0	87.2	4	26.0	4	-1E+10	1	-1E+10	1	-1E+10	1	-1E+10	1	-1E+10	1	-1E+10	1
4902642	42	C	08/14/2025	03:38	-131.633	46.156	0	3070.10	0	1.6190	0	34.6500	4	27.737	0	3022.841	0	87.8	4	26.2	4	-1E+10	1	-1E+10	1	-1E+10	1	-1E+10	1	-1E+10	1	-1E+10	1
4902642	42	C	08/14/2025	03:38	-131.633	46.156	0	3089.90	0	1.6160	0	34.6500	4	27.737	0	3042.198	0	88.2	4	26.3	4	-1E+10	1	-1E+10	1	-1E+10	1	-1E+10	1	-1E+10	1	-1E+10	1
4902642	42	C	08/14/2025	03:38	-131.633	46.156	0	3110.00	0	1.6140	0	34.6510	4	27.738	0	3061.846	0	88.5	4	26.5	4	-1E+10	1	-1E+10	1	-1E+10	1	-1E+10	1	-1E+10	1	-1E+10	1
4902642	42	C	08/14/2025	03:38	-131.633	46.156	0	3129.80	0	1.6120	0	34.6510	4	27.739	0	3081.199	0	89.2	4	26.6	4	-1E+10	1	-1E+10	1	-1E+10	1	-1E+10	1	-1E+10	1	-1E+10	1
4902642	42	C	08/14/2025	03:38	-131.633	46.156	0	3149.80	0	1.6050	0	34.6520	4	27.740	0	3100.746	0	90.5	4	27.0	4	-1E+10	1	-1E+10	1	-1E+10	1	-1E+10	1	-1E+10	1	-1E+10	1
4902642	42	C	08/14/2025	03:38	-131.633	46.156	0	3169.80	0	1.5980	0	34.6530	4	27.742	0	3120.291	0	91.4	4	27.3	4	-1E+10	1	-1E+10	1	-1E+10	1	-1E+10	1	-1E+10	1	-1E+10	1
4902642	42	C	08/14/2025	03:38	-131.633	46.156	0	3181.30	0	1.5940	0	34.6550	4	27.744	0	3131.528	0	91.9	4	27.4	4	-1E+10	1	-1E+10	1	-1E+10	1	-1E+10	1	-1E+10	1	-1E+10	1
4902642	42	C	08/14/2025	03:38	-131.633	46.156	0	3183.20	0	1.5930	0	34.6550	4	27.744	0	3133.385	0	92.0	4	27.5	4	-1E+10	1	-1E+10	1	-1E+10	1	-1E+10	1	-1E+10	1	-1E+10	1
4902642	42	C	08/14/2025	03:38	-131.633	46.156	0	3184.50	0	1.5920	0	34.6550	4	27.744	0	3134.655	0	92.1	4	27.5	4	-1E+10	1	-1E+10	1	-1E+10	1	-1E+10	1	-1E+10	1	-1E+10	1
4902642	42	C	08/14/2025	03:38	-131.633	46.156	0	3186.00	0	1.5920	0	34.6550	4	27.744	0	3136.121	0	92.3	4	27.5	4	-1E+10	1	-1E+10	1	-1E+10	1	-1E+10	1	-1E+10	1	-1E+10	1
4902642	42	C	08/14/2025	03:38	-131.633	46.156	0	3186.90	0	1.5900	0	34.6550	4	27.744	0	3137.000	0	92.3	4	27.6	4	-1E+10	1	-1E+10	1	-1E+10	1	-1E+10	1	-1E+10	1	-1E+10	1
4902642	42	C	08/14/2025	03:38	-131.633	46.156	0	3187.80	0	1.5900	0	34.6560	4	27.745	0	3137.880	0	92.4	4	27.6	4	-1E+10	1	-1E+10	1	-1E+10	1	-1E+10	1	-1E+10	1	-1E+10	1
4902642	42	C	08/14/2025	03:38	-131.633	46.156	0	3188.70	0	1.5890	0	34.6560	4	27.745	0	3138.759	0	92.4	4	27.6	4	-1E+10	1	-1E+10	1	-1E+10	1	-1E+10	1	-1E+10	1	-1E+10	1
4902642	42	C	08/14/2025	03:38	-131.633	46.156	0	3189.60	0	1.5890	0	34.6560	4	27.745	0	3139.639	0	92.5	4	27.6	4	-1E+10	1	-1E+10	1	-1E+10	1	-1E+10	1	-1E+10	1	-1E+10	1
4902642	42	C	08/14/2025	03:38	-131.633	46.156	0	3190.50	0	1.5890	0	34.6560	4	27.745	0	3140.518	0	92.6	4	27.6	4	-1E+10	1	-1E+10	1	-1E+10	1	-1E+10	1	-1E+10	1	-1E+10	1
4902642	42	C	08/14/2025	03:38	-131.633	46.156	0	3191.50	0	1.5890	0	34.6550	4	27.744	0	3141.495	0	92.6	4	27.7	4	-1E+10	1	-1E+10	1	-1E+10	1	-1E+10	1	-1E+10	1	-1E+10	1
4902642	42	C	08/14/2025	03:38	-131.633	46.156	0	3192.30	0	1.5880	0	34.6560	4	27.745	0	3142.277	0	92.7	4	27.7	4	-1E+10	1	-1E+10	1	-1E+10	1	-1E+10	1	-1E+10	1	-1E+10	1
4902642	42	C	08/14/2025	03:38	-131.633	46.156	0	3193.30	0	1.5880	0	34.6560	4	27.745	0	3143.254	0	92.8	4	27.7	4	-1E+10	1	-1E+10	1	-1E+10	1	-1E+10	1	-1E+10	1	-1E+10	1
4902642	42	C	08/14/2025	03:38	-131.633	46.156	0	3194.20	0	1.5880	0	34.6560	4	27.745	0	3144.133	0	92.9	4	27.7	4	-1E+10	1	-1E+10	1	-1E+10	1	-1E+10	1	-1E+10	1	-1E+10	1
4902642	42	C	08/14/2025	03:38	-131.633	46.156	0	3195.50	0	1.5860	0	34.6560	4	27.745	0	3145.404	0	93.0	4	27.8	4	-1E+10	1	-1E+10	1	-1E+10	1	-1E+10	1	-1E+10	1	-1E+10	1
4902642	42	C	08/14/2025	03:38	-131.633	46.156	0	3196.90	0	1.5860	0	34.6560	4	27.745	0	3146.771	0	93.2	4	27.8	4	-1E+10	1	-1E+10	1	-1E+10	1	-1E+10	1	-1E+10	1	-1E+10	1
4902642	42	C	08/14/2025	03:38	-131.633	46.156	0	3197.80	0	1.5850	0	34.6570	4	27.746	0	3147.651	0	93.3	4	27.9	4	-1E+10	1	-1E+10	1	-1E+10	1	-1E+10	1	-1E+10	1	-1E+10	1
4902642	42	C	08/14/2025	03:38	-131.633	46.156	0	3198.70	0	1.5850	0	34.6570	4	27.746	0	3148.530	0	93.4	4	27.9	4	-1E+10	1	-1E+10	1	-1E+10	1	-1E+10	1	-1E+10	1	-1E+10	1
4902642	42	C	08/14/2025	03:38	-131.633	46.156	0	3199.70	0	1.5850	0	34.6560	4	27.745	0	3149.507	0	93.6	4	27.9	4	-1E+10	1	-1E+10	1	-1E+10	1	-1E+10	1	-1E+10	1	-1E+10	1
4902642	42	C	08/14/2025	03:38	-131.633	46.156	0	3200.50	0	1.5850	0	34.6560	4	27.745	0	3150.289	0	93.7	4	28.0	4	-1E+10	1	-1E+10	1	-1E+10	1	-1E+10	1	-1E+10	1	-1E+10	1
4902642	42	C	08/14/2025	03:38	-131.633	46.156	0	3201.50	0	1.5810	0	34.6570	4	27.746	0	3151.266	0	93.8	4	28.0	4	-1E+10	1	-1E+10	1	-1E+10	1	-1E+10	1	-1E+10	1	-1E+10	1
4902642	42	C	08/14/2025	03:38	-131.633	46.156	0	3202.40	0	1.5790	0	34.6570	4	27.746	0	3152.145	0	93.9	4	28.0	4	-1E+10	1	-1E+10	1	-1E+10	1	-1E+10	1	-1E+10	1	-1E+10	1
4902642	42	C	08/14/2025	03:38	-131.633	46.156	0	3203.40	0	1.5780	0	34.6570	4	27.746	0	3153.122	0	94.0	4	28.1	4	-1E+10	1	-1E+10	1	-1E+10	1	-1E+10	1	-1E+10	1	-1E+10	1
4902642	42	C	08/14/2025	03:38	-131.633	46.156	0	3204.30	0	1.5760	0	34.6580	4	27.747	0	3154.002	0	94.1	4	28.1	4	-1E+10	1	-1E+10	1	-1E+10	1	-1E+10	1	-1E+10	1	-1E+10	1
4902642	42	C	08/14/2025	03:38	-131.633	46.156	0	3205.30	0	1.5750	0	34.6580	4	27.747	0	3154.979	0	94.2	4	28.1	4	-1E+10	1	-1E+10	1	-1E+10	1	-1E+10	1	-1E+10	1	-1E+10	1
4902642	42	C	08/14/2025	03:38	-131.633	46.156	0	3206.50	0	1.5740	0	34.6580	4	27.748	0	3156.151	0	94.3	4	28.1	4	-1E+10	1	-1E+10	1	-1E+10	1	-1E+10	1	-1E+10	1	-1E+10	1
4902642	42	C	08/14/2025	03:38	-131.633	46.156	0	3208.00	0	1.5720	0	34.6580	4	27.748	0	3157.617	0	94.4	4	28.2	4	-1E+10	1	-1E+10	1	-1E+10	1	-1E+10	1	-1E+10	1	-1E+10	1
4902642	42	C	08/14/2025	03:38	-131.633	46.156	0	3209.00	0	1.5710	0	34.6580	4	27.748	0	3158.594	0	94.4	4	28.2	4	-1E+10	1	-1E+10	1	-1E+10	1	-1E+10	1	-1E+10	1	-1E+10	1
4902642	42	C	08/14/2025	03:38	-131.633	46.156	0	3209.90	0	1.5720	0	34.6580	4	27.748	0	3159.473	0	94.4	4	28.2	4	-1E+10	1	-1E+10	1	-1E+10	1	-1E+10	1	-1E+10	1	-1E+10	1
4902642	42	C	08/14/2025	03:38	-131.633	46.156	0	3210.90	0	1.5700	0	34.6590	4	27.749	0	3160.450	0	94.4	4	28.2	4	-1E+10	1	-1E+10	1	-1E+10	1	-1E+10	1	-1E+10	1	-1E+10	1
4902642	42	C	08/14/2025	03:38	-131.633	46.156	0	3211.70	0	1.5700	0	34.6590	4	27.749	0	3161.232	0	94.4	4	28.2	4	-1E+10	1	-1E+10	1	-1E+10	1	-1E+10	1	-1E+10	1	-1E+10	1
4902642	42	C	08/14/2025	03:38	-131.633	46.156	0	3212.70	0	1.5690	0	34.6590	4	27.749	0	3162.209	0	94.4	4	28.2	4	-1E+10	1	-1E+10	1	-1E+10	1	-1E+10	1	-1E+10	1	-1E+10	1
4902642	42	C	08/14/2025	03:38	-131.633	46.156	0	3213.60	0	1.5690	0	34.6590	4	27.749	0	3163.088	0	94.4	4	28.2	4	-1E+10	1	-1E+10	1	-1E+10	1	-1E+10	1	-1E+10	1	-1E+10	1
4902642	42	C	08/14/2025	03:38	-131.633	46.156	0	3214.60	0	1.5690	0	34.6590	4	27.749	0	3164.065	0	94.4	4	28.2	4	-1E+10	1	-1E+10	1	-1E+10	1	-1E+10	1	-1E+10	1	-1E+10	1
4902642	42	C	08/14/2025	03:38	-131.633	46.156	0	3215.50	0	1.5690	0	34.6590	4	27.749	0	3164.945	0	94.5	4	28.2	4	-1E+10	1	-1E+10	1	-1E+10	1	-1E+10	1	-1E+10	1	-1E+10	1
4902642	42	C	08/14/2025	03:38	-131.633	46.156	0	3216.40	0	1.5690	0	34.6590	4	27.749	0	3165.824	0	94.4	4	28.2	4	-1E+10	1	-1E+10	1	-1E+10	1	-1E+10	1	-1E+10	1	-1E+10	1
4902642	42	C	08/14/2025	03:38	-131.633	46.156	0	3217.40	0	1.5690	0	34.6590	4	27.749	0	3166.801	0	94.4	4	28.2	4	-1E+10	1	-1E+10	1	-1E+10	1	-1E+10	1	-1E+10	1	-1E+10	1
4902642	42	C	08/14/2025	03:38	-131.633	46.156	0	3218.30	0	1.5690	0	34.6590	4	27.749	0	3167.680	0	94.4	4	28.2	4	-1E+10	1	-1E+10	1	-1E+10	1	-1E+10	1	-1E+10	1	-1E+10	1
4902642	42	C	08/14/2025	03:38	-131.633	46.156	0	3219.10	0	1.5690	0	34.6590	4	27.749	0	3168.462	0	94.4	4	28.2	4	-1E+10	1	-1E+10	1	-1E+10	1	-1E+10	1	-1E+10	1	-1E+10	1
4902642	42	C	08/14/2025	03:38	-131.633	46.156	0	3220.50	0	1.5690	0	34.6590	4	27.749	0	3169.830	0	94.4	4	28.2	4	-1E+10	1	-1E+10	1	-1E+10	1	-1E+10	1	-1E+10	1	-1E+10	1
4902642	42	C	08/14/2025	03:38	-131.633	46.156	0	3222.00	0	1.5700	0	34.6590	4	27.749	0	3171.295	0	94.4	4	28.2	4	-1E+10	1	-1E+10	1	-1E+10	1	-1E+10	1	-1E+10	1	-1E+10	1
4902642	42	C	08/14/2025	03:38	-131.633	46.156	0	3222.80	0	1.5700	0	34.6590	4	27.749	0	3172.077	0	94.4	4	28.2	4	-1E+10	1	-1E+10	1	-1E+10	1	-1E+10	1	-1E+10	1	-1E+10	1
4902642	42	C	08/14/2025	03:38	-131.633	46.156	0	3223.70	0	1.5700	0	34.6590	4	27.749	0	3172.956	0	94.4	4	28.2	4	-1E+10	1	-1E+10	1	-1E+10	1	-1E+10	1	-1E+10	1	-1E+10	1
4902642	42	C	08/14/2025	03:38	-131.633	46.156	0	3224.70	0	1.5700	0	34.6590	4	27.749	0	3173.933	0	94.4	4	28.2	4	-1E+10	1	-1E+10	1	-1E+10	1	-1E+10	1	-1E+10	1	-1E+10	1
4902642	42	C	08/14/2025	03:38	-131.633	46.156	0	3225.70	0	1.5700	0	34.6590	4	27.749	0	3174.910	0	94.3	4	28.1	4	-1E+10	1	-1E+10	1	-1E+10	1	-1E+10	1	-1E+10	1	-1E+10	1
4902642	42	C	08/14/2025	03:38	-131.633	46.156	0	3226.60	0	1.5700	0	34.6590	4	27.749	0	3175.789	0	94.3	4	28.2	4	-1E+10	1	-1E+10	1	-1E+10	1	-1E+10	1	-1E+10	1	-1E+10	1
4902642	42	C	08/14/2025	03:38	-131.633	46.156	0	3227.60	0	1.5710	0	34.6590	4	27.749	0	3176.766	0	94.3	4	28.2	4	-1E+10	1	-1E+10	1	-1E+10	1	-1E+10	1	-1E+10	1	-1E+10	1
4902642	42	C	08/14/2025	03:38	-131.633	46.156	0	3228.50	0	1.5710	0	34.6590	4	27.749	0	3177.645	0	94.2	4	28.1	4	-1E+10	1	-1E+10	1	-1E+10	1	-1E+10	1	-1E+10	1	-1E+10	1
4902642	42	C	08/14/2025	03:38	-131.633	46.156	0	3230.00	0	1.5710	0	34.6590	4	27.749	0	3179.111	0	94.3	4	28.1	4	-1E+10	1	-1E+10	1	-1E+10	1	-1E+10	1	-1E+10	1	-1E+10	1
4902642	42	C	08/14/2025	03:38	-131.633	46.156	0	3230.70	0	1.5710	0	34.6590	4	27.749	0	3179.795	0	94.2	4	28.1	4	-1E+10	1	-1E+10	1	-1E+10	1	-1E+10	1	-1E+10	1	-1E+10	1
4902642	42	C	08/14/2025	03:38	-131.633	46.156	0	3231.50	0	1.5710	0	34.6590	4	27.749	0	3180.576	0	94.2	4	28.1	4	-1E+10	1	-1E+10	1	-1E+10	1	-1E+10	1	-1E+10	1	-1E+10	1
4902642	42	C	08/14/2025	03:38	-131.633	46.156	0	3233.00	0	1.5710	0	34.6590	4	27.749	0	3182.042	0	94.1	4	28.1	4	-1E+10	1	-1E+10	1	-1E+10	1	-1E+10	1	-1E+10	1	-1E+10	1
4902642	42	C	08/14/2025	03:38	-131.633	46.156	0	3233.20	0	1.5710	0	34.6590	4	27.749	0	3182.237	0	94.3	4	28.1	4	-1E+10	1	-1E+10	1	-1E+10	1	-1E+10	1	-1E+10	1	-1E+10	1
4902642	42	C	08/14/2025	03:38	-131.633	46.156	0																										
4902642	44	C	09/03/2025	03:37	-131.747	46.194	0	1.90	0	19.2470	0	32.2980	0	22.896	0	1.884	0	213.5	4	91.7	4	-1E+10	1	-1E+10	1	-1E+10	1	-1E+10	1	-1E+10	1	-1E+10	1
4902642	44	C	09/03/2025	03:37	-131.747	46.194	0	2.00	0	19.2480	0	32.2980	0	22.896	0	1.984	0	213.5	4	91.7	4	-1E+10	1	-1E+10	1	-1E+10	1	-1E+10	1	-1E+10	1	-1E+10	1
4902642	44	C	09/03/2025	03:37	-131.747	46.194	0	2.10	0	19.2475	0	32.2985	0	22.897	0	2.083	0	213.4	4	91.7	4	-1E+10	1	-1E+10	1	-1E+10	1	-1E+10	1	-1E+10	1	-1E+10	1
4902642	44	C	09/03/2025	03:37	-131.747	46.194	0	2.20	0	19.2490	0	32.2970	0	22.895	0	2.182	0	213.5	4	91.7	4	-1E+10	1	-1E+10	1	-1E+10	1	-1E+10	1	-1E+10	1	-1E+10	1
4902642	44	C	09/03/2025	03:37	-131.747	46.194	0	2.40	0	19.2480	0	32.2975	0	22.896	0	2.380	0	213.3	4	91.6	4	-1E+10	1	-1E+10	1	-1E+10	1	-1E+10	1	-1E+10	1	-1E+10	1
4902642	44	C	09/03/2025	03:37	-131.747	46.194	0	2.60	0	19.2485	0	32.2975	0	22.896	0	2.579	0	213.4	4	91.7	4	-1E+10	1	-1E+10	1	-1E+10	1	-1E+10	1	-1E+10	1	-1E+10	1
4902642	44	C	09/03/2025	03:37	-131.747	46.194	0	2.70	0	19.2490	0	32.2970	0	22.895	0	2.678	0	-1e10	1	-1e10	1	-1E+10	1	-1E+10	1	-1E+10	1	-1E+10	1	-1E+10	1	-1E+10	1
4902642	44	C	09/03/2025	03:37	-131.747	46.194	0	3.00	0	19.2530	0	32.2910	0	22.890	0	2.975	0	213.4	4	91.7	4	-1E+10	1	-1E+10	1	-1E+10	1	-1E+10	1	-1E+10	1	-1E+10	1
4902642	44	C	09/03/2025	03:37	-131.747	46.194	0	3.50	0	19.2580	0	32.2900	0	22.887	0	3.471	0	213.4	4	91.7	4	-1E+10	1	-1E+10	1	-1E+10	1	-1E+10	1	-1E+10	1	-1E+10	1
4902642	44	C	09/03/2025	03:37	-131.747	46.194	0	4.50	0	19.2560	0	32.3000	0	22.896	0	4.463	0	213.4	4	91.7	4	-1E+10	1	-1E+10	1	-1E+10	1	-1E+10	1	-1E+10	1	-1E+10	1
4902642	44	C	09/03/2025	03:37	-131.747	46.194	0	5.40	0	19.1430	0	32.2940	0	22.920	0	5.356	0	213.7	4	91.6	4	-1E+10	1	-1E+10	1	-1E+10	1	-1E+10	1	-1E+10	1	-1E+10	1
4902642	44	C	09/03/2025	03:37	-131.747	46.194	0	6.40	0	19.1350	0	32.2930	0	22.921	0	6.347	0	214.0	4	91.7	4	-1E+10	1	-1E+10	1	-1E+10	1	-1E+10	1	-1E+10	1	-1E+10	1
4902642	44	C	09/03/2025	03:37	-131.747	46.194	0	7.80	0	19.1180	0	32.2930	0	22.925	0	7.736	0	214.2	4	91.8	4	-1E+10	1	-1E+10	1	-1E+10	1	-1E+10	1	-1E+10	1	-1E+10	1
4902642	44	C	09/03/2025	03:37	-131.747	46.194	0	8.50	0	19.1190	0	32.2940	0	22.926	0	8.430	0	214.2	4	91.8	4	-1E+10	1	-1E+10	1	-1E+10	1	-1E+10	1	-1E+10	1	-1E+10	1
4902642	44	C	09/03/2025	03:37	-131.747	46.194	0	9.40	0	19.1130	0	32.2930	0	22.927	0	9.322	0	214.3	4	91.8	4	-1E+10	1	-1E+10	1	-1E+10	1	-1E+10	1	-1E+10	1	-1E+10	1
4902642	44	C	09/03/2025	03:37	-131.747	46.194	0	14.50	0	19.0440	0	32.2900	0	22.942	0	14.380	0	216.1	4	92.5	4	-1E+10	1	-1E+10	1	-1E+10	1	-1E+10	1	-1E+10	1	-1E+10	1
4902642	44	C	09/03/2025	03:37	-131.747	46.194	0	24.70	0	18.3160	0	32.2960	0	23.127	0	24.495	0	224.3	4	94.7	4	-1E+10	1	-1E+10	1	-1E+10	1	-1E+10	1	-1E+10	1	-1E+10	1
4902642	44	C	09/03/2025	03:37	-131.747	46.194	0	34.50	0	16.9060	0	32.3040	0	23.470	0	34.213	0	241.1	4	99.1	4	-1E+10	1	-1E+10	1	-1E+10	1	-1E+10	1	-1E+10	1	-1E+10	1
4902642	44	C	09/03/2025	03:37	-131.747	46.194	0	44.50	0	14.2340	0	32.3190	0	24.070	0	44.129	0	258.7	4	100.9	4	-1E+10	1	-1E+10	1	-1E+10	1	-1E+10	1	-1E+10	1	-1E+10	1
4902642	44	C	09/03/2025	03:37	-131.747	46.194	0	54.80	0	12.3300	0	32.3320	0	24.458	0	54.342	0	255.1	4	95.7	4	-1E+10	1	-1E+10	1	-1E+10	1	-1E+10	1	-1E+10	1	-1E+10	1
4902642	44	C	09/03/2025	03:37	-131.747	46.194	0	65.20	0	11.2860	0	32.3430	0	24.658	0	64.653	0	247.7	4	91.0	4	-1E+10	1	-1E+10	1	-1E+10	1	-1E+10	1	-1E+10	1	-1E+10	1
4902642	44	C	09/03/2025	03:37	-131.747	46.194	0	74.90	0	10.1670	0	32.3380	0	24.848	0	74.270	0	246.2	4	88.3	4	-1E+10	1	-1E+10	1	-1E+10	1	-1E+10	1	-1E+10	1	-1E+10	1
4902642	44	C	09/03/2025	03:37	-131.747	46.194	0	84.70	0	9.4100	0	32.3510	0	24.982	0	83.986	0	242.6	4	85.6	4	-1E+10	1	-1E+10	1	-1E+10	1	-1E+10	1	-1E+10	1	-1E+10	1
4902642	44	C	09/03/2025	03:37	-131.747	46.194	0	94.90	0	8.9170	0	32.3690	0	25.073	0	94.098	0	232.6	4	81.2	4	-1E+10	1	-1E+10	1	-1E+10	1	-1E+10	1	-1E+10	1	-1E+10	1
4902642	44	C	09/03/2025	03:37	-131.747	46.194	0	104.90	0	8.6490	0	32.4970	0	25.214	0	104.011	0	215.2	4	74.7	4	-1E+10	1	-1E+10	1	-1E+10	1	-1E+10	1	-1E+10	1	-1E+10	1
4902642	44	C	09/03/2025	03:37	-131.747	46.194	0	115.00	0	8.4100	0	32.7210	0	25.426	0	114.022	0	195.9	4	67.8	4	-1E+10	1	-1E+10	1	-1E+10	1	-1E+10	1	-1E+10	1	-1E+10	1
4902642	44	C	09/03/2025	03:37	-131.747	46.194	0	124.90	0	8.0700	0	32.9830	0	25.682	0	123.835	0	179.4	4	61.7	4	-1E+10	1	-1E+10	1	-1E+10	1	-1E+10	1	-1E+10	1	-1E+10	1
4902642	44	C	09/03/2025	03:37	-131.747	46.194	0	135.00	0	7.9100	0	33.2160	0	25.888	0	133.846	0	167.4	4	57.5	4	-1E+10	1	-1E+10	1	-1E+10	1	-1E+10	1	-1E+10	1	-1E+10	1
4902642	44	C	09/03/2025	03:37	-131.747	46.194	0	144.60	0	7.7190	0	33.4430	0	26.094	0	143.360	0	157.3	4	53.9	4	-1E+10	1	-1E+10	1	-1E+10	1	-1E+10	1	-1E+10	1	-1E+10	1
4902642	44	C	09/03/2025	03:37	-131.747	46.194	0	155.00	0	7.5540	0	33.6000	0	26.241	0	153.667	0	142.8	4	48.8	4	-1E+10	1	-1E+10	1	-1E+10	1	-1E+10	1	-1E+10	1	-1E+10	1
4902642	44	C	09/03/2025	03:37	-131.747	46.194	0	165.40	0	7.4380	0	33.6580	0	26.303	0	163.974	0	129.9	4	44.3	4	-1E+10	1	-1E+10	1	-1E+10	1	-1E+10	1	-1E+10	1	-1E+10	1
4902642	44	C	09/03/2025	03:37	-131.747	46.194	0	174.90	0	7.3570	0	33.7150	0	26.360	0	173.388	0	122.1	4	41.6	4	-1E+10	1	-1E+10	1	-1E+10	1	-1E+10	1	-1E+10	1	-1E+10	1
4902642	44	C	09/03/2025	03:37	-131.747	46.194	0	184.70	0	7.1860	0	33.7790	0	26.434	0	183.099	0	119.9	4	40.7	4	-1E+10	1	-1E+10	1	-1E+10	1	-1E+10	1	-1E+10	1	-1E+10	1
4902642	44	C	09/03/2025	03:37	-131.747	46.194	0	194.40	0	6.9430	0	33.7830	0	26.471	0	192.710	0	122.7	4	41.4	4	-1E+10	1	-1E+10	1	-1E+10	1	-1E+10	1	-1E+10	1	-1E+10	1
4902642	44	C	09/03/2025	03:37	-131.747	46.194	0	209.40	0	6.7170	0	33.8010	0	26.515	0	207.572	0	117.4	4	39.4	4	-1E+10	1	-1E+10	1	-1E+10	1	-1E+10	1	-1E+10	1	-1E+10	1
4902642	44	C	09/03/2025	03:37	-131.747	46.194	0	229.50	0	6.4760	0	33.8250	0	26.566	0	227.486	0	107.1	4	35.8	4	-1E+10	1	-1E+10	1	-1E+10	1	-1E+10	1	-1E+10	1	-1E+10	1
4902642	44	C	09/03/2025	03:37	-131.747	46.194	0	249.40	0	6.2060	0	33.8510	0	26.622	0	247.199	0	94.2	4	31.3	4	-1E+10	1	-1E+10	1	-1E+10	1	-1E+10	1	-1E+10	1	-1E+10	1
4902642	44	C	09/03/2025	03:37	-131.747	46.194	0	269.50	0	6.0800	0	33.8730	0	26.655	0	267.109	0	81.2	4	26.9	4	-1E+10	1	-1E+10	1	-1E+10	1	-1E+10	1	-1E+10	1	-1E+10	1
4902642	44	C	09/03/2025	03:37	-131.747	46.194	0	290.60	0	6.0190	0	33.9230	0	26.703	0	288.007	0	66.6	4	22.0	4	-1E+10	1	-1E+10	1	-1E+10	1	-1E+10	1	-1E+10	1	-1E+10	1
4902642	44	C	09/03/2025	03:37	-131.747	46.194	0	309.80	0	5.8450	0	33.9390	0	26.737	0	307.021	0	60.5	4	19.9	4	-1E+10	1	-1E+10	1	-1E+10	1	-1E+10	1	-1E+10	1	-1E+10	1
4902642	44	C	09/03/2025	03:37	-131.747	46.194	0	329.80	0	5.6260	0	33.9540	0	26.776	0	326.826	0	55.3	4	18.1	4	-1E+10	1	-1E+10	1	-1E+10	1	-1E+10	1	-1E+10	1	-1E+10	1
4902642	44	C	09/03/2025	03:37	-131.747	46.194	0	350.60	0	5.5090	0	33.9660	0	26.799	0	347.421	0	50.8	4	16.6	4	-1E+10	1	-1E+10	1	-1E+10	1	-1E+10	1	-1E+10	1	-1E+10	1
4902642	44	C	09/03/2025	03:37	-131.747	46.194	0	369.60	0	5.4030	0	33.9850	0	26.827	0	366.232	0	45.1	4	14.7	4	-1E+10	1	-1E+10	1	-1E+10	1	-1E+10	1	-1E+10	1	-1E+10	1
4902642	44	C	09/03/2025	03:37	-131.747	46.194	0	389.50	0	5.3210	0	34.0060	0	26.854	0	385.932	0	39.9	4	13.0	4	-1E+10	1	-1E+10	1	-1E+10	1	-1E+10	1	-1E+10	1	-1E+10	1
4902642	44	C	09/03/2025	03:37	-131.747	46.194	0	409.70	0	5.2190	0	34.0260	0	26.882	0	405.927	0	35.9	4	11.7	4	-1E+10	1	-1E+10	1	-1E+10	1	-1E+10	1	-1E+10	1	-1E+10	1
4902642	44	C	09/03/2025	03:37	-131.747	46.194	0	429.90	0	5.1330	0	34.0350	0	26.899	0	425.921	0	33.2	4	10.8	4	-1E+10	1	-1E+10	1	-1E+10	1	-1E+10	1	-1E+10	1	-1E+10	1
4902642	44	C	09/03/2025	03:37	-131.747	46.194	0	449.80	0	5.0580	0	34.0530	0	26.922	0	445.615	0	29.4	4	9.5	4	-1E+10	1	-1E+10	1	-1E+10	1	-1E+10	1	-1E+10	1	-1E+10	1
4902642	44	C	09/03/2025	03:37	-131.747	46.194	0	469.60	0	4.9590	0	34.0700	0	26.947	0	465.209	0	26.2	4	8.5	4	-1E+10	1	-1E+10	1	-1E+10	1	-1E+10	1	-1E+10	1	-1E+10	1
4902642	44	C	09/03/2025	03:37	-131.747	46.194	0	489.60	0	4.8710	0	34.0820	0	26.967	0	484.998	0	23.7	4	7.6	4	-1E+10	1	-1E+10	1	-1E+10	1	-1E+10	1	-1E+10	1	-1E+10	1
4902642	44	C	09/03/2025	03:37	-131.747	46.194	0	509.60	0	4.7920	0	34.0990	0	26.989	0	504.786	0	21.4	4	6.9	4	-1E+10	1	-1E+10	1	-1E+10	1	-1E+10	1	-1E+10	1	-1E+10	1
4902642	44	C	09/03/2025	03:37	-131.747	46.194	0	530.20	0	4.6820	0	34.1100	0	27.010	0	525.165	0	19.4	4	6.2	4	-1E+10	1	-1E+10	1	-1E+10	1	-1E+10	1	-1E+10	1	-1E+10	1
4902642	44	C	09/03/2025	03:37	-131.747	46.194	0	549.70	0	4.6130	0	34.1260	0	27.030	0	544.455	0	16.9	4	5.4	4	-1E+10	1	-1E+10	1	-1E+10	1	-1E+10	1	-1E+10	1	-1E+10	1
4902642	44	C	09/03/2025	03:37	-131.747	46.194	0	570.00	0	4.5530	0	34.1460	0	27.053	0	564.534	0	14.5	4	4.7	4	-1E+10	1	-1E+10	1	-1E+10	1	-1E+10	1	-1E+10	1	-1E+10	1
4902642	44	C	09/03/2025	03:37	-131.747	46.194	0	590.00	0	4.5020	0	34.1620	0	27.071	0	584.314	0	12.8	4	4.1	4	-1E+10	1	-1E+10	1	-1E+10	1	-1E+10	1	-1E+10	1	-1E+10	1
4902642	44	C	09/03/2025	03:37	-131.747	46.194	0	609.80	0	4.4500	0	34.1780	0	27.090	0	603.894	0	11.3	4	3.6	4	-1E+10	1	-1E+10	1	-1E+10	1	-1E+10	1	-1E+10	1	-1E+10	1
4902642	44	C	09/03/2025	03:37	-131.747	46.194	0	629.90	0	4.3950	0	34.1940	0	27.109	0	623.769	0	10.1	4	3.2	4	-1E+10	1	-1E+10	1	-1E+10	1	-1E+10	1	-1E+10	1	-1E+10	1
4902642	44	C	09/03/2025	03:37	-131.747	46.194	0	649.80	0	4.3480	0	34.2080	0	27.125	0	643.445	0	9.1	4	2.9	4	-1E+10	1	-1E+10	1	-1E+10	1	-1E+10	1	-1E+10	1	-1E+10	1
4902642	44	C	09/03/2025	03:37	-131.747	46.194	0	670.50	0	4.3010	0	34.2200	0	27.140	0	663.910	0	8.4	4	2.7	4	-1E+10	1	-1E+10	1	-1E+10	1	-1E+10	1	-1E+10	1	-1E+10	1
4902642	44	C	09/03/2025	03:37	-131.747	46.194	0	689.90	0	4.2530	0	34.2320	0	27.154	0	683.087	0	7.7	4	2.5	4	-1E+10	1	-1E+10	1	-1E+10	1	-1E+10	1	-1E+10	1	-1E+10	1
4902642	44	C	09/03/2025	03:37	-131.747	46.194	0	709.80	0	4.2060	0	34.2460	0	27.171	0	702.757	0	7.1	4	2.3	4	-1E+10	1	-1E+10	1	-1E+10	1	-1E+10	1	-1E+10	1	-1E+10	1
4902642	44	C	09/03/2025	03:37	-131.747	46.194	0	729.90	0	4.1540	0	34.2590	0	27.186	0	722.623	0	6.6	4	2.1	4	-1E+10	1	-1E+10	1	-1E+10	1	-1E+10	1	-1E+10	1	-1E+10	1
4902642	44	C	09/03/2025	03:37	-131.747	46.194	0	749.90	0	4.1000	0	34.2720	0	27.203	0	742.388	0	6.2	4	2.0	4	-1E+10	1	-1E+10	1	-1E+10	1	-1E+10	1	-1E+10	1	-1E+10	1
4902642	44	C	09/03/2025	03:37	-131.747	46.194	0	769.80	0	4.0530	0	34.2840	0	27.217	0	762.052	0	5.9	4	1.9	4	-1E+10	1	-1E+10	1	-1E+10	1	-1E+10	1	-1E+10	1	-1E+10	1
4902642	44	C	09/03/2025	03:37	-131.747	46.194	0	789.70	0	4.0070	0	34.2980	0	27.233	0	781.715	0	5.6	4	1.8	4	-1E+10	1	-1E+10	1	-1E+10	1	-1E+10	1	-1E+10	1	-1E+10	1
4902642	44	C	09/03/2025	03:37	-131.747	46.194	0	810.00	0	3.9580	0	34.3110	0	27.249	0	801.770	0	5.4	4	1.7	4	-1E+10	1	-1E+10	1	-1E+10	1	-1E+10	1	-1E+10	1	-1E+10	1
4902642	44	C	09/03/2025	03:37	-131.747	46.194	0	829.50	0	3.8910	0	34.3200	0	27.263	0	821.034	0	5.4	4	1.7	4	-1E+10	1	-1E+10	1	-1E+10	1	-1E+10	1	-1E+10	1	-1E+10	1
4902642	44	C	09/03/2025	03:37	-131.747	46.194	0	849.70	0	3.8180	0	34.3280	0	27.276	0	840.987	0	5.4	4	1.7	4	-1E+10	1	-1E+10	1	-1E+10	1	-1E+10	1	-1E+10	1	-1E+10	1
4902642	44	C	09/03/2025	03:37	-131.747	46.194	0	869.60	0	3.7780	0	34.3430	0	27.293	0	860.642	0	5.4	4	1.7	4	-1E+10	1	-1E+10	1	-1E+10	1	-1E+10	1	-1E+10	1	-1E+10	1
4902642	44	C	09/03/2025	03:37	-131.747	46.194	0	889.90	0	3.6770	0	34.3450	0	27.304	0	880.690	0	5.4	4	1.7	4	-1E+10	1	-1E+10	1	-1E+10	1	-1E+10	1	-1E+10	1	-1E+10	1
4902642	44	C	09/03/2025	03:37	-131.747	46.194	0	909.70	0	3.6390	0	34.3510	0	27.313	0	900.243	0	5.5	4	1.7	4	-1E+10	1	-1E+10	1	-1E+10	1	-1E+10	1	-1E+10	1	-1E+10	1
4902642	44	C	09/03/2025	03:37	-131.747	46.194	0	930.00	0	3.6100	0	34.3590	0	27.322	0	920.287	0	5.6	4	1.8	4	-1E+10	1	-1E+10	1	-1E+10	1	-1E+10	1	-1E+10	1	-1E+10	1
4902642	44	C	09/03/2025	03:37	-131.747	46.194	0	949.80	0	3.5710	0	34.3660	0	27.332	0	939.836	0	5.7	4	1.8	4	-1E+10	1	-1E+10	1	-1E+10	1	-1E+10	1	-1E+10	1	-1E+10	1
4902642	44	C	09/03/2025	03:37	-131.747	46.194	0	969.50	0	3.5370	0	34.3730	0	27.341	0	959.284	0	5.9	4	1.9	4	-1E+10	1	-1E+10	1	-1E+10	1	-1E+10	1	-1E+10	1	-1E+10	1
4902642	44	C	09/03/2025	03:37	-131.747	46.194	0	989.70	0	3.4920	0	34.3830	0	27.353	0	979.224	0	6.2	4	1.9	4	-1E+10	1	-1E+10	1	-1E+10	1	-1E+10	1	-1E+10	1	-1E+10	1
4902642	44	C	09/03/2025	03:37	-131.747	46.194	0	1009.90	0	3.4410	0	34.3920	0	27.365	0	999.162	0	6.5	4	2.0	4	-1E+10	1	-1E+10	1	-1E+10	1	-1E+10	1	-1E+10	1	-1E+10	1
4902642	44	C	09/03/2025	03:37	-131.747	46.194	0	1029.70	0	3.4070	0	34.3980	0	27.373	0	1018.704	0	6.7	4	2.1	4	-1E+10	1	-1E+10	1	-1E+10	1	-1E+10	1	-1E+10	1	-1E+10	1
4902642	44	C	09/03/2025	03:37	-131.747	46.194	0	1049.40	0	3.3750	0	34.4020	0	27.380	0	1038.145	0	6.9	4	2.1	4	-1E+10	1	-1E+10	1	-1E+10	1	-1E+10	1	-1E+10	1	-1E+10	1
4902642	44	C	09/03/2025	03:37	-131.747	46.194	0	1069.70	0	3.3370	0	34.4090	0	27.389	0	1058.176	0	7.4	4	2.3	4	-1E+10	1	-1E+10	1	-1E+10	1	-1E+10	1	-1E+10	1	-1E+10	1
4902642	44	C	09/03/2025	03:37	-131.747	46.194	0	1089.70	0	3.2970	0	34.4140	0	27.397	0	1077.909	0	7.6	4	2.3	4	-1E+10	1	-1E+10	1	-1E+10	1	-1E+10	1	-1E+10	1	-1E+10	1
4902642	44	C	09/03/2025	03:37	-131.747	46.194	0	1110.10	0	3.2250	0	34.4150	0	27.405	0	1098.035	0	7.5	4	2.3	4	-1E+10	1	-1E+10	1	-1E+10	1	-1E+10	1	-1E+10	1	-1E+10	1
4902642	44	C	09/03/2025	03:37	-131.747	46.194	0	1129.70	0	3.1800	0	34.4230	0	27.415	0	1117.370	0	8.2	4	2.5	4	-1E+10	1	-1E+10	1	-1E+10	1	-1E+10	1	-1E+10	1	-1E+10	1
4902642	44	C	09/03/2025	03:37	-131.747	46.194	0	1149.70	0	3.1340	0	34.4340	0	27.428	0	1137.097	0	8.9	4	2.8	4	-1E+10	1	-1E+10	1	-1E+10	1	-1E+10	1	-1E+10	1	-1E+10	1
4902642	44	C	09/03/2025	03:37	-131.747	46.194	0	1169.80	0	3.0940	0	34.4410	0	27.438	0	1156.922	0	9.7	4	3.0	4	-1E+10	1	-1E+10	1	-1E+10	1	-1E+10	1	-1E+10	1	-1E+10	1
4902642	44	C	09/03/2025	03:37	-131.747	46.194	0	1189.60	0	3.0450	0	34.4470	0	27.447	0	1176.448	0	9.9	4	3.1	4	-1E+10	1	-1E+10	1	-1E+10	1	-1E+10	1	-1E+10	1	-1E+10	1
4902642	44	C	09/03/2025	03:37	-131.747	46.194	0	1210.20	0	3.0010	0	34.4520	0	27.455	0	1196.762	0	10.8	4	3.3	4	-1E+10	1	-1E+10	1	-1E+10	1	-1E+10	1	-1E+10	1	-1E+10	1
4902642	44	C	09/03/2025	03:37	-131.747	46.194	0	1229.60	0	2.9750	0	34.4590	0	27.463	0	1215.890	0	11.6	4	3.6	4	-1E+10	1	-1E+10	1	-1E+10	1	-1E+10	1	-1E+10	1	-1E+10	1
4902642	44	C	09/03/2025	03:37	-131.747	46.194	0	1249.70	0	2.9290	0	34.4640	0	27.471	0	1235.707	0	12.2	4	3.7	4	-1E+10	1	-1E+10	1	-1E+10	1	-1E+10	1	-1E+10	1	-1E+10	1
4902642	44	C	09/03/2025	03:37	-131.747	46.194	0	1269.70	0	2.8950	0	34.4680	0	27.478	0	1255.424	0	12.6	4	3.9	4	-1E+10	1	-1E+10	1	-1E+10	1	-1E+10	1	-1E+10	1	-1E+10	1
4902642	44	C	09/03/2025	03:37	-131.747	46.194	0	1290.00	0	2.8590	0	34.4710	0	27.484	0	1275.434	0	12.8	4	3.9	4	-1E+10	1	-1E+10	1	-1E+10	1	-1E+10	1	-1E+10	1	-1E+10	1
4902642	44	C	09/03/2025	03:37	-131.747	46.194	0	1309.80	0	2.8330	0	34.4730	0	27.488	0	1294.950	0	13.1	4	4.0	4	-1E+10	1	-1E+10	1	-1E+10	1	-1E+10	1	-1E+10	1	-1E+10	1
4902642	44	C	09/03/2025	03:37	-131.747	46.194	0	1330.10	0	2.8020	0	34.4770	0	27.494	0	1314.956	0	14.1	4	4.3	4	-1E+10	1	-1E+10	1	-1E+10	1	-1E+10	1	-1E+10	1	-1E+10	1
4902642	44	C	09/03/2025	03:37	-131.747	46.194	0	1349.90	0	2.7690	0	34.4830	0	27.501	0	1334.468	0	15.0	4	4.6	4	-1E+10	1	-1E+10	1	-1E+10	1	-1E+10	1	-1E+10	1	-1E+10	1
4902642	44	C	09/03/2025	03:37	-131.747	46.194	0	1370.00	0	2.7330	0	34.4870	0	27.508	0	1354.274	0	16.1	4	4.9	4	-1E+10	1	-1E+10	1	-1E+10	1	-1E+10	1	-1E+10	1	-1E+10	1
4902642	44	C	09/03/2025	03:37	-131.747	46.194	0	1390.00	0	2.6980	0	34.4910	0	27.514	0	1373.979	0	16.9	4	5.2	4	-1E+10	1	-1E+10	1	-1E+10	1	-1E+10	1	-1E+10	1	-1E+10	1
4902642	44	C	09/03/2025	03:37	-131.747	46.194	0	1409.70	0	2.6730	0	34.4950	0	27.520	0	1393.387	0	17.6	4	5.4	4	-1E+10	1	-1E+10	1	-1E+10	1	-1E+10	1	-1E+10	1	-1E+10	1
4902642	44	C	09/03/2025	03:37	-131.747	46.194	0	1429.90	0	2.6500	0	34.4980	0	27.524	0	1413.286	0	18.4	4	5.6	4	-1E+10	1	-1E+10	1	-1E+10	1	-1E+10	1	-1E+10	1	-1E+10	1
4902642	44	C	09/03/2025	03:37	-131.747	46.194	0	1450.00	0	2.6100	0	34.5030	0	27.532	0	1433.084	0	19.6	4	6.0	4	-1E+10	1	-1E+10	1	-1E+10	1	-1E+10	1	-1E+10	1	-1E+10	1
4902642	44	C	09/03/2025	03:37	-131.747	46.194	0	1470.10	0	2.5660	0	34.5080	0	27.539	0	1452.880	0	20.7	4	6.3	4	-1E+10	1	-1E+10	1	-1E+10	1	-1E+10	1	-1E+10	1	-1E+10	1
4902642	44	C	09/03/2025	03:37	-131.747	46.194	0	1489.70	0	2.5310	0	34.5110	0	27.545	0	1472.182	0	21.7	4	6.6	4	-1E+10	1	-1E+10	1	-1E+10	1	-1E+10	1	-1E+10	1	-1E+10	1
4902642	44	C	09/03/2025	03:37	-131.747	46.194	0	1509.80	0	2.4980	0	34.5160	0	27.552	0	1491.975	0	22.7	4	6.9	4	-1E+10	1	-1E+10	1	-1E+10	1	-1E+10	1	-1E+10	1	-1E+10	1
4902642	44	C	09/03/2025	03:37	-131.747	46.194	0	1529.70	0	2.4660	0	34.5210	0	27.559	0	1511.569	0	23.9	4	7.3	4	-1E+10	1	-1E+10	1	-1E+10	1	-1E+10	1	-1E+10	1	-1E+10	1
4902642	44	C	09/03/2025	03:37	-131.747	46.194	0	1549.70	0	2.4200	0	34.5250	0	27.566	0	1531.260	0	25.3	4	7.7	4	-1E+10	1	-1E+10	1	-1E+10	1	-1E+10	1	-1E+10	1	-1E+10	1
4902642	44	C	09/03/2025	03:37	-131.747	46.194	0	1570.10	0	2.3850	0	34.5300	0	27.573	0	1551.342	0	26.5	4	8.1	4	-1E+10	1	-1E+10	1	-1E+10	1	-1E+10	1	-1E+10	1	-1E+10	1
4902642	44	C	09/03/2025	03:37	-131.747	46.194	0	1590.00	0	2.3590	0	34.5330	0	27.577	0	1570.931	0	27.4	4	8.3	4	-1E+10	1	-1E+10	1	-1E+10	1	-1E+10	1	-1E+10	1	-1E+10	1
4902642	44	C	09/03/2025	03:37	-131.747	46.194	0	1609.80	0	2.3400	0	34.5350	0	27.581	0	1590.419	0	28.3	4	8.6	4	-1E+10	1	-1E+10	1	-1E+10	1	-1E+10	1	-1E+10	1	-1E+10	1
4902642	44	C	09/03/2025	03:37	-131.747	46.194	0	1629.90	0	2.3170	0	34.5380	0	27.585	0	1610.201	0	29.3	4	8.9	4	-1E+10	1	-1E+10	1	-1E+10	1	-1E+10	1	-1E+10	1	-1E+10	1
4902642	44	C	09/03/2025	03:37	-131.747	46.194	0	1650.00	0	2.2940	0	34.5410	0	27.589	0	1629.980	0	30.3	4	9.2	4	-1E+10	1	-1E+10	1	-1E+10	1	-1E+10	1	-1E+10	1	-1E+10	1
4902642	44	C	09/03/2025	03:37	-131.747	46.194	0	1669.60	0	2.2720	0	34.5440	0	27.594	0	1649.266	0	31.2	4	9.5	4	-1E+10	1	-1E+10	1	-1E+10	1	-1E+10	1	-1E+10	1	-1E+10	1
4902642	44	C	09/03/2025	03:37	-131.747	46.194	0	1690.30	0	2.2440	0	34.5470	0	27.598	0	1669.633	0	32.4	4	9.8	4	-1E+10	1	-1E+10	1	-1E+10	1	-1E+10	1	-1E+10	1	-1E+10	1
4902642	44	C	09/03/2025	03:37	-131.747	46.194	0	1709.70	0	2.2210	0	34.5510	0	27.604	0	1688.718	0	33.8	4	10.3	4	-1E+10	1	-1E+10	1	-1E+10	1	-1E+10	1	-1E+10	1	-1E+10	1
4902642	44	C	09/03/2025	03:37	-131.747	46.194	0	1729.70	0	2.1950	0	34.5550	0	27.609	0	1708.392	0	35.0	4	10.6	4	-1E+10	1	-1E+10	1	-1E+10	1	-1E+10	1	-1E+10	1	-1E+10	1
4902642	44	C	09/03/2025	03:37	-131.747	46.194	0	1749.80	0	2.1630	0	34.5580	0	27.614	0	1728.163	0	36.3	4	11.0	4	-1E+10	1	-1E+10	1	-1E+10	1	-1E+10	1	-1E+10	1	-1E+10	1
4902642	44	C	09/03/2025	03:37	-131.747	46.194	0	1770.20	0	2.1390	0	34.5620	0	27.619	0	1748.227	0	37.9	4	11.5	4	-1E+10	1	-1E+10	1	-1E+10	1	-1E+10	1	-1E+10	1	-1E+10	1
4902642	44	C	09/03/2025	03:37	-131.747	46.194	0	1789.40	0	2.1210	0	34.5650	0	27.623	0	1767.109	0	39.1	4	11.8	4	-1E+10	1	-1E+10	1	-1E+10	1	-1E+10	1	-1E+10	1	-1E+10	1
4902642	44	C	09/03/2025	03:37	-131.747	46.194	0	1809.50	0	2.1060	0	34.5680	0	27.627	0	1786.874	0	40.0	4	12.1	4	-1E+10	1	-1E+10	1	-1E+10	1	-1E+10	1	-1E+10	1	-1E+10	1
4902642	44	C	09/03/2025	03:37	-131.747	46.194	0	1829.20	0	2.0880	0	34.5700	0	27.630	0	1806.244	0	41.2	4	12.4	4	-1E+10	1	-1E+10	1	-1E+10	1	-1E+10	1	-1E+10	1	-1E+10	1
4902642	44	C	09/03/2025	03:37	-131.747	46.194	0	1849.80	0	2.0720	0	34.5730	0	27.634	0	1826.497	0	42.3	4	12.8	4	-1E+10	1	-1E+10	1	-1E+10	1	-1E+10	1	-1E+10	1	-1E+10	1
4902642	44	C	09/03/2025	03:37	-131.747	46.194	0	1869.40	0	2.0560	0	34.5750	0	27.637	0	1845.765	0	43.3	4	13.1	4	-1E+10	1	-1E+10	1	-1E+10	1	-1E+10	1	-1E+10	1	-1E+10	1
4902642	44	C	09/03/2025	03:37	-131.747	46.194	0	1889.60	0	2.0400	0	34.5780	0	27.640	0	1865.621	0	44.3	4	13.4	4	-1E+10	1	-1E+10	1	-1E+10	1	-1E+10	1	-1E+10	1	-1E+10	1
4902642	44	C	09/03/2025	03:37	-131.747	46.194	0	1909.60	0	2.0200	0	34.5810	0	27.645	0	1885.278	0	45.6	4	13.7	4	-1E+10	1	-1E+10	1	-1E+10	1	-1E+10	1	-1E+10	1	-1E+10	1
4902642	44	C	09/03/2025	03:37	-131.747	46.194	0	1929.50	0	2.0040	0	34.5830	0	27.648	0	1904.836	0	46.5	4	14.0	4	-1E+10	1	-1E+10	1	-1E+10	1	-1E+10	1	-1E+10	1	-1E+10	1
4902642	44	C	09/03/2025	03:37	-131.747	46.194	0	1949.70	0	1.9910	0	34.5850	0	27.650	0	1924.687	0	47.5	4	14.3	4	-1E+10	1	-1E+10	1	-1E+10	1	-1E+10	1	-1E+10	1	-1E+10	1
4902642	44	C	09/03/2025	03:37	-131.747	46.194	0	1969.90	0	1.9760	0	34.5880	0	27.654	0	1944.535	0	48.5	4	14.6	4	-1E+10	1	-1E+10	1	-1E+10	1	-1E+10	1	-1E+10	1	-1E+10	1
4902642	44	C	09/03/2025	03:37	-131.747	46.194	0	1989.70	0	1.9630	0	34.5900	0	27.657	0	1963.989	0	49.4	4	14.9	4	-1E+10	1	-1E+10	1	-1E+10	1	-1E+10	1	-1E+10	1	-1E+10	1
4902642	44	C	09/03/2025	03:37	-131.747	46.194	0	2010.40	0	1.9520	0	34.5920	4	27.659	0	1984.325	0	50.2	4	15.1	4	-1E+10	1	-1E+10	1	-1E+10	1	-1E+10	1	-1E+10	1	-1E+10	1
4902642	44	C	09/03/2025	03:37	-131.747	46.194	0	2029.80	0	1.9430	0	34.5940	4	27.662	0	2003.383	0	51.1	4	15.4	4	-1E+10	1	-1E+10	1	-1E+10	1	-1E+10	1	-1E+10	1	-1E+10	1
4902642	44	C	09/03/2025	03:37	-131.747	46.194	0	2049.60	0	1.9300	0	34.5960	4	27.664	0	2022.831	0	52.2	4	15.7	4	-1E+10	1	-1E+10	1	-1E+10	1	-1E+10	1	-1E+10	1	-1E+10	1
4902642	44	C	09/03/2025	03:37	-131.747	46.194	0	2069.50	0	1.9160	0	34.5980	4	27.667	0	2042.376	0	53.2	4	16.0	4	-1E+10	1	-1E+10	1	-1E+10	1	-1E+10	1	-1E+10	1	-1E+10	1
4902642	44	C	09/03/2025	03:37	-131.747	46.194	0	2090.10	0	1.9070	0	34.6000	4	27.670	0	2062.607	0	53.9	4	16.2	4	-1E+10	1	-1E+10	1	-1E+10	1	-1E+10	1	-1E+10	1	-1E+10	1
4902642	44	C	09/03/2025	03:37	-131.747	46.194	0	2110.50	0	1.9010	0	34.6010	4	27.671	0	2082.639	0	54.6	4	16.4	4	-1E+10	1	-1E+10	1	-1E+10	1	-1E+10	1	-1E+10	1	-1E+10	1
4902642	44	C	09/03/2025	03:37	-131.747	46.194	0	2129.90	0	1.8900	0	34.6030	4	27.673	0	2101.687	0	55.5	4	16.7	4	-1E+10	1	-1E+10	1	-1E+10	1	-1E+10	1	-1E+10	1	-1E+10	1
4902642	44	C	09/03/2025	03:37	-131.747	46.194	0	2149.90	0	1.8830	0	34.6050	4	27.676	0	2121.323	0	56.1	4	16.9	4	-1E+10	1	-1E+10	1	-1E+10	1	-1E+10	1	-1E+10	1	-1E+10	1
4902642	44	C	09/03/2025	03:37	-131.747	46.194	0	2170.40	0	1.8770	0	34.6060	4	27.677	0	2141.448	0	56.7	4	17.0	4	-1E+10	1	-1E+10	1	-1E+10	1	-1E+10	1	-1E+10	1	-1E+10	1
4902642	44	C	09/03/2025	03:37	-131.747	46.194	0	2190.00	0	1.8690	0	34.6070	4	27.679	0	2160.688	0	57.4	4	17.3	4	-1E+10	1	-1E+10	1	-1E+10	1	-1E+10	1	-1E+10	1	-1E+10	1
4902642	44	C	09/03/2025	03:37	-131.747	46.194	0	2210.20	0	1.8620	0	34.6090	4	27.681	0	2180.514	0	58.1	4	17.5	4	-1E+10	1	-1E+10	1	-1E+10	1	-1E+10	1	-1E+10	1	-1E+10	1
4902642	44	C	09/03/2025	03:37	-131.747	46.194	0	2229.70	0	1.8530	0	34.6100	4	27.682	0	2199.652	0	58.9	4	17.7	4	-1E+10	1	-1E+10	1	-1E+10	1	-1E+10	1	-1E+10	1	-1E+10	1
4902642	44	C	09/03/2025	03:37	-131.747	46.194	0	2249.90	0	1.8450	0	34.6120	4	27.685	0	2219.475	0	59.8	4	18.0	4	-1E+10	1	-1E+10	1	-1E+10	1	-1E+10	1	-1E+10	1	-1E+10	1
4902642	44	C	09/03/2025	03:37	-131.747	46.194	0	2270.10	0	1.8360	0	34.6130	4	27.686	0	2239.297	0	60.6	4	18.2	4	-1E+10	1	-1E+10	1	-1E+10	1	-1E+10	1	-1E+10	1	-1E+10	1
4902642	44	C	09/03/2025	03:37	-131.747	46.194	0	2289.90	0	1.8300	0	34.6150	4	27.689	0	2258.723	0	61.2	4	18.4	4	-1E+10	1	-1E+10	1	-1E+10	1	-1E+10	1	-1E+10	1	-1E+10	1
4902642	44	C	09/03/2025	03:37	-131.747	46.194	0	2310.80	0	1.8220	0	34.6160	4	27.690	0	2279.228	0	61.8	4	18.6	4	-1E+10	1	-1E+10	1	-1E+10	1	-1E+10	1	-1E+10	1	-1E+10	1
4902642	44	C	09/03/2025	03:37	-131.747	46.194	0	2330.20	0	1.8170	0	34.6170	4	27.691	0	2298.259	0	62.6	4	18.8	4	-1E+10	1	-1E+10	1	-1E+10	1	-1E+10	1	-1E+10	1	-1E+10	1
4902642	44	C	09/03/2025	03:37	-131.747	46.194	0	2350.20	0	1.8100	0	34.6180	4	27.693	0	2317.877	0	63.4	4	19.0	4	-1E+10	1	-1E+10	1	-1E+10	1	-1E+10	1	-1E+10	1	-1E+10	1
4902642	44	C	09/03/2025	03:37	-131.747	46.194	0	2370.20	0	1.8020	0	34.6190	4	27.694	0	2337.493	0	64.2	4	19.3	4	-1E+10	1	-1E+10	1	-1E+10	1	-1E+10	1	-1E+10	1	-1E+10	1
4902642	44	C	09/03/2025	03:37	-131.747	46.194	0	2389.90	0	1.7930	0	34.6200	4	27.696	0	2356.812	0	65.0	4	19.5	4	-1E+10	1	-1E+10	1	-1E+10	1	-1E+10	1	-1E+10	1	-1E+10	1
4902642	44	C	09/03/2025	03:37	-131.747	46.194	0	2409.70	0	1.7860	0	34.6210	4	27.697	0	2376.229	0	65.6	4	19.7	4	-1E+10	1	-1E+10	1	-1E+10	1	-1E+10	1	-1E+10	1	-1E+10	1
4902642	44	C	09/03/2025	03:37	-131.747	46.194	0	2429.60	0	1.7800	0	34.6220	4	27.699	0	2395.742	0	66.1	4	19.8	4	-1E+10	1	-1E+10	1	-1E+10	1	-1E+10	1	-1E+10	1	-1E+10	1
4902642	44	C	09/03/2025	03:37	-131.747	46.194	0	2450.20	0	1.7750	0	34.6230	4	27.700	0	2415.939	0	67.0	4	20.1	4	-1E+10	1	-1E+10	1	-1E+10	1	-1E+10	1	-1E+10	1	-1E+10	1
4902642	44	C	09/03/2025	03:37	-131.747	46.194	0	2470.10	0	1.7690	0	34.6240	4	27.701	0	2435.448	0	67.7	4	20.3	4	-1E+10	1	-1E+10	1	-1E+10	1	-1E+10	1	-1E+10	1	-1E+10	1
4902642	44	C	09/03/2025	03:37	-131.747	46.194	0	2490.10	0	1.7640	0	34.6250	4	27.703	0	2455.053	0	68.2	4	20.5	4	-1E+10	1	-1E+10	1	-1E+10	1	-1E+10	1	-1E+10	1	-1E+10	1
4902642	44	C	09/03/2025	03:37	-131.747	46.194	0	2509.90	0	1.7600	0	34.6260	4	27.704	0	2474.460	0	68.8	4	20.6	4	-1E+10	1	-1E+10	1	-1E+10	1	-1E+10	1	-1E+10	1	-1E+10	1
4902642	44	C	09/03/2025	03:37	-131.747	46.194	0	2530.00	0	1.7500	0	34.6270	4	27.706	0	2494.160	0	69.7	4	20.9	4	-1E+10	1	-1E+10	1	-1E+10	1	-1E+10	1	-1E+10	1	-1E+10	1
4902642	44	C	09/03/2025	03:37	-131.747	46.194	0	2550.40	0	1.7440	0	34.6280	4	27.707	0	2514.152	0	70.4	4	21.1	4	-1E+10	1	-1E+10	1	-1E+10	1	-1E+10	1	-1E+10	1	-1E+10	1
4902642	44	C	09/03/2025	03:37	-131.747	46.194	0	2570.30	0	1.7370	0	34.6290	4	27.708	0	2533.652	0	71.4	4	21.4	4	-1E+10	1	-1E+10	1	-1E+10	1	-1E+10	1	-1E+10	1	-1E+10	1
4902642	44	C	09/03/2025	03:37	-131.747	46.194	0	2590.20	0	1.7260	0	34.6300	4	27.710	0	2553.150	0	72.3	4	21.7	4	-1E+10	1	-1E+10	1	-1E+10	1	-1E+10	1	-1E+10	1	-1E+10	1
4902642	44	C	09/03/2025	03:37	-131.747	46.194	0	2610.00	0	1.7230	0	34.6310	4	27.711	0	2572.549	0	72.8	4	21.8	4	-1E+10	1	-1E+10	1	-1E+10	1	-1E+10	1	-1E+10	1	-1E+10	1
4902642	44	C	09/03/2025	03:37	-131.747	46.194	0	2630.00	0	1.7160	0	34.6320	4	27.713	0	2592.142	0	73.6	4	22.0	4	-1E+10	1	-1E+10	1	-1E+10	1	-1E+10	1	-1E+10	1	-1E+10	1
4902642	44	C	09/03/2025	03:37	-131.747	46.194	0	2649.80	0	1.7100	0	34.6330	4	27.714	0	2611.537	0	74.2	4	22.2	4	-1E+10	1	-1E+10	1	-1E+10	1	-1E+10	1	-1E+10	1	-1E+10	1
4902642	44	C	09/03/2025	03:37	-131.747	46.194	0	2669.90	0	1.7050	0	34.6330	4	27.715	0	2631.224	0	74.9	4	22.4	4	-1E+10	1	-1E+10	1	-1E+10	1	-1E+10	1	-1E+10	1	-1E+10	1
4902642	44	C	09/03/2025	03:37	-131.747	46.194	0	2690.30	0	1.7010	0	34.6340	4	27.716	0	2651.203	0	75.6	4	22.6	4	-1E+10	1	-1E+10	1	-1E+10	1	-1E+10	1	-1E+10	1	-1E+10	1
4902642	44	C	09/03/2025	03:37	-131.747	46.194	0	2709.90	0	1.6950	0	34.6350	4	27.717	0	2670.397	0	76.2	4	22.8	4	-1E+10	1	-1E+10	1	-1E+10	1	-1E+10	1	-1E+10	1	-1E+10	1
4902642	44	C	09/03/2025	03:37	-131.747	46.194	0	2730.00	0	1.6920	0	34.6360	4	27.718	0	2690.079	0	76.8	4	23.0	4	-1E+10	1	-1E+10	1	-1E+10	1	-1E+10	1	-1E+10	1	-1E+10	1
4902642	44	C	09/03/2025	03:37	-131.747	46.194	0	2750.60	0	1.6860	0	34.6360	4	27.719	0	2710.248	0	77.5	4	23.2	4	-1E+10	1	-1E+10	1	-1E+10	1	-1E+10	1	-1E+10	1	-1E+10	1
4902642	44	C	09/03/2025	03:37	-131.747	46.194	0	2769.90	0	1.6820	0	34.6370	4	27.720	0	2729.143	0	77.9	4	23.3	4	-1E+10	1	-1E+10	1	-1E+10	1	-1E+10	1	-1E+10	1	-1E+10	1
4902642	44	C	09/03/2025	03:37	-131.747	46.194	0	2789.70	0	1.6800	0	34.6380	4	27.721	0	2748.526	0	78.4	4	23.5	4	-1E+10	1	-1E+10	1	-1E+10	1	-1E+10	1	-1E+10	1	-1E+10	1
4902642	44	C	09/03/2025	03:37	-131.747	46.194	0	2809.80	0	1.6750	0	34.6380	4	27.722	0	2768.200	0	79.1	4	23.7	4	-1E+10	1	-1E+10	1	-1E+10	1	-1E+10	1	-1E+10	1	-1E+10	1
4902642	44	C	09/03/2025	03:37	-131.747	46.194	0	2829.80	0	1.6700	0	34.6390	4	27.723	0	2787.775	0	79.9	4	23.9	4	-1E+10	1	-1E+10	1	-1E+10	1	-1E+10	1	-1E+10	1	-1E+10	1
4902642	44	C	09/03/2025	03:37	-131.747	46.194	0	2850.10	0	1.6640	0	34.6400	4	27.724	0	2807.642	0	80.5	4	24.1	4	-1E+10	1	-1E+10	1	-1E+10	1	-1E+10	1	-1E+10	1	-1E+10	1
4902642	44	C	09/03/2025	03:37	-131.747	46.194	0	2870.50	0	1.6620	0	34.6410	4	27.725	0	2827.605	0	81.0	4	24.2	4	-1E+10	1	-1E+10	1	-1E+10	1	-1E+10	1	-1E+10	1	-1E+10	1
4902642	44	C	09/03/2025	03:37	-131.747	46.194	0	2889.90	0	1.6590	0	34.6410	4	27.726	0	2846.587	0	81.6	4	24.4	4	-1E+10	1	-1E+10	1	-1E+10	1	-1E+10	1	-1E+10	1	-1E+10	1
4902642	44	C	09/03/2025	03:37	-131.747	46.194	0	2909.90	0	1.6530	0	34.6420	4	27.727	0	2866.155	0	82.4	4	24.6	4	-1E+10	1	-1E+10	1	-1E+10	1	-1E+10	1	-1E+10	1	-1E+10	1
4902642	44	C	09/03/2025	03:37	-131.747	46.194	0	2930.00	0	1.6490	0	34.6430	4	27.728	0	2885.819	0	82.9	4	24.8	4	-1E+10	1	-1E+10	1	-1E+10	1	-1E+10	1	-1E+10	1	-1E+10	1
4902642	44	C	09/03/2025	03:37	-131.747	46.194	0	2949.80	0	1.6460	0	34.6440	4	27.729	0	2905.188	0	83.5	4	25.0	4	-1E+10	1	-1E+10	1	-1E+10	1	-1E+10	1	-1E+10	1	-1E+10	1
4902642	44	C	09/03/2025	03:37	-131.747	46.194	0	2969.90	0	1.6420	0	34.6450	4	27.731	0	2924.848	0	84.1	4	25.2	4	-1E+10	1	-1E+10	1	-1E+10	1	-1E+10	1	-1E+10	1	-1E+10	1
4902642	44	C	09/03/2025	03:37	-131.747	46.194	0	2990.00	0	1.6370	0	34.6450	4	27.731	0	2944.507	0	85.1	4	25.4	4	-1E+10	1	-1E+10	1	-1E+10	1	-1E+10	1	-1E+10	1	-1E+10	1
4902642	44	C	09/03/2025	03:37	-131.747	46.194	0	3010.50	0	1.6300	0	34.6460	4	27.733	0	2964.555	0	85.9	4	25.7	4	-1E+10	1	-1E+10	1	-1E+10	1	-1E+10	1	-1E+10	1	-1E+10	1
4902642	44	C	09/03/2025	03:37	-131.747	46.194	0	3030.20	0	1.6260	0	34.6470	4	27.734	0	2983.819	0	86.7	4	25.9	4	-1E+10	1	-1E+10	1	-1E+10	1	-1E+10	1	-1E+10	1	-1E+10	1
4902642	44	C	09/03/2025	03:37	-131.747	46.194	0	3049.90	0	1.6200	0	34.6480	4	27.735	0	3003.081	0	87.4	4	26.1	4	-1E+10	1	-1E+10	1	-1E+10	1	-1E+10	1	-1E+10	1	-1E+10	1
4902642	44	C	09/03/2025	03:37	-131.747	46.194	0	3070.00	0	1.6170	0	34.6490	4	27.736	0	3022.733	0	88.1	4	26.3	4	-1E+10	1	-1E+10	1	-1E+10	1	-1E+10	1	-1E+10	1	-1E+10	1
4902642	44	C	09/03/2025	03:37	-131.747	46.194	0	3089.90	0	1.6120	0	34.6500	4	27.738	0	3042.187	0	89.0	4	26.6	4	-1E+10	1	-1E+10	1	-1E+10	1	-1E+10	1	-1E+10	1	-1E+10	1
4902642	44	C	09/03/2025	03:37	-131.747	46.194	0	3110.10	0	1.6060	0	34.6510	4	27.739	0	3061.933	0	89.8	4	26.8	4	-1E+10	1	-1E+10	1	-1E+10	1	-1E+10	1	-1E+10	1	-1E+10	1
4902642	44	C	09/03/2025	03:37	-131.747	46.194	0	3130.30	0	1.6000	0	34.6520	4	27.740	0	3081.677	0	90.7	4	27.1	4	-1E+10	1	-1E+10	1	-1E+10	1	-1E+10	1	-1E+10	1	-1E+10	1
4902642	44	C	09/03/2025	03:37	-131.747	46.194	0	3150.20	0	1.5950	0	34.6530	4	27.742	0	3101.126	0	91.5	4	27.3	4	-1E+10	1	-1E+10	1	-1E+10	1	-1E+10	1	-1E+10	1	-1E+10	1
4902642	44	C	09/03/2025	03:37	-131.747	46.194	0	3169.90	0	1.5900	0	34.6540	4	27.743	0	3120.377	0	92.2	4	27.5	4	-1E+10	1	-1E+10	1	-1E+10	1	-1E+10	1	-1E+10	1	-1E+10	1
4902642	44	C	09/03/2025	03:37	-131.747	46.194	0	3189.90	0	1.5860	0	34.6550	4	27.744	0	3139.921	0	92.7	4	27.7	4	-1E+10	1	-1E+10	1	-1E+10	1	-1E+10	1	-1E+10	1	-1E+10	1
4902642	44	C	09/03/2025	03:37	-131.747	46.194	0	3210.00	0	1.5850	0	34.6560	4	27.745	0	3159.560	0	92.9	4	27.7	4	-1E+10	1	-1E+10	1	-1E+10	1	-1E+10	1	-1E+10	1	-1E+10	1
4902642	44	C	09/03/2025	03:37	-131.747	46.194	0	3224.30	0	1.5850	0	34.6560	4	27.745	0	3173.531	0	93.0	4	27.8	4	-1E+10	1	-1E+10	1	-1E+10	1	-1E+10	1	-1E+10	1	-1E+10	1
4902642	44	C	09/03/2025	03:37	-131.747	46.194	0	3229.00	0	1.5850	0	34.6560	4	27.745	0	3178.123	0	93.0	4	27.8	4	-1E+10	1	-1E+10	1	-1E+10	1	-1E+10	1	-1E+10	1	-1E+10	1
4902642	44	C	09/03/2025	03:37	-131.747	46.194	0	3229.90	0	1.5850	0	34.6560	4	27.745	0	3179.002	0	93.0	4	27.8	4	-1E+10	1	-1E+10	1	-1E+10	1	-1E+10	1	-1E+10	1	-1E+10	1
4902642	44	C	09/03/2025	03:37	-131.747	46.194	0	3230.80	0	1.5850	0	34.6570	4	27.746	0	3179.881	0	93.0	4	27.8	4	-1E+10	1	-1E+10	1	-1E+10	1	-1E+10	1	-1E+10	1	-1E+10	1
4902642	44	C	09/03/2025	03:37	-131.747	46.194	0	3231.80	0	1.5850	0	34.6570	4	27.746	0	3180.858	0	93.0	4	27.8	4	-1E+10	1	-1E+10	1	-1E+10	1	-1E+10	1	-1E+10	1	-1E+10	1
4902642	44	C	09/03/2025	03:37	-131.747	46.194	0	3232.70	0	1.5850	0	34.6570	4	27.746	0	3181.737	0	93.0	4	27.8	4	-1E+10	1	-1E+10	1	-1E+10	1	-1E+10	1	-1E+10	1	-1E+10	1
4902642	44	C	09/03/2025	03:37	-131.747	46.194	0	3233.60	0	1.5850	0	34.6570	4	27.746	0	3182.617	0	93.0	4	27.8	4	-1E+10	1	-1E+10	1	-1E+10	1	-1E+10	1	-1E+10	1	-1E+10	1
4902642	44	C	09/03/2025	03:37	-131.747	46.194	0	3234.40	0	1.5850	0	34.6570	4	27.746	0	3183.398	0	93.0	4	27.8	4	-1E+10	1	-1E+10	1	-1E+10	1	-1E+10	1	-1E+10	1	-1E+10	1
4902642	44	C	09/03/2025	03:37	-131.747	46.194	0	3235.40	0	1.5850	0	34.6570	4	27.746	0	3184.375	0	93.0	4	27.8	4	-1E+10	1	-1E+10	1	-1E+10	1	-1E+10	1	-1E+10	1	-1E+10	1
4902642	44	C	09/03/2025	03:37	-131.747	46.194	0	3236.40	0	1.5850	0	34.6560	4	27.745	0	3185.352	0	93.0	4	27.8	4	-1E+10	1	-1E+10	1	-1E+10	1	-1E+10	1	-1E+10	1	-1E+10	1
4902642	44	C	09/03/2025	03:37	-131.747	46.194	0	3237.30	0	1.5850	0	34.6570	4	27.746	0	3186.231	0	93.0	4	27.8	4	-1E+10	1	-1E+10	1	-1E+10	1	-1E+10	1	-1E+10	1	-1E+10	1
4902642	44	C	09/03/2025	03:37	-131.747	46.194	0	3238.20	0	1.5850	0	34.6570	4	27.746	0	3187.110	0	93.0	4	27.8	4	-1E+10	1	-1E+10	1	-1E+10	1	-1E+10	1	-1E+10	1	-1E+10	1
4902642	44	C	09/03/2025	03:37	-131.747	46.194	0	3239.20	0	1.5850	0	34.6570	4	27.746	0	3188.087	0	93.0	4	27.8	4	-1E+10	1	-1E+10	1	-1E+10	1	-1E+10	1	-1E+10	1	-1E+10	1
4902642	44	C	09/03/2025	03:37	-131.747	46.194	0	3240.20	0	1.5850	0	34.6570	4	27.746	0	3189.064	0	93.0	4	27.8	4	-1E+10	1	-1E+10	1	-1E+10	1	-1E+10	1	-1E+10	1	-1E+10	1
4902642	44	C	09/03/2025	03:37	-131.747	46.194	0	3241.50	0	1.5840	0	34.6570	4	27.746	0	3190.334	0	93.1	4	27.8	4	-1E+10	1	-1E+10	1	-1E+10	1	-1E+10	1	-1E+10	1	-1E+10	1
4902642	44	C	09/03/2025	03:37	-131.747	46.194	0	3243.00	0	1.5840	0	34.6570	4	27.746	0	3191.799	0	93.1	4	27.8	4	-1E+10	1	-1E+10	1	-1E+10	1	-1E+10	1	-1E+10	1	-1E+10	1
4902642	44	C	09/03/2025	03:37	-131.747	46.194	0	3243.90	0	1.5840	0	34.6570	4	27.746	0	3192.679	0	93.1	4	27.8	4	-1E+10	1	-1E+10	1	-1E+10	1	-1E+10	1	-1E+10	1	-1E+10	1
4902642	44	C	09/03/2025	03:37	-131.747	46.194	0	3244.90	0	1.5830	0	34.6570	4	27.746	0	3193.655	0	93.1	4	27.8	4	-1E+10	1	-1E+10	1	-1E+10	1	-1E+10	1	-1E+10	1	-1E+10	1
4902642	44	C	09/03/2025	03:37	-131.747	46.194	0	3245.80	0	1.5830	0	34.6570	4	27.746	0	3194.535	0	93.1	4	27.8	4	-1E+10	1	-1E+10	1	-1E+10	1	-1E+10	1	-1E+10	1	-1E+10	1
4902642	44	C	09/03/2025	03:37	-131.747	46.194	0	3246.80	0	1.5840	0	34.6570	4	27.746	0	3195.512	0	93.1	4	27.8	4	-1E+10	1	-1E+10	1	-1E+10	1	-1E+10	1	-1E+10	1	-1E+10	1
4902642	44	C	09/03/2025	03:37	-131.747	46.194	0	3247.90	0	1.5840	0	34.6570	4	27.746	0	3196.586	0	93.1	4	27.8	4	-1E+10	1	-1E+10	1	-1E+10	1	-1E+10	1	-1E+10	1	-1E+10	1
4902642	44	C	09/03/2025	03:37	-131.747	46.194	0	3248.70	0	1.5830	0	34.6570	4	27.746	0	3197.368	0	93.1	4	27.8	4	-1E+10	1	-1E+10	1	-1E+10	1	-1E+10	1	-1E+10	1	-1E+10	1
4902642	44	C	09/03/2025	03:37	-131.747	46.194	0	3249.70	0	1.5840	0	34.6570	4	27.746	0	3198.344	0	93.2	4	27.8	4	-1E+10	1	-1E+10	1	-1E+10	1	-1E+10	1	-1E+10	1	-1E+10	1
4902642	44	C	09/03/2025	03:37	-131.747	46.194	0	3250.70	0	1.5840	0	34.6570	4	27.746	0	3199.321	0	93.2	4	27.8	4	-1E+10	1	-1E+10	1	-1E+10	1	-1E+10	1	-1E+10	1	-1E+10	1
4902642	44	C	09/03/2025	03:37	-131.747	46.194	0	3251.60	0	1.5840	0	34.6570	4	27.746	0	3200.201	0	93.2	4	27.8	4	-1E+10	1	-1E+10	1	-1E+10	1	-1E+10	1	-1E+10	1	-1E+10	1
4902642	44	C	09/03/2025	03:37	-131.747	46.194	0	3252.60	0	1.5830	0	34.6570	4	27.746	0	3201.177	0	93.2	4	27.8	4	-1E+10	1	-1E+10	1	-1E+10	1	-1E+10	1	-1E+10	1	-1E+10	1
4902642	44	C	09/03/2025	03:37	-131.747	46.194	0	3253.60	0	1.5830	0	34.6570	4	27.746	0	3202.154	0	93.3	4	27.8	4	-1E+10	1	-1E+10	1	-1E+10	1	-1E+10	1	-1E+10	1	-1E+10	1
4902642	44	C	09/03/2025	03:37	-131.747	46.194	0	3254.50	0	1.5830	0	34.6570	4	27.746	0	3203.033	0	93.3	4	27.9	4	-1E+10	1	-1E+10	1	-1E+10	1	-1E+10	1	-1E+10	1	-1E+10	1
4902642	44	C	09/03/2025	03:37	-131.747	46.194	0	3255.50	0	1.5830	0	34.6570	4	27.746	0	3204.010	0	93.4	4	27.9	4	-1E+10	1	-1E+10	1	-1E+10	1	-1E+10	1	-1E+10	1	-1E+10	1
4902642	44	C	09/03/2025	03:37	-131.747	46.194	0	3256.50	0	1.5820	0	34.6580	4	27.747	0	3204.987	0	93.4	4	27.9	4	-1E+10	1	-1E+10	1	-1E+10	1	-1E+10	1	-1E+10	1	-1E+10	1
4902642	44	C	09/03/2025	03:37	-131.747	46.194	0	3257.50	0	1.5820	0	34.6570	4	27.747	0	3205.964	0	93.4	4	27.9	4	-1E+10	1	-1E+10	1	-1E+10	1	-1E+10	1	-1E+10	1	-1E+10	1
4902642	44	C	09/03/2025	03:37	-131.747	46.194	0	3258.40	0	1.5820	0	34.6570	4	27.747	0	3206.843	0	93.4	4	27.9	4	-1E+10	1	-1E+10	1	-1E+10	1	-1E+10	1	-1E+10	1	-1E+10	1
4902642	44	C	09/03/2025	03:37	-131.747	46.194	0	3259.40	0	1.5810	0	34.6570	4	27.747	0	3207.820	0	93.4	4	27.9	4	-1E+10	1	-1E+10	1	-1E+10	1	-1E+10	1	-1E+10	1	-1E+10	1
4902642	44	C	09/03/2025	03:37	-131.747	46.194	0	3260.20	0	1.5810	0	34.6580	4	27.747	0	3208.601	0	93.4	4	27.9	4	-1E+10	1	-1E+10	1	-1E+10	1	-1E+10	1	-1E+10	1	-1E+10	1
4902642	44	C	09/03/2025	03:37	-131.747	46.194	0	3261.30	0	1.5810	0	34.6580	4	27.747	0	3209.676	0	93.4	4	27.9	4	-1E+10	1	-1E+10	1	-1E+10	1	-1E+10	1	-1E+10	1	-1E+10	1
4902642	44	C	09/03/2025	03:37	-131.747	46.194	0	3262.30	0	1.5810	0	34.6580	4	27.747	0	3210.653	0	93.4	4	27.9	4	-1E+10	1	-1E+10	1	-1E+10	1	-1E+10	1	-1E+10	1	-1E+10	1
4902642	44	C	09/03/2025	03:37	-131.747	46.194	0	3263.10	0	1.5810	0	34.6580	4	27.747	0	3211.434	0	93.4	4	27.9	4	-1E+10	1	-1E+10	1	-1E+10	1	-1E+10	1	-1E+10	1	-1E+10	1
4902642	44	C	09/03/2025	03:37	-131.747	46.194	0	3264.60	0	1.5800	0	34.6580	4	27.748	0	3212.899	0	93.4	4	27.9	4	-1E+10	1	-1E+10	1	-1E+10	1	-1E+10	1	-1E+10	1	-1E+10	1
4902642	44	C	09/03/2025	03:37	-131.747	46.194	0	3265.40	0	1.5800	0	34.6580	4	27.748	0	3213.680	0	93.5	4	27.9	4	-1E+10	1	-1E+10	1	-1E+10	1	-1E+10	1	-1E+10	1	-1E+10	1
4902642	44	C	09/03/2025	03:37	-131.747	46.194	0	3266.50	0	1.5800	0	34.6580	4	27.748	0	3214.755	0	93.5	4	27.9	4	-1E+10	1	-1E+10	1	-1E+10	1	-1E+10	1	-1E+10	1	-1E+10	1
4902642	44	C	09/03/2025	03:37	-131.747	46.194	0	3267.70	0	1.5800	0	34.6580	4	27.748	0	3215.927	0	93.4	4	27.9	4	-1E+10	1	-1E+10	1	-1E+10	1	-1E+10	1	-1E+10	1	-1E+10	1
4902642	44	C	09/03/2025	03:37	-131.747	46.194	0	3268.60	0	1.5800	0	34.6580	4	27.748	0	3216.806	0	93.4	4	27.9	4	-1E+10	1	-1E+10	1	-1E+10	1	-1E+10	1	-1E+10	1	-1E+10	1
4902642	44	C	09/03/2025	03:37	-131.747	46.194	0	3269.40	0	1.5800	0	34.6580	4	27.748	0	3217.588	0	93.5	4	27.9	4	-1E+10	1	-1E+10	1	-1E+10	1	-1E+10	1	-1E+10	1	-1E+10	1
4902642	44	C	09/03/2025	03:37	-131.747	46.194	0	3270.50	0	1.5800	0	34.6580	4	27.748	0	3218.662	0	93.4	4	27.9	4	-1E+10	1	-1E+10	1	-1E+10	1	-1E+10	1	-1E+10	1	-1E+10	1
4902642	44	C	09/03/2025	03:37	-131.747	46.194	0	3271.70	0	1.5800	0	34.6580	4	27.748	0	3219.834	0	93.4	4	27.9	4	-1E+10	1	-1E+10	1	-1E+10	1	-1E+10	1	-1E+10	1	-1E+10	1
4902642	44	C	09/03/2025	03:37	-131.747	46.194	0	3272.40	0	1.5800	0	34.6580	4	27.748	0	3220.518	0	93.4	4	27.9	4	-1E+10	1	-1E+10	1	-1E+10	1	-1E+10	1	-1E+10	1	-1E+10	1
4902642	44	C	09/03/2025	03:37	-131.747	46.194	0	3273.20	0	1.5800	0	34.6580	4	27.748	0	3221.299	0	93.4	4	27.9	4	-1E+10	1	-1E+10	1	-1E+10	1	-1E+10	1	-1E+10	1	-1E+10	1
4902642	44	C	09/03/2025	03:37	-131.747	46.194	0	3274.50	0	1.5800	0	34.6580	4	27.748	0	3222.569	0	93.4	4	27.9	4	-1E+10	1	-1E+10	1	-1E+10	1	-1E+10	1	-1E+10	1	-1E+10	1
4902642	44	C	09/03/2025	03:37	-131.747	46.194	0	3275.60	0	1.5800	0	34.6580	4	27.748	0	3223.644	0	93.4	4	27.9	4	-1E+10	1	-1E+10	1	-1E+10	1	-1E+10	1	-1E+10	1	-1E+10	1
4902642	44	C	09/03/2025	03:37	-131.747	46.194	0	3276.60	0	1.5800	0	34.6580	4	27.748	0	3224.620	0	93.3	4	27.9	4	-1E+10	1	-1E+10	1	-1E+10	1	-1E+10	1	-1E+10	1	-1E+10	1
4902642	44	C	09/03/2025	03:37	-131.747	46.194	0	3277.60	0	1.5800	0	34.6580	4	27.748	0	3225.597	0	93.3	4	27.8	4	-1E+10	1	-1E+10	1	-1E+10	1	-1E+10	1	-1E+10	1	-1E+10	1
4902642	44	C	09/03/2025	03:37	-131.747	46.194	0	3278.60	0	1.5800	0	34.6580	4	27.748	0	3226.574	0	93.2	4	27.8	4	-1E+10	1	-1E+10	1	-1E+10	1	-1E+10	1	-1E+10	1	-1E+10	1
4902642	44	C	09/03/2025	03:37	-131.747	46.194	0	3279.20	0	1.5800	0	34.6580	4	27.748	0	3227.160	0	93.2	4	27.8	4	-1E+10	1	-1E+10	1	-1E+10	1	-1E+10	1	-1E+10	1	-1E+10	1
4902642	44	C	09/03/2025	03:37	-131.747	46.194	0																										
4902642	46	C	09/22/2025	20:28	-131.916	46.283	0	2.00	0	18.5040	0	32.2960	0	23.080	0	1.984	0	214.2	4	90.8	4	-1E+10	1	-1E+10	1	-1E+10	1	-1E+10	1	-1E+10	1	-1E+10	1
4902642	46	C	09/22/2025	20:28	-131.916	46.283	0	2.10	0	18.5050	0	32.2960	0	23.080	0	2.083	0	214.2	4	90.8	4	-1E+10	1	-1E+10	1	-1E+10	1	-1E+10	1	-1E+10	1	-1E+10	1
4902642	46	C	09/22/2025	20:28	-131.916	46.283	0	2.20	0	18.5060	0	32.2950	0	23.079	0	2.182	0	214.1	4	90.7	4	-1E+10	1	-1E+10	1	-1E+10	1	-1E+10	1	-1E+10	1	-1E+10	1
4902642	46	C	09/22/2025	20:28	-131.916	46.283	0	2.30	0	18.5070	0	32.2950	0	23.079	0	2.281	0	214.3	4	90.8	4	-1E+10	1	-1E+10	1	-1E+10	1	-1E+10	1	-1E+10	1	-1E+10	1
4902642	46	C	09/22/2025	20:28	-131.916	46.283	0	2.40	0	18.5065	0	32.2950	0	23.079	0	2.380	0	214.1	4	90.7	4	-1E+10	1	-1E+10	1	-1E+10	1	-1E+10	1	-1E+10	1	-1E+10	1
4902642	46	C	09/22/2025	20:28	-131.916	46.283	0	2.50	0	18.5070	0	32.2950	0	23.079	0	2.479	0	214.2	4	90.8	4	-1E+10	1	-1E+10	1	-1E+10	1	-1E+10	1	-1E+10	1	-1E+10	1
4902642	46	C	09/22/2025	20:28	-131.916	46.283	0	2.70	0	18.5080	0	32.2940	0	23.078	0	2.678	0	214.1	4	90.7	4	-1E+10	1	-1E+10	1	-1E+10	1	-1E+10	1	-1E+10	1	-1E+10	1
4902642	46	C	09/22/2025	20:28	-131.916	46.283	0	2.80	0	18.5080	0	32.2940	0	23.078	0	2.777	0	-1e10	1	-1e10	1	-1E+10	1	-1E+10	1	-1E+10	1	-1E+10	1	-1E+10	1	-1E+10	1
4902642	46	C	09/22/2025	20:28	-131.916	46.283	0	3.00	0	18.5080	0	32.2940	0	23.078	0	2.975	0	214.0	4	90.7	4	-1E+10	1	-1E+10	1	-1E+10	1	-1E+10	1	-1E+10	1	-1E+10	1
4902642	46	C	09/22/2025	20:28	-131.916	46.283	0	3.50	0	18.5060	0	32.2890	0	23.075	0	3.471	0	214.2	4	90.8	4	-1E+10	1	-1E+10	1	-1E+10	1	-1E+10	1	-1E+10	1	-1E+10	1
4902642	46	C	09/22/2025	20:28	-131.916	46.283	0	4.50	0	18.5020	0	32.2940	0	23.079	0	4.463	0	214.1	4	90.7	4	-1E+10	1	-1E+10	1	-1E+10	1	-1E+10	1	-1E+10	1	-1E+10	1
4902642	46	C	09/22/2025	20:28	-131.916	46.283	0	5.40	0	18.5010	0	32.2950	0	23.080	0	5.355	0	214.3	4	90.8	4	-1E+10	1	-1E+10	1	-1E+10	1	-1E+10	1	-1E+10	1	-1E+10	1
4902642	46	C	09/22/2025	20:28	-131.916	46.283	0	6.30	0	18.5040	0	32.2950	0	23.080	0	6.248	0	214.2	4	90.7	4	-1E+10	1	-1E+10	1	-1E+10	1	-1E+10	1	-1E+10	1	-1E+10	1
4902642	46	C	09/22/2025	20:28	-131.916	46.283	0	7.30	0	18.4960	0	32.2940	0	23.081	0	7.240	0	214.3	4	90.8	4	-1E+10	1	-1E+10	1	-1E+10	1	-1E+10	1	-1E+10	1	-1E+10	1
4902642	46	C	09/22/2025	20:28	-131.916	46.283	0	8.50	0	18.4950	0	32.2940	0	23.081	0	8.430	0	214.2	4	90.7	4	-1E+10	1	-1E+10	1	-1E+10	1	-1E+10	1	-1E+10	1	-1E+10	1
4902642	46	C	09/22/2025	20:28	-131.916	46.283	0	10.00	0	18.4950	0	32.2940	0	23.081	0	9.917	0	214.1	4	90.7	4	-1E+10	1	-1E+10	1	-1E+10	1	-1E+10	1	-1E+10	1	-1E+10	1
4902642	46	C	09/22/2025	20:28	-131.916	46.283	0	14.70	0	18.4940	0	32.2940	0	23.082	0	14.578	0	214.4	4	90.8	4	-1E+10	1	-1E+10	1	-1E+10	1	-1E+10	1	-1E+10	1	-1E+10	1
4902642	46	C	09/22/2025	20:28	-131.916	46.283	0	24.70	0	18.4860	0	32.2920	0	23.083	0	24.495	0	216.4	4	91.6	4	-1E+10	1	-1E+10	1	-1E+10	1	-1E+10	1	-1E+10	1	-1E+10	1
4902642	46	C	09/22/2025	20:28	-131.916	46.283	0	34.60	0	17.2620	0	32.3010	0	23.385	0	34.312	0	237.0	4	98.1	4	-1E+10	1	-1E+10	1	-1E+10	1	-1E+10	1	-1E+10	1	-1E+10	1
4902642	46	C	09/22/2025	20:28	-131.916	46.283	0	44.90	0	13.5000	0	32.3480	0	24.242	0	44.525	0	258.9	4	99.6	4	-1E+10	1	-1E+10	1	-1E+10	1	-1E+10	1	-1E+10	1	-1E+10	1
4902642	46	C	09/22/2025	20:28	-131.916	46.283	0	55.00	0	11.6200	0	32.3420	0	24.597	0	54.540	0	248.1	4	91.7	4	-1E+10	1	-1E+10	1	-1E+10	1	-1E+10	1	-1E+10	1	-1E+10	1
4902642	46	C	09/22/2025	20:28	-131.916	46.283	0	65.00	0	10.4800	0	32.3350	0	24.793	0	64.455	0	244.7	4	88.3	4	-1E+10	1	-1E+10	1	-1E+10	1	-1E+10	1	-1E+10	1	-1E+10	1
4902642	46	C	09/22/2025	20:28	-131.916	46.283	0	74.90	0	9.7600	0	32.3520	0	24.926	0	74.270	0	242.1	4	86.0	4	-1E+10	1	-1E+10	1	-1E+10	1	-1E+10	1	-1E+10	1	-1E+10	1
4902642	46	C	09/22/2025	20:28	-131.916	46.283	0	84.80	0	9.3940	0	32.3610	0	24.992	0	84.084	0	235.9	4	83.2	4	-1E+10	1	-1E+10	1	-1E+10	1	-1E+10	1	-1E+10	1	-1E+10	1
4902642	46	C	09/22/2025	20:28	-131.916	46.283	0	94.40	0	9.0120	0	32.4170	0	25.096	0	93.601	0	224.4	4	78.5	4	-1E+10	1	-1E+10	1	-1E+10	1	-1E+10	1	-1E+10	1	-1E+10	1
4902642	46	C	09/22/2025	20:28	-131.916	46.283	0	105.10	0	8.6800	0	32.5760	0	25.272	0	104.208	0	209.4	4	72.8	4	-1E+10	1	-1E+10	1	-1E+10	1	-1E+10	1	-1E+10	1	-1E+10	1
4902642	46	C	09/22/2025	20:28	-131.916	46.283	0	114.50	0	8.4030	0	32.7680	0	25.464	0	113.526	0	190.3	4	65.8	4	-1E+10	1	-1E+10	1	-1E+10	1	-1E+10	1	-1E+10	1	-1E+10	1
4902642	46	C	09/22/2025	20:28	-131.916	46.283	0	124.90	0	7.9690	0	33.0910	0	25.781	0	123.834	0	169.0	4	58.0	4	-1E+10	1	-1E+10	1	-1E+10	1	-1E+10	1	-1E+10	1	-1E+10	1
4902642	46	C	09/22/2025	20:28	-131.916	46.283	0	134.80	0	7.7190	0	33.3310	0	26.006	0	133.646	0	155.4	4	53.2	4	-1E+10	1	-1E+10	1	-1E+10	1	-1E+10	1	-1E+10	1	-1E+10	1
4902642	46	C	09/22/2025	20:28	-131.916	46.283	0	144.20	0	7.5840	0	33.4980	0	26.157	0	142.963	0	143.7	4	49.1	4	-1E+10	1	-1E+10	1	-1E+10	1	-1E+10	1	-1E+10	1	-1E+10	1
4902642	46	C	09/22/2025	20:28	-131.916	46.283	0	154.70	0	7.4270	0	33.5930	0	26.254	0	153.369	0	139.3	4	47.4	4	-1E+10	1	-1E+10	1	-1E+10	1	-1E+10	1	-1E+10	1	-1E+10	1
4902642	46	C	09/22/2025	20:28	-131.916	46.283	0	164.60	0	7.2720	0	33.6440	0	26.316	0	163.179	0	138.4	4	47.0	4	-1E+10	1	-1E+10	1	-1E+10	1	-1E+10	1	-1E+10	1	-1E+10	1
4902642	46	C	09/22/2025	20:28	-131.916	46.283	0	174.70	0	7.1340	0	33.6970	0	26.376	0	173.188	0	137.6	4	46.6	4	-1E+10	1	-1E+10	1	-1E+10	1	-1E+10	1	-1E+10	1	-1E+10	1
4902642	46	C	09/22/2025	20:28	-131.916	46.283	0	185.00	0	7.0000	0	33.7340	0	26.424	0	183.394	0	134.3	4	45.3	4	-1E+10	1	-1E+10	1	-1E+10	1	-1E+10	1	-1E+10	1	-1E+10	1
4902642	46	C	09/22/2025	20:28	-131.916	46.283	0	194.90	0	6.8990	0	33.7740	0	26.469	0	193.204	0	129.3	4	43.6	4	-1E+10	1	-1E+10	1	-1E+10	1	-1E+10	1	-1E+10	1	-1E+10	1
4902642	46	C	09/22/2025	20:28	-131.916	46.283	0	210.50	0	6.7660	0	33.8100	0	26.516	0	208.660	0	122.6	4	41.2	4	-1E+10	1	-1E+10	1	-1E+10	1	-1E+10	1	-1E+10	1	-1E+10	1
4902642	46	C	09/22/2025	20:28	-131.916	46.283	0	229.80	0	6.5120	0	33.8300	0	26.565	0	227.781	0	115.4	4	38.6	4	-1E+10	1	-1E+10	1	-1E+10	1	-1E+10	1	-1E+10	1	-1E+10	1
4902642	46	C	09/22/2025	20:28	-131.916	46.283	0	249.80	0	6.2060	0	33.8400	0	26.613	0	247.593	0	106.6	4	35.4	4	-1E+10	1	-1E+10	1	-1E+10	1	-1E+10	1	-1E+10	1	-1E+10	1
4902642	46	C	09/22/2025	20:28	-131.916	46.283	0	269.90	0	5.9660	0	33.8530	0	26.654	0	267.503	0	95.6	4	31.5	4	-1E+10	1	-1E+10	1	-1E+10	1	-1E+10	1	-1E+10	1	-1E+10	1
4902642	46	C	09/22/2025	20:28	-131.916	46.283	0	289.80	0	5.7700	0	33.8620	0	26.685	0	287.212	0	89.0	4	29.2	4	-1E+10	1	-1E+10	1	-1E+10	1	-1E+10	1	-1E+10	1	-1E+10	1
4902642	46	C	09/22/2025	20:28	-131.916	46.283	0	309.50	0	5.5170	0	33.8690	0	26.721	0	306.722	0	81.2	4	26.5	4	-1E+10	1	-1E+10	1	-1E+10	1	-1E+10	1	-1E+10	1	-1E+10	1
4902642	46	C	09/22/2025	20:28	-131.916	46.283	0	329.50	0	5.3330	0	33.8860	0	26.757	0	326.526	0	72.5	4	23.6	4	-1E+10	1	-1E+10	1	-1E+10	1	-1E+10	1	-1E+10	1	-1E+10	1
4902642	46	C	09/22/2025	20:28	-131.916	46.283	0	349.50	0	5.2030	0	33.9030	0	26.786	0	346.329	0	65.1	4	21.1	4	-1E+10	1	-1E+10	1	-1E+10	1	-1E+10	1	-1E+10	1	-1E+10	1
4902642	46	C	09/22/2025	20:28	-131.916	46.283	0	369.60	0	5.1280	0	33.9340	0	26.819	0	366.229	0	55.0	4	17.8	4	-1E+10	1	-1E+10	1	-1E+10	1	-1E+10	1	-1E+10	1	-1E+10	1
4902642	46	C	09/22/2025	20:28	-131.916	46.283	0	389.60	0	5.1520	0	33.9720	0	26.846	0	386.028	0	47.2	4	15.3	4	-1E+10	1	-1E+10	1	-1E+10	1	-1E+10	1	-1E+10	1	-1E+10	1
4902642	46	C	09/22/2025	20:28	-131.916	46.283	0	410.40	0	5.1010	0	33.9930	0	26.869	0	406.617	0	42.1	4	13.6	4	-1E+10	1	-1E+10	1	-1E+10	1	-1E+10	1	-1E+10	1	-1E+10	1
4902642	46	C	09/22/2025	20:28	-131.916	46.283	0	429.50	0	5.0350	0	34.0160	0	26.895	0	425.521	0	36.4	4	11.8	4	-1E+10	1	-1E+10	1	-1E+10	1	-1E+10	1	-1E+10	1	-1E+10	1
4902642	46	C	09/22/2025	20:28	-131.916	46.283	0	449.60	0	4.9380	0	34.0420	0	26.927	0	445.413	0	32.1	4	10.3	4	-1E+10	1	-1E+10	1	-1E+10	1	-1E+10	1	-1E+10	1	-1E+10	1
4902642	46	C	09/22/2025	20:28	-131.916	46.283	0	470.10	0	4.8200	0	34.0560	0	26.951	0	465.700	0	28.9	4	9.3	4	-1E+10	1	-1E+10	1	-1E+10	1	-1E+10	1	-1E+10	1	-1E+10	1
4902642	46	C	09/22/2025	20:28	-131.916	46.283	0	489.60	0	4.7350	0	34.0710	0	26.973	0	484.994	0	26.4	4	8.5	4	-1E+10	1	-1E+10	1	-1E+10	1	-1E+10	1	-1E+10	1	-1E+10	1
4902642	46	C	09/22/2025	20:28	-131.916	46.283	0	510.00	0	4.5670	0	34.0780	0	26.997	0	505.178	0	23.9	4	7.6	4	-1E+10	1	-1E+10	1	-1E+10	1	-1E+10	1	-1E+10	1	-1E+10	1
4902642	46	C	09/22/2025	20:28	-131.916	46.283	0	529.80	0	4.5480	0	34.1020	0	27.018	0	524.765	0	19.5	4	6.2	4	-1E+10	1	-1E+10	1	-1E+10	1	-1E+10	1	-1E+10	1	-1E+10	1
4902642	46	C	09/22/2025	20:28	-131.916	46.283	0	550.00	0	4.5370	0	34.1310	0	27.043	0	544.747	0	16.0	4	5.1	4	-1E+10	1	-1E+10	1	-1E+10	1	-1E+10	1	-1E+10	1	-1E+10	1
4902642	46	C	09/22/2025	20:28	-131.916	46.283	0	569.60	0	4.5080	0	34.1510	0	27.062	0	564.133	0	14.0	4	4.5	4	-1E+10	1	-1E+10	1	-1E+10	1	-1E+10	1	-1E+10	1	-1E+10	1
4902642	46	C	09/22/2025	20:28	-131.916	46.283	0	589.90	0	4.4760	0	34.1620	0	27.074	0	584.210	0	12.9	4	4.1	4	-1E+10	1	-1E+10	1	-1E+10	1	-1E+10	1	-1E+10	1	-1E+10	1
4902642	46	C	09/22/2025	20:28	-131.916	46.283	0	609.60	0	4.4430	0	34.1740	0	27.087	0	603.691	0	11.5	4	3.7	4	-1E+10	1	-1E+10	1	-1E+10	1	-1E+10	1	-1E+10	1	-1E+10	1
4902642	46	C	09/22/2025	20:28	-131.916	46.283	0	629.40	0	4.3940	0	34.1910	0	27.106	0	623.270	0	10.1	4	3.2	4	-1E+10	1	-1E+10	1	-1E+10	1	-1E+10	1	-1E+10	1	-1E+10	1
4902642	46	C	09/22/2025	20:28	-131.916	46.283	0	649.70	0	4.3910	0	34.2090	0	27.121	0	643.341	0	9.1	4	2.9	4	-1E+10	1	-1E+10	1	-1E+10	1	-1E+10	1	-1E+10	1	-1E+10	1
4902642	46	C	09/22/2025	20:28	-131.916	46.283	0	669.80	0	4.3210	0	34.2160	0	27.134	0	663.212	0	8.7	4	2.8	4	-1E+10	1	-1E+10	1	-1E+10	1	-1E+10	1	-1E+10	1	-1E+10	1
4902642	46	C	09/22/2025	20:28	-131.916	46.283	0	689.70	0	4.2620	0	34.2260	0	27.149	0	682.884	0	7.8	4	2.5	4	-1E+10	1	-1E+10	1	-1E+10	1	-1E+10	1	-1E+10	1	-1E+10	1
4902642	46	C	09/22/2025	20:28	-131.916	46.283	0	709.90	0	4.2570	0	34.2460	0	27.165	0	702.850	0	7.1	4	2.3	4	-1E+10	1	-1E+10	1	-1E+10	1	-1E+10	1	-1E+10	1	-1E+10	1
4902642	46	C	09/22/2025	20:28	-131.916	46.283	0	729.60	0	4.2160	0	34.2580	0	27.179	0	722.320	0	6.6	4	2.1	4	-1E+10	1	-1E+10	1	-1E+10	1	-1E+10	1	-1E+10	1	-1E+10	1
4902642	46	C	09/22/2025	20:28	-131.916	46.283	0	749.60	0	4.1570	0	34.2690	0	27.194	0	742.085	0	6.3	4	2.0	4	-1E+10	1	-1E+10	1	-1E+10	1	-1E+10	1	-1E+10	1	-1E+10	1
4902642	46	C	09/22/2025	20:28	-131.916	46.283	0	769.60	0	4.1020	0	34.2830	0	27.211	0	761.848	0	5.9	4	1.9	4	-1E+10	1	-1E+10	1	-1E+10	1	-1E+10	1	-1E+10	1	-1E+10	1
4902642	46	C	09/22/2025	20:28	-131.916	46.283	0	789.60	0	4.0530	0	34.2930	0	27.224	0	781.609	0	5.7	4	1.8	4	-1E+10	1	-1E+10	1	-1E+10	1	-1E+10	1	-1E+10	1	-1E+10	1
4902642	46	C	09/22/2025	20:28	-131.916	46.283	0	809.70	0	3.9800	0	34.3050	0	27.242	0	801.467	0	5.5	4	1.7	4	-1E+10	1	-1E+10	1	-1E+10	1	-1E+10	1	-1E+10	1	-1E+10	1
4902642	46	C	09/22/2025	20:28	-131.916	46.283	0	830.50	0	3.9090	0	34.3210	0	27.262	0	822.015	0	5.4	4	1.7	4	-1E+10	1	-1E+10	1	-1E+10	1	-1E+10	1	-1E+10	1	-1E+10	1
4902642	46	C	09/22/2025	20:28	-131.916	46.283	0	849.90	0	3.8470	0	34.3330	0	27.278	0	841.178	0	5.5	4	1.7	4	-1E+10	1	-1E+10	1	-1E+10	1	-1E+10	1	-1E+10	1	-1E+10	1
4902642	46	C	09/22/2025	20:28	-131.916	46.283	0	869.90	0	3.8010	0	34.3450	0	27.292	0	860.931	0	5.5	4	1.7	4	-1E+10	1	-1E+10	1	-1E+10	1	-1E+10	1	-1E+10	1	-1E+10	1
4902642	46	C	09/22/2025	20:28	-131.916	46.283	0	890.00	0	3.7430	0	34.3530	0	27.304	0	880.782	0	5.6	4	1.8	4	-1E+10	1	-1E+10	1	-1E+10	1	-1E+10	1	-1E+10	1	-1E+10	1
4902642	46	C	09/22/2025	20:28	-131.916	46.283	0	909.60	0	3.6810	0	34.3600	0	27.316	0	900.137	0	5.7	4	1.8	4	-1E+10	1	-1E+10	1	-1E+10	1	-1E+10	1	-1E+10	1	-1E+10	1
4902642	46	C	09/22/2025	20:28	-131.916	46.283	0	929.30	0	3.6200	0	34.3670	0	27.328	0	919.588	0	5.8	4	1.8	4	-1E+10	1	-1E+10	1	-1E+10	1	-1E+10	1	-1E+10	1	-1E+10	1
4902642	46	C	09/22/2025	20:28	-131.916	46.283	0	950.20	0	3.5520	0	34.3720	0	27.338	0	940.223	0	6.0	4	1.9	4	-1E+10	1	-1E+10	1	-1E+10	1	-1E+10	1	-1E+10	1	-1E+10	1
4902642	46	C	09/22/2025	20:28	-131.916	46.283	0	969.80	0	3.5140	0	34.3790	0	27.348	0	959.572	0	6.1	4	1.9	4	-1E+10	1	-1E+10	1	-1E+10	1	-1E+10	1	-1E+10	1	-1E+10	1
4902642	46	C	09/22/2025	20:28	-131.916	46.283	0	990.00	0	3.4670	0	34.3830	0	27.356	0	979.512	0	6.2	4	1.9	4	-1E+10	1	-1E+10	1	-1E+10	1	-1E+10	1	-1E+10	1	-1E+10	1
4902642	46	C	09/22/2025	20:28	-131.916	46.283	0	1010.60	0	3.3980	0	34.3870	0	27.365	0	999.845	0	6.3	4	2.0	4	-1E+10	1	-1E+10	1	-1E+10	1	-1E+10	1	-1E+10	1	-1E+10	1
4902642	46	C	09/22/2025	20:28	-131.916	46.283	0	1030.00	0	3.3340	0	34.3900	0	27.374	0	1018.991	0	6.3	4	2.0	4	-1E+10	1	-1E+10	1	-1E+10	1	-1E+10	1	-1E+10	1	-1E+10	1
4902642	46	C	09/22/2025	20:28	-131.916	46.283	0	1049.70	0	3.2760	0	34.3970	0	27.385	0	1038.432	0	6.6	4	2.0	4	-1E+10	1	-1E+10	1	-1E+10	1	-1E+10	1	-1E+10	1	-1E+10	1
4902642	46	C	09/22/2025	20:28	-131.916	46.283	0	1069.80	0	3.2160	0	34.4080	0	27.400	0	1058.266	0	7.0	4	2.2	4	-1E+10	1	-1E+10	1	-1E+10	1	-1E+10	1	-1E+10	1	-1E+10	1
4902642	46	C	09/22/2025	20:28	-131.916	46.283	0	1089.60	0	3.1840	0	34.4150	0	27.408	0	1077.801	0	7.4	4	2.3	4	-1E+10	1	-1E+10	1	-1E+10	1	-1E+10	1	-1E+10	1	-1E+10	1
4902642	46	C	09/22/2025	20:28	-131.916	46.283	0	1109.80	0	3.1650	0	34.4210	0	27.415	0	1097.730	0	7.7	4	2.4	4	-1E+10	1	-1E+10	1	-1E+10	1	-1E+10	1	-1E+10	1	-1E+10	1
4902642	46	C	09/22/2025	20:28	-131.916	46.283	0	1130.00	0	3.1350	0	34.4270	0	27.423	0	1117.656	0	8.2	4	2.5	4	-1E+10	1	-1E+10	1	-1E+10	1	-1E+10	1	-1E+10	1	-1E+10	1
4902642	46	C	09/22/2025	20:28	-131.916	46.283	0	1149.70	0	3.1040	0	34.4330	0	27.430	0	1137.088	0	8.6	4	2.7	4	-1E+10	1	-1E+10	1	-1E+10	1	-1E+10	1	-1E+10	1	-1E+10	1
4902642	46	C	09/22/2025	20:28	-131.916	46.283	0	1169.70	0	3.0630	0	34.4370	0	27.437	0	1156.813	0	8.9	4	2.8	4	-1E+10	1	-1E+10	1	-1E+10	1	-1E+10	1	-1E+10	1	-1E+10	1
4902642	46	C	09/22/2025	20:28	-131.916	46.283	0	1189.70	0	3.0240	0	34.4430	0	27.446	0	1176.537	0	9.4	4	2.9	4	-1E+10	1	-1E+10	1	-1E+10	1	-1E+10	1	-1E+10	1	-1E+10	1
4902642	46	C	09/22/2025	20:28	-131.916	46.283	0	1209.60	0	2.9800	0	34.4510	0	27.456	0	1196.160	0	10.4	4	3.2	4	-1E+10	1	-1E+10	1	-1E+10	1	-1E+10	1	-1E+10	1	-1E+10	1
4902642	46	C	09/22/2025	20:28	-131.916	46.283	0	1229.70	0	2.9510	0	34.4570	0	27.464	0	1215.979	0	11.1	4	3.4	4	-1E+10	1	-1E+10	1	-1E+10	1	-1E+10	1	-1E+10	1	-1E+10	1
4902642	46	C	09/22/2025	20:28	-131.916	46.283	0	1250.60	0	2.9220	0	34.4610	0	27.470	0	1236.584	0	11.5	4	3.5	4	-1E+10	1	-1E+10	1	-1E+10	1	-1E+10	1	-1E+10	1	-1E+10	1
4902642	46	C	09/22/2025	20:28	-131.916	46.283	0	1269.50	0	2.8790	0	34.4650	0	27.477	0	1255.216	0	11.8	4	3.6	4	-1E+10	1	-1E+10	1	-1E+10	1	-1E+10	1	-1E+10	1	-1E+10	1
4902642	46	C	09/22/2025	20:28	-131.916	46.283	0	1289.50	0	2.8440	0	34.4710	0	27.485	0	1274.931	0	12.5	4	3.8	4	-1E+10	1	-1E+10	1	-1E+10	1	-1E+10	1	-1E+10	1	-1E+10	1
4902642	46	C	09/22/2025	20:28	-131.916	46.283	0	1309.50	0	2.8180	0	34.4750	0	27.490	0	1294.643	0	13.2	4	4.1	4	-1E+10	1	-1E+10	1	-1E+10	1	-1E+10	1	-1E+10	1	-1E+10	1
4902642	46	C	09/22/2025	20:28	-131.916	46.283	0	1329.70	0	2.7860	0	34.4790	0	27.497	0	1314.551	0	14.1	4	4.3	4	-1E+10	1	-1E+10	1	-1E+10	1	-1E+10	1	-1E+10	1	-1E+10	1
4902642	46	C	09/22/2025	20:28	-131.916	46.283	0	1349.70	0	2.7430	0	34.4850	0	27.505	0	1334.260	0	14.9	4	4.6	4	-1E+10	1	-1E+10	1	-1E+10	1	-1E+10	1	-1E+10	1	-1E+10	1
4902642	46	C	09/22/2025	20:28	-131.916	46.283	0	1368.90	0	2.7140	0	34.4880	0	27.510	0	1353.179	0	15.6	4	4.8	4	-1E+10	1	-1E+10	1	-1E+10	1	-1E+10	1	-1E+10	1	-1E+10	1
4902642	46	C	09/22/2025	20:28	-131.916	46.283	0	1389.60	0	2.6880	0	34.4920	0	27.516	0	1373.574	0	16.4	4	5.0	4	-1E+10	1	-1E+10	1	-1E+10	1	-1E+10	1	-1E+10	1	-1E+10	1
4902642	46	C	09/22/2025	20:28	-131.916	46.283	0	1409.50	0	2.6480	0	34.4970	0	27.523	0	1393.179	0	17.7	4	5.4	4	-1E+10	1	-1E+10	1	-1E+10	1	-1E+10	1	-1E+10	1	-1E+10	1
4902642	46	C	09/22/2025	20:28	-131.916	46.283	0	1429.60	0	2.6070	0	34.5030	0	27.532	0	1412.979	0	18.7	4	5.7	4	-1E+10	1	-1E+10	1	-1E+10	1	-1E+10	1	-1E+10	1	-1E+10	1
4902642	46	C	09/22/2025	20:28	-131.916	46.283	0	1449.60	0	2.5690	0	34.5060	0	27.537	0	1432.678	0	19.6	4	6.0	4	-1E+10	1	-1E+10	1	-1E+10	1	-1E+10	1	-1E+10	1	-1E+10	1
4902642	46	C	09/22/2025	20:28	-131.916	46.283	0	1469.80	0	2.5430	0	34.5090	0	27.542	0	1452.573	0	20.3	4	6.2	4	-1E+10	1	-1E+10	1	-1E+10	1	-1E+10	1	-1E+10	1	-1E+10	1
4902642	46	C	09/22/2025	20:28	-131.916	46.283	0	1489.80	0	2.5140	0	34.5120	0	27.547	0	1472.269	0	21.2	4	6.5	4	-1E+10	1	-1E+10	1	-1E+10	1	-1E+10	1	-1E+10	1	-1E+10	1
4902642	46	C	09/22/2025	20:28	-131.916	46.283	0	1509.60	0	2.4760	0	34.5150	0	27.553	0	1491.766	0	21.7	4	6.6	4	-1E+10	1	-1E+10	1	-1E+10	1	-1E+10	1	-1E+10	1	-1E+10	1
4902642	46	C	09/22/2025	20:28	-131.916	46.283	0	1529.50	0	2.4450	0	34.5180	0	27.558	0	1511.360	0	22.7	4	6.9	4	-1E+10	1	-1E+10	1	-1E+10	1	-1E+10	1	-1E+10	1	-1E+10	1
4902642	46	C	09/22/2025	20:28	-131.916	46.283	0	1549.90	0	2.4080	0	34.5220	0	27.564	0	1531.444	0	23.7	4	7.2	4	-1E+10	1	-1E+10	1	-1E+10	1	-1E+10	1	-1E+10	1	-1E+10	1
4902642	46	C	09/22/2025	20:28	-131.916	46.283	0	1570.60	0	2.3880	0	34.5240	0	27.568	0	1551.822	0	24.5	4	7.5	4	-1E+10	1	-1E+10	1	-1E+10	1	-1E+10	1	-1E+10	1	-1E+10	1
4902642	46	C	09/22/2025	20:28	-131.916	46.283	0	1589.60	0	2.3710	0	34.5280	0	27.572	0	1570.524	0	25.3	4	7.7	4	-1E+10	1	-1E+10	1	-1E+10	1	-1E+10	1	-1E+10	1	-1E+10	1
4902642	46	C	09/22/2025	20:28	-131.916	46.283	0	1609.70	0	2.3530	0	34.5300	0	27.576	0	1590.307	0	26.2	4	8.0	4	-1E+10	1	-1E+10	1	-1E+10	1	-1E+10	1	-1E+10	1	-1E+10	1
4902642	46	C	09/22/2025	20:28	-131.916	46.283	0	1629.90	0	2.3240	0	34.5330	0	27.580	0	1610.187	0	27.4	4	8.3	4	-1E+10	1	-1E+10	1	-1E+10	1	-1E+10	1	-1E+10	1	-1E+10	1
4902642	46	C	09/22/2025	20:28	-131.916	46.283	0	1650.10	0	2.2840	0	34.5380	0	27.588	0	1630.065	0	29.0	4	8.8	4	-1E+10	1	-1E+10	1	-1E+10	1	-1E+10	1	-1E+10	1	-1E+10	1
4902642	46	C	09/22/2025	20:28	-131.916	46.283	0	1670.60	0	2.2590	0	34.5420	0	27.593	0	1650.237	0	30.0	4	9.1	4	-1E+10	1	-1E+10	1	-1E+10	1	-1E+10	1	-1E+10	1	-1E+10	1
4902642	46	C	09/22/2025	20:28	-131.916	46.283	0	1689.50	0	2.2340	0	34.5450	0	27.598	0	1668.832	0	30.9	4	9.4	4	-1E+10	1	-1E+10	1	-1E+10	1	-1E+10	1	-1E+10	1	-1E+10	1
4902642	46	C	09/22/2025	20:28	-131.916	46.283	0	1709.60	0	2.2160	0	34.5470	0	27.601	0	1688.606	0	31.8	4	9.6	4	-1E+10	1	-1E+10	1	-1E+10	1	-1E+10	1	-1E+10	1	-1E+10	1
4902642	46	C	09/22/2025	20:28	-131.916	46.283	0	1729.60	0	2.1950	0	34.5500	0	27.605	0	1708.280	0	32.9	4	10.0	4	-1E+10	1	-1E+10	1	-1E+10	1	-1E+10	1	-1E+10	1	-1E+10	1
4902642	46	C	09/22/2025	20:28	-131.916	46.283	0	1749.60	0	2.1730	0	34.5530	0	27.609	0	1727.952	0	34.3	4	10.4	4	-1E+10	1	-1E+10	1	-1E+10	1	-1E+10	1	-1E+10	1	-1E+10	1
4902642	46	C	09/22/2025	20:28	-131.916	46.283	0	1770.20	0	2.1460	0	34.5580	0	27.615	0	1748.212	0	35.9	4	10.9	4	-1E+10	1	-1E+10	1	-1E+10	1	-1E+10	1	-1E+10	1	-1E+10	1
4902642	46	C	09/22/2025	20:28	-131.916	46.283	0	1789.60	0	2.1210	0	34.5620	0	27.621	0	1767.291	0	37.3	4	11.3	4	-1E+10	1	-1E+10	1	-1E+10	1	-1E+10	1	-1E+10	1	-1E+10	1
4902642	46	C	09/22/2025	20:28	-131.916	46.283	0	1809.40	0	2.1030	0	34.5640	0	27.624	0	1786.761	0	38.4	4	11.6	4	-1E+10	1	-1E+10	1	-1E+10	1	-1E+10	1	-1E+10	1	-1E+10	1
4902642	46	C	09/22/2025	20:28	-131.916	46.283	0	1829.60	0	2.0810	0	34.5670	0	27.628	0	1806.622	0	39.5	4	11.9	4	-1E+10	1	-1E+10	1	-1E+10	1	-1E+10	1	-1E+10	1	-1E+10	1
4902642	46	C	09/22/2025	20:28	-131.916	46.283	0	1849.60	0	2.0630	0	34.5700	0	27.632	0	1826.285	0	40.8	4	12.3	4	-1E+10	1	-1E+10	1	-1E+10	1	-1E+10	1	-1E+10	1	-1E+10	1
4902642	46	C	09/22/2025	20:28	-131.916	46.283	0	1870.40	0	2.0480	0	34.5730	0	27.636	0	1846.733	0	41.8	4	12.6	4	-1E+10	1	-1E+10	1	-1E+10	1	-1E+10	1	-1E+10	1	-1E+10	1
4902642	46	C	09/22/2025	20:28	-131.916	46.283	0	1889.80	0	2.0340	0	34.5750	0	27.639	0	1865.802	0	42.8	4	12.9	4	-1E+10	1	-1E+10	1	-1E+10	1	-1E+10	1	-1E+10	1	-1E+10	1
4902642	46	C	09/22/2025	20:28	-131.916	46.283	0	1909.60	0	2.0240	0	34.5770	0	27.641	0	1885.263	0	43.7	4	13.2	4	-1E+10	1	-1E+10	1	-1E+10	1	-1E+10	1	-1E+10	1	-1E+10	1
4902642	46	C	09/22/2025	20:28	-131.916	46.283	0	1929.70	0	2.0110	0	34.5800	0	27.645	0	1905.017	0	44.9	4	13.6	4	-1E+10	1	-1E+10	1	-1E+10	1	-1E+10	1	-1E+10	1	-1E+10	1
4902642	46	C	09/22/2025	20:28	-131.916	46.283	0	1949.90	0	1.9970	0	34.5830	0	27.648	0	1924.867	0	46.1	4	13.9	4	-1E+10	1	-1E+10	1	-1E+10	1	-1E+10	1	-1E+10	1	-1E+10	1
4902642	46	C	09/22/2025	20:28	-131.916	46.283	0	1969.80	0	1.9860	0	34.5850	0	27.651	0	1944.421	0	46.9	4	14.1	4	-1E+10	1	-1E+10	1	-1E+10	1	-1E+10	1	-1E+10	1	-1E+10	1
4902642	46	C	09/22/2025	20:28	-131.916	46.283	0	1989.70	0	1.9750	0	34.5870	0	27.653	0	1963.973	0	47.9	4	14.4	4	-1E+10	1	-1E+10	1	-1E+10	1	-1E+10	1	-1E+10	1	-1E+10	1
4902642	46	C	09/22/2025	20:28	-131.916	46.283	0	2009.50	0	1.9620	0	34.5890	4	27.656	0	1983.425	0	48.9	4	14.7	4	-1E+10	1	-1E+10	1	-1E+10	1	-1E+10	1	-1E+10	1	-1E+10	1
4902642	46	C	09/22/2025	20:28	-131.916	46.283	0	2029.90	0	1.9480	0	34.5910	4	27.659	0	2003.464	0	49.9	4	15.0	4	-1E+10	1	-1E+10	1	-1E+10	1	-1E+10	1	-1E+10	1	-1E+10	1
4902642	46	C	09/22/2025	20:28	-131.916	46.283	0	2049.70	0	1.9350	0	34.5940	4	27.662	0	2022.913	0	50.8	4	15.3	4	-1E+10	1	-1E+10	1	-1E+10	1	-1E+10	1	-1E+10	1	-1E+10	1
4902642	46	C	09/22/2025	20:28	-131.916	46.283	0	2069.80	0	1.9230	0	34.5960	4	27.665	0	2042.654	0	51.8	4	15.6	4	-1E+10	1	-1E+10	1	-1E+10	1	-1E+10	1	-1E+10	1	-1E+10	1
4902642	46	C	09/22/2025	20:28	-131.916	46.283	0	2089.90	0	1.9100	0	34.5980	4	27.668	0	2062.393	0	52.7	4	15.8	4	-1E+10	1	-1E+10	1	-1E+10	1	-1E+10	1	-1E+10	1	-1E+10	1
4902642	46	C	09/22/2025	20:28	-131.916	46.283	0	2109.90	0	1.9010	0	34.5990	4	27.669	0	2082.032	0	53.2	4	16.0	4	-1E+10	1	-1E+10	1	-1E+10	1	-1E+10	1	-1E+10	1	-1E+10	1
4902642	46	C	09/22/2025	20:28	-131.916	46.283	0	2129.80	0	1.8950	0	34.6000	4	27.671	0	2101.572	0	53.7	4	16.2	4	-1E+10	1	-1E+10	1	-1E+10	1	-1E+10	1	-1E+10	1	-1E+10	1
4902642	46	C	09/22/2025	20:28	-131.916	46.283	0	2150.20	0	1.8870	0	34.6010	4	27.672	0	2121.600	0	54.3	4	16.3	4	-1E+10	1	-1E+10	1	-1E+10	1	-1E+10	1	-1E+10	1	-1E+10	1
4902642	46	C	09/22/2025	20:28	-131.916	46.283	0	2169.70	0	1.8780	0	34.6030	4	27.675	0	2140.743	0	55.2	4	16.6	4	-1E+10	1	-1E+10	1	-1E+10	1	-1E+10	1	-1E+10	1	-1E+10	1
4902642	46	C	09/22/2025	20:28	-131.916	46.283	0	2189.70	0	1.8690	0	34.6040	4	27.676	0	2160.375	0	56.0	4	16.8	4	-1E+10	1	-1E+10	1	-1E+10	1	-1E+10	1	-1E+10	1	-1E+10	1
4902642	46	C	09/22/2025	20:28	-131.916	46.283	0	2209.20	0	1.8590	0	34.6060	4	27.679	0	2179.515	0	56.9	4	17.1	4	-1E+10	1	-1E+10	1	-1E+10	1	-1E+10	1	-1E+10	1	-1E+10	1
4902642	46	C	09/22/2025	20:28	-131.916	46.283	0	2230.00	0	1.8520	0	34.6070	4	27.680	0	2199.928	0	57.6	4	17.3	4	-1E+10	1	-1E+10	1	-1E+10	1	-1E+10	1	-1E+10	1	-1E+10	1
4902642	46	C	09/22/2025	20:28	-131.916	46.283	0	2249.50	0	1.8450	0	34.6090	4	27.682	0	2219.064	0	58.4	4	17.6	4	-1E+10	1	-1E+10	1	-1E+10	1	-1E+10	1	-1E+10	1	-1E+10	1
4902642	46	C	09/22/2025	20:28	-131.916	46.283	0	2269.50	0	1.8370	0	34.6110	4	27.685	0	2238.689	0	59.2	4	17.8	4	-1E+10	1	-1E+10	1	-1E+10	1	-1E+10	1	-1E+10	1	-1E+10	1
4902642	46	C	09/22/2025	20:28	-131.916	46.283	0	2289.50	0	1.8300	0	34.6120	4	27.686	0	2258.312	0	60.0	4	18.0	4	-1E+10	1	-1E+10	1	-1E+10	1	-1E+10	1	-1E+10	1	-1E+10	1
4902642	46	C	09/22/2025	20:28	-131.916	46.283	0	2309.50	0	1.8200	0	34.6130	4	27.688	0	2277.934	0	61.0	4	18.3	4	-1E+10	1	-1E+10	1	-1E+10	1	-1E+10	1	-1E+10	1	-1E+10	1
4902642	46	C	09/22/2025	20:28	-131.916	46.283	0	2330.30	0	1.8100	0	34.6150	4	27.690	0	2298.338	0	61.9	4	18.6	4	-1E+10	1	-1E+10	1	-1E+10	1	-1E+10	1	-1E+10	1	-1E+10	1
4902642	46	C	09/22/2025	20:28	-131.916	46.283	0	2349.50	0	1.8040	0	34.6160	4	27.692	0	2317.171	0	62.5	4	18.8	4	-1E+10	1	-1E+10	1	-1E+10	1	-1E+10	1	-1E+10	1	-1E+10	1
4902642	46	C	09/22/2025	20:28	-131.916	46.283	0	2370.00	0	1.7980	0	34.6170	4	27.693	0	2337.277	0	63.3	4	19.0	4	-1E+10	1	-1E+10	1	-1E+10	1	-1E+10	1	-1E+10	1	-1E+10	1
4902642	46	C	09/22/2025	20:28	-131.916	46.283	0	2390.50	0	1.7890	0	34.6190	4	27.695	0	2357.382	0	64.1	4	19.2	4	-1E+10	1	-1E+10	1	-1E+10	1	-1E+10	1	-1E+10	1	-1E+10	1
4902642	46	C	09/22/2025	20:28	-131.916	46.283	0	2409.90	0	1.7830	0	34.6200	4	27.697	0	2376.405	0	64.9	4	19.5	4	-1E+10	1	-1E+10	1	-1E+10	1	-1E+10	1	-1E+10	1	-1E+10	1
4902642	46	C	09/22/2025	20:28	-131.916	46.283	0	2430.00	0	1.7760	0	34.6210	4	27.698	0	2396.114	0	65.7	4	19.7	4	-1E+10	1	-1E+10	1	-1E+10	1	-1E+10	1	-1E+10	1	-1E+10	1
4902642	46	C	09/22/2025	20:28	-131.916	46.283	0	2450.70	0	1.7690	0	34.6220	4	27.700	0	2416.409	0	66.6	4	20.0	4	-1E+10	1	-1E+10	1	-1E+10	1	-1E+10	1	-1E+10	1	-1E+10	1
4902642	46	C	09/22/2025	20:28	-131.916	46.283	0	2469.90	0	1.7610	0	34.6240	4	27.702	0	2435.231	0	67.5	4	20.2	4	-1E+10	1	-1E+10	1	-1E+10	1	-1E+10	1	-1E+10	1	-1E+10	1
4902642	46	C	09/22/2025	20:28	-131.916	46.283	0	2490.20	0	1.7540	0	34.6250	4	27.703	0	2455.131	0	68.3	4	20.5	4	-1E+10	1	-1E+10	1	-1E+10	1	-1E+10	1	-1E+10	1	-1E+10	1
4902642	46	C	09/22/2025	20:28	-131.916	46.283	0	2510.10	0	1.7470	0	34.6260	4	27.705	0	2474.636	0	69.1	4	20.7	4	-1E+10	1	-1E+10	1	-1E+10	1	-1E+10	1	-1E+10	1	-1E+10	1
4902642	46	C	09/22/2025	20:28	-131.916	46.283	0	2529.70	0	1.7430	0	34.6270	4	27.706	0	2493.845	0	69.7	4	20.9	4	-1E+10	1	-1E+10	1	-1E+10	1	-1E+10	1	-1E+10	1	-1E+10	1
4902642	46	C	09/22/2025	20:28	-131.916	46.283	0	2549.70	0	1.7370	0	34.6280	4	27.707	0	2513.445	0	70.5	4	21.1	4	-1E+10	1	-1E+10	1	-1E+10	1	-1E+10	1	-1E+10	1	-1E+10	1
4902642	46	C	09/22/2025	20:28	-131.916	46.283	0	2570.20	0	1.7300	0	34.6290	4	27.709	0	2533.533	0	71.2	4	21.3	4	-1E+10	1	-1E+10	1	-1E+10	1	-1E+10	1	-1E+10	1	-1E+10	1
4902642	46	C	09/22/2025	20:28	-131.916	46.283	0	2590.10	0	1.7260	0	34.6290	4	27.709	0	2553.031	0	71.9	4	21.5	4	-1E+10	1	-1E+10	1	-1E+10	1	-1E+10	1	-1E+10	1	-1E+10	1
4902642	46	C	09/22/2025	20:28	-131.916	46.283	0	2610.10	0	1.7210	0	34.6300	4	27.711	0	2572.626	0	72.7	4	21.8	4	-1E+10	1	-1E+10	1	-1E+10	1	-1E+10	1	-1E+10	1	-1E+10	1
4902642	46	C	09/22/2025	20:28	-131.916	46.283	0	2630.20	0	1.7140	0	34.6310	4	27.712	0	2592.316	0	73.6	4	22.0	4	-1E+10	1	-1E+10	1	-1E+10	1	-1E+10	1	-1E+10	1	-1E+10	1
4902642	46	C	09/22/2025	20:28	-131.916	46.283	0	2650.60	0	1.7080	0	34.6320	4	27.713	0	2612.299	0	74.3	4	22.2	4	-1E+10	1	-1E+10	1	-1E+10	1	-1E+10	1	-1E+10	1	-1E+10	1
4902642	46	C	09/22/2025	20:28	-131.916	46.283	0	2670.20	0	1.7020	0	34.6330	4	27.715	0	2631.496	0	75.0	4	22.5	4	-1E+10	1	-1E+10	1	-1E+10	1	-1E+10	1	-1E+10	1	-1E+10	1
4902642	46	C	09/22/2025	20:28	-131.916	46.283	0	2689.90	0	1.6970	0	34.6340	4	27.716	0	2650.789	0	75.6	4	22.6	4	-1E+10	1	-1E+10	1	-1E+10	1	-1E+10	1	-1E+10	1	-1E+10	1
4902642	46	C	09/22/2025	20:28	-131.916	46.283	0	2709.90	0	1.6940	0	34.6350	4	27.717	0	2670.375	0	76.1	4	22.8	4	-1E+10	1	-1E+10	1	-1E+10	1	-1E+10	1	-1E+10	1	-1E+10	1
4902642	46	C	09/22/2025	20:28	-131.916	46.283	0	2729.80	0	1.6890	0	34.6350	4	27.718	0	2689.861	0	76.8	4	23.0	4	-1E+10	1	-1E+10	1	-1E+10	1	-1E+10	1	-1E+10	1	-1E+10	1
4902642	46	C	09/22/2025	20:28	-131.916	46.283	0	2749.90	0	1.6850	0	34.6360	4	27.719	0	2709.540	0	77.3	4	23.1	4	-1E+10	1	-1E+10	1	-1E+10	1	-1E+10	1	-1E+10	1	-1E+10	1
4902642	46	C	09/22/2025	20:28	-131.916	46.283	0	2770.30	0	1.6820	0	34.6370	4	27.720	0	2729.512	0	77.9	4	23.3	4	-1E+10	1	-1E+10	1	-1E+10	1	-1E+10	1	-1E+10	1	-1E+10	1
4902642	46	C	09/22/2025	20:28	-131.916	46.283	0	2790.10	0	1.6790	0	34.6370	4	27.720	0	2748.895	0	78.4	4	23.5	4	-1E+10	1	-1E+10	1	-1E+10	1	-1E+10	1	-1E+10	1	-1E+10	1
4902642	46	C	09/22/2025	20:28	-131.916	46.283	0	2810.30	0	1.6740	0	34.6380	4	27.722	0	2768.667	0	79.1	4	23.7	4	-1E+10	1	-1E+10	1	-1E+10	1	-1E+10	1	-1E+10	1	-1E+10	1
4902642	46	C	09/22/2025	20:28	-131.916	46.283	0	2829.90	0	1.6700	0	34.6390	4	27.723	0	2787.850	0	79.6	4	23.8	4	-1E+10	1	-1E+10	1	-1E+10	1	-1E+10	1	-1E+10	1	-1E+10	1
4902642	46	C	09/22/2025	20:28	-131.916	46.283	0	2849.90	0	1.6660	0	34.6400	4	27.724	0	2807.423	0	80.3	4	24.0	4	-1E+10	1	-1E+10	1	-1E+10	1	-1E+10	1	-1E+10	1	-1E+10	1
4902642	46	C	09/22/2025	20:28	-131.916	46.283	0	2870.00	0	1.6630	0	34.6400	4	27.725	0	2827.092	0	80.8	4	24.2	4	-1E+10	1	-1E+10	1	-1E+10	1	-1E+10	1	-1E+10	1	-1E+10	1
4902642	46	C	09/22/2025	20:28	-131.916	46.283	0	2890.20	0	1.6590	0	34.6410	4	27.726	0	2846.858	0	81.5	4	24.4	4	-1E+10	1	-1E+10	1	-1E+10	1	-1E+10	1	-1E+10	1	-1E+10	1
4902642	46	C	09/22/2025	20:28	-131.916	46.283	0	2909.90	0	1.6550	0	34.6420	4	27.727	0	2866.132	0	82.0	4	24.5	4	-1E+10	1	-1E+10	1	-1E+10	1	-1E+10	1	-1E+10	1	-1E+10	1
4902642	46	C	09/22/2025	20:28	-131.916	46.283	0	2930.00	0	1.6520	0	34.6430	4	27.728	0	2885.796	0	82.5	4	24.7	4	-1E+10	1	-1E+10	1	-1E+10	1	-1E+10	1	-1E+10	1	-1E+10	1
4902642	46	C	09/22/2025	20:28	-131.916	46.283	0	2950.20	0	1.6500	0	34.6430	4	27.728	0	2905.555	0	83.0	4	24.8	4	-1E+10	1	-1E+10	1	-1E+10	1	-1E+10	1	-1E+10	1	-1E+10	1
4902642	46	C	09/22/2025	20:28	-131.916	46.283	0	2970.10	0	1.6470	0	34.6440	4	27.730	0	2925.020	0	83.5	4	25.0	4	-1E+10	1	-1E+10	1	-1E+10	1	-1E+10	1	-1E+10	1	-1E+10	1
4902642	46	C	09/22/2025	20:28	-131.916	46.283	0	2989.90	0	1.6440	0	34.6450	4	27.731	0	2944.385	0	84.0	4	25.1	4	-1E+10	1	-1E+10	1	-1E+10	1	-1E+10	1	-1E+10	1	-1E+10	1
4902642	46	C	09/22/2025	20:28	-131.916	46.283	0	3010.20	0	1.6410	0	34.6450	4	27.731	0	2964.237	0	84.7	4	25.3	4	-1E+10	1	-1E+10	1	-1E+10	1	-1E+10	1	-1E+10	1	-1E+10	1
4902642	46	C	09/22/2025	20:28	-131.916	46.283	0	3029.90	0	1.6350	0	34.6460	4	27.732	0	2983.501	0	85.5	4	25.6	4	-1E+10	1	-1E+10	1	-1E+10	1	-1E+10	1	-1E+10	1	-1E+10	1
4902642	46	C	09/22/2025	20:28	-131.916	46.283	0	3049.80	0	1.6310	0	34.6470	4	27.734	0	3002.959	0	86.2	4	25.8	4	-1E+10	1	-1E+10	1	-1E+10	1	-1E+10	1	-1E+10	1	-1E+10	1
4902642	46	C	09/22/2025	20:28	-131.916	46.283	0	3069.80	0	1.6270	0	34.6480	4	27.735	0	3022.512	0	86.8	4	26.0	4	-1E+10	1	-1E+10	1	-1E+10	1	-1E+10	1	-1E+10	1	-1E+10	1
4902642	46	C	09/22/2025	20:28	-131.916	46.283	0	3089.90	0	1.6240	0	34.6480	4	27.735	0	3042.162	0	87.5	4	26.1	4	-1E+10	1	-1E+10	1	-1E+10	1	-1E+10	1	-1E+10	1	-1E+10	1
4902642	46	C	09/22/2025	20:28	-131.916	46.283	0	3110.30	0	1.6200	0	34.6490	4	27.736	0	3062.103	0	88.2	4	26.4	4	-1E+10	1	-1E+10	1	-1E+10	1	-1E+10	1	-1E+10	1	-1E+10	1
4902642	46	C	09/22/2025	20:28	-131.916	46.283	0	3129.90	0	1.6140	0	34.6500	4	27.738	0	3081.260	0	89.2	4	26.6	4	-1E+10	1	-1E+10	1	-1E+10	1	-1E+10	1	-1E+10	1	-1E+10	1
4902642	46	C	09/22/2025	20:28	-131.916	46.283	0	3150.20	0	1.6080	0	34.6520	4	27.740	0	3101.100	0	90.0	4	26.9	4	-1E+10	1	-1E+10	1	-1E+10	1	-1E+10	1	-1E+10	1	-1E+10	1
4902642	46	C	09/22/2025	20:28	-131.916	46.283	0	3170.00	0	1.6020	0	34.6520	4	27.741	0	3120.449	0	90.8	4	27.1	4	-1E+10	1	-1E+10	1	-1E+10	1	-1E+10	1	-1E+10	1	-1E+10	1
4902642	46	C	09/22/2025	20:28	-131.916	46.283	0	3189.80	0	1.5970	0	34.6530	4	27.742	0	3139.797	0	91.6	4	27.4	4	-1E+10	1	-1E+10	1	-1E+10	1	-1E+10	1	-1E+10	1	-1E+10	1
4902642	46	C	09/22/2025	20:28	-131.916	46.283	0	3210.20	0	1.5930	0	34.6540	4	27.743	0	3159.729	0	92.4	4	27.6	4	-1E+10	1	-1E+10	1	-1E+10	1	-1E+10	1	-1E+10	1	-1E+10	1
4902642	46	C	09/22/2025	20:28	-131.916	46.283	0	3229.90	0	1.5880	0	34.6550	4	27.744	0	3178.976	0	93.1	4	27.8	4	-1E+10	1	-1E+10	1	-1E+10	1	-1E+10	1	-1E+10	1	-1E+10	1
4902642	46	C	09/22/2025	20:28	-131.916	46.283	0	3249.70	0	1.5830	0	34.6560	4	27.746	0	3198.318	0	93.8	4	28.0	4	-1E+10	1	-1E+10	1	-1E+10	1	-1E+10	1	-1E+10	1	-1E+10	1
4902642	46	C	09/22/2025	20:28	-131.916	46.283	0	3269.90	0	1.5780	0	34.6570	4	27.747	0	3218.049	0	94.7	4	28.3	4	-1E+10	1	-1E+10	1	-1E+10	1	-1E+10	1	-1E+10	1	-1E+10	1
4902642	46	C	09/22/2025	20:28	-131.916	46.283	0	3290.20	0	1.5720	0	34.6580	4	27.748	0	3237.877	0	95.5	4	28.5	4	-1E+10	1	-1E+10	1	-1E+10	1	-1E+10	1	-1E+10	1	-1E+10	1
4902642	46	C	09/22/2025	20:28	-131.916	46.283	0	3310.60	0	1.5670	0	34.6600	4	27.750	0	3257.800	0	96.1	4	28.7	4	-1E+10	1	-1E+10	1	-1E+10	1	-1E+10	1	-1E+10	1	-1E+10	1
4902642	46	C	09/22/2025	20:28	-131.916	46.283	0	3329.90	0	1.5640	0	34.6600	4	27.751	0	3276.647	0	96.4	4	28.8	4	-1E+10	1	-1E+10	1	-1E+10	1	-1E+10	1	-1E+10	1	-1E+10	1
4902642	46	C	09/22/2025	20:28	-131.916	46.283	0	3349.80	0	1.5650	0	34.6610	4	27.752	0	3296.079	0	96.4	4	28.8	4	-1E+10	1	-1E+10	1	-1E+10	1	-1E+10	1	-1E+10	1	-1E+10	1
4902642	46	C	09/22/2025	20:28	-131.916	46.283	0	3368.60	0	1.5660	0	34.6610	4	27.752	0	3314.435	0	96.4	4	28.8	4	-1E+10	1	-1E+10	1	-1E+10	1	-1E+10	1	-1E+10	1	-1E+10	1
4902642	46	C	09/22/2025	20:28	-131.916	46.283	0	3377.80	0	1.5670	0	34.6610	4	27.752	0	3323.416	0	96.4	4	28.8	4	-1E+10	1	-1E+10	1	-1E+10	1	-1E+10	1	-1E+10	1	-1E+10	1
4902642	46	C	09/22/2025	20:28	-131.916	46.283	0	3378.70	0	1.5670	0	34.6610	4	27.752	0	3324.295	0	96.4	4	28.8	4	-1E+10	1	-1E+10	1	-1E+10	1	-1E+10	1	-1E+10	1	-1E+10	1
4902642	46	C	09/22/2025	20:28	-131.916	46.283	0	3379.50	0	1.5670	0	34.6610	4	27.752	0	3325.076	0	96.4	4	28.8	4	-1E+10	1	-1E+10	1	-1E+10	1	-1E+10	1	-1E+10	1	-1E+10	1
4902642	46	C	09/22/2025	20:28	-131.916	46.283	0	3380.40	0	1.5670	0	34.6610	4	27.752	0	3325.955	0	96.4	4	28.8	4	-1E+10	1	-1E+10	1	-1E+10	1	-1E+10	1	-1E+10	1	-1E+10	1
4902642	46	C	09/22/2025	20:28	-131.916	46.283	0	3381.40	0	1.5670	0	34.6610	4	27.752	0	3326.931	0	96.4	4	28.8	4	-1E+10	1	-1E+10	1	-1E+10	1	-1E+10	1	-1E+10	1	-1E+10	1
4902642	46	C	09/22/2025	20:28	-131.916	46.283	0	3382.30	0	1.5680	0	34.6610	4	27.752	0	3327.810	0	96.4	4	28.8	4	-1E+10	1	-1E+10	1	-1E+10	1	-1E+10	1	-1E+10	1	-1E+10	1
4902642	46	C	09/22/2025	20:28	-131.916	46.283	0	3383.20	0	1.5680	0	34.6610	4	27.752	0	3328.688	0	96.4	4	28.8	4	-1E+10	1	-1E+10	1	-1E+10	1	-1E+10	1	-1E+10	1	-1E+10	1
4902642	46	C	09/22/2025	20:28	-131.916	46.283	0	3384.50	0	1.5680	0	34.6610	4	27.752	0	3329.957	0	96.4	4	28.8	4	-1E+10	1	-1E+10	1	-1E+10	1	-1E+10	1	-1E+10	1	-1E+10	1
4902642	46	C	09/22/2025	20:28	-131.916	46.283	0	3385.80	0	1.5680	0	34.6610	4	27.752	0	3331.227	0	96.4	4	28.8	4	-1E+10	1	-1E+10	1	-1E+10	1	-1E+10	1	-1E+10	1	-1E+10	1
4902642	46	C	09/22/2025	20:28	-131.916	46.283	0	3386.70	0	1.5680	0	34.6610	4	27.752	0	3332.105	0	96.4	4	28.8	4	-1E+10	1	-1E+10	1	-1E+10	1	-1E+10	1	-1E+10	1	-1E+10	1
4902642	46	C	09/22/2025	20:28	-131.916	46.283	0	3387.60	0	1.5680	0	34.6610	4	27.752	0	3332.984	0	96.3	4	28.8	4	-1E+10	1	-1E+10	1	-1E+10	1	-1E+10	1	-1E+10	1	-1E+10	1
4902642	46	C	09/22/2025	20:28	-131.916	46.283	0	3388.50	0	1.5680	0	34.6610	4	27.752	0	3333.862	0	96.3	4	28.8	4	-1E+10	1	-1E+10	1	-1E+10	1	-1E+10	1	-1E+10	1	-1E+10	1
4902642	46	C	09/22/2025	20:28	-131.916	46.283	0	3389.40	0	1.5680	0	34.6610	4	27.752	0	3334.741	0	96.3	4	28.8	4	-1E+10	1	-1E+10	1	-1E+10	1	-1E+10	1	-1E+10	1	-1E+10	1
4902642	46	C	09/22/2025	20:28	-131.916	46.283	0	3390.30	0	1.5690	0	34.6610	4	27.752	0	3335.620	0	96.4	4	28.8	4	-1E+10	1	-1E+10	1	-1E+10	1	-1E+10	1	-1E+10	1	-1E+10	1
4902642	46	C	09/22/2025	20:28	-131.916	46.283	0	3391.50	0	1.5680	0	34.6610	4	27.752	0	3336.791	0	96.3	4	28.8	4	-1E+10	1	-1E+10	1	-1E+10	1	-1E+10	1	-1E+10	1	-1E+10	1
4902642	46	C	09/22/2025	20:28	-131.916	46.283	0	3393.00	0	1.5690	0	34.6610	4	27.752	0	3338.256	0	96.4	4	28.8	4	-1E+10	1	-1E+10	1	-1E+10	1	-1E+10	1	-1E+10	1	-1E+10	1
4902642	46	C	09/22/2025	20:28	-131.916	46.283	0	3393.90	0	1.5690	0	34.6610	4	27.752	0	3339.134	0	96.4	4	28.8	4	-1E+10	1	-1E+10	1	-1E+10	1	-1E+10	1	-1E+10	1	-1E+10	1
4902642	46	C	09/22/2025	20:28	-131.916	46.283	0	3394.80	0	1.5690	0	34.6610	4	27.752	0	3340.013	0	96.4	4	28.8	4	-1E+10	1	-1E+10	1	-1E+10	1	-1E+10	1	-1E+10	1	-1E+10	1
4902642	46	C	09/22/2025	20:28	-131.916	46.283	0	3395.70	0	1.5690	0	34.6610	4	27.752	0	3340.891	0	96.3	4	28.8	4	-1E+10	1	-1E+10	1	-1E+10	1	-1E+10	1	-1E+10	1	-1E+10	1
4902642	46	C	09/22/2025	20:28	-131.916	46.283	0	3396.60	0	1.5690	0	34.6610	4	27.752	0	3341.770	0	96.4	4	28.8	4	-1E+10	1	-1E+10	1	-1E+10	1	-1E+10	1	-1E+10	1	-1E+10	1
4902642	46	C	09/22/2025	20:28	-131.916	46.283	0	3397.60	0	1.5690	0	34.6610	4	27.752	0	3342.746	0	96.3	4	28.8	4	-1E+10	1	-1E+10	1	-1E+10	1	-1E+10	1	-1E+10	1	-1E+10	1
4902642	46	C	09/22/2025	20:28	-131.916	46.283	0	3398.40	0	1.5690	0	34.6610	4	27.752	0	3343.527	0	96.3	4	28.7	4	-1E+10	1	-1E+10	1	-1E+10	1	-1E+10	1	-1E+10	1	-1E+10	1
4902642	46	C	09/22/2025	20:28	-131.916	46.283	0	3399.40	0	1.5690	0	34.6610	4	27.752	0	3344.503	0	96.3	4	28.8	4	-1E+10	1	-1E+10	1	-1E+10	1	-1E+10	1	-1E+10	1	-1E+10	1
4902642	46	C	09/22/2025	20:28	-131.916	46.283	0	3400.20	0	1.5690	0	34.6610	4	27.752	0	3345.284	0	96.3	4	28.7	4	-1E+10	1	-1E+10	1	-1E+10	1	-1E+10	1	-1E+10	1	-1E+10	1
4902642	46	C	09/22/2025	20:28	-131.916	46.283	0	3401.10	0	1.5700	0	34.6610	4	27.752	0	3346.163	0	96.3	4	28.7	4	-1E+10	1	-1E+10	1	-1E+10	1	-1E+10	1	-1E+10	1	-1E+10	1
4902642	46	C	09/22/2025	20:28	-131.916	46.283	0	3402.50	0	1.5690	0	34.6610	4	27.752	0	3347.529	0	96.3	4	28.7	4	-1E+10	1	-1E+10	1	-1E+10	1	-1E+10	1	-1E+10	1	-1E+10	1
4902642	46	C	09/22/2025	20:28	-131.916	46.283	0	3403.80	0	1.5700	0	34.6610	4	27.752	0	3348.799	0	96.3	4	28.8	4	-1E+10	1	-1E+10	1	-1E+10	1	-1E+10	1	-1E+10	1	-1E+10	1
4902642	46	C	09/22/2025	20:28	-131.916	46.283	0	3404.80	0	1.5700	0	34.6610	4	27.752	0	3349.775	0	96.3	4	28.7	4	-1E+10	1	-1E+10	1	-1E+10	1	-1E+10	1	-1E+10	1	-1E+10	1
4902642	46	C	09/22/2025	20:28	-131.916	46.283	0	3405.70	0	1.5700	0	34.6610	4	27.752	0	3350.653	0	96.3	4	28.7	4	-1E+10	1	-1E+10	1	-1E+10	1	-1E+10	1	-1E+10	1	-1E+10	1
4902642	46	C	09/22/2025	20:28	-131.916	46.283	0	3406.60	0	1.5700	0	34.6610	4	27.752	0	3351.532	0	96.3	4	28.7	4	-1E+10	1	-1E+10	1	-1E+10	1	-1E+10	1	-1E+10	1	-1E+10	1
4902642	46	C	09/22/2025	20:28	-131.916	46.283	0	3407.50	0	1.5700	0	34.6610	4	27.752	0	3352.410	0	96.3	4	28.7	4	-1E+10	1	-1E+10	1	-1E+10	1	-1E+10	1	-1E+10	1	-1E+10	1
4902642	46	C	09/22/2025	20:28	-131.916	46.283	0	3408.30	0	1.5700	0	34.6610	4	27.752	0	3353.191	0	96.3	4	28.7	4	-1E+10	1	-1E+10	1	-1E+10	1	-1E+10	1	-1E+10	1	-1E+10	1
4902642	46	C	09/22/2025	20:28	-131.916	46.283	0	3409.20	0	1.5700	0	34.6610	4	27.752	0	3354.070	0	96.3	4	28.7	4	-1E+10	1	-1E+10	1	-1E+10	1	-1E+10	1	-1E+10	1	-1E+10	1
4902642	46	C	09/22/2025	20:28	-131.916	46.283	0	3410.20	0	1.5700	0	34.6610	4	27.752	0	3355.046	0	96.4	4	28.8	4	-1E+10	1	-1E+10	1	-1E+10	1	-1E+10	1	-1E+10	1	-1E+10	1
4902642	46	C	09/22/2025	20:28	-131.916	46.283	0	3411.50	0	1.5700	0	34.6610	4	27.752	0	3356.315	0	96.3	4	28.7	4	-1E+10	1	-1E+10	1	-1E+10	1	-1E+10	1	-1E+10	1	-1E+10	1
4902642	46	C	09/22/2025	20:28	-131.916	46.283	0	3412.90	0	1.5710	0	34.6610	4	27.752	0	3357.681	0	96.3	4	28.7	4	-1E+10	1	-1E+10	1	-1E+10	1	-1E+10	1	-1E+10	1	-1E+10	1
4902642	46	C	09/22/2025	20:28	-131.916	46.283	0	3413.90	0	1.5710	0	34.6610	4	27.752	0	3358.658	0	96.3	4	28.7	4	-1E+10	1	-1E+10	1	-1E+10	1	-1E+10	1	-1E+10	1	-1E+10	1
4902642	46	C	09/22/2025	20:28	-131.916	46.283	0	3414.70	0	1.5710	0	34.6610	4	27.752	0	3359.438	0	96.3	4	28.7	4	-1E+10	1	-1E+10	1	-1E+10	1	-1E+10	1	-1E+10	1	-1E+10	1
4902642	46	C	09/22/2025	20:28	-131.916	46.283	0	3415.70	0	1.5710	0	34.6610	4	27.752	0	3360.415	0	96.2	4	28.7	4	-1E+10	1	-1E+10	1	-1E+10	1	-1E+10	1	-1E+10	1	-1E+10	1
4902642	46	C	09/22/2025	20:28	-131.916	46.283	0	3416.50	0	1.5710	0	34.6610	4	27.752	0	3361.196	0	96.2	4	28.7	4	-1E+10	1	-1E+10	1	-1E+10	1	-1E+10	1	-1E+10	1	-1E+10	1
4902642	46	C	09/22/2025	20:28	-131.916	46.283	0	3417.90	0	1.5710	0	34.6610	4	27.752	0	3362.562	0	96.3	4	28.7	4	-1E+10	1	-1E+10	1	-1E+10	1	-1E+10	1	-1E+10	1	-1E+10	1
4902642	46	C	09/22/2025	20:28	-131.916	46.283	0	3418.60	0	1.5710	0	34.6610	4	27.752	0	3363.245	0	96.2	4	28.7	4	-1E+10	1	-1E+10	1	-1E+10	1	-1E+10	1	-1E+10	1	-1E+10	1
4902642	46	C	09/22/2025	20:28	-131.916	46.283	0	3419.40	0	1.5710	0	34.6610	4	27.752	0	3364.026	0	96.2	4	28.7	4	-1E+10	1	-1E+10	1	-1E+10	1	-1E+10	1	-1E+10	1	-1E+10	1
4902642	46	C	09/22/2025	20:28	-131.916	46.283	0	3420.50	0	1.5710	0	34.6610	4	27.752	0	3365.100	0	96.2	4	28.7	4	-1E+10	1	-1E+10	1	-1E+10	1	-1E+10	1	-1E+10	1	-1E+10	1
4902642	46	C	09/22/2025	20:28	-131.916	46.283	0	3421.60	0	1.5710	0	34.6610	4	27.752	0	3366.174	0	96.2	4	28.7	4	-1E+10	1	-1E+10	1	-1E+10	1	-1E+10	1	-1E+10	1	-1E+10	1
4902642	46	C	09/22/2025	20:28	-131.916	46.283	0	3422.60	0	1.5720	0	34.6610	4	27.752	0	3367.150	0	96.2	4	28.7	4	-1E+10	1	-1E+10	1	-1E+10	1	-1E+10	1	-1E+10	1	-1E+10	1
4902642	46	C	09/22/2025	20:28	-131.916	46.283	0	3423.70	0	1.5710	0	34.6610	4	27.752	0	3368.223	0	96.1	4	28.7	4	-1E+10	1	-1E+10	1	-1E+10	1	-1E+10	1	-1E+10	1	-1E+10	1
4902642	46	C	09/22/2025	20:28	-131.916	46.283	0	3424.40	0	1.5720	0	34.6610	4	27.752	0	3368.907	0	96.1	4	28.7	4	-1E+10	1	-1E+10	1	-1E+10	1	-1E+10	1	-1E+10	1	-1E+10	1
4902642	46	C	09/22/2025	20:28	-131.916	46.283	0	3425.70	0	1.5720	0	34.6610	4	27.752	0	3370.176	0	96.0	4	28.7	4	-1E+10	1	-1E+10	1	-1E+10	1	-1E+10	1	-1E+10	1	-1E+10	1
4902642	46	C	09/22/2025	20:28	-131.916	46.283	0	3426.60	0	1.5720	0	34.6610	4	27.752	0	3371.054	0	96.0	4	28.7	4	-1E+10	1	-1E+10	1	-1E+10	1	-1E+10	1	-1E+10	1	-1E+10	1
4902642	46	C	09/22/2025	20:28	-131.916	46.283	0																										
4902642	47	C	10/02/2025	16:58	-132.035	46.341	0	1.30	0	17.1070	0	32.3200	0	23.434	0	1.289	0	220.3	4	90.9	4	-1E+10	1	-1E+10	1	-1E+10	1	-1E+10	1	-1E+10	1	-1E+10	1
4902642	47	C	10/02/2025	16:58	-132.035	46.341	0	1.40	0	17.1060	0	32.3210	0	23.435	0	1.388	0	219.7	4	90.7	4	-1E+10	1	-1E+10	1	-1E+10	1	-1E+10	1	-1E+10	1	-1E+10	1
4902642	47	C	10/02/2025	16:58	-132.035	46.341	0	1.50	0	17.1050	0	32.3230	0	23.437	0	1.488	0	220.0	4	90.8	4	-1E+10	1	-1E+10	1	-1E+10	1	-1E+10	1	-1E+10	1	-1E+10	1
4902642	47	C	10/02/2025	16:58	-132.035	46.341	0	1.60	0	17.1070	0	32.3200	0	23.434	0	1.587	0	219.9	4	90.8	4	-1E+10	1	-1E+10	1	-1E+10	1	-1E+10	1	-1E+10	1	-1E+10	1
4902642	47	C	10/02/2025	16:58	-132.035	46.341	0	1.80	0	17.1043	0	32.3197	0	23.435	0	1.785	0	220.0	4	90.8	4	-1E+10	1	-1E+10	1	-1E+10	1	-1E+10	1	-1E+10	1	-1E+10	1
4902642	47	C	10/02/2025	16:58	-132.035	46.341	0	1.90	0	17.0970	0	32.3270	0	23.442	0	1.884	0	219.8	4	90.7	4	-1E+10	1	-1E+10	1	-1E+10	1	-1E+10	1	-1E+10	1	-1E+10	1
4902642	47	C	10/02/2025	16:58	-132.035	46.341	0	2.00	0	17.1090	0	32.3190	0	23.433	0	1.984	0	220.1	4	90.8	4	-1E+10	1	-1E+10	1	-1E+10	1	-1E+10	1	-1E+10	1	-1E+10	1
4902642	47	C	10/02/2025	16:58	-132.035	46.341	0	2.40	0	17.1070	0	32.3200	0	23.434	0	2.380	0	219.8	4	90.7	4	-1E+10	1	-1E+10	1	-1E+10	1	-1E+10	1	-1E+10	1	-1E+10	1
4902642	47	C	10/02/2025	16:58	-132.035	46.341	0	3.40	0	17.1080	0	32.3200	0	23.434	0	3.372	0	219.6	4	90.6	4	-1E+10	1	-1E+10	1	-1E+10	1	-1E+10	1	-1E+10	1	-1E+10	1
4902642	47	C	10/02/2025	16:58	-132.035	46.341	0	4.80	0	17.1140	0	32.3190	0	23.432	0	4.760	0	219.6	4	90.6	4	-1E+10	1	-1E+10	1	-1E+10	1	-1E+10	1	-1E+10	1	-1E+10	1
4902642	47	C	10/02/2025	16:58	-132.035	46.341	0	5.70	0	17.1140	0	32.3200	0	23.433	0	5.653	0	219.6	4	90.6	4	-1E+10	1	-1E+10	1	-1E+10	1	-1E+10	1	-1E+10	1	-1E+10	1
4902642	47	C	10/02/2025	16:58	-132.035	46.341	0	6.60	0	17.1130	0	32.3200	0	23.433	0	6.546	0	219.6	4	90.6	4	-1E+10	1	-1E+10	1	-1E+10	1	-1E+10	1	-1E+10	1	-1E+10	1
4902642	47	C	10/02/2025	16:58	-132.035	46.341	0	7.60	0	17.1120	0	32.3200	0	23.433	0	7.537	0	219.6	4	90.7	4	-1E+10	1	-1E+10	1	-1E+10	1	-1E+10	1	-1E+10	1	-1E+10	1
4902642	47	C	10/02/2025	16:58	-132.035	46.341	0	8.60	0	17.1130	0	32.3190	0	23.432	0	8.529	0	219.6	4	90.6	4	-1E+10	1	-1E+10	1	-1E+10	1	-1E+10	1	-1E+10	1	-1E+10	1
4902642	47	C	10/02/2025	16:58	-132.035	46.341	0	9.80	0	17.1130	0	32.3190	0	23.433	0	9.719	0	219.5	4	90.6	4	-1E+10	1	-1E+10	1	-1E+10	1	-1E+10	1	-1E+10	1	-1E+10	1
4902642	47	C	10/02/2025	16:58	-132.035	46.341	0	14.90	0	17.1130	0	32.3190	0	23.433	0	14.777	0	219.5	4	90.6	4	-1E+10	1	-1E+10	1	-1E+10	1	-1E+10	1	-1E+10	1	-1E+10	1
4902642	47	C	10/02/2025	16:58	-132.035	46.341	0	24.80	0	17.1130	0	32.3190	0	23.433	0	24.594	0	219.5	4	90.6	4	-1E+10	1	-1E+10	1	-1E+10	1	-1E+10	1	-1E+10	1	-1E+10	1
4902642	47	C	10/02/2025	16:58	-132.035	46.341	0	34.80	0	17.1150	0	32.3190	0	23.433	0	34.510	0	220.3	4	90.9	4	-1E+10	1	-1E+10	1	-1E+10	1	-1E+10	1	-1E+10	1	-1E+10	1
4902642	47	C	10/02/2025	16:58	-132.035	46.341	0	44.70	0	16.9860	0	32.3120	0	23.458	0	44.327	0	226.5	4	93.2	4	-1E+10	1	-1E+10	1	-1E+10	1	-1E+10	1	-1E+10	1	-1E+10	1
4902642	47	C	10/02/2025	16:58	-132.035	46.341	0	54.50	0	13.3530	0	32.3600	0	24.281	0	54.044	0	247.9	4	95.0	4	-1E+10	1	-1E+10	1	-1E+10	1	-1E+10	1	-1E+10	1	-1E+10	1
4902642	47	C	10/02/2025	16:58	-132.035	46.341	0	64.50	0	11.3770	0	32.3560	0	24.652	0	63.959	0	245.4	4	90.3	4	-1E+10	1	-1E+10	1	-1E+10	1	-1E+10	1	-1E+10	1	-1E+10	1
4902642	47	C	10/02/2025	16:58	-132.035	46.341	0	74.80	0	10.1380	0	32.3530	0	24.865	0	74.170	0	238.8	4	85.6	4	-1E+10	1	-1E+10	1	-1E+10	1	-1E+10	1	-1E+10	1	-1E+10	1
4902642	47	C	10/02/2025	16:58	-132.035	46.341	0	85.10	0	9.2860	0	32.3870	0	25.030	0	84.381	0	228.8	4	80.5	4	-1E+10	1	-1E+10	1	-1E+10	1	-1E+10	1	-1E+10	1	-1E+10	1
4902642	47	C	10/02/2025	16:58	-132.035	46.341	0	94.90	0	8.8280	0	32.5020	0	25.191	0	94.096	0	213.2	4	74.3	4	-1E+10	1	-1E+10	1	-1E+10	1	-1E+10	1	-1E+10	1	-1E+10	1
4902642	47	C	10/02/2025	16:58	-132.035	46.341	0	105.10	0	8.4900	0	32.7330	0	25.423	0	104.207	0	194.7	4	67.5	4	-1E+10	1	-1E+10	1	-1E+10	1	-1E+10	1	-1E+10	1	-1E+10	1
4902642	47	C	10/02/2025	16:58	-132.035	46.341	0	114.60	0	8.1560	0	32.9800	0	25.667	0	113.624	0	178.1	4	61.4	4	-1E+10	1	-1E+10	1	-1E+10	1	-1E+10	1	-1E+10	1	-1E+10	1
4902642	47	C	10/02/2025	16:58	-132.035	46.341	0	124.70	0	7.9200	0	33.1550	0	25.839	0	123.635	0	164.3	4	56.4	4	-1E+10	1	-1E+10	1	-1E+10	1	-1E+10	1	-1E+10	1	-1E+10	1
4902642	47	C	10/02/2025	16:58	-132.035	46.341	0	134.90	0	7.7120	0	33.3580	0	26.028	0	133.745	0	150.1	4	51.3	4	-1E+10	1	-1E+10	1	-1E+10	1	-1E+10	1	-1E+10	1	-1E+10	1
4902642	47	C	10/02/2025	16:58	-132.035	46.341	0	144.90	0	7.5070	0	33.5330	0	26.195	0	143.656	0	140.8	4	48.0	4	-1E+10	1	-1E+10	1	-1E+10	1	-1E+10	1	-1E+10	1	-1E+10	1
4902642	47	C	10/02/2025	16:58	-132.035	46.341	0	155.10	0	7.3110	0	33.6370	0	26.305	0	153.764	0	136.7	4	46.4	4	-1E+10	1	-1E+10	1	-1E+10	1	-1E+10	1	-1E+10	1	-1E+10	1
4902642	47	C	10/02/2025	16:58	-132.035	46.341	0	165.10	0	7.2420	0	33.6800	0	26.348	0	163.674	0	134.3	4	45.6	4	-1E+10	1	-1E+10	1	-1E+10	1	-1E+10	1	-1E+10	1	-1E+10	1
4902642	47	C	10/02/2025	16:58	-132.035	46.341	0	174.20	0	7.1260	0	33.7160	0	26.393	0	172.692	0	131.1	4	44.4	4	-1E+10	1	-1E+10	1	-1E+10	1	-1E+10	1	-1E+10	1	-1E+10	1
4902642	47	C	10/02/2025	16:58	-132.035	46.341	0	184.70	0	7.0220	0	33.7690	0	26.449	0	183.096	0	125.5	4	42.4	4	-1E+10	1	-1E+10	1	-1E+10	1	-1E+10	1	-1E+10	1	-1E+10	1
4902642	47	C	10/02/2025	16:58	-132.035	46.341	0	194.30	0	6.9020	0	33.7910	0	26.482	0	192.608	0	124.2	4	41.8	4	-1E+10	1	-1E+10	1	-1E+10	1	-1E+10	1	-1E+10	1	-1E+10	1
4902642	47	C	10/02/2025	16:58	-132.035	46.341	0	209.00	0	6.7010	0	33.8080	0	26.523	0	207.173	0	119.2	4	40.0	4	-1E+10	1	-1E+10	1	-1E+10	1	-1E+10	1	-1E+10	1	-1E+10	1
4902642	47	C	10/02/2025	16:58	-132.035	46.341	0	229.60	0	6.5230	0	33.8330	0	26.566	0	227.582	0	110.6	4	37.0	4	-1E+10	1	-1E+10	1	-1E+10	1	-1E+10	1	-1E+10	1	-1E+10	1
4902642	47	C	10/02/2025	16:58	-132.035	46.341	0	249.70	0	6.3330	0	33.8510	0	26.605	0	247.493	0	97.9	4	32.6	4	-1E+10	1	-1E+10	1	-1E+10	1	-1E+10	1	-1E+10	1	-1E+10	1
4902642	47	C	10/02/2025	16:58	-132.035	46.341	0	270.00	0	6.1380	0	33.8710	0	26.646	0	267.600	0	91.1	4	30.2	4	-1E+10	1	-1E+10	1	-1E+10	1	-1E+10	1	-1E+10	1	-1E+10	1
4902642	47	C	10/02/2025	16:58	-132.035	46.341	0	289.70	0	5.8470	0	33.8620	0	26.676	0	287.112	0	90.6	4	29.8	4	-1E+10	1	-1E+10	1	-1E+10	1	-1E+10	1	-1E+10	1	-1E+10	1
4902642	47	C	10/02/2025	16:58	-132.035	46.341	0	309.50	0	5.7030	0	33.8700	0	26.700	0	306.720	0	81.3	4	26.7	4	-1E+10	1	-1E+10	1	-1E+10	1	-1E+10	1	-1E+10	1	-1E+10	1
4902642	47	C	10/02/2025	16:58	-132.035	46.341	0	329.50	0	5.6180	0	33.9020	0	26.736	0	326.525	0	69.0	4	22.6	4	-1E+10	1	-1E+10	1	-1E+10	1	-1E+10	1	-1E+10	1	-1E+10	1
4902642	47	C	10/02/2025	16:58	-132.035	46.341	0	349.60	0	5.4720	0	33.9210	0	26.768	0	346.426	0	61.5	4	20.1	4	-1E+10	1	-1E+10	1	-1E+10	1	-1E+10	1	-1E+10	1	-1E+10	1
4902642	47	C	10/02/2025	16:58	-132.035	46.341	0	369.90	0	5.3650	0	33.9430	0	26.799	0	366.524	0	56.1	4	18.3	4	-1E+10	1	-1E+10	1	-1E+10	1	-1E+10	1	-1E+10	1	-1E+10	1
4902642	47	C	10/02/2025	16:58	-132.035	46.341	0	389.80	0	5.2210	0	33.9450	0	26.817	0	386.224	0	53.6	4	17.4	4	-1E+10	1	-1E+10	1	-1E+10	1	-1E+10	1	-1E+10	1	-1E+10	1
4902642	47	C	10/02/2025	16:58	-132.035	46.341	0	409.50	0	5.0990	0	33.9610	0	26.844	0	405.724	0	48.3	4	15.6	4	-1E+10	1	-1E+10	1	-1E+10	1	-1E+10	1	-1E+10	1	-1E+10	1
4902642	47	C	10/02/2025	16:58	-132.035	46.341	0	430.40	0	5.0000	0	33.9790	0	26.870	0	426.410	0	43.2	4	13.9	4	-1E+10	1	-1E+10	1	-1E+10	1	-1E+10	1	-1E+10	1	-1E+10	1
4902642	47	C	10/02/2025	16:58	-132.035	46.341	0	449.90	0	5.0410	0	34.0110	0	26.891	0	445.708	0	37.5	4	12.1	4	-1E+10	1	-1E+10	1	-1E+10	1	-1E+10	1	-1E+10	1	-1E+10	1
4902642	47	C	10/02/2025	16:58	-132.035	46.341	0	470.50	0	4.9600	0	34.0270	0	26.913	0	466.093	0	34.3	4	11.1	4	-1E+10	1	-1E+10	1	-1E+10	1	-1E+10	1	-1E+10	1	-1E+10	1
4902642	47	C	10/02/2025	16:58	-132.035	46.341	0	489.90	0	4.9260	0	34.0490	0	26.934	0	485.289	0	29.5	4	9.5	4	-1E+10	1	-1E+10	1	-1E+10	1	-1E+10	1	-1E+10	1	-1E+10	1
4902642	47	C	10/02/2025	16:58	-132.035	46.341	0	510.00	0	4.8720	0	34.0660	0	26.954	0	505.175	0	26.5	4	8.5	4	-1E+10	1	-1E+10	1	-1E+10	1	-1E+10	1	-1E+10	1	-1E+10	1
4902642	47	C	10/02/2025	16:58	-132.035	46.341	0	529.60	0	4.8440	0	34.0800	0	26.968	0	524.565	0	24.0	4	7.7	4	-1E+10	1	-1E+10	1	-1E+10	1	-1E+10	1	-1E+10	1	-1E+10	1
4902642	47	C	10/02/2025	16:58	-132.035	46.341	0	549.80	0	4.7800	0	34.1010	0	26.992	0	544.546	0	19.8	4	6.4	4	-1E+10	1	-1E+10	1	-1E+10	1	-1E+10	1	-1E+10	1	-1E+10	1
4902642	47	C	10/02/2025	16:58	-132.035	46.341	0	569.90	0	4.7680	0	34.1300	0	27.017	0	564.427	0	16.5	4	5.3	4	-1E+10	1	-1E+10	1	-1E+10	1	-1E+10	1	-1E+10	1	-1E+10	1
4902642	47	C	10/02/2025	16:58	-132.035	46.341	0	589.60	0	4.6800	0	34.1520	0	27.044	0	583.910	0	13.7	4	4.4	4	-1E+10	1	-1E+10	1	-1E+10	1	-1E+10	1	-1E+10	1	-1E+10	1
4902642	47	C	10/02/2025	16:58	-132.035	46.341	0	609.60	0	4.4860	0	34.1840	0	27.091	0	603.688	0	11.2	4	3.6	4	-1E+10	1	-1E+10	1	-1E+10	1	-1E+10	1	-1E+10	1	-1E+10	1
4902642	47	C	10/02/2025	16:58	-132.035	46.341	0	629.70	0	4.3500	0	34.2080	0	27.125	0	623.563	0	9.6	4	3.1	4	-1E+10	1	-1E+10	1	-1E+10	1	-1E+10	1	-1E+10	1	-1E+10	1
4902642	47	C	10/02/2025	16:58	-132.035	46.341	0	650.50	0	4.2530	0	34.2270	0	27.150	0	644.128	0	8.6	4	2.7	4	-1E+10	1	-1E+10	1	-1E+10	1	-1E+10	1	-1E+10	1	-1E+10	1
4902642	47	C	10/02/2025	16:58	-132.035	46.341	0	669.90	0	4.2120	0	34.2360	0	27.162	0	663.307	0	8.0	4	2.5	4	-1E+10	1	-1E+10	1	-1E+10	1	-1E+10	1	-1E+10	1	-1E+10	1
4902642	47	C	10/02/2025	16:58	-132.035	46.341	0	689.90	0	4.1630	0	34.2480	0	27.176	0	683.078	0	7.4	4	2.4	4	-1E+10	1	-1E+10	1	-1E+10	1	-1E+10	1	-1E+10	1	-1E+10	1
4902642	47	C	10/02/2025	16:58	-132.035	46.341	0	710.10	0	4.1000	0	34.2630	0	27.195	0	703.044	0	6.9	4	2.2	4	-1E+10	1	-1E+10	1	-1E+10	1	-1E+10	1	-1E+10	1	-1E+10	1
4902642	47	C	10/02/2025	16:58	-132.035	46.341	0	729.80	0	4.0470	0	34.2750	0	27.210	0	722.514	0	6.5	4	2.1	4	-1E+10	1	-1E+10	1	-1E+10	1	-1E+10	1	-1E+10	1	-1E+10	1
4902642	47	C	10/02/2025	16:58	-132.035	46.341	0	750.20	0	4.0000	0	34.2850	0	27.223	0	742.674	0	6.3	4	2.0	4	-1E+10	1	-1E+10	1	-1E+10	1	-1E+10	1	-1E+10	1	-1E+10	1
4902642	47	C	10/02/2025	16:58	-132.035	46.341	0	769.50	0	3.9630	0	34.2960	0	27.236	0	761.745	0	6.0	4	1.9	4	-1E+10	1	-1E+10	1	-1E+10	1	-1E+10	1	-1E+10	1	-1E+10	1
4902642	47	C	10/02/2025	16:58	-132.035	46.341	0	789.60	0	3.9200	0	34.3020	0	27.245	0	781.605	0	5.9	4	1.9	4	-1E+10	1	-1E+10	1	-1E+10	1	-1E+10	1	-1E+10	1	-1E+10	1
4902642	47	C	10/02/2025	16:58	-132.035	46.341	0	809.90	0	3.8840	0	34.3080	0	27.254	0	801.661	0	5.8	4	1.8	4	-1E+10	1	-1E+10	1	-1E+10	1	-1E+10	1	-1E+10	1	-1E+10	1
4902642	47	C	10/02/2025	16:58	-132.035	46.341	0	829.80	0	3.8490	0	34.3190	0	27.266	0	821.319	0	5.7	4	1.8	4	-1E+10	1	-1E+10	1	-1E+10	1	-1E+10	1	-1E+10	1	-1E+10	1
4902642	47	C	10/02/2025	16:58	-132.035	46.341	0	849.80	0	3.8170	0	34.3330	0	27.281	0	841.075	0	5.5	4	1.7	4	-1E+10	1	-1E+10	1	-1E+10	1	-1E+10	1	-1E+10	1	-1E+10	1
4902642	47	C	10/02/2025	16:58	-132.035	46.341	0	869.80	0	3.7760	0	34.3460	0	27.295	0	860.828	0	5.5	4	1.7	4	-1E+10	1	-1E+10	1	-1E+10	1	-1E+10	1	-1E+10	1	-1E+10	1
4902642	47	C	10/02/2025	16:58	-132.035	46.341	0	889.90	0	3.7250	0	34.3560	0	27.308	0	880.678	0	5.6	4	1.8	4	-1E+10	1	-1E+10	1	-1E+10	1	-1E+10	1	-1E+10	1	-1E+10	1
4902642	47	C	10/02/2025	16:58	-132.035	46.341	0	909.90	0	3.6820	0	34.3620	0	27.317	0	900.428	0	5.7	4	1.8	4	-1E+10	1	-1E+10	1	-1E+10	1	-1E+10	1	-1E+10	1	-1E+10	1
4902642	47	C	10/02/2025	16:58	-132.035	46.341	0	929.60	0	3.6450	0	34.3680	0	27.326	0	919.880	0	5.9	4	1.8	4	-1E+10	1	-1E+10	1	-1E+10	1	-1E+10	1	-1E+10	1	-1E+10	1
4902642	47	C	10/02/2025	16:58	-132.035	46.341	0	948.80	0	3.6140	0	34.3740	0	27.334	0	938.836	0	5.9	4	1.9	4	-1E+10	1	-1E+10	1	-1E+10	1	-1E+10	1	-1E+10	1	-1E+10	1
4902642	47	C	10/02/2025	16:58	-132.035	46.341	0	969.70	0	3.5310	0	34.3750	0	27.343	0	959.469	0	5.9	4	1.8	4	-1E+10	1	-1E+10	1	-1E+10	1	-1E+10	1	-1E+10	1	-1E+10	1
4902642	47	C	10/02/2025	16:58	-132.035	46.341	0	989.60	0	3.4270	0	34.3730	0	27.351	0	979.112	0	5.9	4	1.8	4	-1E+10	1	-1E+10	1	-1E+10	1	-1E+10	1	-1E+10	1	-1E+10	1
4902642	47	C	10/02/2025	16:58	-132.035	46.341	0	1009.50	0	3.3540	0	34.3790	0	27.363	0	998.754	0	5.9	4	1.8	4	-1E+10	1	-1E+10	1	-1E+10	1	-1E+10	1	-1E+10	1	-1E+10	1
4902642	47	C	10/02/2025	16:58	-132.035	46.341	0	1029.40	0	3.3090	0	34.3890	0	27.376	0	1018.394	0	6.2	4	1.9	4	-1E+10	1	-1E+10	1	-1E+10	1	-1E+10	1	-1E+10	1	-1E+10	1
4902642	47	C	10/02/2025	16:58	-132.035	46.341	0	1049.80	0	3.2610	0	34.3990	0	27.388	0	1038.525	0	6.5	4	2.0	4	-1E+10	1	-1E+10	1	-1E+10	1	-1E+10	1	-1E+10	1	-1E+10	1
4902642	47	C	10/02/2025	16:58	-132.035	46.341	0	1070.50	0	3.2160	0	34.4070	0	27.399	0	1058.951	0	6.9	4	2.1	4	-1E+10	1	-1E+10	1	-1E+10	1	-1E+10	1	-1E+10	1	-1E+10	1
4902642	47	C	10/02/2025	16:58	-132.035	46.341	0	1089.90	0	3.1870	0	34.4150	0	27.408	0	1078.092	0	7.4	4	2.3	4	-1E+10	1	-1E+10	1	-1E+10	1	-1E+10	1	-1E+10	1	-1E+10	1
4902642	47	C	10/02/2025	16:58	-132.035	46.341	0	1109.70	0	3.1500	0	34.4220	0	27.417	0	1097.625	0	7.8	4	2.4	4	-1E+10	1	-1E+10	1	-1E+10	1	-1E+10	1	-1E+10	1	-1E+10	1
4902642	47	C	10/02/2025	16:58	-132.035	46.341	0	1129.90	0	3.1160	0	34.4280	0	27.425	0	1117.552	0	8.1	4	2.5	4	-1E+10	1	-1E+10	1	-1E+10	1	-1E+10	1	-1E+10	1	-1E+10	1
4902642	47	C	10/02/2025	16:58	-132.035	46.341	0	1149.60	0	3.0850	0	34.4330	0	27.432	0	1136.983	0	8.5	4	2.6	4	-1E+10	1	-1E+10	1	-1E+10	1	-1E+10	1	-1E+10	1	-1E+10	1
4902642	47	C	10/02/2025	16:58	-132.035	46.341	0	1169.80	0	3.0450	0	34.4400	0	27.441	0	1156.906	0	9.0	4	2.8	4	-1E+10	1	-1E+10	1	-1E+10	1	-1E+10	1	-1E+10	1	-1E+10	1
4902642	47	C	10/02/2025	16:58	-132.035	46.341	0	1189.90	0	3.0130	0	34.4450	0	27.448	0	1176.728	0	9.3	4	2.9	4	-1E+10	1	-1E+10	1	-1E+10	1	-1E+10	1	-1E+10	1	-1E+10	1
4902642	47	C	10/02/2025	16:58	-132.035	46.341	0	1209.90	0	2.9910	0	34.4480	0	27.453	0	1196.450	0	9.6	4	3.0	4	-1E+10	1	-1E+10	1	-1E+10	1	-1E+10	1	-1E+10	1	-1E+10	1
4902642	47	C	10/02/2025	16:58	-132.035	46.341	0	1229.60	0	2.9610	0	34.4520	0	27.459	0	1215.874	0	10.1	4	3.1	4	-1E+10	1	-1E+10	1	-1E+10	1	-1E+10	1	-1E+10	1	-1E+10	1
4902642	47	C	10/02/2025	16:58	-132.035	46.341	0	1249.80	0	2.9300	0	34.4570	0	27.466	0	1235.789	0	10.7	4	3.3	4	-1E+10	1	-1E+10	1	-1E+10	1	-1E+10	1	-1E+10	1	-1E+10	1
4902642	47	C	10/02/2025	16:58	-132.035	46.341	0	1270.00	0	2.8900	0	34.4630	0	27.474	0	1255.702	0	11.4	4	3.5	4	-1E+10	1	-1E+10	1	-1E+10	1	-1E+10	1	-1E+10	1	-1E+10	1
4902642	47	C	10/02/2025	16:58	-132.035	46.341	0	1289.70	0	2.8480	0	34.4690	0	27.483	0	1275.121	0	12.2	4	3.7	4	-1E+10	1	-1E+10	1	-1E+10	1	-1E+10	1	-1E+10	1	-1E+10	1
4902642	47	C	10/02/2025	16:58	-132.035	46.341	0	1309.60	0	2.8130	0	34.4730	0	27.489	0	1294.735	0	12.8	4	3.9	4	-1E+10	1	-1E+10	1	-1E+10	1	-1E+10	1	-1E+10	1	-1E+10	1
4902642	47	C	10/02/2025	16:58	-132.035	46.341	0	1329.50	0	2.7800	0	34.4770	0	27.495	0	1314.347	0	13.5	4	4.1	4	-1E+10	1	-1E+10	1	-1E+10	1	-1E+10	1	-1E+10	1	-1E+10	1
4902642	47	C	10/02/2025	16:58	-132.035	46.341	0	1349.50	0	2.7460	0	34.4820	0	27.503	0	1334.056	0	14.3	4	4.4	4	-1E+10	1	-1E+10	1	-1E+10	1	-1E+10	1	-1E+10	1	-1E+10	1
4902642	47	C	10/02/2025	16:58	-132.035	46.341	0	1369.70	0	2.7030	0	34.4860	0	27.510	0	1353.960	0	15.1	4	4.6	4	-1E+10	1	-1E+10	1	-1E+10	1	-1E+10	1	-1E+10	1	-1E+10	1
4902642	47	C	10/02/2025	16:58	-132.035	46.341	0	1389.80	0	2.6620	0	34.4910	0	27.517	0	1373.763	0	15.9	4	4.9	4	-1E+10	1	-1E+10	1	-1E+10	1	-1E+10	1	-1E+10	1	-1E+10	1
4902642	47	C	10/02/2025	16:58	-132.035	46.341	0	1409.60	0	2.6260	0	34.4940	0	27.523	0	1393.270	0	16.7	4	5.1	4	-1E+10	1	-1E+10	1	-1E+10	1	-1E+10	1	-1E+10	1	-1E+10	1
4902642	47	C	10/02/2025	16:58	-132.035	46.341	0	1429.60	0	2.5840	0	34.4980	0	27.530	0	1412.971	0	17.9	4	5.5	4	-1E+10	1	-1E+10	1	-1E+10	1	-1E+10	1	-1E+10	1	-1E+10	1
4902642	47	C	10/02/2025	16:58	-132.035	46.341	0	1449.20	0	2.5450	0	34.5050	0	27.539	0	1432.276	0	19.3	4	5.9	4	-1E+10	1	-1E+10	1	-1E+10	1	-1E+10	1	-1E+10	1	-1E+10	1
4902642	47	C	10/02/2025	16:58	-132.035	46.341	0	1469.70	0	2.5040	0	34.5100	0	27.546	0	1452.467	0	20.6	4	6.3	4	-1E+10	1	-1E+10	1	-1E+10	1	-1E+10	1	-1E+10	1	-1E+10	1
4902642	47	C	10/02/2025	16:58	-132.035	46.341	0	1489.50	0	2.4700	0	34.5140	0	27.552	0	1471.966	0	21.7	4	6.6	4	-1E+10	1	-1E+10	1	-1E+10	1	-1E+10	1	-1E+10	1	-1E+10	1
4902642	47	C	10/02/2025	16:58	-132.035	46.341	0	1509.90	0	2.4310	0	34.5190	0	27.560	0	1492.053	0	22.8	4	6.9	4	-1E+10	1	-1E+10	1	-1E+10	1	-1E+10	1	-1E+10	1	-1E+10	1
4902642	47	C	10/02/2025	16:58	-132.035	46.341	0	1529.70	0	2.3980	0	34.5220	0	27.565	0	1511.549	0	23.7	4	7.2	4	-1E+10	1	-1E+10	1	-1E+10	1	-1E+10	1	-1E+10	1	-1E+10	1
4902642	47	C	10/02/2025	16:58	-132.035	46.341	0	1549.40	0	2.3680	0	34.5240	0	27.569	0	1530.944	0	24.7	4	7.5	4	-1E+10	1	-1E+10	1	-1E+10	1	-1E+10	1	-1E+10	1	-1E+10	1
4902642	47	C	10/02/2025	16:58	-132.035	46.341	0	1569.50	0	2.3350	0	34.5290	0	27.576	0	1550.731	0	26.0	4	7.9	4	-1E+10	1	-1E+10	1	-1E+10	1	-1E+10	1	-1E+10	1	-1E+10	1
4902642	47	C	10/02/2025	16:58	-132.035	46.341	0	1589.70	0	2.3130	0	34.5340	0	27.582	0	1570.614	0	27.7	4	8.4	4	-1E+10	1	-1E+10	1	-1E+10	1	-1E+10	1	-1E+10	1	-1E+10	1
4902642	47	C	10/02/2025	16:58	-132.035	46.341	0	1609.80	0	2.2920	0	34.5370	0	27.586	0	1590.397	0	28.8	4	8.7	4	-1E+10	1	-1E+10	1	-1E+10	1	-1E+10	1	-1E+10	1	-1E+10	1
4902642	47	C	10/02/2025	16:58	-132.035	46.341	0	1630.40	0	2.2690	0	34.5410	0	27.591	0	1610.671	0	30.2	4	9.2	4	-1E+10	1	-1E+10	1	-1E+10	1	-1E+10	1	-1E+10	1	-1E+10	1
4902642	47	C	10/02/2025	16:58	-132.035	46.341	0	1649.80	0	2.2480	0	34.5450	0	27.596	0	1629.761	0	31.1	4	9.4	4	-1E+10	1	-1E+10	1	-1E+10	1	-1E+10	1	-1E+10	1	-1E+10	1
4902642	47	C	10/02/2025	16:58	-132.035	46.341	0	1669.80	0	2.2140	0	34.5460	0	27.600	0	1649.441	0	31.7	4	9.6	4	-1E+10	1	-1E+10	1	-1E+10	1	-1E+10	1	-1E+10	1	-1E+10	1
4902642	47	C	10/02/2025	16:58	-132.035	46.341	0	1689.70	0	2.1890	0	34.5500	0	27.605	0	1669.020	0	32.9	4	10.0	4	-1E+10	1	-1E+10	1	-1E+10	1	-1E+10	1	-1E+10	1	-1E+10	1
4902642	47	C	10/02/2025	16:58	-132.035	46.341	0	1709.90	0	2.1730	0	34.5530	0	27.609	0	1688.892	0	34.2	4	10.4	4	-1E+10	1	-1E+10	1	-1E+10	1	-1E+10	1	-1E+10	1	-1E+10	1
4902642	47	C	10/02/2025	16:58	-132.035	46.341	0	1729.60	0	2.1520	0	34.5570	0	27.614	0	1708.271	0	35.7	4	10.8	4	-1E+10	1	-1E+10	1	-1E+10	1	-1E+10	1	-1E+10	1	-1E+10	1
4902642	47	C	10/02/2025	16:58	-132.035	46.341	0	1750.20	0	2.1290	0	34.5610	0	27.619	0	1728.533	0	37.0	4	11.2	4	-1E+10	1	-1E+10	1	-1E+10	1	-1E+10	1	-1E+10	1	-1E+10	1
4902642	47	C	10/02/2025	16:58	-132.035	46.341	0	1769.60	0	2.1120	0	34.5640	0	27.623	0	1747.613	0	38.1	4	11.5	4	-1E+10	1	-1E+10	1	-1E+10	1	-1E+10	1	-1E+10	1	-1E+10	1
4902642	47	C	10/02/2025	16:58	-132.035	46.341	0	1789.80	0	2.0990	0	34.5660	0	27.626	0	1767.478	0	39.2	4	11.8	4	-1E+10	1	-1E+10	1	-1E+10	1	-1E+10	1	-1E+10	1	-1E+10	1
4902642	47	C	10/02/2025	16:58	-132.035	46.341	0	1809.90	0	2.0860	0	34.5690	0	27.629	0	1787.243	0	40.0	4	12.1	4	-1E+10	1	-1E+10	1	-1E+10	1	-1E+10	1	-1E+10	1	-1E+10	1
4902642	47	C	10/02/2025	16:58	-132.035	46.341	0	1829.90	0	2.0660	0	34.5710	0	27.632	0	1806.907	0	40.8	4	12.3	4	-1E+10	1	-1E+10	1	-1E+10	1	-1E+10	1	-1E+10	1	-1E+10	1
4902642	47	C	10/02/2025	16:58	-132.035	46.341	0	1849.80	0	2.0520	0	34.5720	0	27.635	0	1826.472	0	41.4	4	12.5	4	-1E+10	1	-1E+10	1	-1E+10	1	-1E+10	1	-1E+10	1	-1E+10	1
4902642	47	C	10/02/2025	16:58	-132.035	46.341	0	1870.00	0	2.0420	0	34.5740	0	27.637	0	1846.330	0	42.2	4	12.8	4	-1E+10	1	-1E+10	1	-1E+10	1	-1E+10	1	-1E+10	1	-1E+10	1
4902642	47	C	10/02/2025	16:58	-132.035	46.341	0	1890.60	0	2.0290	0	34.5760	0	27.640	0	1866.578	0	43.5	4	13.1	4	-1E+10	1	-1E+10	1	-1E+10	1	-1E+10	1	-1E+10	1	-1E+10	1
4902642	47	C	10/02/2025	16:58	-132.035	46.341	0	1910.10	0	2.0110	0	34.5800	0	27.644	0	1885.744	0	44.9	4	13.5	4	-1E+10	1	-1E+10	1	-1E+10	1	-1E+10	1	-1E+10	1	-1E+10	1
4902642	47	C	10/02/2025	16:58	-132.035	46.341	0	1929.90	0	1.9930	0	34.5830	0	27.648	0	1905.203	0	45.9	4	13.8	4	-1E+10	1	-1E+10	1	-1E+10	1	-1E+10	1	-1E+10	1	-1E+10	1
4902642	47	C	10/02/2025	16:58	-132.035	46.341	0	1950.00	0	1.9770	0	34.5850	0	27.651	0	1924.955	0	46.9	4	14.1	4	-1E+10	1	-1E+10	1	-1E+10	1	-1E+10	1	-1E+10	1	-1E+10	1
4902642	47	C	10/02/2025	16:58	-132.035	46.341	0	1970.00	0	1.9650	0	34.5870	0	27.654	0	1944.607	0	47.8	4	14.4	4	-1E+10	1	-1E+10	1	-1E+10	1	-1E+10	1	-1E+10	1	-1E+10	1
4902642	47	C	10/02/2025	16:58	-132.035	46.341	0	1989.10	0	1.9490	0	34.5890	0	27.657	0	1963.373	0	49.0	4	14.8	4	-1E+10	1	-1E+10	1	-1E+10	1	-1E+10	1	-1E+10	1	-1E+10	1
4902642	47	C	10/02/2025	16:58	-132.035	46.341	0	2009.90	0	1.9380	0	34.5920	4	27.660	0	1983.807	0	50.1	4	15.1	4	-1E+10	1	-1E+10	1	-1E+10	1	-1E+10	1	-1E+10	1	-1E+10	1
4902642	47	C	10/02/2025	16:58	-132.035	46.341	0	2029.60	0	1.9290	0	34.5940	4	27.663	0	2003.159	0	50.9	4	15.3	4	-1E+10	1	-1E+10	1	-1E+10	1	-1E+10	1	-1E+10	1	-1E+10	1
4902642	47	C	10/02/2025	16:58	-132.035	46.341	0	2049.80	0	1.9240	0	34.5950	4	27.664	0	2023.000	0	51.5	4	15.5	4	-1E+10	1	-1E+10	1	-1E+10	1	-1E+10	1	-1E+10	1	-1E+10	1
4902642	47	C	10/02/2025	16:58	-132.035	46.341	0	2069.90	0	1.9160	0	34.5970	4	27.666	0	2042.741	0	52.4	4	15.8	4	-1E+10	1	-1E+10	1	-1E+10	1	-1E+10	1	-1E+10	1	-1E+10	1
4902642	47	C	10/02/2025	16:58	-132.035	46.341	0	2089.90	0	1.9080	0	34.5990	4	27.669	0	2062.382	0	53.2	4	16.0	4	-1E+10	1	-1E+10	1	-1E+10	1	-1E+10	1	-1E+10	1	-1E+10	1
4902642	47	C	10/02/2025	16:58	-132.035	46.341	0	2109.90	0	1.8990	0	34.6000	4	27.670	0	2082.021	0	54.0	4	16.2	4	-1E+10	1	-1E+10	1	-1E+10	1	-1E+10	1	-1E+10	1	-1E+10	1
4902642	47	C	10/02/2025	16:58	-132.035	46.341	0	2129.80	0	1.8910	0	34.6020	4	27.673	0	2101.561	0	54.7	4	16.5	4	-1E+10	1	-1E+10	1	-1E+10	1	-1E+10	1	-1E+10	1	-1E+10	1
4902642	47	C	10/02/2025	16:58	-132.035	46.341	0	2149.90	0	1.8860	0	34.6030	4	27.674	0	2121.294	0	55.4	4	16.7	4	-1E+10	1	-1E+10	1	-1E+10	1	-1E+10	1	-1E+10	1	-1E+10	1
4902642	47	C	10/02/2025	16:58	-132.035	46.341	0	2169.70	0	1.8800	0	34.6040	4	27.675	0	2140.732	0	56.1	4	16.9	4	-1E+10	1	-1E+10	1	-1E+10	1	-1E+10	1	-1E+10	1	-1E+10	1
4902642	47	C	10/02/2025	16:58	-132.035	46.341	0	2189.60	0	1.8690	0	34.6060	4	27.678	0	2160.266	0	57.1	4	17.2	4	-1E+10	1	-1E+10	1	-1E+10	1	-1E+10	1	-1E+10	1	-1E+10	1
4902642	47	C	10/02/2025	16:58	-132.035	46.341	0	2209.70	0	1.8590	0	34.6080	4	27.680	0	2179.994	0	58.1	4	17.5	4	-1E+10	1	-1E+10	1	-1E+10	1	-1E+10	1	-1E+10	1	-1E+10	1
4902642	47	C	10/02/2025	16:58	-132.035	46.341	0	2229.70	0	1.8480	0	34.6100	4	27.683	0	2199.622	0	59.0	4	17.7	4	-1E+10	1	-1E+10	1	-1E+10	1	-1E+10	1	-1E+10	1	-1E+10	1
4902642	47	C	10/02/2025	16:58	-132.035	46.341	0	2249.70	0	1.8420	0	34.6110	4	27.684	0	2219.249	0	59.7	4	17.9	4	-1E+10	1	-1E+10	1	-1E+10	1	-1E+10	1	-1E+10	1	-1E+10	1
4902642	47	C	10/02/2025	16:58	-132.035	46.341	0	2269.90	0	1.8360	0	34.6120	4	27.686	0	2239.070	0	60.1	4	18.1	4	-1E+10	1	-1E+10	1	-1E+10	1	-1E+10	1	-1E+10	1	-1E+10	1
4902642	47	C	10/02/2025	16:58	-132.035	46.341	0	2289.40	0	1.8320	0	34.6130	4	27.687	0	2258.202	0	60.7	4	18.2	4	-1E+10	1	-1E+10	1	-1E+10	1	-1E+10	1	-1E+10	1	-1E+10	1
4902642	47	C	10/02/2025	16:58	-132.035	46.341	0	2310.40	0	1.8240	0	34.6140	4	27.688	0	2278.804	0	61.6	4	18.5	4	-1E+10	1	-1E+10	1	-1E+10	1	-1E+10	1	-1E+10	1	-1E+10	1
4902642	47	C	10/02/2025	16:58	-132.035	46.341	0	2330.00	0	1.8200	0	34.6160	4	27.690	0	2298.031	0	62.1	4	18.6	4	-1E+10	1	-1E+10	1	-1E+10	1	-1E+10	1	-1E+10	1	-1E+10	1
4902642	47	C	10/02/2025	16:58	-132.035	46.341	0	2349.70	0	1.8120	0	34.6170	4	27.692	0	2317.355	0	62.9	4	18.9	4	-1E+10	1	-1E+10	1	-1E+10	1	-1E+10	1	-1E+10	1	-1E+10	1
4902642	47	C	10/02/2025	16:58	-132.035	46.341	0	2369.60	0	1.8000	0	34.6180	4	27.694	0	2336.872	0	64.0	4	19.2	4	-1E+10	1	-1E+10	1	-1E+10	1	-1E+10	1	-1E+10	1	-1E+10	1
4902642	47	C	10/02/2025	16:58	-132.035	46.341	0	2390.00	0	1.7880	0	34.6200	4	27.696	0	2356.879	0	65.2	4	19.6	4	-1E+10	1	-1E+10	1	-1E+10	1	-1E+10	1	-1E+10	1	-1E+10	1
4902642	47	C	10/02/2025	16:58	-132.035	46.341	0	2410.50	0	1.7800	0	34.6220	4	27.699	0	2376.981	0	66.3	4	19.9	4	-1E+10	1	-1E+10	1	-1E+10	1	-1E+10	1	-1E+10	1	-1E+10	1
4902642	47	C	10/02/2025	16:58	-132.035	46.341	0	2429.80	0	1.7710	0	34.6230	4	27.700	0	2395.905	0	67.0	4	20.1	4	-1E+10	1	-1E+10	1	-1E+10	1	-1E+10	1	-1E+10	1	-1E+10	1
4902642	47	C	10/02/2025	16:58	-132.035	46.341	0	2449.70	0	1.7660	0	34.6240	4	27.702	0	2415.416	0	67.5	4	20.2	4	-1E+10	1	-1E+10	1	-1E+10	1	-1E+10	1	-1E+10	1	-1E+10	1
4902642	47	C	10/02/2025	16:58	-132.035	46.341	0	2470.10	0	1.7560	0	34.6250	4	27.703	0	2435.415	0	68.6	4	20.6	4	-1E+10	1	-1E+10	1	-1E+10	1	-1E+10	1	-1E+10	1	-1E+10	1
4902642	47	C	10/02/2025	16:58	-132.035	46.341	0	2489.90	0	1.7460	0	34.6260	4	27.705	0	2454.823	0	69.2	4	20.8	4	-1E+10	1	-1E+10	1	-1E+10	1	-1E+10	1	-1E+10	1	-1E+10	1
4902642	47	C	10/02/2025	16:58	-132.035	46.341	0	2509.90	0	1.7460	0	34.6270	4	27.706	0	2474.427	0	69.7	4	20.9	4	-1E+10	1	-1E+10	1	-1E+10	1	-1E+10	1	-1E+10	1	-1E+10	1
4902642	47	C	10/02/2025	16:58	-132.035	46.341	0	2529.90	0	1.7420	0	34.6280	4	27.707	0	2494.028	0	70.4	4	21.1	4	-1E+10	1	-1E+10	1	-1E+10	1	-1E+10	1	-1E+10	1	-1E+10	1
4902642	47	C	10/02/2025	16:58	-132.035	46.341	0	2549.60	0	1.7360	0	34.6280	4	27.708	0	2513.334	0	71.2	4	21.3	4	-1E+10	1	-1E+10	1	-1E+10	1	-1E+10	1	-1E+10	1	-1E+10	1
4902642	47	C	10/02/2025	16:58	-132.035	46.341	0	2569.40	0	1.7280	0	34.6290	4	27.709	0	2532.736	0	72.0	4	21.6	4	-1E+10	1	-1E+10	1	-1E+10	1	-1E+10	1	-1E+10	1	-1E+10	1
4902642	47	C	10/02/2025	16:58	-132.035	46.341	0	2589.80	0	1.7210	0	34.6300	4	27.710	0	2552.724	0	72.7	4	21.8	4	-1E+10	1	-1E+10	1	-1E+10	1	-1E+10	1	-1E+10	1	-1E+10	1
4902642	47	C	10/02/2025	16:58	-132.035	46.341	0	2609.90	0	1.7170	0	34.6310	4	27.712	0	2572.416	0	73.2	4	21.9	4	-1E+10	1	-1E+10	1	-1E+10	1	-1E+10	1	-1E+10	1	-1E+10	1
4902642	47	C	10/02/2025	16:58	-132.035	46.341	0	2630.00	0	1.7130	0	34.6320	4	27.713	0	2592.106	0	73.6	4	22.1	4	-1E+10	1	-1E+10	1	-1E+10	1	-1E+10	1	-1E+10	1	-1E+10	1
4902642	47	C	10/02/2025	16:58	-132.035	46.341	0	2650.00	0	1.7110	0	34.6320	4	27.713	0	2611.697	0	74.2	4	22.2	4	-1E+10	1	-1E+10	1	-1E+10	1	-1E+10	1	-1E+10	1	-1E+10	1
4902642	47	C	10/02/2025	16:58	-132.035	46.341	0	2669.60	0	1.7060	0	34.6330	4	27.715	0	2630.894	0	74.8	4	22.4	4	-1E+10	1	-1E+10	1	-1E+10	1	-1E+10	1	-1E+10	1	-1E+10	1
4902642	47	C	10/02/2025	16:58	-132.035	46.341	0	2689.90	0	1.7020	0	34.6340	4	27.716	0	2650.775	0	75.4	4	22.6	4	-1E+10	1	-1E+10	1	-1E+10	1	-1E+10	1	-1E+10	1	-1E+10	1
4902642	47	C	10/02/2025	16:58	-132.035	46.341	0	2709.90	0	1.6960	0	34.6340	4	27.716	0	2670.360	0	76.3	4	22.8	4	-1E+10	1	-1E+10	1	-1E+10	1	-1E+10	1	-1E+10	1	-1E+10	1
4902642	47	C	10/02/2025	16:58	-132.035	46.341	0	2729.60	0	1.6880	0	34.6360	4	27.719	0	2689.650	0	77.2	4	23.1	4	-1E+10	1	-1E+10	1	-1E+10	1	-1E+10	1	-1E+10	1	-1E+10	1
4902642	47	C	10/02/2025	16:58	-132.035	46.341	0	2749.80	0	1.6820	0	34.6370	4	27.720	0	2709.428	0	78.1	4	23.4	4	-1E+10	1	-1E+10	1	-1E+10	1	-1E+10	1	-1E+10	1	-1E+10	1
4902642	47	C	10/02/2025	16:58	-132.035	46.341	0	2770.00	0	1.6710	0	34.6380	4	27.722	0	2729.204	0	79.6	4	23.8	4	-1E+10	1	-1E+10	1	-1E+10	1	-1E+10	1	-1E+10	1	-1E+10	1
4902642	47	C	10/02/2025	16:58	-132.035	46.341	0	2790.30	0	1.6590	0	34.6400	4	27.724	0	2749.076	0	81.0	4	24.2	4	-1E+10	1	-1E+10	1	-1E+10	1	-1E+10	1	-1E+10	1	-1E+10	1
4902642	47	C	10/02/2025	16:58	-132.035	46.341	0	2809.40	0	1.6440	0	34.6420	4	27.727	0	2767.771	0	82.7	4	24.7	4	-1E+10	1	-1E+10	1	-1E+10	1	-1E+10	1	-1E+10	1	-1E+10	1
4902642	47	C	10/02/2025	16:58	-132.035	46.341	0	2829.70	0	1.6330	0	34.6440	4	27.730	0	2787.640	0	83.8	4	25.0	4	-1E+10	1	-1E+10	1	-1E+10	1	-1E+10	1	-1E+10	1	-1E+10	1
4902642	47	C	10/02/2025	16:58	-132.035	46.341	0	2849.90	0	1.6310	0	34.6450	4	27.731	0	2807.408	0	84.2	4	25.2	4	-1E+10	1	-1E+10	1	-1E+10	1	-1E+10	1	-1E+10	1	-1E+10	1
4902642	47	C	10/02/2025	16:58	-132.035	46.341	0	2870.50	0	1.6290	0	34.6450	4	27.731	0	2827.567	0	84.5	4	25.3	4	-1E+10	1	-1E+10	1	-1E+10	1	-1E+10	1	-1E+10	1	-1E+10	1
4902642	47	C	10/02/2025	16:58	-132.035	46.341	0	2890.20	0	1.6280	0	34.6460	4	27.732	0	2846.842	0	84.9	4	25.4	4	-1E+10	1	-1E+10	1	-1E+10	1	-1E+10	1	-1E+10	1	-1E+10	1
4902642	47	C	10/02/2025	16:58	-132.035	46.341	0	2909.70	0	1.6270	0	34.6460	4	27.732	0	2865.921	0	85.1	4	25.4	4	-1E+10	1	-1E+10	1	-1E+10	1	-1E+10	1	-1E+10	1	-1E+10	1
4902642	47	C	10/02/2025	16:58	-132.035	46.341	0	2929.70	0	1.6280	0	34.6460	4	27.732	0	2885.487	0	85.3	4	25.5	4	-1E+10	1	-1E+10	1	-1E+10	1	-1E+10	1	-1E+10	1	-1E+10	1
4902642	47	C	10/02/2025	16:58	-132.035	46.341	0	2950.20	0	1.6290	0	34.6460	4	27.732	0	2905.540	0	85.4	4	25.5	4	-1E+10	1	-1E+10	1	-1E+10	1	-1E+10	1	-1E+10	1	-1E+10	1
4902642	47	C	10/02/2025	16:58	-132.035	46.341	0	2970.40	0	1.6300	0	34.6460	4	27.732	0	2925.298	0	85.5	4	25.5	4	-1E+10	1	-1E+10	1	-1E+10	1	-1E+10	1	-1E+10	1	-1E+10	1
4902642	47	C	10/02/2025	16:58	-132.035	46.341	0	2990.30	0	1.6310	0	34.6460	4	27.732	0	2944.761	0	85.6	4	25.6	4	-1E+10	1	-1E+10	1	-1E+10	1	-1E+10	1	-1E+10	1	-1E+10	1
4902642	47	C	10/02/2025	16:58	-132.035	46.341	0	3009.90	0	1.6290	0	34.6470	4	27.734	0	2963.928	0	85.9	4	25.7	4	-1E+10	1	-1E+10	1	-1E+10	1	-1E+10	1	-1E+10	1	-1E+10	1
4902642	47	C	10/02/2025	16:58	-132.035	46.341	0	3030.20	0	1.6330	0	34.6470	4	27.733	0	2983.778	0	85.7	4	25.6	4	-1E+10	1	-1E+10	1	-1E+10	1	-1E+10	1	-1E+10	1	-1E+10	1
4902642	47	C	10/02/2025	16:58	-132.035	46.341	0	3050.40	0	1.6320	0	34.6470	4	27.734	0	3003.529	0	86.3	4	25.8	4	-1E+10	1	-1E+10	1	-1E+10	1	-1E+10	1	-1E+10	1	-1E+10	1
4902642	47	C	10/02/2025	16:58	-132.035	46.341	0	3062.30	0	1.6280	0	34.6480	4	27.735	0	3015.164	0	86.6	4	25.9	4	-1E+10	1	-1E+10	1	-1E+10	1	-1E+10	1	-1E+10	1	-1E+10	1
4902642	47	C	10/02/2025	16:58	-132.035	46.341	0	3065.00	0	1.6280	0	34.6490	4	27.736	0	3017.803	0	86.6	4	25.9	4	-1E+10	1	-1E+10	1	-1E+10	1	-1E+10	1	-1E+10	1	-1E+10	1
4902642	47	C	10/02/2025	16:58	-132.035	46.341	0	3066.10	0	1.6290	0	34.6480	4	27.735	0	3018.879	0	86.6	4	25.9	4	-1E+10	1	-1E+10	1	-1E+10	1	-1E+10	1	-1E+10	1	-1E+10	1
4902642	47	C	10/02/2025	16:58	-132.035	46.341	0	3067.10	0	1.6290	0	34.6480	4	27.735	0	3019.857	0	86.7	4	25.9	4	-1E+10	1	-1E+10	1	-1E+10	1	-1E+10	1	-1E+10	1	-1E+10	1
4902642	47	C	10/02/2025	16:58	-132.035	46.341	0	3068.20	0	1.6290	0	34.6480	4	27.735	0	3020.932	0	86.7	4	25.9	4	-1E+10	1	-1E+10	1	-1E+10	1	-1E+10	1	-1E+10	1	-1E+10	1
4902642	47	C	10/02/2025	16:58	-132.035	46.341	0	3069.20	0	1.6300	0	34.6480	4	27.735	0	3021.910	0	86.7	4	25.9	4	-1E+10	1	-1E+10	1	-1E+10	1	-1E+10	1	-1E+10	1	-1E+10	1
4902642	47	C	10/02/2025	16:58	-132.035	46.341	0	3070.20	0	1.6290	0	34.6480	4	27.735	0	3022.887	0	86.8	4	25.9	4	-1E+10	1	-1E+10	1	-1E+10	1	-1E+10	1	-1E+10	1	-1E+10	1
4902642	47	C	10/02/2025	16:58	-132.035	46.341	0	3071.20	0	1.6290	0	34.6480	4	27.735	0	3023.865	0	86.8	4	25.9	4	-1E+10	1	-1E+10	1	-1E+10	1	-1E+10	1	-1E+10	1	-1E+10	1
4902642	47	C	10/02/2025	16:58	-132.035	46.341	0	3072.20	0	1.6270	0	34.6480	4	27.735	0	3024.842	0	86.8	4	25.9	4	-1E+10	1	-1E+10	1	-1E+10	1	-1E+10	1	-1E+10	1	-1E+10	1
4902642	47	C	10/02/2025	16:58	-132.035	46.341	0	3073.20	0	1.6280	0	34.6480	4	27.735	0	3025.820	0	86.8	4	25.9	4	-1E+10	1	-1E+10	1	-1E+10	1	-1E+10	1	-1E+10	1	-1E+10	1
4902642	47	C	10/02/2025	16:58	-132.035	46.341	0	3074.20	0	1.6280	0	34.6480	4	27.735	0	3026.798	0	86.8	4	25.9	4	-1E+10	1	-1E+10	1	-1E+10	1	-1E+10	1	-1E+10	1	-1E+10	1
4902642	47	C	10/02/2025	16:58	-132.035	46.341	0	3075.20	0	1.6280	0	34.6490	4	27.736	0	3027.775	0	86.8	4	25.9	4	-1E+10	1	-1E+10	1	-1E+10	1	-1E+10	1	-1E+10	1	-1E+10	1
4902642	47	C	10/02/2025	16:58	-132.035	46.341	0	3076.20	0	1.6290	0	34.6490	4	27.736	0	3028.753	0	86.8	4	25.9	4	-1E+10	1	-1E+10	1	-1E+10	1	-1E+10	1	-1E+10	1	-1E+10	1
4902642	47	C	10/02/2025	16:58	-132.035	46.341	0	3077.30	0	1.6300	0	34.6480	4	27.735	0	3029.828	0	86.8	4	25.9	4	-1E+10	1	-1E+10	1	-1E+10	1	-1E+10	1	-1E+10	1	-1E+10	1
4902642	47	C	10/02/2025	16:58	-132.035	46.341	0	3078.30	0	1.6300	0	34.6480	4	27.735	0	3030.806	0	86.9	4	26.0	4	-1E+10	1	-1E+10	1	-1E+10	1	-1E+10	1	-1E+10	1	-1E+10	1
4902642	47	C	10/02/2025	16:58	-132.035	46.341	0	3079.20	0	1.6300	0	34.6480	4	27.735	0	3031.686	0	86.9	4	26.0	4	-1E+10	1	-1E+10	1	-1E+10	1	-1E+10	1	-1E+10	1	-1E+10	1
4902642	47	C	10/02/2025	16:58	-132.035	46.341	0	3080.30	0	1.6310	0	34.6480	4	27.735	0	3032.761	0	87.0	4	26.0	4	-1E+10	1	-1E+10	1	-1E+10	1	-1E+10	1	-1E+10	1	-1E+10	1
4902642	47	C	10/02/2025	16:58	-132.035	46.341	0	3081.40	0	1.6310	0	34.6480	4	27.735	0	3033.836	0	87.1	4	26.0	4	-1E+10	1	-1E+10	1	-1E+10	1	-1E+10	1	-1E+10	1	-1E+10	1
4902642	47	C	10/02/2025	16:58	-132.035	46.341	0	3082.50	0	1.6300	0	34.6480	4	27.735	0	3034.912	0	87.1	4	26.0	4	-1E+10	1	-1E+10	1	-1E+10	1	-1E+10	1	-1E+10	1	-1E+10	1
4902642	47	C	10/02/2025	16:58	-132.035	46.341	0	3083.60	0	1.6290	0	34.6480	4	27.735	0	3035.987	0	87.3	4	26.1	4	-1E+10	1	-1E+10	1	-1E+10	1	-1E+10	1	-1E+10	1	-1E+10	1
4902642	47	C	10/02/2025	16:58	-132.035	46.341	0	3084.70	0	1.6260	0	34.6480	4	27.735	0	3037.062	0	87.3	4	26.1	4	-1E+10	1	-1E+10	1	-1E+10	1	-1E+10	1	-1E+10	1	-1E+10	1
4902642	47	C	10/02/2025	16:58	-132.035	46.341	0	3085.70	0	1.6250	0	34.6510	4	27.738	0	3038.040	0	87.3	4	26.1	4	-1E+10	1	-1E+10	1	-1E+10	1	-1E+10	1	-1E+10	1	-1E+10	1
4902642	47	C	10/02/2025	16:58	-132.035	46.341	0	3086.70	0	1.6240	0	34.6490	4	27.736	0	3039.017	0	87.4	4	26.1	4	-1E+10	1	-1E+10	1	-1E+10	1	-1E+10	1	-1E+10	1	-1E+10	1
4902642	47	C	10/02/2025	16:58	-132.035	46.341	0	3087.80	0	1.6230	0	34.6490	4	27.736	0	3040.093	0	87.4	4	26.1	4	-1E+10	1	-1E+10	1	-1E+10	1	-1E+10	1	-1E+10	1	-1E+10	1
4902642	47	C	10/02/2025	16:58	-132.035	46.341	0	3088.80	0	1.6230	0	34.6490	4	27.736	0	3041.070	0	87.3	4	26.1	4	-1E+10	1	-1E+10	1	-1E+10	1	-1E+10	1	-1E+10	1	-1E+10	1
4902642	47	C	10/02/2025	16:58	-132.035	46.341	0	3089.90	0	1.6230	0	34.6490	4	27.736	0	3042.146	0	87.4	4	26.1	4	-1E+10	1	-1E+10	1	-1E+10	1	-1E+10	1	-1E+10	1	-1E+10	1
4902642	47	C	10/02/2025	16:58	-132.035	46.341	0	3091.00	0	1.6240	0	34.6490	4	27.736	0	3043.221	0	87.3	4	26.1	4	-1E+10	1	-1E+10	1	-1E+10	1	-1E+10	1	-1E+10	1	-1E+10	1
4902642	47	C	10/02/2025	16:58	-132.035	46.341	0	3092.00	0	1.6250	0	34.6490	4	27.736	0	3044.198	0	87.4	4	26.1	4	-1E+10	1	-1E+10	1	-1E+10	1	-1E+10	1	-1E+10	1	-1E+10	1
4902642	47	C	10/02/2025	16:58	-132.035	46.341	0	3093.00	0	1.6240	0	34.6490	4	27.736	0	3045.176	0	87.3	4	26.1	4	-1E+10	1	-1E+10	1	-1E+10	1	-1E+10	1	-1E+10	1	-1E+10	1
4902642	47	C	10/02/2025	16:58	-132.035	46.341	0	3094.60	0	1.6250	0	34.6490	4	27.736	0	3046.740	0	87.4	4	26.1	4	-1E+10	1	-1E+10	1	-1E+10	1	-1E+10	1	-1E+10	1	-1E+10	1
4902642	47	C	10/02/2025	16:58	-132.035	46.341	0	3095.50	0	1.6250	0	34.6490	4	27.736	0	3047.620	0	87.4	4	26.1	4	-1E+10	1	-1E+10	1	-1E+10	1	-1E+10	1	-1E+10	1	-1E+10	1
4902642	47	C	10/02/2025	16:58	-132.035	46.341	0	3096.40	0	1.6250	0	34.6490	4	27.736	0	3048.499	0	87.4	4	26.1	4	-1E+10	1	-1E+10	1	-1E+10	1	-1E+10	1	-1E+10	1	-1E+10	1
4902642	47	C	10/02/2025	16:58	-132.035	46.341	0	3097.20	0	1.6250	0	34.6490	4	27.736	0	3049.282	0	87.5	4	26.1	4	-1E+10	1	-1E+10	1	-1E+10	1	-1E+10	1	-1E+10	1	-1E+10	1
4902642	47	C	10/02/2025	16:58	-132.035	46.341	0	3098.50	0	1.6260	0	34.6490	4	27.736	0	3050.552	0	87.5	4	26.2	4	-1E+10	1	-1E+10	1	-1E+10	1	-1E+10	1	-1E+10	1	-1E+10	1
4902642	47	C	10/02/2025	16:58	-132.035	46.341	0	3099.80	0	1.6260	0	34.6490	4	27.736	0	3051.823	0	87.6	4	26.2	4	-1E+10	1	-1E+10	1	-1E+10	1	-1E+10	1	-1E+10	1	-1E+10	1
4902642	47	C	10/02/2025	16:58	-132.035	46.341	0	3100.60	0	1.6260	0	34.6490	4	27.736	0	3052.605	0	87.7	4	26.2	4	-1E+10	1	-1E+10	1	-1E+10	1	-1E+10	1	-1E+10	1	-1E+10	1
4902642	47	C	10/02/2025	16:58	-132.035	46.341	0	3101.30	0	1.6260	0	34.6490	4	27.736	0	3053.289	0	87.8	4	26.2	4	-1E+10	1	-1E+10	1	-1E+10	1	-1E+10	1	-1E+10	1	-1E+10	1
4902642	47	C	10/02/2025	16:58	-132.035	46.341	0	3102.40	0	1.6230	0	34.6490	4	27.736	0	3054.365	0	87.9	4	26.3	4	-1E+10	1	-1E+10	1	-1E+10	1	-1E+10	1	-1E+10	1	-1E+10	1
4902642	47	C	10/02/2025	16:58	-132.035	46.341	0	3103.30	0	1.6200	0	34.6500	4	27.737	0	3055.244	0	87.8	4	26.2	4	-1E+10	1	-1E+10	1	-1E+10	1	-1E+10	1	-1E+10	1	-1E+10	1
4902642	47	C	10/02/2025	16:58	-132.035	46.341	0	3104.60	0	1.6200	0	34.6500	4	27.737	0	3056.515	0	87.8	4	26.2	4	-1E+10	1	-1E+10	1	-1E+10	1	-1E+10	1	-1E+10	1	-1E+10	1
4902642	47	C	10/02/2025	16:58	-132.035	46.341	0	3105.30	0	1.6190	0	34.6500	4	27.737	0	3057.199	0	87.8	4	26.2	4	-1E+10	1	-1E+10	1	-1E+10	1	-1E+10	1	-1E+10	1	-1E+10	1
4902642	47	C	10/02/2025	16:58	-132.035	46.341	0	3106.50	0	1.6200	0	34.6500	4	27.737	0	3058.372	0	87.8	4	26.2	4	-1E+10	1	-1E+10	1	-1E+10	1	-1E+10	1	-1E+10	1	-1E+10	1
4902642	47	C	10/02/2025	16:58	-132.035	46.341	0	3107.50	0	1.6200	0	34.6500	4	27.737	0	3059.350	0	87.8	4	26.2	4	-1E+10	1	-1E+10	1	-1E+10	1	-1E+10	1	-1E+10	1	-1E+10	1
4902642	47	C	10/02/2025	16:58	-132.035	46.341	0	3108.60	0	1.6200	0	34.6500	4	27.737	0	3060.425	0	87.7	4	26.2	4	-1E+10	1	-1E+10	1	-1E+10	1	-1E+10	1	-1E+10	1	-1E+10	1
4902642	47	C	10/02/2025	16:58	-132.035	46.341	0	3109.60	0	1.6210	0	34.6500	4	27.737	0	3061.402	0	87.7	4	26.2	4	-1E+10	1	-1E+10	1	-1E+10	1	-1E+10	1	-1E+10	1	-1E+10	1
4902642	47	C	10/02/2025	16:58	-132.035	46.341	0	3110.60	0	1.6200	0	34.6500	4	27.737	0	3062.380	0	87.7	4	26.2	4	-1E+10	1	-1E+10	1	-1E+10	1	-1E+10	1	-1E+10	1	-1E+10	1
4902642	47	C	10/02/2025	16:58	-132.035	46.341	0	3111.70	0	1.6210	0	34.6500	4	27.737	0	3063.455	0	87.7	4	26.2	4	-1E+10	1	-1E+10	1	-1E+10	1	-1E+10	1	-1E+10	1	-1E+10	1
4902642	47	C	10/02/2025	16:58	-132.035	46.341	0	3112.40	0	1.6210	0	34.6500	4	27.737	0	3064.139	0	87.7	4	26.2	4	-1E+10	1	-1E+10	1	-1E+10	1	-1E+10	1	-1E+10	1	-1E+10	1
4902642	47	C	10/02/2025	16:58	-132.035	46.341	0	3113.50	0	1.6210	0	34.6500	4	27.737	0	3065.214	0	87.6	4	26.2	4	-1E+10	1	-1E+10	1	-1E+10	1	-1E+10	1	-1E+10	1	-1E+10	1
4902642	47	C	10/02/2025	16:58	-132.035	46.341	0	3114.70	0	1.6220	0	34.6500	4	27.737	0	3066.387	0	87.7	4	26.2	4	-1E+10	1	-1E+10	1	-1E+10	1	-1E+10	1	-1E+10	1	-1E+10	1
4902642	47	C	10/02/2025	16:58	-132.035	46.341	0																										
4902642	48	C	10/12/2025	22:17	-132.088	46.419	0	0.80	0	16.2030	0	32.3510	0	23.666	0	0.793	0	222.6	4	90.3	4	-1E+10	1	-1E+10	1	-1E+10	1	-1E+10	1	-1E+10	1	-1E+10	1
4902642	48	C	10/12/2025	22:17	-132.088	46.419	0	0.90	0	16.2013	0	32.3523	0	23.668	0	0.893	0	222.5	4	90.3	4	-1E+10	1	-1E+10	1	-1E+10	1	-1E+10	1	-1E+10	1	-1E+10	1
4902642	48	C	10/12/2025	22:17	-132.088	46.419	0	1.10	0	16.2010	0	32.3525	0	23.668	0	1.091	0	222.5	4	90.2	4	-1E+10	1	-1E+10	1	-1E+10	1	-1E+10	1	-1E+10	1	-1E+10	1
4902642	48	C	10/12/2025	22:17	-132.088	46.419	0	1.30	0	16.2040	0	32.3510	0	23.666	0	1.289	0	222.5	4	90.3	4	-1E+10	1	-1E+10	1	-1E+10	1	-1E+10	1	-1E+10	1	-1E+10	1
4902642	48	C	10/12/2025	22:17	-132.088	46.419	0	1.40	0	16.2070	0	32.3510	0	23.665	0	1.388	0	-1e10	1	-1e10	1	-1E+10	1	-1E+10	1	-1E+10	1	-1E+10	1	-1E+10	1	-1E+10	1
4902642	48	C	10/12/2025	22:17	-132.088	46.419	0	1.70	0	16.2130	0	32.3490	0	23.662	0	1.686	0	222.5	4	90.3	4	-1E+10	1	-1E+10	1	-1E+10	1	-1E+10	1	-1E+10	1	-1E+10	1
4902642	48	C	10/12/2025	22:17	-132.088	46.419	0	1.90	0	16.2130	0	32.3490	0	23.662	0	1.884	0	222.5	4	90.3	4	-1E+10	1	-1E+10	1	-1E+10	1	-1E+10	1	-1E+10	1	-1E+10	1
4902642	48	C	10/12/2025	22:17	-132.088	46.419	0	2.70	0	16.2130	0	32.3490	0	23.662	0	2.678	0	222.4	4	90.3	4	-1E+10	1	-1E+10	1	-1E+10	1	-1E+10	1	-1E+10	1	-1E+10	1
4902642	48	C	10/12/2025	22:17	-132.088	46.419	0	3.50	0	16.2150	0	32.3470	0	23.660	0	3.471	0	222.4	4	90.2	4	-1E+10	1	-1E+10	1	-1E+10	1	-1E+10	1	-1E+10	1	-1E+10	1
4902642	48	C	10/12/2025	22:17	-132.088	46.419	0	4.50	0	16.2130	0	32.3490	0	23.662	0	4.463	0	222.3	4	90.2	4	-1E+10	1	-1E+10	1	-1E+10	1	-1E+10	1	-1E+10	1	-1E+10	1
4902642	48	C	10/12/2025	22:17	-132.088	46.419	0	5.40	0	16.2140	0	32.3490	0	23.662	0	5.355	0	222.3	4	90.2	4	-1E+10	1	-1E+10	1	-1E+10	1	-1E+10	1	-1E+10	1	-1E+10	1
4902642	48	C	10/12/2025	22:17	-132.088	46.419	0	6.50	0	16.2130	0	32.3490	0	23.663	0	6.446	0	222.3	4	90.2	4	-1E+10	1	-1E+10	1	-1E+10	1	-1E+10	1	-1E+10	1	-1E+10	1
4902642	48	C	10/12/2025	22:17	-132.088	46.419	0	7.50	0	16.2140	0	32.3490	0	23.662	0	7.438	0	222.3	4	90.2	4	-1E+10	1	-1E+10	1	-1E+10	1	-1E+10	1	-1E+10	1	-1E+10	1
4902642	48	C	10/12/2025	22:17	-132.088	46.419	0	8.40	0	16.2130	0	32.3490	0	23.663	0	8.331	0	222.3	4	90.2	4	-1E+10	1	-1E+10	1	-1E+10	1	-1E+10	1	-1E+10	1	-1E+10	1
4902642	48	C	10/12/2025	22:17	-132.088	46.419	0	9.40	0	16.2130	0	32.3500	0	23.663	0	9.322	0	222.2	4	90.2	4	-1E+10	1	-1E+10	1	-1E+10	1	-1E+10	1	-1E+10	1	-1E+10	1
4902642	48	C	10/12/2025	22:17	-132.088	46.419	0	14.80	0	16.2110	0	32.3490	0	23.663	0	14.677	0	222.3	4	90.2	4	-1E+10	1	-1E+10	1	-1E+10	1	-1E+10	1	-1E+10	1	-1E+10	1
4902642	48	C	10/12/2025	22:17	-132.088	46.419	0	24.90	0	16.2110	0	32.3490	0	23.664	0	24.693	0	222.2	4	90.2	4	-1E+10	1	-1E+10	1	-1E+10	1	-1E+10	1	-1E+10	1	-1E+10	1
4902642	48	C	10/12/2025	22:17	-132.088	46.419	0	35.10	0	16.2050	0	32.3500	0	23.666	0	34.808	0	222.4	4	90.2	4	-1E+10	1	-1E+10	1	-1E+10	1	-1E+10	1	-1E+10	1	-1E+10	1
4902642	48	C	10/12/2025	22:17	-132.088	46.419	0	45.20	0	16.1620	0	32.3460	0	23.673	0	44.822	0	226.1	4	91.7	4	-1E+10	1	-1E+10	1	-1E+10	1	-1E+10	1	-1E+10	1	-1E+10	1
4902642	48	C	10/12/2025	22:17	-132.088	46.419	0	55.10	0	12.6140	0	32.3780	0	24.439	0	54.638	0	250.6	4	94.6	4	-1E+10	1	-1E+10	1	-1E+10	1	-1E+10	1	-1E+10	1	-1E+10	1
4902642	48	C	10/12/2025	22:17	-132.088	46.419	0	64.90	0	11.1490	0	32.3910	0	24.720	0	64.355	0	245.3	4	89.9	4	-1E+10	1	-1E+10	1	-1E+10	1	-1E+10	1	-1E+10	1	-1E+10	1
4902642	48	C	10/12/2025	22:17	-132.088	46.419	0	75.20	0	10.6180	0	32.4080	0	24.826	0	74.566	0	242.7	4	87.9	4	-1E+10	1	-1E+10	1	-1E+10	1	-1E+10	1	-1E+10	1	-1E+10	1
4902642	48	C	10/12/2025	22:17	-132.088	46.419	0	85.40	0	10.0960	0	32.3980	0	24.907	0	84.678	0	241.0	4	86.3	4	-1E+10	1	-1E+10	1	-1E+10	1	-1E+10	1	-1E+10	1	-1E+10	1
4902642	48	C	10/12/2025	22:17	-132.088	46.419	0	94.70	0	9.4470	0	32.3760	0	24.996	0	93.897	0	236.8	4	83.6	4	-1E+10	1	-1E+10	1	-1E+10	1	-1E+10	1	-1E+10	1	-1E+10	1
4902642	48	C	10/12/2025	22:17	-132.088	46.419	0	104.90	0	9.0410	0	32.4390	0	25.109	0	104.008	0	225.5	4	78.9	4	-1E+10	1	-1E+10	1	-1E+10	1	-1E+10	1	-1E+10	1	-1E+10	1
4902642	48	C	10/12/2025	22:17	-132.088	46.419	0	115.20	0	8.6880	0	32.5850	0	25.278	0	114.218	0	211.8	4	73.7	4	-1E+10	1	-1E+10	1	-1E+10	1	-1E+10	1	-1E+10	1	-1E+10	1
4902642	48	C	10/12/2025	22:17	-132.088	46.419	0	124.70	0	8.5230	0	32.8350	0	25.499	0	123.634	0	194.9	4	67.7	4	-1E+10	1	-1E+10	1	-1E+10	1	-1E+10	1	-1E+10	1	-1E+10	1
4902642	48	C	10/12/2025	22:17	-132.088	46.419	0	135.00	0	8.0680	0	33.1230	0	25.792	0	133.843	0	172.4	4	59.4	4	-1E+10	1	-1E+10	1	-1E+10	1	-1E+10	1	-1E+10	1	-1E+10	1
4902642	48	C	10/12/2025	22:17	-132.088	46.419	0	144.80	0	7.7290	0	33.3630	0	26.030	0	143.555	0	157.6	4	53.9	4	-1E+10	1	-1E+10	1	-1E+10	1	-1E+10	1	-1E+10	1	-1E+10	1
4902642	48	C	10/12/2025	22:17	-132.088	46.419	0	154.70	0	7.5070	0	33.5150	0	26.181	0	153.367	0	145.2	4	49.5	4	-1E+10	1	-1E+10	1	-1E+10	1	-1E+10	1	-1E+10	1	-1E+10	1
4902642	48	C	10/12/2025	22:17	-132.088	46.419	0	164.60	0	7.3270	0	33.6150	0	26.285	0	163.177	0	139.8	4	47.5	4	-1E+10	1	-1E+10	1	-1E+10	1	-1E+10	1	-1E+10	1	-1E+10	1
4902642	48	C	10/12/2025	22:17	-132.088	46.419	0	175.10	0	7.1950	0	33.6850	0	26.359	0	173.582	0	135.8	4	46.0	4	-1E+10	1	-1E+10	1	-1E+10	1	-1E+10	1	-1E+10	1	-1E+10	1
4902642	48	C	10/12/2025	22:17	-132.088	46.419	0	185.00	0	7.0520	0	33.7320	0	26.415	0	183.392	0	132.6	4	44.8	4	-1E+10	1	-1E+10	1	-1E+10	1	-1E+10	1	-1E+10	1	-1E+10	1
4902642	48	C	10/12/2025	22:17	-132.088	46.419	0	190.20	0	6.9810	0	33.7470	0	26.437	0	188.545	0	130.7	4	44.1	4	-1E+10	1	-1E+10	1	-1E+10	1	-1E+10	1	-1E+10	1	-1E+10	1
4902642	48	C	10/12/2025	22:17	-132.088	46.419	0	201.10	0	6.7970	0	33.7920	0	26.497	0	199.344	0	124.1	4	41.7	4	-1E+10	1	-1E+10	1	-1E+10	1	-1E+10	1	-1E+10	1	-1E+10	1
4902642	48	C	10/12/2025	22:17	-132.088	46.419	0	220.70	0	6.5270	0	33.8270	0	26.561	0	218.763	0	115.0	4	38.4	4	-1E+10	1	-1E+10	1	-1E+10	1	-1E+10	1	-1E+10	1	-1E+10	1
4902642	48	C	10/12/2025	22:17	-132.088	46.419	0	240.50	0	6.3520	0	33.8470	0	26.600	0	238.378	0	104.4	4	34.8	4	-1E+10	1	-1E+10	1	-1E+10	1	-1E+10	1	-1E+10	1	-1E+10	1
4902642	48	C	10/12/2025	22:17	-132.088	46.419	0	260.80	0	6.0410	0	33.8530	0	26.644	0	258.486	0	97.7	4	32.3	4	-1E+10	1	-1E+10	1	-1E+10	1	-1E+10	1	-1E+10	1	-1E+10	1
4902642	48	C	10/12/2025	22:17	-132.088	46.419	0	281.20	0	5.7990	0	33.8650	0	26.684	0	278.691	0	86.6	4	28.5	4	-1E+10	1	-1E+10	1	-1E+10	1	-1E+10	1	-1E+10	1	-1E+10	1
4902642	48	C	10/12/2025	22:17	-132.088	46.419	0	300.90	0	5.6550	0	33.8920	0	26.723	0	298.201	0	73.4	4	24.0	4	-1E+10	1	-1E+10	1	-1E+10	1	-1E+10	1	-1E+10	1	-1E+10	1
4902642	48	C	10/12/2025	22:17	-132.088	46.419	0	321.00	0	5.5070	0	33.9190	0	26.762	0	318.106	0	64.6	4	21.1	4	-1E+10	1	-1E+10	1	-1E+10	1	-1E+10	1	-1E+10	1	-1E+10	1
4902642	48	C	10/12/2025	22:17	-132.088	46.419	0	341.20	0	5.3990	0	33.9290	0	26.783	0	338.107	0	61.3	4	20.0	4	-1E+10	1	-1E+10	1	-1E+10	1	-1E+10	1	-1E+10	1	-1E+10	1
4902642	48	C	10/12/2025	22:17	-132.088	46.419	0	361.10	0	5.2870	0	33.9370	0	26.803	0	357.809	0	57.3	4	18.6	4	-1E+10	1	-1E+10	1	-1E+10	1	-1E+10	1	-1E+10	1	-1E+10	1
4902642	48	C	10/12/2025	22:17	-132.088	46.419	0	380.90	0	5.1490	0	33.9490	0	26.829	0	377.411	0	52.7	4	17.1	4	-1E+10	1	-1E+10	1	-1E+10	1	-1E+10	1	-1E+10	1	-1E+10	1
4902642	48	C	10/12/2025	22:17	-132.088	46.419	0	401.10	0	5.0750	0	33.9690	0	26.853	0	397.407	0	47.6	4	15.4	4	-1E+10	1	-1E+10	1	-1E+10	1	-1E+10	1	-1E+10	1	-1E+10	1
4902642	48	C	10/12/2025	22:17	-132.088	46.419	0	421.10	0	4.9920	0	33.9850	0	26.875	0	417.202	0	43.7	4	14.1	4	-1E+10	1	-1E+10	1	-1E+10	1	-1E+10	1	-1E+10	1	-1E+10	1
4902642	48	C	10/12/2025	22:17	-132.088	46.419	0	440.80	0	4.9720	0	34.0020	0	26.891	0	436.699	0	39.7	4	12.8	4	-1E+10	1	-1E+10	1	-1E+10	1	-1E+10	1	-1E+10	1	-1E+10	1
4902642	48	C	10/12/2025	22:17	-132.088	46.419	0	460.70	0	4.8860	0	34.0220	0	26.917	0	456.392	0	34.5	4	11.1	4	-1E+10	1	-1E+10	1	-1E+10	1	-1E+10	1	-1E+10	1	-1E+10	1
4902642	48	C	10/12/2025	22:17	-132.088	46.419	0	480.80	0	4.8500	0	34.0600	0	26.951	0	476.281	0	27.8	4	8.9	4	-1E+10	1	-1E+10	1	-1E+10	1	-1E+10	1	-1E+10	1	-1E+10	1
4902642	48	C	10/12/2025	22:17	-132.088	46.419	0	500.90	0	4.7880	0	34.0840	0	26.977	0	496.168	0	23.8	4	7.6	4	-1E+10	1	-1E+10	1	-1E+10	1	-1E+10	1	-1E+10	1	-1E+10	1
4902642	48	C	10/12/2025	22:17	-132.088	46.419	0	521.20	0	4.6250	0	34.0880	0	26.999	0	516.251	0	22.7	4	7.3	4	-1E+10	1	-1E+10	1	-1E+10	1	-1E+10	1	-1E+10	1	-1E+10	1
4902642	48	C	10/12/2025	22:17	-132.088	46.419	0	541.20	0	4.6310	0	34.1160	0	27.021	0	536.036	0	18.1	4	5.8	4	-1E+10	1	-1E+10	1	-1E+10	1	-1E+10	1	-1E+10	1	-1E+10	1
4902642	48	C	10/12/2025	22:17	-132.088	46.419	0	560.80	0	4.6070	0	34.1370	0	27.040	0	555.422	0	15.3	4	4.9	4	-1E+10	1	-1E+10	1	-1E+10	1	-1E+10	1	-1E+10	1	-1E+10	1
4902642	48	C	10/12/2025	22:17	-132.088	46.419	0	581.40	0	4.5520	0	34.1590	0	27.064	0	575.796	0	12.9	4	4.1	4	-1E+10	1	-1E+10	1	-1E+10	1	-1E+10	1	-1E+10	1	-1E+10	1
4902642	48	C	10/12/2025	22:17	-132.088	46.419	0	600.80	0	4.4970	0	34.1760	0	27.083	0	594.982	0	11.6	4	3.7	4	-1E+10	1	-1E+10	1	-1E+10	1	-1E+10	1	-1E+10	1	-1E+10	1
4902642	48	C	10/12/2025	22:17	-132.088	46.419	0	620.80	0	4.4580	0	34.1850	0	27.095	0	614.759	0	10.9	4	3.5	4	-1E+10	1	-1E+10	1	-1E+10	1	-1E+10	1	-1E+10	1	-1E+10	1
4902642	48	C	10/12/2025	22:17	-132.088	46.419	0	640.80	0	4.4040	0	34.1930	0	27.107	0	634.533	0	10.1	4	3.2	4	-1E+10	1	-1E+10	1	-1E+10	1	-1E+10	1	-1E+10	1	-1E+10	1
4902642	48	C	10/12/2025	22:17	-132.088	46.419	0	660.90	0	4.3280	0	34.2070	0	27.126	0	654.405	0	9.2	4	2.9	4	-1E+10	1	-1E+10	1	-1E+10	1	-1E+10	1	-1E+10	1	-1E+10	1
4902642	48	C	10/12/2025	22:17	-132.088	46.419	0	681.10	0	4.2720	0	34.2210	0	27.144	0	674.374	0	8.4	4	2.7	4	-1E+10	1	-1E+10	1	-1E+10	1	-1E+10	1	-1E+10	1	-1E+10	1
4902642	48	C	10/12/2025	22:17	-132.088	46.419	0	701.10	0	4.1850	0	34.2290	0	27.159	0	694.143	0	8.0	4	2.5	4	-1E+10	1	-1E+10	1	-1E+10	1	-1E+10	1	-1E+10	1	-1E+10	1
4902642	48	C	10/12/2025	22:17	-132.088	46.419	0	720.90	0	4.1860	0	34.2440	0	27.171	0	713.713	0	7.3	4	2.3	4	-1E+10	1	-1E+10	1	-1E+10	1	-1E+10	1	-1E+10	1	-1E+10	1
4902642	48	C	10/12/2025	22:17	-132.088	46.419	0	741.10	0	4.1460	0	34.2550	0	27.184	0	733.676	0	6.8	4	2.2	4	-1E+10	1	-1E+10	1	-1E+10	1	-1E+10	1	-1E+10	1	-1E+10	1
4902642	48	C	10/12/2025	22:17	-132.088	46.419	0	761.10	0	4.1010	0	34.2640	0	27.196	0	753.440	0	6.5	4	2.1	4	-1E+10	1	-1E+10	1	-1E+10	1	-1E+10	1	-1E+10	1	-1E+10	1
4902642	48	C	10/12/2025	22:17	-132.088	46.419	0	781.40	0	4.0340	0	34.2710	0	27.209	0	773.498	0	6.4	4	2.0	4	-1E+10	1	-1E+10	1	-1E+10	1	-1E+10	1	-1E+10	1	-1E+10	1
4902642	48	C	10/12/2025	22:17	-132.088	46.419	0	801.10	0	3.9440	0	34.2790	0	27.224	0	792.961	0	6.2	4	1.9	4	-1E+10	1	-1E+10	1	-1E+10	1	-1E+10	1	-1E+10	1	-1E+10	1
4902642	48	C	10/12/2025	22:17	-132.088	46.419	0	820.90	0	3.8660	0	34.2890	0	27.240	0	812.522	0	6.0	4	1.9	4	-1E+10	1	-1E+10	1	-1E+10	1	-1E+10	1	-1E+10	1	-1E+10	1
4902642	48	C	10/12/2025	22:17	-132.088	46.419	0	841.00	0	3.8150	0	34.3000	0	27.254	0	832.376	0	5.8	4	1.8	4	-1E+10	1	-1E+10	1	-1E+10	1	-1E+10	1	-1E+10	1	-1E+10	1
4902642	48	C	10/12/2025	22:17	-132.088	46.419	0	860.80	0	3.8120	0	34.3140	0	27.266	0	851.933	0	5.5	4	1.7	4	-1E+10	1	-1E+10	1	-1E+10	1	-1E+10	1	-1E+10	1	-1E+10	1
4902642	48	C	10/12/2025	22:17	-132.088	46.419	0	880.80	0	3.7980	0	34.3300	0	27.280	0	871.685	0	5.4	4	1.7	4	-1E+10	1	-1E+10	1	-1E+10	1	-1E+10	1	-1E+10	1	-1E+10	1
4902642	48	C	10/12/2025	22:17	-132.088	46.419	0	901.50	0	3.7250	0	34.3360	0	27.292	0	892.127	0	5.5	4	1.7	4	-1E+10	1	-1E+10	1	-1E+10	1	-1E+10	1	-1E+10	1	-1E+10	1
4902642	48	C	10/12/2025	22:17	-132.088	46.419	0	920.80	0	3.6760	0	34.3430	0	27.303	0	911.184	0	5.5	4	1.7	4	-1E+10	1	-1E+10	1	-1E+10	1	-1E+10	1	-1E+10	1	-1E+10	1
4902642	48	C	10/12/2025	22:17	-132.088	46.419	0	941.00	0	3.6690	0	34.3570	0	27.315	0	931.129	0	5.6	4	1.8	4	-1E+10	1	-1E+10	1	-1E+10	1	-1E+10	1	-1E+10	1	-1E+10	1
4902642	48	C	10/12/2025	22:17	-132.088	46.419	0	961.30	0	3.6210	0	34.3640	0	27.325	0	951.170	0	5.7	4	1.8	4	-1E+10	1	-1E+10	1	-1E+10	1	-1E+10	1	-1E+10	1	-1E+10	1
4902642	48	C	10/12/2025	22:17	-132.088	46.419	0	981.10	0	3.5150	0	34.3620	0	27.334	0	970.715	0	5.7	4	1.8	4	-1E+10	1	-1E+10	1	-1E+10	1	-1E+10	1	-1E+10	1	-1E+10	1
4902642	48	C	10/12/2025	22:17	-132.088	46.419	0	1001.00	0	3.4410	0	34.3640	0	27.343	0	990.357	0	5.6	4	1.8	4	-1E+10	1	-1E+10	1	-1E+10	1	-1E+10	1	-1E+10	1	-1E+10	1
4902642	48	C	10/12/2025	22:17	-132.088	46.419	0	1020.70	0	3.3980	0	34.3730	0	27.354	0	1009.800	0	5.8	4	1.8	4	-1E+10	1	-1E+10	1	-1E+10	1	-1E+10	1	-1E+10	1	-1E+10	1
4902642	48	C	10/12/2025	22:17	-132.088	46.419	0	1040.70	0	3.3570	0	34.3830	0	27.366	0	1029.538	0	6.0	4	1.9	4	-1E+10	1	-1E+10	1	-1E+10	1	-1E+10	1	-1E+10	1	-1E+10	1
4902642	48	C	10/12/2025	22:17	-132.088	46.419	0	1061.30	0	3.3150	0	34.3900	0	27.376	0	1049.865	0	6.2	4	1.9	4	-1E+10	1	-1E+10	1	-1E+10	1	-1E+10	1	-1E+10	1	-1E+10	1
4902642	48	C	10/12/2025	22:17	-132.088	46.419	0	1080.90	0	3.2670	0	34.3980	0	27.387	0	1069.204	0	6.4	4	2.0	4	-1E+10	1	-1E+10	1	-1E+10	1	-1E+10	1	-1E+10	1	-1E+10	1
4902642	48	C	10/12/2025	22:17	-132.088	46.419	0	1100.80	0	3.2350	0	34.4060	0	27.396	0	1088.837	0	6.9	4	2.1	4	-1E+10	1	-1E+10	1	-1E+10	1	-1E+10	1	-1E+10	1	-1E+10	1
4902642	48	C	10/12/2025	22:17	-132.088	46.419	0	1121.20	0	3.2000	0	34.4140	0	27.406	0	1108.962	0	7.2	4	2.2	4	-1E+10	1	-1E+10	1	-1E+10	1	-1E+10	1	-1E+10	1	-1E+10	1
4902642	48	C	10/12/2025	22:17	-132.088	46.419	0	1140.90	0	3.1640	0	34.4200	0	27.414	0	1128.394	0	7.6	4	2.4	4	-1E+10	1	-1E+10	1	-1E+10	1	-1E+10	1	-1E+10	1	-1E+10	1
4902642	48	C	10/12/2025	22:17	-132.088	46.419	0	1161.00	0	3.1280	0	34.4270	0	27.423	0	1148.219	0	8.0	4	2.5	4	-1E+10	1	-1E+10	1	-1E+10	1	-1E+10	1	-1E+10	1	-1E+10	1
4902642	48	C	10/12/2025	22:17	-132.088	46.419	0	1181.10	0	3.0920	0	34.4330	0	27.432	0	1168.042	0	8.5	4	2.6	4	-1E+10	1	-1E+10	1	-1E+10	1	-1E+10	1	-1E+10	1	-1E+10	1
4902642	48	C	10/12/2025	22:17	-132.088	46.419	0	1201.10	0	3.0480	0	34.4400	0	27.441	0	1187.764	0	8.9	4	2.8	4	-1E+10	1	-1E+10	1	-1E+10	1	-1E+10	1	-1E+10	1	-1E+10	1
4902642	48	C	10/12/2025	22:17	-132.088	46.419	0	1220.70	0	3.0210	0	34.4440	0	27.447	0	1207.090	0	9.4	4	2.9	4	-1E+10	1	-1E+10	1	-1E+10	1	-1E+10	1	-1E+10	1	-1E+10	1
4902642	48	C	10/12/2025	22:17	-132.088	46.419	0	1240.70	0	2.9820	0	34.4490	0	27.455	0	1226.809	0	9.8	4	3.0	4	-1E+10	1	-1E+10	1	-1E+10	1	-1E+10	1	-1E+10	1	-1E+10	1
4902642	48	C	10/12/2025	22:17	-132.088	46.419	0	1261.00	0	2.9500	0	34.4530	0	27.461	0	1246.821	0	10.3	4	3.2	4	-1E+10	1	-1E+10	1	-1E+10	1	-1E+10	1	-1E+10	1	-1E+10	1
4902642	48	C	10/12/2025	22:17	-132.088	46.419	0	1281.20	0	2.9250	0	34.4590	0	27.468	0	1266.734	0	11.0	4	3.4	4	-1E+10	1	-1E+10	1	-1E+10	1	-1E+10	1	-1E+10	1	-1E+10	1
4902642	48	C	10/12/2025	22:17	-132.088	46.419	0	1300.80	0	2.8830	0	34.4650	0	27.477	0	1286.053	0	11.6	4	3.6	4	-1E+10	1	-1E+10	1	-1E+10	1	-1E+10	1	-1E+10	1	-1E+10	1
4902642	48	C	10/12/2025	22:17	-132.088	46.419	0	1321.00	0	2.8470	0	34.4700	0	27.484	0	1305.961	0	12.3	4	3.8	4	-1E+10	1	-1E+10	1	-1E+10	1	-1E+10	1	-1E+10	1	-1E+10	1
4902642	48	C	10/12/2025	22:17	-132.088	46.419	0	1341.60	0	2.8050	0	34.4750	0	27.492	0	1326.262	0	13.0	4	4.0	4	-1E+10	1	-1E+10	1	-1E+10	1	-1E+10	1	-1E+10	1	-1E+10	1
4902642	48	C	10/12/2025	22:17	-132.088	46.419	0	1361.00	0	2.7760	0	34.4780	0	27.497	0	1345.378	0	13.6	4	4.2	4	-1E+10	1	-1E+10	1	-1E+10	1	-1E+10	1	-1E+10	1	-1E+10	1
4902642	48	C	10/12/2025	22:17	-132.088	46.419	0	1381.30	0	2.7400	0	34.4830	0	27.504	0	1365.379	0	14.4	4	4.4	4	-1E+10	1	-1E+10	1	-1E+10	1	-1E+10	1	-1E+10	1	-1E+10	1
4902642	48	C	10/12/2025	22:17	-132.088	46.419	0	1401.20	0	2.6990	0	34.4880	0	27.512	0	1384.984	0	15.4	4	4.7	4	-1E+10	1	-1E+10	1	-1E+10	1	-1E+10	1	-1E+10	1	-1E+10	1
4902642	48	C	10/12/2025	22:17	-132.088	46.419	0	1421.20	0	2.6510	0	34.4940	0	27.521	0	1404.687	0	16.6	4	5.1	4	-1E+10	1	-1E+10	1	-1E+10	1	-1E+10	1	-1E+10	1	-1E+10	1
4902642	48	C	10/12/2025	22:17	-132.088	46.419	0	1441.30	0	2.6080	0	34.4980	0	27.528	0	1424.485	0	17.4	4	5.3	4	-1E+10	1	-1E+10	1	-1E+10	1	-1E+10	1	-1E+10	1	-1E+10	1
4902642	48	C	10/12/2025	22:17	-132.088	46.419	0	1461.10	0	2.5800	0	34.5020	0	27.533	0	1443.987	0	18.2	4	5.6	4	-1E+10	1	-1E+10	1	-1E+10	1	-1E+10	1	-1E+10	1	-1E+10	1
4902642	48	C	10/12/2025	22:17	-132.088	46.419	0	1480.70	0	2.5480	0	34.5050	0	27.539	0	1463.289	0	19.1	4	5.8	4	-1E+10	1	-1E+10	1	-1E+10	1	-1E+10	1	-1E+10	1	-1E+10	1
4902642	48	C	10/12/2025	22:17	-132.088	46.419	0	1500.60	0	2.5200	0	34.5090	0	27.544	0	1482.885	0	20.2	4	6.2	4	-1E+10	1	-1E+10	1	-1E+10	1	-1E+10	1	-1E+10	1	-1E+10	1
4902642	48	C	10/12/2025	22:17	-132.088	46.419	0	1521.50	0	2.4830	0	34.5130	0	27.551	0	1503.464	0	21.1	4	6.4	4	-1E+10	1	-1E+10	1	-1E+10	1	-1E+10	1	-1E+10	1	-1E+10	1
4902642	48	C	10/12/2025	22:17	-132.088	46.419	0	1541.00	0	2.4590	0	34.5160	0	27.555	0	1522.663	0	22.0	4	6.7	4	-1E+10	1	-1E+10	1	-1E+10	1	-1E+10	1	-1E+10	1	-1E+10	1
4902642	48	C	10/12/2025	22:17	-132.088	46.419	0	1560.60	0	2.4170	0	34.5200	0	27.562	0	1541.958	0	23.1	4	7.0	4	-1E+10	1	-1E+10	1	-1E+10	1	-1E+10	1	-1E+10	1	-1E+10	1
4902642	48	C	10/12/2025	22:17	-132.088	46.419	0	1580.50	0	2.3880	0	34.5230	0	27.567	0	1561.547	0	24.2	4	7.4	4	-1E+10	1	-1E+10	1	-1E+10	1	-1E+10	1	-1E+10	1	-1E+10	1
4902642	48	C	10/12/2025	22:17	-132.088	46.419	0	1600.80	0	2.3520	0	34.5280	0	27.574	0	1581.528	0	25.5	4	7.8	4	-1E+10	1	-1E+10	1	-1E+10	1	-1E+10	1	-1E+10	1	-1E+10	1
4902642	48	C	10/12/2025	22:17	-132.088	46.419	0	1621.00	0	2.3180	0	34.5310	0	27.579	0	1601.409	0	26.5	4	8.1	4	-1E+10	1	-1E+10	1	-1E+10	1	-1E+10	1	-1E+10	1	-1E+10	1
4902642	48	C	10/12/2025	22:17	-132.088	46.419	0	1640.70	0	2.2930	0	34.5350	0	27.585	0	1620.795	0	27.6	4	8.4	4	-1E+10	1	-1E+10	1	-1E+10	1	-1E+10	1	-1E+10	1	-1E+10	1
4902642	48	C	10/12/2025	22:17	-132.088	46.419	0	1661.00	0	2.2690	0	34.5380	0	27.589	0	1640.770	0	28.6	4	8.7	4	-1E+10	1	-1E+10	1	-1E+10	1	-1E+10	1	-1E+10	1	-1E+10	1
4902642	48	C	10/12/2025	22:17	-132.088	46.419	0	1681.10	0	2.2500	0	34.5410	0	27.593	0	1660.547	0	30.1	4	9.1	4	-1E+10	1	-1E+10	1	-1E+10	1	-1E+10	1	-1E+10	1	-1E+10	1
4902642	48	C	10/12/2025	22:17	-132.088	46.419	0	1700.70	0	2.2360	0	34.5460	0	27.598	0	1679.830	0	31.5	4	9.5	4	-1E+10	1	-1E+10	1	-1E+10	1	-1E+10	1	-1E+10	1	-1E+10	1
4902642	48	C	10/12/2025	22:17	-132.088	46.419	0	1720.80	0	2.2080	0	34.5500	0	27.604	0	1699.602	0	32.9	4	10.0	4	-1E+10	1	-1E+10	1	-1E+10	1	-1E+10	1	-1E+10	1	-1E+10	1
4902642	48	C	10/12/2025	22:17	-132.088	46.419	0	1740.60	0	2.1850	0	34.5540	0	27.609	0	1719.078	0	34.2	4	10.4	4	-1E+10	1	-1E+10	1	-1E+10	1	-1E+10	1	-1E+10	1	-1E+10	1
4902642	48	C	10/12/2025	22:17	-132.088	46.419	0	1760.80	0	2.1620	0	34.5570	0	27.613	0	1738.946	0	35.5	4	10.7	4	-1E+10	1	-1E+10	1	-1E+10	1	-1E+10	1	-1E+10	1	-1E+10	1
4902642	48	C	10/12/2025	22:17	-132.088	46.419	0	1780.70	0	2.1330	0	34.5600	0	27.618	0	1758.516	0	36.6	4	11.1	4	-1E+10	1	-1E+10	1	-1E+10	1	-1E+10	1	-1E+10	1	-1E+10	1
4902642	48	C	10/12/2025	22:17	-132.088	46.419	0	1801.50	0	2.1160	0	34.5630	0	27.622	0	1778.970	0	37.5	4	11.3	4	-1E+10	1	-1E+10	1	-1E+10	1	-1E+10	1	-1E+10	1	-1E+10	1
4902642	48	C	10/12/2025	22:17	-132.088	46.419	0	1821.00	0	2.0990	0	34.5650	0	27.625	0	1798.144	0	38.5	4	11.6	4	-1E+10	1	-1E+10	1	-1E+10	1	-1E+10	1	-1E+10	1	-1E+10	1
4902642	48	C	10/12/2025	22:17	-132.088	46.419	0	1841.10	0	2.0840	0	34.5680	0	27.629	0	1817.906	0	40.0	4	12.1	4	-1E+10	1	-1E+10	1	-1E+10	1	-1E+10	1	-1E+10	1	-1E+10	1
4902642	48	C	10/12/2025	22:17	-132.088	46.419	0	1860.90	0	2.0700	0	34.5720	0	27.633	0	1837.371	0	41.8	4	12.6	4	-1E+10	1	-1E+10	1	-1E+10	1	-1E+10	1	-1E+10	1	-1E+10	1
4902642	48	C	10/12/2025	22:17	-132.088	46.419	0	1880.90	0	2.0510	0	34.5750	0	27.637	0	1857.031	0	42.9	4	13.0	4	-1E+10	1	-1E+10	1	-1E+10	1	-1E+10	1	-1E+10	1	-1E+10	1
4902642	48	C	10/12/2025	22:17	-132.088	46.419	0	1901.40	0	2.0390	0	34.5780	0	27.641	0	1877.180	0	44.1	4	13.3	4	-1E+10	1	-1E+10	1	-1E+10	1	-1E+10	1	-1E+10	1	-1E+10	1
4902642	48	C	10/12/2025	22:17	-132.088	46.419	0	1921.70	0	2.0250	0	34.5800	0	27.643	0	1897.131	0	44.9	4	13.5	4	-1E+10	1	-1E+10	1	-1E+10	1	-1E+10	1	-1E+10	1	-1E+10	1
4902642	48	C	10/12/2025	22:17	-132.088	46.419	0	1941.00	0	2.0040	0	34.5820	0	27.647	0	1916.098	0	45.6	4	13.7	4	-1E+10	1	-1E+10	1	-1E+10	1	-1E+10	1	-1E+10	1	-1E+10	1
4902642	48	C	10/12/2025	22:17	-132.088	46.419	0	1960.80	0	1.9850	0	34.5840	0	27.650	0	1935.554	0	46.4	4	14.0	4	-1E+10	1	-1E+10	1	-1E+10	1	-1E+10	1	-1E+10	1	-1E+10	1
4902642	48	C	10/12/2025	22:17	-132.088	46.419	0	1980.50	0	1.9710	0	34.5860	0	27.653	0	1954.910	0	47.4	4	14.3	4	-1E+10	1	-1E+10	1	-1E+10	1	-1E+10	1	-1E+10	1	-1E+10	1
4902642	48	C	10/12/2025	22:17	-132.088	46.419	0	2000.90	0	1.9630	0	34.5880	4	27.655	0	1974.952	0	48.3	4	14.6	4	-1E+10	1	-1E+10	1	-1E+10	1	-1E+10	1	-1E+10	1	-1E+10	1
4902642	48	C	10/12/2025	22:17	-132.088	46.419	0	2020.90	0	1.9500	0	34.5900	4	27.658	0	1994.599	0	49.2	4	14.8	4	-1E+10	1	-1E+10	1	-1E+10	1	-1E+10	1	-1E+10	1	-1E+10	1
4902642	48	C	10/12/2025	22:17	-132.088	46.419	0	2040.70	0	1.9380	0	34.5920	4	27.660	0	2014.048	0	50.3	4	15.1	4	-1E+10	1	-1E+10	1	-1E+10	1	-1E+10	1	-1E+10	1	-1E+10	1
4902642	48	C	10/12/2025	22:17	-132.088	46.419	0	2060.70	0	1.9240	0	34.5950	4	27.664	0	2033.691	0	51.3	4	15.4	4	-1E+10	1	-1E+10	1	-1E+10	1	-1E+10	1	-1E+10	1	-1E+10	1
4902642	48	C	10/12/2025	22:17	-132.088	46.419	0	2080.70	0	1.9130	0	34.5970	4	27.667	0	2053.333	0	52.3	4	15.7	4	-1E+10	1	-1E+10	1	-1E+10	1	-1E+10	1	-1E+10	1	-1E+10	1
4902642	48	C	10/12/2025	22:17	-132.088	46.419	0	2100.80	0	1.9020	0	34.5990	4	27.669	0	2073.071	0	53.2	4	16.0	4	-1E+10	1	-1E+10	1	-1E+10	1	-1E+10	1	-1E+10	1	-1E+10	1
4902642	48	C	10/12/2025	22:17	-132.088	46.419	0	2120.70	0	1.8930	0	34.6010	4	27.672	0	2092.611	0	54.3	4	16.3	4	-1E+10	1	-1E+10	1	-1E+10	1	-1E+10	1	-1E+10	1	-1E+10	1
4902642	48	C	10/12/2025	22:17	-132.088	46.419	0	2140.70	0	1.8870	0	34.6030	4	27.674	0	2112.247	0	55.6	4	16.7	4	-1E+10	1	-1E+10	1	-1E+10	1	-1E+10	1	-1E+10	1	-1E+10	1
4902642	48	C	10/12/2025	22:17	-132.088	46.419	0	2160.80	0	1.8760	0	34.6050	4	27.676	0	2131.980	0	56.3	4	16.9	4	-1E+10	1	-1E+10	1	-1E+10	1	-1E+10	1	-1E+10	1	-1E+10	1
4902642	48	C	10/12/2025	22:17	-132.088	46.419	0	2181.40	0	1.8680	0	34.6060	4	27.678	0	2152.201	0	57.1	4	17.2	4	-1E+10	1	-1E+10	1	-1E+10	1	-1E+10	1	-1E+10	1	-1E+10	1
4902642	48	C	10/12/2025	22:17	-132.088	46.419	0	2201.00	0	1.8620	0	34.6080	4	27.680	0	2171.439	0	57.9	4	17.4	4	-1E+10	1	-1E+10	1	-1E+10	1	-1E+10	1	-1E+10	1	-1E+10	1
4902642	48	C	10/12/2025	22:17	-132.088	46.419	0	2221.10	0	1.8560	0	34.6090	4	27.681	0	2191.167	0	58.4	4	17.6	4	-1E+10	1	-1E+10	1	-1E+10	1	-1E+10	1	-1E+10	1	-1E+10	1
4902642	48	C	10/12/2025	22:17	-132.088	46.419	0	2241.00	0	1.8510	0	34.6100	4	27.683	0	2210.696	0	59.2	4	17.8	4	-1E+10	1	-1E+10	1	-1E+10	1	-1E+10	1	-1E+10	1	-1E+10	1
4902642	48	C	10/12/2025	22:17	-132.088	46.419	0	2260.90	0	1.8450	0	34.6120	4	27.685	0	2230.223	0	60.2	4	18.1	4	-1E+10	1	-1E+10	1	-1E+10	1	-1E+10	1	-1E+10	1	-1E+10	1
4902642	48	C	10/12/2025	22:17	-132.088	46.419	0	2281.20	0	1.8320	0	34.6130	4	27.687	0	2250.141	0	60.9	4	18.3	4	-1E+10	1	-1E+10	1	-1E+10	1	-1E+10	1	-1E+10	1	-1E+10	1
4902642	48	C	10/12/2025	22:17	-132.088	46.419	0	2301.20	0	1.8240	0	34.6140	4	27.688	0	2269.763	0	61.1	4	18.4	4	-1E+10	1	-1E+10	1	-1E+10	1	-1E+10	1	-1E+10	1	-1E+10	1
4902642	48	C	10/12/2025	22:17	-132.088	46.419	0	2321.00	0	1.8170	0	34.6150	4	27.690	0	2289.187	0	61.7	4	18.5	4	-1E+10	1	-1E+10	1	-1E+10	1	-1E+10	1	-1E+10	1	-1E+10	1
4902642	48	C	10/12/2025	22:17	-132.088	46.419	0	2340.80	0	1.8100	0	34.6130	4	27.689	0	2308.609	0	62.2	4	18.7	4	-1E+10	1	-1E+10	1	-1E+10	1	-1E+10	1	-1E+10	1	-1E+10	1
4902642	48	C	10/12/2025	22:17	-132.088	46.419	0	2360.70	0	1.8070	0	34.6170	4	27.692	0	2328.127	0	62.6	4	18.8	4	-1E+10	1	-1E+10	1	-1E+10	1	-1E+10	1	-1E+10	1	-1E+10	1
4902642	48	C	10/12/2025	22:17	-132.088	46.419	0	2380.90	0	1.8040	0	34.6170	4	27.693	0	2347.938	0	63.1	4	18.9	4	-1E+10	1	-1E+10	1	-1E+10	1	-1E+10	1	-1E+10	1	-1E+10	1
4902642	48	C	10/12/2025	22:17	-132.088	46.419	0	2401.90	0	1.7970	0	34.6190	4	27.695	0	2368.531	0	64.0	4	19.2	4	-1E+10	1	-1E+10	1	-1E+10	1	-1E+10	1	-1E+10	1	-1E+10	1
4902642	48	C	10/12/2025	22:17	-132.088	46.419	0	2421.40	0	1.7900	0	34.6200	4	27.696	0	2387.652	0	64.9	4	19.5	4	-1E+10	1	-1E+10	1	-1E+10	1	-1E+10	1	-1E+10	1	-1E+10	1
4902642	48	C	10/12/2025	22:17	-132.088	46.419	0	2441.00	0	1.7800	0	34.6210	4	27.698	0	2406.869	0	65.8	4	19.7	4	-1E+10	1	-1E+10	1	-1E+10	1	-1E+10	1	-1E+10	1	-1E+10	1
4902642	48	C	10/12/2025	22:17	-132.088	46.419	0	2460.70	0	1.7710	0	34.6220	4	27.700	0	2426.182	0	66.7	4	20.0	4	-1E+10	1	-1E+10	1	-1E+10	1	-1E+10	1	-1E+10	1	-1E+10	1
4902642	48	C	10/12/2025	22:17	-132.088	46.419	0	2480.80	0	1.7670	0	34.6230	4	27.701	0	2445.886	0	67.2	4	20.1	4	-1E+10	1	-1E+10	1	-1E+10	1	-1E+10	1	-1E+10	1	-1E+10	1
4902642	48	C	10/12/2025	22:17	-132.088	46.419	0	2500.80	0	1.7600	0	34.6240	4	27.702	0	2465.490	0	68.1	4	20.4	4	-1E+10	1	-1E+10	1	-1E+10	1	-1E+10	1	-1E+10	1	-1E+10	1
4902642	48	C	10/12/2025	22:17	-132.088	46.419	0	2520.70	0	1.7540	0	34.6260	4	27.704	0	2484.994	0	69.1	4	20.7	4	-1E+10	1	-1E+10	1	-1E+10	1	-1E+10	1	-1E+10	1	-1E+10	1
4902642	48	C	10/12/2025	22:17	-132.088	46.419	0	2541.00	0	1.7450	0	34.6270	4	27.706	0	2504.888	0	70.2	4	21.0	4	-1E+10	1	-1E+10	1	-1E+10	1	-1E+10	1	-1E+10	1	-1E+10	1
4902642	48	C	10/12/2025	22:17	-132.088	46.419	0	2561.20	0	1.7360	0	34.6280	4	27.708	0	2524.683	0	71.2	4	21.3	4	-1E+10	1	-1E+10	1	-1E+10	1	-1E+10	1	-1E+10	1	-1E+10	1
4902642	48	C	10/12/2025	22:17	-132.088	46.419	0	2580.90	0	1.7280	0	34.6290	4	27.709	0	2543.985	0	72.0	4	21.6	4	-1E+10	1	-1E+10	1	-1E+10	1	-1E+10	1	-1E+10	1	-1E+10	1
4902642	48	C	10/12/2025	22:17	-132.088	46.419	0	2600.50	0	1.7190	0	34.6300	4	27.711	0	2563.188	0	72.8	4	21.8	4	-1E+10	1	-1E+10	1	-1E+10	1	-1E+10	1	-1E+10	1	-1E+10	1
4902642	48	C	10/12/2025	22:17	-132.088	46.419	0	2621.20	0	1.7120	0	34.6310	4	27.712	0	2583.467	0	73.8	4	22.1	4	-1E+10	1	-1E+10	1	-1E+10	1	-1E+10	1	-1E+10	1	-1E+10	1
4902642	48	C	10/12/2025	22:17	-132.088	46.419	0	2641.20	0	1.7060	0	34.6320	4	27.714	0	2603.059	0	74.5	4	22.3	4	-1E+10	1	-1E+10	1	-1E+10	1	-1E+10	1	-1E+10	1	-1E+10	1
4902642	48	C	10/12/2025	22:17	-132.088	46.419	0	2661.10	0	1.7000	0	34.6330	4	27.715	0	2622.550	0	75.3	4	22.5	4	-1E+10	1	-1E+10	1	-1E+10	1	-1E+10	1	-1E+10	1	-1E+10	1
4902642	48	C	10/12/2025	22:17	-132.088	46.419	0	2681.10	0	1.6930	0	34.6350	4	27.717	0	2642.138	0	76.1	4	22.8	4	-1E+10	1	-1E+10	1	-1E+10	1	-1E+10	1	-1E+10	1	-1E+10	1
4902642	48	C	10/12/2025	22:17	-132.088	46.419	0	2701.30	0	1.6870	0	34.6350	4	27.718	0	2661.920	0	76.8	4	23.0	4	-1E+10	1	-1E+10	1	-1E+10	1	-1E+10	1	-1E+10	1	-1E+10	1
4902642	48	C	10/12/2025	22:17	-132.088	46.419	0	2720.80	0	1.6830	0	34.6360	4	27.719	0	2681.015	0	77.5	4	23.2	4	-1E+10	1	-1E+10	1	-1E+10	1	-1E+10	1	-1E+10	1	-1E+10	1
4902642	48	C	10/12/2025	22:17	-132.088	46.419	0	2740.90	0	1.6750	0	34.6370	4	27.720	0	2700.695	0	78.3	4	23.4	4	-1E+10	1	-1E+10	1	-1E+10	1	-1E+10	1	-1E+10	1	-1E+10	1
4902642	48	C	10/12/2025	22:17	-132.088	46.419	0	2760.70	0	1.6720	0	34.6380	4	27.722	0	2720.080	0	78.9	4	23.6	4	-1E+10	1	-1E+10	1	-1E+10	1	-1E+10	1	-1E+10	1	-1E+10	1
4902642	48	C	10/12/2025	22:17	-132.088	46.419	0	2781.10	0	1.6660	0	34.6390	4	27.723	0	2740.050	0	79.6	4	23.8	4	-1E+10	1	-1E+10	1	-1E+10	1	-1E+10	1	-1E+10	1	-1E+10	1
4902642	48	C	10/12/2025	22:17	-132.088	46.419	0	2800.80	0	1.6620	0	34.6400	4	27.724	0	2759.334	0	80.3	4	24.0	4	-1E+10	1	-1E+10	1	-1E+10	1	-1E+10	1	-1E+10	1	-1E+10	1
4902642	48	C	10/12/2025	22:17	-132.088	46.419	0	2820.80	0	1.6580	0	34.6410	4	27.725	0	2778.909	0	80.9	4	24.2	4	-1E+10	1	-1E+10	1	-1E+10	1	-1E+10	1	-1E+10	1	-1E+10	1
4902642	48	C	10/12/2025	22:17	-132.088	46.419	0	2840.70	0	1.6560	0	34.6410	4	27.726	0	2798.385	0	81.3	4	24.3	4	-1E+10	1	-1E+10	1	-1E+10	1	-1E+10	1	-1E+10	1	-1E+10	1
4902642	48	C	10/12/2025	22:17	-132.088	46.419	0	2860.70	0	1.6510	0	34.6420	4	27.727	0	2817.957	0	82.0	4	24.5	4	-1E+10	1	-1E+10	1	-1E+10	1	-1E+10	1	-1E+10	1	-1E+10	1
4902642	48	C	10/12/2025	22:17	-132.088	46.419	0	2880.90	0	1.6480	0	34.6430	4	27.728	0	2837.722	0	82.6	4	24.7	4	-1E+10	1	-1E+10	1	-1E+10	1	-1E+10	1	-1E+10	1	-1E+10	1
4902642	48	C	10/12/2025	22:17	-132.088	46.419	0	2901.20	0	1.6450	0	34.6430	4	27.728	0	2857.584	0	83.0	4	24.8	4	-1E+10	1	-1E+10	1	-1E+10	1	-1E+10	1	-1E+10	1	-1E+10	1
4902642	48	C	10/12/2025	22:17	-132.088	46.419	0	2921.60	0	1.6430	0	34.6440	4	27.730	0	2877.542	0	83.4	4	24.9	4	-1E+10	1	-1E+10	1	-1E+10	1	-1E+10	1	-1E+10	1	-1E+10	1
4902642	48	C	10/12/2025	22:17	-132.088	46.419	0	2941.00	0	1.6390	0	34.6440	4	27.730	0	2896.520	0	84.1	4	25.2	4	-1E+10	1	-1E+10	1	-1E+10	1	-1E+10	1	-1E+10	1	-1E+10	1
4902642	48	C	10/12/2025	22:17	-132.088	46.419	0	2960.90	0	1.6340	0	34.6450	4	27.731	0	2915.985	0	84.7	4	25.3	4	-1E+10	1	-1E+10	1	-1E+10	1	-1E+10	1	-1E+10	1	-1E+10	1
4902642	48	C	10/12/2025	22:17	-132.088	46.419	0	2981.00	0	1.6330	0	34.6460	4	27.732	0	2935.644	0	85.2	4	25.5	4	-1E+10	1	-1E+10	1	-1E+10	1	-1E+10	1	-1E+10	1	-1E+10	1
4902642	48	C	10/12/2025	22:17	-132.088	46.419	0	3000.90	0	1.6290	0	34.6460	4	27.733	0	2955.106	0	85.9	4	25.7	4	-1E+10	1	-1E+10	1	-1E+10	1	-1E+10	1	-1E+10	1	-1E+10	1
4902642	48	C	10/12/2025	22:17	-132.088	46.419	0	3021.00	0	1.6240	0	34.6470	4	27.734	0	2974.761	0	86.7	4	25.9	4	-1E+10	1	-1E+10	1	-1E+10	1	-1E+10	1	-1E+10	1	-1E+10	1
4902642	48	C	10/12/2025	22:17	-132.088	46.419	0	3041.40	0	1.6200	0	34.6480	4	27.735	0	2994.708	0	87.4	4	26.1	4	-1E+10	1	-1E+10	1	-1E+10	1	-1E+10	1	-1E+10	1	-1E+10	1
4902642	48	C	10/12/2025	22:17	-132.088	46.419	0	3060.90	0	1.6160	0	34.6490	4	27.736	0	3013.773	0	88.2	4	26.4	4	-1E+10	1	-1E+10	1	-1E+10	1	-1E+10	1	-1E+10	1	-1E+10	1
4902642	48	C	10/12/2025	22:17	-132.088	46.419	0	3080.90	0	1.6080	0	34.6500	4	27.738	0	3033.326	0	89.2	4	26.7	4	-1E+10	1	-1E+10	1	-1E+10	1	-1E+10	1	-1E+10	1	-1E+10	1
4902642	48	C	10/12/2025	22:17	-132.088	46.419	0	3100.90	0	1.6040	0	34.6510	4	27.739	0	3052.876	0	89.9	4	26.9	4	-1E+10	1	-1E+10	1	-1E+10	1	-1E+10	1	-1E+10	1	-1E+10	1
4902642	48	C	10/12/2025	22:17	-132.088	46.419	0	3121.00	0	1.5970	0	34.6520	4	27.741	0	3072.523	0	91.0	4	27.2	4	-1E+10	1	-1E+10	1	-1E+10	1	-1E+10	1	-1E+10	1	-1E+10	1
4902642	48	C	10/12/2025	22:17	-132.088	46.419	0	3141.10	0	1.5930	0	34.6530	4	27.742	0	3092.168	0	91.7	4	27.4	4	-1E+10	1	-1E+10	1	-1E+10	1	-1E+10	1	-1E+10	1	-1E+10	1
4902642	48	C	10/12/2025	22:17	-132.088	46.419	0	3160.60	0	1.5900	0	34.6540	4	27.743	0	3111.225	0	92.2	4	27.5	4	-1E+10	1	-1E+10	1	-1E+10	1	-1E+10	1	-1E+10	1	-1E+10	1
4902642	48	C	10/12/2025	22:17	-132.088	46.419	0	3180.70	0	1.5880	0	34.6540	4	27.743	0	3130.866	0	92.6	4	27.6	4	-1E+10	1	-1E+10	1	-1E+10	1	-1E+10	1	-1E+10	1	-1E+10	1
4902642	48	C	10/12/2025	22:17	-132.088	46.419	0	3200.80	0	1.5860	0	34.6550	4	27.744	0	3150.506	0	93.0	4	27.8	4	-1E+10	1	-1E+10	1	-1E+10	1	-1E+10	1	-1E+10	1	-1E+10	1
4902642	48	C	10/12/2025	22:17	-132.088	46.419	0	3221.00	0	1.5850	0	34.6560	4	27.745	0	3170.241	0	93.3	4	27.8	4	-1E+10	1	-1E+10	1	-1E+10	1	-1E+10	1	-1E+10	1	-1E+10	1
4902642	48	C	10/12/2025	22:17	-132.088	46.419	0	3241.00	0	1.5840	0	34.6560	4	27.745	0	3189.780	0	93.6	4	27.9	4	-1E+10	1	-1E+10	1	-1E+10	1	-1E+10	1	-1E+10	1	-1E+10	1
4902642	48	C	10/12/2025	22:17	-132.088	46.419	0	3260.70	0	1.5830	0	34.6560	4	27.746	0	3209.023	0	93.9	4	28.0	4	-1E+10	1	-1E+10	1	-1E+10	1	-1E+10	1	-1E+10	1	-1E+10	1
4902642	48	C	10/12/2025	22:17	-132.088	46.419	0	3271.50	0	1.5830	0	34.6570	4	27.747	0	3219.572	0	94.1	4	28.1	4	-1E+10	1	-1E+10	1	-1E+10	1	-1E+10	1	-1E+10	1	-1E+10	1
4902642	48	C	10/12/2025	22:17	-132.088	46.419	0	3272.80	0	1.5830	0	34.6570	4	27.747	0	3220.842	0	94.1	4	28.1	4	-1E+10	1	-1E+10	1	-1E+10	1	-1E+10	1	-1E+10	1	-1E+10	1
4902642	48	C	10/12/2025	22:17	-132.088	46.419	0	3273.80	0	1.5830	0	34.6570	4	27.747	0	3221.819	0	94.1	4	28.1	4	-1E+10	1	-1E+10	1	-1E+10	1	-1E+10	1	-1E+10	1	-1E+10	1
4902642	48	C	10/12/2025	22:17	-132.088	46.419	0	3274.70	0	1.5830	0	34.6570	4	27.747	0	3222.698	0	94.1	4	28.1	4	-1E+10	1	-1E+10	1	-1E+10	1	-1E+10	1	-1E+10	1	-1E+10	1
4902642	48	C	10/12/2025	22:17	-132.088	46.419	0	3275.70	0	1.5830	0	34.6570	4	27.747	0	3223.674	0	94.1	4	28.1	4	-1E+10	1	-1E+10	1	-1E+10	1	-1E+10	1	-1E+10	1	-1E+10	1
4902642	48	C	10/12/2025	22:17	-132.088	46.419	0	3276.60	0	1.5830	0	34.6570	4	27.747	0	3224.554	0	94.1	4	28.1	4	-1E+10	1	-1E+10	1	-1E+10	1	-1E+10	1	-1E+10	1	-1E+10	1
4902642	48	C	10/12/2025	22:17	-132.088	46.419	0	3277.50	0	1.5830	0	34.6570	4	27.747	0	3225.432	0	94.2	4	28.1	4	-1E+10	1	-1E+10	1	-1E+10	1	-1E+10	1	-1E+10	1	-1E+10	1
4902642	48	C	10/12/2025	22:17	-132.088	46.419	0	3278.30	0	1.5830	0	34.6570	4	27.747	0	3226.214	0	94.2	4	28.1	4	-1E+10	1	-1E+10	1	-1E+10	1	-1E+10	1	-1E+10	1	-1E+10	1
4902642	48	C	10/12/2025	22:17	-132.088	46.419	0	3279.40	0	1.5830	0	34.6570	4	27.747	0	3227.288	0	94.2	4	28.1	4	-1E+10	1	-1E+10	1	-1E+10	1	-1E+10	1	-1E+10	1	-1E+10	1
4902642	48	C	10/12/2025	22:17	-132.088	46.419	0	3280.20	0	1.5830	0	34.6570	4	27.747	0	3228.070	0	94.2	4	28.1	4	-1E+10	1	-1E+10	1	-1E+10	1	-1E+10	1	-1E+10	1	-1E+10	1
4902642	48	C	10/12/2025	22:17	-132.088	46.419	0	3281.20	0	1.5830	0	34.6570	4	27.747	0	3229.046	0	94.2	4	28.1	4	-1E+10	1	-1E+10	1	-1E+10	1	-1E+10	1	-1E+10	1	-1E+10	1
4902642	48	C	10/12/2025	22:17	-132.088	46.419	0	3282.60	0	1.5830	0	34.6570	4	27.747	0	3230.414	0	94.2	4	28.1	4	-1E+10	1	-1E+10	1	-1E+10	1	-1E+10	1	-1E+10	1	-1E+10	1
4902642	48	C	10/12/2025	22:17	-132.088	46.419	0	3284.00	0	1.5830	0	34.6570	4	27.747	0	3231.781	0	94.2	4	28.1	4	-1E+10	1	-1E+10	1	-1E+10	1	-1E+10	1	-1E+10	1	-1E+10	1
4902642	48	C	10/12/2025	22:17	-132.088	46.419	0	3284.90	0	1.5830	0	34.6570	4	27.747	0	3232.660	0	94.3	4	28.1	4	-1E+10	1	-1E+10	1	-1E+10	1	-1E+10	1	-1E+10	1	-1E+10	1
4902642	48	C	10/12/2025	22:17	-132.088	46.419	0	3285.90	0	1.5830	0	34.6570	4	27.747	0	3233.637	0	94.3	4	28.1	4	-1E+10	1	-1E+10	1	-1E+10	1	-1E+10	1	-1E+10	1	-1E+10	1
4902642	48	C	10/12/2025	22:17	-132.088	46.419	0	3286.70	0	1.5830	0	34.6570	4	27.747	0	3234.418	0	94.2	4	28.1	4	-1E+10	1	-1E+10	1	-1E+10	1	-1E+10	1	-1E+10	1	-1E+10	1
4902642	48	C	10/12/2025	22:17	-132.088	46.419	0	3287.60	0	1.5830	0	34.6570	4	27.747	0	3235.297	0	94.3	4	28.2	4	-1E+10	1	-1E+10	1	-1E+10	1	-1E+10	1	-1E+10	1	-1E+10	1
4902642	48	C	10/12/2025	22:17	-132.088	46.419	0	3288.70	0	1.5830	0	34.6570	4	27.747	0	3236.371	0	94.3	4	28.2	4	-1E+10	1	-1E+10	1	-1E+10	1	-1E+10	1	-1E+10	1	-1E+10	1
4902642	48	C	10/12/2025	22:17	-132.088	46.419	0	3289.50	0	1.5830	0	34.6570	4	27.747	0	3237.153	0	94.3	4	28.2	4	-1E+10	1	-1E+10	1	-1E+10	1	-1E+10	1	-1E+10	1	-1E+10	1
4902642	48	C	10/12/2025	22:17	-132.088	46.419	0	3290.50	0	1.5830	0	34.6570	4	27.747	0	3238.129	0	94.3	4	28.2	4	-1E+10	1	-1E+10	1	-1E+10	1	-1E+10	1	-1E+10	1	-1E+10	1
4902642	48	C	10/12/2025	22:17	-132.088	46.419	0	3291.40	0	1.5830	0	34.6570	4	27.747	0	3239.008	0	94.3	4	28.2	4	-1E+10	1	-1E+10	1	-1E+10	1	-1E+10	1	-1E+10	1	-1E+10	1
4902642	48	C	10/12/2025	22:17	-132.088	46.419	0	3292.40	0	1.5830	0	34.6570	4	27.747	0	3239.985	0	94.3	4	28.2	4	-1E+10	1	-1E+10	1	-1E+10	1	-1E+10	1	-1E+10	1	-1E+10	1
4902642	48	C	10/12/2025	22:17	-132.088	46.419	0	3293.30	0	1.5830	0	34.6570	4	27.747	0	3240.864	0	94.4	4	28.2	4	-1E+10	1	-1E+10	1	-1E+10	1	-1E+10	1	-1E+10	1	-1E+10	1
4902642	48	C	10/12/2025	22:17	-132.088	46.419	0	3294.20	0	1.5830	0	34.6570	4	27.747	0	3241.743	0	94.4	4	28.2	4	-1E+10	1	-1E+10	1	-1E+10	1	-1E+10	1	-1E+10	1	-1E+10	1
4902642	48	C	10/12/2025	22:17	-132.088	46.419	0	3295.60	0	1.5830	0	34.6570	4	27.747	0	3243.110	0	94.4	4	28.2	4	-1E+10	1	-1E+10	1	-1E+10	1	-1E+10	1	-1E+10	1	-1E+10	1
4902642	48	C	10/12/2025	22:17	-132.088	46.419	0	3297.00	0	1.5830	0	34.6570	4	27.747	0	3244.478	0	94.5	4	28.2	4	-1E+10	1	-1E+10	1	-1E+10	1	-1E+10	1	-1E+10	1	-1E+10	1
4902642	48	C	10/12/2025	22:17	-132.088	46.419	0	3297.90	0	1.5830	0	34.6570	4	27.747	0	3245.356	0	94.5	4	28.2	4	-1E+10	1	-1E+10	1	-1E+10	1	-1E+10	1	-1E+10	1	-1E+10	1
4902642	48	C	10/12/2025	22:17	-132.088	46.419	0	3298.80	0	1.5820	0	34.6570	4	27.747	0	3246.236	0	94.5	4	28.2	4	-1E+10	1	-1E+10	1	-1E+10	1	-1E+10	1	-1E+10	1	-1E+10	1
4902642	48	C	10/12/2025	22:17	-132.088	46.419	0	3299.80	0	1.5820	0	34.6570	4	27.747	0	3247.212	0	94.5	4	28.2	4	-1E+10	1	-1E+10	1	-1E+10	1	-1E+10	1	-1E+10	1	-1E+10	1
4902642	48	C	10/12/2025	22:17	-132.088	46.419	0	3300.70	0	1.5820	0	34.6580	4	27.748	0	3248.091	0	94.6	4	28.2	4	-1E+10	1	-1E+10	1	-1E+10	1	-1E+10	1	-1E+10	1	-1E+10	1
4902642	48	C	10/12/2025	22:17	-132.088	46.419	0	3301.70	0	1.5820	0	34.6570	4	27.747	0	3249.068	0	94.6	4	28.2	4	-1E+10	1	-1E+10	1	-1E+10	1	-1E+10	1	-1E+10	1	-1E+10	1
4902642	48	C	10/12/2025	22:17	-132.088	46.419	0	3302.70	0	1.5820	0	34.6570	4	27.747	0	3250.044	0	94.6	4	28.2	4	-1E+10	1	-1E+10	1	-1E+10	1	-1E+10	1	-1E+10	1	-1E+10	1
4902642	48	C	10/12/2025	22:17	-132.088	46.419	0	3303.60	0	1.5810	0	34.6580	4	27.748	0	3250.923	0	94.7	4	28.3	4	-1E+10	1	-1E+10	1	-1E+10	1	-1E+10	1	-1E+10	1	-1E+10	1
4902642	48	C	10/12/2025	22:17	-132.088	46.419	0	3304.50	0	1.5820	0	34.6580	4	27.748	0	3251.802	0	94.6	4	28.2	4	-1E+10	1	-1E+10	1	-1E+10	1	-1E+10	1	-1E+10	1	-1E+10	1
4902642	48	C	10/12/2025	22:17	-132.088	46.419	0	3305.50	0	1.5820	0	34.6570	4	27.747	0	3252.779	0	94.7	4	28.3	4	-1E+10	1	-1E+10	1	-1E+10	1	-1E+10	1	-1E+10	1	-1E+10	1
4902642	48	C	10/12/2025	22:17	-132.088	46.419	0	3306.40	0	1.5810	0	34.6580	4	27.748	0	3253.658	0	94.7	4	28.3	4	-1E+10	1	-1E+10	1	-1E+10	1	-1E+10	1	-1E+10	1	-1E+10	1
4902642	48	C	10/12/2025	22:17	-132.088	46.419	0	3307.30	0	1.5820	0	34.6570	4	27.747	0	3254.537	0	94.7	4	28.3	4	-1E+10	1	-1E+10	1	-1E+10	1	-1E+10	1	-1E+10	1	-1E+10	1
4902642	48	C	10/12/2025	22:17	-132.088	46.419	0	3308.30	0	1.5820	0	34.6570	4	27.747	0	3255.513	0	94.7	4	28.3	4	-1E+10	1	-1E+10	1	-1E+10	1	-1E+10	1	-1E+10	1	-1E+10	1
4902642	48	C	10/12/2025	22:17	-132.088	46.419	0	3309.30	0	1.5810	0	34.6580	4	27.748	0	3256.490	0	94.8	4	28.3	4	-1E+10	1	-1E+10	1	-1E+10	1	-1E+10	1	-1E+10	1	-1E+10	1
4902642	48	C	10/12/2025	22:17	-132.088	46.419	0	3310.30	0	1.5820	0	34.6570	4	27.747	0	3257.466	0	94.9	4	28.3	4	-1E+10	1	-1E+10	1	-1E+10	1	-1E+10	1	-1E+10	1	-1E+10	1
4902642	48	C	10/12/2025	22:17	-132.088	46.419	0	3311.20	0	1.5810	0	34.6580	4	27.748	0	3258.345	0	94.9	4	28.3	4	-1E+10	1	-1E+10	1	-1E+10	1	-1E+10	1	-1E+10	1	-1E+10	1
4902642	48	C	10/12/2025	22:17	-132.088	46.419	0	3312.20	0	1.5810	0	34.6580	4	27.748	0	3259.322	0	94.9	4	28.3	4	-1E+10	1	-1E+10	1	-1E+10	1	-1E+10	1	-1E+10	1	-1E+10	1
4902642	48	C	10/12/2025	22:17	-132.088	46.419	0	3313.10	0	1.5810	0	34.6580	4	27.748	0	3260.201	0	94.9	4	28.3	4	-1E+10	1	-1E+10	1	-1E+10	1	-1E+10	1	-1E+10	1	-1E+10	1
4902642	48	C	10/12/2025	22:17	-132.088	46.419	0	3314.50	0	1.5790	0	34.6580	4	27.748	0	3261.568	0	95.0	4	28.3	4	-1E+10	1	-1E+10	1	-1E+10	1	-1E+10	1	-1E+10	1	-1E+10	1
4902642	48	C	10/12/2025	22:17	-132.088	46.419	0	3315.90	0	1.5800	0	34.6580	4	27.748	0	3262.935	0	95.0	4	28.4	4	-1E+10	1	-1E+10	1	-1E+10	1	-1E+10	1	-1E+10	1	-1E+10	1
4902642	48	C	10/12/2025	22:17	-132.088	46.419	0	3317.40	0	1.5790	0	34.6580	4	27.748	0	3264.400	0	95.1	4	28.4	4	-1E+10	1	-1E+10	1	-1E+10	1	-1E+10	1	-1E+10	1	-1E+10	1
4902642	48	C	10/12/2025	22:17	-132.088	46.419	0	3318.50	0	1.5780	0	34.6580	4	27.748	0	3265.474	0	95.1	4	28.4	4	-1E+10	1	-1E+10	1	-1E+10	1	-1E+10	1	-1E+10	1	-1E+10	1
4902642	48	C	10/12/2025	22:17	-132.088	46.419	0	3319.60	0	1.5780	0	34.6580	4	27.748	0	3266.548	0	95.1	4	28.4	4	-1E+10	1	-1E+10	1	-1E+10	1	-1E+10	1	-1E+10	1	-1E+10	1
4902642	48	C	10/12/2025	22:17	-132.088	46.419	0	3320.40	0	1.5780	0	34.6580	4	27.748	0	3267.329	0	95.1	4	28.4	4	-1E+10	1	-1E+10	1	-1E+10	1	-1E+10	1	-1E+10	1	-1E+10	1
4902642	48	C	10/12/2025	22:17	-132.088	46.419	0	3321.90	0	1.5770	0	34.6590	4	27.749	0	3268.794	0	95.1	4	28.4	4	-1E+10	1	-1E+10	1	-1E+10	1	-1E+10	1	-1E+10	1	-1E+10	1
4902642	48	C	10/12/2025	22:17	-132.088	46.419	0	3322.20	0	1.5770	0	34.6580	4	27.748	0	3269.087	0	95.2	4	28.4	4	-1E+10	1	-1E+10	1	-1E+10	1	-1E+10	1	-1E+10	1	-1E+10	1
4902642	48	C	10/12/2025	22:17	-132.088	46.419	0																										
4902642	49	C	10/22/2025	21:56	-132.136	46.496	0	0.90	0	15.2623	0	32.3763	0	23.894	0	0.893	0	225.9	4	90.0	4	-1E+10	1	-1E+10	1	-1E+10	1	-1E+10	1	-1E+10	1	-1E+10	1
4902642	49	C	10/22/2025	21:56	-132.136	46.496	0	1.00	0	15.2640	0	32.3740	0	23.892	0	0.992	0	226.0	4	90.0	4	-1E+10	1	-1E+10	1	-1E+10	1	-1E+10	1	-1E+10	1	-1E+10	1
4902642	49	C	10/22/2025	21:56	-132.136	46.496	0	1.20	0	15.2635	0	32.3755	0	23.893	0	1.190	0	225.9	4	90.0	4	-1E+10	1	-1E+10	1	-1E+10	1	-1E+10	1	-1E+10	1	-1E+10	1
4902642	49	C	10/22/2025	21:56	-132.136	46.496	0	1.30	0	15.2590	0	32.3770	0	23.895	0	1.289	0	225.9	4	90.0	4	-1E+10	1	-1E+10	1	-1E+10	1	-1E+10	1	-1E+10	1	-1E+10	1
4902642	49	C	10/22/2025	21:56	-132.136	46.496	0	1.40	0	15.2640	0	32.3760	0	23.894	0	1.388	0	-1e10	1	-1e10	1	-1E+10	1	-1E+10	1	-1E+10	1	-1E+10	1	-1E+10	1	-1E+10	1
4902642	49	C	10/22/2025	21:56	-132.136	46.496	0	1.70	0	15.2590	0	32.3740	0	23.893	0	1.686	0	225.7	4	89.9	4	-1E+10	1	-1E+10	1	-1E+10	1	-1E+10	1	-1E+10	1	-1E+10	1
4902642	49	C	10/22/2025	21:56	-132.136	46.496	0	1.80	0	15.2592	0	32.3738	0	23.893	0	1.785	0	225.7	4	89.9	4	-1E+10	1	-1E+10	1	-1E+10	1	-1E+10	1	-1E+10	1	-1E+10	1
4902642	49	C	10/22/2025	21:56	-132.136	46.496	0	2.30	0	15.2600	0	32.3730	0	23.892	0	2.281	0	225.8	4	90.0	4	-1E+10	1	-1E+10	1	-1E+10	1	-1E+10	1	-1E+10	1	-1E+10	1
4902642	49	C	10/22/2025	21:56	-132.136	46.496	0	3.40	0	15.2610	0	32.3720	0	23.891	0	3.372	0	225.8	4	89.9	4	-1E+10	1	-1E+10	1	-1E+10	1	-1E+10	1	-1E+10	1	-1E+10	1
4902642	49	C	10/22/2025	21:56	-132.136	46.496	0	4.60	0	15.2610	0	32.3730	0	23.892	0	4.562	0	225.8	4	89.9	4	-1E+10	1	-1E+10	1	-1E+10	1	-1E+10	1	-1E+10	1	-1E+10	1
4902642	49	C	10/22/2025	21:56	-132.136	46.496	0	5.50	0	15.2590	0	32.3740	0	23.893	0	5.455	0	225.8	4	89.9	4	-1E+10	1	-1E+10	1	-1E+10	1	-1E+10	1	-1E+10	1	-1E+10	1
4902642	49	C	10/22/2025	21:56	-132.136	46.496	0	6.50	0	15.2580	0	32.3750	0	23.894	0	6.446	0	225.7	4	89.9	4	-1E+10	1	-1E+10	1	-1E+10	1	-1E+10	1	-1E+10	1	-1E+10	1
4902642	49	C	10/22/2025	21:56	-132.136	46.496	0	7.50	0	15.2610	0	32.3740	0	23.893	0	7.438	0	225.7	4	89.9	4	-1E+10	1	-1E+10	1	-1E+10	1	-1E+10	1	-1E+10	1	-1E+10	1
4902642	49	C	10/22/2025	21:56	-132.136	46.496	0	8.50	0	15.2620	0	32.3740	0	23.893	0	8.430	0	225.6	4	89.9	4	-1E+10	1	-1E+10	1	-1E+10	1	-1E+10	1	-1E+10	1	-1E+10	1
4902642	49	C	10/22/2025	21:56	-132.136	46.496	0	9.70	0	15.2590	0	32.3740	0	23.893	0	9.620	0	225.6	4	89.9	4	-1E+10	1	-1E+10	1	-1E+10	1	-1E+10	1	-1E+10	1	-1E+10	1
4902642	49	C	10/22/2025	21:56	-132.136	46.496	0	14.80	0	15.2640	0	32.3740	0	23.892	0	14.677	0	225.5	4	89.9	4	-1E+10	1	-1E+10	1	-1E+10	1	-1E+10	1	-1E+10	1	-1E+10	1
4902642	49	C	10/22/2025	21:56	-132.136	46.496	0	24.90	0	15.2540	0	32.3740	0	23.895	0	24.693	0	225.3	4	89.8	4	-1E+10	1	-1E+10	1	-1E+10	1	-1E+10	1	-1E+10	1	-1E+10	1
4902642	49	C	10/22/2025	21:56	-132.136	46.496	0	35.50	0	15.2230	0	32.3730	0	23.901	0	35.204	0	225.4	4	89.7	4	-1E+10	1	-1E+10	1	-1E+10	1	-1E+10	1	-1E+10	1	-1E+10	1
4902642	49	C	10/22/2025	21:56	-132.136	46.496	0	44.80	0	14.4760	0	32.3780	0	24.065	0	44.425	0	230.8	4	90.5	4	-1E+10	1	-1E+10	1	-1E+10	1	-1E+10	1	-1E+10	1	-1E+10	1
4902642	49	C	10/22/2025	21:56	-132.136	46.496	0	55.60	0	11.3380	0	32.4010	0	24.694	0	55.134	0	242.4	4	89.2	4	-1E+10	1	-1E+10	1	-1E+10	1	-1E+10	1	-1E+10	1	-1E+10	1
4902642	49	C	10/22/2025	21:56	-132.136	46.496	0	65.10	0	10.4730	0	32.4030	0	24.847	0	64.552	0	239.9	4	86.6	4	-1E+10	1	-1E+10	1	-1E+10	1	-1E+10	1	-1E+10	1	-1E+10	1
4902642	49	C	10/22/2025	21:56	-132.136	46.496	0	75.00	0	9.7760	0	32.4180	0	24.975	0	74.367	0	238.1	4	84.7	4	-1E+10	1	-1E+10	1	-1E+10	1	-1E+10	1	-1E+10	1	-1E+10	1
4902642	49	C	10/22/2025	21:56	-132.136	46.496	0	84.90	0	9.2290	0	32.4450	0	25.084	0	84.182	0	237.1	4	83.4	4	-1E+10	1	-1E+10	1	-1E+10	1	-1E+10	1	-1E+10	1	-1E+10	1
4902642	49	C	10/22/2025	21:56	-132.136	46.496	0	95.20	0	9.0830	0	32.4930	0	25.144	0	94.392	0	234.4	4	82.2	4	-1E+10	1	-1E+10	1	-1E+10	1	-1E+10	1	-1E+10	1	-1E+10	1
4902642	49	C	10/22/2025	21:56	-132.136	46.496	0	104.80	0	8.9220	0	32.5580	0	25.220	0	103.909	0	224.2	4	78.4	4	-1E+10	1	-1E+10	1	-1E+10	1	-1E+10	1	-1E+10	1	-1E+10	1
4902642	49	C	10/22/2025	21:56	-132.136	46.496	0	114.70	0	8.5990	0	32.7190	0	25.396	0	113.722	0	210.2	4	73.0	4	-1E+10	1	-1E+10	1	-1E+10	1	-1E+10	1	-1E+10	1	-1E+10	1
4902642	49	C	10/22/2025	21:56	-132.136	46.496	0	125.40	0	8.3110	0	32.9170	0	25.595	0	124.327	0	197.1	4	68.1	4	-1E+10	1	-1E+10	1	-1E+10	1	-1E+10	1	-1E+10	1	-1E+10	1
4902642	49	C	10/22/2025	21:56	-132.136	46.496	0	134.70	0	8.0210	0	33.1650	0	25.832	0	133.545	0	178.6	4	61.5	4	-1E+10	1	-1E+10	1	-1E+10	1	-1E+10	1	-1E+10	1	-1E+10	1
4902642	49	C	10/22/2025	21:56	-132.136	46.496	0	144.80	0	7.7290	0	33.3730	0	26.038	0	143.554	0	175.2	4	60.0	4	-1E+10	1	-1E+10	1	-1E+10	1	-1E+10	1	-1E+10	1	-1E+10	1
4902642	49	C	10/22/2025	21:56	-132.136	46.496	0	154.50	0	7.5340	0	33.5010	0	26.166	0	153.167	0	174.7	4	59.6	4	-1E+10	1	-1E+10	1	-1E+10	1	-1E+10	1	-1E+10	1	-1E+10	1
4902642	49	C	10/22/2025	21:56	-132.136	46.496	0	165.00	0	7.4100	0	33.5730	0	26.240	0	163.573	0	174.8	4	59.5	4	-1E+10	1	-1E+10	1	-1E+10	1	-1E+10	1	-1E+10	1	-1E+10	1
4902642	49	C	10/22/2025	21:56	-132.136	46.496	0	175.30	0	7.2840	0	33.6300	0	26.303	0	173.779	0	171.7	4	58.3	4	-1E+10	1	-1E+10	1	-1E+10	1	-1E+10	1	-1E+10	1	-1E+10	1
4902642	49	C	10/22/2025	21:56	-132.136	46.496	0	185.00	0	7.1610	0	33.6780	0	26.358	0	183.391	0	165.3	4	56.0	4	-1E+10	1	-1E+10	1	-1E+10	1	-1E+10	1	-1E+10	1	-1E+10	1
4902642	49	C	10/22/2025	21:56	-132.136	46.496	0	195.00	0	7.0640	0	33.7200	0	26.404	0	193.299	0	153.2	4	51.8	4	-1E+10	1	-1E+10	1	-1E+10	1	-1E+10	1	-1E+10	1	-1E+10	1
4902642	49	C	10/22/2025	21:56	-132.136	46.496	0	210.10	0	6.9110	0	33.7820	0	26.474	0	208.260	0	129.2	4	43.5	4	-1E+10	1	-1E+10	1	-1E+10	1	-1E+10	1	-1E+10	1	-1E+10	1
4902642	49	C	10/22/2025	21:56	-132.136	46.496	0	229.80	0	6.5310	0	33.8180	0	26.553	0	227.776	0	128.5	4	42.9	4	-1E+10	1	-1E+10	1	-1E+10	1	-1E+10	1	-1E+10	1	-1E+10	1
4902642	49	C	10/22/2025	21:56	-132.136	46.496	0	250.20	0	6.2620	0	33.8250	0	26.594	0	247.985	0	116.7	4	38.8	4	-1E+10	1	-1E+10	1	-1E+10	1	-1E+10	1	-1E+10	1	-1E+10	1
4902642	49	C	10/22/2025	21:56	-132.136	46.496	0	270.10	0	6.1830	0	33.8610	0	26.633	0	267.695	0	93.6	4	31.0	4	-1E+10	1	-1E+10	1	-1E+10	1	-1E+10	1	-1E+10	1	-1E+10	1
4902642	49	C	10/22/2025	21:56	-132.136	46.496	0	290.30	0	6.0640	0	33.8850	0	26.667	0	287.702	0	81.8	4	27.1	4	-1E+10	1	-1E+10	1	-1E+10	1	-1E+10	1	-1E+10	1	-1E+10	1
4902642	49	C	10/22/2025	21:56	-132.136	46.496	0	310.40	0	5.9240	0	33.8970	0	26.694	0	307.607	0	75.4	4	24.9	4	-1E+10	1	-1E+10	1	-1E+10	1	-1E+10	1	-1E+10	1	-1E+10	1
4902642	49	C	10/22/2025	21:56	-132.136	46.496	0	330.10	0	5.7860	0	33.9190	0	26.729	0	327.114	0	65.6	4	21.6	4	-1E+10	1	-1E+10	1	-1E+10	1	-1E+10	1	-1E+10	1	-1E+10	1
4902642	49	C	10/22/2025	21:56	-132.136	46.496	0	349.90	0	5.6410	0	33.9440	0	26.766	0	346.718	0	57.5	4	18.8	4	-1E+10	1	-1E+10	1	-1E+10	1	-1E+10	1	-1E+10	1	-1E+10	1
4902642	49	C	10/22/2025	21:56	-132.136	46.496	0	369.60	0	5.4620	0	33.9600	0	26.801	0	366.222	0	52.0	4	17.0	4	-1E+10	1	-1E+10	1	-1E+10	1	-1E+10	1	-1E+10	1	-1E+10	1
4902642	49	C	10/22/2025	21:56	-132.136	46.496	0	390.00	0	5.3640	0	33.9800	0	26.828	0	386.416	0	46.1	4	15.0	4	-1E+10	1	-1E+10	1	-1E+10	1	-1E+10	1	-1E+10	1	-1E+10	1
4902642	49	C	10/22/2025	21:56	-132.136	46.496	0	409.90	0	5.2700	0	34.0030	0	26.858	0	406.114	0	40.8	4	13.3	4	-1E+10	1	-1E+10	1	-1E+10	1	-1E+10	1	-1E+10	1	-1E+10	1
4902642	49	C	10/22/2025	21:56	-132.136	46.496	0	430.00	0	5.1730	0	34.0170	0	26.880	0	426.008	0	37.6	4	12.2	4	-1E+10	1	-1E+10	1	-1E+10	1	-1E+10	1	-1E+10	1	-1E+10	1
4902642	49	C	10/22/2025	21:56	-132.136	46.496	0	450.00	0	5.0500	0	34.0280	0	26.903	0	445.801	0	34.6	4	11.2	4	-1E+10	1	-1E+10	1	-1E+10	1	-1E+10	1	-1E+10	1	-1E+10	1
4902642	49	C	10/22/2025	21:56	-132.136	46.496	0	470.00	0	4.9710	0	34.0510	0	26.931	0	465.592	0	29.5	4	9.5	4	-1E+10	1	-1E+10	1	-1E+10	1	-1E+10	1	-1E+10	1	-1E+10	1
4902642	49	C	10/22/2025	21:56	-132.136	46.496	0	490.00	0	4.8640	0	34.0740	0	26.961	0	485.381	0	25.3	4	8.2	4	-1E+10	1	-1E+10	1	-1E+10	1	-1E+10	1	-1E+10	1	-1E+10	1
4902642	49	C	10/22/2025	21:56	-132.136	46.496	0	510.30	0	4.7800	0	34.0890	0	26.982	0	505.464	0	22.6	4	7.3	4	-1E+10	1	-1E+10	1	-1E+10	1	-1E+10	1	-1E+10	1	-1E+10	1
4902642	49	C	10/22/2025	21:56	-132.136	46.496	0	530.30	0	4.7080	0	34.1040	0	27.002	0	525.250	0	20.0	4	6.4	4	-1E+10	1	-1E+10	1	-1E+10	1	-1E+10	1	-1E+10	1	-1E+10	1
4902642	49	C	10/22/2025	21:56	-132.136	46.496	0	550.10	0	4.6340	0	34.1200	0	27.023	0	544.835	0	17.6	4	5.6	4	-1E+10	1	-1E+10	1	-1E+10	1	-1E+10	1	-1E+10	1	-1E+10	1
4902642	49	C	10/22/2025	21:56	-132.136	46.496	0	570.00	0	4.5760	0	34.1390	0	27.045	0	564.518	0	15.0	4	4.8	4	-1E+10	1	-1E+10	1	-1E+10	1	-1E+10	1	-1E+10	1	-1E+10	1
4902642	49	C	10/22/2025	21:56	-132.136	46.496	0	590.40	0	4.5240	0	34.1590	0	27.067	0	584.693	0	12.9	4	4.1	4	-1E+10	1	-1E+10	1	-1E+10	1	-1E+10	1	-1E+10	1	-1E+10	1
4902642	49	C	10/22/2025	21:56	-132.136	46.496	0	610.10	0	4.4470	0	34.1760	0	27.089	0	604.174	0	11.5	4	3.7	4	-1E+10	1	-1E+10	1	-1E+10	1	-1E+10	1	-1E+10	1	-1E+10	1
4902642	49	C	10/22/2025	21:56	-132.136	46.496	0	630.00	0	4.3510	0	34.1870	0	27.108	0	623.851	0	10.7	4	3.4	4	-1E+10	1	-1E+10	1	-1E+10	1	-1E+10	1	-1E+10	1	-1E+10	1
4902642	49	C	10/22/2025	21:56	-132.136	46.496	0	649.60	0	4.2990	0	34.2010	0	27.125	0	643.229	0	9.7	4	3.1	4	-1E+10	1	-1E+10	1	-1E+10	1	-1E+10	1	-1E+10	1	-1E+10	1
4902642	49	C	10/22/2025	21:56	-132.136	46.496	0	669.70	0	4.2460	0	34.2130	0	27.140	0	663.100	0	8.9	4	2.8	4	-1E+10	1	-1E+10	1	-1E+10	1	-1E+10	1	-1E+10	1	-1E+10	1
4902642	49	C	10/22/2025	21:56	-132.136	46.496	0	690.00	0	4.1860	0	34.2240	0	27.155	0	683.167	0	8.4	4	2.7	4	-1E+10	1	-1E+10	1	-1E+10	1	-1E+10	1	-1E+10	1	-1E+10	1
4902642	49	C	10/22/2025	21:56	-132.136	46.496	0	710.10	0	4.1570	0	34.2380	0	27.169	0	703.034	0	7.4	4	2.4	4	-1E+10	1	-1E+10	1	-1E+10	1	-1E+10	1	-1E+10	1	-1E+10	1
4902642	49	C	10/22/2025	21:56	-132.136	46.496	0	730.10	0	4.1340	0	34.2530	0	27.184	0	722.800	0	6.9	4	2.2	4	-1E+10	1	-1E+10	1	-1E+10	1	-1E+10	1	-1E+10	1	-1E+10	1
4902642	49	C	10/22/2025	21:56	-132.136	46.496	0	749.90	0	4.0680	0	34.2600	0	27.196	0	742.367	0	6.6	4	2.1	4	-1E+10	1	-1E+10	1	-1E+10	1	-1E+10	1	-1E+10	1	-1E+10	1
4902642	49	C	10/22/2025	21:56	-132.136	46.496	0	769.90	0	4.0060	0	34.2770	0	27.216	0	762.130	0	6.2	4	2.0	4	-1E+10	1	-1E+10	1	-1E+10	1	-1E+10	1	-1E+10	1	-1E+10	1
4902642	49	C	10/22/2025	21:56	-132.136	46.496	0	790.10	0	3.8910	0	34.2820	0	27.232	0	782.088	0	6.2	4	1.9	4	-1E+10	1	-1E+10	1	-1E+10	1	-1E+10	1	-1E+10	1	-1E+10	1
4902642	49	C	10/22/2025	21:56	-132.136	46.496	0	810.70	0	3.8560	0	34.2880	0	27.241	0	802.440	0	6.0	4	1.9	4	-1E+10	1	-1E+10	1	-1E+10	1	-1E+10	1	-1E+10	1	-1E+10	1
4902642	49	C	10/22/2025	21:56	-132.136	46.496	0	830.00	0	3.8300	0	34.2980	0	27.251	0	821.505	0	5.8	4	1.8	4	-1E+10	1	-1E+10	1	-1E+10	1	-1E+10	1	-1E+10	1	-1E+10	1
4902642	49	C	10/22/2025	21:56	-132.136	46.496	0	849.80	0	3.7760	0	34.3100	0	27.266	0	841.063	0	5.6	4	1.8	4	-1E+10	1	-1E+10	1	-1E+10	1	-1E+10	1	-1E+10	1	-1E+10	1
4902642	49	C	10/22/2025	21:56	-132.136	46.496	0	869.70	0	3.7380	0	34.3240	0	27.281	0	860.717	0	5.5	4	1.7	4	-1E+10	1	-1E+10	1	-1E+10	1	-1E+10	1	-1E+10	1	-1E+10	1
4902642	49	C	10/22/2025	21:56	-132.136	46.496	0	889.90	0	3.7250	0	34.3350	0	27.292	0	880.666	0	5.4	4	1.7	4	-1E+10	1	-1E+10	1	-1E+10	1	-1E+10	1	-1E+10	1	-1E+10	1
4902642	49	C	10/22/2025	21:56	-132.136	46.496	0	910.20	0	3.6820	0	34.3450	0	27.304	0	900.712	0	5.5	4	1.7	4	-1E+10	1	-1E+10	1	-1E+10	1	-1E+10	1	-1E+10	1	-1E+10	1
4902642	49	C	10/22/2025	21:56	-132.136	46.496	0	930.00	0	3.6500	0	34.3580	0	27.318	0	920.262	0	5.6	4	1.8	4	-1E+10	1	-1E+10	1	-1E+10	1	-1E+10	1	-1E+10	1	-1E+10	1
4902642	49	C	10/22/2025	21:56	-132.136	46.496	0	950.20	0	3.5940	0	34.3660	0	27.330	0	940.205	0	5.8	4	1.8	4	-1E+10	1	-1E+10	1	-1E+10	1	-1E+10	1	-1E+10	1	-1E+10	1
4902642	49	C	10/22/2025	21:56	-132.136	46.496	0	969.60	0	3.5470	0	34.3740	0	27.341	0	959.356	0	6.0	4	1.9	4	-1E+10	1	-1E+10	1	-1E+10	1	-1E+10	1	-1E+10	1	-1E+10	1
4902642	49	C	10/22/2025	21:56	-132.136	46.496	0	989.80	0	3.4720	0	34.3740	0	27.348	0	979.296	0	5.8	4	1.8	4	-1E+10	1	-1E+10	1	-1E+10	1	-1E+10	1	-1E+10	1	-1E+10	1
4902642	49	C	10/22/2025	21:56	-132.136	46.496	0	1009.80	0	3.3980	0	34.3810	0	27.361	0	999.036	0	6.2	4	1.9	4	-1E+10	1	-1E+10	1	-1E+10	1	-1E+10	1	-1E+10	1	-1E+10	1
4902642	49	C	10/22/2025	21:56	-132.136	46.496	0	1029.80	0	3.3910	0	34.3970	0	27.374	0	1018.774	0	6.5	4	2.0	4	-1E+10	1	-1E+10	1	-1E+10	1	-1E+10	1	-1E+10	1	-1E+10	1
4902642	49	C	10/22/2025	21:56	-132.136	46.496	0	1050.00	0	3.3100	0	34.3960	0	27.381	0	1038.708	0	6.4	4	2.0	4	-1E+10	1	-1E+10	1	-1E+10	1	-1E+10	1	-1E+10	1	-1E+10	1
4902642	49	C	10/22/2025	21:56	-132.136	46.496	0	1070.20	0	3.2780	0	34.4000	0	27.387	0	1058.639	0	6.6	4	2.1	4	-1E+10	1	-1E+10	1	-1E+10	1	-1E+10	1	-1E+10	1	-1E+10	1
4902642	49	C	10/22/2025	21:56	-132.136	46.496	0	1090.60	0	3.2350	0	34.4080	0	27.398	0	1078.767	0	6.9	4	2.2	4	-1E+10	1	-1E+10	1	-1E+10	1	-1E+10	1	-1E+10	1	-1E+10	1
4902642	49	C	10/22/2025	21:56	-132.136	46.496	0	1110.10	0	3.1960	0	34.4150	0	27.407	0	1098.004	0	7.3	4	2.3	4	-1E+10	1	-1E+10	1	-1E+10	1	-1E+10	1	-1E+10	1	-1E+10	1
4902642	49	C	10/22/2025	21:56	-132.136	46.496	0	1130.30	0	3.1710	0	34.4210	0	27.415	0	1117.930	0	7.6	4	2.4	4	-1E+10	1	-1E+10	1	-1E+10	1	-1E+10	1	-1E+10	1	-1E+10	1
4902642	49	C	10/22/2025	21:56	-132.136	46.496	0	1149.90	0	3.1410	0	34.4270	0	27.422	0	1137.263	0	8.2	4	2.5	4	-1E+10	1	-1E+10	1	-1E+10	1	-1E+10	1	-1E+10	1	-1E+10	1
4902642	49	C	10/22/2025	21:56	-132.136	46.496	0	1170.00	0	3.0930	0	34.4340	0	27.432	0	1157.087	0	8.5	4	2.6	4	-1E+10	1	-1E+10	1	-1E+10	1	-1E+10	1	-1E+10	1	-1E+10	1
4902642	49	C	10/22/2025	21:56	-132.136	46.496	0	1190.20	0	3.0530	0	34.4390	0	27.440	0	1177.007	0	8.9	4	2.7	4	-1E+10	1	-1E+10	1	-1E+10	1	-1E+10	1	-1E+10	1	-1E+10	1
4902642	49	C	10/22/2025	21:56	-132.136	46.496	0	1210.10	0	3.0100	0	34.4450	0	27.449	0	1196.630	0	9.4	4	2.9	4	-1E+10	1	-1E+10	1	-1E+10	1	-1E+10	1	-1E+10	1	-1E+10	1
4902642	49	C	10/22/2025	21:56	-132.136	46.496	0	1230.40	0	2.9760	0	34.4500	0	27.456	0	1216.645	0	9.8	4	3.0	4	-1E+10	1	-1E+10	1	-1E+10	1	-1E+10	1	-1E+10	1	-1E+10	1
4902642	49	C	10/22/2025	21:56	-132.136	46.496	0	1249.80	0	2.9440	0	34.4550	0	27.463	0	1235.772	0	10.4	4	3.2	4	-1E+10	1	-1E+10	1	-1E+10	1	-1E+10	1	-1E+10	1	-1E+10	1
4902642	49	C	10/22/2025	21:56	-132.136	46.496	0	1269.70	0	2.9100	0	34.4600	0	27.470	0	1255.389	0	11.0	4	3.4	4	-1E+10	1	-1E+10	1	-1E+10	1	-1E+10	1	-1E+10	1	-1E+10	1
4902642	49	C	10/22/2025	21:56	-132.136	46.496	0	1289.90	0	2.8790	0	34.4640	0	27.476	0	1275.300	0	11.8	4	3.6	4	-1E+10	1	-1E+10	1	-1E+10	1	-1E+10	1	-1E+10	1	-1E+10	1
4902642	49	C	10/22/2025	21:56	-132.136	46.496	0	1310.30	0	2.8520	0	34.4700	0	27.483	0	1295.406	0	12.8	4	4.0	4	-1E+10	1	-1E+10	1	-1E+10	1	-1E+10	1	-1E+10	1	-1E+10	1
4902642	49	C	10/22/2025	21:56	-132.136	46.496	0	1330.10	0	2.8160	0	34.4740	0	27.490	0	1314.920	0	13.4	4	4.1	4	-1E+10	1	-1E+10	1	-1E+10	1	-1E+10	1	-1E+10	1	-1E+10	1
4902642	49	C	10/22/2025	21:56	-132.136	46.496	0	1350.00	0	2.7790	0	34.4790	0	27.497	0	1334.529	0	14.2	4	4.4	4	-1E+10	1	-1E+10	1	-1E+10	1	-1E+10	1	-1E+10	1	-1E+10	1
4902642	49	C	10/22/2025	21:56	-132.136	46.496	0	1370.30	0	2.7290	0	34.4860	0	27.507	0	1354.532	0	15.3	4	4.7	4	-1E+10	1	-1E+10	1	-1E+10	1	-1E+10	1	-1E+10	1	-1E+10	1
4902642	49	C	10/22/2025	21:56	-132.136	46.496	0	1390.40	0	2.6880	0	34.4910	0	27.515	0	1374.335	0	16.1	4	4.9	4	-1E+10	1	-1E+10	1	-1E+10	1	-1E+10	1	-1E+10	1	-1E+10	1
4902642	49	C	10/22/2025	21:56	-132.136	46.496	0	1410.20	0	2.6380	0	34.4960	0	27.523	0	1393.841	0	17.2	4	5.3	4	-1E+10	1	-1E+10	1	-1E+10	1	-1E+10	1	-1E+10	1	-1E+10	1
4902642	49	C	10/22/2025	21:56	-132.136	46.496	0	1430.10	0	2.6020	0	34.5010	0	27.531	0	1413.443	0	18.3	4	5.6	4	-1E+10	1	-1E+10	1	-1E+10	1	-1E+10	1	-1E+10	1	-1E+10	1
4902642	49	C	10/22/2025	21:56	-132.136	46.496	0	1450.50	0	2.5650	0	34.5050	0	27.537	0	1433.536	0	19.3	4	5.9	4	-1E+10	1	-1E+10	1	-1E+10	1	-1E+10	1	-1E+10	1	-1E+10	1
4902642	49	C	10/22/2025	21:56	-132.136	46.496	0	1469.60	0	2.5350	0	34.5090	0	27.543	0	1452.347	0	20.2	4	6.2	4	-1E+10	1	-1E+10	1	-1E+10	1	-1E+10	1	-1E+10	1	-1E+10	1
4902642	49	C	10/22/2025	21:56	-132.136	46.496	0	1489.80	0	2.5090	0	34.5120	0	27.548	0	1472.240	0	21.3	4	6.5	4	-1E+10	1	-1E+10	1	-1E+10	1	-1E+10	1	-1E+10	1	-1E+10	1
4902642	49	C	10/22/2025	21:56	-132.136	46.496	0	1510.20	0	2.4830	0	34.5160	0	27.553	0	1492.328	0	22.6	4	6.9	4	-1E+10	1	-1E+10	1	-1E+10	1	-1E+10	1	-1E+10	1	-1E+10	1
4902642	49	C	10/22/2025	21:56	-132.136	46.496	0	1529.60	0	2.4550	0	34.5200	0	27.559	0	1511.429	0	23.4	4	7.1	4	-1E+10	1	-1E+10	1	-1E+10	1	-1E+10	1	-1E+10	1	-1E+10	1
4902642	49	C	10/22/2025	21:56	-132.136	46.496	0	1549.80	0	2.4290	0	34.5220	0	27.563	0	1531.316	0	23.9	4	7.3	4	-1E+10	1	-1E+10	1	-1E+10	1	-1E+10	1	-1E+10	1	-1E+10	1
4902642	49	C	10/22/2025	21:56	-132.136	46.496	0	1570.20	0	2.3970	0	34.5250	0	27.568	0	1551.397	0	24.7	4	7.5	4	-1E+10	1	-1E+10	1	-1E+10	1	-1E+10	1	-1E+10	1	-1E+10	1
4902642	49	C	10/22/2025	21:56	-132.136	46.496	0	1589.80	0	2.3670	0	34.5280	0	27.573	0	1570.690	0	25.4	4	7.7	4	-1E+10	1	-1E+10	1	-1E+10	1	-1E+10	1	-1E+10	1	-1E+10	1
4902642	49	C	10/22/2025	21:56	-132.136	46.496	0	1609.80	0	2.3300	0	34.5300	0	27.577	0	1590.375	0	26.2	4	8.0	4	-1E+10	1	-1E+10	1	-1E+10	1	-1E+10	1	-1E+10	1	-1E+10	1
4902642	49	C	10/22/2025	21:56	-132.136	46.496	0	1630.10	0	2.3120	0	34.5320	0	27.581	0	1610.353	0	27.1	4	8.2	4	-1E+10	1	-1E+10	1	-1E+10	1	-1E+10	1	-1E+10	1	-1E+10	1
4902642	49	C	10/22/2025	21:56	-132.136	46.496	0	1649.90	0	2.2820	0	34.5360	0	27.586	0	1629.837	0	28.2	4	8.6	4	-1E+10	1	-1E+10	1	-1E+10	1	-1E+10	1	-1E+10	1	-1E+10	1
4902642	49	C	10/22/2025	21:56	-132.136	46.496	0	1670.00	0	2.2540	0	34.5400	0	27.592	0	1649.614	0	29.7	4	9.0	4	-1E+10	1	-1E+10	1	-1E+10	1	-1E+10	1	-1E+10	1	-1E+10	1
4902642	49	C	10/22/2025	21:56	-132.136	46.496	0	1690.50	0	2.2350	0	34.5440	0	27.597	0	1669.783	0	30.9	4	9.4	4	-1E+10	1	-1E+10	1	-1E+10	1	-1E+10	1	-1E+10	1	-1E+10	1
4902642	49	C	10/22/2025	21:56	-132.136	46.496	0	1709.80	0	2.2210	0	34.5480	0	27.601	0	1688.770	0	32.2	4	9.8	4	-1E+10	1	-1E+10	1	-1E+10	1	-1E+10	1	-1E+10	1	-1E+10	1
4902642	49	C	10/22/2025	21:56	-132.136	46.496	0	1729.80	0	2.1960	0	34.5520	0	27.606	0	1708.443	0	33.6	4	10.2	4	-1E+10	1	-1E+10	1	-1E+10	1	-1E+10	1	-1E+10	1	-1E+10	1
4902642	49	C	10/22/2025	21:56	-132.136	46.496	0	1749.70	0	2.1720	0	34.5550	0	27.611	0	1728.016	0	34.8	4	10.5	4	-1E+10	1	-1E+10	1	-1E+10	1	-1E+10	1	-1E+10	1	-1E+10	1
4902642	49	C	10/22/2025	21:56	-132.136	46.496	0	1770.00	0	2.1500	0	34.5580	0	27.615	0	1747.981	0	36.0	4	10.9	4	-1E+10	1	-1E+10	1	-1E+10	1	-1E+10	1	-1E+10	1	-1E+10	1
4902642	49	C	10/22/2025	21:56	-132.136	46.496	0	1790.10	0	2.1320	0	34.5620	0	27.620	0	1767.748	0	37.4	4	11.3	4	-1E+10	1	-1E+10	1	-1E+10	1	-1E+10	1	-1E+10	1	-1E+10	1
4902642	49	C	10/22/2025	21:56	-132.136	46.496	0	1810.00	0	2.1140	0	34.5640	0	27.623	0	1787.316	0	38.4	4	11.6	4	-1E+10	1	-1E+10	1	-1E+10	1	-1E+10	1	-1E+10	1	-1E+10	1
4902642	49	C	10/22/2025	21:56	-132.136	46.496	0	1829.90	0	2.0870	0	34.5670	0	27.628	0	1806.882	0	39.8	4	12.0	4	-1E+10	1	-1E+10	1	-1E+10	1	-1E+10	1	-1E+10	1	-1E+10	1
4902642	49	C	10/22/2025	21:56	-132.136	46.496	0	1850.10	0	2.0650	0	34.5710	0	27.633	0	1826.741	0	41.0	4	12.4	4	-1E+10	1	-1E+10	1	-1E+10	1	-1E+10	1	-1E+10	1	-1E+10	1
4902642	49	C	10/22/2025	21:56	-132.136	46.496	0	1870.30	0	2.0430	0	34.5740	0	27.637	0	1846.598	0	42.3	4	12.8	4	-1E+10	1	-1E+10	1	-1E+10	1	-1E+10	1	-1E+10	1	-1E+10	1
4902642	49	C	10/22/2025	21:56	-132.136	46.496	0	1890.50	0	2.0250	0	34.5770	0	27.641	0	1866.454	0	43.6	4	13.2	4	-1E+10	1	-1E+10	1	-1E+10	1	-1E+10	1	-1E+10	1	-1E+10	1
4902642	49	C	10/22/2025	21:56	-132.136	46.496	0	1910.40	0	2.0070	0	34.5800	0	27.645	0	1886.012	0	44.9	4	13.5	4	-1E+10	1	-1E+10	1	-1E+10	1	-1E+10	1	-1E+10	1	-1E+10	1
4902642	49	C	10/22/2025	21:56	-132.136	46.496	0	1929.60	0	1.9880	0	34.5830	0	27.649	0	1904.881	0	46.1	4	13.9	4	-1E+10	1	-1E+10	1	-1E+10	1	-1E+10	1	-1E+10	1	-1E+10	1
4902642	49	C	10/22/2025	21:56	-132.136	46.496	0	1949.70	0	1.9740	0	34.5850	0	27.652	0	1924.633	0	47.3	4	14.3	4	-1E+10	1	-1E+10	1	-1E+10	1	-1E+10	1	-1E+10	1	-1E+10	1
4902642	49	C	10/22/2025	21:56	-132.136	46.496	0	1970.10	0	1.9630	0	34.5880	0	27.655	0	1944.678	0	48.3	4	14.6	4	-1E+10	1	-1E+10	1	-1E+10	1	-1E+10	1	-1E+10	1	-1E+10	1
4902642	49	C	10/22/2025	21:56	-132.136	46.496	0	1990.20	0	1.9500	0	34.5900	0	27.658	0	1964.426	0	49.4	4	14.9	4	-1E+10	1	-1E+10	1	-1E+10	1	-1E+10	1	-1E+10	1	-1E+10	1
4902642	49	C	10/22/2025	21:56	-132.136	46.496	0	2010.20	0	1.9390	0	34.5920	4	27.660	0	1984.074	0	50.4	4	15.2	4	-1E+10	1	-1E+10	1	-1E+10	1	-1E+10	1	-1E+10	1	-1E+10	1
4902642	49	C	10/22/2025	21:56	-132.136	46.496	0	2030.70	0	1.9240	0	34.5940	4	27.663	0	2004.211	0	51.3	4	15.4	4	-1E+10	1	-1E+10	1	-1E+10	1	-1E+10	1	-1E+10	1	-1E+10	1
4902642	49	C	10/22/2025	21:56	-132.136	46.496	0	2050.10	0	1.9150	0	34.5960	4	27.665	0	2023.266	0	52.1	4	15.7	4	-1E+10	1	-1E+10	1	-1E+10	1	-1E+10	1	-1E+10	1	-1E+10	1
4902642	49	C	10/22/2025	21:56	-132.136	46.496	0	2070.30	0	1.9050	0	34.5980	4	27.668	0	2043.105	0	52.8	4	15.9	4	-1E+10	1	-1E+10	1	-1E+10	1	-1E+10	1	-1E+10	1	-1E+10	1
4902642	49	C	10/22/2025	21:56	-132.136	46.496	0	2090.10	0	1.8990	0	34.5990	4	27.669	0	2062.549	0	53.6	4	16.1	4	-1E+10	1	-1E+10	1	-1E+10	1	-1E+10	1	-1E+10	1	-1E+10	1
4902642	49	C	10/22/2025	21:56	-132.136	46.496	0	2109.80	0	1.8910	0	34.6010	4	27.672	0	2081.894	0	54.4	4	16.4	4	-1E+10	1	-1E+10	1	-1E+10	1	-1E+10	1	-1E+10	1	-1E+10	1
4902642	49	C	10/22/2025	21:56	-132.136	46.496	0	2130.00	0	1.8800	0	34.6030	4	27.674	0	2101.727	0	55.2	4	16.6	4	-1E+10	1	-1E+10	1	-1E+10	1	-1E+10	1	-1E+10	1	-1E+10	1
4902642	49	C	10/22/2025	21:56	-132.136	46.496	0	2150.00	0	1.8740	0	34.6040	4	27.676	0	2121.362	0	55.8	4	16.8	4	-1E+10	1	-1E+10	1	-1E+10	1	-1E+10	1	-1E+10	1	-1E+10	1
4902642	49	C	10/22/2025	21:56	-132.136	46.496	0	2169.90	0	1.8680	0	34.6060	4	27.678	0	2140.897	0	56.5	4	17.0	4	-1E+10	1	-1E+10	1	-1E+10	1	-1E+10	1	-1E+10	1	-1E+10	1
4902642	49	C	10/22/2025	21:56	-132.136	46.496	0	2190.30	0	1.8610	0	34.6070	4	27.679	0	2160.922	0	57.2	4	17.2	4	-1E+10	1	-1E+10	1	-1E+10	1	-1E+10	1	-1E+10	1	-1E+10	1
4902642	49	C	10/22/2025	21:56	-132.136	46.496	0	2210.10	0	1.8520	0	34.6080	4	27.681	0	2180.356	0	57.8	4	17.4	4	-1E+10	1	-1E+10	1	-1E+10	1	-1E+10	1	-1E+10	1	-1E+10	1
4902642	49	C	10/22/2025	21:56	-132.136	46.496	0	2229.60	0	1.8490	0	34.6090	4	27.682	0	2199.493	0	58.2	4	17.5	4	-1E+10	1	-1E+10	1	-1E+10	1	-1E+10	1	-1E+10	1	-1E+10	1
4902642	49	C	10/22/2025	21:56	-132.136	46.496	0	2250.50	0	1.8460	0	34.6100	4	27.683	0	2220.002	0	58.9	4	17.7	4	-1E+10	1	-1E+10	1	-1E+10	1	-1E+10	1	-1E+10	1	-1E+10	1
4902642	49	C	10/22/2025	21:56	-132.136	46.496	0	2269.80	0	1.8390	0	34.6110	4	27.685	0	2238.940	0	59.5	4	17.9	4	-1E+10	1	-1E+10	1	-1E+10	1	-1E+10	1	-1E+10	1	-1E+10	1
4902642	49	C	10/22/2025	21:56	-132.136	46.496	0	2289.60	0	1.8340	0	34.6130	4	27.687	0	2258.366	0	60.1	4	18.0	4	-1E+10	1	-1E+10	1	-1E+10	1	-1E+10	1	-1E+10	1	-1E+10	1
4902642	49	C	10/22/2025	21:56	-132.136	46.496	0	2309.60	0	1.8310	0	34.6130	4	27.687	0	2277.987	0	60.6	4	18.2	4	-1E+10	1	-1E+10	1	-1E+10	1	-1E+10	1	-1E+10	1	-1E+10	1
4902642	49	C	10/22/2025	21:56	-132.136	46.496	0	2329.80	0	1.8250	0	34.6140	4	27.688	0	2297.802	0	61.2	4	18.4	4	-1E+10	1	-1E+10	1	-1E+10	1	-1E+10	1	-1E+10	1	-1E+10	1
4902642	49	C	10/22/2025	21:56	-132.136	46.496	0	2350.20	0	1.8190	0	34.6150	4	27.690	0	2317.812	0	61.8	4	18.5	4	-1E+10	1	-1E+10	1	-1E+10	1	-1E+10	1	-1E+10	1	-1E+10	1
4902642	49	C	10/22/2025	21:56	-132.136	46.496	0	2370.40	0	1.8150	0	34.6160	4	27.691	0	2337.624	0	62.5	4	18.8	4	-1E+10	1	-1E+10	1	-1E+10	1	-1E+10	1	-1E+10	1	-1E+10	1
4902642	49	C	10/22/2025	21:56	-132.136	46.496	0	2390.00	0	1.8050	0	34.6180	4	27.693	0	2356.845	0	63.6	4	19.1	4	-1E+10	1	-1E+10	1	-1E+10	1	-1E+10	1	-1E+10	1	-1E+10	1
4902642	49	C	10/22/2025	21:56	-132.136	46.496	0	2409.70	0	1.7950	0	34.6190	4	27.695	0	2376.163	0	64.5	4	19.4	4	-1E+10	1	-1E+10	1	-1E+10	1	-1E+10	1	-1E+10	1	-1E+10	1
4902642	49	C	10/22/2025	21:56	-132.136	46.496	0	2430.20	0	1.7860	0	34.6210	4	27.698	0	2396.263	0	65.4	4	19.6	4	-1E+10	1	-1E+10	1	-1E+10	1	-1E+10	1	-1E+10	1	-1E+10	1
4902642	49	C	10/22/2025	21:56	-132.136	46.496	0	2449.70	0	1.7810	0	34.6210	4	27.698	0	2415.381	0	65.9	4	19.8	4	-1E+10	1	-1E+10	1	-1E+10	1	-1E+10	1	-1E+10	1	-1E+10	1
4902642	49	C	10/22/2025	21:56	-132.136	46.496	0	2469.80	0	1.7760	0	34.6220	4	27.699	0	2435.086	0	66.6	4	20.0	4	-1E+10	1	-1E+10	1	-1E+10	1	-1E+10	1	-1E+10	1	-1E+10	1
4902642	49	C	10/22/2025	21:56	-132.136	46.496	0	2489.90	0	1.7680	0	34.6240	4	27.702	0	2454.788	0	67.6	4	20.3	4	-1E+10	1	-1E+10	1	-1E+10	1	-1E+10	1	-1E+10	1	-1E+10	1
4902642	49	C	10/22/2025	21:56	-132.136	46.496	0	2510.00	0	1.7580	0	34.6250	4	27.703	0	2474.489	0	68.6	4	20.6	4	-1E+10	1	-1E+10	1	-1E+10	1	-1E+10	1	-1E+10	1	-1E+10	1
4902642	49	C	10/22/2025	21:56	-132.136	46.496	0	2530.00	0	1.7500	0	34.6260	4	27.705	0	2494.091	0	69.2	4	20.8	4	-1E+10	1	-1E+10	1	-1E+10	1	-1E+10	1	-1E+10	1	-1E+10	1
4902642	49	C	10/22/2025	21:56	-132.136	46.496	0	2549.80	0	1.7440	0	34.6270	4	27.706	0	2513.494	0	70.0	4	21.0	4	-1E+10	1	-1E+10	1	-1E+10	1	-1E+10	1	-1E+10	1	-1E+10	1
4902642	49	C	10/22/2025	21:56	-132.136	46.496	0	2570.30	0	1.7380	0	34.6280	4	27.708	0	2533.581	0	70.8	4	21.2	4	-1E+10	1	-1E+10	1	-1E+10	1	-1E+10	1	-1E+10	1	-1E+10	1
4902642	49	C	10/22/2025	21:56	-132.136	46.496	0	2589.90	0	1.7320	0	34.6290	4	27.709	0	2552.785	0	71.5	4	21.4	4	-1E+10	1	-1E+10	1	-1E+10	1	-1E+10	1	-1E+10	1	-1E+10	1
4902642	49	C	10/22/2025	21:56	-132.136	46.496	0	2609.90	0	1.7260	0	34.6300	4	27.710	0	2572.379	0	72.2	4	21.6	4	-1E+10	1	-1E+10	1	-1E+10	1	-1E+10	1	-1E+10	1	-1E+10	1
4902642	49	C	10/22/2025	21:56	-132.136	46.496	0	2629.90	0	1.7210	0	34.6310	4	27.712	0	2591.971	0	72.8	4	21.8	4	-1E+10	1	-1E+10	1	-1E+10	1	-1E+10	1	-1E+10	1	-1E+10	1
4902642	49	C	10/22/2025	21:56	-132.136	46.496	0	2650.30	0	1.7170	0	34.6310	4	27.712	0	2611.954	0	73.5	4	22.0	4	-1E+10	1	-1E+10	1	-1E+10	1	-1E+10	1	-1E+10	1	-1E+10	1
4902642	49	C	10/22/2025	21:56	-132.136	46.496	0	2670.30	0	1.7110	0	34.6320	4	27.713	0	2631.542	0	74.2	4	22.2	4	-1E+10	1	-1E+10	1	-1E+10	1	-1E+10	1	-1E+10	1	-1E+10	1
4902642	49	C	10/22/2025	21:56	-132.136	46.496	0	2690.20	0	1.7050	0	34.6330	4	27.715	0	2651.031	0	74.9	4	22.4	4	-1E+10	1	-1E+10	1	-1E+10	1	-1E+10	1	-1E+10	1	-1E+10	1
4902642	49	C	10/22/2025	21:56	-132.136	46.496	0	2709.90	0	1.7000	0	34.6340	4	27.716	0	2670.322	0	75.5	4	22.6	4	-1E+10	1	-1E+10	1	-1E+10	1	-1E+10	1	-1E+10	1	-1E+10	1
4902642	49	C	10/22/2025	21:56	-132.136	46.496	0	2729.70	0	1.6970	0	34.6340	4	27.716	0	2689.710	0	76.0	4	22.7	4	-1E+10	1	-1E+10	1	-1E+10	1	-1E+10	1	-1E+10	1	-1E+10	1
4902642	49	C	10/22/2025	21:56	-132.136	46.496	0	2749.80	0	1.6930	0	34.6350	4	27.718	0	2709.389	0	76.7	4	23.0	4	-1E+10	1	-1E+10	1	-1E+10	1	-1E+10	1	-1E+10	1	-1E+10	1
4902642	49	C	10/22/2025	21:56	-132.136	46.496	0	2770.10	0	1.6840	0	34.6360	4	27.719	0	2729.263	0	77.7	4	23.2	4	-1E+10	1	-1E+10	1	-1E+10	1	-1E+10	1	-1E+10	1	-1E+10	1
4902642	49	C	10/22/2025	21:56	-132.136	46.496	0	2789.80	0	1.6800	0	34.6370	4	27.720	0	2748.547	0	78.3	4	23.4	4	-1E+10	1	-1E+10	1	-1E+10	1	-1E+10	1	-1E+10	1	-1E+10	1
4902642	49	C	10/22/2025	21:56	-132.136	46.496	0	2809.90	0	1.6750	0	34.6380	4	27.722	0	2768.221	0	79.0	4	23.6	4	-1E+10	1	-1E+10	1	-1E+10	1	-1E+10	1	-1E+10	1	-1E+10	1
4902642	49	C	10/22/2025	21:56	-132.136	46.496	0	2830.30	0	1.6680	0	34.6390	4	27.723	0	2788.187	0	79.8	4	23.9	4	-1E+10	1	-1E+10	1	-1E+10	1	-1E+10	1	-1E+10	1	-1E+10	1
4902642	49	C	10/22/2025	21:56	-132.136	46.496	0	2850.20	0	1.6650	0	34.6400	4	27.724	0	2807.662	0	80.2	4	24.0	4	-1E+10	1	-1E+10	1	-1E+10	1	-1E+10	1	-1E+10	1	-1E+10	1
4902642	49	C	10/22/2025	21:56	-132.136	46.496	0	2870.30	0	1.6620	0	34.6400	4	27.725	0	2827.331	0	80.7	4	24.2	4	-1E+10	1	-1E+10	1	-1E+10	1	-1E+10	1	-1E+10	1	-1E+10	1
4902642	49	C	10/22/2025	21:56	-132.136	46.496	0	2889.70	0	1.6580	0	34.6410	4	27.726	0	2846.313	0	81.4	4	24.3	4	-1E+10	1	-1E+10	1	-1E+10	1	-1E+10	1	-1E+10	1	-1E+10	1
4902642	49	C	10/22/2025	21:56	-132.136	46.496	0	2909.70	0	1.6540	0	34.6420	4	27.727	0	2865.880	0	82.0	4	24.5	4	-1E+10	1	-1E+10	1	-1E+10	1	-1E+10	1	-1E+10	1	-1E+10	1
4902642	49	C	10/22/2025	21:56	-132.136	46.496	0	2930.10	0	1.6500	0	34.6430	4	27.728	0	2885.837	0	82.7	4	24.7	4	-1E+10	1	-1E+10	1	-1E+10	1	-1E+10	1	-1E+10	1	-1E+10	1
4902642	49	C	10/22/2025	21:56	-132.136	46.496	0	2949.90	0	1.6460	0	34.6430	4	27.729	0	2905.205	0	83.2	4	24.9	4	-1E+10	1	-1E+10	1	-1E+10	1	-1E+10	1	-1E+10	1	-1E+10	1
4902642	49	C	10/22/2025	21:56	-132.136	46.496	0	2970.00	0	1.6430	0	34.6440	4	27.730	0	2924.865	0	83.9	4	25.1	4	-1E+10	1	-1E+10	1	-1E+10	1	-1E+10	1	-1E+10	1	-1E+10	1
4902642	49	C	10/22/2025	21:56	-132.136	46.496	0	2990.00	0	1.6380	0	34.6450	4	27.731	0	2944.425	0	84.7	4	25.3	4	-1E+10	1	-1E+10	1	-1E+10	1	-1E+10	1	-1E+10	1	-1E+10	1
4902642	49	C	10/22/2025	21:56	-132.136	46.496	0	3010.00	0	1.6330	0	34.6460	4	27.732	0	2963.984	0	85.5	4	25.6	4	-1E+10	1	-1E+10	1	-1E+10	1	-1E+10	1	-1E+10	1	-1E+10	1
4902642	49	C	10/22/2025	21:56	-132.136	46.496	0	3030.30	0	1.6280	0	34.6470	4	27.734	0	2983.834	0	86.2	4	25.8	4	-1E+10	1	-1E+10	1	-1E+10	1	-1E+10	1	-1E+10	1	-1E+10	1
4902642	49	C	10/22/2025	21:56	-132.136	46.496	0	3050.10	0	1.6250	0	34.6470	4	27.734	0	3003.193	0	86.8	4	25.9	4	-1E+10	1	-1E+10	1	-1E+10	1	-1E+10	1	-1E+10	1	-1E+10	1
4902642	49	C	10/22/2025	21:56	-132.136	46.496	0	3069.70	0	1.6210	0	34.6480	4	27.735	0	3022.355	0	87.5	4	26.2	4	-1E+10	1	-1E+10	1	-1E+10	1	-1E+10	1	-1E+10	1	-1E+10	1
4902642	49	C	10/22/2025	21:56	-132.136	46.496	0	3089.70	0	1.6160	0	34.6490	4	27.737	0	3041.907	0	88.3	4	26.4	4	-1E+10	1	-1E+10	1	-1E+10	1	-1E+10	1	-1E+10	1	-1E+10	1
4902642	49	C	10/22/2025	21:56	-132.136	46.496	0	3109.90	0	1.6130	0	34.6500	4	27.738	0	3061.652	0	88.8	4	26.5	4	-1E+10	1	-1E+10	1	-1E+10	1	-1E+10	1	-1E+10	1	-1E+10	1
4902642	49	C	10/22/2025	21:56	-132.136	46.496	0	3129.90	0	1.6100	0	34.6500	4	27.738	0	3081.200	0	89.5	4	26.7	4	-1E+10	1	-1E+10	1	-1E+10	1	-1E+10	1	-1E+10	1	-1E+10	1
4902642	49	C	10/22/2025	21:56	-132.136	46.496	0	3150.50	0	1.6050	0	34.6510	4	27.739	0	3101.332	0	90.3	4	27.0	4	-1E+10	1	-1E+10	1	-1E+10	1	-1E+10	1	-1E+10	1	-1E+10	1
4902642	49	C	10/22/2025	21:56	-132.136	46.496	0	3169.80	0	1.6010	0	34.6520	4	27.741	0	3120.193	0	91.0	4	27.2	4	-1E+10	1	-1E+10	1	-1E+10	1	-1E+10	1	-1E+10	1	-1E+10	1
4902642	49	C	10/22/2025	21:56	-132.136	46.496	0	3189.90	0	1.5980	0	34.6530	4	27.742	0	3139.833	0	91.5	4	27.3	4	-1E+10	1	-1E+10	1	-1E+10	1	-1E+10	1	-1E+10	1	-1E+10	1
4902642	49	C	10/22/2025	21:56	-132.136	46.496	0	3209.90	0	1.5940	0	34.6540	4	27.743	0	3159.374	0	92.4	4	27.6	4	-1E+10	1	-1E+10	1	-1E+10	1	-1E+10	1	-1E+10	1	-1E+10	1
4902642	49	C	10/22/2025	21:56	-132.136	46.496	0	3229.80	0	1.5880	0	34.6550	4	27.744	0	3178.816	0	93.2	4	27.8	4	-1E+10	1	-1E+10	1	-1E+10	1	-1E+10	1	-1E+10	1	-1E+10	1
4902642	49	C	10/22/2025	21:56	-132.136	46.496	0	3249.80	0	1.5840	0	34.6560	4	27.746	0	3198.353	0	93.9	4	28.0	4	-1E+10	1	-1E+10	1	-1E+10	1	-1E+10	1	-1E+10	1	-1E+10	1
4902642	49	C	10/22/2025	21:56	-132.136	46.496	0	3270.10	0	1.5800	0	34.6560	4	27.746	0	3218.182	0	94.7	4	28.3	4	-1E+10	1	-1E+10	1	-1E+10	1	-1E+10	1	-1E+10	1	-1E+10	1
4902642	49	C	10/22/2025	21:56	-132.136	46.496	0	3287.30	0	1.5760	0	34.6570	4	27.747	0	3234.981	0	95.3	4	28.5	4	-1E+10	1	-1E+10	1	-1E+10	1	-1E+10	1	-1E+10	1	-1E+10	1
4902642	49	C	10/22/2025	21:56	-132.136	46.496	0	3294.80	0	1.5730	0	34.6590	4	27.749	0	3242.306	0	95.7	4	28.6	4	-1E+10	1	-1E+10	1	-1E+10	1	-1E+10	1	-1E+10	1	-1E+10	1
4902642	49	C	10/22/2025	21:56	-132.136	46.496	0	3295.60	0	1.5720	0	34.6590	4	27.749	0	3243.087	0	95.8	4	28.6	4	-1E+10	1	-1E+10	1	-1E+10	1	-1E+10	1	-1E+10	1	-1E+10	1
4902642	49	C	10/22/2025	21:56	-132.136	46.496	0	3296.50	0	1.5710	0	34.6590	4	27.749	0	3243.966	0	95.8	4	28.6	4	-1E+10	1	-1E+10	1	-1E+10	1	-1E+10	1	-1E+10	1	-1E+10	1
4902642	49	C	10/22/2025	21:56	-132.136	46.496	0	3297.30	0	1.5710	0	34.6590	4	27.749	0	3244.748	0	95.8	4	28.6	4	-1E+10	1	-1E+10	1	-1E+10	1	-1E+10	1	-1E+10	1	-1E+10	1
4902642	49	C	10/22/2025	21:56	-132.136	46.496	0	3298.20	0	1.5710	0	34.6590	4	27.749	0	3245.626	0	95.9	4	28.6	4	-1E+10	1	-1E+10	1	-1E+10	1	-1E+10	1	-1E+10	1	-1E+10	1
4902642	49	C	10/22/2025	21:56	-132.136	46.496	0	3299.50	0	1.5700	0	34.6590	4	27.749	0	3246.896	0	95.9	4	28.6	4	-1E+10	1	-1E+10	1	-1E+10	1	-1E+10	1	-1E+10	1	-1E+10	1
4902642	49	C	10/22/2025	21:56	-132.136	46.496	0	3300.80	0	1.5700	0	34.6590	4	27.749	0	3248.166	0	95.9	4	28.6	4	-1E+10	1	-1E+10	1	-1E+10	1	-1E+10	1	-1E+10	1	-1E+10	1
4902642	49	C	10/22/2025	21:56	-132.136	46.496	0	3301.70	0	1.5700	0	34.6590	4	27.749	0	3249.045	0	95.9	4	28.6	4	-1E+10	1	-1E+10	1	-1E+10	1	-1E+10	1	-1E+10	1	-1E+10	1
4902642	49	C	10/22/2025	21:56	-132.136	46.496	0	3302.50	0	1.5700	0	34.6600	4	27.750	0	3249.826	0	96.0	4	28.6	4	-1E+10	1	-1E+10	1	-1E+10	1	-1E+10	1	-1E+10	1	-1E+10	1
4902642	49	C	10/22/2025	21:56	-132.136	46.496	0	3303.40	0	1.5700	0	34.6590	4	27.749	0	3250.705	0	96.0	4	28.6	4	-1E+10	1	-1E+10	1	-1E+10	1	-1E+10	1	-1E+10	1	-1E+10	1
4902642	49	C	10/22/2025	21:56	-132.136	46.496	0	3304.30	0	1.5690	0	34.6590	4	27.749	0	3251.584	0	96.0	4	28.7	4	-1E+10	1	-1E+10	1	-1E+10	1	-1E+10	1	-1E+10	1	-1E+10	1
4902642	49	C	10/22/2025	21:56	-132.136	46.496	0	3305.60	0	1.5690	0	34.6590	4	27.749	0	3252.853	0	96.0	4	28.7	4	-1E+10	1	-1E+10	1	-1E+10	1	-1E+10	1	-1E+10	1	-1E+10	1
4902642	49	C	10/22/2025	21:56	-132.136	46.496	0	3306.90	0	1.5690	0	34.6590	4	27.749	0	3254.123	0	96.1	4	28.7	4	-1E+10	1	-1E+10	1	-1E+10	1	-1E+10	1	-1E+10	1	-1E+10	1
4902642	49	C	10/22/2025	21:56	-132.136	46.496	0	3307.80	0	1.5690	0	34.6590	4	27.749	0	3255.002	0	96.1	4	28.7	4	-1E+10	1	-1E+10	1	-1E+10	1	-1E+10	1	-1E+10	1	-1E+10	1
4902642	49	C	10/22/2025	21:56	-132.136	46.496	0	3308.70	0	1.5690	0	34.6600	4	27.750	0	3255.881	0	96.1	4	28.7	4	-1E+10	1	-1E+10	1	-1E+10	1	-1E+10	1	-1E+10	1	-1E+10	1
4902642	49	C	10/22/2025	21:56	-132.136	46.496	0	3309.60	0	1.5680	0	34.6590	4	27.749	0	3256.760	0	96.2	4	28.7	4	-1E+10	1	-1E+10	1	-1E+10	1	-1E+10	1	-1E+10	1	-1E+10	1
4902642	49	C	10/22/2025	21:56	-132.136	46.496	0	3310.40	0	1.5670	0	34.6600	4	27.750	0	3257.541	0	96.2	4	28.7	4	-1E+10	1	-1E+10	1	-1E+10	1	-1E+10	1	-1E+10	1	-1E+10	1
4902642	49	C	10/22/2025	21:56	-132.136	46.496	0	3311.30	0	1.5670	0	34.6600	4	27.750	0	3258.420	0	96.2	4	28.7	4	-1E+10	1	-1E+10	1	-1E+10	1	-1E+10	1	-1E+10	1	-1E+10	1
4902642	49	C	10/22/2025	21:56	-132.136	46.496	0	3312.60	0	1.5670	0	34.6600	4	27.750	0	3259.689	0	96.2	4	28.7	4	-1E+10	1	-1E+10	1	-1E+10	1	-1E+10	1	-1E+10	1	-1E+10	1
4902642	49	C	10/22/2025	21:56	-132.136	46.496	0	3313.90	0	1.5670	0	34.6600	4	27.750	0	3260.959	0	96.2	4	28.7	4	-1E+10	1	-1E+10	1	-1E+10	1	-1E+10	1	-1E+10	1	-1E+10	1
4902642	49	C	10/22/2025	21:56	-132.136	46.496	0	3314.70	0	1.5660	0	34.6600	4	27.750	0	3261.740	0	96.2	4	28.7	4	-1E+10	1	-1E+10	1	-1E+10	1	-1E+10	1	-1E+10	1	-1E+10	1
4902642	49	C	10/22/2025	21:56	-132.136	46.496	0	3315.60	0	1.5660	0	34.6600	4	27.750	0	3262.619	0	96.2	4	28.7	4	-1E+10	1	-1E+10	1	-1E+10	1	-1E+10	1	-1E+10	1	-1E+10	1
4902642	49	C	10/22/2025	21:56	-132.136	46.496	0	3316.60	0	1.5670	0	34.6600	4	27.750	0	3263.596	0	96.2	4	28.7	4	-1E+10	1	-1E+10	1	-1E+10	1	-1E+10	1	-1E+10	1	-1E+10	1
4902642	49	C	10/22/2025	21:56	-132.136	46.496	0	3317.40	0	1.5670	0	34.6600	4	27.750	0	3264.377	0	96.2	4	28.7	4	-1E+10	1	-1E+10	1	-1E+10	1	-1E+10	1	-1E+10	1	-1E+10	1
4902642	49	C	10/22/2025	21:56	-132.136	46.496	0	3318.30	0	1.5670	0	34.6600	4	27.750	0	3265.256	0	96.2	4	28.7	4	-1E+10	1	-1E+10	1	-1E+10	1	-1E+10	1	-1E+10	1	-1E+10	1
4902642	49	C	10/22/2025	21:56	-132.136	46.496	0	3319.30	0	1.5660	0	34.6600	4	27.750	0	3266.232	0	96.2	4	28.7	4	-1E+10	1	-1E+10	1	-1E+10	1	-1E+10	1	-1E+10	1	-1E+10	1
4902642	49	C	10/22/2025	21:56	-132.136	46.496	0	3320.50	0	1.5660	0	34.6600	4	27.750	0	3267.404	0	96.3	4	28.7	4	-1E+10	1	-1E+10	1	-1E+10	1	-1E+10	1	-1E+10	1	-1E+10	1
4902642	49	C	10/22/2025	21:56	-132.136	46.496	0	3322.00	0	1.5660	0	34.6600	4	27.751	0	3268.869	0	96.2	4	28.7	4	-1E+10	1	-1E+10	1	-1E+10	1	-1E+10	1	-1E+10	1	-1E+10	1
4902642	49	C	10/22/2025	21:56	-132.136	46.496	0	3322.90	0	1.5670	0	34.6600	4	27.750	0	3269.747	0	96.2	4	28.7	4	-1E+10	1	-1E+10	1	-1E+10	1	-1E+10	1	-1E+10	1	-1E+10	1
4902642	49	C	10/22/2025	21:56	-132.136	46.496	0	3323.70	0	1.5670	0	34.6600	4	27.750	0	3270.529	0	96.3	4	28.7	4	-1E+10	1	-1E+10	1	-1E+10	1	-1E+10	1	-1E+10	1	-1E+10	1
4902642	49	C	10/22/2025	21:56	-132.136	46.496	0	3324.70	0	1.5660	0	34.6600	4	27.751	0	3271.505	0	96.3	4	28.7	4	-1E+10	1	-1E+10	1	-1E+10	1	-1E+10	1	-1E+10	1	-1E+10	1
4902642	49	C	10/22/2025	21:56	-132.136	46.496	0	3325.50	0	1.5660	0	34.6600	4	27.751	0	3272.286	0	96.3	4	28.7	4	-1E+10	1	-1E+10	1	-1E+10	1	-1E+10	1	-1E+10	1	-1E+10	1
4902642	49	C	10/22/2025	21:56	-132.136	46.496	0	3326.40	0	1.5670	0	34.6600	4	27.750	0	3273.165	0	96.3	4	28.7	4	-1E+10	1	-1E+10	1	-1E+10	1	-1E+10	1	-1E+10	1	-1E+10	1
4902642	49	C	10/22/2025	21:56	-132.136	46.496	0	3327.40	0	1.5670	0	34.6600	4	27.750	0	3274.142	0	96.2	4	28.7	4	-1E+10	1	-1E+10	1	-1E+10	1	-1E+10	1	-1E+10	1	-1E+10	1
4902642	49	C	10/22/2025	21:56	-132.136	46.496	0	3328.20	0	1.5660	0	34.6600	4	27.751	0	3274.923	0	96.2	4	28.7	4	-1E+10	1	-1E+10	1	-1E+10	1	-1E+10	1	-1E+10	1	-1E+10	1
4902642	49	C	10/22/2025	21:56	-132.136	46.496	0	3329.20	0	1.5670	0	34.6600	4	27.750	0	3275.899	0	96.3	4	28.7	4	-1E+10	1	-1E+10	1	-1E+10	1	-1E+10	1	-1E+10	1	-1E+10	1
4902642	49	C	10/22/2025	21:56	-132.136	46.496	0	3330.50	0	1.5670	0	34.6600	4	27.750	0	3277.169	0	96.3	4	28.7	4	-1E+10	1	-1E+10	1	-1E+10	1	-1E+10	1	-1E+10	1	-1E+10	1
4902642	49	C	10/22/2025	21:56	-132.136	46.496	0	3331.90	0	1.5670	0	34.6600	4	27.751	0	3278.536	0	96.3	4	28.7	4	-1E+10	1	-1E+10	1	-1E+10	1	-1E+10	1	-1E+10	1	-1E+10	1
4902642	49	C	10/22/2025	21:56	-132.136	46.496	0	3332.80	0	1.5670	0	34.6600	4	27.751	0	3279.415	0	96.3	4	28.7	4	-1E+10	1	-1E+10	1	-1E+10	1	-1E+10	1	-1E+10	1	-1E+10	1
4902642	49	C	10/22/2025	21:56	-132.136	46.496	0	3333.60	0	1.5670	0	34.6600	4	27.751	0	3280.196	0	96.3	4	28.7	4	-1E+10	1	-1E+10	1	-1E+10	1	-1E+10	1	-1E+10	1	-1E+10	1
4902642	49	C	10/22/2025	21:56	-132.136	46.496	0	3334.60	0	1.5670	0	34.6610	4	27.751	0	3281.172	0	96.3	4	28.7	4	-1E+10	1	-1E+10	1	-1E+10	1	-1E+10	1	-1E+10	1	-1E+10	1
4902642	49	C	10/22/2025	21:56	-132.136	46.496	0	3335.50	0	1.5670	0	34.6600	4	27.751	0	3282.051	0	96.2	4	28.7	4	-1E+10	1	-1E+10	1	-1E+10	1	-1E+10	1	-1E+10	1	-1E+10	1
4902642	49	C	10/22/2025	21:56	-132.136	46.496	0	3336.40	0	1.5670	0	34.6600	4	27.751	0	3282.930	0	96.2	4	28.7	4	-1E+10	1	-1E+10	1	-1E+10	1	-1E+10	1	-1E+10	1	-1E+10	1
4902642	49	C	10/22/2025	21:56	-132.136	46.496	0	3337.30	0	1.5670	0	34.6600	4	27.751	0	3283.809	0	96.2	4	28.7	4	-1E+10	1	-1E+10	1	-1E+10	1	-1E+10	1	-1E+10	1	-1E+10	1
4902642	49	C	10/22/2025	21:56	-132.136	46.496	0	3338.50	0	1.5670	0	34.6600	4	27.751	0	3284.981	0	96.2	4	28.7	4	-1E+10	1	-1E+10	1	-1E+10	1	-1E+10	1	-1E+10	1	-1E+10	1
4902642	49	C	10/22/2025	21:56	-132.136	46.496	0	3340.70	0	1.5680	0	34.6600	4	27.750	0	3287.129	0	96.2	4	28.7	4	-1E+10	1	-1E+10	1	-1E+10	1	-1E+10	1	-1E+10	1	-1E+10	1
4902642	49	C	10/22/2025	21:56	-132.136	46.496	0	3341.70	0	1.5670	0	34.6600	4	27.751	0	3288.105	0	96.2	4	28.7	4	-1E+10	1	-1E+10	1	-1E+10	1	-1E+10	1	-1E+10	1	-1E+10	1
4902642	49	C	10/22/2025	21:56	-132.136	46.496	0	3342.40	0	1.5680	0	34.6600	4	27.751	0	3288.789	0	96.2	4	28.7	4	-1E+10	1	-1E+10	1	-1E+10	1	-1E+10	1	-1E+10	1	-1E+10	1
4902642	49	C	10/22/2025	21:56	-132.136	46.496	0	3343.80	0	1.5680	0	34.6600	4	27.751	0	3290.156	0	96.2	4	28.7	4	-1E+10	1	-1E+10	1	-1E+10	1	-1E+10	1	-1E+10	1	-1E+10	1
4902642	49	C	10/22/2025	21:56	-132.136	46.496	0	3344.50	0	1.5680	0	34.6600	4	27.751	0	3290.839	0	96.3	4	28.7	4	-1E+10	1	-1E+10	1	-1E+10	1	-1E+10	1	-1E+10	1	-1E+10	1
4902642	49	C	10/22/2025	21:56	-132.136	46.496	0																										
